<?xml version="1.0" encoding="UTF-8" standalone="no" ?>
<gpx xmlns="http://www.topografix.com/GPX/1/1" xmlns:xsi="http://www.w3.org/2001/XMLSchema-instance" xsi:schemaLocation="http://www.topografix.com/GPX/1/1 http://www.topografix.com/GPX/1/1/gpx.xsd" version="1.1" creator="VisuGPX - https://www.visugpx.com">
  <metadata>
    <name>Confrérie Hop hop hop</name>
  </metadata>
  <trk>
    <name><![CDATA[Confrérie Hop hop hop_1]]></name>
    <trkseg>
      <trkpt lat="50.76688" lon="3.70798">
        <ele>138</ele>
        <time>2015-12-13T09:54:54Z</time>
      </trkpt>
      <trkpt lat="50.76686" lon="3.70796">
        <ele>138</ele>
        <time>2015-12-13T09:54:56Z</time>
      </trkpt>
      <trkpt lat="50.76685" lon="3.70794">
        <ele>138</ele>
        <time>2015-12-13T09:54:58Z</time>
      </trkpt>
      <trkpt lat="50.76683" lon="3.70791">
        <ele>138</ele>
        <time>2015-12-13T09:55:00Z</time>
      </trkpt>
      <trkpt lat="50.76682" lon="3.70787">
        <ele>139</ele>
        <time>2015-12-13T09:55:02Z</time>
      </trkpt>
      <trkpt lat="50.7668" lon="3.70783">
        <ele>139</ele>
        <time>2015-12-13T09:55:04Z</time>
      </trkpt>
      <trkpt lat="50.76679" lon="3.7078">
        <ele>139</ele>
        <time>2015-12-13T09:55:06Z</time>
      </trkpt>
      <trkpt lat="50.76678" lon="3.70776">
        <ele>139</ele>
        <time>2015-12-13T09:55:08Z</time>
      </trkpt>
      <trkpt lat="50.76677" lon="3.70772">
        <ele>139</ele>
        <time>2015-12-13T09:55:10Z</time>
      </trkpt>
      <trkpt lat="50.76676" lon="3.70769">
        <ele>140</ele>
        <time>2015-12-13T09:55:12Z</time>
      </trkpt>
      <trkpt lat="50.76675" lon="3.70764">
        <ele>140</ele>
        <time>2015-12-13T09:55:14Z</time>
      </trkpt>
      <trkpt lat="50.76675" lon="3.70759">
        <ele>140</ele>
        <time>2015-12-13T09:55:16Z</time>
      </trkpt>
      <trkpt lat="50.76674" lon="3.70755">
        <ele>140</ele>
        <time>2015-12-13T09:55:18Z</time>
      </trkpt>
      <trkpt lat="50.76673" lon="3.70752">
        <ele>140</ele>
        <time>2015-12-13T09:55:20Z</time>
      </trkpt>
      <trkpt lat="50.76672" lon="3.70747">
        <ele>141</ele>
        <time>2015-12-13T09:55:22Z</time>
      </trkpt>
      <trkpt lat="50.76672" lon="3.70743">
        <ele>141</ele>
        <time>2015-12-13T09:55:24Z</time>
      </trkpt>
      <trkpt lat="50.76672" lon="3.7074">
        <ele>141</ele>
        <time>2015-12-13T09:55:27Z</time>
      </trkpt>
      <trkpt lat="50.7667" lon="3.70735">
        <ele>141.7</ele>
        <time>2015-12-13T09:55:31Z</time>
      </trkpt>
      <trkpt lat="50.76669" lon="3.70731">
        <ele>142</ele>
        <time>2015-12-13T09:55:33Z</time>
      </trkpt>
      <trkpt lat="50.76668" lon="3.70727">
        <ele>142</ele>
        <time>2015-12-13T09:55:35Z</time>
      </trkpt>
      <trkpt lat="50.76668" lon="3.70724">
        <ele>142</ele>
        <time>2015-12-13T09:55:36Z</time>
      </trkpt>
      <trkpt lat="50.76667" lon="3.7072">
        <ele>142</ele>
        <time>2015-12-13T09:55:38Z</time>
      </trkpt>
      <trkpt lat="50.76666" lon="3.70717">
        <ele>142</ele>
        <time>2015-12-13T09:55:40Z</time>
      </trkpt>
      <trkpt lat="50.76666" lon="3.70713">
        <ele>144</ele>
        <time>2015-12-13T09:55:42Z</time>
      </trkpt>
      <trkpt lat="50.76665" lon="3.7071">
        <ele>144</ele>
        <time>2015-12-13T09:55:44Z</time>
      </trkpt>
      <trkpt lat="50.7667" lon="3.70713">
        <ele>144</ele>
        <time>2015-12-13T09:55:54Z</time>
      </trkpt>
      <trkpt lat="50.76666" lon="3.70707">
        <ele>143</ele>
        <time>2015-12-13T09:56:03Z</time>
      </trkpt>
      <trkpt lat="50.76665" lon="3.70705">
        <ele>143</ele>
        <time>2015-12-13T09:56:05Z</time>
      </trkpt>
      <trkpt lat="50.76664" lon="3.70702">
        <ele>143</ele>
        <time>2015-12-13T09:56:07Z</time>
      </trkpt>
      <trkpt lat="50.76662" lon="3.70697">
        <ele>143</ele>
        <time>2015-12-13T09:56:09Z</time>
      </trkpt>
      <trkpt lat="50.76661" lon="3.70695">
        <ele>144.4</ele>
        <time>2015-12-13T09:56:11Z</time>
      </trkpt>
      <trkpt lat="50.76659" lon="3.70692">
        <ele>145</ele>
        <time>2015-12-13T09:56:13Z</time>
      </trkpt>
      <trkpt lat="50.76658" lon="3.70689">
        <ele>145</ele>
        <time>2015-12-13T09:56:15Z</time>
      </trkpt>
      <trkpt lat="50.76657" lon="3.70687">
        <ele>145</ele>
        <time>2015-12-13T09:56:17Z</time>
      </trkpt>
      <trkpt lat="50.76656" lon="3.70684">
        <ele>145</ele>
        <time>2015-12-13T09:56:20Z</time>
      </trkpt>
      <trkpt lat="50.76654" lon="3.70679">
        <ele>146</ele>
        <time>2015-12-13T09:56:24Z</time>
      </trkpt>
      <trkpt lat="50.76653" lon="3.70677">
        <ele>146</ele>
        <time>2015-12-13T09:56:26Z</time>
      </trkpt>
      <trkpt lat="50.76652" lon="3.70674">
        <ele>146</ele>
        <time>2015-12-13T09:56:28Z</time>
      </trkpt>
      <trkpt lat="50.7665" lon="3.70672">
        <ele>146</ele>
        <time>2015-12-13T09:56:30Z</time>
      </trkpt>
      <trkpt lat="50.76648" lon="3.70669">
        <ele>147</ele>
        <time>2015-12-13T09:56:32Z</time>
      </trkpt>
      <trkpt lat="50.76645" lon="3.70667">
        <ele>147</ele>
        <time>2015-12-13T09:56:34Z</time>
      </trkpt>
      <trkpt lat="50.76643" lon="3.70666">
        <ele>147</ele>
        <time>2015-12-13T09:56:35Z</time>
      </trkpt>
      <trkpt lat="50.76642" lon="3.70664">
        <ele>147</ele>
        <time>2015-12-13T09:56:36Z</time>
      </trkpt>
      <trkpt lat="50.7664" lon="3.70663">
        <ele>147</ele>
        <time>2015-12-13T09:56:38Z</time>
      </trkpt>
      <trkpt lat="50.76638" lon="3.70662">
        <ele>147</ele>
        <time>2015-12-13T09:56:40Z</time>
      </trkpt>
      <trkpt lat="50.76636" lon="3.70659">
        <ele>148</ele>
        <time>2015-12-13T09:56:42Z</time>
      </trkpt>
      <trkpt lat="50.76634" lon="3.70657">
        <ele>148</ele>
        <time>2015-12-13T09:56:44Z</time>
      </trkpt>
      <trkpt lat="50.76633" lon="3.70654">
        <ele>148</ele>
        <time>2015-12-13T09:56:46Z</time>
      </trkpt>
      <trkpt lat="50.76631" lon="3.7065">
        <ele>148</ele>
        <time>2015-12-13T09:56:48Z</time>
      </trkpt>
      <trkpt lat="50.76629" lon="3.70648">
        <ele>148</ele>
        <time>2015-12-13T09:56:50Z</time>
      </trkpt>
      <trkpt lat="50.76626" lon="3.70647">
        <ele>150</ele>
        <time>2015-12-13T09:56:52Z</time>
      </trkpt>
      <trkpt lat="50.76624" lon="3.70645">
        <ele>150</ele>
        <time>2015-12-13T09:56:54Z</time>
      </trkpt>
      <trkpt lat="50.76621" lon="3.70644">
        <ele>150</ele>
        <time>2015-12-13T09:56:56Z</time>
      </trkpt>
      <trkpt lat="50.76619" lon="3.70643">
        <ele>150</ele>
        <time>2015-12-13T09:56:58Z</time>
      </trkpt>
      <trkpt lat="50.76617" lon="3.7064">
        <ele>150</ele>
        <time>2015-12-13T09:57:00Z</time>
      </trkpt>
      <trkpt lat="50.76615" lon="3.70638">
        <ele>151</ele>
        <time>2015-12-13T09:57:02Z</time>
      </trkpt>
      <trkpt lat="50.76614" lon="3.70636">
        <ele>151</ele>
        <time>2015-12-13T09:57:04Z</time>
      </trkpt>
      <trkpt lat="50.76612" lon="3.70633">
        <ele>151</ele>
        <time>2015-12-13T09:57:06Z</time>
      </trkpt>
      <trkpt lat="50.7661" lon="3.7063">
        <ele>151</ele>
        <time>2015-12-13T09:57:08Z</time>
      </trkpt>
      <trkpt lat="50.76608" lon="3.70627">
        <ele>151</ele>
        <time>2015-12-13T09:57:10Z</time>
      </trkpt>
      <trkpt lat="50.76607" lon="3.70623">
        <ele>151</ele>
        <time>2015-12-13T09:57:12Z</time>
      </trkpt>
      <trkpt lat="50.76605" lon="3.7062">
        <ele>151</ele>
        <time>2015-12-13T09:57:14Z</time>
      </trkpt>
      <trkpt lat="50.76603" lon="3.70617">
        <ele>151</ele>
        <time>2015-12-13T09:57:16Z</time>
      </trkpt>
      <trkpt lat="50.76602" lon="3.70614">
        <ele>151</ele>
        <time>2015-12-13T09:57:18Z</time>
      </trkpt>
      <trkpt lat="50.76601" lon="3.70611">
        <ele>150.3</ele>
        <time>2015-12-13T09:57:20Z</time>
      </trkpt>
      <trkpt lat="50.76601" lon="3.70607">
        <ele>151</ele>
        <time>2015-12-13T09:57:22Z</time>
      </trkpt>
      <trkpt lat="50.766" lon="3.70602">
        <ele>151</ele>
        <time>2015-12-13T09:57:24Z</time>
      </trkpt>
      <trkpt lat="50.766" lon="3.70598">
        <ele>151</ele>
        <time>2015-12-13T09:57:26Z</time>
      </trkpt>
      <trkpt lat="50.76599" lon="3.70594">
        <ele>151</ele>
        <time>2015-12-13T09:57:28Z</time>
      </trkpt>
      <trkpt lat="50.76598" lon="3.70591">
        <ele>151</ele>
        <time>2015-12-13T09:57:30Z</time>
      </trkpt>
      <trkpt lat="50.76597" lon="3.70587">
        <ele>153</ele>
        <time>2015-12-13T09:57:32Z</time>
      </trkpt>
      <trkpt lat="50.76596" lon="3.70583">
        <ele>153</ele>
        <time>2015-12-13T09:57:34Z</time>
      </trkpt>
      <trkpt lat="50.76595" lon="3.70579">
        <ele>153</ele>
        <time>2015-12-13T09:57:37Z</time>
      </trkpt>
      <trkpt lat="50.76595" lon="3.70575">
        <ele>153</ele>
        <time>2015-12-13T09:57:39Z</time>
      </trkpt>
      <trkpt lat="50.76593" lon="3.70571">
        <ele>153.7</ele>
        <time>2015-12-13T09:57:41Z</time>
      </trkpt>
      <trkpt lat="50.76593" lon="3.70567">
        <ele>154</ele>
        <time>2015-12-13T09:57:43Z</time>
      </trkpt>
      <trkpt lat="50.76592" lon="3.70563">
        <ele>154</ele>
        <time>2015-12-13T09:57:45Z</time>
      </trkpt>
      <trkpt lat="50.76592" lon="3.7056">
        <ele>154</ele>
        <time>2015-12-13T09:57:47Z</time>
      </trkpt>
      <trkpt lat="50.76591" lon="3.70557">
        <ele>154</ele>
        <time>2015-12-13T09:57:49Z</time>
      </trkpt>
      <trkpt lat="50.7659" lon="3.70553">
        <ele>154</ele>
        <time>2015-12-13T09:57:51Z</time>
      </trkpt>
      <trkpt lat="50.7659" lon="3.7055">
        <ele>154</ele>
        <time>2015-12-13T09:57:53Z</time>
      </trkpt>
      <trkpt lat="50.76589" lon="3.70547">
        <ele>154</ele>
        <time>2015-12-13T09:57:55Z</time>
      </trkpt>
      <trkpt lat="50.76588" lon="3.70543">
        <ele>154</ele>
        <time>2015-12-13T09:57:57Z</time>
      </trkpt>
      <trkpt lat="50.76588" lon="3.7054">
        <ele>154</ele>
        <time>2015-12-13T09:57:59Z</time>
      </trkpt>
      <trkpt lat="50.76587" lon="3.70536">
        <ele>154</ele>
        <time>2015-12-13T09:58:01Z</time>
      </trkpt>
      <trkpt lat="50.76586" lon="3.70533">
        <ele>154</ele>
        <time>2015-12-13T09:58:03Z</time>
      </trkpt>
      <trkpt lat="50.76585" lon="3.70531">
        <ele>153</ele>
        <time>2015-12-13T09:58:06Z</time>
      </trkpt>
      <trkpt lat="50.76586" lon="3.70525">
        <ele>153</ele>
        <time>2015-12-13T09:58:14Z</time>
      </trkpt>
      <trkpt lat="50.76587" lon="3.70523">
        <ele>153</ele>
        <time>2015-12-13T09:58:16Z</time>
      </trkpt>
      <trkpt lat="50.76587" lon="3.7052">
        <ele>153</ele>
        <time>2015-12-13T09:58:18Z</time>
      </trkpt>
      <trkpt lat="50.76587" lon="3.70516">
        <ele>153</ele>
        <time>2015-12-13T09:58:20Z</time>
      </trkpt>
      <trkpt lat="50.76587" lon="3.70513">
        <ele>154</ele>
        <time>2015-12-13T09:58:22Z</time>
      </trkpt>
      <trkpt lat="50.76586" lon="3.70508">
        <ele>154</ele>
        <time>2015-12-13T09:58:24Z</time>
      </trkpt>
      <trkpt lat="50.76585" lon="3.70503">
        <ele>154</ele>
        <time>2015-12-13T09:58:26Z</time>
      </trkpt>
      <trkpt lat="50.76584" lon="3.70499">
        <ele>154</ele>
        <time>2015-12-13T09:58:28Z</time>
      </trkpt>
      <trkpt lat="50.76583" lon="3.70495">
        <ele>154</ele>
        <time>2015-12-13T09:58:30Z</time>
      </trkpt>
      <trkpt lat="50.76583" lon="3.70491">
        <ele>154</ele>
        <time>2015-12-13T09:58:32Z</time>
      </trkpt>
      <trkpt lat="50.76582" lon="3.70486">
        <ele>154</ele>
        <time>2015-12-13T09:58:34Z</time>
      </trkpt>
      <trkpt lat="50.76582" lon="3.70482">
        <ele>154</ele>
        <time>2015-12-13T09:58:36Z</time>
      </trkpt>
      <trkpt lat="50.76581" lon="3.70478">
        <ele>154</ele>
        <time>2015-12-13T09:58:38Z</time>
      </trkpt>
      <trkpt lat="50.76581" lon="3.70474">
        <ele>154</ele>
        <time>2015-12-13T09:58:40Z</time>
      </trkpt>
      <trkpt lat="50.7658" lon="3.7047">
        <ele>154</ele>
        <time>2015-12-13T09:58:42Z</time>
      </trkpt>
      <trkpt lat="50.7658" lon="3.70465">
        <ele>154</ele>
        <time>2015-12-13T09:58:44Z</time>
      </trkpt>
      <trkpt lat="50.7658" lon="3.70461">
        <ele>154</ele>
        <time>2015-12-13T09:58:46Z</time>
      </trkpt>
      <trkpt lat="50.76579" lon="3.70457">
        <ele>154</ele>
        <time>2015-12-13T09:58:48Z</time>
      </trkpt>
      <trkpt lat="50.76579" lon="3.70452">
        <ele>154</ele>
        <time>2015-12-13T09:58:50Z</time>
      </trkpt>
      <trkpt lat="50.76578" lon="3.70448">
        <ele>154</ele>
        <time>2015-12-13T09:58:52Z</time>
      </trkpt>
      <trkpt lat="50.76578" lon="3.70444">
        <ele>154</ele>
        <time>2015-12-13T09:58:54Z</time>
      </trkpt>
      <trkpt lat="50.76577" lon="3.70439">
        <ele>154</ele>
        <time>2015-12-13T09:58:56Z</time>
      </trkpt>
      <trkpt lat="50.76576" lon="3.70434">
        <ele>154</ele>
        <time>2015-12-13T09:58:58Z</time>
      </trkpt>
      <trkpt lat="50.76576" lon="3.70431">
        <ele>154</ele>
        <time>2015-12-13T09:59:00Z</time>
      </trkpt>
      <trkpt lat="50.76575" lon="3.70426">
        <ele>155</ele>
        <time>2015-12-13T09:59:03Z</time>
      </trkpt>
      <trkpt lat="50.76574" lon="3.70422">
        <ele>155</ele>
        <time>2015-12-13T09:59:05Z</time>
      </trkpt>
      <trkpt lat="50.76574" lon="3.70418">
        <ele>155</ele>
        <time>2015-12-13T09:59:07Z</time>
      </trkpt>
      <trkpt lat="50.76573" lon="3.70414">
        <ele>155</ele>
        <time>2015-12-13T09:59:09Z</time>
      </trkpt>
      <trkpt lat="50.76572" lon="3.70409">
        <ele>155</ele>
        <time>2015-12-13T09:59:11Z</time>
      </trkpt>
      <trkpt lat="50.76571" lon="3.70405">
        <ele>155</ele>
        <time>2015-12-13T09:59:13Z</time>
      </trkpt>
      <trkpt lat="50.7657" lon="3.70401">
        <ele>155</ele>
        <time>2015-12-13T09:59:15Z</time>
      </trkpt>
      <trkpt lat="50.76569" lon="3.70397">
        <ele>154</ele>
        <time>2015-12-13T09:59:17Z</time>
      </trkpt>
      <trkpt lat="50.76569" lon="3.70392">
        <ele>154</ele>
        <time>2015-12-13T09:59:19Z</time>
      </trkpt>
      <trkpt lat="50.76568" lon="3.70389">
        <ele>154</ele>
        <time>2015-12-13T09:59:20Z</time>
      </trkpt>
      <trkpt lat="50.76567" lon="3.70386">
        <ele>154</ele>
        <time>2015-12-13T09:59:21Z</time>
      </trkpt>
      <trkpt lat="50.76566" lon="3.70383">
        <ele>154</ele>
        <time>2015-12-13T09:59:22Z</time>
      </trkpt>
      <trkpt lat="50.76566" lon="3.70379">
        <ele>154</ele>
        <time>2015-12-13T09:59:23Z</time>
      </trkpt>
      <trkpt lat="50.76566" lon="3.70376">
        <ele>154</ele>
        <time>2015-12-13T09:59:24Z</time>
      </trkpt>
      <trkpt lat="50.76566" lon="3.70373">
        <ele>154</ele>
        <time>2015-12-13T09:59:25Z</time>
      </trkpt>
      <trkpt lat="50.76565" lon="3.7037">
        <ele>154</ele>
        <time>2015-12-13T09:59:26Z</time>
      </trkpt>
      <trkpt lat="50.76565" lon="3.70367">
        <ele>154</ele>
        <time>2015-12-13T09:59:27Z</time>
      </trkpt>
      <trkpt lat="50.76564" lon="3.70364">
        <ele>154</ele>
        <time>2015-12-13T09:59:28Z</time>
      </trkpt>
      <trkpt lat="50.76563" lon="3.7036">
        <ele>154</ele>
        <time>2015-12-13T09:59:29Z</time>
      </trkpt>
      <trkpt lat="50.76563" lon="3.70357">
        <ele>153.3</ele>
        <time>2015-12-13T09:59:30Z</time>
      </trkpt>
      <trkpt lat="50.76563" lon="3.70353">
        <ele>153</ele>
        <time>2015-12-13T09:59:31Z</time>
      </trkpt>
      <trkpt lat="50.76562" lon="3.7035">
        <ele>153</ele>
        <time>2015-12-13T09:59:32Z</time>
      </trkpt>
      <trkpt lat="50.76562" lon="3.70346">
        <ele>153</ele>
        <time>2015-12-13T09:59:33Z</time>
      </trkpt>
      <trkpt lat="50.76561" lon="3.70343">
        <ele>153</ele>
        <time>2015-12-13T09:59:34Z</time>
      </trkpt>
      <trkpt lat="50.76561" lon="3.70339">
        <ele>153</ele>
        <time>2015-12-13T09:59:35Z</time>
      </trkpt>
      <trkpt lat="50.76561" lon="3.70336">
        <ele>153</ele>
        <time>2015-12-13T09:59:36Z</time>
      </trkpt>
      <trkpt lat="50.7656" lon="3.70332">
        <ele>153</ele>
        <time>2015-12-13T09:59:37Z</time>
      </trkpt>
      <trkpt lat="50.7656" lon="3.70328">
        <ele>153</ele>
        <time>2015-12-13T09:59:38Z</time>
      </trkpt>
      <trkpt lat="50.7656" lon="3.70324">
        <ele>153</ele>
        <time>2015-12-13T09:59:39Z</time>
      </trkpt>
      <trkpt lat="50.7656" lon="3.70321">
        <ele>153</ele>
        <time>2015-12-13T09:59:40Z</time>
      </trkpt>
      <trkpt lat="50.7656" lon="3.70317">
        <ele>153</ele>
        <time>2015-12-13T09:59:41Z</time>
      </trkpt>
      <trkpt lat="50.76559" lon="3.70313">
        <ele>153</ele>
        <time>2015-12-13T09:59:42Z</time>
      </trkpt>
      <trkpt lat="50.76559" lon="3.7031">
        <ele>153</ele>
        <time>2015-12-13T09:59:43Z</time>
      </trkpt>
      <trkpt lat="50.76558" lon="3.70306">
        <ele>153</ele>
        <time>2015-12-13T09:59:44Z</time>
      </trkpt>
      <trkpt lat="50.76557" lon="3.70302">
        <ele>153</ele>
        <time>2015-12-13T09:59:45Z</time>
      </trkpt>
      <trkpt lat="50.76557" lon="3.70298">
        <ele>153</ele>
        <time>2015-12-13T09:59:46Z</time>
      </trkpt>
      <trkpt lat="50.76556" lon="3.70295">
        <ele>153</ele>
        <time>2015-12-13T09:59:47Z</time>
      </trkpt>
      <trkpt lat="50.76556" lon="3.70292">
        <ele>153</ele>
        <time>2015-12-13T09:59:48Z</time>
      </trkpt>
      <trkpt lat="50.76555" lon="3.70288">
        <ele>153</ele>
        <time>2015-12-13T09:59:49Z</time>
      </trkpt>
      <trkpt lat="50.76555" lon="3.70285">
        <ele>153</ele>
        <time>2015-12-13T09:59:50Z</time>
      </trkpt>
      <trkpt lat="50.76554" lon="3.70281">
        <ele>153</ele>
        <time>2015-12-13T09:59:51Z</time>
      </trkpt>
      <trkpt lat="50.76554" lon="3.70278">
        <ele>153</ele>
        <time>2015-12-13T09:59:52Z</time>
      </trkpt>
      <trkpt lat="50.76553" lon="3.70274">
        <ele>153</ele>
        <time>2015-12-13T09:59:53Z</time>
      </trkpt>
      <trkpt lat="50.76553" lon="3.70271">
        <ele>153</ele>
        <time>2015-12-13T09:59:54Z</time>
      </trkpt>
      <trkpt lat="50.76552" lon="3.70267">
        <ele>153</ele>
        <time>2015-12-13T09:59:55Z</time>
      </trkpt>
      <trkpt lat="50.76552" lon="3.70263">
        <ele>153</ele>
        <time>2015-12-13T09:59:56Z</time>
      </trkpt>
      <trkpt lat="50.76551" lon="3.70259">
        <ele>153</ele>
        <time>2015-12-13T09:59:57Z</time>
      </trkpt>
      <trkpt lat="50.76551" lon="3.70256">
        <ele>153</ele>
        <time>2015-12-13T09:59:58Z</time>
      </trkpt>
      <trkpt lat="50.7655" lon="3.70251">
        <ele>153</ele>
        <time>2015-12-13T09:59:59Z</time>
      </trkpt>
      <trkpt lat="50.7655" lon="3.70248">
        <ele>153</ele>
        <time>2015-12-13T10:00:00Z</time>
      </trkpt>
      <trkpt lat="50.76549" lon="3.70244">
        <ele>153</ele>
        <time>2015-12-13T10:00:01Z</time>
      </trkpt>
      <trkpt lat="50.76548" lon="3.70241">
        <ele>153</ele>
        <time>2015-12-13T10:00:02Z</time>
      </trkpt>
      <trkpt lat="50.76547" lon="3.70237">
        <ele>153</ele>
        <time>2015-12-13T10:00:03Z</time>
      </trkpt>
      <trkpt lat="50.76547" lon="3.70234">
        <ele>153</ele>
        <time>2015-12-13T10:00:04Z</time>
      </trkpt>
      <trkpt lat="50.76546" lon="3.7023">
        <ele>153</ele>
        <time>2015-12-13T10:00:05Z</time>
      </trkpt>
      <trkpt lat="50.76546" lon="3.70227">
        <ele>153</ele>
        <time>2015-12-13T10:00:06Z</time>
      </trkpt>
      <trkpt lat="50.76545" lon="3.70223">
        <ele>153</ele>
        <time>2015-12-13T10:00:07Z</time>
      </trkpt>
      <trkpt lat="50.76544" lon="3.7022">
        <ele>153</ele>
        <time>2015-12-13T10:00:08Z</time>
      </trkpt>
      <trkpt lat="50.76544" lon="3.70216">
        <ele>153</ele>
        <time>2015-12-13T10:00:09Z</time>
      </trkpt>
      <trkpt lat="50.76543" lon="3.70213">
        <ele>153</ele>
        <time>2015-12-13T10:00:10Z</time>
      </trkpt>
      <trkpt lat="50.76542" lon="3.70209">
        <ele>153</ele>
        <time>2015-12-13T10:00:11Z</time>
      </trkpt>
      <trkpt lat="50.76542" lon="3.70205">
        <ele>153</ele>
        <time>2015-12-13T10:00:12Z</time>
      </trkpt>
      <trkpt lat="50.76541" lon="3.70201">
        <ele>153</ele>
        <time>2015-12-13T10:00:13Z</time>
      </trkpt>
      <trkpt lat="50.7654" lon="3.70197">
        <ele>153</ele>
        <time>2015-12-13T10:00:14Z</time>
      </trkpt>
      <trkpt lat="50.7654" lon="3.70193">
        <ele>153</ele>
        <time>2015-12-13T10:00:15Z</time>
      </trkpt>
      <trkpt lat="50.76539" lon="3.70189">
        <ele>153</ele>
        <time>2015-12-13T10:00:16Z</time>
      </trkpt>
      <trkpt lat="50.76539" lon="3.70186">
        <ele>153</ele>
        <time>2015-12-13T10:00:17Z</time>
      </trkpt>
      <trkpt lat="50.76538" lon="3.70182">
        <ele>153</ele>
        <time>2015-12-13T10:00:18Z</time>
      </trkpt>
      <trkpt lat="50.76538" lon="3.70179">
        <ele>153</ele>
        <time>2015-12-13T10:00:19Z</time>
      </trkpt>
      <trkpt lat="50.76537" lon="3.70176">
        <ele>153</ele>
        <time>2015-12-13T10:00:20Z</time>
      </trkpt>
      <trkpt lat="50.76537" lon="3.70173">
        <ele>153</ele>
        <time>2015-12-13T10:00:21Z</time>
      </trkpt>
      <trkpt lat="50.76536" lon="3.7017">
        <ele>153</ele>
        <time>2015-12-13T10:00:22Z</time>
      </trkpt>
      <trkpt lat="50.76536" lon="3.70167">
        <ele>153</ele>
        <time>2015-12-13T10:00:23Z</time>
      </trkpt>
      <trkpt lat="50.76535" lon="3.70163">
        <ele>153</ele>
        <time>2015-12-13T10:00:24Z</time>
      </trkpt>
      <trkpt lat="50.76535" lon="3.70159">
        <ele>153</ele>
        <time>2015-12-13T10:00:25Z</time>
      </trkpt>
      <trkpt lat="50.76534" lon="3.70155">
        <ele>153</ele>
        <time>2015-12-13T10:00:26Z</time>
      </trkpt>
      <trkpt lat="50.76534" lon="3.70151">
        <ele>153</ele>
        <time>2015-12-13T10:00:27Z</time>
      </trkpt>
      <trkpt lat="50.76533" lon="3.70148">
        <ele>153</ele>
        <time>2015-12-13T10:00:28Z</time>
      </trkpt>
      <trkpt lat="50.76532" lon="3.70144">
        <ele>153</ele>
        <time>2015-12-13T10:00:29Z</time>
      </trkpt>
      <trkpt lat="50.76531" lon="3.70141">
        <ele>153</ele>
        <time>2015-12-13T10:00:30Z</time>
      </trkpt>
      <trkpt lat="50.76531" lon="3.70137">
        <ele>153</ele>
        <time>2015-12-13T10:00:31Z</time>
      </trkpt>
      <trkpt lat="50.7653" lon="3.70133">
        <ele>153</ele>
        <time>2015-12-13T10:00:32Z</time>
      </trkpt>
      <trkpt lat="50.76529" lon="3.70129">
        <ele>153</ele>
        <time>2015-12-13T10:00:33Z</time>
      </trkpt>
      <trkpt lat="50.76529" lon="3.70125">
        <ele>153</ele>
        <time>2015-12-13T10:00:34Z</time>
      </trkpt>
      <trkpt lat="50.76528" lon="3.70121">
        <ele>153</ele>
        <time>2015-12-13T10:00:35Z</time>
      </trkpt>
      <trkpt lat="50.76527" lon="3.70117">
        <ele>153</ele>
        <time>2015-12-13T10:00:36Z</time>
      </trkpt>
      <trkpt lat="50.76526" lon="3.70113">
        <ele>153</ele>
        <time>2015-12-13T10:00:37Z</time>
      </trkpt>
      <trkpt lat="50.76526" lon="3.70109">
        <ele>153</ele>
        <time>2015-12-13T10:00:38Z</time>
      </trkpt>
      <trkpt lat="50.76526" lon="3.70105">
        <ele>153</ele>
        <time>2015-12-13T10:00:39Z</time>
      </trkpt>
      <trkpt lat="50.76525" lon="3.70102">
        <ele>153</ele>
        <time>2015-12-13T10:00:40Z</time>
      </trkpt>
      <trkpt lat="50.76525" lon="3.70098">
        <ele>153</ele>
        <time>2015-12-13T10:00:41Z</time>
      </trkpt>
      <trkpt lat="50.76524" lon="3.70094">
        <ele>153.5</ele>
        <time>2015-12-13T10:00:42Z</time>
      </trkpt>
      <trkpt lat="50.76524" lon="3.7009">
        <ele>154</ele>
        <time>2015-12-13T10:00:43Z</time>
      </trkpt>
      <trkpt lat="50.76524" lon="3.70087">
        <ele>154</ele>
        <time>2015-12-13T10:00:44Z</time>
      </trkpt>
      <trkpt lat="50.76523" lon="3.70083">
        <ele>154</ele>
        <time>2015-12-13T10:00:45Z</time>
      </trkpt>
      <trkpt lat="50.76522" lon="3.70079">
        <ele>154</ele>
        <time>2015-12-13T10:00:46Z</time>
      </trkpt>
      <trkpt lat="50.76521" lon="3.70075">
        <ele>154</ele>
        <time>2015-12-13T10:00:47Z</time>
      </trkpt>
      <trkpt lat="50.7652" lon="3.70071">
        <ele>154</ele>
        <time>2015-12-13T10:00:48Z</time>
      </trkpt>
      <trkpt lat="50.7652" lon="3.70067">
        <ele>154</ele>
        <time>2015-12-13T10:00:49Z</time>
      </trkpt>
      <trkpt lat="50.76519" lon="3.70062">
        <ele>154</ele>
        <time>2015-12-13T10:00:50Z</time>
      </trkpt>
      <trkpt lat="50.76518" lon="3.70058">
        <ele>154</ele>
        <time>2015-12-13T10:00:51Z</time>
      </trkpt>
      <trkpt lat="50.76517" lon="3.70055">
        <ele>154</ele>
        <time>2015-12-13T10:00:52Z</time>
      </trkpt>
      <trkpt lat="50.76516" lon="3.70051">
        <ele>154</ele>
        <time>2015-12-13T10:00:53Z</time>
      </trkpt>
      <trkpt lat="50.76515" lon="3.70047">
        <ele>154</ele>
        <time>2015-12-13T10:00:54Z</time>
      </trkpt>
      <trkpt lat="50.76515" lon="3.70043">
        <ele>154</ele>
        <time>2015-12-13T10:00:55Z</time>
      </trkpt>
      <trkpt lat="50.76514" lon="3.70039">
        <ele>154</ele>
        <time>2015-12-13T10:00:56Z</time>
      </trkpt>
      <trkpt lat="50.76513" lon="3.70035">
        <ele>154</ele>
        <time>2015-12-13T10:00:57Z</time>
      </trkpt>
      <trkpt lat="50.76512" lon="3.70031">
        <ele>154</ele>
        <time>2015-12-13T10:00:58Z</time>
      </trkpt>
      <trkpt lat="50.76511" lon="3.70028">
        <ele>154</ele>
        <time>2015-12-13T10:00:59Z</time>
      </trkpt>
      <trkpt lat="50.76511" lon="3.70024">
        <ele>154</ele>
        <time>2015-12-13T10:01:00Z</time>
      </trkpt>
      <trkpt lat="50.7651" lon="3.7002">
        <ele>154</ele>
        <time>2015-12-13T10:01:01Z</time>
      </trkpt>
      <trkpt lat="50.76509" lon="3.70016">
        <ele>154</ele>
        <time>2015-12-13T10:01:02Z</time>
      </trkpt>
      <trkpt lat="50.76508" lon="3.70012">
        <ele>154</ele>
        <time>2015-12-13T10:01:03Z</time>
      </trkpt>
      <trkpt lat="50.76508" lon="3.70008">
        <ele>154</ele>
        <time>2015-12-13T10:01:04Z</time>
      </trkpt>
      <trkpt lat="50.76507" lon="3.70005">
        <ele>154</ele>
        <time>2015-12-13T10:01:05Z</time>
      </trkpt>
      <trkpt lat="50.76506" lon="3.70001">
        <ele>154</ele>
        <time>2015-12-13T10:01:06Z</time>
      </trkpt>
      <trkpt lat="50.76506" lon="3.69997">
        <ele>154</ele>
        <time>2015-12-13T10:01:07Z</time>
      </trkpt>
      <trkpt lat="50.76506" lon="3.69994">
        <ele>154</ele>
        <time>2015-12-13T10:01:08Z</time>
      </trkpt>
      <trkpt lat="50.76506" lon="3.6999">
        <ele>154</ele>
        <time>2015-12-13T10:01:09Z</time>
      </trkpt>
      <trkpt lat="50.76505" lon="3.69986">
        <ele>154</ele>
        <time>2015-12-13T10:01:10Z</time>
      </trkpt>
      <trkpt lat="50.76505" lon="3.69983">
        <ele>154</ele>
        <time>2015-12-13T10:01:11Z</time>
      </trkpt>
      <trkpt lat="50.76505" lon="3.69979">
        <ele>154</ele>
        <time>2015-12-13T10:01:12Z</time>
      </trkpt>
      <trkpt lat="50.76505" lon="3.69976">
        <ele>154</ele>
        <time>2015-12-13T10:01:13Z</time>
      </trkpt>
      <trkpt lat="50.76504" lon="3.69973">
        <ele>154</ele>
        <time>2015-12-13T10:01:14Z</time>
      </trkpt>
      <trkpt lat="50.76504" lon="3.69969">
        <ele>154</ele>
        <time>2015-12-13T10:01:15Z</time>
      </trkpt>
      <trkpt lat="50.76504" lon="3.69966">
        <ele>154</ele>
        <time>2015-12-13T10:01:16Z</time>
      </trkpt>
      <trkpt lat="50.76504" lon="3.69963">
        <ele>154</ele>
        <time>2015-12-13T10:01:17Z</time>
      </trkpt>
      <trkpt lat="50.76504" lon="3.6996">
        <ele>154</ele>
        <time>2015-12-13T10:01:18Z</time>
      </trkpt>
      <trkpt lat="50.76504" lon="3.69956">
        <ele>154</ele>
        <time>2015-12-13T10:01:19Z</time>
      </trkpt>
      <trkpt lat="50.76503" lon="3.69953">
        <ele>154</ele>
        <time>2015-12-13T10:01:20Z</time>
      </trkpt>
      <trkpt lat="50.76503" lon="3.6995">
        <ele>154.5</ele>
        <time>2015-12-13T10:01:21Z</time>
      </trkpt>
      <trkpt lat="50.76502" lon="3.69946">
        <ele>155</ele>
        <time>2015-12-13T10:01:22Z</time>
      </trkpt>
      <trkpt lat="50.76502" lon="3.69944">
        <ele>155</ele>
        <time>2015-12-13T10:01:23Z</time>
      </trkpt>
      <trkpt lat="50.76501" lon="3.6994">
        <ele>155</ele>
        <time>2015-12-13T10:01:24Z</time>
      </trkpt>
      <trkpt lat="50.765" lon="3.69937">
        <ele>155</ele>
        <time>2015-12-13T10:01:25Z</time>
      </trkpt>
      <trkpt lat="50.76499" lon="3.69934">
        <ele>155</ele>
        <time>2015-12-13T10:01:26Z</time>
      </trkpt>
      <trkpt lat="50.76498" lon="3.69931">
        <ele>155</ele>
        <time>2015-12-13T10:01:27Z</time>
      </trkpt>
      <trkpt lat="50.76498" lon="3.69927">
        <ele>155</ele>
        <time>2015-12-13T10:01:28Z</time>
      </trkpt>
      <trkpt lat="50.76497" lon="3.69924">
        <ele>155</ele>
        <time>2015-12-13T10:01:29Z</time>
      </trkpt>
      <trkpt lat="50.76497" lon="3.6992">
        <ele>155</ele>
        <time>2015-12-13T10:01:30Z</time>
      </trkpt>
      <trkpt lat="50.76496" lon="3.69916">
        <ele>155</ele>
        <time>2015-12-13T10:01:31Z</time>
      </trkpt>
      <trkpt lat="50.76496" lon="3.69913">
        <ele>155</ele>
        <time>2015-12-13T10:01:32Z</time>
      </trkpt>
      <trkpt lat="50.76495" lon="3.69909">
        <ele>155</ele>
        <time>2015-12-13T10:01:33Z</time>
      </trkpt>
      <trkpt lat="50.76495" lon="3.69905">
        <ele>155</ele>
        <time>2015-12-13T10:01:34Z</time>
      </trkpt>
      <trkpt lat="50.76495" lon="3.69902">
        <ele>155</ele>
        <time>2015-12-13T10:01:35Z</time>
      </trkpt>
      <trkpt lat="50.76495" lon="3.69898">
        <ele>155</ele>
        <time>2015-12-13T10:01:36Z</time>
      </trkpt>
      <trkpt lat="50.76494" lon="3.69895">
        <ele>155</ele>
        <time>2015-12-13T10:01:37Z</time>
      </trkpt>
      <trkpt lat="50.76493" lon="3.69891">
        <ele>155</ele>
        <time>2015-12-13T10:01:38Z</time>
      </trkpt>
      <trkpt lat="50.76493" lon="3.69888">
        <ele>155</ele>
        <time>2015-12-13T10:01:39Z</time>
      </trkpt>
      <trkpt lat="50.76492" lon="3.69884">
        <ele>155</ele>
        <time>2015-12-13T10:01:40Z</time>
      </trkpt>
      <trkpt lat="50.76492" lon="3.6988">
        <ele>155</ele>
        <time>2015-12-13T10:01:41Z</time>
      </trkpt>
      <trkpt lat="50.76491" lon="3.69876">
        <ele>155</ele>
        <time>2015-12-13T10:01:42Z</time>
      </trkpt>
      <trkpt lat="50.7649" lon="3.69872">
        <ele>155</ele>
        <time>2015-12-13T10:01:43Z</time>
      </trkpt>
      <trkpt lat="50.76489" lon="3.69868">
        <ele>155</ele>
        <time>2015-12-13T10:01:44Z</time>
      </trkpt>
      <trkpt lat="50.76488" lon="3.69864">
        <ele>155</ele>
        <time>2015-12-13T10:01:45Z</time>
      </trkpt>
      <trkpt lat="50.76488" lon="3.6986">
        <ele>155</ele>
        <time>2015-12-13T10:01:46Z</time>
      </trkpt>
      <trkpt lat="50.76487" lon="3.69856">
        <ele>155</ele>
        <time>2015-12-13T10:01:47Z</time>
      </trkpt>
      <trkpt lat="50.76486" lon="3.69853">
        <ele>155</ele>
        <time>2015-12-13T10:01:48Z</time>
      </trkpt>
      <trkpt lat="50.76486" lon="3.69849">
        <ele>155</ele>
        <time>2015-12-13T10:01:49Z</time>
      </trkpt>
      <trkpt lat="50.76485" lon="3.69845">
        <ele>155</ele>
        <time>2015-12-13T10:01:50Z</time>
      </trkpt>
      <trkpt lat="50.76485" lon="3.69841">
        <ele>155.7</ele>
        <time>2015-12-13T10:01:51Z</time>
      </trkpt>
      <trkpt lat="50.76484" lon="3.69837">
        <ele>156</ele>
        <time>2015-12-13T10:01:52Z</time>
      </trkpt>
      <trkpt lat="50.76483" lon="3.69834">
        <ele>156</ele>
        <time>2015-12-13T10:01:53Z</time>
      </trkpt>
      <trkpt lat="50.76483" lon="3.6983">
        <ele>156</ele>
        <time>2015-12-13T10:01:54Z</time>
      </trkpt>
      <trkpt lat="50.76482" lon="3.69826">
        <ele>156</ele>
        <time>2015-12-13T10:01:55Z</time>
      </trkpt>
      <trkpt lat="50.76481" lon="3.69823">
        <ele>156</ele>
        <time>2015-12-13T10:01:56Z</time>
      </trkpt>
      <trkpt lat="50.76481" lon="3.69819">
        <ele>156</ele>
        <time>2015-12-13T10:01:57Z</time>
      </trkpt>
      <trkpt lat="50.7648" lon="3.69816">
        <ele>156</ele>
        <time>2015-12-13T10:01:58Z</time>
      </trkpt>
      <trkpt lat="50.7648" lon="3.69812">
        <ele>156</ele>
        <time>2015-12-13T10:01:59Z</time>
      </trkpt>
      <trkpt lat="50.7648" lon="3.69808">
        <ele>156</ele>
        <time>2015-12-13T10:02:00Z</time>
      </trkpt>
      <trkpt lat="50.76479" lon="3.69804">
        <ele>155.3</ele>
        <time>2015-12-13T10:02:01Z</time>
      </trkpt>
      <trkpt lat="50.76479" lon="3.698">
        <ele>155</ele>
        <time>2015-12-13T10:02:02Z</time>
      </trkpt>
      <trkpt lat="50.76478" lon="3.69796">
        <ele>155</ele>
        <time>2015-12-13T10:02:03Z</time>
      </trkpt>
      <trkpt lat="50.76477" lon="3.69792">
        <ele>155</ele>
        <time>2015-12-13T10:02:04Z</time>
      </trkpt>
      <trkpt lat="50.76477" lon="3.69788">
        <ele>155</ele>
        <time>2015-12-13T10:02:05Z</time>
      </trkpt>
      <trkpt lat="50.76477" lon="3.69785">
        <ele>155</ele>
        <time>2015-12-13T10:02:06Z</time>
      </trkpt>
      <trkpt lat="50.76476" lon="3.69781">
        <ele>155</ele>
        <time>2015-12-13T10:02:07Z</time>
      </trkpt>
      <trkpt lat="50.76476" lon="3.69777">
        <ele>155</ele>
        <time>2015-12-13T10:02:08Z</time>
      </trkpt>
      <trkpt lat="50.76475" lon="3.69774">
        <ele>155</ele>
        <time>2015-12-13T10:02:09Z</time>
      </trkpt>
      <trkpt lat="50.76475" lon="3.6977">
        <ele>155</ele>
        <time>2015-12-13T10:02:10Z</time>
      </trkpt>
      <trkpt lat="50.76474" lon="3.69767">
        <ele>155</ele>
        <time>2015-12-13T10:02:11Z</time>
      </trkpt>
      <trkpt lat="50.76474" lon="3.69763">
        <ele>155</ele>
        <time>2015-12-13T10:02:12Z</time>
      </trkpt>
      <trkpt lat="50.76473" lon="3.69759">
        <ele>155</ele>
        <time>2015-12-13T10:02:13Z</time>
      </trkpt>
      <trkpt lat="50.76473" lon="3.69756">
        <ele>155</ele>
        <time>2015-12-13T10:02:14Z</time>
      </trkpt>
      <trkpt lat="50.76472" lon="3.69752">
        <ele>155</ele>
        <time>2015-12-13T10:02:15Z</time>
      </trkpt>
      <trkpt lat="50.76472" lon="3.69749">
        <ele>155</ele>
        <time>2015-12-13T10:02:16Z</time>
      </trkpt>
      <trkpt lat="50.76471" lon="3.69745">
        <ele>155</ele>
        <time>2015-12-13T10:02:17Z</time>
      </trkpt>
      <trkpt lat="50.76471" lon="3.69742">
        <ele>155</ele>
        <time>2015-12-13T10:02:18Z</time>
      </trkpt>
      <trkpt lat="50.7647" lon="3.69738">
        <ele>155</ele>
        <time>2015-12-13T10:02:19Z</time>
      </trkpt>
      <trkpt lat="50.76469" lon="3.69734">
        <ele>155</ele>
        <time>2015-12-13T10:02:20Z</time>
      </trkpt>
      <trkpt lat="50.76469" lon="3.69731">
        <ele>155</ele>
        <time>2015-12-13T10:02:21Z</time>
      </trkpt>
      <trkpt lat="50.76469" lon="3.69727">
        <ele>155</ele>
        <time>2015-12-13T10:02:22Z</time>
      </trkpt>
      <trkpt lat="50.76468" lon="3.69723">
        <ele>155</ele>
        <time>2015-12-13T10:02:23Z</time>
      </trkpt>
      <trkpt lat="50.76468" lon="3.69719">
        <ele>155</ele>
        <time>2015-12-13T10:02:24Z</time>
      </trkpt>
      <trkpt lat="50.76467" lon="3.69715">
        <ele>155</ele>
        <time>2015-12-13T10:02:25Z</time>
      </trkpt>
      <trkpt lat="50.76467" lon="3.69711">
        <ele>155</ele>
        <time>2015-12-13T10:02:26Z</time>
      </trkpt>
      <trkpt lat="50.76466" lon="3.69708">
        <ele>155</ele>
        <time>2015-12-13T10:02:27Z</time>
      </trkpt>
      <trkpt lat="50.76466" lon="3.69704">
        <ele>155</ele>
        <time>2015-12-13T10:02:28Z</time>
      </trkpt>
      <trkpt lat="50.76465" lon="3.697">
        <ele>155</ele>
        <time>2015-12-13T10:02:29Z</time>
      </trkpt>
      <trkpt lat="50.76465" lon="3.69697">
        <ele>155</ele>
        <time>2015-12-13T10:02:30Z</time>
      </trkpt>
      <trkpt lat="50.76464" lon="3.69693">
        <ele>154.3</ele>
        <time>2015-12-13T10:02:31Z</time>
      </trkpt>
      <trkpt lat="50.76464" lon="3.69689">
        <ele>154</ele>
        <time>2015-12-13T10:02:32Z</time>
      </trkpt>
      <trkpt lat="50.76463" lon="3.69686">
        <ele>154</ele>
        <time>2015-12-13T10:02:33Z</time>
      </trkpt>
      <trkpt lat="50.76463" lon="3.69682">
        <ele>154</ele>
        <time>2015-12-13T10:02:34Z</time>
      </trkpt>
      <trkpt lat="50.76462" lon="3.69679">
        <ele>154</ele>
        <time>2015-12-13T10:02:35Z</time>
      </trkpt>
      <trkpt lat="50.76462" lon="3.69675">
        <ele>154</ele>
        <time>2015-12-13T10:02:36Z</time>
      </trkpt>
      <trkpt lat="50.76461" lon="3.69672">
        <ele>154</ele>
        <time>2015-12-13T10:02:37Z</time>
      </trkpt>
      <trkpt lat="50.7646" lon="3.69668">
        <ele>154</ele>
        <time>2015-12-13T10:02:38Z</time>
      </trkpt>
      <trkpt lat="50.76459" lon="3.69664">
        <ele>154</ele>
        <time>2015-12-13T10:02:39Z</time>
      </trkpt>
      <trkpt lat="50.76459" lon="3.6966">
        <ele>154</ele>
        <time>2015-12-13T10:02:40Z</time>
      </trkpt>
      <trkpt lat="50.76458" lon="3.69656">
        <ele>154</ele>
        <time>2015-12-13T10:02:41Z</time>
      </trkpt>
      <trkpt lat="50.76458" lon="3.69652">
        <ele>154</ele>
        <time>2015-12-13T10:02:42Z</time>
      </trkpt>
      <trkpt lat="50.76457" lon="3.69649">
        <ele>154</ele>
        <time>2015-12-13T10:02:43Z</time>
      </trkpt>
      <trkpt lat="50.76457" lon="3.69645">
        <ele>154</ele>
        <time>2015-12-13T10:02:44Z</time>
      </trkpt>
      <trkpt lat="50.76456" lon="3.69642">
        <ele>154</ele>
        <time>2015-12-13T10:02:45Z</time>
      </trkpt>
      <trkpt lat="50.76456" lon="3.69639">
        <ele>154</ele>
        <time>2015-12-13T10:02:46Z</time>
      </trkpt>
      <trkpt lat="50.76456" lon="3.69635">
        <ele>154</ele>
        <time>2015-12-13T10:02:47Z</time>
      </trkpt>
      <trkpt lat="50.76455" lon="3.69632">
        <ele>154</ele>
        <time>2015-12-13T10:02:48Z</time>
      </trkpt>
      <trkpt lat="50.76455" lon="3.69628">
        <ele>154</ele>
        <time>2015-12-13T10:02:49Z</time>
      </trkpt>
      <trkpt lat="50.76455" lon="3.69625">
        <ele>154</ele>
        <time>2015-12-13T10:02:50Z</time>
      </trkpt>
      <trkpt lat="50.76454" lon="3.69621">
        <ele>153.3</ele>
        <time>2015-12-13T10:02:51Z</time>
      </trkpt>
      <trkpt lat="50.76454" lon="3.69617">
        <ele>153</ele>
        <time>2015-12-13T10:02:52Z</time>
      </trkpt>
      <trkpt lat="50.76453" lon="3.69613">
        <ele>153</ele>
        <time>2015-12-13T10:02:53Z</time>
      </trkpt>
      <trkpt lat="50.76453" lon="3.6961">
        <ele>153</ele>
        <time>2015-12-13T10:02:54Z</time>
      </trkpt>
      <trkpt lat="50.76452" lon="3.69606">
        <ele>153</ele>
        <time>2015-12-13T10:02:55Z</time>
      </trkpt>
      <trkpt lat="50.76452" lon="3.69602">
        <ele>153</ele>
        <time>2015-12-13T10:02:56Z</time>
      </trkpt>
      <trkpt lat="50.76451" lon="3.69598">
        <ele>153</ele>
        <time>2015-12-13T10:02:57Z</time>
      </trkpt>
      <trkpt lat="50.7645" lon="3.69594">
        <ele>153</ele>
        <time>2015-12-13T10:02:58Z</time>
      </trkpt>
      <trkpt lat="50.7645" lon="3.6959">
        <ele>153</ele>
        <time>2015-12-13T10:02:59Z</time>
      </trkpt>
      <trkpt lat="50.76449" lon="3.69586">
        <ele>153</ele>
        <time>2015-12-13T10:03:00Z</time>
      </trkpt>
      <trkpt lat="50.76449" lon="3.69582">
        <ele>151.7</ele>
        <time>2015-12-13T10:03:01Z</time>
      </trkpt>
      <trkpt lat="50.76449" lon="3.69579">
        <ele>151</ele>
        <time>2015-12-13T10:03:02Z</time>
      </trkpt>
      <trkpt lat="50.76448" lon="3.69575">
        <ele>151</ele>
        <time>2015-12-13T10:03:03Z</time>
      </trkpt>
      <trkpt lat="50.76448" lon="3.69572">
        <ele>151</ele>
        <time>2015-12-13T10:03:04Z</time>
      </trkpt>
      <trkpt lat="50.76448" lon="3.69568">
        <ele>151</ele>
        <time>2015-12-13T10:03:05Z</time>
      </trkpt>
      <trkpt lat="50.76447" lon="3.69564">
        <ele>151</ele>
        <time>2015-12-13T10:03:06Z</time>
      </trkpt>
      <trkpt lat="50.76447" lon="3.69561">
        <ele>151</ele>
        <time>2015-12-13T10:03:07Z</time>
      </trkpt>
      <trkpt lat="50.76446" lon="3.69557">
        <ele>151</ele>
        <time>2015-12-13T10:03:08Z</time>
      </trkpt>
      <trkpt lat="50.76445" lon="3.69553">
        <ele>151</ele>
        <time>2015-12-13T10:03:09Z</time>
      </trkpt>
      <trkpt lat="50.76445" lon="3.6955">
        <ele>151</ele>
        <time>2015-12-13T10:03:10Z</time>
      </trkpt>
      <trkpt lat="50.76444" lon="3.69546">
        <ele>151</ele>
        <time>2015-12-13T10:03:11Z</time>
      </trkpt>
      <trkpt lat="50.76444" lon="3.69543">
        <ele>151</ele>
        <time>2015-12-13T10:03:12Z</time>
      </trkpt>
      <trkpt lat="50.76444" lon="3.6954">
        <ele>151</ele>
        <time>2015-12-13T10:03:13Z</time>
      </trkpt>
      <trkpt lat="50.76443" lon="3.69536">
        <ele>151</ele>
        <time>2015-12-13T10:03:14Z</time>
      </trkpt>
      <trkpt lat="50.76443" lon="3.69533">
        <ele>151</ele>
        <time>2015-12-13T10:03:15Z</time>
      </trkpt>
      <trkpt lat="50.76442" lon="3.6953">
        <ele>151</ele>
        <time>2015-12-13T10:03:16Z</time>
      </trkpt>
      <trkpt lat="50.76441" lon="3.69526">
        <ele>151</ele>
        <time>2015-12-13T10:03:17Z</time>
      </trkpt>
      <trkpt lat="50.7644" lon="3.69523">
        <ele>151</ele>
        <time>2015-12-13T10:03:18Z</time>
      </trkpt>
      <trkpt lat="50.7644" lon="3.6952">
        <ele>151</ele>
        <time>2015-12-13T10:03:19Z</time>
      </trkpt>
      <trkpt lat="50.76439" lon="3.69517">
        <ele>151</ele>
        <time>2015-12-13T10:03:20Z</time>
      </trkpt>
      <trkpt lat="50.76438" lon="3.69514">
        <ele>151</ele>
        <time>2015-12-13T10:03:21Z</time>
      </trkpt>
      <trkpt lat="50.76437" lon="3.69511">
        <ele>151</ele>
        <time>2015-12-13T10:03:22Z</time>
      </trkpt>
      <trkpt lat="50.76436" lon="3.69508">
        <ele>151</ele>
        <time>2015-12-13T10:03:23Z</time>
      </trkpt>
      <trkpt lat="50.76435" lon="3.69505">
        <ele>151</ele>
        <time>2015-12-13T10:03:24Z</time>
      </trkpt>
      <trkpt lat="50.76433" lon="3.69502">
        <ele>151</ele>
        <time>2015-12-13T10:03:26Z</time>
      </trkpt>
      <trkpt lat="50.76431" lon="3.695">
        <ele>151</ele>
        <time>2015-12-13T10:03:28Z</time>
      </trkpt>
      <trkpt lat="50.76428" lon="3.695">
        <ele>151</ele>
        <time>2015-12-13T10:03:30Z</time>
      </trkpt>
      <trkpt lat="50.76426" lon="3.695">
        <ele>151</ele>
        <time>2015-12-13T10:03:32Z</time>
      </trkpt>
      <trkpt lat="50.76424" lon="3.695">
        <ele>151</ele>
        <time>2015-12-13T10:03:34Z</time>
      </trkpt>
      <trkpt lat="50.76422" lon="3.69499">
        <ele>151</ele>
        <time>2015-12-13T10:03:37Z</time>
      </trkpt>
      <trkpt lat="50.76418" lon="3.69497">
        <ele>151</ele>
        <time>2015-12-13T10:03:45Z</time>
      </trkpt>
      <trkpt lat="50.76416" lon="3.69498">
        <ele>151</ele>
        <time>2015-12-13T10:03:47Z</time>
      </trkpt>
      <trkpt lat="50.76413" lon="3.69499">
        <ele>151</ele>
        <time>2015-12-13T10:03:49Z</time>
      </trkpt>
      <trkpt lat="50.76411" lon="3.69501">
        <ele>150.3</ele>
        <time>2015-12-13T10:03:51Z</time>
      </trkpt>
      <trkpt lat="50.76409" lon="3.69502">
        <ele>150</ele>
        <time>2015-12-13T10:03:53Z</time>
      </trkpt>
      <trkpt lat="50.76406" lon="3.69503">
        <ele>150</ele>
        <time>2015-12-13T10:03:55Z</time>
      </trkpt>
      <trkpt lat="50.76404" lon="3.69504">
        <ele>150</ele>
        <time>2015-12-13T10:03:57Z</time>
      </trkpt>
      <trkpt lat="50.76401" lon="3.69505">
        <ele>150</ele>
        <time>2015-12-13T10:03:59Z</time>
      </trkpt>
      <trkpt lat="50.76398" lon="3.69505">
        <ele>149.3</ele>
        <time>2015-12-13T10:04:01Z</time>
      </trkpt>
      <trkpt lat="50.76395" lon="3.69506">
        <ele>149</ele>
        <time>2015-12-13T10:04:03Z</time>
      </trkpt>
      <trkpt lat="50.76393" lon="3.69507">
        <ele>149</ele>
        <time>2015-12-13T10:04:05Z</time>
      </trkpt>
      <trkpt lat="50.7639" lon="3.69508">
        <ele>149</ele>
        <time>2015-12-13T10:04:07Z</time>
      </trkpt>
      <trkpt lat="50.76388" lon="3.69508">
        <ele>149</ele>
        <time>2015-12-13T10:04:09Z</time>
      </trkpt>
      <trkpt lat="50.76385" lon="3.69509">
        <ele>149</ele>
        <time>2015-12-13T10:04:11Z</time>
      </trkpt>
      <trkpt lat="50.76382" lon="3.6951">
        <ele>149</ele>
        <time>2015-12-13T10:04:13Z</time>
      </trkpt>
      <trkpt lat="50.76379" lon="3.69512">
        <ele>149</ele>
        <time>2015-12-13T10:04:15Z</time>
      </trkpt>
      <trkpt lat="50.76377" lon="3.69512">
        <ele>149</ele>
        <time>2015-12-13T10:04:16Z</time>
      </trkpt>
      <trkpt lat="50.76375" lon="3.69513">
        <ele>149</ele>
        <time>2015-12-13T10:04:17Z</time>
      </trkpt>
      <trkpt lat="50.76373" lon="3.69513">
        <ele>149</ele>
        <time>2015-12-13T10:04:18Z</time>
      </trkpt>
      <trkpt lat="50.7637" lon="3.69514">
        <ele>149</ele>
        <time>2015-12-13T10:04:19Z</time>
      </trkpt>
      <trkpt lat="50.76368" lon="3.69515">
        <ele>149</ele>
        <time>2015-12-13T10:04:20Z</time>
      </trkpt>
      <trkpt lat="50.76365" lon="3.69515">
        <ele>149</ele>
        <time>2015-12-13T10:04:21Z</time>
      </trkpt>
      <trkpt lat="50.76363" lon="3.69515">
        <ele>149</ele>
        <time>2015-12-13T10:04:22Z</time>
      </trkpt>
      <trkpt lat="50.7636" lon="3.69515">
        <ele>149</ele>
        <time>2015-12-13T10:04:23Z</time>
      </trkpt>
      <trkpt lat="50.76357" lon="3.69515">
        <ele>149</ele>
        <time>2015-12-13T10:04:24Z</time>
      </trkpt>
      <trkpt lat="50.76355" lon="3.69516">
        <ele>149</ele>
        <time>2015-12-13T10:04:25Z</time>
      </trkpt>
      <trkpt lat="50.76353" lon="3.69515">
        <ele>149</ele>
        <time>2015-12-13T10:04:26Z</time>
      </trkpt>
      <trkpt lat="50.7635" lon="3.69515">
        <ele>149</ele>
        <time>2015-12-13T10:04:27Z</time>
      </trkpt>
      <trkpt lat="50.76348" lon="3.69515">
        <ele>149</ele>
        <time>2015-12-13T10:04:28Z</time>
      </trkpt>
      <trkpt lat="50.76346" lon="3.69514">
        <ele>149</ele>
        <time>2015-12-13T10:04:29Z</time>
      </trkpt>
      <trkpt lat="50.76343" lon="3.69513">
        <ele>149</ele>
        <time>2015-12-13T10:04:30Z</time>
      </trkpt>
      <trkpt lat="50.76341" lon="3.69512">
        <ele>149</ele>
        <time>2015-12-13T10:04:31Z</time>
      </trkpt>
      <trkpt lat="50.76339" lon="3.69512">
        <ele>149</ele>
        <time>2015-12-13T10:04:33Z</time>
      </trkpt>
      <trkpt lat="50.76336" lon="3.69511">
        <ele>149</ele>
        <time>2015-12-13T10:04:35Z</time>
      </trkpt>
      <trkpt lat="50.76334" lon="3.69512">
        <ele>149</ele>
        <time>2015-12-13T10:04:37Z</time>
      </trkpt>
      <trkpt lat="50.76331" lon="3.69512">
        <ele>149</ele>
        <time>2015-12-13T10:04:39Z</time>
      </trkpt>
      <trkpt lat="50.76328" lon="3.69511">
        <ele>148.3</ele>
        <time>2015-12-13T10:04:41Z</time>
      </trkpt>
      <trkpt lat="50.76326" lon="3.6951">
        <ele>148</ele>
        <time>2015-12-13T10:04:42Z</time>
      </trkpt>
      <trkpt lat="50.76324" lon="3.6951">
        <ele>148</ele>
        <time>2015-12-13T10:04:43Z</time>
      </trkpt>
      <trkpt lat="50.76322" lon="3.6951">
        <ele>148</ele>
        <time>2015-12-13T10:04:44Z</time>
      </trkpt>
      <trkpt lat="50.7632" lon="3.69509">
        <ele>148</ele>
        <time>2015-12-13T10:04:45Z</time>
      </trkpt>
      <trkpt lat="50.76318" lon="3.69509">
        <ele>148</ele>
        <time>2015-12-13T10:04:46Z</time>
      </trkpt>
      <trkpt lat="50.76316" lon="3.69509">
        <ele>148</ele>
        <time>2015-12-13T10:04:47Z</time>
      </trkpt>
      <trkpt lat="50.76314" lon="3.69509">
        <ele>148</ele>
        <time>2015-12-13T10:04:48Z</time>
      </trkpt>
      <trkpt lat="50.76312" lon="3.69509">
        <ele>148</ele>
        <time>2015-12-13T10:04:49Z</time>
      </trkpt>
      <trkpt lat="50.7631" lon="3.69509">
        <ele>148</ele>
        <time>2015-12-13T10:04:50Z</time>
      </trkpt>
      <trkpt lat="50.76307" lon="3.69509">
        <ele>146.7</ele>
        <time>2015-12-13T10:04:51Z</time>
      </trkpt>
      <trkpt lat="50.76305" lon="3.69508">
        <ele>146</ele>
        <time>2015-12-13T10:04:52Z</time>
      </trkpt>
      <trkpt lat="50.76303" lon="3.69508">
        <ele>146</ele>
        <time>2015-12-13T10:04:53Z</time>
      </trkpt>
      <trkpt lat="50.763" lon="3.69507">
        <ele>146</ele>
        <time>2015-12-13T10:04:54Z</time>
      </trkpt>
      <trkpt lat="50.76298" lon="3.69507">
        <ele>146</ele>
        <time>2015-12-13T10:04:55Z</time>
      </trkpt>
      <trkpt lat="50.76295" lon="3.69506">
        <ele>146</ele>
        <time>2015-12-13T10:04:56Z</time>
      </trkpt>
      <trkpt lat="50.76294" lon="3.69505">
        <ele>146</ele>
        <time>2015-12-13T10:04:57Z</time>
      </trkpt>
      <trkpt lat="50.76291" lon="3.69503">
        <ele>146</ele>
        <time>2015-12-13T10:04:59Z</time>
      </trkpt>
      <trkpt lat="50.76289" lon="3.69502">
        <ele>146</ele>
        <time>2015-12-13T10:05:00Z</time>
      </trkpt>
      <trkpt lat="50.76287" lon="3.695">
        <ele>144</ele>
        <time>2015-12-13T10:05:01Z</time>
      </trkpt>
      <trkpt lat="50.76285" lon="3.69499">
        <ele>143</ele>
        <time>2015-12-13T10:05:02Z</time>
      </trkpt>
      <trkpt lat="50.76283" lon="3.69497">
        <ele>143</ele>
        <time>2015-12-13T10:05:03Z</time>
      </trkpt>
      <trkpt lat="50.76281" lon="3.69495">
        <ele>143</ele>
        <time>2015-12-13T10:05:04Z</time>
      </trkpt>
      <trkpt lat="50.76278" lon="3.69493">
        <ele>143</ele>
        <time>2015-12-13T10:05:05Z</time>
      </trkpt>
      <trkpt lat="50.76277" lon="3.69491">
        <ele>143</ele>
        <time>2015-12-13T10:05:06Z</time>
      </trkpt>
      <trkpt lat="50.76275" lon="3.69489">
        <ele>143</ele>
        <time>2015-12-13T10:05:07Z</time>
      </trkpt>
      <trkpt lat="50.76273" lon="3.69488">
        <ele>143</ele>
        <time>2015-12-13T10:05:08Z</time>
      </trkpt>
      <trkpt lat="50.76271" lon="3.69486">
        <ele>143</ele>
        <time>2015-12-13T10:05:09Z</time>
      </trkpt>
      <trkpt lat="50.76269" lon="3.69484">
        <ele>143</ele>
        <time>2015-12-13T10:05:10Z</time>
      </trkpt>
      <trkpt lat="50.76268" lon="3.69482">
        <ele>141.6</ele>
        <time>2015-12-13T10:05:11Z</time>
      </trkpt>
      <trkpt lat="50.76266" lon="3.6948">
        <ele>141</ele>
        <time>2015-12-13T10:05:12Z</time>
      </trkpt>
      <trkpt lat="50.76263" lon="3.69479">
        <ele>141</ele>
        <time>2015-12-13T10:05:13Z</time>
      </trkpt>
      <trkpt lat="50.76261" lon="3.69477">
        <ele>141</ele>
        <time>2015-12-13T10:05:14Z</time>
      </trkpt>
      <trkpt lat="50.76259" lon="3.69475">
        <ele>141</ele>
        <time>2015-12-13T10:05:15Z</time>
      </trkpt>
      <trkpt lat="50.76256" lon="3.69474">
        <ele>141</ele>
        <time>2015-12-13T10:05:16Z</time>
      </trkpt>
      <trkpt lat="50.76255" lon="3.69472">
        <ele>141</ele>
        <time>2015-12-13T10:05:17Z</time>
      </trkpt>
      <trkpt lat="50.76252" lon="3.69469">
        <ele>141</ele>
        <time>2015-12-13T10:05:18Z</time>
      </trkpt>
      <trkpt lat="50.76249" lon="3.69467">
        <ele>141</ele>
        <time>2015-12-13T10:05:19Z</time>
      </trkpt>
      <trkpt lat="50.76246" lon="3.69465">
        <ele>141</ele>
        <time>2015-12-13T10:05:20Z</time>
      </trkpt>
      <trkpt lat="50.76243" lon="3.69462">
        <ele>139.6</ele>
        <time>2015-12-13T10:05:21Z</time>
      </trkpt>
      <trkpt lat="50.76241" lon="3.69459">
        <ele>139</ele>
        <time>2015-12-13T10:05:22Z</time>
      </trkpt>
      <trkpt lat="50.76238" lon="3.69456">
        <ele>139</ele>
        <time>2015-12-13T10:05:23Z</time>
      </trkpt>
      <trkpt lat="50.76236" lon="3.69453">
        <ele>139</ele>
        <time>2015-12-13T10:05:24Z</time>
      </trkpt>
      <trkpt lat="50.76235" lon="3.69451">
        <ele>139</ele>
        <time>2015-12-13T10:05:25Z</time>
      </trkpt>
      <trkpt lat="50.76233" lon="3.69449">
        <ele>137.6</ele>
        <time>2015-12-13T10:05:26Z</time>
      </trkpt>
      <trkpt lat="50.76231" lon="3.69447">
        <ele>137</ele>
        <time>2015-12-13T10:05:27Z</time>
      </trkpt>
      <trkpt lat="50.76229" lon="3.69446">
        <ele>137</ele>
        <time>2015-12-13T10:05:28Z</time>
      </trkpt>
      <trkpt lat="50.76227" lon="3.69444">
        <ele>137</ele>
        <time>2015-12-13T10:05:29Z</time>
      </trkpt>
      <trkpt lat="50.76225" lon="3.69442">
        <ele>137</ele>
        <time>2015-12-13T10:05:30Z</time>
      </trkpt>
      <trkpt lat="50.76223" lon="3.69441">
        <ele>136.3</ele>
        <time>2015-12-13T10:05:31Z</time>
      </trkpt>
      <trkpt lat="50.76221" lon="3.69439">
        <ele>136</ele>
        <time>2015-12-13T10:05:32Z</time>
      </trkpt>
      <trkpt lat="50.76219" lon="3.69438">
        <ele>136</ele>
        <time>2015-12-13T10:05:33Z</time>
      </trkpt>
      <trkpt lat="50.76217" lon="3.69437">
        <ele>136</ele>
        <time>2015-12-13T10:05:34Z</time>
      </trkpt>
      <trkpt lat="50.76214" lon="3.69436">
        <ele>136</ele>
        <time>2015-12-13T10:05:35Z</time>
      </trkpt>
      <trkpt lat="50.76212" lon="3.69435">
        <ele>134.6</ele>
        <time>2015-12-13T10:05:36Z</time>
      </trkpt>
      <trkpt lat="50.76209" lon="3.69434">
        <ele>134</ele>
        <time>2015-12-13T10:05:37Z</time>
      </trkpt>
      <trkpt lat="50.76206" lon="3.69434">
        <ele>134</ele>
        <time>2015-12-13T10:05:38Z</time>
      </trkpt>
      <trkpt lat="50.76204" lon="3.69433">
        <ele>134</ele>
        <time>2015-12-13T10:05:39Z</time>
      </trkpt>
      <trkpt lat="50.76202" lon="3.69432">
        <ele>134</ele>
        <time>2015-12-13T10:05:40Z</time>
      </trkpt>
      <trkpt lat="50.762" lon="3.69431">
        <ele>133.3</ele>
        <time>2015-12-13T10:05:41Z</time>
      </trkpt>
      <trkpt lat="50.76197" lon="3.69431">
        <ele>133</ele>
        <time>2015-12-13T10:05:42Z</time>
      </trkpt>
      <trkpt lat="50.76195" lon="3.6943">
        <ele>133</ele>
        <time>2015-12-13T10:05:43Z</time>
      </trkpt>
      <trkpt lat="50.76192" lon="3.6943">
        <ele>133</ele>
        <time>2015-12-13T10:05:44Z</time>
      </trkpt>
      <trkpt lat="50.76181" lon="3.69428">
        <ele>132</ele>
        <time>2015-12-13T10:05:48Z</time>
      </trkpt>
      <trkpt lat="50.76171" lon="3.69425">
        <ele>131</ele>
        <time>2015-12-13T10:05:52Z</time>
      </trkpt>
      <trkpt lat="50.76169" lon="3.69425">
        <ele>131</ele>
        <time>2015-12-13T10:05:53Z</time>
      </trkpt>
      <trkpt lat="50.76166" lon="3.69426">
        <ele>131</ele>
        <time>2015-12-13T10:05:54Z</time>
      </trkpt>
      <trkpt lat="50.76164" lon="3.69426">
        <ele>131</ele>
        <time>2015-12-13T10:05:55Z</time>
      </trkpt>
      <trkpt lat="50.7616" lon="3.69426">
        <ele>131</ele>
        <time>2015-12-13T10:05:57Z</time>
      </trkpt>
      <trkpt lat="50.76157" lon="3.69425">
        <ele>131</ele>
        <time>2015-12-13T10:05:59Z</time>
      </trkpt>
      <trkpt lat="50.76155" lon="3.69425">
        <ele>131</ele>
        <time>2015-12-13T10:06:00Z</time>
      </trkpt>
      <trkpt lat="50.76153" lon="3.69425">
        <ele>129.6</ele>
        <time>2015-12-13T10:06:01Z</time>
      </trkpt>
      <trkpt lat="50.76151" lon="3.69424">
        <ele>129</ele>
        <time>2015-12-13T10:06:02Z</time>
      </trkpt>
      <trkpt lat="50.76149" lon="3.69423">
        <ele>129</ele>
        <time>2015-12-13T10:06:03Z</time>
      </trkpt>
      <trkpt lat="50.76147" lon="3.69423">
        <ele>129</ele>
        <time>2015-12-13T10:06:04Z</time>
      </trkpt>
      <trkpt lat="50.76144" lon="3.69422">
        <ele>129</ele>
        <time>2015-12-13T10:06:05Z</time>
      </trkpt>
      <trkpt lat="50.76142" lon="3.69422">
        <ele>128.5</ele>
        <time>2015-12-13T10:06:06Z</time>
      </trkpt>
      <trkpt lat="50.7614" lon="3.69422">
        <ele>128</ele>
        <time>2015-12-13T10:06:07Z</time>
      </trkpt>
      <trkpt lat="50.76138" lon="3.69421">
        <ele>128</ele>
        <time>2015-12-13T10:06:08Z</time>
      </trkpt>
      <trkpt lat="50.76136" lon="3.69422">
        <ele>128</ele>
        <time>2015-12-13T10:06:09Z</time>
      </trkpt>
      <trkpt lat="50.76133" lon="3.69422">
        <ele>128</ele>
        <time>2015-12-13T10:06:10Z</time>
      </trkpt>
      <trkpt lat="50.7613" lon="3.69421">
        <ele>127.3</ele>
        <time>2015-12-13T10:06:11Z</time>
      </trkpt>
      <trkpt lat="50.76128" lon="3.69421">
        <ele>127</ele>
        <time>2015-12-13T10:06:12Z</time>
      </trkpt>
      <trkpt lat="50.76125" lon="3.69421">
        <ele>127</ele>
        <time>2015-12-13T10:06:13Z</time>
      </trkpt>
      <trkpt lat="50.76122" lon="3.69421">
        <ele>127</ele>
        <time>2015-12-13T10:06:14Z</time>
      </trkpt>
      <trkpt lat="50.76119" lon="3.6942">
        <ele>127</ele>
        <time>2015-12-13T10:06:15Z</time>
      </trkpt>
      <trkpt lat="50.76117" lon="3.6942">
        <ele>127</ele>
        <time>2015-12-13T10:06:16Z</time>
      </trkpt>
      <trkpt lat="50.76114" lon="3.6942">
        <ele>127</ele>
        <time>2015-12-13T10:06:17Z</time>
      </trkpt>
      <trkpt lat="50.76112" lon="3.6942">
        <ele>127</ele>
        <time>2015-12-13T10:06:18Z</time>
      </trkpt>
      <trkpt lat="50.7611" lon="3.69419">
        <ele>127</ele>
        <time>2015-12-13T10:06:19Z</time>
      </trkpt>
      <trkpt lat="50.76108" lon="3.69418">
        <ele>127</ele>
        <time>2015-12-13T10:06:20Z</time>
      </trkpt>
      <trkpt lat="50.76105" lon="3.69418">
        <ele>126</ele>
        <time>2015-12-13T10:06:22Z</time>
      </trkpt>
      <trkpt lat="50.76103" lon="3.69421">
        <ele>126</ele>
        <time>2015-12-13T10:06:24Z</time>
      </trkpt>
      <trkpt lat="50.761" lon="3.69424">
        <ele>126</ele>
        <time>2015-12-13T10:06:26Z</time>
      </trkpt>
      <trkpt lat="50.76099" lon="3.69426">
        <ele>126</ele>
        <time>2015-12-13T10:06:27Z</time>
      </trkpt>
      <trkpt lat="50.76097" lon="3.69428">
        <ele>126</ele>
        <time>2015-12-13T10:06:28Z</time>
      </trkpt>
      <trkpt lat="50.76094" lon="3.69429">
        <ele>126</ele>
        <time>2015-12-13T10:06:29Z</time>
      </trkpt>
      <trkpt lat="50.76092" lon="3.6943">
        <ele>126</ele>
        <time>2015-12-13T10:06:30Z</time>
      </trkpt>
      <trkpt lat="50.7609" lon="3.69431">
        <ele>121.9</ele>
        <time>2015-12-13T10:06:31Z</time>
      </trkpt>
      <trkpt lat="50.76088" lon="3.69431">
        <ele>119.3</ele>
        <time>2015-12-13T10:06:32Z</time>
      </trkpt>
      <trkpt lat="50.76086" lon="3.69432">
        <ele>119</ele>
        <time>2015-12-13T10:06:33Z</time>
      </trkpt>
      <trkpt lat="50.76084" lon="3.69433">
        <ele>119.5</ele>
        <time>2015-12-13T10:06:34Z</time>
      </trkpt>
      <trkpt lat="50.76083" lon="3.69434">
        <ele>120</ele>
        <time>2015-12-13T10:06:35Z</time>
      </trkpt>
      <trkpt lat="50.76081" lon="3.69436">
        <ele>119.3</ele>
        <time>2015-12-13T10:06:36Z</time>
      </trkpt>
      <trkpt lat="50.76078" lon="3.69437">
        <ele>119</ele>
        <time>2015-12-13T10:06:37Z</time>
      </trkpt>
      <trkpt lat="50.76075" lon="3.69439">
        <ele>118</ele>
        <time>2015-12-13T10:06:39Z</time>
      </trkpt>
      <trkpt lat="50.76073" lon="3.6944">
        <ele>118</ele>
        <time>2015-12-13T10:06:40Z</time>
      </trkpt>
      <trkpt lat="50.7607" lon="3.69444">
        <ele>118</ele>
        <time>2015-12-13T10:06:42Z</time>
      </trkpt>
      <trkpt lat="50.76067" lon="3.69447">
        <ele>118</ele>
        <time>2015-12-13T10:06:44Z</time>
      </trkpt>
      <trkpt lat="50.76066" lon="3.69449">
        <ele>118</ele>
        <time>2015-12-13T10:06:45Z</time>
      </trkpt>
      <trkpt lat="50.76064" lon="3.69451">
        <ele>117.3</ele>
        <time>2015-12-13T10:06:46Z</time>
      </trkpt>
      <trkpt lat="50.76063" lon="3.69453">
        <ele>117</ele>
        <time>2015-12-13T10:06:47Z</time>
      </trkpt>
      <trkpt lat="50.7606" lon="3.69455">
        <ele>117</ele>
        <time>2015-12-13T10:06:49Z</time>
      </trkpt>
      <trkpt lat="50.76058" lon="3.69457">
        <ele>117</ele>
        <time>2015-12-13T10:06:50Z</time>
      </trkpt>
      <trkpt lat="50.76056" lon="3.69459">
        <ele>115.6</ele>
        <time>2015-12-13T10:06:51Z</time>
      </trkpt>
      <trkpt lat="50.76054" lon="3.69461">
        <ele>115</ele>
        <time>2015-12-13T10:06:52Z</time>
      </trkpt>
      <trkpt lat="50.76052" lon="3.69463">
        <ele>115</ele>
        <time>2015-12-13T10:06:53Z</time>
      </trkpt>
      <trkpt lat="50.7605" lon="3.69464">
        <ele>115</ele>
        <time>2015-12-13T10:06:54Z</time>
      </trkpt>
      <trkpt lat="50.76048" lon="3.69465">
        <ele>115</ele>
        <time>2015-12-13T10:06:55Z</time>
      </trkpt>
      <trkpt lat="50.76045" lon="3.69466">
        <ele>114.5</ele>
        <time>2015-12-13T10:06:56Z</time>
      </trkpt>
      <trkpt lat="50.76042" lon="3.69468">
        <ele>114</ele>
        <time>2015-12-13T10:06:57Z</time>
      </trkpt>
      <trkpt lat="50.76039" lon="3.6947">
        <ele>114</ele>
        <time>2015-12-13T10:06:58Z</time>
      </trkpt>
      <trkpt lat="50.76036" lon="3.69472">
        <ele>114</ele>
        <time>2015-12-13T10:06:59Z</time>
      </trkpt>
      <trkpt lat="50.76033" lon="3.69473">
        <ele>114</ele>
        <time>2015-12-13T10:07:00Z</time>
      </trkpt>
      <trkpt lat="50.76031" lon="3.69475">
        <ele>113.3</ele>
        <time>2015-12-13T10:07:01Z</time>
      </trkpt>
      <trkpt lat="50.76029" lon="3.69476">
        <ele>113</ele>
        <time>2015-12-13T10:07:02Z</time>
      </trkpt>
      <trkpt lat="50.76026" lon="3.69479">
        <ele>113</ele>
        <time>2015-12-13T10:07:04Z</time>
      </trkpt>
      <trkpt lat="50.76025" lon="3.6948">
        <ele>113</ele>
        <time>2015-12-13T10:07:05Z</time>
      </trkpt>
      <trkpt lat="50.76023" lon="3.69482">
        <ele>112.3</ele>
        <time>2015-12-13T10:07:06Z</time>
      </trkpt>
      <trkpt lat="50.76021" lon="3.69483">
        <ele>112</ele>
        <time>2015-12-13T10:07:07Z</time>
      </trkpt>
      <trkpt lat="50.76019" lon="3.69484">
        <ele>112</ele>
        <time>2015-12-13T10:07:08Z</time>
      </trkpt>
      <trkpt lat="50.76017" lon="3.69485">
        <ele>112</ele>
        <time>2015-12-13T10:07:09Z</time>
      </trkpt>
      <trkpt lat="50.76015" lon="3.69486">
        <ele>112</ele>
        <time>2015-12-13T10:07:10Z</time>
      </trkpt>
      <trkpt lat="50.76013" lon="3.69488">
        <ele>111.3</ele>
        <time>2015-12-13T10:07:11Z</time>
      </trkpt>
      <trkpt lat="50.76012" lon="3.69489">
        <ele>111</ele>
        <time>2015-12-13T10:07:12Z</time>
      </trkpt>
      <trkpt lat="50.76009" lon="3.6949">
        <ele>111</ele>
        <time>2015-12-13T10:07:13Z</time>
      </trkpt>
      <trkpt lat="50.76007" lon="3.69491">
        <ele>111</ele>
        <time>2015-12-13T10:07:14Z</time>
      </trkpt>
      <trkpt lat="50.76005" lon="3.69493">
        <ele>111</ele>
        <time>2015-12-13T10:07:15Z</time>
      </trkpt>
      <trkpt lat="50.76004" lon="3.69494">
        <ele>111</ele>
        <time>2015-12-13T10:07:16Z</time>
      </trkpt>
      <trkpt lat="50.76002" lon="3.69496">
        <ele>111</ele>
        <time>2015-12-13T10:07:17Z</time>
      </trkpt>
      <trkpt lat="50.76" lon="3.69497">
        <ele>111</ele>
        <time>2015-12-13T10:07:18Z</time>
      </trkpt>
      <trkpt lat="50.75998" lon="3.69499">
        <ele>111.5</ele>
        <time>2015-12-13T10:07:19Z</time>
      </trkpt>
      <trkpt lat="50.75996" lon="3.69501">
        <ele>112</ele>
        <time>2015-12-13T10:07:20Z</time>
      </trkpt>
      <trkpt lat="50.75994" lon="3.69503">
        <ele>109.9</ele>
        <time>2015-12-13T10:07:21Z</time>
      </trkpt>
      <trkpt lat="50.75992" lon="3.69505">
        <ele>108</ele>
        <time>2015-12-13T10:07:22Z</time>
      </trkpt>
      <trkpt lat="50.75991" lon="3.69508">
        <ele>108</ele>
        <time>2015-12-13T10:07:23Z</time>
      </trkpt>
      <trkpt lat="50.75989" lon="3.6951">
        <ele>108</ele>
        <time>2015-12-13T10:07:24Z</time>
      </trkpt>
      <trkpt lat="50.75987" lon="3.69512">
        <ele>108</ele>
        <time>2015-12-13T10:07:25Z</time>
      </trkpt>
      <trkpt lat="50.75985" lon="3.69514">
        <ele>107.3</ele>
        <time>2015-12-13T10:07:26Z</time>
      </trkpt>
      <trkpt lat="50.75976" lon="3.6952">
        <ele>107</ele>
        <time>2015-12-13T10:07:29Z</time>
      </trkpt>
      <trkpt lat="50.75965" lon="3.69524">
        <ele>106</ele>
        <time>2015-12-13T10:07:33Z</time>
      </trkpt>
      <trkpt lat="50.75963" lon="3.69525">
        <ele>106</ele>
        <time>2015-12-13T10:07:34Z</time>
      </trkpt>
      <trkpt lat="50.7596" lon="3.69526">
        <ele>106</ele>
        <time>2015-12-13T10:07:35Z</time>
      </trkpt>
      <trkpt lat="50.75957" lon="3.69527">
        <ele>106</ele>
        <time>2015-12-13T10:07:36Z</time>
      </trkpt>
      <trkpt lat="50.75954" lon="3.69526">
        <ele>106</ele>
        <time>2015-12-13T10:07:38Z</time>
      </trkpt>
      <trkpt lat="50.75952" lon="3.69525">
        <ele>106</ele>
        <time>2015-12-13T10:07:39Z</time>
      </trkpt>
      <trkpt lat="50.7595" lon="3.69525">
        <ele>106</ele>
        <time>2015-12-13T10:07:40Z</time>
      </trkpt>
      <trkpt lat="50.75942" lon="3.69527">
        <ele>106</ele>
        <time>2015-12-13T10:07:44Z</time>
      </trkpt>
      <trkpt lat="50.75933" lon="3.69526">
        <ele>106</ele>
        <time>2015-12-13T10:07:49Z</time>
      </trkpt>
      <trkpt lat="50.75928" lon="3.69524">
        <ele>107</ele>
        <time>2015-12-13T10:07:52Z</time>
      </trkpt>
      <trkpt lat="50.75925" lon="3.69523">
        <ele>107</ele>
        <time>2015-12-13T10:07:54Z</time>
      </trkpt>
      <trkpt lat="50.75922" lon="3.69522">
        <ele>107</ele>
        <time>2015-12-13T10:07:56Z</time>
      </trkpt>
      <trkpt lat="50.75921" lon="3.69519">
        <ele>107</ele>
        <time>2015-12-13T10:07:57Z</time>
      </trkpt>
      <trkpt lat="50.75919" lon="3.69518">
        <ele>107</ele>
        <time>2015-12-13T10:07:59Z</time>
      </trkpt>
      <trkpt lat="50.75916" lon="3.69517">
        <ele>107</ele>
        <time>2015-12-13T10:08:02Z</time>
      </trkpt>
      <trkpt lat="50.75913" lon="3.69515">
        <ele>107</ele>
        <time>2015-12-13T10:08:04Z</time>
      </trkpt>
      <trkpt lat="50.75911" lon="3.69514">
        <ele>107</ele>
        <time>2015-12-13T10:08:06Z</time>
      </trkpt>
      <trkpt lat="50.75909" lon="3.6951">
        <ele>107</ele>
        <time>2015-12-13T10:08:08Z</time>
      </trkpt>
      <trkpt lat="50.75907" lon="3.69508">
        <ele>107</ele>
        <time>2015-12-13T10:08:10Z</time>
      </trkpt>
      <trkpt lat="50.75906" lon="3.69505">
        <ele>107</ele>
        <time>2015-12-13T10:08:12Z</time>
      </trkpt>
      <trkpt lat="50.75905" lon="3.69503">
        <ele>107</ele>
        <time>2015-12-13T10:08:14Z</time>
      </trkpt>
      <trkpt lat="50.75903" lon="3.69499">
        <ele>107</ele>
        <time>2015-12-13T10:08:16Z</time>
      </trkpt>
      <trkpt lat="50.75901" lon="3.69494">
        <ele>107</ele>
        <time>2015-12-13T10:08:18Z</time>
      </trkpt>
      <trkpt lat="50.759" lon="3.69488">
        <ele>107</ele>
        <time>2015-12-13T10:08:20Z</time>
      </trkpt>
      <trkpt lat="50.75899" lon="3.69483">
        <ele>107</ele>
        <time>2015-12-13T10:08:22Z</time>
      </trkpt>
      <trkpt lat="50.75898" lon="3.69479">
        <ele>107</ele>
        <time>2015-12-13T10:08:23Z</time>
      </trkpt>
      <trkpt lat="50.75897" lon="3.69477">
        <ele>107</ele>
        <time>2015-12-13T10:08:24Z</time>
      </trkpt>
      <trkpt lat="50.75896" lon="3.69475">
        <ele>107</ele>
        <time>2015-12-13T10:08:25Z</time>
      </trkpt>
      <trkpt lat="50.75894" lon="3.69473">
        <ele>107</ele>
        <time>2015-12-13T10:08:26Z</time>
      </trkpt>
      <trkpt lat="50.75892" lon="3.69469">
        <ele>107</ele>
        <time>2015-12-13T10:08:28Z</time>
      </trkpt>
      <trkpt lat="50.75891" lon="3.69465">
        <ele>107</ele>
        <time>2015-12-13T10:08:30Z</time>
      </trkpt>
      <trkpt lat="50.7589" lon="3.6946">
        <ele>107</ele>
        <time>2015-12-13T10:08:32Z</time>
      </trkpt>
      <trkpt lat="50.75889" lon="3.69457">
        <ele>107</ele>
        <time>2015-12-13T10:08:33Z</time>
      </trkpt>
      <trkpt lat="50.75888" lon="3.69452">
        <ele>107</ele>
        <time>2015-12-13T10:08:35Z</time>
      </trkpt>
      <trkpt lat="50.75886" lon="3.69449">
        <ele>107</ele>
        <time>2015-12-13T10:08:36Z</time>
      </trkpt>
      <trkpt lat="50.75885" lon="3.69447">
        <ele>107</ele>
        <time>2015-12-13T10:08:37Z</time>
      </trkpt>
      <trkpt lat="50.75883" lon="3.69443">
        <ele>107</ele>
        <time>2015-12-13T10:08:39Z</time>
      </trkpt>
      <trkpt lat="50.75881" lon="3.69439">
        <ele>107</ele>
        <time>2015-12-13T10:08:41Z</time>
      </trkpt>
      <trkpt lat="50.7588" lon="3.69435">
        <ele>107</ele>
        <time>2015-12-13T10:08:43Z</time>
      </trkpt>
      <trkpt lat="50.75878" lon="3.69431">
        <ele>107</ele>
        <time>2015-12-13T10:08:45Z</time>
      </trkpt>
      <trkpt lat="50.75877" lon="3.69428">
        <ele>107</ele>
        <time>2015-12-13T10:08:47Z</time>
      </trkpt>
      <trkpt lat="50.75875" lon="3.69425">
        <ele>107</ele>
        <time>2015-12-13T10:08:49Z</time>
      </trkpt>
      <trkpt lat="50.75873" lon="3.69421">
        <ele>107</ele>
        <time>2015-12-13T10:08:51Z</time>
      </trkpt>
      <trkpt lat="50.75872" lon="3.69419">
        <ele>109</ele>
        <time>2015-12-13T10:08:53Z</time>
      </trkpt>
      <trkpt lat="50.75869" lon="3.69416">
        <ele>109</ele>
        <time>2015-12-13T10:08:55Z</time>
      </trkpt>
      <trkpt lat="50.75866" lon="3.69414">
        <ele>109</ele>
        <time>2015-12-13T10:08:57Z</time>
      </trkpt>
      <trkpt lat="50.75865" lon="3.69411">
        <ele>109</ele>
        <time>2015-12-13T10:08:59Z</time>
      </trkpt>
      <trkpt lat="50.75862" lon="3.69409">
        <ele>109</ele>
        <time>2015-12-13T10:09:01Z</time>
      </trkpt>
      <trkpt lat="50.7586" lon="3.69408">
        <ele>109</ele>
        <time>2015-12-13T10:09:03Z</time>
      </trkpt>
      <trkpt lat="50.75858" lon="3.69406">
        <ele>109</ele>
        <time>2015-12-13T10:09:05Z</time>
      </trkpt>
      <trkpt lat="50.75856" lon="3.69406">
        <ele>109</ele>
        <time>2015-12-13T10:09:07Z</time>
      </trkpt>
      <trkpt lat="50.75854" lon="3.69406">
        <ele>110</ele>
        <time>2015-12-13T10:09:13Z</time>
      </trkpt>
      <trkpt lat="50.75852" lon="3.69404">
        <ele>110</ele>
        <time>2015-12-13T10:09:15Z</time>
      </trkpt>
      <trkpt lat="50.7585" lon="3.69404">
        <ele>110</ele>
        <time>2015-12-13T10:09:17Z</time>
      </trkpt>
      <trkpt lat="50.75848" lon="3.69405">
        <ele>110</ele>
        <time>2015-12-13T10:09:19Z</time>
      </trkpt>
      <trkpt lat="50.75846" lon="3.69404">
        <ele>110.7</ele>
        <time>2015-12-13T10:09:21Z</time>
      </trkpt>
      <trkpt lat="50.75844" lon="3.69405">
        <ele>111</ele>
        <time>2015-12-13T10:09:23Z</time>
      </trkpt>
      <trkpt lat="50.75842" lon="3.69403">
        <ele>111</ele>
        <time>2015-12-13T10:09:27Z</time>
      </trkpt>
      <trkpt lat="50.7584" lon="3.69398">
        <ele>111</ele>
        <time>2015-12-13T10:09:29Z</time>
      </trkpt>
      <trkpt lat="50.75839" lon="3.69393">
        <ele>111</ele>
        <time>2015-12-13T10:09:31Z</time>
      </trkpt>
      <trkpt lat="50.75838" lon="3.6939">
        <ele>111</ele>
        <time>2015-12-13T10:09:33Z</time>
      </trkpt>
      <trkpt lat="50.75836" lon="3.69388">
        <ele>111</ele>
        <time>2015-12-13T10:09:35Z</time>
      </trkpt>
      <trkpt lat="50.75835" lon="3.69384">
        <ele>111</ele>
        <time>2015-12-13T10:09:37Z</time>
      </trkpt>
      <trkpt lat="50.75834" lon="3.69381">
        <ele>111</ele>
        <time>2015-12-13T10:09:39Z</time>
      </trkpt>
      <trkpt lat="50.75831" lon="3.69377">
        <ele>109</ele>
        <time>2015-12-13T10:09:42Z</time>
      </trkpt>
      <trkpt lat="50.75831" lon="3.69373">
        <ele>109</ele>
        <time>2015-12-13T10:09:44Z</time>
      </trkpt>
      <trkpt lat="50.75829" lon="3.69369">
        <ele>109</ele>
        <time>2015-12-13T10:09:46Z</time>
      </trkpt>
      <trkpt lat="50.75827" lon="3.69367">
        <ele>109</ele>
        <time>2015-12-13T10:09:48Z</time>
      </trkpt>
      <trkpt lat="50.75825" lon="3.69365">
        <ele>109</ele>
        <time>2015-12-13T10:09:50Z</time>
      </trkpt>
      <trkpt lat="50.75823" lon="3.69363">
        <ele>107</ele>
        <time>2015-12-13T10:09:52Z</time>
      </trkpt>
      <trkpt lat="50.75821" lon="3.69361">
        <ele>107</ele>
        <time>2015-12-13T10:09:54Z</time>
      </trkpt>
      <trkpt lat="50.7582" lon="3.69358">
        <ele>107</ele>
        <time>2015-12-13T10:09:56Z</time>
      </trkpt>
      <trkpt lat="50.75818" lon="3.69354">
        <ele>107</ele>
        <time>2015-12-13T10:09:58Z</time>
      </trkpt>
      <trkpt lat="50.75817" lon="3.69351">
        <ele>107</ele>
        <time>2015-12-13T10:10:00Z</time>
      </trkpt>
      <trkpt lat="50.75816" lon="3.69347">
        <ele>105</ele>
        <time>2015-12-13T10:10:02Z</time>
      </trkpt>
      <trkpt lat="50.75816" lon="3.69342">
        <ele>105</ele>
        <time>2015-12-13T10:10:04Z</time>
      </trkpt>
      <trkpt lat="50.75815" lon="3.69338">
        <ele>105</ele>
        <time>2015-12-13T10:10:06Z</time>
      </trkpt>
      <trkpt lat="50.75814" lon="3.69334">
        <ele>105</ele>
        <time>2015-12-13T10:10:08Z</time>
      </trkpt>
      <trkpt lat="50.75813" lon="3.69332">
        <ele>103</ele>
        <time>2015-12-13T10:10:12Z</time>
      </trkpt>
      <trkpt lat="50.75811" lon="3.6933">
        <ele>103</ele>
        <time>2015-12-13T10:10:14Z</time>
      </trkpt>
      <trkpt lat="50.75809" lon="3.69327">
        <ele>103</ele>
        <time>2015-12-13T10:10:16Z</time>
      </trkpt>
      <trkpt lat="50.75806" lon="3.69325">
        <ele>103</ele>
        <time>2015-12-13T10:10:18Z</time>
      </trkpt>
      <trkpt lat="50.75805" lon="3.69323">
        <ele>103</ele>
        <time>2015-12-13T10:10:20Z</time>
      </trkpt>
      <trkpt lat="50.75803" lon="3.6932">
        <ele>103</ele>
        <time>2015-12-13T10:10:22Z</time>
      </trkpt>
      <trkpt lat="50.758" lon="3.69317">
        <ele>103</ele>
        <time>2015-12-13T10:10:24Z</time>
      </trkpt>
      <trkpt lat="50.75798" lon="3.69314">
        <ele>103</ele>
        <time>2015-12-13T10:10:26Z</time>
      </trkpt>
      <trkpt lat="50.75796" lon="3.6931">
        <ele>103</ele>
        <time>2015-12-13T10:10:28Z</time>
      </trkpt>
      <trkpt lat="50.75794" lon="3.69309">
        <ele>103</ele>
        <time>2015-12-13T10:10:30Z</time>
      </trkpt>
      <trkpt lat="50.75792" lon="3.69307">
        <ele>102</ele>
        <time>2015-12-13T10:10:32Z</time>
      </trkpt>
      <trkpt lat="50.7579" lon="3.69304">
        <ele>102</ele>
        <time>2015-12-13T10:10:34Z</time>
      </trkpt>
      <trkpt lat="50.75788" lon="3.69301">
        <ele>102</ele>
        <time>2015-12-13T10:10:36Z</time>
      </trkpt>
      <trkpt lat="50.75786" lon="3.69299">
        <ele>102</ele>
        <time>2015-12-13T10:10:38Z</time>
      </trkpt>
      <trkpt lat="50.75784" lon="3.69297">
        <ele>102</ele>
        <time>2015-12-13T10:10:40Z</time>
      </trkpt>
      <trkpt lat="50.75782" lon="3.69293">
        <ele>100</ele>
        <time>2015-12-13T10:10:42Z</time>
      </trkpt>
      <trkpt lat="50.7578" lon="3.69289">
        <ele>100</ele>
        <time>2015-12-13T10:10:44Z</time>
      </trkpt>
      <trkpt lat="50.75779" lon="3.69286">
        <ele>98</ele>
        <time>2015-12-13T10:10:46Z</time>
      </trkpt>
      <trkpt lat="50.75777" lon="3.69282">
        <ele>97</ele>
        <time>2015-12-13T10:10:48Z</time>
      </trkpt>
      <trkpt lat="50.75776" lon="3.69279">
        <ele>97</ele>
        <time>2015-12-13T10:10:50Z</time>
      </trkpt>
      <trkpt lat="50.75774" lon="3.69278">
        <ele>96</ele>
        <time>2015-12-13T10:10:52Z</time>
      </trkpt>
      <trkpt lat="50.75772" lon="3.69276">
        <ele>97</ele>
        <time>2015-12-13T10:10:54Z</time>
      </trkpt>
      <trkpt lat="50.75769" lon="3.69275">
        <ele>97</ele>
        <time>2015-12-13T10:10:56Z</time>
      </trkpt>
      <trkpt lat="50.75768" lon="3.69273">
        <ele>97</ele>
        <time>2015-12-13T10:10:58Z</time>
      </trkpt>
      <trkpt lat="50.75766" lon="3.69269">
        <ele>97</ele>
        <time>2015-12-13T10:11:00Z</time>
      </trkpt>
      <trkpt lat="50.75765" lon="3.69267">
        <ele>95</ele>
        <time>2015-12-13T10:11:02Z</time>
      </trkpt>
      <trkpt lat="50.75764" lon="3.69264">
        <ele>95</ele>
        <time>2015-12-13T10:11:04Z</time>
      </trkpt>
      <trkpt lat="50.75763" lon="3.69261">
        <ele>95</ele>
        <time>2015-12-13T10:11:06Z</time>
      </trkpt>
      <trkpt lat="50.75762" lon="3.69258">
        <ele>95</ele>
        <time>2015-12-13T10:11:08Z</time>
      </trkpt>
      <trkpt lat="50.7576" lon="3.69257">
        <ele>95</ele>
        <time>2015-12-13T10:11:10Z</time>
      </trkpt>
      <trkpt lat="50.75759" lon="3.69255">
        <ele>95</ele>
        <time>2015-12-13T10:11:13Z</time>
      </trkpt>
      <trkpt lat="50.75757" lon="3.69253">
        <ele>95</ele>
        <time>2015-12-13T10:11:15Z</time>
      </trkpt>
      <trkpt lat="50.75755" lon="3.69252">
        <ele>95</ele>
        <time>2015-12-13T10:11:19Z</time>
      </trkpt>
      <trkpt lat="50.75753" lon="3.6925">
        <ele>96</ele>
        <time>2015-12-13T10:11:22Z</time>
      </trkpt>
      <trkpt lat="50.75751" lon="3.69249">
        <ele>96</ele>
        <time>2015-12-13T10:11:24Z</time>
      </trkpt>
      <trkpt lat="50.75749" lon="3.69245">
        <ele>96</ele>
        <time>2015-12-13T10:11:26Z</time>
      </trkpt>
      <trkpt lat="50.75748" lon="3.6924">
        <ele>96</ele>
        <time>2015-12-13T10:11:28Z</time>
      </trkpt>
      <trkpt lat="50.75747" lon="3.69237">
        <ele>96</ele>
        <time>2015-12-13T10:11:30Z</time>
      </trkpt>
      <trkpt lat="50.75746" lon="3.69233">
        <ele>95</ele>
        <time>2015-12-13T10:11:32Z</time>
      </trkpt>
      <trkpt lat="50.75745" lon="3.69231">
        <ele>95</ele>
        <time>2015-12-13T10:11:34Z</time>
      </trkpt>
      <trkpt lat="50.75742" lon="3.69228">
        <ele>95</ele>
        <time>2015-12-13T10:11:36Z</time>
      </trkpt>
      <trkpt lat="50.75741" lon="3.69224">
        <ele>95</ele>
        <time>2015-12-13T10:11:38Z</time>
      </trkpt>
      <trkpt lat="50.75736" lon="3.69217">
        <ele>95</ele>
        <time>2015-12-13T10:11:49Z</time>
      </trkpt>
      <trkpt lat="50.75734" lon="3.69216">
        <ele>95</ele>
        <time>2015-12-13T10:11:51Z</time>
      </trkpt>
      <trkpt lat="50.75729" lon="3.69216">
        <ele>93.6</ele>
        <time>2015-12-13T10:12:01Z</time>
      </trkpt>
      <trkpt lat="50.75727" lon="3.69217">
        <ele>93</ele>
        <time>2015-12-13T10:12:04Z</time>
      </trkpt>
      <trkpt lat="50.75724" lon="3.69217">
        <ele>93</ele>
        <time>2015-12-13T10:12:07Z</time>
      </trkpt>
      <trkpt lat="50.75723" lon="3.69212">
        <ele>94</ele>
        <time>2015-12-13T10:12:39Z</time>
      </trkpt>
      <trkpt lat="50.75721" lon="3.69209">
        <ele>94</ele>
        <time>2015-12-13T10:12:42Z</time>
      </trkpt>
      <trkpt lat="50.75719" lon="3.69207">
        <ele>94</ele>
        <time>2015-12-13T10:12:44Z</time>
      </trkpt>
      <trkpt lat="50.75718" lon="3.69204">
        <ele>94</ele>
        <time>2015-12-13T10:12:47Z</time>
      </trkpt>
      <trkpt lat="50.75716" lon="3.69202">
        <ele>94</ele>
        <time>2015-12-13T10:12:49Z</time>
      </trkpt>
      <trkpt lat="50.75714" lon="3.69199">
        <ele>93</ele>
        <time>2015-12-13T10:12:52Z</time>
      </trkpt>
      <trkpt lat="50.75713" lon="3.69197">
        <ele>93</ele>
        <time>2015-12-13T10:12:54Z</time>
      </trkpt>
      <trkpt lat="50.75711" lon="3.69194">
        <ele>93</ele>
        <time>2015-12-13T10:12:56Z</time>
      </trkpt>
      <trkpt lat="50.75708" lon="3.69193">
        <ele>93</ele>
        <time>2015-12-13T10:12:58Z</time>
      </trkpt>
      <trkpt lat="50.75707" lon="3.69191">
        <ele>93</ele>
        <time>2015-12-13T10:13:00Z</time>
      </trkpt>
      <trkpt lat="50.75704" lon="3.69189">
        <ele>92</ele>
        <time>2015-12-13T10:13:02Z</time>
      </trkpt>
      <trkpt lat="50.75702" lon="3.69187">
        <ele>92</ele>
        <time>2015-12-13T10:13:04Z</time>
      </trkpt>
      <trkpt lat="50.757" lon="3.69185">
        <ele>92</ele>
        <time>2015-12-13T10:13:06Z</time>
      </trkpt>
      <trkpt lat="50.75698" lon="3.69183">
        <ele>92</ele>
        <time>2015-12-13T10:13:08Z</time>
      </trkpt>
      <trkpt lat="50.75696" lon="3.6918">
        <ele>92</ele>
        <time>2015-12-13T10:13:10Z</time>
      </trkpt>
      <trkpt lat="50.75694" lon="3.69178">
        <ele>92</ele>
        <time>2015-12-13T10:13:12Z</time>
      </trkpt>
      <trkpt lat="50.75692" lon="3.69177">
        <ele>92</ele>
        <time>2015-12-13T10:13:14Z</time>
      </trkpt>
      <trkpt lat="50.75691" lon="3.69174">
        <ele>92</ele>
        <time>2015-12-13T10:13:16Z</time>
      </trkpt>
      <trkpt lat="50.75688" lon="3.69172">
        <ele>92</ele>
        <time>2015-12-13T10:13:18Z</time>
      </trkpt>
      <trkpt lat="50.75686" lon="3.69168">
        <ele>91.3</ele>
        <time>2015-12-13T10:13:21Z</time>
      </trkpt>
      <trkpt lat="50.75684" lon="3.69166">
        <ele>91</ele>
        <time>2015-12-13T10:13:22Z</time>
      </trkpt>
      <trkpt lat="50.75682" lon="3.69163">
        <ele>91</ele>
        <time>2015-12-13T10:13:23Z</time>
      </trkpt>
      <trkpt lat="50.75681" lon="3.6916">
        <ele>91</ele>
        <time>2015-12-13T10:13:24Z</time>
      </trkpt>
      <trkpt lat="50.7568" lon="3.69158">
        <ele>91</ele>
        <time>2015-12-13T10:13:25Z</time>
      </trkpt>
      <trkpt lat="50.75678" lon="3.69156">
        <ele>91</ele>
        <time>2015-12-13T10:13:26Z</time>
      </trkpt>
      <trkpt lat="50.75676" lon="3.69154">
        <ele>91</ele>
        <time>2015-12-13T10:13:27Z</time>
      </trkpt>
      <trkpt lat="50.75675" lon="3.69151">
        <ele>91</ele>
        <time>2015-12-13T10:13:28Z</time>
      </trkpt>
      <trkpt lat="50.75675" lon="3.69148">
        <ele>91</ele>
        <time>2015-12-13T10:13:29Z</time>
      </trkpt>
      <trkpt lat="50.75675" lon="3.69145">
        <ele>91</ele>
        <time>2015-12-13T10:13:30Z</time>
      </trkpt>
      <trkpt lat="50.75676" lon="3.69142">
        <ele>90.3</ele>
        <time>2015-12-13T10:13:31Z</time>
      </trkpt>
      <trkpt lat="50.75676" lon="3.69138">
        <ele>90</ele>
        <time>2015-12-13T10:13:33Z</time>
      </trkpt>
      <trkpt lat="50.75676" lon="3.69134">
        <ele>90</ele>
        <time>2015-12-13T10:13:37Z</time>
      </trkpt>
      <trkpt lat="50.75677" lon="3.69131">
        <ele>90</ele>
        <time>2015-12-13T10:13:46Z</time>
      </trkpt>
      <trkpt lat="50.75679" lon="3.69128">
        <ele>90</ele>
        <time>2015-12-13T10:13:48Z</time>
      </trkpt>
      <trkpt lat="50.75681" lon="3.69126">
        <ele>90</ele>
        <time>2015-12-13T10:13:49Z</time>
      </trkpt>
      <trkpt lat="50.75683" lon="3.69124">
        <ele>90</ele>
        <time>2015-12-13T10:13:50Z</time>
      </trkpt>
      <trkpt lat="50.75685" lon="3.69121">
        <ele>90.7</ele>
        <time>2015-12-13T10:13:51Z</time>
      </trkpt>
      <trkpt lat="50.75687" lon="3.69119">
        <ele>91</ele>
        <time>2015-12-13T10:13:52Z</time>
      </trkpt>
      <trkpt lat="50.75689" lon="3.69116">
        <ele>91</ele>
        <time>2015-12-13T10:13:53Z</time>
      </trkpt>
      <trkpt lat="50.75691" lon="3.69113">
        <ele>91</ele>
        <time>2015-12-13T10:13:54Z</time>
      </trkpt>
      <trkpt lat="50.75693" lon="3.69111">
        <ele>91</ele>
        <time>2015-12-13T10:13:55Z</time>
      </trkpt>
      <trkpt lat="50.75695" lon="3.69108">
        <ele>91</ele>
        <time>2015-12-13T10:13:56Z</time>
      </trkpt>
      <trkpt lat="50.75697" lon="3.69106">
        <ele>91</ele>
        <time>2015-12-13T10:13:57Z</time>
      </trkpt>
      <trkpt lat="50.75699" lon="3.69103">
        <ele>91</ele>
        <time>2015-12-13T10:13:58Z</time>
      </trkpt>
      <trkpt lat="50.75701" lon="3.69101">
        <ele>91</ele>
        <time>2015-12-13T10:13:59Z</time>
      </trkpt>
      <trkpt lat="50.75703" lon="3.69098">
        <ele>91</ele>
        <time>2015-12-13T10:14:00Z</time>
      </trkpt>
      <trkpt lat="50.75704" lon="3.69096">
        <ele>91</ele>
        <time>2015-12-13T10:14:01Z</time>
      </trkpt>
      <trkpt lat="50.75706" lon="3.69093">
        <ele>91</ele>
        <time>2015-12-13T10:14:02Z</time>
      </trkpt>
      <trkpt lat="50.75708" lon="3.69091">
        <ele>91</ele>
        <time>2015-12-13T10:14:03Z</time>
      </trkpt>
      <trkpt lat="50.7571" lon="3.69089">
        <ele>91</ele>
        <time>2015-12-13T10:14:04Z</time>
      </trkpt>
      <trkpt lat="50.75712" lon="3.69087">
        <ele>91</ele>
        <time>2015-12-13T10:14:05Z</time>
      </trkpt>
      <trkpt lat="50.75714" lon="3.69084">
        <ele>91</ele>
        <time>2015-12-13T10:14:06Z</time>
      </trkpt>
      <trkpt lat="50.75715" lon="3.69082">
        <ele>91</ele>
        <time>2015-12-13T10:14:07Z</time>
      </trkpt>
      <trkpt lat="50.75717" lon="3.6908">
        <ele>91</ele>
        <time>2015-12-13T10:14:08Z</time>
      </trkpt>
      <trkpt lat="50.75719" lon="3.69077">
        <ele>91</ele>
        <time>2015-12-13T10:14:09Z</time>
      </trkpt>
      <trkpt lat="50.7572" lon="3.69075">
        <ele>91</ele>
        <time>2015-12-13T10:14:10Z</time>
      </trkpt>
      <trkpt lat="50.75722" lon="3.69072">
        <ele>92.4</ele>
        <time>2015-12-13T10:14:11Z</time>
      </trkpt>
      <trkpt lat="50.75724" lon="3.6907">
        <ele>93</ele>
        <time>2015-12-13T10:14:12Z</time>
      </trkpt>
      <trkpt lat="50.75726" lon="3.69067">
        <ele>93</ele>
        <time>2015-12-13T10:14:13Z</time>
      </trkpt>
      <trkpt lat="50.75728" lon="3.69065">
        <ele>93</ele>
        <time>2015-12-13T10:14:14Z</time>
      </trkpt>
      <trkpt lat="50.7573" lon="3.69063">
        <ele>93</ele>
        <time>2015-12-13T10:14:15Z</time>
      </trkpt>
      <trkpt lat="50.75732" lon="3.69061">
        <ele>93</ele>
        <time>2015-12-13T10:14:16Z</time>
      </trkpt>
      <trkpt lat="50.75734" lon="3.69059">
        <ele>93</ele>
        <time>2015-12-13T10:14:17Z</time>
      </trkpt>
      <trkpt lat="50.75735" lon="3.69056">
        <ele>93</ele>
        <time>2015-12-13T10:14:18Z</time>
      </trkpt>
      <trkpt lat="50.75737" lon="3.69054">
        <ele>93</ele>
        <time>2015-12-13T10:14:19Z</time>
      </trkpt>
      <trkpt lat="50.75739" lon="3.69052">
        <ele>93</ele>
        <time>2015-12-13T10:14:20Z</time>
      </trkpt>
      <trkpt lat="50.75741" lon="3.6905">
        <ele>93.7</ele>
        <time>2015-12-13T10:14:21Z</time>
      </trkpt>
      <trkpt lat="50.75742" lon="3.69048">
        <ele>94</ele>
        <time>2015-12-13T10:14:22Z</time>
      </trkpt>
      <trkpt lat="50.75744" lon="3.69045">
        <ele>94</ele>
        <time>2015-12-13T10:14:23Z</time>
      </trkpt>
      <trkpt lat="50.75746" lon="3.69043">
        <ele>94</ele>
        <time>2015-12-13T10:14:24Z</time>
      </trkpt>
      <trkpt lat="50.75747" lon="3.69041">
        <ele>94</ele>
        <time>2015-12-13T10:14:25Z</time>
      </trkpt>
      <trkpt lat="50.75749" lon="3.69038">
        <ele>94</ele>
        <time>2015-12-13T10:14:26Z</time>
      </trkpt>
      <trkpt lat="50.75751" lon="3.69036">
        <ele>94</ele>
        <time>2015-12-13T10:14:27Z</time>
      </trkpt>
      <trkpt lat="50.75752" lon="3.69034">
        <ele>94</ele>
        <time>2015-12-13T10:14:28Z</time>
      </trkpt>
      <trkpt lat="50.75754" lon="3.69032">
        <ele>94</ele>
        <time>2015-12-13T10:14:29Z</time>
      </trkpt>
      <trkpt lat="50.75755" lon="3.69029">
        <ele>94</ele>
        <time>2015-12-13T10:14:30Z</time>
      </trkpt>
      <trkpt lat="50.75756" lon="3.69027">
        <ele>94.7</ele>
        <time>2015-12-13T10:14:31Z</time>
      </trkpt>
      <trkpt lat="50.75757" lon="3.69024">
        <ele>95</ele>
        <time>2015-12-13T10:14:32Z</time>
      </trkpt>
      <trkpt lat="50.75758" lon="3.69022">
        <ele>95</ele>
        <time>2015-12-13T10:14:33Z</time>
      </trkpt>
      <trkpt lat="50.7576" lon="3.6902">
        <ele>95</ele>
        <time>2015-12-13T10:14:34Z</time>
      </trkpt>
      <trkpt lat="50.75762" lon="3.69017">
        <ele>95</ele>
        <time>2015-12-13T10:14:35Z</time>
      </trkpt>
      <trkpt lat="50.75763" lon="3.69015">
        <ele>95</ele>
        <time>2015-12-13T10:14:36Z</time>
      </trkpt>
      <trkpt lat="50.75765" lon="3.69013">
        <ele>95</ele>
        <time>2015-12-13T10:14:37Z</time>
      </trkpt>
      <trkpt lat="50.75766" lon="3.69011">
        <ele>95</ele>
        <time>2015-12-13T10:14:38Z</time>
      </trkpt>
      <trkpt lat="50.75768" lon="3.69009">
        <ele>95</ele>
        <time>2015-12-13T10:14:39Z</time>
      </trkpt>
      <trkpt lat="50.75769" lon="3.69007">
        <ele>95</ele>
        <time>2015-12-13T10:14:40Z</time>
      </trkpt>
      <trkpt lat="50.75771" lon="3.69005">
        <ele>96.3</ele>
        <time>2015-12-13T10:14:41Z</time>
      </trkpt>
      <trkpt lat="50.75773" lon="3.69002">
        <ele>97</ele>
        <time>2015-12-13T10:14:42Z</time>
      </trkpt>
      <trkpt lat="50.75775" lon="3.68999">
        <ele>97</ele>
        <time>2015-12-13T10:14:43Z</time>
      </trkpt>
      <trkpt lat="50.75776" lon="3.68997">
        <ele>97</ele>
        <time>2015-12-13T10:14:44Z</time>
      </trkpt>
      <trkpt lat="50.75778" lon="3.68995">
        <ele>97</ele>
        <time>2015-12-13T10:14:45Z</time>
      </trkpt>
      <trkpt lat="50.75779" lon="3.68992">
        <ele>97</ele>
        <time>2015-12-13T10:14:46Z</time>
      </trkpt>
      <trkpt lat="50.75781" lon="3.68989">
        <ele>97</ele>
        <time>2015-12-13T10:14:48Z</time>
      </trkpt>
      <trkpt lat="50.75784" lon="3.68986">
        <ele>97</ele>
        <time>2015-12-13T10:14:50Z</time>
      </trkpt>
      <trkpt lat="50.75786" lon="3.68983">
        <ele>98</ele>
        <time>2015-12-13T10:14:52Z</time>
      </trkpt>
      <trkpt lat="50.75788" lon="3.6898">
        <ele>98</ele>
        <time>2015-12-13T10:14:54Z</time>
      </trkpt>
      <trkpt lat="50.7579" lon="3.68976">
        <ele>98</ele>
        <time>2015-12-13T10:14:56Z</time>
      </trkpt>
      <trkpt lat="50.75792" lon="3.68972">
        <ele>98</ele>
        <time>2015-12-13T10:14:58Z</time>
      </trkpt>
      <trkpt lat="50.75794" lon="3.68969">
        <ele>98</ele>
        <time>2015-12-13T10:15:00Z</time>
      </trkpt>
      <trkpt lat="50.75796" lon="3.68966">
        <ele>100</ele>
        <time>2015-12-13T10:15:02Z</time>
      </trkpt>
      <trkpt lat="50.75798" lon="3.68962">
        <ele>100</ele>
        <time>2015-12-13T10:15:04Z</time>
      </trkpt>
      <trkpt lat="50.758" lon="3.68959">
        <ele>100</ele>
        <time>2015-12-13T10:15:06Z</time>
      </trkpt>
      <trkpt lat="50.75802" lon="3.68956">
        <ele>100</ele>
        <time>2015-12-13T10:15:08Z</time>
      </trkpt>
      <trkpt lat="50.75804" lon="3.68953">
        <ele>100</ele>
        <time>2015-12-13T10:15:10Z</time>
      </trkpt>
      <trkpt lat="50.75807" lon="3.6895">
        <ele>101</ele>
        <time>2015-12-13T10:15:12Z</time>
      </trkpt>
      <trkpt lat="50.75808" lon="3.68947">
        <ele>101</ele>
        <time>2015-12-13T10:15:14Z</time>
      </trkpt>
      <trkpt lat="50.75811" lon="3.68944">
        <ele>101</ele>
        <time>2015-12-13T10:15:16Z</time>
      </trkpt>
      <trkpt lat="50.75813" lon="3.68941">
        <ele>101</ele>
        <time>2015-12-13T10:15:18Z</time>
      </trkpt>
      <trkpt lat="50.75815" lon="3.68938">
        <ele>101</ele>
        <time>2015-12-13T10:15:20Z</time>
      </trkpt>
      <trkpt lat="50.75817" lon="3.68934">
        <ele>102</ele>
        <time>2015-12-13T10:15:22Z</time>
      </trkpt>
      <trkpt lat="50.75819" lon="3.68932">
        <ele>102</ele>
        <time>2015-12-13T10:15:24Z</time>
      </trkpt>
      <trkpt lat="50.75821" lon="3.68928">
        <ele>102</ele>
        <time>2015-12-13T10:15:26Z</time>
      </trkpt>
      <trkpt lat="50.75823" lon="3.68925">
        <ele>102</ele>
        <time>2015-12-13T10:15:28Z</time>
      </trkpt>
      <trkpt lat="50.75825" lon="3.68922">
        <ele>102</ele>
        <time>2015-12-13T10:15:30Z</time>
      </trkpt>
      <trkpt lat="50.75828" lon="3.68919">
        <ele>103</ele>
        <time>2015-12-13T10:15:32Z</time>
      </trkpt>
      <trkpt lat="50.7583" lon="3.68915">
        <ele>103</ele>
        <time>2015-12-13T10:15:34Z</time>
      </trkpt>
      <trkpt lat="50.75832" lon="3.68911">
        <ele>103</ele>
        <time>2015-12-13T10:15:36Z</time>
      </trkpt>
      <trkpt lat="50.75834" lon="3.68908">
        <ele>103</ele>
        <time>2015-12-13T10:15:38Z</time>
      </trkpt>
      <trkpt lat="50.75836" lon="3.68904">
        <ele>103</ele>
        <time>2015-12-13T10:15:40Z</time>
      </trkpt>
      <trkpt lat="50.75838" lon="3.68901">
        <ele>103</ele>
        <time>2015-12-13T10:15:42Z</time>
      </trkpt>
      <trkpt lat="50.7584" lon="3.68898">
        <ele>103</ele>
        <time>2015-12-13T10:15:44Z</time>
      </trkpt>
      <trkpt lat="50.75842" lon="3.68894">
        <ele>103</ele>
        <time>2015-12-13T10:15:46Z</time>
      </trkpt>
      <trkpt lat="50.75845" lon="3.68891">
        <ele>103</ele>
        <time>2015-12-13T10:15:48Z</time>
      </trkpt>
      <trkpt lat="50.75847" lon="3.68888">
        <ele>103</ele>
        <time>2015-12-13T10:15:50Z</time>
      </trkpt>
      <trkpt lat="50.75849" lon="3.68884">
        <ele>105</ele>
        <time>2015-12-13T10:15:52Z</time>
      </trkpt>
      <trkpt lat="50.75851" lon="3.68881">
        <ele>105</ele>
        <time>2015-12-13T10:15:54Z</time>
      </trkpt>
      <trkpt lat="50.75853" lon="3.68877">
        <ele>105</ele>
        <time>2015-12-13T10:15:56Z</time>
      </trkpt>
      <trkpt lat="50.75855" lon="3.68874">
        <ele>105</ele>
        <time>2015-12-13T10:15:58Z</time>
      </trkpt>
      <trkpt lat="50.75857" lon="3.68871">
        <ele>105</ele>
        <time>2015-12-13T10:16:00Z</time>
      </trkpt>
      <trkpt lat="50.75859" lon="3.68867">
        <ele>106</ele>
        <time>2015-12-13T10:16:02Z</time>
      </trkpt>
      <trkpt lat="50.75861" lon="3.68864">
        <ele>106</ele>
        <time>2015-12-13T10:16:04Z</time>
      </trkpt>
      <trkpt lat="50.75863" lon="3.68861">
        <ele>106</ele>
        <time>2015-12-13T10:16:06Z</time>
      </trkpt>
      <trkpt lat="50.75865" lon="3.68857">
        <ele>106</ele>
        <time>2015-12-13T10:16:08Z</time>
      </trkpt>
      <trkpt lat="50.75867" lon="3.68854">
        <ele>106</ele>
        <time>2015-12-13T10:16:10Z</time>
      </trkpt>
      <trkpt lat="50.75869" lon="3.68851">
        <ele>107</ele>
        <time>2015-12-13T10:16:12Z</time>
      </trkpt>
      <trkpt lat="50.75871" lon="3.68847">
        <ele>107</ele>
        <time>2015-12-13T10:16:14Z</time>
      </trkpt>
      <trkpt lat="50.75872" lon="3.68843">
        <ele>107</ele>
        <time>2015-12-13T10:16:16Z</time>
      </trkpt>
      <trkpt lat="50.75874" lon="3.68839">
        <ele>107</ele>
        <time>2015-12-13T10:16:18Z</time>
      </trkpt>
      <trkpt lat="50.75876" lon="3.68836">
        <ele>107</ele>
        <time>2015-12-13T10:16:20Z</time>
      </trkpt>
      <trkpt lat="50.75878" lon="3.68833">
        <ele>109</ele>
        <time>2015-12-13T10:16:22Z</time>
      </trkpt>
      <trkpt lat="50.75878" lon="3.6883">
        <ele>109</ele>
        <time>2015-12-13T10:16:24Z</time>
      </trkpt>
      <trkpt lat="50.7588" lon="3.68826">
        <ele>109</ele>
        <time>2015-12-13T10:16:26Z</time>
      </trkpt>
      <trkpt lat="50.75881" lon="3.68823">
        <ele>109</ele>
        <time>2015-12-13T10:16:28Z</time>
      </trkpt>
      <trkpt lat="50.75883" lon="3.68819">
        <ele>109</ele>
        <time>2015-12-13T10:16:30Z</time>
      </trkpt>
      <trkpt lat="50.75885" lon="3.68816">
        <ele>109</ele>
        <time>2015-12-13T10:16:32Z</time>
      </trkpt>
      <trkpt lat="50.75888" lon="3.68813">
        <ele>109</ele>
        <time>2015-12-13T10:16:34Z</time>
      </trkpt>
      <trkpt lat="50.7589" lon="3.68809">
        <ele>109</ele>
        <time>2015-12-13T10:16:36Z</time>
      </trkpt>
      <trkpt lat="50.75891" lon="3.68806">
        <ele>109</ele>
        <time>2015-12-13T10:16:38Z</time>
      </trkpt>
      <trkpt lat="50.75893" lon="3.68802">
        <ele>109</ele>
        <time>2015-12-13T10:16:40Z</time>
      </trkpt>
      <trkpt lat="50.75895" lon="3.68799">
        <ele>111</ele>
        <time>2015-12-13T10:16:42Z</time>
      </trkpt>
      <trkpt lat="50.75897" lon="3.68795">
        <ele>111</ele>
        <time>2015-12-13T10:16:44Z</time>
      </trkpt>
      <trkpt lat="50.75899" lon="3.68792">
        <ele>111</ele>
        <time>2015-12-13T10:16:46Z</time>
      </trkpt>
      <trkpt lat="50.75901" lon="3.68789">
        <ele>111</ele>
        <time>2015-12-13T10:16:48Z</time>
      </trkpt>
      <trkpt lat="50.75903" lon="3.68785">
        <ele>111</ele>
        <time>2015-12-13T10:16:50Z</time>
      </trkpt>
      <trkpt lat="50.75904" lon="3.68781">
        <ele>111</ele>
        <time>2015-12-13T10:16:52Z</time>
      </trkpt>
      <trkpt lat="50.75905" lon="3.68777">
        <ele>111</ele>
        <time>2015-12-13T10:16:54Z</time>
      </trkpt>
      <trkpt lat="50.75905" lon="3.68773">
        <ele>111</ele>
        <time>2015-12-13T10:16:56Z</time>
      </trkpt>
      <trkpt lat="50.75904" lon="3.6877">
        <ele>111</ele>
        <time>2015-12-13T10:16:58Z</time>
      </trkpt>
      <trkpt lat="50.75901" lon="3.68769">
        <ele>111</ele>
        <time>2015-12-13T10:17:00Z</time>
      </trkpt>
      <trkpt lat="50.75899" lon="3.68768">
        <ele>112</ele>
        <time>2015-12-13T10:17:02Z</time>
      </trkpt>
      <trkpt lat="50.75897" lon="3.6877">
        <ele>112</ele>
        <time>2015-12-13T10:17:06Z</time>
      </trkpt>
      <trkpt lat="50.75895" lon="3.6877">
        <ele>112</ele>
        <time>2015-12-13T10:17:08Z</time>
      </trkpt>
      <trkpt lat="50.75892" lon="3.68769">
        <ele>112</ele>
        <time>2015-12-13T10:17:10Z</time>
      </trkpt>
      <trkpt lat="50.75889" lon="3.68768">
        <ele>112</ele>
        <time>2015-12-13T10:17:12Z</time>
      </trkpt>
      <trkpt lat="50.75886" lon="3.68766">
        <ele>112</ele>
        <time>2015-12-13T10:17:14Z</time>
      </trkpt>
      <trkpt lat="50.75883" lon="3.68766">
        <ele>112</ele>
        <time>2015-12-13T10:17:16Z</time>
      </trkpt>
      <trkpt lat="50.7588" lon="3.68765">
        <ele>112</ele>
        <time>2015-12-13T10:17:18Z</time>
      </trkpt>
      <trkpt lat="50.75877" lon="3.68765">
        <ele>112</ele>
        <time>2015-12-13T10:17:20Z</time>
      </trkpt>
      <trkpt lat="50.75874" lon="3.68764">
        <ele>112</ele>
        <time>2015-12-13T10:17:22Z</time>
      </trkpt>
      <trkpt lat="50.75872" lon="3.68763">
        <ele>112</ele>
        <time>2015-12-13T10:17:24Z</time>
      </trkpt>
      <trkpt lat="50.75869" lon="3.68762">
        <ele>112</ele>
        <time>2015-12-13T10:17:26Z</time>
      </trkpt>
      <trkpt lat="50.75866" lon="3.68761">
        <ele>112</ele>
        <time>2015-12-13T10:17:28Z</time>
      </trkpt>
      <trkpt lat="50.75863" lon="3.6876">
        <ele>112</ele>
        <time>2015-12-13T10:17:30Z</time>
      </trkpt>
      <trkpt lat="50.7586" lon="3.68759">
        <ele>112</ele>
        <time>2015-12-13T10:17:32Z</time>
      </trkpt>
      <trkpt lat="50.75857" lon="3.68758">
        <ele>112</ele>
        <time>2015-12-13T10:17:34Z</time>
      </trkpt>
      <trkpt lat="50.75854" lon="3.68758">
        <ele>112</ele>
        <time>2015-12-13T10:17:36Z</time>
      </trkpt>
      <trkpt lat="50.7585" lon="3.68756">
        <ele>112</ele>
        <time>2015-12-13T10:17:38Z</time>
      </trkpt>
      <trkpt lat="50.75848" lon="3.68756">
        <ele>112</ele>
        <time>2015-12-13T10:17:40Z</time>
      </trkpt>
      <trkpt lat="50.75845" lon="3.68756">
        <ele>111</ele>
        <time>2015-12-13T10:17:42Z</time>
      </trkpt>
      <trkpt lat="50.75842" lon="3.68755">
        <ele>111</ele>
        <time>2015-12-13T10:17:43Z</time>
      </trkpt>
      <trkpt lat="50.7584" lon="3.68755">
        <ele>111</ele>
        <time>2015-12-13T10:17:44Z</time>
      </trkpt>
      <trkpt lat="50.75838" lon="3.68754">
        <ele>111</ele>
        <time>2015-12-13T10:17:45Z</time>
      </trkpt>
      <trkpt lat="50.75835" lon="3.68754">
        <ele>111</ele>
        <time>2015-12-13T10:17:46Z</time>
      </trkpt>
      <trkpt lat="50.75832" lon="3.68754">
        <ele>111</ele>
        <time>2015-12-13T10:17:47Z</time>
      </trkpt>
      <trkpt lat="50.7583" lon="3.68753">
        <ele>111</ele>
        <time>2015-12-13T10:17:48Z</time>
      </trkpt>
      <trkpt lat="50.75827" lon="3.68753">
        <ele>111</ele>
        <time>2015-12-13T10:17:49Z</time>
      </trkpt>
      <trkpt lat="50.75825" lon="3.68752">
        <ele>111</ele>
        <time>2015-12-13T10:17:50Z</time>
      </trkpt>
      <trkpt lat="50.75823" lon="3.68752">
        <ele>111</ele>
        <time>2015-12-13T10:17:51Z</time>
      </trkpt>
      <trkpt lat="50.7582" lon="3.68752">
        <ele>111</ele>
        <time>2015-12-13T10:17:52Z</time>
      </trkpt>
      <trkpt lat="50.75818" lon="3.68751">
        <ele>111</ele>
        <time>2015-12-13T10:17:53Z</time>
      </trkpt>
      <trkpt lat="50.75815" lon="3.68751">
        <ele>111</ele>
        <time>2015-12-13T10:17:54Z</time>
      </trkpt>
      <trkpt lat="50.75813" lon="3.68751">
        <ele>111</ele>
        <time>2015-12-13T10:17:55Z</time>
      </trkpt>
      <trkpt lat="50.7581" lon="3.68751">
        <ele>111</ele>
        <time>2015-12-13T10:17:56Z</time>
      </trkpt>
      <trkpt lat="50.75808" lon="3.68751">
        <ele>111</ele>
        <time>2015-12-13T10:17:57Z</time>
      </trkpt>
      <trkpt lat="50.75805" lon="3.68751">
        <ele>111</ele>
        <time>2015-12-13T10:17:58Z</time>
      </trkpt>
      <trkpt lat="50.75803" lon="3.6875">
        <ele>111</ele>
        <time>2015-12-13T10:17:59Z</time>
      </trkpt>
      <trkpt lat="50.758" lon="3.6875">
        <ele>111</ele>
        <time>2015-12-13T10:18:00Z</time>
      </trkpt>
      <trkpt lat="50.75798" lon="3.6875">
        <ele>109.6</ele>
        <time>2015-12-13T10:18:01Z</time>
      </trkpt>
      <trkpt lat="50.75795" lon="3.6875">
        <ele>109</ele>
        <time>2015-12-13T10:18:02Z</time>
      </trkpt>
      <trkpt lat="50.75793" lon="3.6875">
        <ele>109</ele>
        <time>2015-12-13T10:18:03Z</time>
      </trkpt>
      <trkpt lat="50.7579" lon="3.6875">
        <ele>109</ele>
        <time>2015-12-13T10:18:04Z</time>
      </trkpt>
      <trkpt lat="50.75788" lon="3.6875">
        <ele>109</ele>
        <time>2015-12-13T10:18:05Z</time>
      </trkpt>
      <trkpt lat="50.75785" lon="3.68751">
        <ele>109</ele>
        <time>2015-12-13T10:18:06Z</time>
      </trkpt>
      <trkpt lat="50.75782" lon="3.68751">
        <ele>109</ele>
        <time>2015-12-13T10:18:07Z</time>
      </trkpt>
      <trkpt lat="50.7578" lon="3.68751">
        <ele>109</ele>
        <time>2015-12-13T10:18:08Z</time>
      </trkpt>
      <trkpt lat="50.75777" lon="3.68752">
        <ele>109</ele>
        <time>2015-12-13T10:18:09Z</time>
      </trkpt>
      <trkpt lat="50.75775" lon="3.68752">
        <ele>109</ele>
        <time>2015-12-13T10:18:10Z</time>
      </trkpt>
      <trkpt lat="50.75772" lon="3.68752">
        <ele>109</ele>
        <time>2015-12-13T10:18:11Z</time>
      </trkpt>
      <trkpt lat="50.7577" lon="3.68753">
        <ele>109</ele>
        <time>2015-12-13T10:18:12Z</time>
      </trkpt>
      <trkpt lat="50.75768" lon="3.68753">
        <ele>109</ele>
        <time>2015-12-13T10:18:13Z</time>
      </trkpt>
      <trkpt lat="50.75765" lon="3.68754">
        <ele>109</ele>
        <time>2015-12-13T10:18:14Z</time>
      </trkpt>
      <trkpt lat="50.75763" lon="3.68755">
        <ele>109</ele>
        <time>2015-12-13T10:18:15Z</time>
      </trkpt>
      <trkpt lat="50.7576" lon="3.68756">
        <ele>109</ele>
        <time>2015-12-13T10:18:16Z</time>
      </trkpt>
      <trkpt lat="50.75758" lon="3.68757">
        <ele>109</ele>
        <time>2015-12-13T10:18:17Z</time>
      </trkpt>
      <trkpt lat="50.75755" lon="3.68758">
        <ele>109</ele>
        <time>2015-12-13T10:18:18Z</time>
      </trkpt>
      <trkpt lat="50.75753" lon="3.68759">
        <ele>109</ele>
        <time>2015-12-13T10:18:19Z</time>
      </trkpt>
      <trkpt lat="50.75751" lon="3.68761">
        <ele>109</ele>
        <time>2015-12-13T10:18:20Z</time>
      </trkpt>
      <trkpt lat="50.75748" lon="3.68762">
        <ele>109</ele>
        <time>2015-12-13T10:18:21Z</time>
      </trkpt>
      <trkpt lat="50.75746" lon="3.68764">
        <ele>109</ele>
        <time>2015-12-13T10:18:22Z</time>
      </trkpt>
      <trkpt lat="50.75744" lon="3.68766">
        <ele>109</ele>
        <time>2015-12-13T10:18:23Z</time>
      </trkpt>
      <trkpt lat="50.75743" lon="3.68768">
        <ele>109</ele>
        <time>2015-12-13T10:18:24Z</time>
      </trkpt>
      <trkpt lat="50.75741" lon="3.6877">
        <ele>109</ele>
        <time>2015-12-13T10:18:25Z</time>
      </trkpt>
      <trkpt lat="50.75739" lon="3.68772">
        <ele>109</ele>
        <time>2015-12-13T10:18:26Z</time>
      </trkpt>
      <trkpt lat="50.75737" lon="3.68774">
        <ele>109</ele>
        <time>2015-12-13T10:18:27Z</time>
      </trkpt>
      <trkpt lat="50.75735" lon="3.68776">
        <ele>109</ele>
        <time>2015-12-13T10:18:28Z</time>
      </trkpt>
      <trkpt lat="50.75732" lon="3.68779">
        <ele>109</ele>
        <time>2015-12-13T10:18:29Z</time>
      </trkpt>
      <trkpt lat="50.7573" lon="3.68781">
        <ele>109</ele>
        <time>2015-12-13T10:18:30Z</time>
      </trkpt>
      <trkpt lat="50.75728" lon="3.68782">
        <ele>109</ele>
        <time>2015-12-13T10:18:31Z</time>
      </trkpt>
      <trkpt lat="50.75726" lon="3.68784">
        <ele>109</ele>
        <time>2015-12-13T10:18:32Z</time>
      </trkpt>
      <trkpt lat="50.75724" lon="3.68786">
        <ele>109</ele>
        <time>2015-12-13T10:18:33Z</time>
      </trkpt>
      <trkpt lat="50.75722" lon="3.68788">
        <ele>109</ele>
        <time>2015-12-13T10:18:34Z</time>
      </trkpt>
      <trkpt lat="50.7572" lon="3.6879">
        <ele>109</ele>
        <time>2015-12-13T10:18:35Z</time>
      </trkpt>
      <trkpt lat="50.75718" lon="3.68792">
        <ele>109</ele>
        <time>2015-12-13T10:18:36Z</time>
      </trkpt>
      <trkpt lat="50.75716" lon="3.68793">
        <ele>109</ele>
        <time>2015-12-13T10:18:37Z</time>
      </trkpt>
      <trkpt lat="50.75714" lon="3.68795">
        <ele>109</ele>
        <time>2015-12-13T10:18:38Z</time>
      </trkpt>
      <trkpt lat="50.75712" lon="3.68797">
        <ele>109</ele>
        <time>2015-12-13T10:18:39Z</time>
      </trkpt>
      <trkpt lat="50.7571" lon="3.688">
        <ele>109</ele>
        <time>2015-12-13T10:18:40Z</time>
      </trkpt>
      <trkpt lat="50.75708" lon="3.68802">
        <ele>107.6</ele>
        <time>2015-12-13T10:18:41Z</time>
      </trkpt>
      <trkpt lat="50.75706" lon="3.68804">
        <ele>107</ele>
        <time>2015-12-13T10:18:42Z</time>
      </trkpt>
      <trkpt lat="50.75704" lon="3.68805">
        <ele>107</ele>
        <time>2015-12-13T10:18:43Z</time>
      </trkpt>
      <trkpt lat="50.75702" lon="3.68807">
        <ele>107</ele>
        <time>2015-12-13T10:18:44Z</time>
      </trkpt>
      <trkpt lat="50.757" lon="3.68809">
        <ele>107</ele>
        <time>2015-12-13T10:18:45Z</time>
      </trkpt>
      <trkpt lat="50.75698" lon="3.6881">
        <ele>107</ele>
        <time>2015-12-13T10:18:46Z</time>
      </trkpt>
      <trkpt lat="50.75697" lon="3.68812">
        <ele>107</ele>
        <time>2015-12-13T10:18:47Z</time>
      </trkpt>
      <trkpt lat="50.75694" lon="3.68815">
        <ele>107</ele>
        <time>2015-12-13T10:18:48Z</time>
      </trkpt>
      <trkpt lat="50.75692" lon="3.68817">
        <ele>107</ele>
        <time>2015-12-13T10:18:49Z</time>
      </trkpt>
      <trkpt lat="50.7569" lon="3.68819">
        <ele>107</ele>
        <time>2015-12-13T10:18:50Z</time>
      </trkpt>
      <trkpt lat="50.75689" lon="3.68821">
        <ele>106.3</ele>
        <time>2015-12-13T10:18:51Z</time>
      </trkpt>
      <trkpt lat="50.75686" lon="3.68824">
        <ele>106</ele>
        <time>2015-12-13T10:18:52Z</time>
      </trkpt>
      <trkpt lat="50.75684" lon="3.68826">
        <ele>106</ele>
        <time>2015-12-13T10:18:53Z</time>
      </trkpt>
      <trkpt lat="50.75682" lon="3.68828">
        <ele>106</ele>
        <time>2015-12-13T10:18:54Z</time>
      </trkpt>
      <trkpt lat="50.7568" lon="3.6883">
        <ele>106</ele>
        <time>2015-12-13T10:18:55Z</time>
      </trkpt>
      <trkpt lat="50.75677" lon="3.68831">
        <ele>106</ele>
        <time>2015-12-13T10:18:56Z</time>
      </trkpt>
      <trkpt lat="50.75675" lon="3.68833">
        <ele>106</ele>
        <time>2015-12-13T10:18:57Z</time>
      </trkpt>
      <trkpt lat="50.75672" lon="3.68835">
        <ele>106</ele>
        <time>2015-12-13T10:18:58Z</time>
      </trkpt>
      <trkpt lat="50.7567" lon="3.68837">
        <ele>106</ele>
        <time>2015-12-13T10:18:59Z</time>
      </trkpt>
      <trkpt lat="50.75668" lon="3.68838">
        <ele>106</ele>
        <time>2015-12-13T10:19:00Z</time>
      </trkpt>
      <trkpt lat="50.75665" lon="3.6884">
        <ele>103.3</ele>
        <time>2015-12-13T10:19:01Z</time>
      </trkpt>
      <trkpt lat="50.75662" lon="3.68842">
        <ele>102</ele>
        <time>2015-12-13T10:19:02Z</time>
      </trkpt>
      <trkpt lat="50.75659" lon="3.68844">
        <ele>102</ele>
        <time>2015-12-13T10:19:03Z</time>
      </trkpt>
      <trkpt lat="50.75657" lon="3.68846">
        <ele>102</ele>
        <time>2015-12-13T10:19:04Z</time>
      </trkpt>
      <trkpt lat="50.75655" lon="3.68848">
        <ele>102</ele>
        <time>2015-12-13T10:19:05Z</time>
      </trkpt>
      <trkpt lat="50.75653" lon="3.68849">
        <ele>102</ele>
        <time>2015-12-13T10:19:06Z</time>
      </trkpt>
      <trkpt lat="50.7565" lon="3.68851">
        <ele>102</ele>
        <time>2015-12-13T10:19:07Z</time>
      </trkpt>
      <trkpt lat="50.75648" lon="3.68852">
        <ele>102</ele>
        <time>2015-12-13T10:19:08Z</time>
      </trkpt>
      <trkpt lat="50.75646" lon="3.68854">
        <ele>102</ele>
        <time>2015-12-13T10:19:09Z</time>
      </trkpt>
      <trkpt lat="50.75643" lon="3.68855">
        <ele>102</ele>
        <time>2015-12-13T10:19:10Z</time>
      </trkpt>
      <trkpt lat="50.75641" lon="3.68856">
        <ele>101.3</ele>
        <time>2015-12-13T10:19:11Z</time>
      </trkpt>
      <trkpt lat="50.75639" lon="3.68857">
        <ele>101</ele>
        <time>2015-12-13T10:19:12Z</time>
      </trkpt>
      <trkpt lat="50.75637" lon="3.68858">
        <ele>101</ele>
        <time>2015-12-13T10:19:13Z</time>
      </trkpt>
      <trkpt lat="50.75635" lon="3.68859">
        <ele>101</ele>
        <time>2015-12-13T10:19:14Z</time>
      </trkpt>
      <trkpt lat="50.75633" lon="3.68861">
        <ele>101</ele>
        <time>2015-12-13T10:19:15Z</time>
      </trkpt>
      <trkpt lat="50.75631" lon="3.68862">
        <ele>101</ele>
        <time>2015-12-13T10:19:16Z</time>
      </trkpt>
      <trkpt lat="50.75628" lon="3.68863">
        <ele>101</ele>
        <time>2015-12-13T10:19:17Z</time>
      </trkpt>
      <trkpt lat="50.75625" lon="3.68865">
        <ele>101</ele>
        <time>2015-12-13T10:19:18Z</time>
      </trkpt>
      <trkpt lat="50.75623" lon="3.68865">
        <ele>101</ele>
        <time>2015-12-13T10:19:19Z</time>
      </trkpt>
      <trkpt lat="50.7562" lon="3.68866">
        <ele>101</ele>
        <time>2015-12-13T10:19:20Z</time>
      </trkpt>
      <trkpt lat="50.75618" lon="3.68867">
        <ele>99.6</ele>
        <time>2015-12-13T10:19:21Z</time>
      </trkpt>
      <trkpt lat="50.75615" lon="3.68868">
        <ele>99</ele>
        <time>2015-12-13T10:19:22Z</time>
      </trkpt>
      <trkpt lat="50.75613" lon="3.6887">
        <ele>99</ele>
        <time>2015-12-13T10:19:23Z</time>
      </trkpt>
      <trkpt lat="50.75611" lon="3.68871">
        <ele>99</ele>
        <time>2015-12-13T10:19:24Z</time>
      </trkpt>
      <trkpt lat="50.75609" lon="3.68873">
        <ele>99</ele>
        <time>2015-12-13T10:19:25Z</time>
      </trkpt>
      <trkpt lat="50.75606" lon="3.68874">
        <ele>98.3</ele>
        <time>2015-12-13T10:19:26Z</time>
      </trkpt>
      <trkpt lat="50.75604" lon="3.68874">
        <ele>98</ele>
        <time>2015-12-13T10:19:27Z</time>
      </trkpt>
      <trkpt lat="50.75601" lon="3.68876">
        <ele>98</ele>
        <time>2015-12-13T10:19:28Z</time>
      </trkpt>
      <trkpt lat="50.75599" lon="3.68876">
        <ele>98</ele>
        <time>2015-12-13T10:19:29Z</time>
      </trkpt>
      <trkpt lat="50.75596" lon="3.68877">
        <ele>98</ele>
        <time>2015-12-13T10:19:30Z</time>
      </trkpt>
      <trkpt lat="50.75593" lon="3.68878">
        <ele>97.3</ele>
        <time>2015-12-13T10:19:31Z</time>
      </trkpt>
      <trkpt lat="50.75591" lon="3.68879">
        <ele>97</ele>
        <time>2015-12-13T10:19:32Z</time>
      </trkpt>
      <trkpt lat="50.75588" lon="3.68879">
        <ele>97</ele>
        <time>2015-12-13T10:19:33Z</time>
      </trkpt>
      <trkpt lat="50.75586" lon="3.68879">
        <ele>97</ele>
        <time>2015-12-13T10:19:34Z</time>
      </trkpt>
      <trkpt lat="50.75584" lon="3.6888">
        <ele>97</ele>
        <time>2015-12-13T10:19:35Z</time>
      </trkpt>
      <trkpt lat="50.75581" lon="3.6888">
        <ele>97</ele>
        <time>2015-12-13T10:19:36Z</time>
      </trkpt>
      <trkpt lat="50.75579" lon="3.68881">
        <ele>97</ele>
        <time>2015-12-13T10:19:37Z</time>
      </trkpt>
      <trkpt lat="50.75577" lon="3.68882">
        <ele>97</ele>
        <time>2015-12-13T10:19:38Z</time>
      </trkpt>
      <trkpt lat="50.75574" lon="3.68882">
        <ele>97</ele>
        <time>2015-12-13T10:19:40Z</time>
      </trkpt>
      <trkpt lat="50.75571" lon="3.68882">
        <ele>96</ele>
        <time>2015-12-13T10:19:42Z</time>
      </trkpt>
      <trkpt lat="50.7557" lon="3.68877">
        <ele>96</ele>
        <time>2015-12-13T10:19:44Z</time>
      </trkpt>
      <trkpt lat="50.7557" lon="3.68873">
        <ele>96</ele>
        <time>2015-12-13T10:19:45Z</time>
      </trkpt>
      <trkpt lat="50.75569" lon="3.68869">
        <ele>96</ele>
        <time>2015-12-13T10:19:46Z</time>
      </trkpt>
      <trkpt lat="50.75569" lon="3.68865">
        <ele>96</ele>
        <time>2015-12-13T10:19:47Z</time>
      </trkpt>
      <trkpt lat="50.75569" lon="3.68861">
        <ele>96</ele>
        <time>2015-12-13T10:19:48Z</time>
      </trkpt>
      <trkpt lat="50.75568" lon="3.68857">
        <ele>96</ele>
        <time>2015-12-13T10:19:49Z</time>
      </trkpt>
      <trkpt lat="50.75568" lon="3.68853">
        <ele>96</ele>
        <time>2015-12-13T10:19:50Z</time>
      </trkpt>
      <trkpt lat="50.75567" lon="3.68849">
        <ele>94.6</ele>
        <time>2015-12-13T10:19:51Z</time>
      </trkpt>
      <trkpt lat="50.75566" lon="3.68846">
        <ele>94</ele>
        <time>2015-12-13T10:19:52Z</time>
      </trkpt>
      <trkpt lat="50.75566" lon="3.68843">
        <ele>94</ele>
        <time>2015-12-13T10:19:53Z</time>
      </trkpt>
      <trkpt lat="50.75564" lon="3.68838">
        <ele>94</ele>
        <time>2015-12-13T10:19:55Z</time>
      </trkpt>
      <trkpt lat="50.75562" lon="3.68836">
        <ele>94</ele>
        <time>2015-12-13T10:19:56Z</time>
      </trkpt>
      <trkpt lat="50.7556" lon="3.68834">
        <ele>94</ele>
        <time>2015-12-13T10:19:58Z</time>
      </trkpt>
      <trkpt lat="50.75559" lon="3.68829">
        <ele>94</ele>
        <time>2015-12-13T10:20:00Z</time>
      </trkpt>
      <trkpt lat="50.75558" lon="3.68825">
        <ele>92</ele>
        <time>2015-12-13T10:20:02Z</time>
      </trkpt>
      <trkpt lat="50.75557" lon="3.68822">
        <ele>92</ele>
        <time>2015-12-13T10:20:04Z</time>
      </trkpt>
      <trkpt lat="50.75557" lon="3.68819">
        <ele>92</ele>
        <time>2015-12-13T10:20:06Z</time>
      </trkpt>
      <trkpt lat="50.75555" lon="3.68809">
        <ele>92</ele>
        <time>2015-12-13T10:20:23Z</time>
      </trkpt>
      <trkpt lat="50.75554" lon="3.68806">
        <ele>92</ele>
        <time>2015-12-13T10:20:25Z</time>
      </trkpt>
      <trkpt lat="50.75552" lon="3.68801">
        <ele>92</ele>
        <time>2015-12-13T10:20:27Z</time>
      </trkpt>
      <trkpt lat="50.75551" lon="3.68796">
        <ele>92</ele>
        <time>2015-12-13T10:20:29Z</time>
      </trkpt>
      <trkpt lat="50.75551" lon="3.68793">
        <ele>91</ele>
        <time>2015-12-13T10:20:33Z</time>
      </trkpt>
      <trkpt lat="50.75552" lon="3.68789">
        <ele>91</ele>
        <time>2015-12-13T10:20:35Z</time>
      </trkpt>
      <trkpt lat="50.75553" lon="3.68784">
        <ele>91</ele>
        <time>2015-12-13T10:20:37Z</time>
      </trkpt>
      <trkpt lat="50.75554" lon="3.68781">
        <ele>91</ele>
        <time>2015-12-13T10:20:38Z</time>
      </trkpt>
      <trkpt lat="50.75555" lon="3.68778">
        <ele>91</ele>
        <time>2015-12-13T10:20:39Z</time>
      </trkpt>
      <trkpt lat="50.75556" lon="3.68776">
        <ele>91</ele>
        <time>2015-12-13T10:20:40Z</time>
      </trkpt>
      <trkpt lat="50.75557" lon="3.68773">
        <ele>90.3</ele>
        <time>2015-12-13T10:20:41Z</time>
      </trkpt>
      <trkpt lat="50.75558" lon="3.6877">
        <ele>90</ele>
        <time>2015-12-13T10:20:42Z</time>
      </trkpt>
      <trkpt lat="50.75559" lon="3.68768">
        <ele>90</ele>
        <time>2015-12-13T10:20:43Z</time>
      </trkpt>
      <trkpt lat="50.75561" lon="3.68763">
        <ele>90</ele>
        <time>2015-12-13T10:20:45Z</time>
      </trkpt>
      <trkpt lat="50.75562" lon="3.6876">
        <ele>90</ele>
        <time>2015-12-13T10:20:46Z</time>
      </trkpt>
      <trkpt lat="50.75563" lon="3.68757">
        <ele>90</ele>
        <time>2015-12-13T10:20:47Z</time>
      </trkpt>
      <trkpt lat="50.75564" lon="3.68755">
        <ele>90</ele>
        <time>2015-12-13T10:20:48Z</time>
      </trkpt>
      <trkpt lat="50.75566" lon="3.68752">
        <ele>90</ele>
        <time>2015-12-13T10:20:49Z</time>
      </trkpt>
      <trkpt lat="50.75567" lon="3.68749">
        <ele>90</ele>
        <time>2015-12-13T10:20:50Z</time>
      </trkpt>
      <trkpt lat="50.75568" lon="3.68746">
        <ele>90</ele>
        <time>2015-12-13T10:20:51Z</time>
      </trkpt>
      <trkpt lat="50.75569" lon="3.68743">
        <ele>90</ele>
        <time>2015-12-13T10:20:52Z</time>
      </trkpt>
      <trkpt lat="50.75571" lon="3.6874">
        <ele>90</ele>
        <time>2015-12-13T10:20:53Z</time>
      </trkpt>
      <trkpt lat="50.75572" lon="3.68737">
        <ele>90</ele>
        <time>2015-12-13T10:20:54Z</time>
      </trkpt>
      <trkpt lat="50.75573" lon="3.68734">
        <ele>90</ele>
        <time>2015-12-13T10:20:55Z</time>
      </trkpt>
      <trkpt lat="50.75575" lon="3.68732">
        <ele>90</ele>
        <time>2015-12-13T10:20:56Z</time>
      </trkpt>
      <trkpt lat="50.75576" lon="3.68729">
        <ele>90</ele>
        <time>2015-12-13T10:20:57Z</time>
      </trkpt>
      <trkpt lat="50.75577" lon="3.68726">
        <ele>90</ele>
        <time>2015-12-13T10:20:58Z</time>
      </trkpt>
      <trkpt lat="50.75578" lon="3.68723">
        <ele>90</ele>
        <time>2015-12-13T10:20:59Z</time>
      </trkpt>
      <trkpt lat="50.7558" lon="3.6872">
        <ele>90</ele>
        <time>2015-12-13T10:21:00Z</time>
      </trkpt>
      <trkpt lat="50.75581" lon="3.68718">
        <ele>90</ele>
        <time>2015-12-13T10:21:01Z</time>
      </trkpt>
      <trkpt lat="50.75582" lon="3.68715">
        <ele>90</ele>
        <time>2015-12-13T10:21:02Z</time>
      </trkpt>
      <trkpt lat="50.75584" lon="3.68711">
        <ele>90</ele>
        <time>2015-12-13T10:21:04Z</time>
      </trkpt>
      <trkpt lat="50.75586" lon="3.68706">
        <ele>90</ele>
        <time>2015-12-13T10:21:06Z</time>
      </trkpt>
      <trkpt lat="50.75587" lon="3.68701">
        <ele>90</ele>
        <time>2015-12-13T10:21:08Z</time>
      </trkpt>
      <trkpt lat="50.75588" lon="3.68697">
        <ele>90</ele>
        <time>2015-12-13T10:21:10Z</time>
      </trkpt>
      <trkpt lat="50.75587" lon="3.68694">
        <ele>91</ele>
        <time>2015-12-13T10:21:12Z</time>
      </trkpt>
      <trkpt lat="50.75585" lon="3.68693">
        <ele>91</ele>
        <time>2015-12-13T10:21:13Z</time>
      </trkpt>
      <trkpt lat="50.75583" lon="3.68691">
        <ele>91</ele>
        <time>2015-12-13T10:21:14Z</time>
      </trkpt>
      <trkpt lat="50.75582" lon="3.68689">
        <ele>91</ele>
        <time>2015-12-13T10:21:15Z</time>
      </trkpt>
      <trkpt lat="50.7558" lon="3.68688">
        <ele>91</ele>
        <time>2015-12-13T10:21:16Z</time>
      </trkpt>
      <trkpt lat="50.75578" lon="3.68686">
        <ele>91</ele>
        <time>2015-12-13T10:21:17Z</time>
      </trkpt>
      <trkpt lat="50.75576" lon="3.68685">
        <ele>91</ele>
        <time>2015-12-13T10:21:18Z</time>
      </trkpt>
      <trkpt lat="50.75574" lon="3.68684">
        <ele>91</ele>
        <time>2015-12-13T10:21:19Z</time>
      </trkpt>
      <trkpt lat="50.75571" lon="3.68682">
        <ele>91</ele>
        <time>2015-12-13T10:21:20Z</time>
      </trkpt>
      <trkpt lat="50.75569" lon="3.6868">
        <ele>89.6</ele>
        <time>2015-12-13T10:21:21Z</time>
      </trkpt>
      <trkpt lat="50.75567" lon="3.68679">
        <ele>89</ele>
        <time>2015-12-13T10:21:22Z</time>
      </trkpt>
      <trkpt lat="50.75565" lon="3.68677">
        <ele>89</ele>
        <time>2015-12-13T10:21:23Z</time>
      </trkpt>
      <trkpt lat="50.75563" lon="3.68675">
        <ele>89</ele>
        <time>2015-12-13T10:21:24Z</time>
      </trkpt>
      <trkpt lat="50.75561" lon="3.68673">
        <ele>89</ele>
        <time>2015-12-13T10:21:25Z</time>
      </trkpt>
      <trkpt lat="50.75559" lon="3.68671">
        <ele>89</ele>
        <time>2015-12-13T10:21:26Z</time>
      </trkpt>
      <trkpt lat="50.75557" lon="3.6867">
        <ele>89</ele>
        <time>2015-12-13T10:21:27Z</time>
      </trkpt>
      <trkpt lat="50.75555" lon="3.68668">
        <ele>89</ele>
        <time>2015-12-13T10:21:28Z</time>
      </trkpt>
      <trkpt lat="50.75553" lon="3.68666">
        <ele>89</ele>
        <time>2015-12-13T10:21:29Z</time>
      </trkpt>
      <trkpt lat="50.75551" lon="3.68664">
        <ele>89</ele>
        <time>2015-12-13T10:21:30Z</time>
      </trkpt>
      <trkpt lat="50.75549" lon="3.68663">
        <ele>87.6</ele>
        <time>2015-12-13T10:21:31Z</time>
      </trkpt>
      <trkpt lat="50.75546" lon="3.68661">
        <ele>87</ele>
        <time>2015-12-13T10:21:32Z</time>
      </trkpt>
      <trkpt lat="50.75544" lon="3.6866">
        <ele>87</ele>
        <time>2015-12-13T10:21:33Z</time>
      </trkpt>
      <trkpt lat="50.75543" lon="3.68657">
        <ele>87</ele>
        <time>2015-12-13T10:21:34Z</time>
      </trkpt>
      <trkpt lat="50.75541" lon="3.68655">
        <ele>87</ele>
        <time>2015-12-13T10:21:35Z</time>
      </trkpt>
      <trkpt lat="50.75539" lon="3.68653">
        <ele>86.5</ele>
        <time>2015-12-13T10:21:36Z</time>
      </trkpt>
      <trkpt lat="50.75537" lon="3.68651">
        <ele>86</ele>
        <time>2015-12-13T10:21:37Z</time>
      </trkpt>
      <trkpt lat="50.75535" lon="3.68648">
        <ele>86</ele>
        <time>2015-12-13T10:21:39Z</time>
      </trkpt>
      <trkpt lat="50.75532" lon="3.68645">
        <ele>86.7</ele>
        <time>2015-12-13T10:21:41Z</time>
      </trkpt>
      <trkpt lat="50.7553" lon="3.68642">
        <ele>87</ele>
        <time>2015-12-13T10:21:43Z</time>
      </trkpt>
      <trkpt lat="50.75528" lon="3.6864">
        <ele>87</ele>
        <time>2015-12-13T10:21:45Z</time>
      </trkpt>
      <trkpt lat="50.75526" lon="3.68638">
        <ele>87</ele>
        <time>2015-12-13T10:21:47Z</time>
      </trkpt>
      <trkpt lat="50.75524" lon="3.68636">
        <ele>87</ele>
        <time>2015-12-13T10:21:49Z</time>
      </trkpt>
      <trkpt lat="50.75522" lon="3.68632">
        <ele>87.7</ele>
        <time>2015-12-13T10:21:51Z</time>
      </trkpt>
      <trkpt lat="50.7552" lon="3.6863">
        <ele>88</ele>
        <time>2015-12-13T10:21:53Z</time>
      </trkpt>
      <trkpt lat="50.75518" lon="3.68628">
        <ele>88</ele>
        <time>2015-12-13T10:21:55Z</time>
      </trkpt>
      <trkpt lat="50.75516" lon="3.68626">
        <ele>88</ele>
        <time>2015-12-13T10:21:57Z</time>
      </trkpt>
      <trkpt lat="50.75515" lon="3.68623">
        <ele>88</ele>
        <time>2015-12-13T10:21:59Z</time>
      </trkpt>
      <trkpt lat="50.75513" lon="3.6862">
        <ele>90</ele>
        <time>2015-12-13T10:22:01Z</time>
      </trkpt>
      <trkpt lat="50.75511" lon="3.68617">
        <ele>91</ele>
        <time>2015-12-13T10:22:03Z</time>
      </trkpt>
      <trkpt lat="50.75509" lon="3.68615">
        <ele>91</ele>
        <time>2015-12-13T10:22:05Z</time>
      </trkpt>
      <trkpt lat="50.75507" lon="3.68613">
        <ele>92</ele>
        <time>2015-12-13T10:22:07Z</time>
      </trkpt>
      <trkpt lat="50.75504" lon="3.6861">
        <ele>92</ele>
        <time>2015-12-13T10:22:09Z</time>
      </trkpt>
      <trkpt lat="50.75502" lon="3.68607">
        <ele>92</ele>
        <time>2015-12-13T10:22:11Z</time>
      </trkpt>
      <trkpt lat="50.75499" lon="3.68604">
        <ele>92</ele>
        <time>2015-12-13T10:22:13Z</time>
      </trkpt>
      <trkpt lat="50.75497" lon="3.68602">
        <ele>92</ele>
        <time>2015-12-13T10:22:15Z</time>
      </trkpt>
      <trkpt lat="50.75495" lon="3.68599">
        <ele>92</ele>
        <time>2015-12-13T10:22:17Z</time>
      </trkpt>
      <trkpt lat="50.75494" lon="3.68595">
        <ele>92</ele>
        <time>2015-12-13T10:22:19Z</time>
      </trkpt>
      <trkpt lat="50.75493" lon="3.68591">
        <ele>92.7</ele>
        <time>2015-12-13T10:22:21Z</time>
      </trkpt>
      <trkpt lat="50.75493" lon="3.68586">
        <ele>93</ele>
        <time>2015-12-13T10:22:23Z</time>
      </trkpt>
      <trkpt lat="50.75493" lon="3.68581">
        <ele>93</ele>
        <time>2015-12-13T10:22:25Z</time>
      </trkpt>
      <trkpt lat="50.75494" lon="3.68577">
        <ele>93</ele>
        <time>2015-12-13T10:22:27Z</time>
      </trkpt>
      <trkpt lat="50.75496" lon="3.68574">
        <ele>93</ele>
        <time>2015-12-13T10:22:29Z</time>
      </trkpt>
      <trkpt lat="50.75497" lon="3.6857">
        <ele>93.7</ele>
        <time>2015-12-13T10:22:31Z</time>
      </trkpt>
      <trkpt lat="50.75499" lon="3.68565">
        <ele>94</ele>
        <time>2015-12-13T10:22:33Z</time>
      </trkpt>
      <trkpt lat="50.755" lon="3.68561">
        <ele>94</ele>
        <time>2015-12-13T10:22:35Z</time>
      </trkpt>
      <trkpt lat="50.75501" lon="3.68557">
        <ele>94</ele>
        <time>2015-12-13T10:22:37Z</time>
      </trkpt>
      <trkpt lat="50.75501" lon="3.68553">
        <ele>94</ele>
        <time>2015-12-13T10:22:39Z</time>
      </trkpt>
      <trkpt lat="50.75502" lon="3.68549">
        <ele>94.7</ele>
        <time>2015-12-13T10:22:41Z</time>
      </trkpt>
      <trkpt lat="50.75503" lon="3.68544">
        <ele>95</ele>
        <time>2015-12-13T10:22:43Z</time>
      </trkpt>
      <trkpt lat="50.75504" lon="3.6854">
        <ele>95</ele>
        <time>2015-12-13T10:22:45Z</time>
      </trkpt>
      <trkpt lat="50.75505" lon="3.68535">
        <ele>95</ele>
        <time>2015-12-13T10:22:47Z</time>
      </trkpt>
      <trkpt lat="50.75507" lon="3.68531">
        <ele>95</ele>
        <time>2015-12-13T10:22:49Z</time>
      </trkpt>
      <trkpt lat="50.75508" lon="3.68527">
        <ele>96.4</ele>
        <time>2015-12-13T10:22:51Z</time>
      </trkpt>
      <trkpt lat="50.75509" lon="3.68523">
        <ele>97</ele>
        <time>2015-12-13T10:22:53Z</time>
      </trkpt>
      <trkpt lat="50.7551" lon="3.68519">
        <ele>97</ele>
        <time>2015-12-13T10:22:55Z</time>
      </trkpt>
      <trkpt lat="50.75511" lon="3.68516">
        <ele>97</ele>
        <time>2015-12-13T10:22:57Z</time>
      </trkpt>
      <trkpt lat="50.75512" lon="3.68512">
        <ele>97</ele>
        <time>2015-12-13T10:22:59Z</time>
      </trkpt>
      <trkpt lat="50.75513" lon="3.68508">
        <ele>97</ele>
        <time>2015-12-13T10:23:01Z</time>
      </trkpt>
      <trkpt lat="50.75514" lon="3.68504">
        <ele>97</ele>
        <time>2015-12-13T10:23:03Z</time>
      </trkpt>
      <trkpt lat="50.75515" lon="3.68499">
        <ele>97</ele>
        <time>2015-12-13T10:23:05Z</time>
      </trkpt>
      <trkpt lat="50.75517" lon="3.68495">
        <ele>97</ele>
        <time>2015-12-13T10:23:07Z</time>
      </trkpt>
      <trkpt lat="50.75518" lon="3.68491">
        <ele>97</ele>
        <time>2015-12-13T10:23:09Z</time>
      </trkpt>
      <trkpt lat="50.75519" lon="3.68487">
        <ele>97.5</ele>
        <time>2015-12-13T10:23:11Z</time>
      </trkpt>
      <trkpt lat="50.7552" lon="3.68483">
        <ele>98</ele>
        <time>2015-12-13T10:23:13Z</time>
      </trkpt>
      <trkpt lat="50.75521" lon="3.68479">
        <ele>98</ele>
        <time>2015-12-13T10:23:15Z</time>
      </trkpt>
      <trkpt lat="50.75523" lon="3.68475">
        <ele>98</ele>
        <time>2015-12-13T10:23:17Z</time>
      </trkpt>
      <trkpt lat="50.75524" lon="3.6847">
        <ele>98</ele>
        <time>2015-12-13T10:23:19Z</time>
      </trkpt>
      <trkpt lat="50.75525" lon="3.68466">
        <ele>99.4</ele>
        <time>2015-12-13T10:23:21Z</time>
      </trkpt>
      <trkpt lat="50.75526" lon="3.68462">
        <ele>100</ele>
        <time>2015-12-13T10:23:23Z</time>
      </trkpt>
      <trkpt lat="50.75527" lon="3.68458">
        <ele>100</ele>
        <time>2015-12-13T10:23:25Z</time>
      </trkpt>
      <trkpt lat="50.75528" lon="3.68454">
        <ele>100</ele>
        <time>2015-12-13T10:23:27Z</time>
      </trkpt>
      <trkpt lat="50.7553" lon="3.6845">
        <ele>100</ele>
        <time>2015-12-13T10:23:29Z</time>
      </trkpt>
      <trkpt lat="50.7553" lon="3.68445">
        <ele>100.5</ele>
        <time>2015-12-13T10:23:31Z</time>
      </trkpt>
      <trkpt lat="50.75531" lon="3.68441">
        <ele>101</ele>
        <time>2015-12-13T10:23:33Z</time>
      </trkpt>
      <trkpt lat="50.75532" lon="3.68437">
        <ele>101</ele>
        <time>2015-12-13T10:23:35Z</time>
      </trkpt>
      <trkpt lat="50.75533" lon="3.68433">
        <ele>101</ele>
        <time>2015-12-13T10:23:37Z</time>
      </trkpt>
      <trkpt lat="50.75534" lon="3.68429">
        <ele>101</ele>
        <time>2015-12-13T10:23:39Z</time>
      </trkpt>
      <trkpt lat="50.75535" lon="3.68424">
        <ele>101.7</ele>
        <time>2015-12-13T10:23:41Z</time>
      </trkpt>
      <trkpt lat="50.75536" lon="3.6842">
        <ele>102</ele>
        <time>2015-12-13T10:23:43Z</time>
      </trkpt>
      <trkpt lat="50.75538" lon="3.68416">
        <ele>102</ele>
        <time>2015-12-13T10:23:45Z</time>
      </trkpt>
      <trkpt lat="50.75539" lon="3.68411">
        <ele>102</ele>
        <time>2015-12-13T10:23:47Z</time>
      </trkpt>
      <trkpt lat="50.7554" lon="3.68406">
        <ele>102</ele>
        <time>2015-12-13T10:23:49Z</time>
      </trkpt>
      <trkpt lat="50.75541" lon="3.68402">
        <ele>102.7</ele>
        <time>2015-12-13T10:23:51Z</time>
      </trkpt>
      <trkpt lat="50.75542" lon="3.68397">
        <ele>103</ele>
        <time>2015-12-13T10:23:53Z</time>
      </trkpt>
      <trkpt lat="50.75543" lon="3.68393">
        <ele>103</ele>
        <time>2015-12-13T10:23:55Z</time>
      </trkpt>
      <trkpt lat="50.75544" lon="3.68389">
        <ele>103</ele>
        <time>2015-12-13T10:23:57Z</time>
      </trkpt>
      <trkpt lat="50.75545" lon="3.68385">
        <ele>103</ele>
        <time>2015-12-13T10:23:59Z</time>
      </trkpt>
      <trkpt lat="50.75546" lon="3.6838">
        <ele>103.7</ele>
        <time>2015-12-13T10:24:01Z</time>
      </trkpt>
      <trkpt lat="50.75547" lon="3.68376">
        <ele>104</ele>
        <time>2015-12-13T10:24:03Z</time>
      </trkpt>
      <trkpt lat="50.75549" lon="3.68372">
        <ele>103.3</ele>
        <time>2015-12-13T10:24:05Z</time>
      </trkpt>
      <trkpt lat="50.7555" lon="3.68367">
        <ele>103</ele>
        <time>2015-12-13T10:24:07Z</time>
      </trkpt>
      <trkpt lat="50.75551" lon="3.68363">
        <ele>103</ele>
        <time>2015-12-13T10:24:09Z</time>
      </trkpt>
      <trkpt lat="50.75552" lon="3.68359">
        <ele>103.7</ele>
        <time>2015-12-13T10:24:11Z</time>
      </trkpt>
      <trkpt lat="50.75553" lon="3.68355">
        <ele>104</ele>
        <time>2015-12-13T10:24:13Z</time>
      </trkpt>
      <trkpt lat="50.75555" lon="3.68351">
        <ele>104</ele>
        <time>2015-12-13T10:24:15Z</time>
      </trkpt>
      <trkpt lat="50.75556" lon="3.68347">
        <ele>104</ele>
        <time>2015-12-13T10:24:17Z</time>
      </trkpt>
      <trkpt lat="50.75557" lon="3.68343">
        <ele>104</ele>
        <time>2015-12-13T10:24:19Z</time>
      </trkpt>
      <trkpt lat="50.75558" lon="3.68339">
        <ele>104.7</ele>
        <time>2015-12-13T10:24:21Z</time>
      </trkpt>
      <trkpt lat="50.75559" lon="3.68334">
        <ele>105</ele>
        <time>2015-12-13T10:24:23Z</time>
      </trkpt>
      <trkpt lat="50.7556" lon="3.6833">
        <ele>105</ele>
        <time>2015-12-13T10:24:25Z</time>
      </trkpt>
      <trkpt lat="50.75562" lon="3.68326">
        <ele>105</ele>
        <time>2015-12-13T10:24:27Z</time>
      </trkpt>
      <trkpt lat="50.75563" lon="3.68321">
        <ele>105</ele>
        <time>2015-12-13T10:24:29Z</time>
      </trkpt>
      <trkpt lat="50.75564" lon="3.68316">
        <ele>105</ele>
        <time>2015-12-13T10:24:31Z</time>
      </trkpt>
      <trkpt lat="50.75565" lon="3.68312">
        <ele>105</ele>
        <time>2015-12-13T10:24:33Z</time>
      </trkpt>
      <trkpt lat="50.75566" lon="3.68307">
        <ele>105</ele>
        <time>2015-12-13T10:24:35Z</time>
      </trkpt>
      <trkpt lat="50.75567" lon="3.68303">
        <ele>105</ele>
        <time>2015-12-13T10:24:37Z</time>
      </trkpt>
      <trkpt lat="50.75568" lon="3.68298">
        <ele>105</ele>
        <time>2015-12-13T10:24:39Z</time>
      </trkpt>
      <trkpt lat="50.75569" lon="3.68294">
        <ele>105.7</ele>
        <time>2015-12-13T10:24:41Z</time>
      </trkpt>
      <trkpt lat="50.7557" lon="3.6829">
        <ele>106</ele>
        <time>2015-12-13T10:24:43Z</time>
      </trkpt>
      <trkpt lat="50.75571" lon="3.68286">
        <ele>106</ele>
        <time>2015-12-13T10:24:45Z</time>
      </trkpt>
      <trkpt lat="50.75572" lon="3.68281">
        <ele>106</ele>
        <time>2015-12-13T10:24:47Z</time>
      </trkpt>
      <trkpt lat="50.75572" lon="3.68277">
        <ele>106</ele>
        <time>2015-12-13T10:24:49Z</time>
      </trkpt>
      <trkpt lat="50.75573" lon="3.68273">
        <ele>106</ele>
        <time>2015-12-13T10:24:51Z</time>
      </trkpt>
      <trkpt lat="50.75574" lon="3.6827">
        <ele>106</ele>
        <time>2015-12-13T10:24:53Z</time>
      </trkpt>
      <trkpt lat="50.75575" lon="3.68267">
        <ele>106</ele>
        <time>2015-12-13T10:24:55Z</time>
      </trkpt>
      <trkpt lat="50.75576" lon="3.68264">
        <ele>106</ele>
        <time>2015-12-13T10:24:57Z</time>
      </trkpt>
      <trkpt lat="50.75578" lon="3.68261">
        <ele>106</ele>
        <time>2015-12-13T10:24:58Z</time>
      </trkpt>
      <trkpt lat="50.75579" lon="3.68257">
        <ele>106</ele>
        <time>2015-12-13T10:25:00Z</time>
      </trkpt>
      <trkpt lat="50.7558" lon="3.68253">
        <ele>107</ele>
        <time>2015-12-13T10:25:02Z</time>
      </trkpt>
      <trkpt lat="50.75582" lon="3.68248">
        <ele>107</ele>
        <time>2015-12-13T10:25:04Z</time>
      </trkpt>
      <trkpt lat="50.75583" lon="3.68243">
        <ele>107</ele>
        <time>2015-12-13T10:25:06Z</time>
      </trkpt>
      <trkpt lat="50.75584" lon="3.68238">
        <ele>107</ele>
        <time>2015-12-13T10:25:08Z</time>
      </trkpt>
      <trkpt lat="50.75585" lon="3.68234">
        <ele>107</ele>
        <time>2015-12-13T10:25:10Z</time>
      </trkpt>
      <trkpt lat="50.75586" lon="3.6823">
        <ele>108</ele>
        <time>2015-12-13T10:25:12Z</time>
      </trkpt>
      <trkpt lat="50.75587" lon="3.68225">
        <ele>108</ele>
        <time>2015-12-13T10:25:14Z</time>
      </trkpt>
      <trkpt lat="50.75588" lon="3.68221">
        <ele>108</ele>
        <time>2015-12-13T10:25:16Z</time>
      </trkpt>
      <trkpt lat="50.75589" lon="3.68217">
        <ele>108</ele>
        <time>2015-12-13T10:25:18Z</time>
      </trkpt>
      <trkpt lat="50.7559" lon="3.68213">
        <ele>108</ele>
        <time>2015-12-13T10:25:20Z</time>
      </trkpt>
      <trkpt lat="50.75591" lon="3.68209">
        <ele>108</ele>
        <time>2015-12-13T10:25:22Z</time>
      </trkpt>
      <trkpt lat="50.75593" lon="3.68205">
        <ele>108</ele>
        <time>2015-12-13T10:25:24Z</time>
      </trkpt>
      <trkpt lat="50.75594" lon="3.68201">
        <ele>108</ele>
        <time>2015-12-13T10:25:26Z</time>
      </trkpt>
      <trkpt lat="50.75595" lon="3.68196">
        <ele>108</ele>
        <time>2015-12-13T10:25:28Z</time>
      </trkpt>
      <trkpt lat="50.75596" lon="3.68191">
        <ele>108</ele>
        <time>2015-12-13T10:25:30Z</time>
      </trkpt>
      <trkpt lat="50.75597" lon="3.68187">
        <ele>109</ele>
        <time>2015-12-13T10:25:32Z</time>
      </trkpt>
      <trkpt lat="50.75597" lon="3.68182">
        <ele>109</ele>
        <time>2015-12-13T10:25:34Z</time>
      </trkpt>
      <trkpt lat="50.75598" lon="3.68178">
        <ele>109</ele>
        <time>2015-12-13T10:25:36Z</time>
      </trkpt>
      <trkpt lat="50.75599" lon="3.68174">
        <ele>109</ele>
        <time>2015-12-13T10:25:38Z</time>
      </trkpt>
      <trkpt lat="50.756" lon="3.68169">
        <ele>109</ele>
        <time>2015-12-13T10:25:40Z</time>
      </trkpt>
      <trkpt lat="50.75601" lon="3.68164">
        <ele>110</ele>
        <time>2015-12-13T10:25:42Z</time>
      </trkpt>
      <trkpt lat="50.75602" lon="3.6816">
        <ele>110</ele>
        <time>2015-12-13T10:25:44Z</time>
      </trkpt>
      <trkpt lat="50.75603" lon="3.68156">
        <ele>110</ele>
        <time>2015-12-13T10:25:46Z</time>
      </trkpt>
      <trkpt lat="50.75604" lon="3.68151">
        <ele>110</ele>
        <time>2015-12-13T10:25:48Z</time>
      </trkpt>
      <trkpt lat="50.75606" lon="3.68147">
        <ele>110</ele>
        <time>2015-12-13T10:25:50Z</time>
      </trkpt>
      <trkpt lat="50.75606" lon="3.68143">
        <ele>111</ele>
        <time>2015-12-13T10:25:52Z</time>
      </trkpt>
      <trkpt lat="50.75607" lon="3.68138">
        <ele>111</ele>
        <time>2015-12-13T10:25:54Z</time>
      </trkpt>
      <trkpt lat="50.75608" lon="3.68134">
        <ele>111</ele>
        <time>2015-12-13T10:25:56Z</time>
      </trkpt>
      <trkpt lat="50.75609" lon="3.68129">
        <ele>111</ele>
        <time>2015-12-13T10:25:58Z</time>
      </trkpt>
      <trkpt lat="50.7561" lon="3.68125">
        <ele>111</ele>
        <time>2015-12-13T10:26:00Z</time>
      </trkpt>
      <trkpt lat="50.75611" lon="3.68121">
        <ele>111</ele>
        <time>2015-12-13T10:26:02Z</time>
      </trkpt>
      <trkpt lat="50.75612" lon="3.68116">
        <ele>111</ele>
        <time>2015-12-13T10:26:04Z</time>
      </trkpt>
      <trkpt lat="50.75613" lon="3.68112">
        <ele>111</ele>
        <time>2015-12-13T10:26:06Z</time>
      </trkpt>
      <trkpt lat="50.75614" lon="3.68107">
        <ele>111</ele>
        <time>2015-12-13T10:26:08Z</time>
      </trkpt>
      <trkpt lat="50.75615" lon="3.68102">
        <ele>111</ele>
        <time>2015-12-13T10:26:10Z</time>
      </trkpt>
      <trkpt lat="50.75616" lon="3.68098">
        <ele>112</ele>
        <time>2015-12-13T10:26:12Z</time>
      </trkpt>
      <trkpt lat="50.75617" lon="3.68094">
        <ele>112</ele>
        <time>2015-12-13T10:26:14Z</time>
      </trkpt>
      <trkpt lat="50.75618" lon="3.6809">
        <ele>112</ele>
        <time>2015-12-13T10:26:16Z</time>
      </trkpt>
      <trkpt lat="50.75619" lon="3.68085">
        <ele>111</ele>
        <time>2015-12-13T10:26:18Z</time>
      </trkpt>
      <trkpt lat="50.7562" lon="3.68081">
        <ele>111</ele>
        <time>2015-12-13T10:26:20Z</time>
      </trkpt>
      <trkpt lat="50.75621" lon="3.68077">
        <ele>113</ele>
        <time>2015-12-13T10:26:22Z</time>
      </trkpt>
      <trkpt lat="50.75622" lon="3.68072">
        <ele>113</ele>
        <time>2015-12-13T10:26:24Z</time>
      </trkpt>
      <trkpt lat="50.75623" lon="3.68068">
        <ele>113</ele>
        <time>2015-12-13T10:26:26Z</time>
      </trkpt>
      <trkpt lat="50.75624" lon="3.68064">
        <ele>113</ele>
        <time>2015-12-13T10:26:28Z</time>
      </trkpt>
      <trkpt lat="50.75625" lon="3.6806">
        <ele>113</ele>
        <time>2015-12-13T10:26:30Z</time>
      </trkpt>
      <trkpt lat="50.75626" lon="3.68056">
        <ele>113</ele>
        <time>2015-12-13T10:26:32Z</time>
      </trkpt>
      <trkpt lat="50.75627" lon="3.68053">
        <ele>113</ele>
        <time>2015-12-13T10:26:34Z</time>
      </trkpt>
      <trkpt lat="50.75628" lon="3.68048">
        <ele>113</ele>
        <time>2015-12-13T10:26:36Z</time>
      </trkpt>
      <trkpt lat="50.75629" lon="3.68044">
        <ele>113</ele>
        <time>2015-12-13T10:26:38Z</time>
      </trkpt>
      <trkpt lat="50.7563" lon="3.6804">
        <ele>113</ele>
        <time>2015-12-13T10:26:40Z</time>
      </trkpt>
      <trkpt lat="50.75631" lon="3.68036">
        <ele>114</ele>
        <time>2015-12-13T10:26:42Z</time>
      </trkpt>
      <trkpt lat="50.75632" lon="3.68032">
        <ele>114</ele>
        <time>2015-12-13T10:26:44Z</time>
      </trkpt>
      <trkpt lat="50.75633" lon="3.68028">
        <ele>114</ele>
        <time>2015-12-13T10:26:46Z</time>
      </trkpt>
      <trkpt lat="50.75634" lon="3.68024">
        <ele>114</ele>
        <time>2015-12-13T10:26:48Z</time>
      </trkpt>
      <trkpt lat="50.75635" lon="3.6802">
        <ele>114</ele>
        <time>2015-12-13T10:26:50Z</time>
      </trkpt>
      <trkpt lat="50.75635" lon="3.68016">
        <ele>114</ele>
        <time>2015-12-13T10:26:52Z</time>
      </trkpt>
      <trkpt lat="50.75636" lon="3.68011">
        <ele>114</ele>
        <time>2015-12-13T10:26:54Z</time>
      </trkpt>
      <trkpt lat="50.75636" lon="3.68007">
        <ele>114</ele>
        <time>2015-12-13T10:26:56Z</time>
      </trkpt>
      <trkpt lat="50.75637" lon="3.68002">
        <ele>114</ele>
        <time>2015-12-13T10:26:58Z</time>
      </trkpt>
      <trkpt lat="50.75638" lon="3.67998">
        <ele>114</ele>
        <time>2015-12-13T10:27:00Z</time>
      </trkpt>
      <trkpt lat="50.75639" lon="3.67992">
        <ele>114.7</ele>
        <time>2015-12-13T10:27:02Z</time>
      </trkpt>
      <trkpt lat="50.7564" lon="3.67988">
        <ele>115</ele>
        <time>2015-12-13T10:27:04Z</time>
      </trkpt>
      <trkpt lat="50.75641" lon="3.67983">
        <ele>115</ele>
        <time>2015-12-13T10:27:06Z</time>
      </trkpt>
      <trkpt lat="50.75642" lon="3.67979">
        <ele>115</ele>
        <time>2015-12-13T10:27:08Z</time>
      </trkpt>
      <trkpt lat="50.75643" lon="3.67975">
        <ele>115</ele>
        <time>2015-12-13T10:27:10Z</time>
      </trkpt>
      <trkpt lat="50.75643" lon="3.67971">
        <ele>116.4</ele>
        <time>2015-12-13T10:27:12Z</time>
      </trkpt>
      <trkpt lat="50.75644" lon="3.67966">
        <ele>117</ele>
        <time>2015-12-13T10:27:14Z</time>
      </trkpt>
      <trkpt lat="50.75644" lon="3.67962">
        <ele>117</ele>
        <time>2015-12-13T10:27:16Z</time>
      </trkpt>
      <trkpt lat="50.75645" lon="3.67957">
        <ele>117</ele>
        <time>2015-12-13T10:27:18Z</time>
      </trkpt>
      <trkpt lat="50.75646" lon="3.67953">
        <ele>117</ele>
        <time>2015-12-13T10:27:20Z</time>
      </trkpt>
      <trkpt lat="50.75647" lon="3.67949">
        <ele>117</ele>
        <time>2015-12-13T10:27:22Z</time>
      </trkpt>
      <trkpt lat="50.75649" lon="3.67945">
        <ele>117</ele>
        <time>2015-12-13T10:27:24Z</time>
      </trkpt>
      <trkpt lat="50.75652" lon="3.67944">
        <ele>117</ele>
        <time>2015-12-13T10:27:26Z</time>
      </trkpt>
      <trkpt lat="50.75654" lon="3.67943">
        <ele>117</ele>
        <time>2015-12-13T10:27:28Z</time>
      </trkpt>
      <trkpt lat="50.75657" lon="3.67943">
        <ele>117</ele>
        <time>2015-12-13T10:27:30Z</time>
      </trkpt>
      <trkpt lat="50.7566" lon="3.67944">
        <ele>117.7</ele>
        <time>2015-12-13T10:27:32Z</time>
      </trkpt>
      <trkpt lat="50.75663" lon="3.67943">
        <ele>118</ele>
        <time>2015-12-13T10:27:34Z</time>
      </trkpt>
      <trkpt lat="50.75666" lon="3.67943">
        <ele>118</ele>
        <time>2015-12-13T10:27:36Z</time>
      </trkpt>
      <trkpt lat="50.75669" lon="3.67944">
        <ele>118</ele>
        <time>2015-12-13T10:27:38Z</time>
      </trkpt>
      <trkpt lat="50.75672" lon="3.67943">
        <ele>118</ele>
        <time>2015-12-13T10:27:40Z</time>
      </trkpt>
      <trkpt lat="50.75675" lon="3.67943">
        <ele>118</ele>
        <time>2015-12-13T10:27:42Z</time>
      </trkpt>
      <trkpt lat="50.75678" lon="3.67943">
        <ele>118</ele>
        <time>2015-12-13T10:27:44Z</time>
      </trkpt>
      <trkpt lat="50.75682" lon="3.67943">
        <ele>118</ele>
        <time>2015-12-13T10:27:46Z</time>
      </trkpt>
      <trkpt lat="50.75685" lon="3.67943">
        <ele>118</ele>
        <time>2015-12-13T10:27:48Z</time>
      </trkpt>
      <trkpt lat="50.75688" lon="3.67943">
        <ele>118</ele>
        <time>2015-12-13T10:27:50Z</time>
      </trkpt>
      <trkpt lat="50.75691" lon="3.67943">
        <ele>118</ele>
        <time>2015-12-13T10:27:52Z</time>
      </trkpt>
      <trkpt lat="50.75694" lon="3.67943">
        <ele>118</ele>
        <time>2015-12-13T10:27:54Z</time>
      </trkpt>
      <trkpt lat="50.75697" lon="3.67943">
        <ele>118</ele>
        <time>2015-12-13T10:27:56Z</time>
      </trkpt>
      <trkpt lat="50.757" lon="3.67943">
        <ele>118</ele>
        <time>2015-12-13T10:27:58Z</time>
      </trkpt>
      <trkpt lat="50.75703" lon="3.67942">
        <ele>118</ele>
        <time>2015-12-13T10:28:00Z</time>
      </trkpt>
      <trkpt lat="50.75706" lon="3.67942">
        <ele>116</ele>
        <time>2015-12-13T10:28:02Z</time>
      </trkpt>
      <trkpt lat="50.75709" lon="3.67942">
        <ele>116</ele>
        <time>2015-12-13T10:28:04Z</time>
      </trkpt>
      <trkpt lat="50.75712" lon="3.6794">
        <ele>116</ele>
        <time>2015-12-13T10:28:06Z</time>
      </trkpt>
      <trkpt lat="50.75714" lon="3.6794">
        <ele>116</ele>
        <time>2015-12-13T10:28:07Z</time>
      </trkpt>
      <trkpt lat="50.75717" lon="3.67939">
        <ele>116</ele>
        <time>2015-12-13T10:28:08Z</time>
      </trkpt>
      <trkpt lat="50.75719" lon="3.67939">
        <ele>116</ele>
        <time>2015-12-13T10:28:09Z</time>
      </trkpt>
      <trkpt lat="50.75722" lon="3.67939">
        <ele>116</ele>
        <time>2015-12-13T10:28:10Z</time>
      </trkpt>
      <trkpt lat="50.75724" lon="3.67939">
        <ele>116.5</ele>
        <time>2015-12-13T10:28:11Z</time>
      </trkpt>
      <trkpt lat="50.75727" lon="3.67938">
        <ele>117</ele>
        <time>2015-12-13T10:28:12Z</time>
      </trkpt>
      <trkpt lat="50.75729" lon="3.67938">
        <ele>117</ele>
        <time>2015-12-13T10:28:13Z</time>
      </trkpt>
      <trkpt lat="50.75732" lon="3.67938">
        <ele>117</ele>
        <time>2015-12-13T10:28:14Z</time>
      </trkpt>
      <trkpt lat="50.75735" lon="3.67938">
        <ele>117</ele>
        <time>2015-12-13T10:28:15Z</time>
      </trkpt>
      <trkpt lat="50.75737" lon="3.67937">
        <ele>117</ele>
        <time>2015-12-13T10:28:16Z</time>
      </trkpt>
      <trkpt lat="50.7574" lon="3.67936">
        <ele>117</ele>
        <time>2015-12-13T10:28:17Z</time>
      </trkpt>
      <trkpt lat="50.75742" lon="3.67936">
        <ele>117</ele>
        <time>2015-12-13T10:28:18Z</time>
      </trkpt>
      <trkpt lat="50.75745" lon="3.67936">
        <ele>117</ele>
        <time>2015-12-13T10:28:19Z</time>
      </trkpt>
      <trkpt lat="50.75748" lon="3.67936">
        <ele>117</ele>
        <time>2015-12-13T10:28:20Z</time>
      </trkpt>
      <trkpt lat="50.75751" lon="3.67935">
        <ele>117</ele>
        <time>2015-12-13T10:28:21Z</time>
      </trkpt>
      <trkpt lat="50.75753" lon="3.67935">
        <ele>117</ele>
        <time>2015-12-13T10:28:22Z</time>
      </trkpt>
      <trkpt lat="50.75755" lon="3.67935">
        <ele>117</ele>
        <time>2015-12-13T10:28:23Z</time>
      </trkpt>
      <trkpt lat="50.75758" lon="3.67935">
        <ele>117</ele>
        <time>2015-12-13T10:28:24Z</time>
      </trkpt>
      <trkpt lat="50.7576" lon="3.67934">
        <ele>117</ele>
        <time>2015-12-13T10:28:25Z</time>
      </trkpt>
      <trkpt lat="50.75763" lon="3.67935">
        <ele>117</ele>
        <time>2015-12-13T10:28:26Z</time>
      </trkpt>
      <trkpt lat="50.75766" lon="3.67934">
        <ele>117</ele>
        <time>2015-12-13T10:28:27Z</time>
      </trkpt>
      <trkpt lat="50.75768" lon="3.67934">
        <ele>117</ele>
        <time>2015-12-13T10:28:28Z</time>
      </trkpt>
      <trkpt lat="50.75771" lon="3.67934">
        <ele>117</ele>
        <time>2015-12-13T10:28:29Z</time>
      </trkpt>
      <trkpt lat="50.75773" lon="3.67934">
        <ele>117</ele>
        <time>2015-12-13T10:28:30Z</time>
      </trkpt>
      <trkpt lat="50.75776" lon="3.67935">
        <ele>116.5</ele>
        <time>2015-12-13T10:28:31Z</time>
      </trkpt>
      <trkpt lat="50.75778" lon="3.67935">
        <ele>116</ele>
        <time>2015-12-13T10:28:32Z</time>
      </trkpt>
      <trkpt lat="50.75781" lon="3.67934">
        <ele>116</ele>
        <time>2015-12-13T10:28:33Z</time>
      </trkpt>
      <trkpt lat="50.75783" lon="3.67934">
        <ele>116</ele>
        <time>2015-12-13T10:28:34Z</time>
      </trkpt>
      <trkpt lat="50.75786" lon="3.67934">
        <ele>116</ele>
        <time>2015-12-13T10:28:35Z</time>
      </trkpt>
      <trkpt lat="50.75788" lon="3.67934">
        <ele>116</ele>
        <time>2015-12-13T10:28:36Z</time>
      </trkpt>
      <trkpt lat="50.75791" lon="3.67933">
        <ele>116</ele>
        <time>2015-12-13T10:28:37Z</time>
      </trkpt>
      <trkpt lat="50.75793" lon="3.67933">
        <ele>116</ele>
        <time>2015-12-13T10:28:38Z</time>
      </trkpt>
      <trkpt lat="50.75796" lon="3.67933">
        <ele>116</ele>
        <time>2015-12-13T10:28:39Z</time>
      </trkpt>
      <trkpt lat="50.75798" lon="3.67933">
        <ele>116</ele>
        <time>2015-12-13T10:28:40Z</time>
      </trkpt>
      <trkpt lat="50.758" lon="3.67933">
        <ele>116</ele>
        <time>2015-12-13T10:28:41Z</time>
      </trkpt>
      <trkpt lat="50.75802" lon="3.67932">
        <ele>116</ele>
        <time>2015-12-13T10:28:42Z</time>
      </trkpt>
      <trkpt lat="50.75805" lon="3.67932">
        <ele>116</ele>
        <time>2015-12-13T10:28:43Z</time>
      </trkpt>
      <trkpt lat="50.75807" lon="3.67932">
        <ele>116</ele>
        <time>2015-12-13T10:28:44Z</time>
      </trkpt>
      <trkpt lat="50.75809" lon="3.67932">
        <ele>116</ele>
        <time>2015-12-13T10:28:45Z</time>
      </trkpt>
      <trkpt lat="50.75812" lon="3.67933">
        <ele>116</ele>
        <time>2015-12-13T10:28:46Z</time>
      </trkpt>
      <trkpt lat="50.75814" lon="3.67933">
        <ele>116</ele>
        <time>2015-12-13T10:28:47Z</time>
      </trkpt>
      <trkpt lat="50.75817" lon="3.67934">
        <ele>116</ele>
        <time>2015-12-13T10:28:48Z</time>
      </trkpt>
      <trkpt lat="50.75819" lon="3.67934">
        <ele>116</ele>
        <time>2015-12-13T10:28:49Z</time>
      </trkpt>
      <trkpt lat="50.75822" lon="3.67934">
        <ele>116</ele>
        <time>2015-12-13T10:28:50Z</time>
      </trkpt>
      <trkpt lat="50.75824" lon="3.67934">
        <ele>116</ele>
        <time>2015-12-13T10:28:51Z</time>
      </trkpt>
      <trkpt lat="50.75826" lon="3.67935">
        <ele>116</ele>
        <time>2015-12-13T10:28:52Z</time>
      </trkpt>
      <trkpt lat="50.75829" lon="3.67935">
        <ele>116</ele>
        <time>2015-12-13T10:28:53Z</time>
      </trkpt>
      <trkpt lat="50.75831" lon="3.67935">
        <ele>116</ele>
        <time>2015-12-13T10:28:54Z</time>
      </trkpt>
      <trkpt lat="50.75834" lon="3.67935">
        <ele>116</ele>
        <time>2015-12-13T10:28:55Z</time>
      </trkpt>
      <trkpt lat="50.75836" lon="3.67934">
        <ele>116</ele>
        <time>2015-12-13T10:28:56Z</time>
      </trkpt>
      <trkpt lat="50.75839" lon="3.67934">
        <ele>116</ele>
        <time>2015-12-13T10:28:57Z</time>
      </trkpt>
      <trkpt lat="50.75841" lon="3.67933">
        <ele>116</ele>
        <time>2015-12-13T10:28:58Z</time>
      </trkpt>
      <trkpt lat="50.75843" lon="3.67932">
        <ele>116</ele>
        <time>2015-12-13T10:28:59Z</time>
      </trkpt>
      <trkpt lat="50.75845" lon="3.67931">
        <ele>116</ele>
        <time>2015-12-13T10:29:00Z</time>
      </trkpt>
      <trkpt lat="50.75847" lon="3.67929">
        <ele>115.3</ele>
        <time>2015-12-13T10:29:01Z</time>
      </trkpt>
      <trkpt lat="50.75848" lon="3.67927">
        <ele>115</ele>
        <time>2015-12-13T10:29:02Z</time>
      </trkpt>
      <trkpt lat="50.7585" lon="3.67926">
        <ele>115</ele>
        <time>2015-12-13T10:29:03Z</time>
      </trkpt>
      <trkpt lat="50.75852" lon="3.67924">
        <ele>115</ele>
        <time>2015-12-13T10:29:04Z</time>
      </trkpt>
      <trkpt lat="50.75854" lon="3.67922">
        <ele>115</ele>
        <time>2015-12-13T10:29:05Z</time>
      </trkpt>
      <trkpt lat="50.75856" lon="3.6792">
        <ele>115</ele>
        <time>2015-12-13T10:29:06Z</time>
      </trkpt>
      <trkpt lat="50.75858" lon="3.67918">
        <ele>115</ele>
        <time>2015-12-13T10:29:07Z</time>
      </trkpt>
      <trkpt lat="50.75859" lon="3.67915">
        <ele>115</ele>
        <time>2015-12-13T10:29:08Z</time>
      </trkpt>
      <trkpt lat="50.75861" lon="3.67913">
        <ele>115</ele>
        <time>2015-12-13T10:29:09Z</time>
      </trkpt>
      <trkpt lat="50.75862" lon="3.6791">
        <ele>115</ele>
        <time>2015-12-13T10:29:10Z</time>
      </trkpt>
      <trkpt lat="50.75864" lon="3.67908">
        <ele>114.3</ele>
        <time>2015-12-13T10:29:11Z</time>
      </trkpt>
      <trkpt lat="50.75865" lon="3.67905">
        <ele>114</ele>
        <time>2015-12-13T10:29:12Z</time>
      </trkpt>
      <trkpt lat="50.75867" lon="3.67902">
        <ele>114</ele>
        <time>2015-12-13T10:29:13Z</time>
      </trkpt>
      <trkpt lat="50.75868" lon="3.67899">
        <ele>114</ele>
        <time>2015-12-13T10:29:14Z</time>
      </trkpt>
      <trkpt lat="50.7587" lon="3.67896">
        <ele>114</ele>
        <time>2015-12-13T10:29:15Z</time>
      </trkpt>
      <trkpt lat="50.75871" lon="3.67892">
        <ele>114</ele>
        <time>2015-12-13T10:29:16Z</time>
      </trkpt>
      <trkpt lat="50.75872" lon="3.67889">
        <ele>114</ele>
        <time>2015-12-13T10:29:17Z</time>
      </trkpt>
      <trkpt lat="50.75873" lon="3.67886">
        <ele>114</ele>
        <time>2015-12-13T10:29:18Z</time>
      </trkpt>
      <trkpt lat="50.75874" lon="3.67883">
        <ele>114</ele>
        <time>2015-12-13T10:29:19Z</time>
      </trkpt>
      <trkpt lat="50.75875" lon="3.67879">
        <ele>114</ele>
        <time>2015-12-13T10:29:20Z</time>
      </trkpt>
      <trkpt lat="50.75876" lon="3.67876">
        <ele>113.3</ele>
        <time>2015-12-13T10:29:21Z</time>
      </trkpt>
      <trkpt lat="50.75877" lon="3.67873">
        <ele>113</ele>
        <time>2015-12-13T10:29:22Z</time>
      </trkpt>
      <trkpt lat="50.75878" lon="3.67869">
        <ele>113</ele>
        <time>2015-12-13T10:29:23Z</time>
      </trkpt>
      <trkpt lat="50.75879" lon="3.67866">
        <ele>113</ele>
        <time>2015-12-13T10:29:24Z</time>
      </trkpt>
      <trkpt lat="50.7588" lon="3.67862">
        <ele>113</ele>
        <time>2015-12-13T10:29:25Z</time>
      </trkpt>
      <trkpt lat="50.75881" lon="3.67859">
        <ele>113</ele>
        <time>2015-12-13T10:29:26Z</time>
      </trkpt>
      <trkpt lat="50.75882" lon="3.67855">
        <ele>113</ele>
        <time>2015-12-13T10:29:27Z</time>
      </trkpt>
      <trkpt lat="50.75883" lon="3.67852">
        <ele>113</ele>
        <time>2015-12-13T10:29:28Z</time>
      </trkpt>
      <trkpt lat="50.75884" lon="3.6785">
        <ele>113</ele>
        <time>2015-12-13T10:29:29Z</time>
      </trkpt>
      <trkpt lat="50.75885" lon="3.67847">
        <ele>113</ele>
        <time>2015-12-13T10:29:30Z</time>
      </trkpt>
      <trkpt lat="50.75886" lon="3.67844">
        <ele>113</ele>
        <time>2015-12-13T10:29:31Z</time>
      </trkpt>
      <trkpt lat="50.75887" lon="3.67841">
        <ele>113</ele>
        <time>2015-12-13T10:29:32Z</time>
      </trkpt>
      <trkpt lat="50.75888" lon="3.67838">
        <ele>113</ele>
        <time>2015-12-13T10:29:33Z</time>
      </trkpt>
      <trkpt lat="50.75889" lon="3.67835">
        <ele>113</ele>
        <time>2015-12-13T10:29:34Z</time>
      </trkpt>
      <trkpt lat="50.7589" lon="3.67831">
        <ele>113</ele>
        <time>2015-12-13T10:29:35Z</time>
      </trkpt>
      <trkpt lat="50.75891" lon="3.67828">
        <ele>113</ele>
        <time>2015-12-13T10:29:36Z</time>
      </trkpt>
      <trkpt lat="50.75892" lon="3.67825">
        <ele>113</ele>
        <time>2015-12-13T10:29:37Z</time>
      </trkpt>
      <trkpt lat="50.75893" lon="3.67822">
        <ele>113</ele>
        <time>2015-12-13T10:29:38Z</time>
      </trkpt>
      <trkpt lat="50.75894" lon="3.67819">
        <ele>113</ele>
        <time>2015-12-13T10:29:39Z</time>
      </trkpt>
      <trkpt lat="50.75895" lon="3.67815">
        <ele>113</ele>
        <time>2015-12-13T10:29:40Z</time>
      </trkpt>
      <trkpt lat="50.75896" lon="3.67812">
        <ele>113</ele>
        <time>2015-12-13T10:29:41Z</time>
      </trkpt>
      <trkpt lat="50.75897" lon="3.67809">
        <ele>113</ele>
        <time>2015-12-13T10:29:42Z</time>
      </trkpt>
      <trkpt lat="50.75898" lon="3.67806">
        <ele>113</ele>
        <time>2015-12-13T10:29:43Z</time>
      </trkpt>
      <trkpt lat="50.75899" lon="3.67803">
        <ele>113</ele>
        <time>2015-12-13T10:29:44Z</time>
      </trkpt>
      <trkpt lat="50.759" lon="3.678">
        <ele>113</ele>
        <time>2015-12-13T10:29:45Z</time>
      </trkpt>
      <trkpt lat="50.75901" lon="3.67797">
        <ele>113</ele>
        <time>2015-12-13T10:29:46Z</time>
      </trkpt>
      <trkpt lat="50.75902" lon="3.67794">
        <ele>113</ele>
        <time>2015-12-13T10:29:47Z</time>
      </trkpt>
      <trkpt lat="50.75903" lon="3.67791">
        <ele>113</ele>
        <time>2015-12-13T10:29:48Z</time>
      </trkpt>
      <trkpt lat="50.75904" lon="3.67788">
        <ele>113</ele>
        <time>2015-12-13T10:29:49Z</time>
      </trkpt>
      <trkpt lat="50.75905" lon="3.67784">
        <ele>113</ele>
        <time>2015-12-13T10:29:50Z</time>
      </trkpt>
      <trkpt lat="50.75906" lon="3.67781">
        <ele>113</ele>
        <time>2015-12-13T10:29:51Z</time>
      </trkpt>
      <trkpt lat="50.75907" lon="3.67778">
        <ele>113</ele>
        <time>2015-12-13T10:29:52Z</time>
      </trkpt>
      <trkpt lat="50.75908" lon="3.67775">
        <ele>113</ele>
        <time>2015-12-13T10:29:53Z</time>
      </trkpt>
      <trkpt lat="50.75909" lon="3.67771">
        <ele>113</ele>
        <time>2015-12-13T10:29:54Z</time>
      </trkpt>
      <trkpt lat="50.7591" lon="3.67768">
        <ele>113</ele>
        <time>2015-12-13T10:29:55Z</time>
      </trkpt>
      <trkpt lat="50.75912" lon="3.67765">
        <ele>113</ele>
        <time>2015-12-13T10:29:56Z</time>
      </trkpt>
      <trkpt lat="50.75912" lon="3.67761">
        <ele>113</ele>
        <time>2015-12-13T10:29:57Z</time>
      </trkpt>
      <trkpt lat="50.75913" lon="3.67758">
        <ele>113</ele>
        <time>2015-12-13T10:29:58Z</time>
      </trkpt>
      <trkpt lat="50.75914" lon="3.67754">
        <ele>113</ele>
        <time>2015-12-13T10:29:59Z</time>
      </trkpt>
      <trkpt lat="50.75915" lon="3.67751">
        <ele>113</ele>
        <time>2015-12-13T10:30:00Z</time>
      </trkpt>
      <trkpt lat="50.75916" lon="3.67748">
        <ele>113</ele>
        <time>2015-12-13T10:30:01Z</time>
      </trkpt>
      <trkpt lat="50.75917" lon="3.67744">
        <ele>111.6</ele>
        <time>2015-12-13T10:30:02Z</time>
      </trkpt>
      <trkpt lat="50.75918" lon="3.67741">
        <ele>111</ele>
        <time>2015-12-13T10:30:03Z</time>
      </trkpt>
      <trkpt lat="50.75919" lon="3.67738">
        <ele>111</ele>
        <time>2015-12-13T10:30:04Z</time>
      </trkpt>
      <trkpt lat="50.75921" lon="3.67735">
        <ele>111</ele>
        <time>2015-12-13T10:30:05Z</time>
      </trkpt>
      <trkpt lat="50.75922" lon="3.67731">
        <ele>111</ele>
        <time>2015-12-13T10:30:06Z</time>
      </trkpt>
      <trkpt lat="50.75923" lon="3.67728">
        <ele>111</ele>
        <time>2015-12-13T10:30:07Z</time>
      </trkpt>
      <trkpt lat="50.75924" lon="3.67724">
        <ele>111</ele>
        <time>2015-12-13T10:30:08Z</time>
      </trkpt>
      <trkpt lat="50.75925" lon="3.67721">
        <ele>111</ele>
        <time>2015-12-13T10:30:09Z</time>
      </trkpt>
      <trkpt lat="50.75926" lon="3.67717">
        <ele>111</ele>
        <time>2015-12-13T10:30:10Z</time>
      </trkpt>
      <trkpt lat="50.75927" lon="3.67714">
        <ele>111</ele>
        <time>2015-12-13T10:30:11Z</time>
      </trkpt>
      <trkpt lat="50.75928" lon="3.6771">
        <ele>111</ele>
        <time>2015-12-13T10:30:12Z</time>
      </trkpt>
      <trkpt lat="50.75929" lon="3.67706">
        <ele>111</ele>
        <time>2015-12-13T10:30:13Z</time>
      </trkpt>
      <trkpt lat="50.7593" lon="3.67703">
        <ele>111</ele>
        <time>2015-12-13T10:30:14Z</time>
      </trkpt>
      <trkpt lat="50.75931" lon="3.677">
        <ele>111</ele>
        <time>2015-12-13T10:30:15Z</time>
      </trkpt>
      <trkpt lat="50.75932" lon="3.67696">
        <ele>111</ele>
        <time>2015-12-13T10:30:16Z</time>
      </trkpt>
      <trkpt lat="50.75933" lon="3.67693">
        <ele>111</ele>
        <time>2015-12-13T10:30:17Z</time>
      </trkpt>
      <trkpt lat="50.75934" lon="3.67689">
        <ele>111</ele>
        <time>2015-12-13T10:30:18Z</time>
      </trkpt>
      <trkpt lat="50.75936" lon="3.67685">
        <ele>111</ele>
        <time>2015-12-13T10:30:19Z</time>
      </trkpt>
      <trkpt lat="50.75937" lon="3.67682">
        <ele>111</ele>
        <time>2015-12-13T10:30:20Z</time>
      </trkpt>
      <trkpt lat="50.75938" lon="3.67678">
        <ele>111</ele>
        <time>2015-12-13T10:30:21Z</time>
      </trkpt>
      <trkpt lat="50.75939" lon="3.67675">
        <ele>111</ele>
        <time>2015-12-13T10:30:22Z</time>
      </trkpt>
      <trkpt lat="50.7594" lon="3.67672">
        <ele>111</ele>
        <time>2015-12-13T10:30:23Z</time>
      </trkpt>
      <trkpt lat="50.75941" lon="3.67668">
        <ele>111</ele>
        <time>2015-12-13T10:30:24Z</time>
      </trkpt>
      <trkpt lat="50.75942" lon="3.67664">
        <ele>111</ele>
        <time>2015-12-13T10:30:25Z</time>
      </trkpt>
      <trkpt lat="50.75943" lon="3.67661">
        <ele>111</ele>
        <time>2015-12-13T10:30:26Z</time>
      </trkpt>
      <trkpt lat="50.75944" lon="3.67657">
        <ele>111</ele>
        <time>2015-12-13T10:30:27Z</time>
      </trkpt>
      <trkpt lat="50.75945" lon="3.67654">
        <ele>111</ele>
        <time>2015-12-13T10:30:28Z</time>
      </trkpt>
      <trkpt lat="50.75946" lon="3.6765">
        <ele>111</ele>
        <time>2015-12-13T10:30:29Z</time>
      </trkpt>
      <trkpt lat="50.75947" lon="3.67647">
        <ele>111</ele>
        <time>2015-12-13T10:30:30Z</time>
      </trkpt>
      <trkpt lat="50.75948" lon="3.67643">
        <ele>111</ele>
        <time>2015-12-13T10:30:31Z</time>
      </trkpt>
      <trkpt lat="50.75949" lon="3.6764">
        <ele>111</ele>
        <time>2015-12-13T10:30:32Z</time>
      </trkpt>
      <trkpt lat="50.7595" lon="3.67636">
        <ele>111</ele>
        <time>2015-12-13T10:30:33Z</time>
      </trkpt>
      <trkpt lat="50.75952" lon="3.67633">
        <ele>111</ele>
        <time>2015-12-13T10:30:34Z</time>
      </trkpt>
      <trkpt lat="50.75953" lon="3.6763">
        <ele>111</ele>
        <time>2015-12-13T10:30:35Z</time>
      </trkpt>
      <trkpt lat="50.75954" lon="3.67626">
        <ele>111</ele>
        <time>2015-12-13T10:30:36Z</time>
      </trkpt>
      <trkpt lat="50.75955" lon="3.67623">
        <ele>111</ele>
        <time>2015-12-13T10:30:37Z</time>
      </trkpt>
      <trkpt lat="50.75956" lon="3.67619">
        <ele>111</ele>
        <time>2015-12-13T10:30:38Z</time>
      </trkpt>
      <trkpt lat="50.75957" lon="3.67615">
        <ele>111</ele>
        <time>2015-12-13T10:30:39Z</time>
      </trkpt>
      <trkpt lat="50.75958" lon="3.67611">
        <ele>111</ele>
        <time>2015-12-13T10:30:40Z</time>
      </trkpt>
      <trkpt lat="50.75959" lon="3.67608">
        <ele>111</ele>
        <time>2015-12-13T10:30:41Z</time>
      </trkpt>
      <trkpt lat="50.7596" lon="3.67605">
        <ele>111</ele>
        <time>2015-12-13T10:30:42Z</time>
      </trkpt>
      <trkpt lat="50.75962" lon="3.67602">
        <ele>111</ele>
        <time>2015-12-13T10:30:43Z</time>
      </trkpt>
      <trkpt lat="50.75963" lon="3.67598">
        <ele>111</ele>
        <time>2015-12-13T10:30:44Z</time>
      </trkpt>
      <trkpt lat="50.75964" lon="3.67595">
        <ele>111</ele>
        <time>2015-12-13T10:30:45Z</time>
      </trkpt>
      <trkpt lat="50.75965" lon="3.67591">
        <ele>111</ele>
        <time>2015-12-13T10:30:46Z</time>
      </trkpt>
      <trkpt lat="50.75966" lon="3.67588">
        <ele>111</ele>
        <time>2015-12-13T10:30:47Z</time>
      </trkpt>
      <trkpt lat="50.75968" lon="3.67584">
        <ele>111</ele>
        <time>2015-12-13T10:30:49Z</time>
      </trkpt>
      <trkpt lat="50.75969" lon="3.67581">
        <ele>111</ele>
        <time>2015-12-13T10:30:51Z</time>
      </trkpt>
      <trkpt lat="50.75972" lon="3.67578">
        <ele>111</ele>
        <time>2015-12-13T10:30:53Z</time>
      </trkpt>
      <trkpt lat="50.75975" lon="3.67575">
        <ele>111</ele>
        <time>2015-12-13T10:30:55Z</time>
      </trkpt>
      <trkpt lat="50.75976" lon="3.67573">
        <ele>111</ele>
        <time>2015-12-13T10:30:56Z</time>
      </trkpt>
      <trkpt lat="50.75978" lon="3.6757">
        <ele>111</ele>
        <time>2015-12-13T10:30:58Z</time>
      </trkpt>
      <trkpt lat="50.75981" lon="3.67567">
        <ele>111</ele>
        <time>2015-12-13T10:31:00Z</time>
      </trkpt>
      <trkpt lat="50.75982" lon="3.67563">
        <ele>111</ele>
        <time>2015-12-13T10:31:02Z</time>
      </trkpt>
      <trkpt lat="50.75983" lon="3.67558">
        <ele>111</ele>
        <time>2015-12-13T10:31:04Z</time>
      </trkpt>
      <trkpt lat="50.75983" lon="3.67554">
        <ele>111</ele>
        <time>2015-12-13T10:31:06Z</time>
      </trkpt>
      <trkpt lat="50.75983" lon="3.67549">
        <ele>111</ele>
        <time>2015-12-13T10:31:08Z</time>
      </trkpt>
      <trkpt lat="50.75984" lon="3.67545">
        <ele>111</ele>
        <time>2015-12-13T10:31:10Z</time>
      </trkpt>
      <trkpt lat="50.75984" lon="3.6754">
        <ele>111</ele>
        <time>2015-12-13T10:31:12Z</time>
      </trkpt>
      <trkpt lat="50.75985" lon="3.67536">
        <ele>111</ele>
        <time>2015-12-13T10:31:14Z</time>
      </trkpt>
      <trkpt lat="50.75987" lon="3.67531">
        <ele>111</ele>
        <time>2015-12-13T10:31:16Z</time>
      </trkpt>
      <trkpt lat="50.75988" lon="3.67527">
        <ele>111</ele>
        <time>2015-12-13T10:31:18Z</time>
      </trkpt>
      <trkpt lat="50.75988" lon="3.67523">
        <ele>111</ele>
        <time>2015-12-13T10:31:20Z</time>
      </trkpt>
      <trkpt lat="50.75989" lon="3.67518">
        <ele>110</ele>
        <time>2015-12-13T10:31:22Z</time>
      </trkpt>
      <trkpt lat="50.75991" lon="3.67514">
        <ele>110</ele>
        <time>2015-12-13T10:31:24Z</time>
      </trkpt>
      <trkpt lat="50.75992" lon="3.6751">
        <ele>110</ele>
        <time>2015-12-13T10:31:26Z</time>
      </trkpt>
      <trkpt lat="50.75993" lon="3.67507">
        <ele>110</ele>
        <time>2015-12-13T10:31:28Z</time>
      </trkpt>
      <trkpt lat="50.75994" lon="3.67502">
        <ele>110</ele>
        <time>2015-12-13T10:31:30Z</time>
      </trkpt>
      <trkpt lat="50.75995" lon="3.67498">
        <ele>109</ele>
        <time>2015-12-13T10:31:32Z</time>
      </trkpt>
      <trkpt lat="50.75997" lon="3.67495">
        <ele>109</ele>
        <time>2015-12-13T10:31:34Z</time>
      </trkpt>
      <trkpt lat="50.75998" lon="3.67492">
        <ele>109</ele>
        <time>2015-12-13T10:31:36Z</time>
      </trkpt>
      <trkpt lat="50.75998" lon="3.67488">
        <ele>109</ele>
        <time>2015-12-13T10:31:38Z</time>
      </trkpt>
      <trkpt lat="50.76" lon="3.67484">
        <ele>109</ele>
        <time>2015-12-13T10:31:40Z</time>
      </trkpt>
      <trkpt lat="50.76001" lon="3.6748">
        <ele>109</ele>
        <time>2015-12-13T10:31:42Z</time>
      </trkpt>
      <trkpt lat="50.76003" lon="3.67476">
        <ele>109</ele>
        <time>2015-12-13T10:31:44Z</time>
      </trkpt>
      <trkpt lat="50.76004" lon="3.67473">
        <ele>109</ele>
        <time>2015-12-13T10:31:46Z</time>
      </trkpt>
      <trkpt lat="50.76005" lon="3.67467">
        <ele>109</ele>
        <time>2015-12-13T10:31:48Z</time>
      </trkpt>
      <trkpt lat="50.76006" lon="3.67465">
        <ele>109</ele>
        <time>2015-12-13T10:31:49Z</time>
      </trkpt>
      <trkpt lat="50.76007" lon="3.67462">
        <ele>109</ele>
        <time>2015-12-13T10:31:50Z</time>
      </trkpt>
      <trkpt lat="50.76008" lon="3.67458">
        <ele>109</ele>
        <time>2015-12-13T10:31:51Z</time>
      </trkpt>
      <trkpt lat="50.76009" lon="3.67455">
        <ele>109</ele>
        <time>2015-12-13T10:31:52Z</time>
      </trkpt>
      <trkpt lat="50.7601" lon="3.67452">
        <ele>109</ele>
        <time>2015-12-13T10:31:53Z</time>
      </trkpt>
      <trkpt lat="50.76012" lon="3.67448">
        <ele>109</ele>
        <time>2015-12-13T10:31:54Z</time>
      </trkpt>
      <trkpt lat="50.76013" lon="3.67445">
        <ele>109</ele>
        <time>2015-12-13T10:31:55Z</time>
      </trkpt>
      <trkpt lat="50.76014" lon="3.67441">
        <ele>109</ele>
        <time>2015-12-13T10:31:56Z</time>
      </trkpt>
      <trkpt lat="50.76015" lon="3.67438">
        <ele>109</ele>
        <time>2015-12-13T10:31:57Z</time>
      </trkpt>
      <trkpt lat="50.76016" lon="3.67434">
        <ele>109</ele>
        <time>2015-12-13T10:31:58Z</time>
      </trkpt>
      <trkpt lat="50.76016" lon="3.67431">
        <ele>109</ele>
        <time>2015-12-13T10:31:59Z</time>
      </trkpt>
      <trkpt lat="50.76018" lon="3.67427">
        <ele>109</ele>
        <time>2015-12-13T10:32:00Z</time>
      </trkpt>
      <trkpt lat="50.76019" lon="3.67424">
        <ele>110.4</ele>
        <time>2015-12-13T10:32:01Z</time>
      </trkpt>
      <trkpt lat="50.7602" lon="3.67421">
        <ele>111</ele>
        <time>2015-12-13T10:32:02Z</time>
      </trkpt>
      <trkpt lat="50.76021" lon="3.67417">
        <ele>111</ele>
        <time>2015-12-13T10:32:03Z</time>
      </trkpt>
      <trkpt lat="50.76022" lon="3.67414">
        <ele>111</ele>
        <time>2015-12-13T10:32:04Z</time>
      </trkpt>
      <trkpt lat="50.76023" lon="3.6741">
        <ele>111</ele>
        <time>2015-12-13T10:32:05Z</time>
      </trkpt>
      <trkpt lat="50.76024" lon="3.67406">
        <ele>111</ele>
        <time>2015-12-13T10:32:06Z</time>
      </trkpt>
      <trkpt lat="50.76026" lon="3.67403">
        <ele>111</ele>
        <time>2015-12-13T10:32:07Z</time>
      </trkpt>
      <trkpt lat="50.76027" lon="3.67399">
        <ele>111</ele>
        <time>2015-12-13T10:32:08Z</time>
      </trkpt>
      <trkpt lat="50.76028" lon="3.67396">
        <ele>111</ele>
        <time>2015-12-13T10:32:09Z</time>
      </trkpt>
      <trkpt lat="50.76029" lon="3.67392">
        <ele>111</ele>
        <time>2015-12-13T10:32:10Z</time>
      </trkpt>
      <trkpt lat="50.7603" lon="3.67388">
        <ele>111</ele>
        <time>2015-12-13T10:32:11Z</time>
      </trkpt>
      <trkpt lat="50.76031" lon="3.67385">
        <ele>111</ele>
        <time>2015-12-13T10:32:12Z</time>
      </trkpt>
      <trkpt lat="50.76032" lon="3.67382">
        <ele>111</ele>
        <time>2015-12-13T10:32:13Z</time>
      </trkpt>
      <trkpt lat="50.76033" lon="3.67379">
        <ele>111</ele>
        <time>2015-12-13T10:32:14Z</time>
      </trkpt>
      <trkpt lat="50.76034" lon="3.67375">
        <ele>111</ele>
        <time>2015-12-13T10:32:15Z</time>
      </trkpt>
      <trkpt lat="50.76035" lon="3.67372">
        <ele>111</ele>
        <time>2015-12-13T10:32:16Z</time>
      </trkpt>
      <trkpt lat="50.76036" lon="3.67369">
        <ele>111</ele>
        <time>2015-12-13T10:32:17Z</time>
      </trkpt>
      <trkpt lat="50.76037" lon="3.67365">
        <ele>111</ele>
        <time>2015-12-13T10:32:18Z</time>
      </trkpt>
      <trkpt lat="50.76038" lon="3.67362">
        <ele>111</ele>
        <time>2015-12-13T10:32:19Z</time>
      </trkpt>
      <trkpt lat="50.76039" lon="3.67358">
        <ele>111</ele>
        <time>2015-12-13T10:32:20Z</time>
      </trkpt>
      <trkpt lat="50.76039" lon="3.67355">
        <ele>111</ele>
        <time>2015-12-13T10:32:21Z</time>
      </trkpt>
      <trkpt lat="50.7604" lon="3.67352">
        <ele>111</ele>
        <time>2015-12-13T10:32:22Z</time>
      </trkpt>
      <trkpt lat="50.76041" lon="3.67348">
        <ele>111</ele>
        <time>2015-12-13T10:32:23Z</time>
      </trkpt>
      <trkpt lat="50.76042" lon="3.67344">
        <ele>111</ele>
        <time>2015-12-13T10:32:24Z</time>
      </trkpt>
      <trkpt lat="50.76043" lon="3.67341">
        <ele>111</ele>
        <time>2015-12-13T10:32:25Z</time>
      </trkpt>
      <trkpt lat="50.76044" lon="3.67337">
        <ele>111</ele>
        <time>2015-12-13T10:32:26Z</time>
      </trkpt>
      <trkpt lat="50.76045" lon="3.67333">
        <ele>111</ele>
        <time>2015-12-13T10:32:27Z</time>
      </trkpt>
      <trkpt lat="50.76045" lon="3.6733">
        <ele>111</ele>
        <time>2015-12-13T10:32:28Z</time>
      </trkpt>
      <trkpt lat="50.76046" lon="3.67326">
        <ele>111</ele>
        <time>2015-12-13T10:32:29Z</time>
      </trkpt>
      <trkpt lat="50.76047" lon="3.67322">
        <ele>111</ele>
        <time>2015-12-13T10:32:30Z</time>
      </trkpt>
      <trkpt lat="50.76048" lon="3.67318">
        <ele>111</ele>
        <time>2015-12-13T10:32:31Z</time>
      </trkpt>
      <trkpt lat="50.76048" lon="3.67314">
        <ele>111</ele>
        <time>2015-12-13T10:32:32Z</time>
      </trkpt>
      <trkpt lat="50.76049" lon="3.67311">
        <ele>111</ele>
        <time>2015-12-13T10:32:33Z</time>
      </trkpt>
      <trkpt lat="50.7605" lon="3.67307">
        <ele>111</ele>
        <time>2015-12-13T10:32:34Z</time>
      </trkpt>
      <trkpt lat="50.7605" lon="3.67303">
        <ele>111</ele>
        <time>2015-12-13T10:32:35Z</time>
      </trkpt>
      <trkpt lat="50.76051" lon="3.673">
        <ele>111</ele>
        <time>2015-12-13T10:32:36Z</time>
      </trkpt>
      <trkpt lat="50.76052" lon="3.67296">
        <ele>111</ele>
        <time>2015-12-13T10:32:37Z</time>
      </trkpt>
      <trkpt lat="50.76053" lon="3.67293">
        <ele>111</ele>
        <time>2015-12-13T10:32:38Z</time>
      </trkpt>
      <trkpt lat="50.76054" lon="3.6729">
        <ele>111</ele>
        <time>2015-12-13T10:32:39Z</time>
      </trkpt>
      <trkpt lat="50.76055" lon="3.67286">
        <ele>111</ele>
        <time>2015-12-13T10:32:40Z</time>
      </trkpt>
      <trkpt lat="50.76056" lon="3.67283">
        <ele>112.1</ele>
        <time>2015-12-13T10:32:41Z</time>
      </trkpt>
      <trkpt lat="50.76057" lon="3.67279">
        <ele>113</ele>
        <time>2015-12-13T10:32:42Z</time>
      </trkpt>
      <trkpt lat="50.76057" lon="3.67276">
        <ele>113</ele>
        <time>2015-12-13T10:32:43Z</time>
      </trkpt>
      <trkpt lat="50.76058" lon="3.67273">
        <ele>113</ele>
        <time>2015-12-13T10:32:44Z</time>
      </trkpt>
      <trkpt lat="50.76059" lon="3.67269">
        <ele>113</ele>
        <time>2015-12-13T10:32:45Z</time>
      </trkpt>
      <trkpt lat="50.7606" lon="3.67266">
        <ele>113</ele>
        <time>2015-12-13T10:32:46Z</time>
      </trkpt>
      <trkpt lat="50.7606" lon="3.67262">
        <ele>113</ele>
        <time>2015-12-13T10:32:47Z</time>
      </trkpt>
      <trkpt lat="50.76061" lon="3.67259">
        <ele>113</ele>
        <time>2015-12-13T10:32:48Z</time>
      </trkpt>
      <trkpt lat="50.76061" lon="3.67255">
        <ele>113</ele>
        <time>2015-12-13T10:32:49Z</time>
      </trkpt>
      <trkpt lat="50.76062" lon="3.67252">
        <ele>113</ele>
        <time>2015-12-13T10:32:50Z</time>
      </trkpt>
      <trkpt lat="50.76063" lon="3.67248">
        <ele>113.7</ele>
        <time>2015-12-13T10:32:51Z</time>
      </trkpt>
      <trkpt lat="50.76063" lon="3.67245">
        <ele>114</ele>
        <time>2015-12-13T10:32:52Z</time>
      </trkpt>
      <trkpt lat="50.76064" lon="3.67241">
        <ele>114</ele>
        <time>2015-12-13T10:32:53Z</time>
      </trkpt>
      <trkpt lat="50.76065" lon="3.67238">
        <ele>114</ele>
        <time>2015-12-13T10:32:54Z</time>
      </trkpt>
      <trkpt lat="50.76066" lon="3.67234">
        <ele>114</ele>
        <time>2015-12-13T10:32:55Z</time>
      </trkpt>
      <trkpt lat="50.76067" lon="3.67231">
        <ele>114</ele>
        <time>2015-12-13T10:32:56Z</time>
      </trkpt>
      <trkpt lat="50.76068" lon="3.67227">
        <ele>114</ele>
        <time>2015-12-13T10:32:57Z</time>
      </trkpt>
      <trkpt lat="50.76068" lon="3.67224">
        <ele>114</ele>
        <time>2015-12-13T10:32:58Z</time>
      </trkpt>
      <trkpt lat="50.76069" lon="3.6722">
        <ele>114</ele>
        <time>2015-12-13T10:32:59Z</time>
      </trkpt>
      <trkpt lat="50.7607" lon="3.67217">
        <ele>114</ele>
        <time>2015-12-13T10:33:00Z</time>
      </trkpt>
      <trkpt lat="50.76071" lon="3.67213">
        <ele>114.5</ele>
        <time>2015-12-13T10:33:01Z</time>
      </trkpt>
      <trkpt lat="50.76072" lon="3.6721">
        <ele>115</ele>
        <time>2015-12-13T10:33:02Z</time>
      </trkpt>
      <trkpt lat="50.76073" lon="3.67207">
        <ele>115</ele>
        <time>2015-12-13T10:33:03Z</time>
      </trkpt>
      <trkpt lat="50.76075" lon="3.67203">
        <ele>115</ele>
        <time>2015-12-13T10:33:04Z</time>
      </trkpt>
      <trkpt lat="50.76075" lon="3.67201">
        <ele>115</ele>
        <time>2015-12-13T10:33:05Z</time>
      </trkpt>
      <trkpt lat="50.76077" lon="3.67197">
        <ele>115</ele>
        <time>2015-12-13T10:33:07Z</time>
      </trkpt>
      <trkpt lat="50.76078" lon="3.67194">
        <ele>115</ele>
        <time>2015-12-13T10:33:09Z</time>
      </trkpt>
      <trkpt lat="50.7608" lon="3.6719">
        <ele>115</ele>
        <time>2015-12-13T10:33:11Z</time>
      </trkpt>
      <trkpt lat="50.76081" lon="3.67187">
        <ele>115</ele>
        <time>2015-12-13T10:33:13Z</time>
      </trkpt>
      <trkpt lat="50.76082" lon="3.67183">
        <ele>115</ele>
        <time>2015-12-13T10:33:15Z</time>
      </trkpt>
      <trkpt lat="50.76084" lon="3.67179">
        <ele>115</ele>
        <time>2015-12-13T10:33:17Z</time>
      </trkpt>
      <trkpt lat="50.76086" lon="3.67175">
        <ele>115</ele>
        <time>2015-12-13T10:33:19Z</time>
      </trkpt>
      <trkpt lat="50.76087" lon="3.67171">
        <ele>116.4</ele>
        <time>2015-12-13T10:33:21Z</time>
      </trkpt>
      <trkpt lat="50.76089" lon="3.67168">
        <ele>117</ele>
        <time>2015-12-13T10:33:23Z</time>
      </trkpt>
      <trkpt lat="50.7609" lon="3.67165">
        <ele>117</ele>
        <time>2015-12-13T10:33:25Z</time>
      </trkpt>
      <trkpt lat="50.76092" lon="3.67161">
        <ele>117</ele>
        <time>2015-12-13T10:33:27Z</time>
      </trkpt>
      <trkpt lat="50.76094" lon="3.67158">
        <ele>116.3</ele>
        <time>2015-12-13T10:33:29Z</time>
      </trkpt>
      <trkpt lat="50.76095" lon="3.67154">
        <ele>117.4</ele>
        <time>2015-12-13T10:33:31Z</time>
      </trkpt>
      <trkpt lat="50.76097" lon="3.6715">
        <ele>118</ele>
        <time>2015-12-13T10:33:33Z</time>
      </trkpt>
      <trkpt lat="50.76099" lon="3.67146">
        <ele>118</ele>
        <time>2015-12-13T10:33:35Z</time>
      </trkpt>
      <trkpt lat="50.761" lon="3.67142">
        <ele>118</ele>
        <time>2015-12-13T10:33:37Z</time>
      </trkpt>
      <trkpt lat="50.76102" lon="3.67139">
        <ele>118</ele>
        <time>2015-12-13T10:33:39Z</time>
      </trkpt>
      <trkpt lat="50.76103" lon="3.67135">
        <ele>118.7</ele>
        <time>2015-12-13T10:33:41Z</time>
      </trkpt>
      <trkpt lat="50.76104" lon="3.67131">
        <ele>119</ele>
        <time>2015-12-13T10:33:43Z</time>
      </trkpt>
      <trkpt lat="50.76106" lon="3.67128">
        <ele>119</ele>
        <time>2015-12-13T10:33:45Z</time>
      </trkpt>
      <trkpt lat="50.76106" lon="3.67123">
        <ele>119</ele>
        <time>2015-12-13T10:33:47Z</time>
      </trkpt>
      <trkpt lat="50.76108" lon="3.67119">
        <ele>119</ele>
        <time>2015-12-13T10:33:49Z</time>
      </trkpt>
      <trkpt lat="50.76109" lon="3.67115">
        <ele>119</ele>
        <time>2015-12-13T10:33:51Z</time>
      </trkpt>
      <trkpt lat="50.76109" lon="3.67111">
        <ele>119</ele>
        <time>2015-12-13T10:33:53Z</time>
      </trkpt>
      <trkpt lat="50.7611" lon="3.67106">
        <ele>119</ele>
        <time>2015-12-13T10:33:55Z</time>
      </trkpt>
      <trkpt lat="50.76111" lon="3.67102">
        <ele>119</ele>
        <time>2015-12-13T10:33:57Z</time>
      </trkpt>
      <trkpt lat="50.76113" lon="3.67097">
        <ele>119</ele>
        <time>2015-12-13T10:33:59Z</time>
      </trkpt>
      <trkpt lat="50.76113" lon="3.67094">
        <ele>119</ele>
        <time>2015-12-13T10:34:00Z</time>
      </trkpt>
      <trkpt lat="50.76114" lon="3.67091">
        <ele>118.3</ele>
        <time>2015-12-13T10:34:01Z</time>
      </trkpt>
      <trkpt lat="50.76115" lon="3.67087">
        <ele>118</ele>
        <time>2015-12-13T10:34:02Z</time>
      </trkpt>
      <trkpt lat="50.76115" lon="3.67084">
        <ele>118</ele>
        <time>2015-12-13T10:34:03Z</time>
      </trkpt>
      <trkpt lat="50.76116" lon="3.6708">
        <ele>118</ele>
        <time>2015-12-13T10:34:04Z</time>
      </trkpt>
      <trkpt lat="50.76117" lon="3.67076">
        <ele>118</ele>
        <time>2015-12-13T10:34:05Z</time>
      </trkpt>
      <trkpt lat="50.76118" lon="3.67073">
        <ele>118</ele>
        <time>2015-12-13T10:34:06Z</time>
      </trkpt>
      <trkpt lat="50.76119" lon="3.67069">
        <ele>118</ele>
        <time>2015-12-13T10:34:07Z</time>
      </trkpt>
      <trkpt lat="50.76119" lon="3.67065">
        <ele>118</ele>
        <time>2015-12-13T10:34:08Z</time>
      </trkpt>
      <trkpt lat="50.7612" lon="3.67062">
        <ele>118</ele>
        <time>2015-12-13T10:34:09Z</time>
      </trkpt>
      <trkpt lat="50.76121" lon="3.67058">
        <ele>118</ele>
        <time>2015-12-13T10:34:10Z</time>
      </trkpt>
      <trkpt lat="50.76122" lon="3.67054">
        <ele>117.5</ele>
        <time>2015-12-13T10:34:11Z</time>
      </trkpt>
      <trkpt lat="50.76122" lon="3.67051">
        <ele>117</ele>
        <time>2015-12-13T10:34:12Z</time>
      </trkpt>
      <trkpt lat="50.76123" lon="3.67047">
        <ele>117</ele>
        <time>2015-12-13T10:34:13Z</time>
      </trkpt>
      <trkpt lat="50.76124" lon="3.67043">
        <ele>117</ele>
        <time>2015-12-13T10:34:14Z</time>
      </trkpt>
      <trkpt lat="50.76125" lon="3.6704">
        <ele>117</ele>
        <time>2015-12-13T10:34:15Z</time>
      </trkpt>
      <trkpt lat="50.76126" lon="3.67036">
        <ele>117</ele>
        <time>2015-12-13T10:34:16Z</time>
      </trkpt>
      <trkpt lat="50.76127" lon="3.67032">
        <ele>117</ele>
        <time>2015-12-13T10:34:17Z</time>
      </trkpt>
      <trkpt lat="50.76128" lon="3.67028">
        <ele>117</ele>
        <time>2015-12-13T10:34:18Z</time>
      </trkpt>
      <trkpt lat="50.76129" lon="3.67025">
        <ele>117</ele>
        <time>2015-12-13T10:34:19Z</time>
      </trkpt>
      <trkpt lat="50.7613" lon="3.67021">
        <ele>117</ele>
        <time>2015-12-13T10:34:20Z</time>
      </trkpt>
      <trkpt lat="50.76131" lon="3.67017">
        <ele>116.3</ele>
        <time>2015-12-13T10:34:21Z</time>
      </trkpt>
      <trkpt lat="50.76132" lon="3.67013">
        <ele>116</ele>
        <time>2015-12-13T10:34:22Z</time>
      </trkpt>
      <trkpt lat="50.76133" lon="3.67009">
        <ele>116</ele>
        <time>2015-12-13T10:34:23Z</time>
      </trkpt>
      <trkpt lat="50.76134" lon="3.67005">
        <ele>116</ele>
        <time>2015-12-13T10:34:24Z</time>
      </trkpt>
      <trkpt lat="50.76135" lon="3.67002">
        <ele>116</ele>
        <time>2015-12-13T10:34:25Z</time>
      </trkpt>
      <trkpt lat="50.76136" lon="3.66998">
        <ele>116</ele>
        <time>2015-12-13T10:34:26Z</time>
      </trkpt>
      <trkpt lat="50.76137" lon="3.66994">
        <ele>116</ele>
        <time>2015-12-13T10:34:27Z</time>
      </trkpt>
      <trkpt lat="50.76138" lon="3.6699">
        <ele>116</ele>
        <time>2015-12-13T10:34:28Z</time>
      </trkpt>
      <trkpt lat="50.76139" lon="3.66986">
        <ele>116</ele>
        <time>2015-12-13T10:34:29Z</time>
      </trkpt>
      <trkpt lat="50.7614" lon="3.66983">
        <ele>116</ele>
        <time>2015-12-13T10:34:30Z</time>
      </trkpt>
      <trkpt lat="50.76141" lon="3.66979">
        <ele>114.9</ele>
        <time>2015-12-13T10:34:31Z</time>
      </trkpt>
      <trkpt lat="50.76142" lon="3.66975">
        <ele>114</ele>
        <time>2015-12-13T10:34:32Z</time>
      </trkpt>
      <trkpt lat="50.76143" lon="3.66972">
        <ele>114</ele>
        <time>2015-12-13T10:34:33Z</time>
      </trkpt>
      <trkpt lat="50.76145" lon="3.66968">
        <ele>114</ele>
        <time>2015-12-13T10:34:34Z</time>
      </trkpt>
      <trkpt lat="50.76146" lon="3.66964">
        <ele>114</ele>
        <time>2015-12-13T10:34:35Z</time>
      </trkpt>
      <trkpt lat="50.76147" lon="3.66961">
        <ele>113.5</ele>
        <time>2015-12-13T10:34:36Z</time>
      </trkpt>
      <trkpt lat="50.76148" lon="3.66957">
        <ele>113</ele>
        <time>2015-12-13T10:34:37Z</time>
      </trkpt>
      <trkpt lat="50.76149" lon="3.66953">
        <ele>113</ele>
        <time>2015-12-13T10:34:38Z</time>
      </trkpt>
      <trkpt lat="50.7615" lon="3.66949">
        <ele>113</ele>
        <time>2015-12-13T10:34:39Z</time>
      </trkpt>
      <trkpt lat="50.76151" lon="3.66945">
        <ele>113</ele>
        <time>2015-12-13T10:34:40Z</time>
      </trkpt>
      <trkpt lat="50.76152" lon="3.66941">
        <ele>113</ele>
        <time>2015-12-13T10:34:41Z</time>
      </trkpt>
      <trkpt lat="50.76153" lon="3.66938">
        <ele>113</ele>
        <time>2015-12-13T10:34:42Z</time>
      </trkpt>
      <trkpt lat="50.76154" lon="3.66935">
        <ele>113</ele>
        <time>2015-12-13T10:34:43Z</time>
      </trkpt>
      <trkpt lat="50.76155" lon="3.66931">
        <ele>113</ele>
        <time>2015-12-13T10:34:44Z</time>
      </trkpt>
      <trkpt lat="50.76155" lon="3.66927">
        <ele>113</ele>
        <time>2015-12-13T10:34:45Z</time>
      </trkpt>
      <trkpt lat="50.76156" lon="3.66924">
        <ele>113</ele>
        <time>2015-12-13T10:34:46Z</time>
      </trkpt>
      <trkpt lat="50.76157" lon="3.6692">
        <ele>113</ele>
        <time>2015-12-13T10:34:47Z</time>
      </trkpt>
      <trkpt lat="50.76158" lon="3.66916">
        <ele>113</ele>
        <time>2015-12-13T10:34:48Z</time>
      </trkpt>
      <trkpt lat="50.76159" lon="3.66912">
        <ele>113</ele>
        <time>2015-12-13T10:34:49Z</time>
      </trkpt>
      <trkpt lat="50.7616" lon="3.66908">
        <ele>113</ele>
        <time>2015-12-13T10:34:50Z</time>
      </trkpt>
      <trkpt lat="50.76161" lon="3.66904">
        <ele>112.5</ele>
        <time>2015-12-13T10:34:51Z</time>
      </trkpt>
      <trkpt lat="50.76161" lon="3.669">
        <ele>112</ele>
        <time>2015-12-13T10:34:52Z</time>
      </trkpt>
      <trkpt lat="50.76161" lon="3.66895">
        <ele>112</ele>
        <time>2015-12-13T10:34:53Z</time>
      </trkpt>
      <trkpt lat="50.76162" lon="3.66891">
        <ele>112</ele>
        <time>2015-12-13T10:34:54Z</time>
      </trkpt>
      <trkpt lat="50.76162" lon="3.66887">
        <ele>112</ele>
        <time>2015-12-13T10:34:55Z</time>
      </trkpt>
      <trkpt lat="50.76163" lon="3.66883">
        <ele>112</ele>
        <time>2015-12-13T10:34:56Z</time>
      </trkpt>
      <trkpt lat="50.76163" lon="3.66878">
        <ele>112</ele>
        <time>2015-12-13T10:34:57Z</time>
      </trkpt>
      <trkpt lat="50.76163" lon="3.66874">
        <ele>112</ele>
        <time>2015-12-13T10:34:58Z</time>
      </trkpt>
      <trkpt lat="50.76163" lon="3.66869">
        <ele>112</ele>
        <time>2015-12-13T10:34:59Z</time>
      </trkpt>
      <trkpt lat="50.76163" lon="3.66865">
        <ele>112</ele>
        <time>2015-12-13T10:35:00Z</time>
      </trkpt>
      <trkpt lat="50.76163" lon="3.66861">
        <ele>111.3</ele>
        <time>2015-12-13T10:35:01Z</time>
      </trkpt>
      <trkpt lat="50.76163" lon="3.66857">
        <ele>111</ele>
        <time>2015-12-13T10:35:02Z</time>
      </trkpt>
      <trkpt lat="50.76163" lon="3.66853">
        <ele>111</ele>
        <time>2015-12-13T10:35:03Z</time>
      </trkpt>
      <trkpt lat="50.76163" lon="3.66848">
        <ele>111</ele>
        <time>2015-12-13T10:35:04Z</time>
      </trkpt>
      <trkpt lat="50.76163" lon="3.66844">
        <ele>111</ele>
        <time>2015-12-13T10:35:05Z</time>
      </trkpt>
      <trkpt lat="50.76163" lon="3.6684">
        <ele>111</ele>
        <time>2015-12-13T10:35:06Z</time>
      </trkpt>
      <trkpt lat="50.76162" lon="3.66836">
        <ele>111</ele>
        <time>2015-12-13T10:35:07Z</time>
      </trkpt>
      <trkpt lat="50.76162" lon="3.66832">
        <ele>111</ele>
        <time>2015-12-13T10:35:08Z</time>
      </trkpt>
      <trkpt lat="50.76162" lon="3.66828">
        <ele>111</ele>
        <time>2015-12-13T10:35:09Z</time>
      </trkpt>
      <trkpt lat="50.76161" lon="3.66824">
        <ele>111</ele>
        <time>2015-12-13T10:35:10Z</time>
      </trkpt>
      <trkpt lat="50.76161" lon="3.6682">
        <ele>111</ele>
        <time>2015-12-13T10:35:11Z</time>
      </trkpt>
      <trkpt lat="50.7616" lon="3.66816">
        <ele>111</ele>
        <time>2015-12-13T10:35:12Z</time>
      </trkpt>
      <trkpt lat="50.7616" lon="3.66812">
        <ele>111</ele>
        <time>2015-12-13T10:35:13Z</time>
      </trkpt>
      <trkpt lat="50.76159" lon="3.66808">
        <ele>111</ele>
        <time>2015-12-13T10:35:14Z</time>
      </trkpt>
      <trkpt lat="50.76159" lon="3.66804">
        <ele>111</ele>
        <time>2015-12-13T10:35:15Z</time>
      </trkpt>
      <trkpt lat="50.76158" lon="3.66801">
        <ele>111</ele>
        <time>2015-12-13T10:35:16Z</time>
      </trkpt>
      <trkpt lat="50.76158" lon="3.66798">
        <ele>111</ele>
        <time>2015-12-13T10:35:17Z</time>
      </trkpt>
      <trkpt lat="50.76157" lon="3.66793">
        <ele>111</ele>
        <time>2015-12-13T10:35:18Z</time>
      </trkpt>
      <trkpt lat="50.76156" lon="3.66789">
        <ele>111</ele>
        <time>2015-12-13T10:35:19Z</time>
      </trkpt>
      <trkpt lat="50.76155" lon="3.66785">
        <ele>111</ele>
        <time>2015-12-13T10:35:20Z</time>
      </trkpt>
      <trkpt lat="50.76154" lon="3.66781">
        <ele>110.3</ele>
        <time>2015-12-13T10:35:21Z</time>
      </trkpt>
      <trkpt lat="50.76153" lon="3.66776">
        <ele>110</ele>
        <time>2015-12-13T10:35:22Z</time>
      </trkpt>
      <trkpt lat="50.76152" lon="3.66773">
        <ele>110</ele>
        <time>2015-12-13T10:35:23Z</time>
      </trkpt>
      <trkpt lat="50.76151" lon="3.66768">
        <ele>110</ele>
        <time>2015-12-13T10:35:24Z</time>
      </trkpt>
      <trkpt lat="50.7615" lon="3.66765">
        <ele>110</ele>
        <time>2015-12-13T10:35:25Z</time>
      </trkpt>
      <trkpt lat="50.76149" lon="3.66761">
        <ele>110</ele>
        <time>2015-12-13T10:35:26Z</time>
      </trkpt>
      <trkpt lat="50.76148" lon="3.66757">
        <ele>110</ele>
        <time>2015-12-13T10:35:27Z</time>
      </trkpt>
      <trkpt lat="50.76147" lon="3.66753">
        <ele>110</ele>
        <time>2015-12-13T10:35:28Z</time>
      </trkpt>
      <trkpt lat="50.76146" lon="3.66749">
        <ele>110</ele>
        <time>2015-12-13T10:35:29Z</time>
      </trkpt>
      <trkpt lat="50.76145" lon="3.66746">
        <ele>110</ele>
        <time>2015-12-13T10:35:30Z</time>
      </trkpt>
      <trkpt lat="50.76144" lon="3.66742">
        <ele>108.6</ele>
        <time>2015-12-13T10:35:31Z</time>
      </trkpt>
      <trkpt lat="50.76143" lon="3.66739">
        <ele>108</ele>
        <time>2015-12-13T10:35:32Z</time>
      </trkpt>
      <trkpt lat="50.76142" lon="3.66735">
        <ele>108</ele>
        <time>2015-12-13T10:35:33Z</time>
      </trkpt>
      <trkpt lat="50.76141" lon="3.66731">
        <ele>108</ele>
        <time>2015-12-13T10:35:34Z</time>
      </trkpt>
      <trkpt lat="50.7614" lon="3.66727">
        <ele>108</ele>
        <time>2015-12-13T10:35:35Z</time>
      </trkpt>
      <trkpt lat="50.76139" lon="3.66723">
        <ele>108</ele>
        <time>2015-12-13T10:35:36Z</time>
      </trkpt>
      <trkpt lat="50.76138" lon="3.6672">
        <ele>108</ele>
        <time>2015-12-13T10:35:37Z</time>
      </trkpt>
      <trkpt lat="50.76136" lon="3.66717">
        <ele>108</ele>
        <time>2015-12-13T10:35:38Z</time>
      </trkpt>
      <trkpt lat="50.76135" lon="3.66714">
        <ele>108</ele>
        <time>2015-12-13T10:35:39Z</time>
      </trkpt>
      <trkpt lat="50.76134" lon="3.6671">
        <ele>108</ele>
        <time>2015-12-13T10:35:40Z</time>
      </trkpt>
      <trkpt lat="50.76133" lon="3.66707">
        <ele>107.3</ele>
        <time>2015-12-13T10:35:41Z</time>
      </trkpt>
      <trkpt lat="50.76132" lon="3.66703">
        <ele>107</ele>
        <time>2015-12-13T10:35:42Z</time>
      </trkpt>
      <trkpt lat="50.76131" lon="3.667">
        <ele>107</ele>
        <time>2015-12-13T10:35:43Z</time>
      </trkpt>
      <trkpt lat="50.7613" lon="3.66696">
        <ele>107</ele>
        <time>2015-12-13T10:35:44Z</time>
      </trkpt>
      <trkpt lat="50.76128" lon="3.66693">
        <ele>107</ele>
        <time>2015-12-13T10:35:45Z</time>
      </trkpt>
      <trkpt lat="50.76127" lon="3.66689">
        <ele>107</ele>
        <time>2015-12-13T10:35:46Z</time>
      </trkpt>
      <trkpt lat="50.76125" lon="3.66686">
        <ele>107</ele>
        <time>2015-12-13T10:35:47Z</time>
      </trkpt>
      <trkpt lat="50.76124" lon="3.66683">
        <ele>107</ele>
        <time>2015-12-13T10:35:48Z</time>
      </trkpt>
      <trkpt lat="50.76122" lon="3.66679">
        <ele>107</ele>
        <time>2015-12-13T10:35:49Z</time>
      </trkpt>
      <trkpt lat="50.76121" lon="3.66676">
        <ele>107</ele>
        <time>2015-12-13T10:35:50Z</time>
      </trkpt>
      <trkpt lat="50.7612" lon="3.66672">
        <ele>106.5</ele>
        <time>2015-12-13T10:35:51Z</time>
      </trkpt>
      <trkpt lat="50.76119" lon="3.66668">
        <ele>106</ele>
        <time>2015-12-13T10:35:52Z</time>
      </trkpt>
      <trkpt lat="50.76117" lon="3.66665">
        <ele>106</ele>
        <time>2015-12-13T10:35:53Z</time>
      </trkpt>
      <trkpt lat="50.76116" lon="3.66661">
        <ele>106</ele>
        <time>2015-12-13T10:35:54Z</time>
      </trkpt>
      <trkpt lat="50.76114" lon="3.66658">
        <ele>106</ele>
        <time>2015-12-13T10:35:55Z</time>
      </trkpt>
      <trkpt lat="50.76113" lon="3.66654">
        <ele>106</ele>
        <time>2015-12-13T10:35:56Z</time>
      </trkpt>
      <trkpt lat="50.76112" lon="3.66651">
        <ele>106</ele>
        <time>2015-12-13T10:35:57Z</time>
      </trkpt>
      <trkpt lat="50.7611" lon="3.66647">
        <ele>106</ele>
        <time>2015-12-13T10:35:58Z</time>
      </trkpt>
      <trkpt lat="50.76109" lon="3.66644">
        <ele>106</ele>
        <time>2015-12-13T10:35:59Z</time>
      </trkpt>
      <trkpt lat="50.76108" lon="3.6664">
        <ele>106</ele>
        <time>2015-12-13T10:36:00Z</time>
      </trkpt>
      <trkpt lat="50.76106" lon="3.66637">
        <ele>104.6</ele>
        <time>2015-12-13T10:36:01Z</time>
      </trkpt>
      <trkpt lat="50.76105" lon="3.66633">
        <ele>104</ele>
        <time>2015-12-13T10:36:02Z</time>
      </trkpt>
      <trkpt lat="50.76104" lon="3.66629">
        <ele>104</ele>
        <time>2015-12-13T10:36:03Z</time>
      </trkpt>
      <trkpt lat="50.76103" lon="3.66626">
        <ele>104</ele>
        <time>2015-12-13T10:36:04Z</time>
      </trkpt>
      <trkpt lat="50.76102" lon="3.66622">
        <ele>104</ele>
        <time>2015-12-13T10:36:05Z</time>
      </trkpt>
      <trkpt lat="50.761" lon="3.66619">
        <ele>104</ele>
        <time>2015-12-13T10:36:06Z</time>
      </trkpt>
      <trkpt lat="50.76099" lon="3.66615">
        <ele>104</ele>
        <time>2015-12-13T10:36:07Z</time>
      </trkpt>
      <trkpt lat="50.76098" lon="3.66612">
        <ele>104</ele>
        <time>2015-12-13T10:36:08Z</time>
      </trkpt>
      <trkpt lat="50.76097" lon="3.66609">
        <ele>104</ele>
        <time>2015-12-13T10:36:09Z</time>
      </trkpt>
      <trkpt lat="50.76096" lon="3.66605">
        <ele>104</ele>
        <time>2015-12-13T10:36:10Z</time>
      </trkpt>
      <trkpt lat="50.76095" lon="3.66602">
        <ele>104</ele>
        <time>2015-12-13T10:36:11Z</time>
      </trkpt>
      <trkpt lat="50.76093" lon="3.66599">
        <ele>104</ele>
        <time>2015-12-13T10:36:12Z</time>
      </trkpt>
      <trkpt lat="50.76092" lon="3.66595">
        <ele>104</ele>
        <time>2015-12-13T10:36:13Z</time>
      </trkpt>
      <trkpt lat="50.76091" lon="3.66591">
        <ele>104</ele>
        <time>2015-12-13T10:36:14Z</time>
      </trkpt>
      <trkpt lat="50.7609" lon="3.66587">
        <ele>104</ele>
        <time>2015-12-13T10:36:15Z</time>
      </trkpt>
      <trkpt lat="50.76088" lon="3.66584">
        <ele>104</ele>
        <time>2015-12-13T10:36:16Z</time>
      </trkpt>
      <trkpt lat="50.76087" lon="3.6658">
        <ele>104</ele>
        <time>2015-12-13T10:36:17Z</time>
      </trkpt>
      <trkpt lat="50.76086" lon="3.66577">
        <ele>104</ele>
        <time>2015-12-13T10:36:18Z</time>
      </trkpt>
      <trkpt lat="50.76084" lon="3.66573">
        <ele>104</ele>
        <time>2015-12-13T10:36:19Z</time>
      </trkpt>
      <trkpt lat="50.76083" lon="3.66571">
        <ele>104</ele>
        <time>2015-12-13T10:36:20Z</time>
      </trkpt>
      <trkpt lat="50.76081" lon="3.66569">
        <ele>102.6</ele>
        <time>2015-12-13T10:36:21Z</time>
      </trkpt>
      <trkpt lat="50.76079" lon="3.66566">
        <ele>102</ele>
        <time>2015-12-13T10:36:23Z</time>
      </trkpt>
      <trkpt lat="50.76078" lon="3.66562">
        <ele>102</ele>
        <time>2015-12-13T10:36:25Z</time>
      </trkpt>
      <trkpt lat="50.76077" lon="3.66559">
        <ele>100</ele>
        <time>2015-12-13T10:36:27Z</time>
      </trkpt>
      <trkpt lat="50.76076" lon="3.6656">
        <ele>100</ele>
        <time>2015-12-13T10:38:35Z</time>
      </trkpt>
      <trkpt lat="50.76073" lon="3.66558">
        <ele>100</ele>
        <time>2015-12-13T10:38:37Z</time>
      </trkpt>
      <trkpt lat="50.76071" lon="3.66557">
        <ele>100</ele>
        <time>2015-12-13T10:38:38Z</time>
      </trkpt>
      <trkpt lat="50.76068" lon="3.66556">
        <ele>100</ele>
        <time>2015-12-13T10:38:39Z</time>
      </trkpt>
      <trkpt lat="50.76066" lon="3.66555">
        <ele>100</ele>
        <time>2015-12-13T10:38:40Z</time>
      </trkpt>
      <trkpt lat="50.76064" lon="3.66554">
        <ele>100</ele>
        <time>2015-12-13T10:38:41Z</time>
      </trkpt>
      <trkpt lat="50.76062" lon="3.66553">
        <ele>100</ele>
        <time>2015-12-13T10:38:42Z</time>
      </trkpt>
      <trkpt lat="50.7606" lon="3.66552">
        <ele>100</ele>
        <time>2015-12-13T10:38:43Z</time>
      </trkpt>
      <trkpt lat="50.76058" lon="3.66551">
        <ele>100</ele>
        <time>2015-12-13T10:38:44Z</time>
      </trkpt>
      <trkpt lat="50.76056" lon="3.66549">
        <ele>100</ele>
        <time>2015-12-13T10:38:45Z</time>
      </trkpt>
      <trkpt lat="50.76054" lon="3.66548">
        <ele>100</ele>
        <time>2015-12-13T10:38:46Z</time>
      </trkpt>
      <trkpt lat="50.76052" lon="3.66546">
        <ele>100</ele>
        <time>2015-12-13T10:38:47Z</time>
      </trkpt>
      <trkpt lat="50.76051" lon="3.66545">
        <ele>100</ele>
        <time>2015-12-13T10:38:48Z</time>
      </trkpt>
      <trkpt lat="50.76049" lon="3.66544">
        <ele>100</ele>
        <time>2015-12-13T10:38:49Z</time>
      </trkpt>
      <trkpt lat="50.76047" lon="3.66542">
        <ele>100</ele>
        <time>2015-12-13T10:38:50Z</time>
      </trkpt>
      <trkpt lat="50.76045" lon="3.66541">
        <ele>99.3</ele>
        <time>2015-12-13T10:38:51Z</time>
      </trkpt>
      <trkpt lat="50.76043" lon="3.66539">
        <ele>99</ele>
        <time>2015-12-13T10:38:52Z</time>
      </trkpt>
      <trkpt lat="50.76042" lon="3.66537">
        <ele>99</ele>
        <time>2015-12-13T10:38:53Z</time>
      </trkpt>
      <trkpt lat="50.7604" lon="3.66535">
        <ele>99</ele>
        <time>2015-12-13T10:38:54Z</time>
      </trkpt>
      <trkpt lat="50.76039" lon="3.66532">
        <ele>99</ele>
        <time>2015-12-13T10:38:55Z</time>
      </trkpt>
      <trkpt lat="50.76037" lon="3.6653">
        <ele>99</ele>
        <time>2015-12-13T10:38:56Z</time>
      </trkpt>
      <trkpt lat="50.76036" lon="3.66528">
        <ele>99</ele>
        <time>2015-12-13T10:38:58Z</time>
      </trkpt>
      <trkpt lat="50.76034" lon="3.66526">
        <ele>99</ele>
        <time>2015-12-13T10:39:00Z</time>
      </trkpt>
      <trkpt lat="50.76033" lon="3.66522">
        <ele>97</ele>
        <time>2015-12-13T10:39:02Z</time>
      </trkpt>
      <trkpt lat="50.76032" lon="3.66518">
        <ele>97</ele>
        <time>2015-12-13T10:39:04Z</time>
      </trkpt>
      <trkpt lat="50.76031" lon="3.66514">
        <ele>97</ele>
        <time>2015-12-13T10:39:06Z</time>
      </trkpt>
      <trkpt lat="50.7603" lon="3.66511">
        <ele>97</ele>
        <time>2015-12-13T10:39:08Z</time>
      </trkpt>
      <trkpt lat="50.76028" lon="3.66507">
        <ele>97</ele>
        <time>2015-12-13T10:39:10Z</time>
      </trkpt>
      <trkpt lat="50.76027" lon="3.66503">
        <ele>97</ele>
        <time>2015-12-13T10:39:12Z</time>
      </trkpt>
      <trkpt lat="50.76026" lon="3.66499">
        <ele>97</ele>
        <time>2015-12-13T10:39:14Z</time>
      </trkpt>
      <trkpt lat="50.76025" lon="3.66496">
        <ele>97</ele>
        <time>2015-12-13T10:39:16Z</time>
      </trkpt>
      <trkpt lat="50.76023" lon="3.66492">
        <ele>97</ele>
        <time>2015-12-13T10:39:18Z</time>
      </trkpt>
      <trkpt lat="50.76022" lon="3.66489">
        <ele>97</ele>
        <time>2015-12-13T10:39:20Z</time>
      </trkpt>
      <trkpt lat="50.76021" lon="3.66485">
        <ele>97</ele>
        <time>2015-12-13T10:39:22Z</time>
      </trkpt>
      <trkpt lat="50.7602" lon="3.66482">
        <ele>97</ele>
        <time>2015-12-13T10:39:24Z</time>
      </trkpt>
      <trkpt lat="50.76018" lon="3.66479">
        <ele>97</ele>
        <time>2015-12-13T10:39:26Z</time>
      </trkpt>
      <trkpt lat="50.76017" lon="3.66476">
        <ele>97</ele>
        <time>2015-12-13T10:39:28Z</time>
      </trkpt>
      <trkpt lat="50.76016" lon="3.66472">
        <ele>97</ele>
        <time>2015-12-13T10:39:30Z</time>
      </trkpt>
      <trkpt lat="50.76015" lon="3.66468">
        <ele>96</ele>
        <time>2015-12-13T10:39:32Z</time>
      </trkpt>
      <trkpt lat="50.76014" lon="3.66465">
        <ele>96</ele>
        <time>2015-12-13T10:39:34Z</time>
      </trkpt>
      <trkpt lat="50.76013" lon="3.66462">
        <ele>95.3</ele>
        <time>2015-12-13T10:39:41Z</time>
      </trkpt>
      <trkpt lat="50.76012" lon="3.66459">
        <ele>95</ele>
        <time>2015-12-13T10:39:43Z</time>
      </trkpt>
      <trkpt lat="50.7601" lon="3.66456">
        <ele>95</ele>
        <time>2015-12-13T10:39:45Z</time>
      </trkpt>
      <trkpt lat="50.76009" lon="3.66451">
        <ele>95</ele>
        <time>2015-12-13T10:39:47Z</time>
      </trkpt>
      <trkpt lat="50.76008" lon="3.66448">
        <ele>95</ele>
        <time>2015-12-13T10:39:49Z</time>
      </trkpt>
      <trkpt lat="50.76006" lon="3.66444">
        <ele>95</ele>
        <time>2015-12-13T10:39:51Z</time>
      </trkpt>
      <trkpt lat="50.76004" lon="3.6644">
        <ele>95</ele>
        <time>2015-12-13T10:39:53Z</time>
      </trkpt>
      <trkpt lat="50.76002" lon="3.66437">
        <ele>95</ele>
        <time>2015-12-13T10:39:55Z</time>
      </trkpt>
      <trkpt lat="50.76" lon="3.66434">
        <ele>95</ele>
        <time>2015-12-13T10:39:57Z</time>
      </trkpt>
      <trkpt lat="50.75999" lon="3.66431">
        <ele>95</ele>
        <time>2015-12-13T10:39:59Z</time>
      </trkpt>
      <trkpt lat="50.75998" lon="3.66427">
        <ele>94.3</ele>
        <time>2015-12-13T10:40:01Z</time>
      </trkpt>
      <trkpt lat="50.75998" lon="3.66423">
        <ele>94</ele>
        <time>2015-12-13T10:40:03Z</time>
      </trkpt>
      <trkpt lat="50.75999" lon="3.66418">
        <ele>94</ele>
        <time>2015-12-13T10:40:05Z</time>
      </trkpt>
      <trkpt lat="50.76001" lon="3.66414">
        <ele>94</ele>
        <time>2015-12-13T10:40:07Z</time>
      </trkpt>
      <trkpt lat="50.76003" lon="3.6641">
        <ele>94</ele>
        <time>2015-12-13T10:40:09Z</time>
      </trkpt>
      <trkpt lat="50.76005" lon="3.66406">
        <ele>93.3</ele>
        <time>2015-12-13T10:40:11Z</time>
      </trkpt>
      <trkpt lat="50.76007" lon="3.66403">
        <ele>93</ele>
        <time>2015-12-13T10:40:13Z</time>
      </trkpt>
      <trkpt lat="50.76008" lon="3.66399">
        <ele>93</ele>
        <time>2015-12-13T10:40:15Z</time>
      </trkpt>
      <trkpt lat="50.7601" lon="3.66394">
        <ele>93</ele>
        <time>2015-12-13T10:40:17Z</time>
      </trkpt>
      <trkpt lat="50.76012" lon="3.66391">
        <ele>93</ele>
        <time>2015-12-13T10:40:19Z</time>
      </trkpt>
      <trkpt lat="50.76013" lon="3.66387">
        <ele>92.3</ele>
        <time>2015-12-13T10:40:21Z</time>
      </trkpt>
      <trkpt lat="50.76015" lon="3.66384">
        <ele>92</ele>
        <time>2015-12-13T10:40:23Z</time>
      </trkpt>
      <trkpt lat="50.76016" lon="3.66381">
        <ele>92</ele>
        <time>2015-12-13T10:40:25Z</time>
      </trkpt>
      <trkpt lat="50.76017" lon="3.66379">
        <ele>92</ele>
        <time>2015-12-13T10:40:27Z</time>
      </trkpt>
      <trkpt lat="50.76019" lon="3.66377">
        <ele>92</ele>
        <time>2015-12-13T10:40:29Z</time>
      </trkpt>
      <trkpt lat="50.7602" lon="3.66374">
        <ele>91.3</ele>
        <time>2015-12-13T10:40:31Z</time>
      </trkpt>
      <trkpt lat="50.76022" lon="3.6637">
        <ele>91</ele>
        <time>2015-12-13T10:40:33Z</time>
      </trkpt>
      <trkpt lat="50.76028" lon="3.66358">
        <ele>91</ele>
        <time>2015-12-13T10:40:38Z</time>
      </trkpt>
      <trkpt lat="50.76029" lon="3.66355">
        <ele>91</ele>
        <time>2015-12-13T10:40:39Z</time>
      </trkpt>
      <trkpt lat="50.76031" lon="3.66352">
        <ele>89.6</ele>
        <time>2015-12-13T10:40:41Z</time>
      </trkpt>
      <trkpt lat="50.76031" lon="3.66349">
        <ele>89</ele>
        <time>2015-12-13T10:40:44Z</time>
      </trkpt>
      <trkpt lat="50.76032" lon="3.66345">
        <ele>89</ele>
        <time>2015-12-13T10:41:13Z</time>
      </trkpt>
      <trkpt lat="50.76034" lon="3.66342">
        <ele>89</ele>
        <time>2015-12-13T10:41:15Z</time>
      </trkpt>
      <trkpt lat="50.76037" lon="3.66337">
        <ele>89</ele>
        <time>2015-12-13T10:41:17Z</time>
      </trkpt>
      <trkpt lat="50.76038" lon="3.66334">
        <ele>89</ele>
        <time>2015-12-13T10:41:18Z</time>
      </trkpt>
      <trkpt lat="50.76039" lon="3.66332">
        <ele>89</ele>
        <time>2015-12-13T10:41:19Z</time>
      </trkpt>
      <trkpt lat="50.76041" lon="3.66329">
        <ele>89</ele>
        <time>2015-12-13T10:41:20Z</time>
      </trkpt>
      <trkpt lat="50.76042" lon="3.66327">
        <ele>88.3</ele>
        <time>2015-12-13T10:41:21Z</time>
      </trkpt>
      <trkpt lat="50.76043" lon="3.66325">
        <ele>88</ele>
        <time>2015-12-13T10:41:22Z</time>
      </trkpt>
      <trkpt lat="50.76045" lon="3.66322">
        <ele>88</ele>
        <time>2015-12-13T10:41:23Z</time>
      </trkpt>
      <trkpt lat="50.76046" lon="3.6632">
        <ele>88</ele>
        <time>2015-12-13T10:41:24Z</time>
      </trkpt>
      <trkpt lat="50.76047" lon="3.66317">
        <ele>88</ele>
        <time>2015-12-13T10:41:25Z</time>
      </trkpt>
      <trkpt lat="50.76049" lon="3.66314">
        <ele>88</ele>
        <time>2015-12-13T10:41:26Z</time>
      </trkpt>
      <trkpt lat="50.7605" lon="3.66311">
        <ele>88</ele>
        <time>2015-12-13T10:41:27Z</time>
      </trkpt>
      <trkpt lat="50.76052" lon="3.66309">
        <ele>88</ele>
        <time>2015-12-13T10:41:28Z</time>
      </trkpt>
      <trkpt lat="50.76054" lon="3.66306">
        <ele>88</ele>
        <time>2015-12-13T10:41:29Z</time>
      </trkpt>
      <trkpt lat="50.76055" lon="3.66304">
        <ele>88</ele>
        <time>2015-12-13T10:41:30Z</time>
      </trkpt>
      <trkpt lat="50.76056" lon="3.66301">
        <ele>86.6</ele>
        <time>2015-12-13T10:41:31Z</time>
      </trkpt>
      <trkpt lat="50.76058" lon="3.66298">
        <ele>86</ele>
        <time>2015-12-13T10:41:32Z</time>
      </trkpt>
      <trkpt lat="50.76059" lon="3.66295">
        <ele>86</ele>
        <time>2015-12-13T10:41:33Z</time>
      </trkpt>
      <trkpt lat="50.76061" lon="3.66292">
        <ele>86</ele>
        <time>2015-12-13T10:41:34Z</time>
      </trkpt>
      <trkpt lat="50.76061" lon="3.66289">
        <ele>86</ele>
        <time>2015-12-13T10:41:35Z</time>
      </trkpt>
      <trkpt lat="50.76063" lon="3.66286">
        <ele>86</ele>
        <time>2015-12-13T10:41:36Z</time>
      </trkpt>
      <trkpt lat="50.76064" lon="3.66283">
        <ele>86</ele>
        <time>2015-12-13T10:41:37Z</time>
      </trkpt>
      <trkpt lat="50.76065" lon="3.6628">
        <ele>86</ele>
        <time>2015-12-13T10:41:38Z</time>
      </trkpt>
      <trkpt lat="50.76066" lon="3.66277">
        <ele>86</ele>
        <time>2015-12-13T10:41:39Z</time>
      </trkpt>
      <trkpt lat="50.76068" lon="3.66273">
        <ele>86</ele>
        <time>2015-12-13T10:41:40Z</time>
      </trkpt>
      <trkpt lat="50.76068" lon="3.66269">
        <ele>85.3</ele>
        <time>2015-12-13T10:41:41Z</time>
      </trkpt>
      <trkpt lat="50.76069" lon="3.66264">
        <ele>85</ele>
        <time>2015-12-13T10:41:42Z</time>
      </trkpt>
      <trkpt lat="50.76069" lon="3.6626">
        <ele>85</ele>
        <time>2015-12-13T10:41:43Z</time>
      </trkpt>
      <trkpt lat="50.76068" lon="3.66256">
        <ele>85</ele>
        <time>2015-12-13T10:41:44Z</time>
      </trkpt>
      <trkpt lat="50.76068" lon="3.66251">
        <ele>85</ele>
        <time>2015-12-13T10:41:45Z</time>
      </trkpt>
      <trkpt lat="50.76068" lon="3.66247">
        <ele>85</ele>
        <time>2015-12-13T10:41:46Z</time>
      </trkpt>
      <trkpt lat="50.76067" lon="3.66243">
        <ele>85</ele>
        <time>2015-12-13T10:41:47Z</time>
      </trkpt>
      <trkpt lat="50.76068" lon="3.66239">
        <ele>85</ele>
        <time>2015-12-13T10:41:48Z</time>
      </trkpt>
      <trkpt lat="50.76068" lon="3.66235">
        <ele>85</ele>
        <time>2015-12-13T10:41:49Z</time>
      </trkpt>
      <trkpt lat="50.76068" lon="3.66231">
        <ele>85</ele>
        <time>2015-12-13T10:41:50Z</time>
      </trkpt>
      <trkpt lat="50.76068" lon="3.66227">
        <ele>83</ele>
        <time>2015-12-13T10:41:51Z</time>
      </trkpt>
      <trkpt lat="50.76068" lon="3.66223">
        <ele>82</ele>
        <time>2015-12-13T10:41:52Z</time>
      </trkpt>
      <trkpt lat="50.76067" lon="3.66219">
        <ele>82</ele>
        <time>2015-12-13T10:41:53Z</time>
      </trkpt>
      <trkpt lat="50.76067" lon="3.66215">
        <ele>82</ele>
        <time>2015-12-13T10:41:54Z</time>
      </trkpt>
      <trkpt lat="50.76066" lon="3.66211">
        <ele>82</ele>
        <time>2015-12-13T10:41:55Z</time>
      </trkpt>
      <trkpt lat="50.76065" lon="3.66207">
        <ele>80.6</ele>
        <time>2015-12-13T10:41:56Z</time>
      </trkpt>
      <trkpt lat="50.76064" lon="3.66203">
        <ele>80</ele>
        <time>2015-12-13T10:41:57Z</time>
      </trkpt>
      <trkpt lat="50.76063" lon="3.66198">
        <ele>80</ele>
        <time>2015-12-13T10:41:58Z</time>
      </trkpt>
      <trkpt lat="50.76062" lon="3.66194">
        <ele>80</ele>
        <time>2015-12-13T10:41:59Z</time>
      </trkpt>
      <trkpt lat="50.76062" lon="3.66191">
        <ele>80</ele>
        <time>2015-12-13T10:42:00Z</time>
      </trkpt>
      <trkpt lat="50.76061" lon="3.66186">
        <ele>78</ele>
        <time>2015-12-13T10:42:01Z</time>
      </trkpt>
      <trkpt lat="50.7606" lon="3.66182">
        <ele>77</ele>
        <time>2015-12-13T10:42:02Z</time>
      </trkpt>
      <trkpt lat="50.76059" lon="3.66177">
        <ele>77</ele>
        <time>2015-12-13T10:42:03Z</time>
      </trkpt>
      <trkpt lat="50.76058" lon="3.66173">
        <ele>77</ele>
        <time>2015-12-13T10:42:04Z</time>
      </trkpt>
      <trkpt lat="50.76058" lon="3.66169">
        <ele>77</ele>
        <time>2015-12-13T10:42:05Z</time>
      </trkpt>
      <trkpt lat="50.76057" lon="3.66165">
        <ele>76.3</ele>
        <time>2015-12-13T10:42:06Z</time>
      </trkpt>
      <trkpt lat="50.76057" lon="3.66161">
        <ele>76</ele>
        <time>2015-12-13T10:42:07Z</time>
      </trkpt>
      <trkpt lat="50.76056" lon="3.66157">
        <ele>76</ele>
        <time>2015-12-13T10:42:08Z</time>
      </trkpt>
      <trkpt lat="50.76055" lon="3.66153">
        <ele>76</ele>
        <time>2015-12-13T10:42:09Z</time>
      </trkpt>
      <trkpt lat="50.76055" lon="3.66149">
        <ele>76</ele>
        <time>2015-12-13T10:42:10Z</time>
      </trkpt>
      <trkpt lat="50.76054" lon="3.66145">
        <ele>76</ele>
        <time>2015-12-13T10:42:11Z</time>
      </trkpt>
      <trkpt lat="50.76053" lon="3.66141">
        <ele>76</ele>
        <time>2015-12-13T10:42:12Z</time>
      </trkpt>
      <trkpt lat="50.76053" lon="3.66137">
        <ele>76</ele>
        <time>2015-12-13T10:42:13Z</time>
      </trkpt>
      <trkpt lat="50.76052" lon="3.66133">
        <ele>76</ele>
        <time>2015-12-13T10:42:14Z</time>
      </trkpt>
      <trkpt lat="50.76052" lon="3.6613">
        <ele>76</ele>
        <time>2015-12-13T10:42:15Z</time>
      </trkpt>
      <trkpt lat="50.76051" lon="3.66126">
        <ele>76</ele>
        <time>2015-12-13T10:42:16Z</time>
      </trkpt>
      <trkpt lat="50.76051" lon="3.66122">
        <ele>76</ele>
        <time>2015-12-13T10:42:17Z</time>
      </trkpt>
      <trkpt lat="50.76051" lon="3.66118">
        <ele>76</ele>
        <time>2015-12-13T10:42:18Z</time>
      </trkpt>
      <trkpt lat="50.7605" lon="3.66114">
        <ele>76</ele>
        <time>2015-12-13T10:42:19Z</time>
      </trkpt>
      <trkpt lat="50.7605" lon="3.6611">
        <ele>76</ele>
        <time>2015-12-13T10:42:20Z</time>
      </trkpt>
      <trkpt lat="50.76049" lon="3.66107">
        <ele>74.6</ele>
        <time>2015-12-13T10:42:21Z</time>
      </trkpt>
      <trkpt lat="50.76049" lon="3.66103">
        <ele>74</ele>
        <time>2015-12-13T10:42:22Z</time>
      </trkpt>
      <trkpt lat="50.76048" lon="3.66099">
        <ele>74</ele>
        <time>2015-12-13T10:42:23Z</time>
      </trkpt>
      <trkpt lat="50.76048" lon="3.66095">
        <ele>74</ele>
        <time>2015-12-13T10:42:24Z</time>
      </trkpt>
      <trkpt lat="50.76047" lon="3.66091">
        <ele>74</ele>
        <time>2015-12-13T10:42:25Z</time>
      </trkpt>
      <trkpt lat="50.76047" lon="3.66087">
        <ele>74</ele>
        <time>2015-12-13T10:42:26Z</time>
      </trkpt>
      <trkpt lat="50.76046" lon="3.66083">
        <ele>74</ele>
        <time>2015-12-13T10:42:27Z</time>
      </trkpt>
      <trkpt lat="50.76045" lon="3.66079">
        <ele>74</ele>
        <time>2015-12-13T10:42:28Z</time>
      </trkpt>
      <trkpt lat="50.76044" lon="3.66076">
        <ele>74</ele>
        <time>2015-12-13T10:42:29Z</time>
      </trkpt>
      <trkpt lat="50.76044" lon="3.66071">
        <ele>74</ele>
        <time>2015-12-13T10:42:30Z</time>
      </trkpt>
      <trkpt lat="50.76043" lon="3.66067">
        <ele>72.9</ele>
        <time>2015-12-13T10:42:31Z</time>
      </trkpt>
      <trkpt lat="50.76043" lon="3.66063">
        <ele>72</ele>
        <time>2015-12-13T10:42:32Z</time>
      </trkpt>
      <trkpt lat="50.76042" lon="3.66059">
        <ele>72</ele>
        <time>2015-12-13T10:42:33Z</time>
      </trkpt>
      <trkpt lat="50.76041" lon="3.66054">
        <ele>72</ele>
        <time>2015-12-13T10:42:34Z</time>
      </trkpt>
      <trkpt lat="50.7604" lon="3.6605">
        <ele>72</ele>
        <time>2015-12-13T10:42:35Z</time>
      </trkpt>
      <trkpt lat="50.76039" lon="3.66046">
        <ele>70.7</ele>
        <time>2015-12-13T10:42:36Z</time>
      </trkpt>
      <trkpt lat="50.76038" lon="3.66042">
        <ele>70</ele>
        <time>2015-12-13T10:42:37Z</time>
      </trkpt>
      <trkpt lat="50.76038" lon="3.66037">
        <ele>70</ele>
        <time>2015-12-13T10:42:38Z</time>
      </trkpt>
      <trkpt lat="50.76037" lon="3.66033">
        <ele>70</ele>
        <time>2015-12-13T10:42:39Z</time>
      </trkpt>
      <trkpt lat="50.76036" lon="3.66028">
        <ele>70</ele>
        <time>2015-12-13T10:42:40Z</time>
      </trkpt>
      <trkpt lat="50.76036" lon="3.66024">
        <ele>69.3</ele>
        <time>2015-12-13T10:42:41Z</time>
      </trkpt>
      <trkpt lat="50.76035" lon="3.66019">
        <ele>69</ele>
        <time>2015-12-13T10:42:42Z</time>
      </trkpt>
      <trkpt lat="50.76034" lon="3.66015">
        <ele>69</ele>
        <time>2015-12-13T10:42:43Z</time>
      </trkpt>
      <trkpt lat="50.76034" lon="3.6601">
        <ele>69</ele>
        <time>2015-12-13T10:42:44Z</time>
      </trkpt>
      <trkpt lat="50.76033" lon="3.66006">
        <ele>69</ele>
        <time>2015-12-13T10:42:45Z</time>
      </trkpt>
      <trkpt lat="50.76032" lon="3.66002">
        <ele>68.3</ele>
        <time>2015-12-13T10:42:46Z</time>
      </trkpt>
      <trkpt lat="50.76032" lon="3.65998">
        <ele>68</ele>
        <time>2015-12-13T10:42:47Z</time>
      </trkpt>
      <trkpt lat="50.76031" lon="3.65993">
        <ele>68</ele>
        <time>2015-12-13T10:42:48Z</time>
      </trkpt>
      <trkpt lat="50.7603" lon="3.6599">
        <ele>68</ele>
        <time>2015-12-13T10:42:49Z</time>
      </trkpt>
      <trkpt lat="50.7603" lon="3.65986">
        <ele>68</ele>
        <time>2015-12-13T10:42:50Z</time>
      </trkpt>
      <trkpt lat="50.76029" lon="3.65982">
        <ele>66.6</ele>
        <time>2015-12-13T10:42:51Z</time>
      </trkpt>
      <trkpt lat="50.76028" lon="3.65978">
        <ele>66</ele>
        <time>2015-12-13T10:42:52Z</time>
      </trkpt>
      <trkpt lat="50.76028" lon="3.65974">
        <ele>66</ele>
        <time>2015-12-13T10:42:53Z</time>
      </trkpt>
      <trkpt lat="50.76027" lon="3.6597">
        <ele>66</ele>
        <time>2015-12-13T10:42:54Z</time>
      </trkpt>
      <trkpt lat="50.76026" lon="3.65966">
        <ele>66</ele>
        <time>2015-12-13T10:42:55Z</time>
      </trkpt>
      <trkpt lat="50.76026" lon="3.65962">
        <ele>64.6</ele>
        <time>2015-12-13T10:42:56Z</time>
      </trkpt>
      <trkpt lat="50.76025" lon="3.65958">
        <ele>64</ele>
        <time>2015-12-13T10:42:57Z</time>
      </trkpt>
      <trkpt lat="50.76025" lon="3.65954">
        <ele>64</ele>
        <time>2015-12-13T10:42:58Z</time>
      </trkpt>
      <trkpt lat="50.76024" lon="3.6595">
        <ele>64</ele>
        <time>2015-12-13T10:42:59Z</time>
      </trkpt>
      <trkpt lat="50.76023" lon="3.65947">
        <ele>64</ele>
        <time>2015-12-13T10:43:00Z</time>
      </trkpt>
      <trkpt lat="50.76023" lon="3.65943">
        <ele>62.9</ele>
        <time>2015-12-13T10:43:01Z</time>
      </trkpt>
      <trkpt lat="50.76022" lon="3.65939">
        <ele>62</ele>
        <time>2015-12-13T10:43:02Z</time>
      </trkpt>
      <trkpt lat="50.76021" lon="3.65935">
        <ele>62</ele>
        <time>2015-12-13T10:43:03Z</time>
      </trkpt>
      <trkpt lat="50.76021" lon="3.65932">
        <ele>62</ele>
        <time>2015-12-13T10:43:04Z</time>
      </trkpt>
      <trkpt lat="50.76021" lon="3.65928">
        <ele>62</ele>
        <time>2015-12-13T10:43:05Z</time>
      </trkpt>
      <trkpt lat="50.7602" lon="3.65924">
        <ele>61.3</ele>
        <time>2015-12-13T10:43:06Z</time>
      </trkpt>
      <trkpt lat="50.76019" lon="3.6592">
        <ele>61</ele>
        <time>2015-12-13T10:43:07Z</time>
      </trkpt>
      <trkpt lat="50.76019" lon="3.65917">
        <ele>61</ele>
        <time>2015-12-13T10:43:08Z</time>
      </trkpt>
      <trkpt lat="50.76018" lon="3.65914">
        <ele>61</ele>
        <time>2015-12-13T10:43:09Z</time>
      </trkpt>
      <trkpt lat="50.76017" lon="3.6591">
        <ele>61</ele>
        <time>2015-12-13T10:43:10Z</time>
      </trkpt>
      <trkpt lat="50.76016" lon="3.65906">
        <ele>60.3</ele>
        <time>2015-12-13T10:43:11Z</time>
      </trkpt>
      <trkpt lat="50.76015" lon="3.65903">
        <ele>60</ele>
        <time>2015-12-13T10:43:12Z</time>
      </trkpt>
      <trkpt lat="50.76014" lon="3.65901">
        <ele>60</ele>
        <time>2015-12-13T10:43:13Z</time>
      </trkpt>
      <trkpt lat="50.76012" lon="3.65895">
        <ele>60</ele>
        <time>2015-12-13T10:43:15Z</time>
      </trkpt>
      <trkpt lat="50.76012" lon="3.65892">
        <ele>60</ele>
        <time>2015-12-13T10:43:16Z</time>
      </trkpt>
      <trkpt lat="50.76012" lon="3.65888">
        <ele>60</ele>
        <time>2015-12-13T10:43:17Z</time>
      </trkpt>
      <trkpt lat="50.76011" lon="3.65886">
        <ele>60</ele>
        <time>2015-12-13T10:43:18Z</time>
      </trkpt>
      <trkpt lat="50.7601" lon="3.65883">
        <ele>60</ele>
        <time>2015-12-13T10:43:19Z</time>
      </trkpt>
      <trkpt lat="50.76008" lon="3.65881">
        <ele>60</ele>
        <time>2015-12-13T10:43:21Z</time>
      </trkpt>
      <trkpt lat="50.76007" lon="3.65877">
        <ele>60</ele>
        <time>2015-12-13T10:43:25Z</time>
      </trkpt>
      <trkpt lat="50.76006" lon="3.65874">
        <ele>60</ele>
        <time>2015-12-13T10:43:27Z</time>
      </trkpt>
      <trkpt lat="50.76005" lon="3.65871">
        <ele>60</ele>
        <time>2015-12-13T10:43:29Z</time>
      </trkpt>
      <trkpt lat="50.76004" lon="3.65867">
        <ele>59.5</ele>
        <time>2015-12-13T10:43:31Z</time>
      </trkpt>
      <trkpt lat="50.76002" lon="3.65862">
        <ele>59</ele>
        <time>2015-12-13T10:43:33Z</time>
      </trkpt>
      <trkpt lat="50.76001" lon="3.65859">
        <ele>59</ele>
        <time>2015-12-13T10:43:34Z</time>
      </trkpt>
      <trkpt lat="50.76" lon="3.65856">
        <ele>59</ele>
        <time>2015-12-13T10:43:35Z</time>
      </trkpt>
      <trkpt lat="50.75999" lon="3.65853">
        <ele>59</ele>
        <time>2015-12-13T10:43:36Z</time>
      </trkpt>
      <trkpt lat="50.75998" lon="3.65849">
        <ele>59</ele>
        <time>2015-12-13T10:43:37Z</time>
      </trkpt>
      <trkpt lat="50.75997" lon="3.65846">
        <ele>59</ele>
        <time>2015-12-13T10:43:38Z</time>
      </trkpt>
      <trkpt lat="50.75996" lon="3.65844">
        <ele>59</ele>
        <time>2015-12-13T10:43:39Z</time>
      </trkpt>
      <trkpt lat="50.75995" lon="3.6584">
        <ele>59</ele>
        <time>2015-12-13T10:43:40Z</time>
      </trkpt>
      <trkpt lat="50.75994" lon="3.65837">
        <ele>58.3</ele>
        <time>2015-12-13T10:43:41Z</time>
      </trkpt>
      <trkpt lat="50.75993" lon="3.65834">
        <ele>58</ele>
        <time>2015-12-13T10:43:42Z</time>
      </trkpt>
      <trkpt lat="50.75991" lon="3.65831">
        <ele>58</ele>
        <time>2015-12-13T10:43:43Z</time>
      </trkpt>
      <trkpt lat="50.7599" lon="3.65828">
        <ele>58</ele>
        <time>2015-12-13T10:43:44Z</time>
      </trkpt>
      <trkpt lat="50.75989" lon="3.65824">
        <ele>58</ele>
        <time>2015-12-13T10:43:45Z</time>
      </trkpt>
      <trkpt lat="50.75988" lon="3.65822">
        <ele>58</ele>
        <time>2015-12-13T10:43:46Z</time>
      </trkpt>
      <trkpt lat="50.75987" lon="3.65819">
        <ele>58</ele>
        <time>2015-12-13T10:43:47Z</time>
      </trkpt>
      <trkpt lat="50.75986" lon="3.65815">
        <ele>58</ele>
        <time>2015-12-13T10:43:48Z</time>
      </trkpt>
      <trkpt lat="50.75985" lon="3.65811">
        <ele>58</ele>
        <time>2015-12-13T10:43:49Z</time>
      </trkpt>
      <trkpt lat="50.75985" lon="3.65807">
        <ele>58</ele>
        <time>2015-12-13T10:43:50Z</time>
      </trkpt>
      <trkpt lat="50.75984" lon="3.65804">
        <ele>57.3</ele>
        <time>2015-12-13T10:43:51Z</time>
      </trkpt>
      <trkpt lat="50.75983" lon="3.65801">
        <ele>57</ele>
        <time>2015-12-13T10:43:52Z</time>
      </trkpt>
      <trkpt lat="50.75982" lon="3.65798">
        <ele>57</ele>
        <time>2015-12-13T10:43:53Z</time>
      </trkpt>
      <trkpt lat="50.75982" lon="3.65795">
        <ele>57</ele>
        <time>2015-12-13T10:43:54Z</time>
      </trkpt>
      <trkpt lat="50.75981" lon="3.65792">
        <ele>57</ele>
        <time>2015-12-13T10:43:55Z</time>
      </trkpt>
      <trkpt lat="50.75981" lon="3.65789">
        <ele>57</ele>
        <time>2015-12-13T10:43:56Z</time>
      </trkpt>
      <trkpt lat="50.7598" lon="3.65785">
        <ele>57</ele>
        <time>2015-12-13T10:43:57Z</time>
      </trkpt>
      <trkpt lat="50.75979" lon="3.65782">
        <ele>57</ele>
        <time>2015-12-13T10:43:58Z</time>
      </trkpt>
      <trkpt lat="50.75978" lon="3.65779">
        <ele>57</ele>
        <time>2015-12-13T10:43:59Z</time>
      </trkpt>
      <trkpt lat="50.75977" lon="3.65776">
        <ele>57</ele>
        <time>2015-12-13T10:44:00Z</time>
      </trkpt>
      <trkpt lat="50.75977" lon="3.65772">
        <ele>57</ele>
        <time>2015-12-13T10:44:01Z</time>
      </trkpt>
      <trkpt lat="50.75976" lon="3.65769">
        <ele>57</ele>
        <time>2015-12-13T10:44:02Z</time>
      </trkpt>
      <trkpt lat="50.75975" lon="3.65766">
        <ele>57</ele>
        <time>2015-12-13T10:44:04Z</time>
      </trkpt>
      <trkpt lat="50.75974" lon="3.65761">
        <ele>57</ele>
        <time>2015-12-13T10:44:07Z</time>
      </trkpt>
      <trkpt lat="50.75973" lon="3.65758">
        <ele>57</ele>
        <time>2015-12-13T10:44:09Z</time>
      </trkpt>
      <trkpt lat="50.75972" lon="3.65753">
        <ele>57.7</ele>
        <time>2015-12-13T10:44:11Z</time>
      </trkpt>
      <trkpt lat="50.75971" lon="3.65749">
        <ele>58</ele>
        <time>2015-12-13T10:44:13Z</time>
      </trkpt>
      <trkpt lat="50.75971" lon="3.65746">
        <ele>58</ele>
        <time>2015-12-13T10:44:14Z</time>
      </trkpt>
      <trkpt lat="50.7597" lon="3.65743">
        <ele>58</ele>
        <time>2015-12-13T10:44:15Z</time>
      </trkpt>
      <trkpt lat="50.75969" lon="3.6574">
        <ele>58</ele>
        <time>2015-12-13T10:44:16Z</time>
      </trkpt>
      <trkpt lat="50.75968" lon="3.65735">
        <ele>58</ele>
        <time>2015-12-13T10:44:18Z</time>
      </trkpt>
      <trkpt lat="50.75967" lon="3.65731">
        <ele>58</ele>
        <time>2015-12-13T10:44:20Z</time>
      </trkpt>
      <trkpt lat="50.75966" lon="3.65727">
        <ele>58</ele>
        <time>2015-12-13T10:44:22Z</time>
      </trkpt>
      <trkpt lat="50.75965" lon="3.65724">
        <ele>58</ele>
        <time>2015-12-13T10:44:24Z</time>
      </trkpt>
      <trkpt lat="50.75965" lon="3.65721">
        <ele>58</ele>
        <time>2015-12-13T10:44:26Z</time>
      </trkpt>
      <trkpt lat="50.75964" lon="3.65717">
        <ele>58</ele>
        <time>2015-12-13T10:44:29Z</time>
      </trkpt>
      <trkpt lat="50.75963" lon="3.65713">
        <ele>58.7</ele>
        <time>2015-12-13T10:44:31Z</time>
      </trkpt>
      <trkpt lat="50.75962" lon="3.65709">
        <ele>59</ele>
        <time>2015-12-13T10:44:33Z</time>
      </trkpt>
      <trkpt lat="50.75961" lon="3.65706">
        <ele>58.3</ele>
        <time>2015-12-13T10:44:35Z</time>
      </trkpt>
      <trkpt lat="50.7596" lon="3.65703">
        <ele>58</ele>
        <time>2015-12-13T10:44:37Z</time>
      </trkpt>
      <trkpt lat="50.7596" lon="3.65699">
        <ele>58</ele>
        <time>2015-12-13T10:44:39Z</time>
      </trkpt>
      <trkpt lat="50.75959" lon="3.65695">
        <ele>58</ele>
        <time>2015-12-13T10:44:41Z</time>
      </trkpt>
      <trkpt lat="50.75958" lon="3.65691">
        <ele>58</ele>
        <time>2015-12-13T10:44:43Z</time>
      </trkpt>
      <trkpt lat="50.75957" lon="3.65687">
        <ele>58</ele>
        <time>2015-12-13T10:44:45Z</time>
      </trkpt>
      <trkpt lat="50.75957" lon="3.65684">
        <ele>58</ele>
        <time>2015-12-13T10:44:47Z</time>
      </trkpt>
      <trkpt lat="50.75956" lon="3.6568">
        <ele>58</ele>
        <time>2015-12-13T10:44:49Z</time>
      </trkpt>
      <trkpt lat="50.75955" lon="3.65677">
        <ele>59.4</ele>
        <time>2015-12-13T10:44:51Z</time>
      </trkpt>
      <trkpt lat="50.75955" lon="3.65673">
        <ele>60</ele>
        <time>2015-12-13T10:44:54Z</time>
      </trkpt>
      <trkpt lat="50.75954" lon="3.65669">
        <ele>60</ele>
        <time>2015-12-13T10:44:57Z</time>
      </trkpt>
      <trkpt lat="50.75955" lon="3.65665">
        <ele>60</ele>
        <time>2015-12-13T10:44:59Z</time>
      </trkpt>
      <trkpt lat="50.75954" lon="3.65662">
        <ele>60</ele>
        <time>2015-12-13T10:45:21Z</time>
      </trkpt>
      <trkpt lat="50.75953" lon="3.65659">
        <ele>60</ele>
        <time>2015-12-13T10:45:24Z</time>
      </trkpt>
      <trkpt lat="50.75951" lon="3.65656">
        <ele>60</ele>
        <time>2015-12-13T10:45:27Z</time>
      </trkpt>
      <trkpt lat="50.75949" lon="3.65654">
        <ele>60</ele>
        <time>2015-12-13T10:45:29Z</time>
      </trkpt>
      <trkpt lat="50.75947" lon="3.65652">
        <ele>60</ele>
        <time>2015-12-13T10:45:31Z</time>
      </trkpt>
      <trkpt lat="50.75945" lon="3.65649">
        <ele>60</ele>
        <time>2015-12-13T10:45:33Z</time>
      </trkpt>
      <trkpt lat="50.75943" lon="3.65645">
        <ele>60</ele>
        <time>2015-12-13T10:45:35Z</time>
      </trkpt>
      <trkpt lat="50.75942" lon="3.65642">
        <ele>60</ele>
        <time>2015-12-13T10:45:37Z</time>
      </trkpt>
      <trkpt lat="50.7594" lon="3.65638">
        <ele>59.3</ele>
        <time>2015-12-13T10:45:39Z</time>
      </trkpt>
      <trkpt lat="50.75939" lon="3.65635">
        <ele>59</ele>
        <time>2015-12-13T10:45:41Z</time>
      </trkpt>
      <trkpt lat="50.75937" lon="3.65632">
        <ele>59</ele>
        <time>2015-12-13T10:45:43Z</time>
      </trkpt>
      <trkpt lat="50.75936" lon="3.65628">
        <ele>59</ele>
        <time>2015-12-13T10:45:45Z</time>
      </trkpt>
      <trkpt lat="50.75934" lon="3.65624">
        <ele>59</ele>
        <time>2015-12-13T10:45:47Z</time>
      </trkpt>
      <trkpt lat="50.75932" lon="3.65621">
        <ele>59</ele>
        <time>2015-12-13T10:45:49Z</time>
      </trkpt>
      <trkpt lat="50.75931" lon="3.65617">
        <ele>59</ele>
        <time>2015-12-13T10:45:51Z</time>
      </trkpt>
      <trkpt lat="50.75929" lon="3.65614">
        <ele>59</ele>
        <time>2015-12-13T10:45:53Z</time>
      </trkpt>
      <trkpt lat="50.75927" lon="3.6561">
        <ele>59</ele>
        <time>2015-12-13T10:45:55Z</time>
      </trkpt>
      <trkpt lat="50.75926" lon="3.65607">
        <ele>59</ele>
        <time>2015-12-13T10:45:57Z</time>
      </trkpt>
      <trkpt lat="50.75924" lon="3.65603">
        <ele>59</ele>
        <time>2015-12-13T10:45:59Z</time>
      </trkpt>
      <trkpt lat="50.75923" lon="3.656">
        <ele>58.3</ele>
        <time>2015-12-13T10:46:01Z</time>
      </trkpt>
      <trkpt lat="50.75921" lon="3.65596">
        <ele>58</ele>
        <time>2015-12-13T10:46:03Z</time>
      </trkpt>
      <trkpt lat="50.75919" lon="3.65592">
        <ele>58</ele>
        <time>2015-12-13T10:46:05Z</time>
      </trkpt>
      <trkpt lat="50.75918" lon="3.65588">
        <ele>58</ele>
        <time>2015-12-13T10:46:07Z</time>
      </trkpt>
      <trkpt lat="50.75916" lon="3.65585">
        <ele>58</ele>
        <time>2015-12-13T10:46:09Z</time>
      </trkpt>
      <trkpt lat="50.75914" lon="3.65581">
        <ele>58</ele>
        <time>2015-12-13T10:46:11Z</time>
      </trkpt>
      <trkpt lat="50.75912" lon="3.65578">
        <ele>58</ele>
        <time>2015-12-13T10:46:13Z</time>
      </trkpt>
      <trkpt lat="50.7591" lon="3.65573">
        <ele>58</ele>
        <time>2015-12-13T10:46:15Z</time>
      </trkpt>
      <trkpt lat="50.75909" lon="3.65569">
        <ele>58</ele>
        <time>2015-12-13T10:46:17Z</time>
      </trkpt>
      <trkpt lat="50.75907" lon="3.65565">
        <ele>58</ele>
        <time>2015-12-13T10:46:19Z</time>
      </trkpt>
      <trkpt lat="50.75905" lon="3.65561">
        <ele>57.3</ele>
        <time>2015-12-13T10:46:21Z</time>
      </trkpt>
      <trkpt lat="50.75904" lon="3.65559">
        <ele>57</ele>
        <time>2015-12-13T10:46:22Z</time>
      </trkpt>
      <trkpt lat="50.75902" lon="3.65557">
        <ele>57</ele>
        <time>2015-12-13T10:46:23Z</time>
      </trkpt>
      <trkpt lat="50.759" lon="3.65555">
        <ele>57</ele>
        <time>2015-12-13T10:46:24Z</time>
      </trkpt>
      <trkpt lat="50.75899" lon="3.65552">
        <ele>57</ele>
        <time>2015-12-13T10:46:25Z</time>
      </trkpt>
      <trkpt lat="50.75897" lon="3.65549">
        <ele>57</ele>
        <time>2015-12-13T10:46:26Z</time>
      </trkpt>
      <trkpt lat="50.75895" lon="3.65547">
        <ele>57</ele>
        <time>2015-12-13T10:46:27Z</time>
      </trkpt>
      <trkpt lat="50.75894" lon="3.65545">
        <ele>57</ele>
        <time>2015-12-13T10:46:28Z</time>
      </trkpt>
      <trkpt lat="50.75892" lon="3.65543">
        <ele>57</ele>
        <time>2015-12-13T10:46:29Z</time>
      </trkpt>
      <trkpt lat="50.7589" lon="3.65541">
        <ele>57</ele>
        <time>2015-12-13T10:46:30Z</time>
      </trkpt>
      <trkpt lat="50.75888" lon="3.65538">
        <ele>57</ele>
        <time>2015-12-13T10:46:31Z</time>
      </trkpt>
      <trkpt lat="50.75886" lon="3.65536">
        <ele>57</ele>
        <time>2015-12-13T10:46:32Z</time>
      </trkpt>
      <trkpt lat="50.75884" lon="3.65534">
        <ele>57</ele>
        <time>2015-12-13T10:46:33Z</time>
      </trkpt>
      <trkpt lat="50.75882" lon="3.65532">
        <ele>57</ele>
        <time>2015-12-13T10:46:34Z</time>
      </trkpt>
      <trkpt lat="50.75881" lon="3.65529">
        <ele>57</ele>
        <time>2015-12-13T10:46:35Z</time>
      </trkpt>
      <trkpt lat="50.75879" lon="3.65526">
        <ele>57</ele>
        <time>2015-12-13T10:46:36Z</time>
      </trkpt>
      <trkpt lat="50.75878" lon="3.65523">
        <ele>57</ele>
        <time>2015-12-13T10:46:37Z</time>
      </trkpt>
      <trkpt lat="50.75877" lon="3.6552">
        <ele>57</ele>
        <time>2015-12-13T10:46:38Z</time>
      </trkpt>
      <trkpt lat="50.75876" lon="3.65517">
        <ele>57</ele>
        <time>2015-12-13T10:46:39Z</time>
      </trkpt>
      <trkpt lat="50.75874" lon="3.65514">
        <ele>57</ele>
        <time>2015-12-13T10:46:40Z</time>
      </trkpt>
      <trkpt lat="50.75872" lon="3.65512">
        <ele>56.3</ele>
        <time>2015-12-13T10:46:41Z</time>
      </trkpt>
      <trkpt lat="50.7587" lon="3.6551">
        <ele>56</ele>
        <time>2015-12-13T10:46:42Z</time>
      </trkpt>
      <trkpt lat="50.75868" lon="3.65509">
        <ele>56</ele>
        <time>2015-12-13T10:46:43Z</time>
      </trkpt>
      <trkpt lat="50.75866" lon="3.65507">
        <ele>56</ele>
        <time>2015-12-13T10:46:44Z</time>
      </trkpt>
      <trkpt lat="50.75864" lon="3.65505">
        <ele>56</ele>
        <time>2015-12-13T10:46:45Z</time>
      </trkpt>
      <trkpt lat="50.75863" lon="3.65502">
        <ele>56</ele>
        <time>2015-12-13T10:46:46Z</time>
      </trkpt>
      <trkpt lat="50.75861" lon="3.655">
        <ele>56</ele>
        <time>2015-12-13T10:46:47Z</time>
      </trkpt>
      <trkpt lat="50.75859" lon="3.65497">
        <ele>56</ele>
        <time>2015-12-13T10:46:48Z</time>
      </trkpt>
      <trkpt lat="50.75858" lon="3.65494">
        <ele>56</ele>
        <time>2015-12-13T10:46:49Z</time>
      </trkpt>
      <trkpt lat="50.75856" lon="3.65491">
        <ele>56</ele>
        <time>2015-12-13T10:46:50Z</time>
      </trkpt>
      <trkpt lat="50.75855" lon="3.65488">
        <ele>55.3</ele>
        <time>2015-12-13T10:46:51Z</time>
      </trkpt>
      <trkpt lat="50.75854" lon="3.65484">
        <ele>55</ele>
        <time>2015-12-13T10:46:52Z</time>
      </trkpt>
      <trkpt lat="50.75853" lon="3.6548">
        <ele>55</ele>
        <time>2015-12-13T10:46:53Z</time>
      </trkpt>
      <trkpt lat="50.75853" lon="3.65476">
        <ele>55</ele>
        <time>2015-12-13T10:46:54Z</time>
      </trkpt>
      <trkpt lat="50.75852" lon="3.65472">
        <ele>55</ele>
        <time>2015-12-13T10:46:55Z</time>
      </trkpt>
      <trkpt lat="50.75852" lon="3.65468">
        <ele>55</ele>
        <time>2015-12-13T10:46:56Z</time>
      </trkpt>
      <trkpt lat="50.75851" lon="3.65464">
        <ele>55</ele>
        <time>2015-12-13T10:46:57Z</time>
      </trkpt>
      <trkpt lat="50.75851" lon="3.6546">
        <ele>55</ele>
        <time>2015-12-13T10:46:58Z</time>
      </trkpt>
      <trkpt lat="50.7585" lon="3.65456">
        <ele>55</ele>
        <time>2015-12-13T10:46:59Z</time>
      </trkpt>
      <trkpt lat="50.75849" lon="3.65452">
        <ele>55</ele>
        <time>2015-12-13T10:47:00Z</time>
      </trkpt>
      <trkpt lat="50.75849" lon="3.65448">
        <ele>55</ele>
        <time>2015-12-13T10:47:01Z</time>
      </trkpt>
      <trkpt lat="50.75848" lon="3.65444">
        <ele>55</ele>
        <time>2015-12-13T10:47:02Z</time>
      </trkpt>
      <trkpt lat="50.75848" lon="3.65439">
        <ele>55</ele>
        <time>2015-12-13T10:47:03Z</time>
      </trkpt>
      <trkpt lat="50.75847" lon="3.65435">
        <ele>55</ele>
        <time>2015-12-13T10:47:04Z</time>
      </trkpt>
      <trkpt lat="50.75847" lon="3.65431">
        <ele>55</ele>
        <time>2015-12-13T10:47:05Z</time>
      </trkpt>
      <trkpt lat="50.75846" lon="3.65427">
        <ele>55</ele>
        <time>2015-12-13T10:47:06Z</time>
      </trkpt>
      <trkpt lat="50.75846" lon="3.65423">
        <ele>55</ele>
        <time>2015-12-13T10:47:07Z</time>
      </trkpt>
      <trkpt lat="50.75845" lon="3.65419">
        <ele>55</ele>
        <time>2015-12-13T10:47:08Z</time>
      </trkpt>
      <trkpt lat="50.75844" lon="3.65415">
        <ele>55</ele>
        <time>2015-12-13T10:47:09Z</time>
      </trkpt>
      <trkpt lat="50.75844" lon="3.65411">
        <ele>55</ele>
        <time>2015-12-13T10:47:10Z</time>
      </trkpt>
      <trkpt lat="50.75843" lon="3.65408">
        <ele>55</ele>
        <time>2015-12-13T10:47:11Z</time>
      </trkpt>
      <trkpt lat="50.75843" lon="3.65404">
        <ele>55</ele>
        <time>2015-12-13T10:47:12Z</time>
      </trkpt>
      <trkpt lat="50.75842" lon="3.654">
        <ele>55</ele>
        <time>2015-12-13T10:47:13Z</time>
      </trkpt>
      <trkpt lat="50.75841" lon="3.65397">
        <ele>55</ele>
        <time>2015-12-13T10:47:14Z</time>
      </trkpt>
      <trkpt lat="50.75841" lon="3.65392">
        <ele>55</ele>
        <time>2015-12-13T10:47:16Z</time>
      </trkpt>
      <trkpt lat="50.75841" lon="3.65389">
        <ele>55</ele>
        <time>2015-12-13T10:47:19Z</time>
      </trkpt>
      <trkpt lat="50.75842" lon="3.65386">
        <ele>54</ele>
        <time>2015-12-13T10:47:25Z</time>
      </trkpt>
      <trkpt lat="50.75842" lon="3.65382">
        <ele>54</ele>
        <time>2015-12-13T10:47:27Z</time>
      </trkpt>
      <trkpt lat="50.75843" lon="3.65379">
        <ele>54</ele>
        <time>2015-12-13T10:47:29Z</time>
      </trkpt>
      <trkpt lat="50.75843" lon="3.65376">
        <ele>54</ele>
        <time>2015-12-13T10:47:33Z</time>
      </trkpt>
      <trkpt lat="50.75842" lon="3.65371">
        <ele>54</ele>
        <time>2015-12-13T10:47:36Z</time>
      </trkpt>
      <trkpt lat="50.75842" lon="3.65368">
        <ele>54</ele>
        <time>2015-12-13T10:47:39Z</time>
      </trkpt>
      <trkpt lat="50.75842" lon="3.65363">
        <ele>54</ele>
        <time>2015-12-13T10:47:42Z</time>
      </trkpt>
      <trkpt lat="50.75842" lon="3.6536">
        <ele>54</ele>
        <time>2015-12-13T10:47:44Z</time>
      </trkpt>
      <trkpt lat="50.75842" lon="3.65356">
        <ele>54</ele>
        <time>2015-12-13T10:47:47Z</time>
      </trkpt>
      <trkpt lat="50.75842" lon="3.65353">
        <ele>54</ele>
        <time>2015-12-13T10:47:49Z</time>
      </trkpt>
      <trkpt lat="50.75842" lon="3.65349">
        <ele>54.7</ele>
        <time>2015-12-13T10:47:51Z</time>
      </trkpt>
      <trkpt lat="50.75842" lon="3.65346">
        <ele>55</ele>
        <time>2015-12-13T10:47:53Z</time>
      </trkpt>
      <trkpt lat="50.75842" lon="3.65342">
        <ele>55</ele>
        <time>2015-12-13T10:47:55Z</time>
      </trkpt>
      <trkpt lat="50.75841" lon="3.65338">
        <ele>55</ele>
        <time>2015-12-13T10:47:57Z</time>
      </trkpt>
      <trkpt lat="50.75841" lon="3.65333">
        <ele>55</ele>
        <time>2015-12-13T10:47:59Z</time>
      </trkpt>
      <trkpt lat="50.75841" lon="3.65328">
        <ele>55</ele>
        <time>2015-12-13T10:48:01Z</time>
      </trkpt>
      <trkpt lat="50.7584" lon="3.65324">
        <ele>55</ele>
        <time>2015-12-13T10:48:03Z</time>
      </trkpt>
      <trkpt lat="50.75841" lon="3.6532">
        <ele>55</ele>
        <time>2015-12-13T10:48:05Z</time>
      </trkpt>
      <trkpt lat="50.7584" lon="3.65315">
        <ele>55</ele>
        <time>2015-12-13T10:48:07Z</time>
      </trkpt>
      <trkpt lat="50.7584" lon="3.65311">
        <ele>55</ele>
        <time>2015-12-13T10:48:09Z</time>
      </trkpt>
      <trkpt lat="50.7584" lon="3.65307">
        <ele>55.7</ele>
        <time>2015-12-13T10:48:11Z</time>
      </trkpt>
      <trkpt lat="50.7584" lon="3.65302">
        <ele>56</ele>
        <time>2015-12-13T10:48:13Z</time>
      </trkpt>
      <trkpt lat="50.7584" lon="3.65298">
        <ele>56</ele>
        <time>2015-12-13T10:48:15Z</time>
      </trkpt>
      <trkpt lat="50.7584" lon="3.65293">
        <ele>56</ele>
        <time>2015-12-13T10:48:17Z</time>
      </trkpt>
      <trkpt lat="50.75839" lon="3.65289">
        <ele>56</ele>
        <time>2015-12-13T10:48:19Z</time>
      </trkpt>
      <trkpt lat="50.75839" lon="3.65284">
        <ele>56</ele>
        <time>2015-12-13T10:48:21Z</time>
      </trkpt>
      <trkpt lat="50.75839" lon="3.6528">
        <ele>56</ele>
        <time>2015-12-13T10:48:23Z</time>
      </trkpt>
      <trkpt lat="50.75839" lon="3.65275">
        <ele>56</ele>
        <time>2015-12-13T10:48:25Z</time>
      </trkpt>
      <trkpt lat="50.75839" lon="3.65271">
        <ele>56</ele>
        <time>2015-12-13T10:48:27Z</time>
      </trkpt>
      <trkpt lat="50.75838" lon="3.65266">
        <ele>56</ele>
        <time>2015-12-13T10:48:29Z</time>
      </trkpt>
      <trkpt lat="50.75838" lon="3.65261">
        <ele>55.5</ele>
        <time>2015-12-13T10:48:31Z</time>
      </trkpt>
      <trkpt lat="50.75838" lon="3.65256">
        <ele>55</ele>
        <time>2015-12-13T10:48:33Z</time>
      </trkpt>
      <trkpt lat="50.75837" lon="3.65251">
        <ele>55</ele>
        <time>2015-12-13T10:48:35Z</time>
      </trkpt>
      <trkpt lat="50.75837" lon="3.65246">
        <ele>55</ele>
        <time>2015-12-13T10:48:37Z</time>
      </trkpt>
      <trkpt lat="50.75836" lon="3.65241">
        <ele>55</ele>
        <time>2015-12-13T10:48:39Z</time>
      </trkpt>
      <trkpt lat="50.75836" lon="3.65236">
        <ele>53.9</ele>
        <time>2015-12-13T10:48:41Z</time>
      </trkpt>
      <trkpt lat="50.75836" lon="3.65232">
        <ele>53</ele>
        <time>2015-12-13T10:48:43Z</time>
      </trkpt>
      <trkpt lat="50.75836" lon="3.65227">
        <ele>53</ele>
        <time>2015-12-13T10:48:45Z</time>
      </trkpt>
      <trkpt lat="50.75836" lon="3.65222">
        <ele>53</ele>
        <time>2015-12-13T10:48:47Z</time>
      </trkpt>
      <trkpt lat="50.75836" lon="3.65218">
        <ele>53</ele>
        <time>2015-12-13T10:48:49Z</time>
      </trkpt>
      <trkpt lat="50.75836" lon="3.65213">
        <ele>53</ele>
        <time>2015-12-13T10:48:51Z</time>
      </trkpt>
      <trkpt lat="50.75836" lon="3.65209">
        <ele>53</ele>
        <time>2015-12-13T10:48:53Z</time>
      </trkpt>
      <trkpt lat="50.75836" lon="3.65205">
        <ele>53</ele>
        <time>2015-12-13T10:48:55Z</time>
      </trkpt>
      <trkpt lat="50.75834" lon="3.652">
        <ele>53</ele>
        <time>2015-12-13T10:48:57Z</time>
      </trkpt>
      <trkpt lat="50.75833" lon="3.65196">
        <ele>53</ele>
        <time>2015-12-13T10:48:59Z</time>
      </trkpt>
      <trkpt lat="50.75832" lon="3.65192">
        <ele>53</ele>
        <time>2015-12-13T10:49:01Z</time>
      </trkpt>
      <trkpt lat="50.75831" lon="3.65187">
        <ele>53</ele>
        <time>2015-12-13T10:49:03Z</time>
      </trkpt>
      <trkpt lat="50.7583" lon="3.65184">
        <ele>53</ele>
        <time>2015-12-13T10:49:04Z</time>
      </trkpt>
      <trkpt lat="50.75829" lon="3.65179">
        <ele>53</ele>
        <time>2015-12-13T10:49:06Z</time>
      </trkpt>
      <trkpt lat="50.75828" lon="3.65176">
        <ele>53</ele>
        <time>2015-12-13T10:49:07Z</time>
      </trkpt>
      <trkpt lat="50.75827" lon="3.65172">
        <ele>53</ele>
        <time>2015-12-13T10:49:08Z</time>
      </trkpt>
      <trkpt lat="50.75826" lon="3.65168">
        <ele>53</ele>
        <time>2015-12-13T10:49:09Z</time>
      </trkpt>
      <trkpt lat="50.75825" lon="3.65164">
        <ele>53</ele>
        <time>2015-12-13T10:49:10Z</time>
      </trkpt>
      <trkpt lat="50.75824" lon="3.6516">
        <ele>53</ele>
        <time>2015-12-13T10:49:11Z</time>
      </trkpt>
      <trkpt lat="50.75823" lon="3.65157">
        <ele>52.3</ele>
        <time>2015-12-13T10:49:12Z</time>
      </trkpt>
      <trkpt lat="50.75823" lon="3.65153">
        <ele>52</ele>
        <time>2015-12-13T10:49:13Z</time>
      </trkpt>
      <trkpt lat="50.75822" lon="3.65149">
        <ele>52</ele>
        <time>2015-12-13T10:49:14Z</time>
      </trkpt>
      <trkpt lat="50.75821" lon="3.65145">
        <ele>52</ele>
        <time>2015-12-13T10:49:15Z</time>
      </trkpt>
      <trkpt lat="50.7582" lon="3.65142">
        <ele>52</ele>
        <time>2015-12-13T10:49:16Z</time>
      </trkpt>
      <trkpt lat="50.75819" lon="3.65138">
        <ele>52</ele>
        <time>2015-12-13T10:49:17Z</time>
      </trkpt>
      <trkpt lat="50.75818" lon="3.65135">
        <ele>52</ele>
        <time>2015-12-13T10:49:18Z</time>
      </trkpt>
      <trkpt lat="50.75817" lon="3.65131">
        <ele>52</ele>
        <time>2015-12-13T10:49:19Z</time>
      </trkpt>
      <trkpt lat="50.75816" lon="3.65128">
        <ele>52</ele>
        <time>2015-12-13T10:49:20Z</time>
      </trkpt>
      <trkpt lat="50.75815" lon="3.65125">
        <ele>51.3</ele>
        <time>2015-12-13T10:49:21Z</time>
      </trkpt>
      <trkpt lat="50.75814" lon="3.65122">
        <ele>51</ele>
        <time>2015-12-13T10:49:22Z</time>
      </trkpt>
      <trkpt lat="50.75813" lon="3.65119">
        <ele>51</ele>
        <time>2015-12-13T10:49:23Z</time>
      </trkpt>
      <trkpt lat="50.75811" lon="3.65114">
        <ele>51</ele>
        <time>2015-12-13T10:49:25Z</time>
      </trkpt>
      <trkpt lat="50.75809" lon="3.65109">
        <ele>51</ele>
        <time>2015-12-13T10:49:27Z</time>
      </trkpt>
      <trkpt lat="50.75809" lon="3.65107">
        <ele>51</ele>
        <time>2015-12-13T10:49:28Z</time>
      </trkpt>
      <trkpt lat="50.75809" lon="3.65103">
        <ele>51</ele>
        <time>2015-12-13T10:49:29Z</time>
      </trkpt>
      <trkpt lat="50.7581" lon="3.651">
        <ele>51</ele>
        <time>2015-12-13T10:49:30Z</time>
      </trkpt>
      <trkpt lat="50.75812" lon="3.65097">
        <ele>49.7</ele>
        <time>2015-12-13T10:49:31Z</time>
      </trkpt>
      <trkpt lat="50.75813" lon="3.65094">
        <ele>49</ele>
        <time>2015-12-13T10:49:32Z</time>
      </trkpt>
      <trkpt lat="50.75814" lon="3.65091">
        <ele>49</ele>
        <time>2015-12-13T10:49:33Z</time>
      </trkpt>
      <trkpt lat="50.75816" lon="3.65088">
        <ele>49</ele>
        <time>2015-12-13T10:49:34Z</time>
      </trkpt>
      <trkpt lat="50.75817" lon="3.65086">
        <ele>49</ele>
        <time>2015-12-13T10:49:35Z</time>
      </trkpt>
      <trkpt lat="50.75818" lon="3.65082">
        <ele>49</ele>
        <time>2015-12-13T10:49:36Z</time>
      </trkpt>
      <trkpt lat="50.75819" lon="3.65079">
        <ele>49</ele>
        <time>2015-12-13T10:49:37Z</time>
      </trkpt>
      <trkpt lat="50.75821" lon="3.65076">
        <ele>49</ele>
        <time>2015-12-13T10:49:38Z</time>
      </trkpt>
      <trkpt lat="50.75822" lon="3.65073">
        <ele>49</ele>
        <time>2015-12-13T10:49:39Z</time>
      </trkpt>
      <trkpt lat="50.75823" lon="3.6507">
        <ele>49</ele>
        <time>2015-12-13T10:49:40Z</time>
      </trkpt>
      <trkpt lat="50.75825" lon="3.65067">
        <ele>49</ele>
        <time>2015-12-13T10:49:41Z</time>
      </trkpt>
      <trkpt lat="50.75826" lon="3.65064">
        <ele>49</ele>
        <time>2015-12-13T10:49:42Z</time>
      </trkpt>
      <trkpt lat="50.75827" lon="3.6506">
        <ele>49</ele>
        <time>2015-12-13T10:49:43Z</time>
      </trkpt>
      <trkpt lat="50.75827" lon="3.65057">
        <ele>49</ele>
        <time>2015-12-13T10:49:44Z</time>
      </trkpt>
      <trkpt lat="50.75827" lon="3.65053">
        <ele>49</ele>
        <time>2015-12-13T10:49:45Z</time>
      </trkpt>
      <trkpt lat="50.75826" lon="3.6505">
        <ele>49</ele>
        <time>2015-12-13T10:49:46Z</time>
      </trkpt>
      <trkpt lat="50.75825" lon="3.65046">
        <ele>49</ele>
        <time>2015-12-13T10:49:47Z</time>
      </trkpt>
      <trkpt lat="50.75824" lon="3.65043">
        <ele>49</ele>
        <time>2015-12-13T10:49:48Z</time>
      </trkpt>
      <trkpt lat="50.75823" lon="3.65041">
        <ele>49</ele>
        <time>2015-12-13T10:49:49Z</time>
      </trkpt>
      <trkpt lat="50.75822" lon="3.65038">
        <ele>49</ele>
        <time>2015-12-13T10:49:50Z</time>
      </trkpt>
      <trkpt lat="50.7582" lon="3.65035">
        <ele>48.3</ele>
        <time>2015-12-13T10:49:51Z</time>
      </trkpt>
      <trkpt lat="50.75819" lon="3.65031">
        <ele>48</ele>
        <time>2015-12-13T10:49:52Z</time>
      </trkpt>
      <trkpt lat="50.75818" lon="3.65028">
        <ele>48</ele>
        <time>2015-12-13T10:49:53Z</time>
      </trkpt>
      <trkpt lat="50.75817" lon="3.65025">
        <ele>48</ele>
        <time>2015-12-13T10:49:54Z</time>
      </trkpt>
      <trkpt lat="50.75816" lon="3.65022">
        <ele>48</ele>
        <time>2015-12-13T10:49:55Z</time>
      </trkpt>
      <trkpt lat="50.75815" lon="3.65019">
        <ele>48</ele>
        <time>2015-12-13T10:49:56Z</time>
      </trkpt>
      <trkpt lat="50.75815" lon="3.65016">
        <ele>48</ele>
        <time>2015-12-13T10:49:57Z</time>
      </trkpt>
      <trkpt lat="50.75814" lon="3.65013">
        <ele>48</ele>
        <time>2015-12-13T10:49:58Z</time>
      </trkpt>
      <trkpt lat="50.75813" lon="3.65009">
        <ele>48</ele>
        <time>2015-12-13T10:49:59Z</time>
      </trkpt>
      <trkpt lat="50.75811" lon="3.65006">
        <ele>48</ele>
        <time>2015-12-13T10:50:00Z</time>
      </trkpt>
      <trkpt lat="50.7581" lon="3.65003">
        <ele>46.6</ele>
        <time>2015-12-13T10:50:01Z</time>
      </trkpt>
      <trkpt lat="50.75808" lon="3.65001">
        <ele>46</ele>
        <time>2015-12-13T10:50:02Z</time>
      </trkpt>
      <trkpt lat="50.75807" lon="3.64999">
        <ele>46</ele>
        <time>2015-12-13T10:50:03Z</time>
      </trkpt>
      <trkpt lat="50.75804" lon="3.64996">
        <ele>46</ele>
        <time>2015-12-13T10:50:05Z</time>
      </trkpt>
      <trkpt lat="50.75802" lon="3.64993">
        <ele>46</ele>
        <time>2015-12-13T10:50:07Z</time>
      </trkpt>
      <trkpt lat="50.75802" lon="3.6499">
        <ele>46</ele>
        <time>2015-12-13T10:50:09Z</time>
      </trkpt>
      <trkpt lat="50.75803" lon="3.64987">
        <ele>46</ele>
        <time>2015-12-13T10:50:11Z</time>
      </trkpt>
      <trkpt lat="50.75805" lon="3.64985">
        <ele>46</ele>
        <time>2015-12-13T10:50:13Z</time>
      </trkpt>
      <trkpt lat="50.75807" lon="3.64984">
        <ele>46</ele>
        <time>2015-12-13T10:50:15Z</time>
      </trkpt>
      <trkpt lat="50.7581" lon="3.64983">
        <ele>46</ele>
        <time>2015-12-13T10:50:17Z</time>
      </trkpt>
      <trkpt lat="50.75812" lon="3.64982">
        <ele>46</ele>
        <time>2015-12-13T10:50:19Z</time>
      </trkpt>
      <trkpt lat="50.75815" lon="3.64982">
        <ele>46.7</ele>
        <time>2015-12-13T10:50:21Z</time>
      </trkpt>
      <trkpt lat="50.75817" lon="3.64981">
        <ele>47</ele>
        <time>2015-12-13T10:50:24Z</time>
      </trkpt>
      <trkpt lat="50.75819" lon="3.6498">
        <ele>47</ele>
        <time>2015-12-13T10:50:27Z</time>
      </trkpt>
      <trkpt lat="50.75822" lon="3.64979">
        <ele>47</ele>
        <time>2015-12-13T10:50:30Z</time>
      </trkpt>
      <trkpt lat="50.75824" lon="3.64979">
        <ele>47</ele>
        <time>2015-12-13T10:50:32Z</time>
      </trkpt>
      <trkpt lat="50.75827" lon="3.64978">
        <ele>47</ele>
        <time>2015-12-13T10:50:34Z</time>
      </trkpt>
      <trkpt lat="50.75829" lon="3.64978">
        <ele>47</ele>
        <time>2015-12-13T10:50:36Z</time>
      </trkpt>
      <trkpt lat="50.75832" lon="3.64977">
        <ele>47</ele>
        <time>2015-12-13T10:50:38Z</time>
      </trkpt>
      <trkpt lat="50.75834" lon="3.64977">
        <ele>47</ele>
        <time>2015-12-13T10:50:40Z</time>
      </trkpt>
      <trkpt lat="50.75836" lon="3.64976">
        <ele>49</ele>
        <time>2015-12-13T10:50:42Z</time>
      </trkpt>
      <trkpt lat="50.75838" lon="3.64976">
        <ele>49</ele>
        <time>2015-12-13T10:50:44Z</time>
      </trkpt>
      <trkpt lat="50.7584" lon="3.64975">
        <ele>49</ele>
        <time>2015-12-13T10:50:46Z</time>
      </trkpt>
      <trkpt lat="50.75843" lon="3.64974">
        <ele>49</ele>
        <time>2015-12-13T10:50:48Z</time>
      </trkpt>
      <trkpt lat="50.75845" lon="3.64973">
        <ele>49</ele>
        <time>2015-12-13T10:50:50Z</time>
      </trkpt>
      <trkpt lat="50.75848" lon="3.64972">
        <ele>49</ele>
        <time>2015-12-13T10:50:52Z</time>
      </trkpt>
      <trkpt lat="50.7585" lon="3.64971">
        <ele>49</ele>
        <time>2015-12-13T10:50:54Z</time>
      </trkpt>
      <trkpt lat="50.75853" lon="3.6497">
        <ele>49</ele>
        <time>2015-12-13T10:50:56Z</time>
      </trkpt>
      <trkpt lat="50.75855" lon="3.64969">
        <ele>49</ele>
        <time>2015-12-13T10:50:58Z</time>
      </trkpt>
      <trkpt lat="50.75858" lon="3.64969">
        <ele>49</ele>
        <time>2015-12-13T10:51:00Z</time>
      </trkpt>
      <trkpt lat="50.75861" lon="3.64968">
        <ele>49</ele>
        <time>2015-12-13T10:51:02Z</time>
      </trkpt>
      <trkpt lat="50.75864" lon="3.64967">
        <ele>49</ele>
        <time>2015-12-13T10:51:04Z</time>
      </trkpt>
      <trkpt lat="50.75867" lon="3.64967">
        <ele>49</ele>
        <time>2015-12-13T10:51:06Z</time>
      </trkpt>
      <trkpt lat="50.7587" lon="3.64966">
        <ele>49</ele>
        <time>2015-12-13T10:51:08Z</time>
      </trkpt>
      <trkpt lat="50.75873" lon="3.64965">
        <ele>49</ele>
        <time>2015-12-13T10:51:10Z</time>
      </trkpt>
      <trkpt lat="50.75876" lon="3.64965">
        <ele>50</ele>
        <time>2015-12-13T10:51:12Z</time>
      </trkpt>
      <trkpt lat="50.75879" lon="3.64964">
        <ele>50</ele>
        <time>2015-12-13T10:51:14Z</time>
      </trkpt>
      <trkpt lat="50.75882" lon="3.64964">
        <ele>50</ele>
        <time>2015-12-13T10:51:16Z</time>
      </trkpt>
      <trkpt lat="50.75884" lon="3.64963">
        <ele>50</ele>
        <time>2015-12-13T10:51:18Z</time>
      </trkpt>
      <trkpt lat="50.75887" lon="3.64962">
        <ele>50</ele>
        <time>2015-12-13T10:51:20Z</time>
      </trkpt>
      <trkpt lat="50.7589" lon="3.64962">
        <ele>51</ele>
        <time>2015-12-13T10:51:22Z</time>
      </trkpt>
      <trkpt lat="50.75893" lon="3.64961">
        <ele>51</ele>
        <time>2015-12-13T10:51:24Z</time>
      </trkpt>
      <trkpt lat="50.75895" lon="3.6496">
        <ele>51</ele>
        <time>2015-12-13T10:51:26Z</time>
      </trkpt>
      <trkpt lat="50.75897" lon="3.64959">
        <ele>51</ele>
        <time>2015-12-13T10:51:28Z</time>
      </trkpt>
      <trkpt lat="50.75899" lon="3.64958">
        <ele>51</ele>
        <time>2015-12-13T10:51:30Z</time>
      </trkpt>
      <trkpt lat="50.75902" lon="3.64958">
        <ele>53</ele>
        <time>2015-12-13T10:51:32Z</time>
      </trkpt>
      <trkpt lat="50.75904" lon="3.64961">
        <ele>53</ele>
        <time>2015-12-13T10:51:34Z</time>
      </trkpt>
      <trkpt lat="50.75906" lon="3.64964">
        <ele>53</ele>
        <time>2015-12-13T10:51:36Z</time>
      </trkpt>
      <trkpt lat="50.75909" lon="3.64966">
        <ele>53</ele>
        <time>2015-12-13T10:51:40Z</time>
      </trkpt>
      <trkpt lat="50.7591" lon="3.64968">
        <ele>53</ele>
        <time>2015-12-13T10:51:41Z</time>
      </trkpt>
      <trkpt lat="50.75914" lon="3.64969">
        <ele>53</ele>
        <time>2015-12-13T10:51:43Z</time>
      </trkpt>
      <trkpt lat="50.75916" lon="3.6497">
        <ele>53</ele>
        <time>2015-12-13T10:51:45Z</time>
      </trkpt>
      <trkpt lat="50.75919" lon="3.64971">
        <ele>53</ele>
        <time>2015-12-13T10:51:47Z</time>
      </trkpt>
      <trkpt lat="50.75922" lon="3.64971">
        <ele>53</ele>
        <time>2015-12-13T10:51:49Z</time>
      </trkpt>
      <trkpt lat="50.75925" lon="3.64972">
        <ele>54.4</ele>
        <time>2015-12-13T10:51:51Z</time>
      </trkpt>
      <trkpt lat="50.75928" lon="3.64973">
        <ele>55</ele>
        <time>2015-12-13T10:51:53Z</time>
      </trkpt>
      <trkpt lat="50.75931" lon="3.64974">
        <ele>55</ele>
        <time>2015-12-13T10:51:55Z</time>
      </trkpt>
      <trkpt lat="50.75935" lon="3.64974">
        <ele>55</ele>
        <time>2015-12-13T10:51:57Z</time>
      </trkpt>
      <trkpt lat="50.75938" lon="3.64975">
        <ele>55</ele>
        <time>2015-12-13T10:51:59Z</time>
      </trkpt>
      <trkpt lat="50.75941" lon="3.64976">
        <ele>54.5</ele>
        <time>2015-12-13T10:52:01Z</time>
      </trkpt>
      <trkpt lat="50.75943" lon="3.64976">
        <ele>54</ele>
        <time>2015-12-13T10:52:02Z</time>
      </trkpt>
      <trkpt lat="50.75946" lon="3.64977">
        <ele>54</ele>
        <time>2015-12-13T10:52:04Z</time>
      </trkpt>
      <trkpt lat="50.75948" lon="3.64977">
        <ele>54</ele>
        <time>2015-12-13T10:52:05Z</time>
      </trkpt>
      <trkpt lat="50.75951" lon="3.64977">
        <ele>54</ele>
        <time>2015-12-13T10:52:06Z</time>
      </trkpt>
      <trkpt lat="50.75953" lon="3.64978">
        <ele>54</ele>
        <time>2015-12-13T10:52:07Z</time>
      </trkpt>
      <trkpt lat="50.75955" lon="3.64978">
        <ele>54</ele>
        <time>2015-12-13T10:52:08Z</time>
      </trkpt>
      <trkpt lat="50.75959" lon="3.64979">
        <ele>54</ele>
        <time>2015-12-13T10:52:10Z</time>
      </trkpt>
      <trkpt lat="50.75961" lon="3.64979">
        <ele>54</ele>
        <time>2015-12-13T10:52:11Z</time>
      </trkpt>
      <trkpt lat="50.75963" lon="3.64979">
        <ele>54</ele>
        <time>2015-12-13T10:52:12Z</time>
      </trkpt>
      <trkpt lat="50.75965" lon="3.64979">
        <ele>54</ele>
        <time>2015-12-13T10:52:13Z</time>
      </trkpt>
      <trkpt lat="50.75968" lon="3.64978">
        <ele>54</ele>
        <time>2015-12-13T10:52:14Z</time>
      </trkpt>
      <trkpt lat="50.75971" lon="3.64977">
        <ele>54</ele>
        <time>2015-12-13T10:52:15Z</time>
      </trkpt>
      <trkpt lat="50.75973" lon="3.64977">
        <ele>54</ele>
        <time>2015-12-13T10:52:16Z</time>
      </trkpt>
      <trkpt lat="50.75975" lon="3.64977">
        <ele>54</ele>
        <time>2015-12-13T10:52:17Z</time>
      </trkpt>
      <trkpt lat="50.75977" lon="3.64976">
        <ele>54</ele>
        <time>2015-12-13T10:52:18Z</time>
      </trkpt>
      <trkpt lat="50.7598" lon="3.64976">
        <ele>54</ele>
        <time>2015-12-13T10:52:19Z</time>
      </trkpt>
      <trkpt lat="50.75981" lon="3.64975">
        <ele>54</ele>
        <time>2015-12-13T10:52:20Z</time>
      </trkpt>
      <trkpt lat="50.75984" lon="3.64973">
        <ele>54.7</ele>
        <time>2015-12-13T10:52:22Z</time>
      </trkpt>
      <trkpt lat="50.75988" lon="3.64971">
        <ele>55</ele>
        <time>2015-12-13T10:52:24Z</time>
      </trkpt>
      <trkpt lat="50.7599" lon="3.6497">
        <ele>55</ele>
        <time>2015-12-13T10:52:25Z</time>
      </trkpt>
      <trkpt lat="50.75992" lon="3.64969">
        <ele>55</ele>
        <time>2015-12-13T10:52:26Z</time>
      </trkpt>
      <trkpt lat="50.75994" lon="3.64968">
        <ele>55</ele>
        <time>2015-12-13T10:52:27Z</time>
      </trkpt>
      <trkpt lat="50.75997" lon="3.64965">
        <ele>55</ele>
        <time>2015-12-13T10:52:29Z</time>
      </trkpt>
      <trkpt lat="50.75999" lon="3.64963">
        <ele>55</ele>
        <time>2015-12-13T10:52:30Z</time>
      </trkpt>
      <trkpt lat="50.76001" lon="3.64962">
        <ele>56.4</ele>
        <time>2015-12-13T10:52:31Z</time>
      </trkpt>
      <trkpt lat="50.76003" lon="3.64961">
        <ele>57</ele>
        <time>2015-12-13T10:52:32Z</time>
      </trkpt>
      <trkpt lat="50.76005" lon="3.64959">
        <ele>57</ele>
        <time>2015-12-13T10:52:33Z</time>
      </trkpt>
      <trkpt lat="50.76007" lon="3.64957">
        <ele>57</ele>
        <time>2015-12-13T10:52:34Z</time>
      </trkpt>
      <trkpt lat="50.76009" lon="3.64955">
        <ele>57</ele>
        <time>2015-12-13T10:52:35Z</time>
      </trkpt>
      <trkpt lat="50.76011" lon="3.64954">
        <ele>57</ele>
        <time>2015-12-13T10:52:37Z</time>
      </trkpt>
      <trkpt lat="50.76014" lon="3.64951">
        <ele>57</ele>
        <time>2015-12-13T10:52:39Z</time>
      </trkpt>
      <trkpt lat="50.76017" lon="3.64948">
        <ele>57.7</ele>
        <time>2015-12-13T10:52:41Z</time>
      </trkpt>
      <trkpt lat="50.76019" lon="3.64946">
        <ele>58</ele>
        <time>2015-12-13T10:52:42Z</time>
      </trkpt>
      <trkpt lat="50.76021" lon="3.64945">
        <ele>58</ele>
        <time>2015-12-13T10:52:43Z</time>
      </trkpt>
      <trkpt lat="50.76023" lon="3.64943">
        <ele>58</ele>
        <time>2015-12-13T10:52:44Z</time>
      </trkpt>
      <trkpt lat="50.76025" lon="3.64939">
        <ele>58.7</ele>
        <time>2015-12-13T10:52:46Z</time>
      </trkpt>
      <trkpt lat="50.76028" lon="3.64936">
        <ele>59</ele>
        <time>2015-12-13T10:52:48Z</time>
      </trkpt>
      <trkpt lat="50.76029" lon="3.64934">
        <ele>59</ele>
        <time>2015-12-13T10:52:49Z</time>
      </trkpt>
      <trkpt lat="50.76032" lon="3.64931">
        <ele>59</ele>
        <time>2015-12-13T10:52:51Z</time>
      </trkpt>
      <trkpt lat="50.76034" lon="3.64928">
        <ele>59</ele>
        <time>2015-12-13T10:52:53Z</time>
      </trkpt>
      <trkpt lat="50.76036" lon="3.64926">
        <ele>59</ele>
        <time>2015-12-13T10:52:55Z</time>
      </trkpt>
      <trkpt lat="50.76039" lon="3.64927">
        <ele>59</ele>
        <time>2015-12-13T10:52:57Z</time>
      </trkpt>
      <trkpt lat="50.76041" lon="3.64928">
        <ele>59</ele>
        <time>2015-12-13T10:52:59Z</time>
      </trkpt>
      <trkpt lat="50.76047" lon="3.6493">
        <ele>60</ele>
        <time>2015-12-13T10:53:08Z</time>
      </trkpt>
      <trkpt lat="50.7605" lon="3.6493">
        <ele>60</ele>
        <time>2015-12-13T10:53:10Z</time>
      </trkpt>
      <trkpt lat="50.76052" lon="3.64931">
        <ele>61</ele>
        <time>2015-12-13T10:53:12Z</time>
      </trkpt>
      <trkpt lat="50.76055" lon="3.64932">
        <ele>61</ele>
        <time>2015-12-13T10:53:14Z</time>
      </trkpt>
      <trkpt lat="50.76056" lon="3.64933">
        <ele>61</ele>
        <time>2015-12-13T10:53:15Z</time>
      </trkpt>
      <trkpt lat="50.76063" lon="3.64938">
        <ele>62</ele>
        <time>2015-12-13T10:53:26Z</time>
      </trkpt>
      <trkpt lat="50.76065" lon="3.64937">
        <ele>62</ele>
        <time>2015-12-13T10:53:28Z</time>
      </trkpt>
      <trkpt lat="50.76067" lon="3.64936">
        <ele>62</ele>
        <time>2015-12-13T10:53:30Z</time>
      </trkpt>
      <trkpt lat="50.76068" lon="3.64934">
        <ele>64</ele>
        <time>2015-12-13T10:53:32Z</time>
      </trkpt>
      <trkpt lat="50.7607" lon="3.64932">
        <ele>64</ele>
        <time>2015-12-13T10:53:34Z</time>
      </trkpt>
      <trkpt lat="50.76072" lon="3.64932">
        <ele>64</ele>
        <time>2015-12-13T10:53:36Z</time>
      </trkpt>
      <trkpt lat="50.76074" lon="3.64931">
        <ele>64</ele>
        <time>2015-12-13T10:53:39Z</time>
      </trkpt>
      <trkpt lat="50.76077" lon="3.6493">
        <ele>66</ele>
        <time>2015-12-13T10:53:44Z</time>
      </trkpt>
      <trkpt lat="50.76079" lon="3.64928">
        <ele>69</ele>
        <time>2015-12-13T10:53:47Z</time>
      </trkpt>
      <trkpt lat="50.76081" lon="3.64925">
        <ele>69</ele>
        <time>2015-12-13T10:53:50Z</time>
      </trkpt>
      <trkpt lat="50.76083" lon="3.64922">
        <ele>69</ele>
        <time>2015-12-13T10:53:52Z</time>
      </trkpt>
      <trkpt lat="50.76083" lon="3.64919">
        <ele>69</ele>
        <time>2015-12-13T10:53:54Z</time>
      </trkpt>
      <trkpt lat="50.76084" lon="3.64916">
        <ele>69.7</ele>
        <time>2015-12-13T10:53:56Z</time>
      </trkpt>
      <trkpt lat="50.76085" lon="3.64912">
        <ele>70</ele>
        <time>2015-12-13T10:53:58Z</time>
      </trkpt>
      <trkpt lat="50.76086" lon="3.64908">
        <ele>70</ele>
        <time>2015-12-13T10:54:00Z</time>
      </trkpt>
      <trkpt lat="50.76088" lon="3.64906">
        <ele>69</ele>
        <time>2015-12-13T10:54:02Z</time>
      </trkpt>
      <trkpt lat="50.76089" lon="3.64904">
        <ele>69</ele>
        <time>2015-12-13T10:54:04Z</time>
      </trkpt>
      <trkpt lat="50.7609" lon="3.64902">
        <ele>69</ele>
        <time>2015-12-13T10:54:06Z</time>
      </trkpt>
      <trkpt lat="50.76092" lon="3.64899">
        <ele>69</ele>
        <time>2015-12-13T10:54:08Z</time>
      </trkpt>
      <trkpt lat="50.76093" lon="3.64897">
        <ele>69</ele>
        <time>2015-12-13T10:54:09Z</time>
      </trkpt>
      <trkpt lat="50.76096" lon="3.64894">
        <ele>69</ele>
        <time>2015-12-13T10:54:11Z</time>
      </trkpt>
      <trkpt lat="50.76098" lon="3.64891">
        <ele>69</ele>
        <time>2015-12-13T10:54:14Z</time>
      </trkpt>
      <trkpt lat="50.76098" lon="3.64889">
        <ele>69</ele>
        <time>2015-12-13T10:54:16Z</time>
      </trkpt>
      <trkpt lat="50.761" lon="3.64886">
        <ele>69</ele>
        <time>2015-12-13T10:54:18Z</time>
      </trkpt>
      <trkpt lat="50.76102" lon="3.64882">
        <ele>69</ele>
        <time>2015-12-13T10:54:20Z</time>
      </trkpt>
      <trkpt lat="50.76105" lon="3.6488">
        <ele>70</ele>
        <time>2015-12-13T10:54:22Z</time>
      </trkpt>
      <trkpt lat="50.76107" lon="3.64878">
        <ele>70</ele>
        <time>2015-12-13T10:54:24Z</time>
      </trkpt>
      <trkpt lat="50.76109" lon="3.64876">
        <ele>70</ele>
        <time>2015-12-13T10:54:26Z</time>
      </trkpt>
      <trkpt lat="50.7611" lon="3.64873">
        <ele>70</ele>
        <time>2015-12-13T10:54:28Z</time>
      </trkpt>
      <trkpt lat="50.76113" lon="3.64871">
        <ele>70</ele>
        <time>2015-12-13T10:54:30Z</time>
      </trkpt>
      <trkpt lat="50.76115" lon="3.6487">
        <ele>71</ele>
        <time>2015-12-13T10:54:32Z</time>
      </trkpt>
      <trkpt lat="50.76118" lon="3.6487">
        <ele>71</ele>
        <time>2015-12-13T10:54:34Z</time>
      </trkpt>
      <trkpt lat="50.7612" lon="3.64872">
        <ele>71</ele>
        <time>2015-12-13T10:54:36Z</time>
      </trkpt>
      <trkpt lat="50.76121" lon="3.64873">
        <ele>71</ele>
        <time>2015-12-13T10:54:37Z</time>
      </trkpt>
      <trkpt lat="50.76124" lon="3.64876">
        <ele>71</ele>
        <time>2015-12-13T10:54:39Z</time>
      </trkpt>
      <trkpt lat="50.76126" lon="3.6488">
        <ele>72</ele>
        <time>2015-12-13T10:54:42Z</time>
      </trkpt>
      <trkpt lat="50.76126" lon="3.64883">
        <ele>72</ele>
        <time>2015-12-13T10:54:43Z</time>
      </trkpt>
      <trkpt lat="50.76128" lon="3.64885">
        <ele>72</ele>
        <time>2015-12-13T10:54:44Z</time>
      </trkpt>
      <trkpt lat="50.76129" lon="3.64889">
        <ele>72</ele>
        <time>2015-12-13T10:54:46Z</time>
      </trkpt>
      <trkpt lat="50.76131" lon="3.64892">
        <ele>72</ele>
        <time>2015-12-13T10:54:48Z</time>
      </trkpt>
      <trkpt lat="50.76133" lon="3.64896">
        <ele>72</ele>
        <time>2015-12-13T10:54:50Z</time>
      </trkpt>
      <trkpt lat="50.76133" lon="3.64899">
        <ele>73</ele>
        <time>2015-12-13T10:54:52Z</time>
      </trkpt>
      <trkpt lat="50.76134" lon="3.64904">
        <ele>73</ele>
        <time>2015-12-13T10:54:54Z</time>
      </trkpt>
      <trkpt lat="50.76133" lon="3.64908">
        <ele>73</ele>
        <time>2015-12-13T10:54:56Z</time>
      </trkpt>
      <trkpt lat="50.76131" lon="3.64911">
        <ele>73</ele>
        <time>2015-12-13T10:54:58Z</time>
      </trkpt>
      <trkpt lat="50.76133" lon="3.64913">
        <ele>73</ele>
        <time>2015-12-13T10:55:00Z</time>
      </trkpt>
      <trkpt lat="50.76135" lon="3.64915">
        <ele>74</ele>
        <time>2015-12-13T10:55:03Z</time>
      </trkpt>
      <trkpt lat="50.76137" lon="3.64916">
        <ele>74</ele>
        <time>2015-12-13T10:55:06Z</time>
      </trkpt>
      <trkpt lat="50.76139" lon="3.64915">
        <ele>74</ele>
        <time>2015-12-13T10:55:08Z</time>
      </trkpt>
      <trkpt lat="50.76141" lon="3.64915">
        <ele>74</ele>
        <time>2015-12-13T10:55:10Z</time>
      </trkpt>
      <trkpt lat="50.76144" lon="3.64915">
        <ele>76</ele>
        <time>2015-12-13T10:55:12Z</time>
      </trkpt>
      <trkpt lat="50.76147" lon="3.64916">
        <ele>76</ele>
        <time>2015-12-13T10:55:14Z</time>
      </trkpt>
      <trkpt lat="50.76149" lon="3.64915">
        <ele>76.7</ele>
        <time>2015-12-13T10:55:16Z</time>
      </trkpt>
      <trkpt lat="50.76152" lon="3.64913">
        <ele>77</ele>
        <time>2015-12-13T10:55:19Z</time>
      </trkpt>
      <trkpt lat="50.76154" lon="3.6491">
        <ele>77.7</ele>
        <time>2015-12-13T10:55:21Z</time>
      </trkpt>
      <trkpt lat="50.76156" lon="3.64908">
        <ele>78</ele>
        <time>2015-12-13T10:55:23Z</time>
      </trkpt>
      <trkpt lat="50.76159" lon="3.64906">
        <ele>78</ele>
        <time>2015-12-13T10:55:25Z</time>
      </trkpt>
      <trkpt lat="50.7616" lon="3.64904">
        <ele>78</ele>
        <time>2015-12-13T10:55:27Z</time>
      </trkpt>
      <trkpt lat="50.76163" lon="3.64902">
        <ele>78</ele>
        <time>2015-12-13T10:55:29Z</time>
      </trkpt>
      <trkpt lat="50.76165" lon="3.649">
        <ele>78.5</ele>
        <time>2015-12-13T10:55:31Z</time>
      </trkpt>
      <trkpt lat="50.76166" lon="3.64897">
        <ele>79</ele>
        <time>2015-12-13T10:55:33Z</time>
      </trkpt>
      <trkpt lat="50.76168" lon="3.64894">
        <ele>79</ele>
        <time>2015-12-13T10:55:35Z</time>
      </trkpt>
      <trkpt lat="50.7617" lon="3.64891">
        <ele>79</ele>
        <time>2015-12-13T10:55:37Z</time>
      </trkpt>
      <trkpt lat="50.76172" lon="3.64888">
        <ele>79</ele>
        <time>2015-12-13T10:55:39Z</time>
      </trkpt>
      <trkpt lat="50.76173" lon="3.64884">
        <ele>79.7</ele>
        <time>2015-12-13T10:55:41Z</time>
      </trkpt>
      <trkpt lat="50.76174" lon="3.64882">
        <ele>80</ele>
        <time>2015-12-13T10:55:43Z</time>
      </trkpt>
      <trkpt lat="50.76176" lon="3.64879">
        <ele>80</ele>
        <time>2015-12-13T10:55:45Z</time>
      </trkpt>
      <trkpt lat="50.76179" lon="3.64876">
        <ele>80</ele>
        <time>2015-12-13T10:55:47Z</time>
      </trkpt>
      <trkpt lat="50.7618" lon="3.64875">
        <ele>80</ele>
        <time>2015-12-13T10:55:49Z</time>
      </trkpt>
      <trkpt lat="50.76182" lon="3.64873">
        <ele>81.4</ele>
        <time>2015-12-13T10:55:51Z</time>
      </trkpt>
      <trkpt lat="50.76183" lon="3.6487">
        <ele>82</ele>
        <time>2015-12-13T10:55:53Z</time>
      </trkpt>
      <trkpt lat="50.76185" lon="3.64869">
        <ele>82</ele>
        <time>2015-12-13T10:55:55Z</time>
      </trkpt>
      <trkpt lat="50.76188" lon="3.64868">
        <ele>82</ele>
        <time>2015-12-13T10:55:58Z</time>
      </trkpt>
      <trkpt lat="50.7619" lon="3.64866">
        <ele>82</ele>
        <time>2015-12-13T10:56:00Z</time>
      </trkpt>
      <trkpt lat="50.76192" lon="3.64864">
        <ele>83</ele>
        <time>2015-12-13T10:56:02Z</time>
      </trkpt>
      <trkpt lat="50.76195" lon="3.64861">
        <ele>83</ele>
        <time>2015-12-13T10:56:04Z</time>
      </trkpt>
      <trkpt lat="50.76197" lon="3.64859">
        <ele>83</ele>
        <time>2015-12-13T10:56:06Z</time>
      </trkpt>
      <trkpt lat="50.76198" lon="3.64856">
        <ele>83</ele>
        <time>2015-12-13T10:56:08Z</time>
      </trkpt>
      <trkpt lat="50.762" lon="3.64852">
        <ele>83</ele>
        <time>2015-12-13T10:56:10Z</time>
      </trkpt>
      <trkpt lat="50.76202" lon="3.64848">
        <ele>83</ele>
        <time>2015-12-13T10:56:12Z</time>
      </trkpt>
      <trkpt lat="50.76202" lon="3.64845">
        <ele>83</ele>
        <time>2015-12-13T10:56:14Z</time>
      </trkpt>
      <trkpt lat="50.76202" lon="3.64842">
        <ele>83</ele>
        <time>2015-12-13T10:56:15Z</time>
      </trkpt>
      <trkpt lat="50.76201" lon="3.64839">
        <ele>83</ele>
        <time>2015-12-13T10:56:16Z</time>
      </trkpt>
      <trkpt lat="50.76201" lon="3.64835">
        <ele>83</ele>
        <time>2015-12-13T10:56:20Z</time>
      </trkpt>
      <trkpt lat="50.762" lon="3.6483">
        <ele>83</ele>
        <time>2015-12-13T10:56:22Z</time>
      </trkpt>
      <trkpt lat="50.76199" lon="3.64826">
        <ele>83</ele>
        <time>2015-12-13T10:56:23Z</time>
      </trkpt>
      <trkpt lat="50.76198" lon="3.64822">
        <ele>83</ele>
        <time>2015-12-13T10:56:24Z</time>
      </trkpt>
      <trkpt lat="50.76198" lon="3.64819">
        <ele>83</ele>
        <time>2015-12-13T10:56:25Z</time>
      </trkpt>
      <trkpt lat="50.76197" lon="3.64816">
        <ele>83</ele>
        <time>2015-12-13T10:56:26Z</time>
      </trkpt>
      <trkpt lat="50.76197" lon="3.64812">
        <ele>83</ele>
        <time>2015-12-13T10:56:27Z</time>
      </trkpt>
      <trkpt lat="50.76197" lon="3.64809">
        <ele>83</ele>
        <time>2015-12-13T10:56:28Z</time>
      </trkpt>
      <trkpt lat="50.76198" lon="3.64805">
        <ele>83</ele>
        <time>2015-12-13T10:56:30Z</time>
      </trkpt>
      <trkpt lat="50.76199" lon="3.648">
        <ele>82</ele>
        <time>2015-12-13T10:56:32Z</time>
      </trkpt>
      <trkpt lat="50.76199" lon="3.64797">
        <ele>82</ele>
        <time>2015-12-13T10:56:33Z</time>
      </trkpt>
      <trkpt lat="50.762" lon="3.64793">
        <ele>82</ele>
        <time>2015-12-13T10:56:34Z</time>
      </trkpt>
      <trkpt lat="50.762" lon="3.6479">
        <ele>82</ele>
        <time>2015-12-13T10:56:35Z</time>
      </trkpt>
      <trkpt lat="50.762" lon="3.64787">
        <ele>82</ele>
        <time>2015-12-13T10:56:36Z</time>
      </trkpt>
      <trkpt lat="50.76201" lon="3.64784">
        <ele>82</ele>
        <time>2015-12-13T10:56:37Z</time>
      </trkpt>
      <trkpt lat="50.76202" lon="3.6478">
        <ele>82</ele>
        <time>2015-12-13T10:56:38Z</time>
      </trkpt>
      <trkpt lat="50.76202" lon="3.64776">
        <ele>82</ele>
        <time>2015-12-13T10:56:39Z</time>
      </trkpt>
      <trkpt lat="50.76203" lon="3.64773">
        <ele>82</ele>
        <time>2015-12-13T10:56:40Z</time>
      </trkpt>
      <trkpt lat="50.76205" lon="3.64769">
        <ele>79</ele>
        <time>2015-12-13T10:56:42Z</time>
      </trkpt>
      <trkpt lat="50.76207" lon="3.64766">
        <ele>79</ele>
        <time>2015-12-13T10:56:44Z</time>
      </trkpt>
      <trkpt lat="50.7621" lon="3.64763">
        <ele>79</ele>
        <time>2015-12-13T10:56:46Z</time>
      </trkpt>
      <trkpt lat="50.76212" lon="3.64761">
        <ele>79</ele>
        <time>2015-12-13T10:56:47Z</time>
      </trkpt>
      <trkpt lat="50.76214" lon="3.64758">
        <ele>79</ele>
        <time>2015-12-13T10:56:49Z</time>
      </trkpt>
      <trkpt lat="50.76216" lon="3.64755">
        <ele>79</ele>
        <time>2015-12-13T10:56:51Z</time>
      </trkpt>
      <trkpt lat="50.76218" lon="3.64752">
        <ele>79</ele>
        <time>2015-12-13T10:56:53Z</time>
      </trkpt>
      <trkpt lat="50.7622" lon="3.6475">
        <ele>79</ele>
        <time>2015-12-13T10:56:55Z</time>
      </trkpt>
      <trkpt lat="50.76222" lon="3.64748">
        <ele>79</ele>
        <time>2015-12-13T10:56:57Z</time>
      </trkpt>
      <trkpt lat="50.76224" lon="3.64746">
        <ele>79</ele>
        <time>2015-12-13T10:56:59Z</time>
      </trkpt>
      <trkpt lat="50.76228" lon="3.64743">
        <ele>80</ele>
        <time>2015-12-13T10:57:02Z</time>
      </trkpt>
      <trkpt lat="50.76232" lon="3.64739">
        <ele>80</ele>
        <time>2015-12-13T10:57:06Z</time>
      </trkpt>
      <trkpt lat="50.76233" lon="3.64736">
        <ele>80</ele>
        <time>2015-12-13T10:57:08Z</time>
      </trkpt>
      <trkpt lat="50.76235" lon="3.64734">
        <ele>80</ele>
        <time>2015-12-13T10:57:10Z</time>
      </trkpt>
      <trkpt lat="50.76236" lon="3.64731">
        <ele>80</ele>
        <time>2015-12-13T10:57:12Z</time>
      </trkpt>
      <trkpt lat="50.76239" lon="3.64729">
        <ele>80.7</ele>
        <time>2015-12-13T10:57:14Z</time>
      </trkpt>
      <trkpt lat="50.76241" lon="3.64727">
        <ele>81</ele>
        <time>2015-12-13T10:57:16Z</time>
      </trkpt>
      <trkpt lat="50.76244" lon="3.64728">
        <ele>81</ele>
        <time>2015-12-13T10:57:18Z</time>
      </trkpt>
      <trkpt lat="50.76247" lon="3.64728">
        <ele>81.7</ele>
        <time>2015-12-13T10:57:21Z</time>
      </trkpt>
      <trkpt lat="50.7625" lon="3.64729">
        <ele>82</ele>
        <time>2015-12-13T10:57:23Z</time>
      </trkpt>
      <trkpt lat="50.76253" lon="3.6473">
        <ele>82</ele>
        <time>2015-12-13T10:57:26Z</time>
      </trkpt>
      <trkpt lat="50.76255" lon="3.6473">
        <ele>82</ele>
        <time>2015-12-13T10:57:28Z</time>
      </trkpt>
      <trkpt lat="50.76257" lon="3.64729">
        <ele>82</ele>
        <time>2015-12-13T10:57:30Z</time>
      </trkpt>
      <trkpt lat="50.76259" lon="3.64729">
        <ele>84</ele>
        <time>2015-12-13T10:57:32Z</time>
      </trkpt>
      <trkpt lat="50.76262" lon="3.64731">
        <ele>84</ele>
        <time>2015-12-13T10:57:34Z</time>
      </trkpt>
      <trkpt lat="50.76264" lon="3.64732">
        <ele>84</ele>
        <time>2015-12-13T10:57:36Z</time>
      </trkpt>
      <trkpt lat="50.76267" lon="3.64733">
        <ele>84</ele>
        <time>2015-12-13T10:57:38Z</time>
      </trkpt>
      <trkpt lat="50.7627" lon="3.64735">
        <ele>84</ele>
        <time>2015-12-13T10:57:40Z</time>
      </trkpt>
      <trkpt lat="50.76272" lon="3.64737">
        <ele>85</ele>
        <time>2015-12-13T10:57:42Z</time>
      </trkpt>
      <trkpt lat="50.76274" lon="3.6474">
        <ele>85</ele>
        <time>2015-12-13T10:57:44Z</time>
      </trkpt>
      <trkpt lat="50.76276" lon="3.64741">
        <ele>85</ele>
        <time>2015-12-13T10:57:45Z</time>
      </trkpt>
      <trkpt lat="50.76278" lon="3.64743">
        <ele>85</ele>
        <time>2015-12-13T10:57:46Z</time>
      </trkpt>
      <trkpt lat="50.7628" lon="3.64742">
        <ele>85</ele>
        <time>2015-12-13T10:57:50Z</time>
      </trkpt>
      <trkpt lat="50.76282" lon="3.6474">
        <ele>87</ele>
        <time>2015-12-13T10:57:54Z</time>
      </trkpt>
      <trkpt lat="50.76284" lon="3.64738">
        <ele>87</ele>
        <time>2015-12-13T10:57:57Z</time>
      </trkpt>
      <trkpt lat="50.76288" lon="3.64734">
        <ele>87.5</ele>
        <time>2015-12-13T10:58:01Z</time>
      </trkpt>
      <trkpt lat="50.7629" lon="3.64739">
        <ele>88</ele>
        <time>2015-12-13T10:58:07Z</time>
      </trkpt>
      <trkpt lat="50.76289" lon="3.64734">
        <ele>88</ele>
        <time>2015-12-13T10:58:42Z</time>
      </trkpt>
      <trkpt lat="50.76289" lon="3.6473">
        <ele>88</ele>
        <time>2015-12-13T10:58:45Z</time>
      </trkpt>
      <trkpt lat="50.76287" lon="3.64729">
        <ele>89</ele>
        <time>2015-12-13T10:59:09Z</time>
      </trkpt>
      <trkpt lat="50.76287" lon="3.64726">
        <ele>89</ele>
        <time>2015-12-13T10:59:12Z</time>
      </trkpt>
      <trkpt lat="50.76289" lon="3.64724">
        <ele>89</ele>
        <time>2015-12-13T10:59:14Z</time>
      </trkpt>
      <trkpt lat="50.76291" lon="3.64722">
        <ele>89</ele>
        <time>2015-12-13T10:59:16Z</time>
      </trkpt>
      <trkpt lat="50.76294" lon="3.64721">
        <ele>89</ele>
        <time>2015-12-13T10:59:18Z</time>
      </trkpt>
      <trkpt lat="50.76296" lon="3.64722">
        <ele>89</ele>
        <time>2015-12-13T10:59:20Z</time>
      </trkpt>
      <trkpt lat="50.76298" lon="3.64721">
        <ele>90</ele>
        <time>2015-12-13T10:59:22Z</time>
      </trkpt>
      <trkpt lat="50.76307" lon="3.64721">
        <ele>92</ele>
        <time>2015-12-13T10:59:31Z</time>
      </trkpt>
      <trkpt lat="50.76309" lon="3.64715">
        <ele>93.5</ele>
        <time>2015-12-13T10:59:36Z</time>
      </trkpt>
      <trkpt lat="50.76311" lon="3.64713">
        <ele>94</ele>
        <time>2015-12-13T10:59:39Z</time>
      </trkpt>
      <trkpt lat="50.76312" lon="3.6471">
        <ele>96</ele>
        <time>2015-12-13T10:59:43Z</time>
      </trkpt>
      <trkpt lat="50.76313" lon="3.64707">
        <ele>96.7</ele>
        <time>2015-12-13T10:59:46Z</time>
      </trkpt>
      <trkpt lat="50.76313" lon="3.64704">
        <ele>97</ele>
        <time>2015-12-13T10:59:50Z</time>
      </trkpt>
      <trkpt lat="50.76313" lon="3.64701">
        <ele>97</ele>
        <time>2015-12-13T10:59:52Z</time>
      </trkpt>
      <trkpt lat="50.76315" lon="3.64699">
        <ele>97</ele>
        <time>2015-12-13T10:59:55Z</time>
      </trkpt>
      <trkpt lat="50.76317" lon="3.64697">
        <ele>97</ele>
        <time>2015-12-13T10:59:57Z</time>
      </trkpt>
      <trkpt lat="50.76319" lon="3.64695">
        <ele>97</ele>
        <time>2015-12-13T11:00:00Z</time>
      </trkpt>
      <trkpt lat="50.76323" lon="3.64694">
        <ele>100</ele>
        <time>2015-12-13T11:00:05Z</time>
      </trkpt>
      <trkpt lat="50.76323" lon="3.64691">
        <ele>101</ele>
        <time>2015-12-13T11:00:09Z</time>
      </trkpt>
      <trkpt lat="50.76323" lon="3.64687">
        <ele>102.7</ele>
        <time>2015-12-13T11:00:17Z</time>
      </trkpt>
      <trkpt lat="50.76325" lon="3.64685">
        <ele>103</ele>
        <time>2015-12-13T11:00:21Z</time>
      </trkpt>
      <trkpt lat="50.76326" lon="3.64686">
        <ele>103</ele>
        <time>2015-12-13T11:00:24Z</time>
      </trkpt>
      <trkpt lat="50.76328" lon="3.64686">
        <ele>103</ele>
        <time>2015-12-13T11:00:26Z</time>
      </trkpt>
      <trkpt lat="50.76331" lon="3.64685">
        <ele>103</ele>
        <time>2015-12-13T11:00:28Z</time>
      </trkpt>
      <trkpt lat="50.76331" lon="3.64682">
        <ele>103</ele>
        <time>2015-12-13T11:00:31Z</time>
      </trkpt>
      <trkpt lat="50.76332" lon="3.64677">
        <ele>105</ele>
        <time>2015-12-13T11:00:35Z</time>
      </trkpt>
      <trkpt lat="50.76331" lon="3.64673">
        <ele>106</ele>
        <time>2015-12-13T11:00:46Z</time>
      </trkpt>
      <trkpt lat="50.76333" lon="3.64673">
        <ele>106</ele>
        <time>2015-12-13T11:00:48Z</time>
      </trkpt>
      <trkpt lat="50.76335" lon="3.64671">
        <ele>106</ele>
        <time>2015-12-13T11:00:50Z</time>
      </trkpt>
      <trkpt lat="50.76338" lon="3.6467">
        <ele>108</ele>
        <time>2015-12-13T11:00:53Z</time>
      </trkpt>
      <trkpt lat="50.76339" lon="3.64666">
        <ele>108</ele>
        <time>2015-12-13T11:00:58Z</time>
      </trkpt>
      <trkpt lat="50.7634" lon="3.64664">
        <ele>108</ele>
        <time>2015-12-13T11:01:00Z</time>
      </trkpt>
      <trkpt lat="50.76342" lon="3.64661">
        <ele>108</ele>
        <time>2015-12-13T11:01:04Z</time>
      </trkpt>
      <trkpt lat="50.76344" lon="3.64659">
        <ele>108</ele>
        <time>2015-12-13T11:01:06Z</time>
      </trkpt>
      <trkpt lat="50.76345" lon="3.64656">
        <ele>108</ele>
        <time>2015-12-13T11:01:08Z</time>
      </trkpt>
      <trkpt lat="50.76346" lon="3.64653">
        <ele>108</ele>
        <time>2015-12-13T11:01:10Z</time>
      </trkpt>
      <trkpt lat="50.76347" lon="3.6465">
        <ele>110</ele>
        <time>2015-12-13T11:01:12Z</time>
      </trkpt>
      <trkpt lat="50.76349" lon="3.64648">
        <ele>110</ele>
        <time>2015-12-13T11:01:14Z</time>
      </trkpt>
      <trkpt lat="50.7635" lon="3.64646">
        <ele>110</ele>
        <time>2015-12-13T11:01:16Z</time>
      </trkpt>
      <trkpt lat="50.76353" lon="3.64646">
        <ele>110</ele>
        <time>2015-12-13T11:01:19Z</time>
      </trkpt>
      <trkpt lat="50.76354" lon="3.64644">
        <ele>110.7</ele>
        <time>2015-12-13T11:01:21Z</time>
      </trkpt>
      <trkpt lat="50.76356" lon="3.64641">
        <ele>111</ele>
        <time>2015-12-13T11:01:23Z</time>
      </trkpt>
      <trkpt lat="50.76357" lon="3.64637">
        <ele>111</ele>
        <time>2015-12-13T11:01:25Z</time>
      </trkpt>
      <trkpt lat="50.76357" lon="3.64634">
        <ele>111</ele>
        <time>2015-12-13T11:01:27Z</time>
      </trkpt>
      <trkpt lat="50.76357" lon="3.64631">
        <ele>111</ele>
        <time>2015-12-13T11:01:29Z</time>
      </trkpt>
      <trkpt lat="50.76358" lon="3.64627">
        <ele>112.1</ele>
        <time>2015-12-13T11:01:31Z</time>
      </trkpt>
      <trkpt lat="50.76358" lon="3.64624">
        <ele>113</ele>
        <time>2015-12-13T11:01:33Z</time>
      </trkpt>
      <trkpt lat="50.76359" lon="3.64621">
        <ele>113</ele>
        <time>2015-12-13T11:01:36Z</time>
      </trkpt>
      <trkpt lat="50.7636" lon="3.64617">
        <ele>113</ele>
        <time>2015-12-13T11:01:38Z</time>
      </trkpt>
      <trkpt lat="50.7636" lon="3.64613">
        <ele>113</ele>
        <time>2015-12-13T11:01:40Z</time>
      </trkpt>
      <trkpt lat="50.76358" lon="3.64609">
        <ele>113</ele>
        <time>2015-12-13T11:01:42Z</time>
      </trkpt>
      <trkpt lat="50.76357" lon="3.64605">
        <ele>113</ele>
        <time>2015-12-13T11:01:45Z</time>
      </trkpt>
      <trkpt lat="50.76356" lon="3.64602">
        <ele>113</ele>
        <time>2015-12-13T11:01:47Z</time>
      </trkpt>
      <trkpt lat="50.76355" lon="3.64597">
        <ele>114.4</ele>
        <time>2015-12-13T11:01:51Z</time>
      </trkpt>
      <trkpt lat="50.76354" lon="3.64593">
        <ele>115</ele>
        <time>2015-12-13T11:01:53Z</time>
      </trkpt>
      <trkpt lat="50.76355" lon="3.64589">
        <ele>115</ele>
        <time>2015-12-13T11:01:55Z</time>
      </trkpt>
      <trkpt lat="50.76356" lon="3.64586">
        <ele>115</ele>
        <time>2015-12-13T11:01:57Z</time>
      </trkpt>
      <trkpt lat="50.76356" lon="3.64583">
        <ele>115</ele>
        <time>2015-12-13T11:01:59Z</time>
      </trkpt>
      <trkpt lat="50.76357" lon="3.64578">
        <ele>115</ele>
        <time>2015-12-13T11:02:01Z</time>
      </trkpt>
      <trkpt lat="50.76358" lon="3.64574">
        <ele>115</ele>
        <time>2015-12-13T11:02:03Z</time>
      </trkpt>
      <trkpt lat="50.76359" lon="3.64571">
        <ele>115</ele>
        <time>2015-12-13T11:02:05Z</time>
      </trkpt>
      <trkpt lat="50.7636" lon="3.64567">
        <ele>115</ele>
        <time>2015-12-13T11:02:07Z</time>
      </trkpt>
      <trkpt lat="50.7636" lon="3.64562">
        <ele>115</ele>
        <time>2015-12-13T11:02:09Z</time>
      </trkpt>
      <trkpt lat="50.76361" lon="3.64558">
        <ele>116</ele>
        <time>2015-12-13T11:02:11Z</time>
      </trkpt>
      <trkpt lat="50.76361" lon="3.64554">
        <ele>116</ele>
        <time>2015-12-13T11:02:13Z</time>
      </trkpt>
      <trkpt lat="50.76362" lon="3.6455">
        <ele>116</ele>
        <time>2015-12-13T11:02:15Z</time>
      </trkpt>
      <trkpt lat="50.76363" lon="3.64545">
        <ele>116</ele>
        <time>2015-12-13T11:02:17Z</time>
      </trkpt>
      <trkpt lat="50.76364" lon="3.64541">
        <ele>116</ele>
        <time>2015-12-13T11:02:19Z</time>
      </trkpt>
      <trkpt lat="50.76365" lon="3.64537">
        <ele>116</ele>
        <time>2015-12-13T11:02:21Z</time>
      </trkpt>
      <trkpt lat="50.76367" lon="3.64535">
        <ele>116</ele>
        <time>2015-12-13T11:02:23Z</time>
      </trkpt>
      <trkpt lat="50.76368" lon="3.64531">
        <ele>116</ele>
        <time>2015-12-13T11:02:26Z</time>
      </trkpt>
      <trkpt lat="50.76369" lon="3.64528">
        <ele>116</ele>
        <time>2015-12-13T11:02:28Z</time>
      </trkpt>
      <trkpt lat="50.7637" lon="3.64525">
        <ele>118.4</ele>
        <time>2015-12-13T11:02:31Z</time>
      </trkpt>
      <trkpt lat="50.76371" lon="3.64521">
        <ele>119</ele>
        <time>2015-12-13T11:02:33Z</time>
      </trkpt>
      <trkpt lat="50.76378" lon="3.6451">
        <ele>120</ele>
        <time>2015-12-13T11:02:40Z</time>
      </trkpt>
      <trkpt lat="50.76387" lon="3.64506">
        <ele>121.5</ele>
        <time>2015-12-13T11:02:46Z</time>
      </trkpt>
      <trkpt lat="50.76387" lon="3.64502">
        <ele>121</ele>
        <time>2015-12-13T11:02:54Z</time>
      </trkpt>
      <trkpt lat="50.76388" lon="3.64499">
        <ele>121.7</ele>
        <time>2015-12-13T11:02:56Z</time>
      </trkpt>
      <trkpt lat="50.7639" lon="3.64498">
        <ele>122</ele>
        <time>2015-12-13T11:02:58Z</time>
      </trkpt>
      <trkpt lat="50.76395" lon="3.645">
        <ele>121</ele>
        <time>2015-12-13T11:03:02Z</time>
      </trkpt>
      <trkpt lat="50.764" lon="3.64493">
        <ele>129</ele>
        <time>2015-12-13T11:03:21Z</time>
      </trkpt>
      <trkpt lat="50.76399" lon="3.64487">
        <ele>131</ele>
        <time>2015-12-13T11:03:44Z</time>
      </trkpt>
      <trkpt lat="50.76404" lon="3.64483">
        <ele>131</ele>
        <time>2015-12-13T11:04:09Z</time>
      </trkpt>
      <trkpt lat="50.76403" lon="3.64477">
        <ele>131</ele>
        <time>2015-12-13T11:04:18Z</time>
      </trkpt>
      <trkpt lat="50.76404" lon="3.64474">
        <ele>131</ele>
        <time>2015-12-13T11:04:20Z</time>
      </trkpt>
      <trkpt lat="50.76405" lon="3.6447">
        <ele>132</ele>
        <time>2015-12-13T11:04:23Z</time>
      </trkpt>
      <trkpt lat="50.76407" lon="3.64468">
        <ele>132</ele>
        <time>2015-12-13T11:04:26Z</time>
      </trkpt>
      <trkpt lat="50.76409" lon="3.64461">
        <ele>133</ele>
        <time>2015-12-13T11:04:32Z</time>
      </trkpt>
      <trkpt lat="50.76409" lon="3.64451">
        <ele>134.1</ele>
        <time>2015-12-13T11:04:41Z</time>
      </trkpt>
      <trkpt lat="50.76409" lon="3.64447">
        <ele>135</ele>
        <time>2015-12-13T11:04:44Z</time>
      </trkpt>
      <trkpt lat="50.7641" lon="3.64443">
        <ele>135</ele>
        <time>2015-12-13T11:04:47Z</time>
      </trkpt>
      <trkpt lat="50.7641" lon="3.6444">
        <ele>135</ele>
        <time>2015-12-13T11:04:49Z</time>
      </trkpt>
      <trkpt lat="50.7641" lon="3.64427">
        <ele>137</ele>
        <time>2015-12-13T11:04:56Z</time>
      </trkpt>
      <trkpt lat="50.76408" lon="3.64421">
        <ele>137</ele>
        <time>2015-12-13T11:04:59Z</time>
      </trkpt>
      <trkpt lat="50.76408" lon="3.64417">
        <ele>139</ele>
        <time>2015-12-13T11:05:01Z</time>
      </trkpt>
      <trkpt lat="50.76408" lon="3.64414">
        <ele>140</ele>
        <time>2015-12-13T11:05:04Z</time>
      </trkpt>
      <trkpt lat="50.76408" lon="3.6441">
        <ele>140</ele>
        <time>2015-12-13T11:05:06Z</time>
      </trkpt>
      <trkpt lat="50.76408" lon="3.64407">
        <ele>140</ele>
        <time>2015-12-13T11:05:08Z</time>
      </trkpt>
      <trkpt lat="50.76408" lon="3.64404">
        <ele>140</ele>
        <time>2015-12-13T11:05:11Z</time>
      </trkpt>
      <trkpt lat="50.76407" lon="3.644">
        <ele>140</ele>
        <time>2015-12-13T11:05:14Z</time>
      </trkpt>
      <trkpt lat="50.76407" lon="3.64397">
        <ele>140</ele>
        <time>2015-12-13T11:05:16Z</time>
      </trkpt>
      <trkpt lat="50.76407" lon="3.64394">
        <ele>140</ele>
        <time>2015-12-13T11:05:18Z</time>
      </trkpt>
      <trkpt lat="50.76407" lon="3.64391">
        <ele>140</ele>
        <time>2015-12-13T11:05:20Z</time>
      </trkpt>
      <trkpt lat="50.76407" lon="3.64387">
        <ele>141</ele>
        <time>2015-12-13T11:05:22Z</time>
      </trkpt>
      <trkpt lat="50.76407" lon="3.64384">
        <ele>141</ele>
        <time>2015-12-13T11:05:24Z</time>
      </trkpt>
      <trkpt lat="50.76407" lon="3.64381">
        <ele>141</ele>
        <time>2015-12-13T11:05:26Z</time>
      </trkpt>
      <trkpt lat="50.76407" lon="3.64378">
        <ele>141</ele>
        <time>2015-12-13T11:05:28Z</time>
      </trkpt>
      <trkpt lat="50.76407" lon="3.64375">
        <ele>141</ele>
        <time>2015-12-13T11:05:30Z</time>
      </trkpt>
      <trkpt lat="50.76408" lon="3.64372">
        <ele>143</ele>
        <time>2015-12-13T11:05:32Z</time>
      </trkpt>
      <trkpt lat="50.76407" lon="3.64369">
        <ele>143</ele>
        <time>2015-12-13T11:05:34Z</time>
      </trkpt>
      <trkpt lat="50.76406" lon="3.64366">
        <ele>143</ele>
        <time>2015-12-13T11:05:36Z</time>
      </trkpt>
      <trkpt lat="50.76405" lon="3.64362">
        <ele>143</ele>
        <time>2015-12-13T11:05:38Z</time>
      </trkpt>
      <trkpt lat="50.76406" lon="3.64358">
        <ele>143</ele>
        <time>2015-12-13T11:05:40Z</time>
      </trkpt>
      <trkpt lat="50.76406" lon="3.64354">
        <ele>145</ele>
        <time>2015-12-13T11:05:42Z</time>
      </trkpt>
      <trkpt lat="50.76406" lon="3.64351">
        <ele>145</ele>
        <time>2015-12-13T11:05:44Z</time>
      </trkpt>
      <trkpt lat="50.76406" lon="3.64347">
        <ele>145.7</ele>
        <time>2015-12-13T11:05:46Z</time>
      </trkpt>
      <trkpt lat="50.76406" lon="3.64344">
        <ele>146</ele>
        <time>2015-12-13T11:05:48Z</time>
      </trkpt>
      <trkpt lat="50.76406" lon="3.6434">
        <ele>146</ele>
        <time>2015-12-13T11:05:50Z</time>
      </trkpt>
      <trkpt lat="50.76406" lon="3.64336">
        <ele>146</ele>
        <time>2015-12-13T11:05:52Z</time>
      </trkpt>
      <trkpt lat="50.76405" lon="3.6433">
        <ele>146</ele>
        <time>2015-12-13T11:05:54Z</time>
      </trkpt>
      <trkpt lat="50.76406" lon="3.64326">
        <ele>146</ele>
        <time>2015-12-13T11:05:56Z</time>
      </trkpt>
      <trkpt lat="50.76406" lon="3.64322">
        <ele>146</ele>
        <time>2015-12-13T11:05:58Z</time>
      </trkpt>
      <trkpt lat="50.76406" lon="3.64319">
        <ele>146</ele>
        <time>2015-12-13T11:06:00Z</time>
      </trkpt>
      <trkpt lat="50.76406" lon="3.64315">
        <ele>147</ele>
        <time>2015-12-13T11:06:02Z</time>
      </trkpt>
      <trkpt lat="50.76406" lon="3.6431">
        <ele>147</ele>
        <time>2015-12-13T11:06:04Z</time>
      </trkpt>
      <trkpt lat="50.76406" lon="3.64306">
        <ele>147</ele>
        <time>2015-12-13T11:06:06Z</time>
      </trkpt>
      <trkpt lat="50.76407" lon="3.64302">
        <ele>147</ele>
        <time>2015-12-13T11:06:08Z</time>
      </trkpt>
      <trkpt lat="50.76407" lon="3.64298">
        <ele>147</ele>
        <time>2015-12-13T11:06:10Z</time>
      </trkpt>
      <trkpt lat="50.76407" lon="3.64294">
        <ele>148</ele>
        <time>2015-12-13T11:06:12Z</time>
      </trkpt>
      <trkpt lat="50.76406" lon="3.6429">
        <ele>148</ele>
        <time>2015-12-13T11:06:14Z</time>
      </trkpt>
      <trkpt lat="50.76404" lon="3.64288">
        <ele>148</ele>
        <time>2015-12-13T11:06:16Z</time>
      </trkpt>
      <trkpt lat="50.76404" lon="3.64284">
        <ele>148</ele>
        <time>2015-12-13T11:06:18Z</time>
      </trkpt>
      <trkpt lat="50.76404" lon="3.6428">
        <ele>148</ele>
        <time>2015-12-13T11:06:20Z</time>
      </trkpt>
      <trkpt lat="50.76404" lon="3.64277">
        <ele>149</ele>
        <time>2015-12-13T11:06:22Z</time>
      </trkpt>
      <trkpt lat="50.76404" lon="3.64273">
        <ele>149</ele>
        <time>2015-12-13T11:06:24Z</time>
      </trkpt>
      <trkpt lat="50.76405" lon="3.64271">
        <ele>149</ele>
        <time>2015-12-13T11:06:26Z</time>
      </trkpt>
      <trkpt lat="50.76407" lon="3.64269">
        <ele>149</ele>
        <time>2015-12-13T11:06:28Z</time>
      </trkpt>
      <trkpt lat="50.76409" lon="3.64266">
        <ele>149</ele>
        <time>2015-12-13T11:06:30Z</time>
      </trkpt>
      <trkpt lat="50.76409" lon="3.64262">
        <ele>149</ele>
        <time>2015-12-13T11:06:32Z</time>
      </trkpt>
      <trkpt lat="50.76409" lon="3.64259">
        <ele>149</ele>
        <time>2015-12-13T11:06:34Z</time>
      </trkpt>
      <trkpt lat="50.7641" lon="3.64256">
        <ele>149</ele>
        <time>2015-12-13T11:06:36Z</time>
      </trkpt>
      <trkpt lat="50.76412" lon="3.64253">
        <ele>149</ele>
        <time>2015-12-13T11:06:38Z</time>
      </trkpt>
      <trkpt lat="50.76414" lon="3.64251">
        <ele>149</ele>
        <time>2015-12-13T11:06:40Z</time>
      </trkpt>
      <trkpt lat="50.76417" lon="3.64254">
        <ele>149</ele>
        <time>2015-12-13T11:07:23Z</time>
      </trkpt>
      <trkpt lat="50.76422" lon="3.64253">
        <ele>150</ele>
        <time>2015-12-13T11:08:08Z</time>
      </trkpt>
      <trkpt lat="50.76423" lon="3.6425">
        <ele>150</ele>
        <time>2015-12-13T11:08:11Z</time>
      </trkpt>
      <trkpt lat="50.76424" lon="3.64246">
        <ele>150</ele>
        <time>2015-12-13T11:08:13Z</time>
      </trkpt>
      <trkpt lat="50.76424" lon="3.64243">
        <ele>150</ele>
        <time>2015-12-13T11:08:15Z</time>
      </trkpt>
      <trkpt lat="50.76424" lon="3.64239">
        <ele>150</ele>
        <time>2015-12-13T11:08:17Z</time>
      </trkpt>
      <trkpt lat="50.76425" lon="3.64236">
        <ele>150</ele>
        <time>2015-12-13T11:08:19Z</time>
      </trkpt>
      <trkpt lat="50.76426" lon="3.64232">
        <ele>150</ele>
        <time>2015-12-13T11:08:21Z</time>
      </trkpt>
      <trkpt lat="50.76426" lon="3.64228">
        <ele>150</ele>
        <time>2015-12-13T11:08:23Z</time>
      </trkpt>
      <trkpt lat="50.76427" lon="3.64224">
        <ele>150</ele>
        <time>2015-12-13T11:08:25Z</time>
      </trkpt>
      <trkpt lat="50.76428" lon="3.6422">
        <ele>150</ele>
        <time>2015-12-13T11:08:27Z</time>
      </trkpt>
      <trkpt lat="50.76428" lon="3.64216">
        <ele>150</ele>
        <time>2015-12-13T11:08:29Z</time>
      </trkpt>
      <trkpt lat="50.76429" lon="3.64212">
        <ele>150</ele>
        <time>2015-12-13T11:08:31Z</time>
      </trkpt>
      <trkpt lat="50.76429" lon="3.64209">
        <ele>150</ele>
        <time>2015-12-13T11:08:33Z</time>
      </trkpt>
      <trkpt lat="50.76431" lon="3.64205">
        <ele>150</ele>
        <time>2015-12-13T11:08:35Z</time>
      </trkpt>
      <trkpt lat="50.76433" lon="3.64202">
        <ele>150</ele>
        <time>2015-12-13T11:08:37Z</time>
      </trkpt>
      <trkpt lat="50.76435" lon="3.642">
        <ele>150</ele>
        <time>2015-12-13T11:08:40Z</time>
      </trkpt>
      <trkpt lat="50.76437" lon="3.64198">
        <ele>150</ele>
        <time>2015-12-13T11:08:42Z</time>
      </trkpt>
      <trkpt lat="50.76439" lon="3.64196">
        <ele>150</ele>
        <time>2015-12-13T11:08:44Z</time>
      </trkpt>
      <trkpt lat="50.76441" lon="3.64191">
        <ele>150</ele>
        <time>2015-12-13T11:08:46Z</time>
      </trkpt>
      <trkpt lat="50.76442" lon="3.64189">
        <ele>150</ele>
        <time>2015-12-13T11:08:48Z</time>
      </trkpt>
      <trkpt lat="50.76444" lon="3.64185">
        <ele>150</ele>
        <time>2015-12-13T11:08:50Z</time>
      </trkpt>
      <trkpt lat="50.76446" lon="3.64182">
        <ele>150</ele>
        <time>2015-12-13T11:08:52Z</time>
      </trkpt>
      <trkpt lat="50.76447" lon="3.64179">
        <ele>150</ele>
        <time>2015-12-13T11:08:54Z</time>
      </trkpt>
      <trkpt lat="50.76448" lon="3.64176">
        <ele>150</ele>
        <time>2015-12-13T11:08:56Z</time>
      </trkpt>
      <trkpt lat="50.76449" lon="3.64172">
        <ele>150</ele>
        <time>2015-12-13T11:08:58Z</time>
      </trkpt>
      <trkpt lat="50.7645" lon="3.64167">
        <ele>150</ele>
        <time>2015-12-13T11:09:00Z</time>
      </trkpt>
      <trkpt lat="50.76451" lon="3.64163">
        <ele>149</ele>
        <time>2015-12-13T11:09:02Z</time>
      </trkpt>
      <trkpt lat="50.76452" lon="3.6416">
        <ele>149</ele>
        <time>2015-12-13T11:09:04Z</time>
      </trkpt>
      <trkpt lat="50.76456" lon="3.64158">
        <ele>149</ele>
        <time>2015-12-13T11:09:13Z</time>
      </trkpt>
      <trkpt lat="50.76457" lon="3.64156">
        <ele>149</ele>
        <time>2015-12-13T11:09:15Z</time>
      </trkpt>
      <trkpt lat="50.7646" lon="3.64154">
        <ele>149</ele>
        <time>2015-12-13T11:09:17Z</time>
      </trkpt>
      <trkpt lat="50.7646" lon="3.6415">
        <ele>149</ele>
        <time>2015-12-13T11:09:19Z</time>
      </trkpt>
      <trkpt lat="50.76461" lon="3.64147">
        <ele>149</ele>
        <time>2015-12-13T11:09:21Z</time>
      </trkpt>
      <trkpt lat="50.76461" lon="3.64143">
        <ele>149</ele>
        <time>2015-12-13T11:09:24Z</time>
      </trkpt>
      <trkpt lat="50.76461" lon="3.64139">
        <ele>149</ele>
        <time>2015-12-13T11:09:26Z</time>
      </trkpt>
      <trkpt lat="50.76461" lon="3.64133">
        <ele>149</ele>
        <time>2015-12-13T11:09:28Z</time>
      </trkpt>
      <trkpt lat="50.76461" lon="3.64127">
        <ele>149</ele>
        <time>2015-12-13T11:09:30Z</time>
      </trkpt>
      <trkpt lat="50.76461" lon="3.64124">
        <ele>149</ele>
        <time>2015-12-13T11:09:31Z</time>
      </trkpt>
      <trkpt lat="50.76461" lon="3.6412">
        <ele>149</ele>
        <time>2015-12-13T11:09:32Z</time>
      </trkpt>
      <trkpt lat="50.76462" lon="3.64116">
        <ele>149</ele>
        <time>2015-12-13T11:09:33Z</time>
      </trkpt>
      <trkpt lat="50.76462" lon="3.64113">
        <ele>149</ele>
        <time>2015-12-13T11:09:34Z</time>
      </trkpt>
      <trkpt lat="50.76463" lon="3.64109">
        <ele>149</ele>
        <time>2015-12-13T11:09:35Z</time>
      </trkpt>
      <trkpt lat="50.76463" lon="3.64105">
        <ele>149</ele>
        <time>2015-12-13T11:09:36Z</time>
      </trkpt>
      <trkpt lat="50.76464" lon="3.64102">
        <ele>149</ele>
        <time>2015-12-13T11:09:37Z</time>
      </trkpt>
      <trkpt lat="50.76464" lon="3.64099">
        <ele>149</ele>
        <time>2015-12-13T11:09:38Z</time>
      </trkpt>
      <trkpt lat="50.76465" lon="3.64094">
        <ele>149</ele>
        <time>2015-12-13T11:09:40Z</time>
      </trkpt>
      <trkpt lat="50.76465" lon="3.64091">
        <ele>149</ele>
        <time>2015-12-13T11:09:41Z</time>
      </trkpt>
      <trkpt lat="50.76465" lon="3.64087">
        <ele>149</ele>
        <time>2015-12-13T11:09:42Z</time>
      </trkpt>
      <trkpt lat="50.76465" lon="3.64084">
        <ele>149</ele>
        <time>2015-12-13T11:09:43Z</time>
      </trkpt>
      <trkpt lat="50.76465" lon="3.64081">
        <ele>149</ele>
        <time>2015-12-13T11:09:44Z</time>
      </trkpt>
      <trkpt lat="50.76465" lon="3.64078">
        <ele>149</ele>
        <time>2015-12-13T11:09:45Z</time>
      </trkpt>
      <trkpt lat="50.76465" lon="3.64075">
        <ele>149</ele>
        <time>2015-12-13T11:09:46Z</time>
      </trkpt>
      <trkpt lat="50.76465" lon="3.64072">
        <ele>149</ele>
        <time>2015-12-13T11:09:47Z</time>
      </trkpt>
      <trkpt lat="50.76465" lon="3.64068">
        <ele>149</ele>
        <time>2015-12-13T11:09:48Z</time>
      </trkpt>
      <trkpt lat="50.76466" lon="3.64065">
        <ele>149</ele>
        <time>2015-12-13T11:09:49Z</time>
      </trkpt>
      <trkpt lat="50.76466" lon="3.64062">
        <ele>149</ele>
        <time>2015-12-13T11:09:50Z</time>
      </trkpt>
      <trkpt lat="50.76466" lon="3.64059">
        <ele>148.3</ele>
        <time>2015-12-13T11:09:51Z</time>
      </trkpt>
      <trkpt lat="50.76466" lon="3.64056">
        <ele>148</ele>
        <time>2015-12-13T11:09:52Z</time>
      </trkpt>
      <trkpt lat="50.76465" lon="3.64049">
        <ele>148</ele>
        <time>2015-12-13T11:09:54Z</time>
      </trkpt>
      <trkpt lat="50.76465" lon="3.64046">
        <ele>148</ele>
        <time>2015-12-13T11:09:55Z</time>
      </trkpt>
      <trkpt lat="50.76465" lon="3.64042">
        <ele>148</ele>
        <time>2015-12-13T11:09:56Z</time>
      </trkpt>
      <trkpt lat="50.76464" lon="3.64039">
        <ele>148</ele>
        <time>2015-12-13T11:09:57Z</time>
      </trkpt>
      <trkpt lat="50.76462" lon="3.64034">
        <ele>148</ele>
        <time>2015-12-13T11:09:59Z</time>
      </trkpt>
      <trkpt lat="50.76461" lon="3.64031">
        <ele>148</ele>
        <time>2015-12-13T11:10:00Z</time>
      </trkpt>
      <trkpt lat="50.7646" lon="3.64028">
        <ele>148</ele>
        <time>2015-12-13T11:10:01Z</time>
      </trkpt>
      <trkpt lat="50.76459" lon="3.64025">
        <ele>148</ele>
        <time>2015-12-13T11:10:02Z</time>
      </trkpt>
      <trkpt lat="50.76458" lon="3.64023">
        <ele>148</ele>
        <time>2015-12-13T11:10:03Z</time>
      </trkpt>
      <trkpt lat="50.76457" lon="3.6402">
        <ele>148</ele>
        <time>2015-12-13T11:10:04Z</time>
      </trkpt>
      <trkpt lat="50.76456" lon="3.64017">
        <ele>148</ele>
        <time>2015-12-13T11:10:05Z</time>
      </trkpt>
      <trkpt lat="50.76455" lon="3.64015">
        <ele>148</ele>
        <time>2015-12-13T11:10:06Z</time>
      </trkpt>
      <trkpt lat="50.76454" lon="3.64012">
        <ele>148</ele>
        <time>2015-12-13T11:10:07Z</time>
      </trkpt>
      <trkpt lat="50.76453" lon="3.64009">
        <ele>148</ele>
        <time>2015-12-13T11:10:08Z</time>
      </trkpt>
      <trkpt lat="50.76452" lon="3.64007">
        <ele>148</ele>
        <time>2015-12-13T11:10:09Z</time>
      </trkpt>
      <trkpt lat="50.76451" lon="3.64002">
        <ele>148</ele>
        <time>2015-12-13T11:10:11Z</time>
      </trkpt>
      <trkpt lat="50.76449" lon="3.63997">
        <ele>148</ele>
        <time>2015-12-13T11:10:13Z</time>
      </trkpt>
      <trkpt lat="50.76448" lon="3.63994">
        <ele>148</ele>
        <time>2015-12-13T11:10:15Z</time>
      </trkpt>
      <trkpt lat="50.76446" lon="3.6399">
        <ele>148</ele>
        <time>2015-12-13T11:10:17Z</time>
      </trkpt>
      <trkpt lat="50.76445" lon="3.63988">
        <ele>148</ele>
        <time>2015-12-13T11:10:19Z</time>
      </trkpt>
      <trkpt lat="50.76443" lon="3.63986">
        <ele>148.7</ele>
        <time>2015-12-13T11:10:21Z</time>
      </trkpt>
      <trkpt lat="50.76441" lon="3.63984">
        <ele>149</ele>
        <time>2015-12-13T11:10:23Z</time>
      </trkpt>
      <trkpt lat="50.76439" lon="3.63981">
        <ele>149</ele>
        <time>2015-12-13T11:10:25Z</time>
      </trkpt>
      <trkpt lat="50.76437" lon="3.63977">
        <ele>149</ele>
        <time>2015-12-13T11:10:27Z</time>
      </trkpt>
      <trkpt lat="50.76435" lon="3.63974">
        <ele>149</ele>
        <time>2015-12-13T11:10:29Z</time>
      </trkpt>
      <trkpt lat="50.76434" lon="3.63971">
        <ele>149</ele>
        <time>2015-12-13T11:10:31Z</time>
      </trkpt>
      <trkpt lat="50.76434" lon="3.63967">
        <ele>149</ele>
        <time>2015-12-13T11:10:33Z</time>
      </trkpt>
      <trkpt lat="50.76434" lon="3.63963">
        <ele>149</ele>
        <time>2015-12-13T11:10:35Z</time>
      </trkpt>
      <trkpt lat="50.76432" lon="3.6396">
        <ele>149</ele>
        <time>2015-12-13T11:10:39Z</time>
      </trkpt>
      <trkpt lat="50.76429" lon="3.63956">
        <ele>147.9</ele>
        <time>2015-12-13T11:10:41Z</time>
      </trkpt>
      <trkpt lat="50.76428" lon="3.63954">
        <ele>147</ele>
        <time>2015-12-13T11:10:42Z</time>
      </trkpt>
      <trkpt lat="50.76427" lon="3.63952">
        <ele>147</ele>
        <time>2015-12-13T11:10:43Z</time>
      </trkpt>
      <trkpt lat="50.76425" lon="3.6395">
        <ele>147</ele>
        <time>2015-12-13T11:10:44Z</time>
      </trkpt>
      <trkpt lat="50.76423" lon="3.63947">
        <ele>147</ele>
        <time>2015-12-13T11:10:45Z</time>
      </trkpt>
      <trkpt lat="50.76421" lon="3.63945">
        <ele>147</ele>
        <time>2015-12-13T11:10:46Z</time>
      </trkpt>
      <trkpt lat="50.76419" lon="3.63944">
        <ele>147</ele>
        <time>2015-12-13T11:10:47Z</time>
      </trkpt>
      <trkpt lat="50.76417" lon="3.63942">
        <ele>147</ele>
        <time>2015-12-13T11:10:48Z</time>
      </trkpt>
      <trkpt lat="50.76415" lon="3.6394">
        <ele>147</ele>
        <time>2015-12-13T11:10:49Z</time>
      </trkpt>
      <trkpt lat="50.76413" lon="3.63938">
        <ele>147</ele>
        <time>2015-12-13T11:10:50Z</time>
      </trkpt>
      <trkpt lat="50.7641" lon="3.63936">
        <ele>145</ele>
        <time>2015-12-13T11:10:51Z</time>
      </trkpt>
      <trkpt lat="50.76408" lon="3.63933">
        <ele>144</ele>
        <time>2015-12-13T11:10:52Z</time>
      </trkpt>
      <trkpt lat="50.76407" lon="3.63931">
        <ele>144</ele>
        <time>2015-12-13T11:10:53Z</time>
      </trkpt>
      <trkpt lat="50.76405" lon="3.63928">
        <ele>144</ele>
        <time>2015-12-13T11:10:54Z</time>
      </trkpt>
      <trkpt lat="50.76403" lon="3.63926">
        <ele>144</ele>
        <time>2015-12-13T11:10:55Z</time>
      </trkpt>
      <trkpt lat="50.76401" lon="3.63924">
        <ele>143.3</ele>
        <time>2015-12-13T11:10:56Z</time>
      </trkpt>
      <trkpt lat="50.76399" lon="3.63922">
        <ele>143</ele>
        <time>2015-12-13T11:10:57Z</time>
      </trkpt>
      <trkpt lat="50.76396" lon="3.63919">
        <ele>143</ele>
        <time>2015-12-13T11:10:58Z</time>
      </trkpt>
      <trkpt lat="50.76394" lon="3.63917">
        <ele>143</ele>
        <time>2015-12-13T11:10:59Z</time>
      </trkpt>
      <trkpt lat="50.76392" lon="3.63914">
        <ele>143</ele>
        <time>2015-12-13T11:11:00Z</time>
      </trkpt>
      <trkpt lat="50.7639" lon="3.63911">
        <ele>140.8</ele>
        <time>2015-12-13T11:11:01Z</time>
      </trkpt>
      <trkpt lat="50.76388" lon="3.63908">
        <ele>139</ele>
        <time>2015-12-13T11:11:02Z</time>
      </trkpt>
      <trkpt lat="50.76385" lon="3.63905">
        <ele>139</ele>
        <time>2015-12-13T11:11:03Z</time>
      </trkpt>
      <trkpt lat="50.76383" lon="3.63903">
        <ele>139</ele>
        <time>2015-12-13T11:11:04Z</time>
      </trkpt>
      <trkpt lat="50.76381" lon="3.63899">
        <ele>139</ele>
        <time>2015-12-13T11:11:05Z</time>
      </trkpt>
      <trkpt lat="50.76379" lon="3.63896">
        <ele>138.3</ele>
        <time>2015-12-13T11:11:06Z</time>
      </trkpt>
      <trkpt lat="50.76377" lon="3.63893">
        <ele>138</ele>
        <time>2015-12-13T11:11:07Z</time>
      </trkpt>
      <trkpt lat="50.76375" lon="3.63889">
        <ele>138</ele>
        <time>2015-12-13T11:11:08Z</time>
      </trkpt>
      <trkpt lat="50.76373" lon="3.63887">
        <ele>138</ele>
        <time>2015-12-13T11:11:09Z</time>
      </trkpt>
      <trkpt lat="50.76371" lon="3.63884">
        <ele>138</ele>
        <time>2015-12-13T11:11:10Z</time>
      </trkpt>
      <trkpt lat="50.7637" lon="3.6388">
        <ele>137.5</ele>
        <time>2015-12-13T11:11:11Z</time>
      </trkpt>
      <trkpt lat="50.76368" lon="3.63877">
        <ele>137</ele>
        <time>2015-12-13T11:11:12Z</time>
      </trkpt>
      <trkpt lat="50.76366" lon="3.63873">
        <ele>137</ele>
        <time>2015-12-13T11:11:13Z</time>
      </trkpt>
      <trkpt lat="50.76365" lon="3.63869">
        <ele>137</ele>
        <time>2015-12-13T11:11:14Z</time>
      </trkpt>
      <trkpt lat="50.76364" lon="3.63864">
        <ele>137</ele>
        <time>2015-12-13T11:11:15Z</time>
      </trkpt>
      <trkpt lat="50.76363" lon="3.63859">
        <ele>137</ele>
        <time>2015-12-13T11:11:16Z</time>
      </trkpt>
      <trkpt lat="50.76362" lon="3.63856">
        <ele>137</ele>
        <time>2015-12-13T11:11:17Z</time>
      </trkpt>
      <trkpt lat="50.7636" lon="3.63851">
        <ele>137</ele>
        <time>2015-12-13T11:11:18Z</time>
      </trkpt>
      <trkpt lat="50.76359" lon="3.63848">
        <ele>137</ele>
        <time>2015-12-13T11:11:19Z</time>
      </trkpt>
      <trkpt lat="50.76357" lon="3.63844">
        <ele>137</ele>
        <time>2015-12-13T11:11:20Z</time>
      </trkpt>
      <trkpt lat="50.76356" lon="3.63841">
        <ele>136.3</ele>
        <time>2015-12-13T11:11:21Z</time>
      </trkpt>
      <trkpt lat="50.76355" lon="3.63837">
        <ele>136</ele>
        <time>2015-12-13T11:11:22Z</time>
      </trkpt>
      <trkpt lat="50.76353" lon="3.63834">
        <ele>136</ele>
        <time>2015-12-13T11:11:23Z</time>
      </trkpt>
      <trkpt lat="50.76352" lon="3.6383">
        <ele>136</ele>
        <time>2015-12-13T11:11:24Z</time>
      </trkpt>
      <trkpt lat="50.7635" lon="3.63826">
        <ele>136</ele>
        <time>2015-12-13T11:11:25Z</time>
      </trkpt>
      <trkpt lat="50.76349" lon="3.63822">
        <ele>136</ele>
        <time>2015-12-13T11:11:26Z</time>
      </trkpt>
      <trkpt lat="50.76348" lon="3.63817">
        <ele>136</ele>
        <time>2015-12-13T11:11:27Z</time>
      </trkpt>
      <trkpt lat="50.76347" lon="3.63813">
        <ele>136</ele>
        <time>2015-12-13T11:11:28Z</time>
      </trkpt>
      <trkpt lat="50.76345" lon="3.63808">
        <ele>136</ele>
        <time>2015-12-13T11:11:29Z</time>
      </trkpt>
      <trkpt lat="50.76344" lon="3.63804">
        <ele>136</ele>
        <time>2015-12-13T11:11:30Z</time>
      </trkpt>
      <trkpt lat="50.76342" lon="3.638">
        <ele>134.6</ele>
        <time>2015-12-13T11:11:31Z</time>
      </trkpt>
      <trkpt lat="50.76341" lon="3.63795">
        <ele>134</ele>
        <time>2015-12-13T11:11:32Z</time>
      </trkpt>
      <trkpt lat="50.76339" lon="3.63791">
        <ele>134</ele>
        <time>2015-12-13T11:11:33Z</time>
      </trkpt>
      <trkpt lat="50.76338" lon="3.63787">
        <ele>134</ele>
        <time>2015-12-13T11:11:34Z</time>
      </trkpt>
      <trkpt lat="50.76337" lon="3.63782">
        <ele>134</ele>
        <time>2015-12-13T11:11:35Z</time>
      </trkpt>
      <trkpt lat="50.76335" lon="3.63778">
        <ele>134</ele>
        <time>2015-12-13T11:11:36Z</time>
      </trkpt>
      <trkpt lat="50.76335" lon="3.63773">
        <ele>134</ele>
        <time>2015-12-13T11:11:37Z</time>
      </trkpt>
      <trkpt lat="50.76334" lon="3.63768">
        <ele>134</ele>
        <time>2015-12-13T11:11:38Z</time>
      </trkpt>
      <trkpt lat="50.76333" lon="3.63764">
        <ele>134</ele>
        <time>2015-12-13T11:11:39Z</time>
      </trkpt>
      <trkpt lat="50.76333" lon="3.6376">
        <ele>134</ele>
        <time>2015-12-13T11:11:40Z</time>
      </trkpt>
      <trkpt lat="50.76333" lon="3.63755">
        <ele>132.6</ele>
        <time>2015-12-13T11:11:41Z</time>
      </trkpt>
      <trkpt lat="50.76332" lon="3.63751">
        <ele>132</ele>
        <time>2015-12-13T11:11:42Z</time>
      </trkpt>
      <trkpt lat="50.76332" lon="3.63746">
        <ele>132</ele>
        <time>2015-12-13T11:11:43Z</time>
      </trkpt>
      <trkpt lat="50.76332" lon="3.63742">
        <ele>132</ele>
        <time>2015-12-13T11:11:44Z</time>
      </trkpt>
      <trkpt lat="50.76331" lon="3.63737">
        <ele>132</ele>
        <time>2015-12-13T11:11:45Z</time>
      </trkpt>
      <trkpt lat="50.76331" lon="3.63733">
        <ele>130.9</ele>
        <time>2015-12-13T11:11:46Z</time>
      </trkpt>
      <trkpt lat="50.76331" lon="3.63728">
        <ele>130</ele>
        <time>2015-12-13T11:11:47Z</time>
      </trkpt>
      <trkpt lat="50.76331" lon="3.63723">
        <ele>130</ele>
        <time>2015-12-13T11:11:48Z</time>
      </trkpt>
      <trkpt lat="50.7633" lon="3.63718">
        <ele>130</ele>
        <time>2015-12-13T11:11:49Z</time>
      </trkpt>
      <trkpt lat="50.7633" lon="3.63713">
        <ele>130</ele>
        <time>2015-12-13T11:11:50Z</time>
      </trkpt>
      <trkpt lat="50.7633" lon="3.63709">
        <ele>130</ele>
        <time>2015-12-13T11:11:51Z</time>
      </trkpt>
      <trkpt lat="50.7633" lon="3.63705">
        <ele>130</ele>
        <time>2015-12-13T11:11:52Z</time>
      </trkpt>
      <trkpt lat="50.7633" lon="3.63701">
        <ele>130</ele>
        <time>2015-12-13T11:11:53Z</time>
      </trkpt>
      <trkpt lat="50.76331" lon="3.63696">
        <ele>130</ele>
        <time>2015-12-13T11:11:54Z</time>
      </trkpt>
      <trkpt lat="50.76331" lon="3.63692">
        <ele>130</ele>
        <time>2015-12-13T11:11:55Z</time>
      </trkpt>
      <trkpt lat="50.76331" lon="3.63687">
        <ele>128.6</ele>
        <time>2015-12-13T11:11:56Z</time>
      </trkpt>
      <trkpt lat="50.76332" lon="3.63682">
        <ele>128</ele>
        <time>2015-12-13T11:11:57Z</time>
      </trkpt>
      <trkpt lat="50.76332" lon="3.63678">
        <ele>128</ele>
        <time>2015-12-13T11:11:58Z</time>
      </trkpt>
      <trkpt lat="50.76333" lon="3.63673">
        <ele>128</ele>
        <time>2015-12-13T11:11:59Z</time>
      </trkpt>
      <trkpt lat="50.76333" lon="3.63669">
        <ele>128</ele>
        <time>2015-12-13T11:12:00Z</time>
      </trkpt>
      <trkpt lat="50.76333" lon="3.63665">
        <ele>123.9</ele>
        <time>2015-12-13T11:12:01Z</time>
      </trkpt>
      <trkpt lat="50.76334" lon="3.63661">
        <ele>122</ele>
        <time>2015-12-13T11:12:02Z</time>
      </trkpt>
      <trkpt lat="50.76335" lon="3.63657">
        <ele>122</ele>
        <time>2015-12-13T11:12:03Z</time>
      </trkpt>
      <trkpt lat="50.76335" lon="3.63652">
        <ele>122</ele>
        <time>2015-12-13T11:12:04Z</time>
      </trkpt>
      <trkpt lat="50.76336" lon="3.63648">
        <ele>122</ele>
        <time>2015-12-13T11:12:05Z</time>
      </trkpt>
      <trkpt lat="50.76336" lon="3.63644">
        <ele>122</ele>
        <time>2015-12-13T11:12:06Z</time>
      </trkpt>
      <trkpt lat="50.76336" lon="3.6364">
        <ele>122</ele>
        <time>2015-12-13T11:12:07Z</time>
      </trkpt>
      <trkpt lat="50.76336" lon="3.63636">
        <ele>122</ele>
        <time>2015-12-13T11:12:08Z</time>
      </trkpt>
      <trkpt lat="50.76337" lon="3.63633">
        <ele>122.7</ele>
        <time>2015-12-13T11:12:09Z</time>
      </trkpt>
      <trkpt lat="50.76337" lon="3.63628">
        <ele>123</ele>
        <time>2015-12-13T11:12:10Z</time>
      </trkpt>
      <trkpt lat="50.76337" lon="3.63624">
        <ele>122.3</ele>
        <time>2015-12-13T11:12:11Z</time>
      </trkpt>
      <trkpt lat="50.76337" lon="3.6362">
        <ele>122</ele>
        <time>2015-12-13T11:12:12Z</time>
      </trkpt>
      <trkpt lat="50.76338" lon="3.63616">
        <ele>122</ele>
        <time>2015-12-13T11:12:13Z</time>
      </trkpt>
      <trkpt lat="50.76339" lon="3.63611">
        <ele>122</ele>
        <time>2015-12-13T11:12:14Z</time>
      </trkpt>
      <trkpt lat="50.7634" lon="3.63607">
        <ele>122</ele>
        <time>2015-12-13T11:12:15Z</time>
      </trkpt>
      <trkpt lat="50.7634" lon="3.63603">
        <ele>122</ele>
        <time>2015-12-13T11:12:16Z</time>
      </trkpt>
      <trkpt lat="50.76341" lon="3.63599">
        <ele>122</ele>
        <time>2015-12-13T11:12:17Z</time>
      </trkpt>
      <trkpt lat="50.76342" lon="3.63595">
        <ele>122</ele>
        <time>2015-12-13T11:12:18Z</time>
      </trkpt>
      <trkpt lat="50.76343" lon="3.63591">
        <ele>122</ele>
        <time>2015-12-13T11:12:19Z</time>
      </trkpt>
      <trkpt lat="50.76344" lon="3.63587">
        <ele>122</ele>
        <time>2015-12-13T11:12:20Z</time>
      </trkpt>
      <trkpt lat="50.76345" lon="3.63583">
        <ele>120.6</ele>
        <time>2015-12-13T11:12:21Z</time>
      </trkpt>
      <trkpt lat="50.76345" lon="3.63579">
        <ele>120</ele>
        <time>2015-12-13T11:12:22Z</time>
      </trkpt>
      <trkpt lat="50.76344" lon="3.63574">
        <ele>120</ele>
        <time>2015-12-13T11:12:23Z</time>
      </trkpt>
      <trkpt lat="50.76344" lon="3.6357">
        <ele>120</ele>
        <time>2015-12-13T11:12:24Z</time>
      </trkpt>
      <trkpt lat="50.76344" lon="3.63566">
        <ele>120</ele>
        <time>2015-12-13T11:12:25Z</time>
      </trkpt>
      <trkpt lat="50.76344" lon="3.63561">
        <ele>120</ele>
        <time>2015-12-13T11:12:26Z</time>
      </trkpt>
      <trkpt lat="50.76345" lon="3.63557">
        <ele>120</ele>
        <time>2015-12-13T11:12:27Z</time>
      </trkpt>
      <trkpt lat="50.76345" lon="3.63553">
        <ele>120</ele>
        <time>2015-12-13T11:12:28Z</time>
      </trkpt>
      <trkpt lat="50.76345" lon="3.63549">
        <ele>120</ele>
        <time>2015-12-13T11:12:29Z</time>
      </trkpt>
      <trkpt lat="50.76345" lon="3.63546">
        <ele>120</ele>
        <time>2015-12-13T11:12:30Z</time>
      </trkpt>
      <trkpt lat="50.76346" lon="3.63543">
        <ele>118.6</ele>
        <time>2015-12-13T11:12:31Z</time>
      </trkpt>
      <trkpt lat="50.76347" lon="3.63539">
        <ele>118</ele>
        <time>2015-12-13T11:12:32Z</time>
      </trkpt>
      <trkpt lat="50.76347" lon="3.63534">
        <ele>118</ele>
        <time>2015-12-13T11:12:33Z</time>
      </trkpt>
      <trkpt lat="50.76348" lon="3.6353">
        <ele>118</ele>
        <time>2015-12-13T11:12:34Z</time>
      </trkpt>
      <trkpt lat="50.76348" lon="3.63526">
        <ele>118</ele>
        <time>2015-12-13T11:12:35Z</time>
      </trkpt>
      <trkpt lat="50.76349" lon="3.63521">
        <ele>117.5</ele>
        <time>2015-12-13T11:12:36Z</time>
      </trkpt>
      <trkpt lat="50.7635" lon="3.63518">
        <ele>117</ele>
        <time>2015-12-13T11:12:37Z</time>
      </trkpt>
      <trkpt lat="50.76351" lon="3.63514">
        <ele>117</ele>
        <time>2015-12-13T11:12:38Z</time>
      </trkpt>
      <trkpt lat="50.76351" lon="3.63511">
        <ele>117</ele>
        <time>2015-12-13T11:12:39Z</time>
      </trkpt>
      <trkpt lat="50.76352" lon="3.63508">
        <ele>117</ele>
        <time>2015-12-13T11:12:40Z</time>
      </trkpt>
      <trkpt lat="50.76352" lon="3.63505">
        <ele>116.3</ele>
        <time>2015-12-13T11:12:41Z</time>
      </trkpt>
      <trkpt lat="50.76352" lon="3.63503">
        <ele>116</ele>
        <time>2015-12-13T11:12:42Z</time>
      </trkpt>
      <trkpt lat="50.76351" lon="3.63497">
        <ele>116</ele>
        <time>2015-12-13T11:12:44Z</time>
      </trkpt>
      <trkpt lat="50.76352" lon="3.63494">
        <ele>116</ele>
        <time>2015-12-13T11:12:45Z</time>
      </trkpt>
      <trkpt lat="50.76352" lon="3.63491">
        <ele>114.6</ele>
        <time>2015-12-13T11:12:46Z</time>
      </trkpt>
      <trkpt lat="50.76352" lon="3.63487">
        <ele>114</ele>
        <time>2015-12-13T11:12:48Z</time>
      </trkpt>
      <trkpt lat="50.76353" lon="3.63483">
        <ele>114</ele>
        <time>2015-12-13T11:12:50Z</time>
      </trkpt>
      <trkpt lat="50.76355" lon="3.63478">
        <ele>114</ele>
        <time>2015-12-13T11:12:52Z</time>
      </trkpt>
      <trkpt lat="50.76356" lon="3.63475">
        <ele>114</ele>
        <time>2015-12-13T11:12:53Z</time>
      </trkpt>
      <trkpt lat="50.76356" lon="3.63472">
        <ele>114</ele>
        <time>2015-12-13T11:12:54Z</time>
      </trkpt>
      <trkpt lat="50.76357" lon="3.63469">
        <ele>114</ele>
        <time>2015-12-13T11:12:55Z</time>
      </trkpt>
      <trkpt lat="50.76359" lon="3.63466">
        <ele>113.3</ele>
        <time>2015-12-13T11:12:56Z</time>
      </trkpt>
      <trkpt lat="50.7636" lon="3.63463">
        <ele>113</ele>
        <time>2015-12-13T11:12:57Z</time>
      </trkpt>
      <trkpt lat="50.76361" lon="3.63458">
        <ele>113</ele>
        <time>2015-12-13T11:12:58Z</time>
      </trkpt>
      <trkpt lat="50.76362" lon="3.63454">
        <ele>113</ele>
        <time>2015-12-13T11:12:59Z</time>
      </trkpt>
      <trkpt lat="50.76363" lon="3.63451">
        <ele>113</ele>
        <time>2015-12-13T11:13:00Z</time>
      </trkpt>
      <trkpt lat="50.76364" lon="3.63448">
        <ele>111.6</ele>
        <time>2015-12-13T11:13:01Z</time>
      </trkpt>
      <trkpt lat="50.76365" lon="3.63445">
        <ele>111</ele>
        <time>2015-12-13T11:13:02Z</time>
      </trkpt>
      <trkpt lat="50.76366" lon="3.63442">
        <ele>111</ele>
        <time>2015-12-13T11:13:03Z</time>
      </trkpt>
      <trkpt lat="50.76368" lon="3.63439">
        <ele>111</ele>
        <time>2015-12-13T11:13:04Z</time>
      </trkpt>
      <trkpt lat="50.76369" lon="3.63437">
        <ele>111</ele>
        <time>2015-12-13T11:13:05Z</time>
      </trkpt>
      <trkpt lat="50.7637" lon="3.63433">
        <ele>111</ele>
        <time>2015-12-13T11:13:06Z</time>
      </trkpt>
      <trkpt lat="50.76371" lon="3.63431">
        <ele>111</ele>
        <time>2015-12-13T11:13:07Z</time>
      </trkpt>
      <trkpt lat="50.76373" lon="3.63428">
        <ele>111</ele>
        <time>2015-12-13T11:13:08Z</time>
      </trkpt>
      <trkpt lat="50.76374" lon="3.63425">
        <ele>111</ele>
        <time>2015-12-13T11:13:09Z</time>
      </trkpt>
      <trkpt lat="50.76375" lon="3.63421">
        <ele>111</ele>
        <time>2015-12-13T11:13:10Z</time>
      </trkpt>
      <trkpt lat="50.76377" lon="3.63416">
        <ele>110</ele>
        <time>2015-12-13T11:13:12Z</time>
      </trkpt>
      <trkpt lat="50.76378" lon="3.63413">
        <ele>110</ele>
        <time>2015-12-13T11:13:13Z</time>
      </trkpt>
      <trkpt lat="50.7638" lon="3.63409">
        <ele>110</ele>
        <time>2015-12-13T11:13:14Z</time>
      </trkpt>
      <trkpt lat="50.76382" lon="3.63406">
        <ele>110</ele>
        <time>2015-12-13T11:13:15Z</time>
      </trkpt>
      <trkpt lat="50.76383" lon="3.63403">
        <ele>110</ele>
        <time>2015-12-13T11:13:16Z</time>
      </trkpt>
      <trkpt lat="50.76385" lon="3.634">
        <ele>110</ele>
        <time>2015-12-13T11:13:17Z</time>
      </trkpt>
      <trkpt lat="50.76386" lon="3.63396">
        <ele>110</ele>
        <time>2015-12-13T11:13:18Z</time>
      </trkpt>
      <trkpt lat="50.76388" lon="3.63392">
        <ele>110</ele>
        <time>2015-12-13T11:13:19Z</time>
      </trkpt>
      <trkpt lat="50.76389" lon="3.6339">
        <ele>110</ele>
        <time>2015-12-13T11:13:20Z</time>
      </trkpt>
      <trkpt lat="50.76391" lon="3.63386">
        <ele>109.3</ele>
        <time>2015-12-13T11:13:21Z</time>
      </trkpt>
      <trkpt lat="50.76392" lon="3.63383">
        <ele>109</ele>
        <time>2015-12-13T11:13:22Z</time>
      </trkpt>
      <trkpt lat="50.76393" lon="3.63379">
        <ele>109</ele>
        <time>2015-12-13T11:13:23Z</time>
      </trkpt>
      <trkpt lat="50.76394" lon="3.63375">
        <ele>109</ele>
        <time>2015-12-13T11:13:24Z</time>
      </trkpt>
      <trkpt lat="50.76395" lon="3.63372">
        <ele>109</ele>
        <time>2015-12-13T11:13:25Z</time>
      </trkpt>
      <trkpt lat="50.76396" lon="3.63369">
        <ele>109</ele>
        <time>2015-12-13T11:13:26Z</time>
      </trkpt>
      <trkpt lat="50.76398" lon="3.63365">
        <ele>109</ele>
        <time>2015-12-13T11:13:27Z</time>
      </trkpt>
      <trkpt lat="50.764" lon="3.63362">
        <ele>109</ele>
        <time>2015-12-13T11:13:28Z</time>
      </trkpt>
      <trkpt lat="50.76402" lon="3.63356">
        <ele>109</ele>
        <time>2015-12-13T11:13:29Z</time>
      </trkpt>
      <trkpt lat="50.76403" lon="3.63353">
        <ele>109</ele>
        <time>2015-12-13T11:13:30Z</time>
      </trkpt>
      <trkpt lat="50.76405" lon="3.6335">
        <ele>107.6</ele>
        <time>2015-12-13T11:13:31Z</time>
      </trkpt>
      <trkpt lat="50.76406" lon="3.63346">
        <ele>107</ele>
        <time>2015-12-13T11:13:32Z</time>
      </trkpt>
      <trkpt lat="50.76407" lon="3.63342">
        <ele>107</ele>
        <time>2015-12-13T11:13:33Z</time>
      </trkpt>
      <trkpt lat="50.76408" lon="3.63338">
        <ele>107</ele>
        <time>2015-12-13T11:13:34Z</time>
      </trkpt>
      <trkpt lat="50.7641" lon="3.63334">
        <ele>107</ele>
        <time>2015-12-13T11:13:35Z</time>
      </trkpt>
      <trkpt lat="50.76411" lon="3.63331">
        <ele>105.6</ele>
        <time>2015-12-13T11:13:36Z</time>
      </trkpt>
      <trkpt lat="50.76411" lon="3.63328">
        <ele>105</ele>
        <time>2015-12-13T11:13:37Z</time>
      </trkpt>
      <trkpt lat="50.76413" lon="3.63325">
        <ele>105</ele>
        <time>2015-12-13T11:13:38Z</time>
      </trkpt>
      <trkpt lat="50.76414" lon="3.63323">
        <ele>105</ele>
        <time>2015-12-13T11:13:39Z</time>
      </trkpt>
      <trkpt lat="50.76415" lon="3.6332">
        <ele>105</ele>
        <time>2015-12-13T11:13:40Z</time>
      </trkpt>
      <trkpt lat="50.76416" lon="3.63316">
        <ele>104.3</ele>
        <time>2015-12-13T11:13:41Z</time>
      </trkpt>
      <trkpt lat="50.76417" lon="3.63314">
        <ele>104</ele>
        <time>2015-12-13T11:13:42Z</time>
      </trkpt>
      <trkpt lat="50.76418" lon="3.63311">
        <ele>104</ele>
        <time>2015-12-13T11:13:43Z</time>
      </trkpt>
      <trkpt lat="50.76419" lon="3.63308">
        <ele>104</ele>
        <time>2015-12-13T11:13:44Z</time>
      </trkpt>
      <trkpt lat="50.7642" lon="3.63304">
        <ele>104</ele>
        <time>2015-12-13T11:13:45Z</time>
      </trkpt>
      <trkpt lat="50.76422" lon="3.633">
        <ele>102</ele>
        <time>2015-12-13T11:13:46Z</time>
      </trkpt>
      <trkpt lat="50.76424" lon="3.63296">
        <ele>101</ele>
        <time>2015-12-13T11:13:47Z</time>
      </trkpt>
      <trkpt lat="50.76425" lon="3.63293">
        <ele>101</ele>
        <time>2015-12-13T11:13:48Z</time>
      </trkpt>
      <trkpt lat="50.76427" lon="3.6329">
        <ele>101</ele>
        <time>2015-12-13T11:13:49Z</time>
      </trkpt>
      <trkpt lat="50.7643" lon="3.63286">
        <ele>101</ele>
        <time>2015-12-13T11:13:50Z</time>
      </trkpt>
      <trkpt lat="50.76433" lon="3.63283">
        <ele>101</ele>
        <time>2015-12-13T11:13:51Z</time>
      </trkpt>
      <trkpt lat="50.76435" lon="3.63279">
        <ele>101</ele>
        <time>2015-12-13T11:13:52Z</time>
      </trkpt>
      <trkpt lat="50.76436" lon="3.63276">
        <ele>101</ele>
        <time>2015-12-13T11:13:53Z</time>
      </trkpt>
      <trkpt lat="50.76438" lon="3.63272">
        <ele>101</ele>
        <time>2015-12-13T11:13:54Z</time>
      </trkpt>
      <trkpt lat="50.76439" lon="3.63268">
        <ele>101</ele>
        <time>2015-12-13T11:13:55Z</time>
      </trkpt>
      <trkpt lat="50.7644" lon="3.63265">
        <ele>99.6</ele>
        <time>2015-12-13T11:13:56Z</time>
      </trkpt>
      <trkpt lat="50.76442" lon="3.63261">
        <ele>99</ele>
        <time>2015-12-13T11:13:57Z</time>
      </trkpt>
      <trkpt lat="50.76443" lon="3.63259">
        <ele>99</ele>
        <time>2015-12-13T11:13:58Z</time>
      </trkpt>
      <trkpt lat="50.76444" lon="3.63254">
        <ele>99</ele>
        <time>2015-12-13T11:14:00Z</time>
      </trkpt>
      <trkpt lat="50.76445" lon="3.63251">
        <ele>98.3</ele>
        <time>2015-12-13T11:14:01Z</time>
      </trkpt>
      <trkpt lat="50.76446" lon="3.63247">
        <ele>98</ele>
        <time>2015-12-13T11:14:02Z</time>
      </trkpt>
      <trkpt lat="50.76445" lon="3.63243">
        <ele>98</ele>
        <time>2015-12-13T11:14:03Z</time>
      </trkpt>
      <trkpt lat="50.76445" lon="3.63239">
        <ele>98</ele>
        <time>2015-12-13T11:14:04Z</time>
      </trkpt>
      <trkpt lat="50.76444" lon="3.63235">
        <ele>98</ele>
        <time>2015-12-13T11:14:05Z</time>
      </trkpt>
      <trkpt lat="50.76443" lon="3.63232">
        <ele>98</ele>
        <time>2015-12-13T11:14:06Z</time>
      </trkpt>
      <trkpt lat="50.76442" lon="3.63229">
        <ele>98</ele>
        <time>2015-12-13T11:14:07Z</time>
      </trkpt>
      <trkpt lat="50.76441" lon="3.63225">
        <ele>98</ele>
        <time>2015-12-13T11:14:08Z</time>
      </trkpt>
      <trkpt lat="50.76439" lon="3.63223">
        <ele>98</ele>
        <time>2015-12-13T11:14:09Z</time>
      </trkpt>
      <trkpt lat="50.76438" lon="3.6322">
        <ele>98</ele>
        <time>2015-12-13T11:14:10Z</time>
      </trkpt>
      <trkpt lat="50.76436" lon="3.63217">
        <ele>96.4</ele>
        <time>2015-12-13T11:14:11Z</time>
      </trkpt>
      <trkpt lat="50.76435" lon="3.63214">
        <ele>95</ele>
        <time>2015-12-13T11:14:12Z</time>
      </trkpt>
      <trkpt lat="50.76433" lon="3.63211">
        <ele>95</ele>
        <time>2015-12-13T11:14:13Z</time>
      </trkpt>
      <trkpt lat="50.76431" lon="3.63209">
        <ele>95</ele>
        <time>2015-12-13T11:14:14Z</time>
      </trkpt>
      <trkpt lat="50.76429" lon="3.63206">
        <ele>95</ele>
        <time>2015-12-13T11:14:15Z</time>
      </trkpt>
      <trkpt lat="50.76427" lon="3.63203">
        <ele>93.6</ele>
        <time>2015-12-13T11:14:16Z</time>
      </trkpt>
      <trkpt lat="50.76426" lon="3.63199">
        <ele>93</ele>
        <time>2015-12-13T11:14:17Z</time>
      </trkpt>
      <trkpt lat="50.76424" lon="3.63196">
        <ele>93</ele>
        <time>2015-12-13T11:14:18Z</time>
      </trkpt>
      <trkpt lat="50.76423" lon="3.63193">
        <ele>93</ele>
        <time>2015-12-13T11:14:19Z</time>
      </trkpt>
      <trkpt lat="50.76421" lon="3.63189">
        <ele>93</ele>
        <time>2015-12-13T11:14:20Z</time>
      </trkpt>
      <trkpt lat="50.76419" lon="3.63185">
        <ele>91</ele>
        <time>2015-12-13T11:14:21Z</time>
      </trkpt>
      <trkpt lat="50.76417" lon="3.63183">
        <ele>90</ele>
        <time>2015-12-13T11:14:22Z</time>
      </trkpt>
      <trkpt lat="50.76415" lon="3.63179">
        <ele>90</ele>
        <time>2015-12-13T11:14:23Z</time>
      </trkpt>
      <trkpt lat="50.76414" lon="3.63176">
        <ele>90</ele>
        <time>2015-12-13T11:14:24Z</time>
      </trkpt>
      <trkpt lat="50.76412" lon="3.63173">
        <ele>90</ele>
        <time>2015-12-13T11:14:25Z</time>
      </trkpt>
      <trkpt lat="50.7641" lon="3.6317">
        <ele>89</ele>
        <time>2015-12-13T11:14:26Z</time>
      </trkpt>
      <trkpt lat="50.76408" lon="3.63167">
        <ele>88</ele>
        <time>2015-12-13T11:14:27Z</time>
      </trkpt>
      <trkpt lat="50.76406" lon="3.63166">
        <ele>88</ele>
        <time>2015-12-13T11:14:28Z</time>
      </trkpt>
      <trkpt lat="50.76404" lon="3.63163">
        <ele>88</ele>
        <time>2015-12-13T11:14:29Z</time>
      </trkpt>
      <trkpt lat="50.76402" lon="3.63161">
        <ele>88</ele>
        <time>2015-12-13T11:14:30Z</time>
      </trkpt>
      <trkpt lat="50.764" lon="3.63157">
        <ele>86.7</ele>
        <time>2015-12-13T11:14:31Z</time>
      </trkpt>
      <trkpt lat="50.76398" lon="3.63153">
        <ele>86</ele>
        <time>2015-12-13T11:14:32Z</time>
      </trkpt>
      <trkpt lat="50.76397" lon="3.63148">
        <ele>86</ele>
        <time>2015-12-13T11:14:33Z</time>
      </trkpt>
      <trkpt lat="50.76396" lon="3.63143">
        <ele>86</ele>
        <time>2015-12-13T11:14:34Z</time>
      </trkpt>
      <trkpt lat="50.76395" lon="3.63138">
        <ele>86</ele>
        <time>2015-12-13T11:14:35Z</time>
      </trkpt>
      <trkpt lat="50.76394" lon="3.63133">
        <ele>85.3</ele>
        <time>2015-12-13T11:14:36Z</time>
      </trkpt>
      <trkpt lat="50.76394" lon="3.63128">
        <ele>85</ele>
        <time>2015-12-13T11:14:37Z</time>
      </trkpt>
      <trkpt lat="50.76394" lon="3.63123">
        <ele>85</ele>
        <time>2015-12-13T11:14:38Z</time>
      </trkpt>
      <trkpt lat="50.76395" lon="3.63119">
        <ele>85</ele>
        <time>2015-12-13T11:14:39Z</time>
      </trkpt>
      <trkpt lat="50.76397" lon="3.63116">
        <ele>85</ele>
        <time>2015-12-13T11:14:40Z</time>
      </trkpt>
      <trkpt lat="50.76398" lon="3.63113">
        <ele>84.3</ele>
        <time>2015-12-13T11:14:41Z</time>
      </trkpt>
      <trkpt lat="50.76396" lon="3.6311">
        <ele>84</ele>
        <time>2015-12-13T11:14:43Z</time>
      </trkpt>
      <trkpt lat="50.76394" lon="3.63108">
        <ele>84</ele>
        <time>2015-12-13T11:14:44Z</time>
      </trkpt>
      <trkpt lat="50.76392" lon="3.63106">
        <ele>84</ele>
        <time>2015-12-13T11:14:45Z</time>
      </trkpt>
      <trkpt lat="50.76391" lon="3.63103">
        <ele>84</ele>
        <time>2015-12-13T11:14:46Z</time>
      </trkpt>
      <trkpt lat="50.76389" lon="3.631">
        <ele>84</ele>
        <time>2015-12-13T11:14:47Z</time>
      </trkpt>
      <trkpt lat="50.76389" lon="3.63097">
        <ele>84</ele>
        <time>2015-12-13T11:14:48Z</time>
      </trkpt>
      <trkpt lat="50.76388" lon="3.63094">
        <ele>84</ele>
        <time>2015-12-13T11:14:49Z</time>
      </trkpt>
      <trkpt lat="50.76387" lon="3.6309">
        <ele>84</ele>
        <time>2015-12-13T11:14:50Z</time>
      </trkpt>
      <trkpt lat="50.76386" lon="3.63086">
        <ele>83.3</ele>
        <time>2015-12-13T11:14:51Z</time>
      </trkpt>
      <trkpt lat="50.76385" lon="3.63083">
        <ele>83</ele>
        <time>2015-12-13T11:14:52Z</time>
      </trkpt>
      <trkpt lat="50.76385" lon="3.6308">
        <ele>83.7</ele>
        <time>2015-12-13T11:14:53Z</time>
      </trkpt>
      <trkpt lat="50.76384" lon="3.63077">
        <ele>84</ele>
        <time>2015-12-13T11:14:54Z</time>
      </trkpt>
      <trkpt lat="50.76383" lon="3.63073">
        <ele>84</ele>
        <time>2015-12-13T11:14:55Z</time>
      </trkpt>
      <trkpt lat="50.76381" lon="3.6307">
        <ele>84</ele>
        <time>2015-12-13T11:14:56Z</time>
      </trkpt>
      <trkpt lat="50.7638" lon="3.63067">
        <ele>84</ele>
        <time>2015-12-13T11:14:57Z</time>
      </trkpt>
      <trkpt lat="50.76378" lon="3.63064">
        <ele>84</ele>
        <time>2015-12-13T11:14:58Z</time>
      </trkpt>
      <trkpt lat="50.76376" lon="3.63061">
        <ele>84</ele>
        <time>2015-12-13T11:14:59Z</time>
      </trkpt>
      <trkpt lat="50.76374" lon="3.63059">
        <ele>84</ele>
        <time>2015-12-13T11:15:00Z</time>
      </trkpt>
      <trkpt lat="50.76372" lon="3.63057">
        <ele>84</ele>
        <time>2015-12-13T11:15:01Z</time>
      </trkpt>
      <trkpt lat="50.7637" lon="3.63056">
        <ele>81.3</ele>
        <time>2015-12-13T11:15:02Z</time>
      </trkpt>
      <trkpt lat="50.76367" lon="3.63054">
        <ele>80</ele>
        <time>2015-12-13T11:15:03Z</time>
      </trkpt>
      <trkpt lat="50.76365" lon="3.63053">
        <ele>80</ele>
        <time>2015-12-13T11:15:04Z</time>
      </trkpt>
      <trkpt lat="50.76363" lon="3.63052">
        <ele>80</ele>
        <time>2015-12-13T11:15:05Z</time>
      </trkpt>
      <trkpt lat="50.76361" lon="3.63051">
        <ele>80</ele>
        <time>2015-12-13T11:15:06Z</time>
      </trkpt>
      <trkpt lat="50.76359" lon="3.6305">
        <ele>80</ele>
        <time>2015-12-13T11:15:07Z</time>
      </trkpt>
      <trkpt lat="50.76357" lon="3.63049">
        <ele>80</ele>
        <time>2015-12-13T11:15:08Z</time>
      </trkpt>
      <trkpt lat="50.76355" lon="3.63049">
        <ele>80</ele>
        <time>2015-12-13T11:15:09Z</time>
      </trkpt>
      <trkpt lat="50.76352" lon="3.63048">
        <ele>80</ele>
        <time>2015-12-13T11:15:10Z</time>
      </trkpt>
      <trkpt lat="50.76349" lon="3.63048">
        <ele>80</ele>
        <time>2015-12-13T11:15:11Z</time>
      </trkpt>
      <trkpt lat="50.76347" lon="3.63047">
        <ele>79.3</ele>
        <time>2015-12-13T11:15:12Z</time>
      </trkpt>
      <trkpt lat="50.76344" lon="3.63047">
        <ele>79</ele>
        <time>2015-12-13T11:15:13Z</time>
      </trkpt>
      <trkpt lat="50.76341" lon="3.63046">
        <ele>79</ele>
        <time>2015-12-13T11:15:14Z</time>
      </trkpt>
      <trkpt lat="50.76338" lon="3.63045">
        <ele>79</ele>
        <time>2015-12-13T11:15:15Z</time>
      </trkpt>
      <trkpt lat="50.76336" lon="3.63045">
        <ele>79</ele>
        <time>2015-12-13T11:15:16Z</time>
      </trkpt>
      <trkpt lat="50.76333" lon="3.63045">
        <ele>79</ele>
        <time>2015-12-13T11:15:17Z</time>
      </trkpt>
      <trkpt lat="50.76331" lon="3.63046">
        <ele>79</ele>
        <time>2015-12-13T11:15:18Z</time>
      </trkpt>
      <trkpt lat="50.76328" lon="3.63046">
        <ele>79</ele>
        <time>2015-12-13T11:15:19Z</time>
      </trkpt>
      <trkpt lat="50.76325" lon="3.63046">
        <ele>79</ele>
        <time>2015-12-13T11:15:20Z</time>
      </trkpt>
      <trkpt lat="50.76322" lon="3.63046">
        <ele>79</ele>
        <time>2015-12-13T11:15:21Z</time>
      </trkpt>
      <trkpt lat="50.76319" lon="3.63046">
        <ele>78.3</ele>
        <time>2015-12-13T11:15:22Z</time>
      </trkpt>
      <trkpt lat="50.76317" lon="3.63046">
        <ele>78</ele>
        <time>2015-12-13T11:15:23Z</time>
      </trkpt>
      <trkpt lat="50.76314" lon="3.63045">
        <ele>78</ele>
        <time>2015-12-13T11:15:24Z</time>
      </trkpt>
      <trkpt lat="50.76311" lon="3.63043">
        <ele>78</ele>
        <time>2015-12-13T11:15:25Z</time>
      </trkpt>
      <trkpt lat="50.76308" lon="3.63042">
        <ele>78</ele>
        <time>2015-12-13T11:15:26Z</time>
      </trkpt>
      <trkpt lat="50.76306" lon="3.63039">
        <ele>78</ele>
        <time>2015-12-13T11:15:27Z</time>
      </trkpt>
      <trkpt lat="50.76304" lon="3.63036">
        <ele>78</ele>
        <time>2015-12-13T11:15:28Z</time>
      </trkpt>
      <trkpt lat="50.76301" lon="3.63034">
        <ele>78</ele>
        <time>2015-12-13T11:15:29Z</time>
      </trkpt>
      <trkpt lat="50.76299" lon="3.63033">
        <ele>78</ele>
        <time>2015-12-13T11:15:30Z</time>
      </trkpt>
      <trkpt lat="50.76297" lon="3.63031">
        <ele>78</ele>
        <time>2015-12-13T11:15:31Z</time>
      </trkpt>
      <trkpt lat="50.76294" lon="3.63029">
        <ele>76</ele>
        <time>2015-12-13T11:15:32Z</time>
      </trkpt>
      <trkpt lat="50.76292" lon="3.63027">
        <ele>75</ele>
        <time>2015-12-13T11:15:33Z</time>
      </trkpt>
      <trkpt lat="50.7629" lon="3.63024">
        <ele>75</ele>
        <time>2015-12-13T11:15:34Z</time>
      </trkpt>
      <trkpt lat="50.76288" lon="3.63022">
        <ele>75</ele>
        <time>2015-12-13T11:15:35Z</time>
      </trkpt>
      <trkpt lat="50.76286" lon="3.63021">
        <ele>75</ele>
        <time>2015-12-13T11:15:36Z</time>
      </trkpt>
      <trkpt lat="50.76285" lon="3.63018">
        <ele>73</ele>
        <time>2015-12-13T11:15:37Z</time>
      </trkpt>
      <trkpt lat="50.76283" lon="3.63016">
        <ele>72</ele>
        <time>2015-12-13T11:15:38Z</time>
      </trkpt>
      <trkpt lat="50.76281" lon="3.63013">
        <ele>72</ele>
        <time>2015-12-13T11:15:39Z</time>
      </trkpt>
      <trkpt lat="50.76279" lon="3.6301">
        <ele>72</ele>
        <time>2015-12-13T11:15:40Z</time>
      </trkpt>
      <trkpt lat="50.76277" lon="3.63009">
        <ele>72</ele>
        <time>2015-12-13T11:15:41Z</time>
      </trkpt>
      <trkpt lat="50.76275" lon="3.63006">
        <ele>70</ele>
        <time>2015-12-13T11:15:42Z</time>
      </trkpt>
      <trkpt lat="50.76273" lon="3.63004">
        <ele>68.3</ele>
        <time>2015-12-13T11:15:43Z</time>
      </trkpt>
      <trkpt lat="50.76271" lon="3.63001">
        <ele>67.5</ele>
        <time>2015-12-13T11:15:44Z</time>
      </trkpt>
      <trkpt lat="50.7627" lon="3.62997">
        <ele>67</ele>
        <time>2015-12-13T11:15:45Z</time>
      </trkpt>
      <trkpt lat="50.76269" lon="3.62994">
        <ele>66.5</ele>
        <time>2015-12-13T11:15:46Z</time>
      </trkpt>
      <trkpt lat="50.76268" lon="3.6299">
        <ele>66</ele>
        <time>2015-12-13T11:15:47Z</time>
      </trkpt>
      <trkpt lat="50.76267" lon="3.62986">
        <ele>66</ele>
        <time>2015-12-13T11:15:48Z</time>
      </trkpt>
      <trkpt lat="50.76266" lon="3.62982">
        <ele>66</ele>
        <time>2015-12-13T11:15:49Z</time>
      </trkpt>
      <trkpt lat="50.76265" lon="3.62977">
        <ele>65.3</ele>
        <time>2015-12-13T11:15:50Z</time>
      </trkpt>
      <trkpt lat="50.76263" lon="3.62973">
        <ele>64.3</ele>
        <time>2015-12-13T11:15:51Z</time>
      </trkpt>
      <trkpt lat="50.76262" lon="3.6297">
        <ele>64</ele>
        <time>2015-12-13T11:15:52Z</time>
      </trkpt>
      <trkpt lat="50.7626" lon="3.62967">
        <ele>64</ele>
        <time>2015-12-13T11:15:53Z</time>
      </trkpt>
      <trkpt lat="50.76258" lon="3.62963">
        <ele>64</ele>
        <time>2015-12-13T11:15:54Z</time>
      </trkpt>
      <trkpt lat="50.76256" lon="3.6296">
        <ele>64</ele>
        <time>2015-12-13T11:15:55Z</time>
      </trkpt>
      <trkpt lat="50.76254" lon="3.62957">
        <ele>64</ele>
        <time>2015-12-13T11:15:56Z</time>
      </trkpt>
      <trkpt lat="50.76253" lon="3.62954">
        <ele>63.3</ele>
        <time>2015-12-13T11:15:57Z</time>
      </trkpt>
      <trkpt lat="50.76252" lon="3.62951">
        <ele>63</ele>
        <time>2015-12-13T11:15:58Z</time>
      </trkpt>
      <trkpt lat="50.7625" lon="3.62948">
        <ele>63</ele>
        <time>2015-12-13T11:15:59Z</time>
      </trkpt>
      <trkpt lat="50.76249" lon="3.62944">
        <ele>63</ele>
        <time>2015-12-13T11:16:00Z</time>
      </trkpt>
      <trkpt lat="50.76247" lon="3.62942">
        <ele>61.6</ele>
        <time>2015-12-13T11:16:01Z</time>
      </trkpt>
      <trkpt lat="50.76246" lon="3.62936">
        <ele>61</ele>
        <time>2015-12-13T11:16:03Z</time>
      </trkpt>
      <trkpt lat="50.76245" lon="3.62932">
        <ele>61</ele>
        <time>2015-12-13T11:16:04Z</time>
      </trkpt>
      <trkpt lat="50.76243" lon="3.62929">
        <ele>61</ele>
        <time>2015-12-13T11:16:05Z</time>
      </trkpt>
      <trkpt lat="50.76242" lon="3.62926">
        <ele>61</ele>
        <time>2015-12-13T11:16:06Z</time>
      </trkpt>
      <trkpt lat="50.7624" lon="3.62923">
        <ele>61</ele>
        <time>2015-12-13T11:16:07Z</time>
      </trkpt>
      <trkpt lat="50.7624" lon="3.6292">
        <ele>61</ele>
        <time>2015-12-13T11:16:08Z</time>
      </trkpt>
      <trkpt lat="50.7624" lon="3.62916">
        <ele>61</ele>
        <time>2015-12-13T11:16:09Z</time>
      </trkpt>
      <trkpt lat="50.7624" lon="3.62912">
        <ele>61</ele>
        <time>2015-12-13T11:16:10Z</time>
      </trkpt>
      <trkpt lat="50.76239" lon="3.62908">
        <ele>61</ele>
        <time>2015-12-13T11:16:12Z</time>
      </trkpt>
      <trkpt lat="50.76237" lon="3.62904">
        <ele>61</ele>
        <time>2015-12-13T11:16:14Z</time>
      </trkpt>
      <trkpt lat="50.76237" lon="3.629">
        <ele>61</ele>
        <time>2015-12-13T11:16:16Z</time>
      </trkpt>
      <trkpt lat="50.76239" lon="3.62897">
        <ele>61</ele>
        <time>2015-12-13T11:16:18Z</time>
      </trkpt>
      <trkpt lat="50.7624" lon="3.62894">
        <ele>61</ele>
        <time>2015-12-13T11:16:21Z</time>
      </trkpt>
      <trkpt lat="50.76238" lon="3.62894">
        <ele>62</ele>
        <time>2015-12-13T11:16:45Z</time>
      </trkpt>
      <trkpt lat="50.76236" lon="3.62897">
        <ele>62</ele>
        <time>2015-12-13T11:16:53Z</time>
      </trkpt>
      <trkpt lat="50.76234" lon="3.62896">
        <ele>62</ele>
        <time>2015-12-13T11:16:56Z</time>
      </trkpt>
      <trkpt lat="50.76233" lon="3.62893">
        <ele>62</ele>
        <time>2015-12-13T11:16:59Z</time>
      </trkpt>
      <trkpt lat="50.76231" lon="3.6289">
        <ele>62</ele>
        <time>2015-12-13T11:17:02Z</time>
      </trkpt>
      <trkpt lat="50.76229" lon="3.62887">
        <ele>62</ele>
        <time>2015-12-13T11:17:05Z</time>
      </trkpt>
      <trkpt lat="50.76228" lon="3.62886">
        <ele>62</ele>
        <time>2015-12-13T11:17:07Z</time>
      </trkpt>
      <trkpt lat="50.76225" lon="3.62883">
        <ele>62</ele>
        <time>2015-12-13T11:17:09Z</time>
      </trkpt>
      <trkpt lat="50.76223" lon="3.62881">
        <ele>62</ele>
        <time>2015-12-13T11:17:10Z</time>
      </trkpt>
      <trkpt lat="50.76222" lon="3.62879">
        <ele>60.4</ele>
        <time>2015-12-13T11:17:11Z</time>
      </trkpt>
      <trkpt lat="50.76221" lon="3.62877">
        <ele>59</ele>
        <time>2015-12-13T11:17:12Z</time>
      </trkpt>
      <trkpt lat="50.7622" lon="3.62874">
        <ele>59</ele>
        <time>2015-12-13T11:17:13Z</time>
      </trkpt>
      <trkpt lat="50.76219" lon="3.62871">
        <ele>59</ele>
        <time>2015-12-13T11:17:14Z</time>
      </trkpt>
      <trkpt lat="50.76218" lon="3.62868">
        <ele>59</ele>
        <time>2015-12-13T11:17:15Z</time>
      </trkpt>
      <trkpt lat="50.76217" lon="3.62866">
        <ele>57.6</ele>
        <time>2015-12-13T11:17:16Z</time>
      </trkpt>
      <trkpt lat="50.76216" lon="3.62862">
        <ele>57</ele>
        <time>2015-12-13T11:17:17Z</time>
      </trkpt>
      <trkpt lat="50.76216" lon="3.62859">
        <ele>57</ele>
        <time>2015-12-13T11:17:18Z</time>
      </trkpt>
      <trkpt lat="50.76215" lon="3.62855">
        <ele>57</ele>
        <time>2015-12-13T11:17:19Z</time>
      </trkpt>
      <trkpt lat="50.76215" lon="3.62852">
        <ele>57</ele>
        <time>2015-12-13T11:17:20Z</time>
      </trkpt>
      <trkpt lat="50.76214" lon="3.62849">
        <ele>56.5</ele>
        <time>2015-12-13T11:17:21Z</time>
      </trkpt>
      <trkpt lat="50.76213" lon="3.62846">
        <ele>56</ele>
        <time>2015-12-13T11:17:22Z</time>
      </trkpt>
      <trkpt lat="50.76212" lon="3.6284">
        <ele>56</ele>
        <time>2015-12-13T11:17:24Z</time>
      </trkpt>
      <trkpt lat="50.7621" lon="3.62836">
        <ele>55.3</ele>
        <time>2015-12-13T11:17:26Z</time>
      </trkpt>
      <trkpt lat="50.76209" lon="3.62833">
        <ele>55</ele>
        <time>2015-12-13T11:17:27Z</time>
      </trkpt>
      <trkpt lat="50.76208" lon="3.62831">
        <ele>55</ele>
        <time>2015-12-13T11:17:28Z</time>
      </trkpt>
      <trkpt lat="50.76206" lon="3.62829">
        <ele>55</ele>
        <time>2015-12-13T11:17:29Z</time>
      </trkpt>
      <trkpt lat="50.76204" lon="3.62828">
        <ele>55</ele>
        <time>2015-12-13T11:17:30Z</time>
      </trkpt>
      <trkpt lat="50.76202" lon="3.62826">
        <ele>53.6</ele>
        <time>2015-12-13T11:17:31Z</time>
      </trkpt>
      <trkpt lat="50.762" lon="3.62823">
        <ele>53</ele>
        <time>2015-12-13T11:17:32Z</time>
      </trkpt>
      <trkpt lat="50.762" lon="3.6282">
        <ele>53</ele>
        <time>2015-12-13T11:17:33Z</time>
      </trkpt>
      <trkpt lat="50.762" lon="3.62815">
        <ele>53</ele>
        <time>2015-12-13T11:17:35Z</time>
      </trkpt>
      <trkpt lat="50.76199" lon="3.6281">
        <ele>53</ele>
        <time>2015-12-13T11:17:37Z</time>
      </trkpt>
      <trkpt lat="50.76197" lon="3.62806">
        <ele>53</ele>
        <time>2015-12-13T11:17:39Z</time>
      </trkpt>
      <trkpt lat="50.76195" lon="3.62803">
        <ele>53</ele>
        <time>2015-12-13T11:17:41Z</time>
      </trkpt>
      <trkpt lat="50.76193" lon="3.62801">
        <ele>53</ele>
        <time>2015-12-13T11:17:43Z</time>
      </trkpt>
      <trkpt lat="50.76191" lon="3.628">
        <ele>53</ele>
        <time>2015-12-13T11:17:48Z</time>
      </trkpt>
      <trkpt lat="50.76189" lon="3.62799">
        <ele>53</ele>
        <time>2015-12-13T11:17:50Z</time>
      </trkpt>
      <trkpt lat="50.76187" lon="3.62796">
        <ele>53</ele>
        <time>2015-12-13T11:17:52Z</time>
      </trkpt>
      <trkpt lat="50.76184" lon="3.62793">
        <ele>53</ele>
        <time>2015-12-13T11:17:54Z</time>
      </trkpt>
      <trkpt lat="50.76182" lon="3.62792">
        <ele>53</ele>
        <time>2015-12-13T11:17:56Z</time>
      </trkpt>
      <trkpt lat="50.76181" lon="3.62788">
        <ele>53</ele>
        <time>2015-12-13T11:17:58Z</time>
      </trkpt>
      <trkpt lat="50.7618" lon="3.62783">
        <ele>53</ele>
        <time>2015-12-13T11:18:00Z</time>
      </trkpt>
      <trkpt lat="50.7618" lon="3.62778">
        <ele>52</ele>
        <time>2015-12-13T11:18:02Z</time>
      </trkpt>
      <trkpt lat="50.7618" lon="3.62774">
        <ele>52</ele>
        <time>2015-12-13T11:18:04Z</time>
      </trkpt>
      <trkpt lat="50.76181" lon="3.6277">
        <ele>52</ele>
        <time>2015-12-13T11:18:06Z</time>
      </trkpt>
      <trkpt lat="50.76182" lon="3.62766">
        <ele>52</ele>
        <time>2015-12-13T11:18:08Z</time>
      </trkpt>
      <trkpt lat="50.76182" lon="3.62761">
        <ele>52</ele>
        <time>2015-12-13T11:18:10Z</time>
      </trkpt>
      <trkpt lat="50.76183" lon="3.62757">
        <ele>52</ele>
        <time>2015-12-13T11:18:12Z</time>
      </trkpt>
      <trkpt lat="50.76184" lon="3.62752">
        <ele>52</ele>
        <time>2015-12-13T11:18:14Z</time>
      </trkpt>
      <trkpt lat="50.76184" lon="3.62748">
        <ele>52</ele>
        <time>2015-12-13T11:18:16Z</time>
      </trkpt>
      <trkpt lat="50.76184" lon="3.62743">
        <ele>52</ele>
        <time>2015-12-13T11:18:18Z</time>
      </trkpt>
      <trkpt lat="50.76184" lon="3.6274">
        <ele>52</ele>
        <time>2015-12-13T11:18:19Z</time>
      </trkpt>
      <trkpt lat="50.76184" lon="3.62737">
        <ele>52</ele>
        <time>2015-12-13T11:18:20Z</time>
      </trkpt>
      <trkpt lat="50.76185" lon="3.62733">
        <ele>52</ele>
        <time>2015-12-13T11:18:22Z</time>
      </trkpt>
      <trkpt lat="50.76185" lon="3.62728">
        <ele>52</ele>
        <time>2015-12-13T11:18:24Z</time>
      </trkpt>
      <trkpt lat="50.76185" lon="3.62722">
        <ele>52</ele>
        <time>2015-12-13T11:18:26Z</time>
      </trkpt>
      <trkpt lat="50.76185" lon="3.62717">
        <ele>52</ele>
        <time>2015-12-13T11:18:28Z</time>
      </trkpt>
      <trkpt lat="50.76183" lon="3.62714">
        <ele>52</ele>
        <time>2015-12-13T11:18:29Z</time>
      </trkpt>
      <trkpt lat="50.76181" lon="3.62712">
        <ele>52</ele>
        <time>2015-12-13T11:18:30Z</time>
      </trkpt>
      <trkpt lat="50.76179" lon="3.62709">
        <ele>52</ele>
        <time>2015-12-13T11:18:31Z</time>
      </trkpt>
      <trkpt lat="50.76177" lon="3.62707">
        <ele>52</ele>
        <time>2015-12-13T11:18:32Z</time>
      </trkpt>
      <trkpt lat="50.76175" lon="3.62704">
        <ele>52</ele>
        <time>2015-12-13T11:18:33Z</time>
      </trkpt>
      <trkpt lat="50.76174" lon="3.62701">
        <ele>52</ele>
        <time>2015-12-13T11:18:34Z</time>
      </trkpt>
      <trkpt lat="50.76173" lon="3.62697">
        <ele>52</ele>
        <time>2015-12-13T11:18:35Z</time>
      </trkpt>
      <trkpt lat="50.76173" lon="3.62693">
        <ele>52</ele>
        <time>2015-12-13T11:18:36Z</time>
      </trkpt>
      <trkpt lat="50.76172" lon="3.62689">
        <ele>52</ele>
        <time>2015-12-13T11:18:37Z</time>
      </trkpt>
      <trkpt lat="50.76172" lon="3.62686">
        <ele>52</ele>
        <time>2015-12-13T11:18:38Z</time>
      </trkpt>
      <trkpt lat="50.76171" lon="3.62683">
        <ele>52</ele>
        <time>2015-12-13T11:18:39Z</time>
      </trkpt>
      <trkpt lat="50.76169" lon="3.62682">
        <ele>52</ele>
        <time>2015-12-13T11:18:40Z</time>
      </trkpt>
      <trkpt lat="50.76167" lon="3.62681">
        <ele>52</ele>
        <time>2015-12-13T11:18:41Z</time>
      </trkpt>
      <trkpt lat="50.76164" lon="3.62681">
        <ele>52</ele>
        <time>2015-12-13T11:18:42Z</time>
      </trkpt>
      <trkpt lat="50.76162" lon="3.6268">
        <ele>52</ele>
        <time>2015-12-13T11:18:43Z</time>
      </trkpt>
      <trkpt lat="50.76159" lon="3.62679">
        <ele>52</ele>
        <time>2015-12-13T11:18:44Z</time>
      </trkpt>
      <trkpt lat="50.76157" lon="3.62678">
        <ele>52</ele>
        <time>2015-12-13T11:18:45Z</time>
      </trkpt>
      <trkpt lat="50.76155" lon="3.62678">
        <ele>52</ele>
        <time>2015-12-13T11:18:46Z</time>
      </trkpt>
      <trkpt lat="50.76153" lon="3.62678">
        <ele>52</ele>
        <time>2015-12-13T11:18:47Z</time>
      </trkpt>
      <trkpt lat="50.76151" lon="3.62677">
        <ele>52</ele>
        <time>2015-12-13T11:18:48Z</time>
      </trkpt>
      <trkpt lat="50.76148" lon="3.62677">
        <ele>52</ele>
        <time>2015-12-13T11:18:49Z</time>
      </trkpt>
      <trkpt lat="50.76146" lon="3.62677">
        <ele>52</ele>
        <time>2015-12-13T11:18:50Z</time>
      </trkpt>
      <trkpt lat="50.76143" lon="3.62676">
        <ele>52</ele>
        <time>2015-12-13T11:18:51Z</time>
      </trkpt>
      <trkpt lat="50.76141" lon="3.62675">
        <ele>52</ele>
        <time>2015-12-13T11:18:52Z</time>
      </trkpt>
      <trkpt lat="50.76139" lon="3.62674">
        <ele>52</ele>
        <time>2015-12-13T11:18:53Z</time>
      </trkpt>
      <trkpt lat="50.76136" lon="3.62673">
        <ele>52</ele>
        <time>2015-12-13T11:18:54Z</time>
      </trkpt>
      <trkpt lat="50.76134" lon="3.62672">
        <ele>52</ele>
        <time>2015-12-13T11:18:55Z</time>
      </trkpt>
      <trkpt lat="50.76132" lon="3.62671">
        <ele>52</ele>
        <time>2015-12-13T11:18:56Z</time>
      </trkpt>
      <trkpt lat="50.76129" lon="3.6267">
        <ele>52</ele>
        <time>2015-12-13T11:18:57Z</time>
      </trkpt>
      <trkpt lat="50.76127" lon="3.62668">
        <ele>52</ele>
        <time>2015-12-13T11:18:58Z</time>
      </trkpt>
      <trkpt lat="50.76125" lon="3.62667">
        <ele>52</ele>
        <time>2015-12-13T11:18:59Z</time>
      </trkpt>
      <trkpt lat="50.76122" lon="3.62666">
        <ele>52</ele>
        <time>2015-12-13T11:19:00Z</time>
      </trkpt>
      <trkpt lat="50.7612" lon="3.62664">
        <ele>51.5</ele>
        <time>2015-12-13T11:19:01Z</time>
      </trkpt>
      <trkpt lat="50.76118" lon="3.62662">
        <ele>51</ele>
        <time>2015-12-13T11:19:02Z</time>
      </trkpt>
      <trkpt lat="50.76116" lon="3.6266">
        <ele>51</ele>
        <time>2015-12-13T11:19:03Z</time>
      </trkpt>
      <trkpt lat="50.76114" lon="3.62659">
        <ele>51</ele>
        <time>2015-12-13T11:19:04Z</time>
      </trkpt>
      <trkpt lat="50.76112" lon="3.62657">
        <ele>51</ele>
        <time>2015-12-13T11:19:05Z</time>
      </trkpt>
      <trkpt lat="50.7611" lon="3.62655">
        <ele>51</ele>
        <time>2015-12-13T11:19:06Z</time>
      </trkpt>
      <trkpt lat="50.76108" lon="3.62653">
        <ele>51</ele>
        <time>2015-12-13T11:19:07Z</time>
      </trkpt>
      <trkpt lat="50.76106" lon="3.62651">
        <ele>51</ele>
        <time>2015-12-13T11:19:08Z</time>
      </trkpt>
      <trkpt lat="50.76104" lon="3.62649">
        <ele>51</ele>
        <time>2015-12-13T11:19:09Z</time>
      </trkpt>
      <trkpt lat="50.76102" lon="3.62647">
        <ele>51</ele>
        <time>2015-12-13T11:19:10Z</time>
      </trkpt>
      <trkpt lat="50.761" lon="3.62646">
        <ele>51</ele>
        <time>2015-12-13T11:19:11Z</time>
      </trkpt>
      <trkpt lat="50.76097" lon="3.62644">
        <ele>51</ele>
        <time>2015-12-13T11:19:12Z</time>
      </trkpt>
      <trkpt lat="50.76095" lon="3.62642">
        <ele>51</ele>
        <time>2015-12-13T11:19:13Z</time>
      </trkpt>
      <trkpt lat="50.76093" lon="3.6264">
        <ele>51</ele>
        <time>2015-12-13T11:19:14Z</time>
      </trkpt>
      <trkpt lat="50.76091" lon="3.62638">
        <ele>51</ele>
        <time>2015-12-13T11:19:15Z</time>
      </trkpt>
      <trkpt lat="50.76089" lon="3.62636">
        <ele>51</ele>
        <time>2015-12-13T11:19:16Z</time>
      </trkpt>
      <trkpt lat="50.76087" lon="3.62634">
        <ele>51</ele>
        <time>2015-12-13T11:19:17Z</time>
      </trkpt>
      <trkpt lat="50.76085" lon="3.62632">
        <ele>51</ele>
        <time>2015-12-13T11:19:18Z</time>
      </trkpt>
      <trkpt lat="50.76083" lon="3.62631">
        <ele>51</ele>
        <time>2015-12-13T11:19:19Z</time>
      </trkpt>
      <trkpt lat="50.76081" lon="3.62629">
        <ele>51</ele>
        <time>2015-12-13T11:19:20Z</time>
      </trkpt>
      <trkpt lat="50.76079" lon="3.62627">
        <ele>50.5</ele>
        <time>2015-12-13T11:19:21Z</time>
      </trkpt>
      <trkpt lat="50.76077" lon="3.62625">
        <ele>50</ele>
        <time>2015-12-13T11:19:22Z</time>
      </trkpt>
      <trkpt lat="50.76075" lon="3.62623">
        <ele>50</ele>
        <time>2015-12-13T11:19:23Z</time>
      </trkpt>
      <trkpt lat="50.76073" lon="3.62621">
        <ele>50</ele>
        <time>2015-12-13T11:19:24Z</time>
      </trkpt>
      <trkpt lat="50.76071" lon="3.62619">
        <ele>50</ele>
        <time>2015-12-13T11:19:25Z</time>
      </trkpt>
      <trkpt lat="50.76068" lon="3.62617">
        <ele>50</ele>
        <time>2015-12-13T11:19:26Z</time>
      </trkpt>
      <trkpt lat="50.76066" lon="3.62615">
        <ele>50</ele>
        <time>2015-12-13T11:19:27Z</time>
      </trkpt>
      <trkpt lat="50.76064" lon="3.62613">
        <ele>50</ele>
        <time>2015-12-13T11:19:28Z</time>
      </trkpt>
      <trkpt lat="50.76062" lon="3.62611">
        <ele>50</ele>
        <time>2015-12-13T11:19:29Z</time>
      </trkpt>
      <trkpt lat="50.7606" lon="3.62609">
        <ele>50</ele>
        <time>2015-12-13T11:19:30Z</time>
      </trkpt>
      <trkpt lat="50.76058" lon="3.62607">
        <ele>49.3</ele>
        <time>2015-12-13T11:19:31Z</time>
      </trkpt>
      <trkpt lat="50.76056" lon="3.62605">
        <ele>49</ele>
        <time>2015-12-13T11:19:32Z</time>
      </trkpt>
      <trkpt lat="50.76054" lon="3.62603">
        <ele>49</ele>
        <time>2015-12-13T11:19:33Z</time>
      </trkpt>
      <trkpt lat="50.76052" lon="3.62601">
        <ele>49</ele>
        <time>2015-12-13T11:19:34Z</time>
      </trkpt>
      <trkpt lat="50.7605" lon="3.62599">
        <ele>49</ele>
        <time>2015-12-13T11:19:35Z</time>
      </trkpt>
      <trkpt lat="50.76048" lon="3.62597">
        <ele>49</ele>
        <time>2015-12-13T11:19:36Z</time>
      </trkpt>
      <trkpt lat="50.76046" lon="3.62595">
        <ele>49</ele>
        <time>2015-12-13T11:19:37Z</time>
      </trkpt>
      <trkpt lat="50.76044" lon="3.62594">
        <ele>49</ele>
        <time>2015-12-13T11:19:38Z</time>
      </trkpt>
      <trkpt lat="50.76041" lon="3.62592">
        <ele>49</ele>
        <time>2015-12-13T11:19:39Z</time>
      </trkpt>
      <trkpt lat="50.76039" lon="3.6259">
        <ele>49</ele>
        <time>2015-12-13T11:19:40Z</time>
      </trkpt>
      <trkpt lat="50.76037" lon="3.62588">
        <ele>48.3</ele>
        <time>2015-12-13T11:19:41Z</time>
      </trkpt>
      <trkpt lat="50.76035" lon="3.62587">
        <ele>48</ele>
        <time>2015-12-13T11:19:42Z</time>
      </trkpt>
      <trkpt lat="50.76033" lon="3.62585">
        <ele>48</ele>
        <time>2015-12-13T11:19:43Z</time>
      </trkpt>
      <trkpt lat="50.76031" lon="3.62585">
        <ele>48</ele>
        <time>2015-12-13T11:19:44Z</time>
      </trkpt>
      <trkpt lat="50.76028" lon="3.62586">
        <ele>48</ele>
        <time>2015-12-13T11:19:46Z</time>
      </trkpt>
      <trkpt lat="50.76026" lon="3.62588">
        <ele>48</ele>
        <time>2015-12-13T11:19:48Z</time>
      </trkpt>
      <trkpt lat="50.76022" lon="3.6259">
        <ele>48</ele>
        <time>2015-12-13T11:19:50Z</time>
      </trkpt>
      <trkpt lat="50.7602" lon="3.62592">
        <ele>48</ele>
        <time>2015-12-13T11:19:52Z</time>
      </trkpt>
      <trkpt lat="50.76016" lon="3.62595">
        <ele>48</ele>
        <time>2015-12-13T11:19:54Z</time>
      </trkpt>
      <trkpt lat="50.76014" lon="3.62596">
        <ele>48</ele>
        <time>2015-12-13T11:19:55Z</time>
      </trkpt>
      <trkpt lat="50.76012" lon="3.62597">
        <ele>48</ele>
        <time>2015-12-13T11:19:56Z</time>
      </trkpt>
      <trkpt lat="50.7601" lon="3.62598">
        <ele>48</ele>
        <time>2015-12-13T11:19:57Z</time>
      </trkpt>
      <trkpt lat="50.76008" lon="3.62599">
        <ele>48</ele>
        <time>2015-12-13T11:19:58Z</time>
      </trkpt>
      <trkpt lat="50.76006" lon="3.626">
        <ele>48</ele>
        <time>2015-12-13T11:19:59Z</time>
      </trkpt>
      <trkpt lat="50.76004" lon="3.626">
        <ele>47</ele>
        <time>2015-12-13T11:20:03Z</time>
      </trkpt>
      <trkpt lat="50.76002" lon="3.626">
        <ele>47</ele>
        <time>2015-12-13T11:20:04Z</time>
      </trkpt>
      <trkpt lat="50.75999" lon="3.626">
        <ele>47</ele>
        <time>2015-12-13T11:20:05Z</time>
      </trkpt>
      <trkpt lat="50.75997" lon="3.62601">
        <ele>47</ele>
        <time>2015-12-13T11:20:06Z</time>
      </trkpt>
      <trkpt lat="50.75994" lon="3.62601">
        <ele>47</ele>
        <time>2015-12-13T11:20:07Z</time>
      </trkpt>
      <trkpt lat="50.75992" lon="3.62601">
        <ele>47</ele>
        <time>2015-12-13T11:20:08Z</time>
      </trkpt>
      <trkpt lat="50.75989" lon="3.62601">
        <ele>47</ele>
        <time>2015-12-13T11:20:09Z</time>
      </trkpt>
      <trkpt lat="50.75986" lon="3.62601">
        <ele>47</ele>
        <time>2015-12-13T11:20:10Z</time>
      </trkpt>
      <trkpt lat="50.75984" lon="3.62601">
        <ele>47</ele>
        <time>2015-12-13T11:20:11Z</time>
      </trkpt>
      <trkpt lat="50.75981" lon="3.626">
        <ele>47</ele>
        <time>2015-12-13T11:20:12Z</time>
      </trkpt>
      <trkpt lat="50.75979" lon="3.626">
        <ele>47</ele>
        <time>2015-12-13T11:20:13Z</time>
      </trkpt>
      <trkpt lat="50.75976" lon="3.626">
        <ele>47</ele>
        <time>2015-12-13T11:20:14Z</time>
      </trkpt>
      <trkpt lat="50.75973" lon="3.62599">
        <ele>47</ele>
        <time>2015-12-13T11:20:15Z</time>
      </trkpt>
      <trkpt lat="50.75971" lon="3.62599">
        <ele>47</ele>
        <time>2015-12-13T11:20:16Z</time>
      </trkpt>
      <trkpt lat="50.75968" lon="3.62599">
        <ele>47</ele>
        <time>2015-12-13T11:20:17Z</time>
      </trkpt>
      <trkpt lat="50.75966" lon="3.62598">
        <ele>47</ele>
        <time>2015-12-13T11:20:18Z</time>
      </trkpt>
      <trkpt lat="50.75964" lon="3.62597">
        <ele>47</ele>
        <time>2015-12-13T11:20:19Z</time>
      </trkpt>
      <trkpt lat="50.75961" lon="3.62596">
        <ele>47</ele>
        <time>2015-12-13T11:20:20Z</time>
      </trkpt>
      <trkpt lat="50.75959" lon="3.62596">
        <ele>46.3</ele>
        <time>2015-12-13T11:20:21Z</time>
      </trkpt>
      <trkpt lat="50.75956" lon="3.62595">
        <ele>46</ele>
        <time>2015-12-13T11:20:22Z</time>
      </trkpt>
      <trkpt lat="50.75953" lon="3.62594">
        <ele>46</ele>
        <time>2015-12-13T11:20:23Z</time>
      </trkpt>
      <trkpt lat="50.75951" lon="3.62594">
        <ele>46</ele>
        <time>2015-12-13T11:20:24Z</time>
      </trkpt>
      <trkpt lat="50.75948" lon="3.62593">
        <ele>46</ele>
        <time>2015-12-13T11:20:25Z</time>
      </trkpt>
      <trkpt lat="50.75946" lon="3.62593">
        <ele>46</ele>
        <time>2015-12-13T11:20:26Z</time>
      </trkpt>
      <trkpt lat="50.75944" lon="3.62592">
        <ele>46</ele>
        <time>2015-12-13T11:20:27Z</time>
      </trkpt>
      <trkpt lat="50.75941" lon="3.62592">
        <ele>46</ele>
        <time>2015-12-13T11:20:28Z</time>
      </trkpt>
      <trkpt lat="50.75939" lon="3.62592">
        <ele>46</ele>
        <time>2015-12-13T11:20:29Z</time>
      </trkpt>
      <trkpt lat="50.75937" lon="3.62592">
        <ele>46</ele>
        <time>2015-12-13T11:20:30Z</time>
      </trkpt>
      <trkpt lat="50.75934" lon="3.62592">
        <ele>45.5</ele>
        <time>2015-12-13T11:20:31Z</time>
      </trkpt>
      <trkpt lat="50.75932" lon="3.62592">
        <ele>45</ele>
        <time>2015-12-13T11:20:32Z</time>
      </trkpt>
      <trkpt lat="50.7593" lon="3.62593">
        <ele>45</ele>
        <time>2015-12-13T11:20:33Z</time>
      </trkpt>
      <trkpt lat="50.75927" lon="3.62594">
        <ele>45</ele>
        <time>2015-12-13T11:20:34Z</time>
      </trkpt>
      <trkpt lat="50.75925" lon="3.62595">
        <ele>45</ele>
        <time>2015-12-13T11:20:35Z</time>
      </trkpt>
      <trkpt lat="50.75923" lon="3.62597">
        <ele>45</ele>
        <time>2015-12-13T11:20:36Z</time>
      </trkpt>
      <trkpt lat="50.7592" lon="3.62598">
        <ele>45</ele>
        <time>2015-12-13T11:20:37Z</time>
      </trkpt>
      <trkpt lat="50.75918" lon="3.62599">
        <ele>45</ele>
        <time>2015-12-13T11:20:38Z</time>
      </trkpt>
      <trkpt lat="50.75916" lon="3.626">
        <ele>45</ele>
        <time>2015-12-13T11:20:39Z</time>
      </trkpt>
      <trkpt lat="50.75914" lon="3.62601">
        <ele>45</ele>
        <time>2015-12-13T11:20:40Z</time>
      </trkpt>
      <trkpt lat="50.75912" lon="3.62602">
        <ele>45</ele>
        <time>2015-12-13T11:20:41Z</time>
      </trkpt>
      <trkpt lat="50.7591" lon="3.62603">
        <ele>45</ele>
        <time>2015-12-13T11:20:42Z</time>
      </trkpt>
      <trkpt lat="50.75907" lon="3.62605">
        <ele>45</ele>
        <time>2015-12-13T11:20:43Z</time>
      </trkpt>
      <trkpt lat="50.75905" lon="3.62606">
        <ele>45</ele>
        <time>2015-12-13T11:20:44Z</time>
      </trkpt>
      <trkpt lat="50.75903" lon="3.62607">
        <ele>45</ele>
        <time>2015-12-13T11:20:45Z</time>
      </trkpt>
      <trkpt lat="50.75901" lon="3.62607">
        <ele>45</ele>
        <time>2015-12-13T11:20:46Z</time>
      </trkpt>
      <trkpt lat="50.75899" lon="3.62608">
        <ele>45</ele>
        <time>2015-12-13T11:20:47Z</time>
      </trkpt>
      <trkpt lat="50.75897" lon="3.62609">
        <ele>45</ele>
        <time>2015-12-13T11:20:48Z</time>
      </trkpt>
      <trkpt lat="50.75894" lon="3.6261">
        <ele>45</ele>
        <time>2015-12-13T11:20:50Z</time>
      </trkpt>
      <trkpt lat="50.75892" lon="3.62612">
        <ele>45</ele>
        <time>2015-12-13T11:20:52Z</time>
      </trkpt>
      <trkpt lat="50.7589" lon="3.62614">
        <ele>45</ele>
        <time>2015-12-13T11:20:54Z</time>
      </trkpt>
      <trkpt lat="50.75888" lon="3.62617">
        <ele>45</ele>
        <time>2015-12-13T11:20:56Z</time>
      </trkpt>
      <trkpt lat="50.75887" lon="3.62619">
        <ele>45</ele>
        <time>2015-12-13T11:20:58Z</time>
      </trkpt>
      <trkpt lat="50.75886" lon="3.62622">
        <ele>45</ele>
        <time>2015-12-13T11:21:00Z</time>
      </trkpt>
      <trkpt lat="50.75887" lon="3.62625">
        <ele>44.3</ele>
        <time>2015-12-13T11:21:06Z</time>
      </trkpt>
      <trkpt lat="50.75888" lon="3.62629">
        <ele>44</ele>
        <time>2015-12-13T11:21:09Z</time>
      </trkpt>
      <trkpt lat="50.75889" lon="3.62633">
        <ele>44</ele>
        <time>2015-12-13T11:21:11Z</time>
      </trkpt>
      <trkpt lat="50.7589" lon="3.62637">
        <ele>44</ele>
        <time>2015-12-13T11:21:13Z</time>
      </trkpt>
      <trkpt lat="50.75891" lon="3.6264">
        <ele>44</ele>
        <time>2015-12-13T11:21:15Z</time>
      </trkpt>
      <trkpt lat="50.75893" lon="3.62644">
        <ele>44</ele>
        <time>2015-12-13T11:21:17Z</time>
      </trkpt>
      <trkpt lat="50.75893" lon="3.62648">
        <ele>44</ele>
        <time>2015-12-13T11:21:19Z</time>
      </trkpt>
      <trkpt lat="50.75894" lon="3.62652">
        <ele>45.4</ele>
        <time>2015-12-13T11:21:21Z</time>
      </trkpt>
      <trkpt lat="50.75894" lon="3.62655">
        <ele>46</ele>
        <time>2015-12-13T11:21:23Z</time>
      </trkpt>
      <trkpt lat="50.75895" lon="3.62659">
        <ele>46</ele>
        <time>2015-12-13T11:21:25Z</time>
      </trkpt>
      <trkpt lat="50.75897" lon="3.62663">
        <ele>46</ele>
        <time>2015-12-13T11:21:27Z</time>
      </trkpt>
      <trkpt lat="50.75898" lon="3.62667">
        <ele>46</ele>
        <time>2015-12-13T11:21:29Z</time>
      </trkpt>
      <trkpt lat="50.75899" lon="3.6267">
        <ele>46.7</ele>
        <time>2015-12-13T11:21:31Z</time>
      </trkpt>
      <trkpt lat="50.759" lon="3.62674">
        <ele>47</ele>
        <time>2015-12-13T11:21:33Z</time>
      </trkpt>
      <trkpt lat="50.75901" lon="3.62678">
        <ele>46.3</ele>
        <time>2015-12-13T11:21:35Z</time>
      </trkpt>
      <trkpt lat="50.75903" lon="3.62682">
        <ele>46</ele>
        <time>2015-12-13T11:21:37Z</time>
      </trkpt>
      <trkpt lat="50.75904" lon="3.62686">
        <ele>46</ele>
        <time>2015-12-13T11:21:39Z</time>
      </trkpt>
      <trkpt lat="50.75905" lon="3.62691">
        <ele>46</ele>
        <time>2015-12-13T11:21:41Z</time>
      </trkpt>
      <trkpt lat="50.75906" lon="3.62695">
        <ele>46</ele>
        <time>2015-12-13T11:21:43Z</time>
      </trkpt>
      <trkpt lat="50.75908" lon="3.62699">
        <ele>46</ele>
        <time>2015-12-13T11:21:45Z</time>
      </trkpt>
      <trkpt lat="50.75909" lon="3.62703">
        <ele>46</ele>
        <time>2015-12-13T11:21:47Z</time>
      </trkpt>
      <trkpt lat="50.7591" lon="3.62707">
        <ele>46</ele>
        <time>2015-12-13T11:21:49Z</time>
      </trkpt>
      <trkpt lat="50.75911" lon="3.62711">
        <ele>46.7</ele>
        <time>2015-12-13T11:21:51Z</time>
      </trkpt>
      <trkpt lat="50.75912" lon="3.62716">
        <ele>47</ele>
        <time>2015-12-13T11:21:53Z</time>
      </trkpt>
      <trkpt lat="50.75914" lon="3.6272">
        <ele>47</ele>
        <time>2015-12-13T11:21:55Z</time>
      </trkpt>
      <trkpt lat="50.75916" lon="3.62724">
        <ele>47</ele>
        <time>2015-12-13T11:21:57Z</time>
      </trkpt>
      <trkpt lat="50.75917" lon="3.62728">
        <ele>47</ele>
        <time>2015-12-13T11:21:59Z</time>
      </trkpt>
      <trkpt lat="50.75918" lon="3.62731">
        <ele>47.7</ele>
        <time>2015-12-13T11:22:01Z</time>
      </trkpt>
      <trkpt lat="50.75919" lon="3.62735">
        <ele>48</ele>
        <time>2015-12-13T11:22:03Z</time>
      </trkpt>
      <trkpt lat="50.7592" lon="3.62739">
        <ele>48</ele>
        <time>2015-12-13T11:22:05Z</time>
      </trkpt>
      <trkpt lat="50.75921" lon="3.62742">
        <ele>48</ele>
        <time>2015-12-13T11:22:07Z</time>
      </trkpt>
      <trkpt lat="50.75923" lon="3.62745">
        <ele>48</ele>
        <time>2015-12-13T11:22:09Z</time>
      </trkpt>
      <trkpt lat="50.75924" lon="3.62749">
        <ele>48</ele>
        <time>2015-12-13T11:22:11Z</time>
      </trkpt>
      <trkpt lat="50.75924" lon="3.62752">
        <ele>48</ele>
        <time>2015-12-13T11:22:13Z</time>
      </trkpt>
      <trkpt lat="50.75925" lon="3.62756">
        <ele>48</ele>
        <time>2015-12-13T11:22:15Z</time>
      </trkpt>
      <trkpt lat="50.75926" lon="3.6276">
        <ele>48</ele>
        <time>2015-12-13T11:22:17Z</time>
      </trkpt>
      <trkpt lat="50.75927" lon="3.62764">
        <ele>48</ele>
        <time>2015-12-13T11:22:19Z</time>
      </trkpt>
      <trkpt lat="50.75927" lon="3.62767">
        <ele>49.4</ele>
        <time>2015-12-13T11:22:21Z</time>
      </trkpt>
      <trkpt lat="50.75929" lon="3.6277">
        <ele>50</ele>
        <time>2015-12-13T11:22:23Z</time>
      </trkpt>
      <trkpt lat="50.75929" lon="3.62774">
        <ele>50</ele>
        <time>2015-12-13T11:22:25Z</time>
      </trkpt>
      <trkpt lat="50.7593" lon="3.62778">
        <ele>50</ele>
        <time>2015-12-13T11:22:27Z</time>
      </trkpt>
      <trkpt lat="50.75931" lon="3.62781">
        <ele>50</ele>
        <time>2015-12-13T11:22:29Z</time>
      </trkpt>
      <trkpt lat="50.75932" lon="3.62785">
        <ele>50</ele>
        <time>2015-12-13T11:22:31Z</time>
      </trkpt>
      <trkpt lat="50.75933" lon="3.62789">
        <ele>50</ele>
        <time>2015-12-13T11:22:33Z</time>
      </trkpt>
      <trkpt lat="50.75934" lon="3.62793">
        <ele>50</ele>
        <time>2015-12-13T11:22:35Z</time>
      </trkpt>
      <trkpt lat="50.75934" lon="3.62797">
        <ele>50</ele>
        <time>2015-12-13T11:22:37Z</time>
      </trkpt>
      <trkpt lat="50.75936" lon="3.62801">
        <ele>50</ele>
        <time>2015-12-13T11:22:39Z</time>
      </trkpt>
      <trkpt lat="50.75937" lon="3.62805">
        <ele>50.7</ele>
        <time>2015-12-13T11:22:41Z</time>
      </trkpt>
      <trkpt lat="50.75938" lon="3.62809">
        <ele>51</ele>
        <time>2015-12-13T11:22:43Z</time>
      </trkpt>
      <trkpt lat="50.75939" lon="3.62813">
        <ele>51</ele>
        <time>2015-12-13T11:22:45Z</time>
      </trkpt>
      <trkpt lat="50.7594" lon="3.62817">
        <ele>51</ele>
        <time>2015-12-13T11:22:47Z</time>
      </trkpt>
      <trkpt lat="50.75941" lon="3.62821">
        <ele>51</ele>
        <time>2015-12-13T11:22:49Z</time>
      </trkpt>
      <trkpt lat="50.75942" lon="3.62825">
        <ele>51.7</ele>
        <time>2015-12-13T11:22:51Z</time>
      </trkpt>
      <trkpt lat="50.75943" lon="3.62828">
        <ele>52</ele>
        <time>2015-12-13T11:22:53Z</time>
      </trkpt>
      <trkpt lat="50.75945" lon="3.62832">
        <ele>52</ele>
        <time>2015-12-13T11:22:55Z</time>
      </trkpt>
      <trkpt lat="50.75946" lon="3.62835">
        <ele>52</ele>
        <time>2015-12-13T11:22:57Z</time>
      </trkpt>
      <trkpt lat="50.75947" lon="3.62839">
        <ele>52</ele>
        <time>2015-12-13T11:22:59Z</time>
      </trkpt>
      <trkpt lat="50.75948" lon="3.62843">
        <ele>52.7</ele>
        <time>2015-12-13T11:23:01Z</time>
      </trkpt>
      <trkpt lat="50.7595" lon="3.62846">
        <ele>53</ele>
        <time>2015-12-13T11:23:03Z</time>
      </trkpt>
      <trkpt lat="50.75951" lon="3.6285">
        <ele>53</ele>
        <time>2015-12-13T11:23:05Z</time>
      </trkpt>
      <trkpt lat="50.75952" lon="3.62853">
        <ele>53</ele>
        <time>2015-12-13T11:23:07Z</time>
      </trkpt>
      <trkpt lat="50.75953" lon="3.62857">
        <ele>53</ele>
        <time>2015-12-13T11:23:09Z</time>
      </trkpt>
      <trkpt lat="50.75955" lon="3.6286">
        <ele>53.7</ele>
        <time>2015-12-13T11:23:11Z</time>
      </trkpt>
      <trkpt lat="50.75956" lon="3.62862">
        <ele>54</ele>
        <time>2015-12-13T11:23:13Z</time>
      </trkpt>
      <trkpt lat="50.75957" lon="3.62865">
        <ele>54</ele>
        <time>2015-12-13T11:23:15Z</time>
      </trkpt>
      <trkpt lat="50.75959" lon="3.62868">
        <ele>54</ele>
        <time>2015-12-13T11:23:17Z</time>
      </trkpt>
      <trkpt lat="50.7596" lon="3.62871">
        <ele>54</ele>
        <time>2015-12-13T11:23:19Z</time>
      </trkpt>
      <trkpt lat="50.75961" lon="3.62874">
        <ele>55</ele>
        <time>2015-12-13T11:23:21Z</time>
      </trkpt>
      <trkpt lat="50.75962" lon="3.62877">
        <ele>56</ele>
        <time>2015-12-13T11:23:23Z</time>
      </trkpt>
      <trkpt lat="50.75964" lon="3.62881">
        <ele>56</ele>
        <time>2015-12-13T11:23:25Z</time>
      </trkpt>
      <trkpt lat="50.75965" lon="3.62884">
        <ele>56</ele>
        <time>2015-12-13T11:23:27Z</time>
      </trkpt>
      <trkpt lat="50.75966" lon="3.62887">
        <ele>56</ele>
        <time>2015-12-13T11:23:29Z</time>
      </trkpt>
      <trkpt lat="50.75968" lon="3.62891">
        <ele>56</ele>
        <time>2015-12-13T11:23:31Z</time>
      </trkpt>
      <trkpt lat="50.75969" lon="3.62895">
        <ele>56</ele>
        <time>2015-12-13T11:23:33Z</time>
      </trkpt>
      <trkpt lat="50.7597" lon="3.62899">
        <ele>56</ele>
        <time>2015-12-13T11:23:35Z</time>
      </trkpt>
      <trkpt lat="50.75971" lon="3.62902">
        <ele>56</ele>
        <time>2015-12-13T11:23:37Z</time>
      </trkpt>
      <trkpt lat="50.75972" lon="3.62904">
        <ele>56</ele>
        <time>2015-12-13T11:23:39Z</time>
      </trkpt>
      <trkpt lat="50.75973" lon="3.62907">
        <ele>56.5</ele>
        <time>2015-12-13T11:23:41Z</time>
      </trkpt>
      <trkpt lat="50.75974" lon="3.62911">
        <ele>57</ele>
        <time>2015-12-13T11:23:43Z</time>
      </trkpt>
      <trkpt lat="50.75976" lon="3.62914">
        <ele>57</ele>
        <time>2015-12-13T11:23:45Z</time>
      </trkpt>
      <trkpt lat="50.75977" lon="3.62916">
        <ele>57</ele>
        <time>2015-12-13T11:23:47Z</time>
      </trkpt>
      <trkpt lat="50.75979" lon="3.62919">
        <ele>57</ele>
        <time>2015-12-13T11:23:49Z</time>
      </trkpt>
      <trkpt lat="50.75981" lon="3.62921">
        <ele>57.7</ele>
        <time>2015-12-13T11:23:51Z</time>
      </trkpt>
      <trkpt lat="50.75983" lon="3.62923">
        <ele>58</ele>
        <time>2015-12-13T11:23:53Z</time>
      </trkpt>
      <trkpt lat="50.75985" lon="3.62925">
        <ele>58</ele>
        <time>2015-12-13T11:23:55Z</time>
      </trkpt>
      <trkpt lat="50.75987" lon="3.62927">
        <ele>58</ele>
        <time>2015-12-13T11:23:57Z</time>
      </trkpt>
      <trkpt lat="50.75989" lon="3.62929">
        <ele>58</ele>
        <time>2015-12-13T11:23:59Z</time>
      </trkpt>
      <trkpt lat="50.75991" lon="3.6293">
        <ele>58.7</ele>
        <time>2015-12-13T11:24:01Z</time>
      </trkpt>
      <trkpt lat="50.75993" lon="3.62932">
        <ele>59</ele>
        <time>2015-12-13T11:24:03Z</time>
      </trkpt>
      <trkpt lat="50.75995" lon="3.62933">
        <ele>59</ele>
        <time>2015-12-13T11:24:05Z</time>
      </trkpt>
      <trkpt lat="50.75997" lon="3.62934">
        <ele>59</ele>
        <time>2015-12-13T11:24:07Z</time>
      </trkpt>
      <trkpt lat="50.76" lon="3.62936">
        <ele>59</ele>
        <time>2015-12-13T11:24:09Z</time>
      </trkpt>
      <trkpt lat="50.76002" lon="3.62936">
        <ele>60.4</ele>
        <time>2015-12-13T11:24:11Z</time>
      </trkpt>
      <trkpt lat="50.76004" lon="3.62938">
        <ele>60</ele>
        <time>2015-12-13T11:24:13Z</time>
      </trkpt>
      <trkpt lat="50.76006" lon="3.6294">
        <ele>60</ele>
        <time>2015-12-13T11:24:15Z</time>
      </trkpt>
      <trkpt lat="50.76008" lon="3.62942">
        <ele>60</ele>
        <time>2015-12-13T11:24:17Z</time>
      </trkpt>
      <trkpt lat="50.7601" lon="3.62944">
        <ele>60</ele>
        <time>2015-12-13T11:24:19Z</time>
      </trkpt>
      <trkpt lat="50.76012" lon="3.62947">
        <ele>61.4</ele>
        <time>2015-12-13T11:24:21Z</time>
      </trkpt>
      <trkpt lat="50.76014" lon="3.6295">
        <ele>62</ele>
        <time>2015-12-13T11:24:23Z</time>
      </trkpt>
      <trkpt lat="50.76015" lon="3.62953">
        <ele>62</ele>
        <time>2015-12-13T11:24:25Z</time>
      </trkpt>
      <trkpt lat="50.76017" lon="3.62957">
        <ele>62</ele>
        <time>2015-12-13T11:24:27Z</time>
      </trkpt>
      <trkpt lat="50.76017" lon="3.6296">
        <ele>62</ele>
        <time>2015-12-13T11:24:29Z</time>
      </trkpt>
      <trkpt lat="50.76018" lon="3.62964">
        <ele>62.7</ele>
        <time>2015-12-13T11:24:31Z</time>
      </trkpt>
      <trkpt lat="50.76019" lon="3.62967">
        <ele>63</ele>
        <time>2015-12-13T11:24:33Z</time>
      </trkpt>
      <trkpt lat="50.7602" lon="3.6297">
        <ele>62</ele>
        <time>2015-12-13T11:24:36Z</time>
      </trkpt>
      <trkpt lat="50.76019" lon="3.62974">
        <ele>62</ele>
        <time>2015-12-13T11:24:39Z</time>
      </trkpt>
      <trkpt lat="50.76019" lon="3.62977">
        <ele>63.4</ele>
        <time>2015-12-13T11:24:41Z</time>
      </trkpt>
      <trkpt lat="50.7602" lon="3.62981">
        <ele>64</ele>
        <time>2015-12-13T11:24:43Z</time>
      </trkpt>
      <trkpt lat="50.7602" lon="3.62986">
        <ele>64</ele>
        <time>2015-12-13T11:24:45Z</time>
      </trkpt>
      <trkpt lat="50.7602" lon="3.62991">
        <ele>64</ele>
        <time>2015-12-13T11:24:47Z</time>
      </trkpt>
      <trkpt lat="50.7602" lon="3.62995">
        <ele>64</ele>
        <time>2015-12-13T11:24:49Z</time>
      </trkpt>
      <trkpt lat="50.7602" lon="3.62999">
        <ele>64</ele>
        <time>2015-12-13T11:24:51Z</time>
      </trkpt>
      <trkpt lat="50.76021" lon="3.63003">
        <ele>64</ele>
        <time>2015-12-13T11:24:53Z</time>
      </trkpt>
      <trkpt lat="50.76021" lon="3.63006">
        <ele>64</ele>
        <time>2015-12-13T11:24:55Z</time>
      </trkpt>
      <trkpt lat="50.76021" lon="3.6301">
        <ele>64</ele>
        <time>2015-12-13T11:24:57Z</time>
      </trkpt>
      <trkpt lat="50.76018" lon="3.63005">
        <ele>62</ele>
        <time>2015-12-13T11:27:46Z</time>
      </trkpt>
      <trkpt lat="50.76019" lon="3.63009">
        <ele>61</ele>
        <time>2015-12-13T11:32:04Z</time>
      </trkpt>
      <trkpt lat="50.76019" lon="3.63012">
        <ele>61</ele>
        <time>2015-12-13T11:32:06Z</time>
      </trkpt>
      <trkpt lat="50.76017" lon="3.63016">
        <ele>61</ele>
        <time>2015-12-13T11:32:09Z</time>
      </trkpt>
      <trkpt lat="50.76016" lon="3.63018">
        <ele>61</ele>
        <time>2015-12-13T11:32:11Z</time>
      </trkpt>
      <trkpt lat="50.76014" lon="3.63019">
        <ele>61</ele>
        <time>2015-12-13T11:32:13Z</time>
      </trkpt>
      <trkpt lat="50.76011" lon="3.63021">
        <ele>61</ele>
        <time>2015-12-13T11:32:15Z</time>
      </trkpt>
      <trkpt lat="50.7601" lon="3.63022">
        <ele>61</ele>
        <time>2015-12-13T11:32:16Z</time>
      </trkpt>
      <trkpt lat="50.76006" lon="3.63023">
        <ele>61</ele>
        <time>2015-12-13T11:32:18Z</time>
      </trkpt>
      <trkpt lat="50.76003" lon="3.63024">
        <ele>61</ele>
        <time>2015-12-13T11:32:20Z</time>
      </trkpt>
      <trkpt lat="50.75999" lon="3.63026">
        <ele>63</ele>
        <time>2015-12-13T11:32:22Z</time>
      </trkpt>
      <trkpt lat="50.75997" lon="3.63026">
        <ele>63</ele>
        <time>2015-12-13T11:32:23Z</time>
      </trkpt>
      <trkpt lat="50.75995" lon="3.63027">
        <ele>63</ele>
        <time>2015-12-13T11:32:24Z</time>
      </trkpt>
      <trkpt lat="50.75993" lon="3.63028">
        <ele>63</ele>
        <time>2015-12-13T11:32:25Z</time>
      </trkpt>
      <trkpt lat="50.7599" lon="3.63029">
        <ele>63</ele>
        <time>2015-12-13T11:32:27Z</time>
      </trkpt>
      <trkpt lat="50.75988" lon="3.63031">
        <ele>63</ele>
        <time>2015-12-13T11:32:29Z</time>
      </trkpt>
      <trkpt lat="50.75984" lon="3.63032">
        <ele>63</ele>
        <time>2015-12-13T11:32:31Z</time>
      </trkpt>
      <trkpt lat="50.75982" lon="3.63033">
        <ele>63</ele>
        <time>2015-12-13T11:32:32Z</time>
      </trkpt>
      <trkpt lat="50.75979" lon="3.63035">
        <ele>63</ele>
        <time>2015-12-13T11:32:34Z</time>
      </trkpt>
      <trkpt lat="50.75976" lon="3.63036">
        <ele>63</ele>
        <time>2015-12-13T11:32:36Z</time>
      </trkpt>
      <trkpt lat="50.75974" lon="3.63038">
        <ele>63</ele>
        <time>2015-12-13T11:32:38Z</time>
      </trkpt>
      <trkpt lat="50.75971" lon="3.63039">
        <ele>63</ele>
        <time>2015-12-13T11:32:40Z</time>
      </trkpt>
      <trkpt lat="50.75968" lon="3.63041">
        <ele>62</ele>
        <time>2015-12-13T11:32:42Z</time>
      </trkpt>
      <trkpt lat="50.75967" lon="3.63042">
        <ele>62</ele>
        <time>2015-12-13T11:32:43Z</time>
      </trkpt>
      <trkpt lat="50.75965" lon="3.63045">
        <ele>62</ele>
        <time>2015-12-13T11:32:44Z</time>
      </trkpt>
      <trkpt lat="50.75964" lon="3.63049">
        <ele>62</ele>
        <time>2015-12-13T11:32:46Z</time>
      </trkpt>
      <trkpt lat="50.75963" lon="3.63052">
        <ele>62</ele>
        <time>2015-12-13T11:32:48Z</time>
      </trkpt>
      <trkpt lat="50.75963" lon="3.63056">
        <ele>62</ele>
        <time>2015-12-13T11:32:50Z</time>
      </trkpt>
      <trkpt lat="50.75964" lon="3.6306">
        <ele>62</ele>
        <time>2015-12-13T11:32:52Z</time>
      </trkpt>
      <trkpt lat="50.75964" lon="3.63063">
        <ele>62</ele>
        <time>2015-12-13T11:32:53Z</time>
      </trkpt>
      <trkpt lat="50.75965" lon="3.63068">
        <ele>62</ele>
        <time>2015-12-13T11:32:55Z</time>
      </trkpt>
      <trkpt lat="50.75966" lon="3.63071">
        <ele>62</ele>
        <time>2015-12-13T11:32:56Z</time>
      </trkpt>
      <trkpt lat="50.75966" lon="3.63075">
        <ele>62</ele>
        <time>2015-12-13T11:32:57Z</time>
      </trkpt>
      <trkpt lat="50.75966" lon="3.63078">
        <ele>62</ele>
        <time>2015-12-13T11:32:58Z</time>
      </trkpt>
      <trkpt lat="50.75966" lon="3.63081">
        <ele>62</ele>
        <time>2015-12-13T11:32:59Z</time>
      </trkpt>
      <trkpt lat="50.75966" lon="3.63084">
        <ele>62</ele>
        <time>2015-12-13T11:33:00Z</time>
      </trkpt>
      <trkpt lat="50.75966" lon="3.63087">
        <ele>62</ele>
        <time>2015-12-13T11:33:01Z</time>
      </trkpt>
      <trkpt lat="50.75966" lon="3.6309">
        <ele>62</ele>
        <time>2015-12-13T11:33:02Z</time>
      </trkpt>
      <trkpt lat="50.75967" lon="3.63093">
        <ele>62</ele>
        <time>2015-12-13T11:33:03Z</time>
      </trkpt>
      <trkpt lat="50.75967" lon="3.63097">
        <ele>62</ele>
        <time>2015-12-13T11:33:04Z</time>
      </trkpt>
      <trkpt lat="50.75968" lon="3.63101">
        <ele>62</ele>
        <time>2015-12-13T11:33:06Z</time>
      </trkpt>
      <trkpt lat="50.75968" lon="3.63106">
        <ele>62</ele>
        <time>2015-12-13T11:33:08Z</time>
      </trkpt>
      <trkpt lat="50.75968" lon="3.63109">
        <ele>62</ele>
        <time>2015-12-13T11:33:09Z</time>
      </trkpt>
      <trkpt lat="50.75969" lon="3.63112">
        <ele>62</ele>
        <time>2015-12-13T11:33:10Z</time>
      </trkpt>
      <trkpt lat="50.75969" lon="3.63116">
        <ele>62.5</ele>
        <time>2015-12-13T11:33:11Z</time>
      </trkpt>
      <trkpt lat="50.7597" lon="3.6312">
        <ele>63</ele>
        <time>2015-12-13T11:33:12Z</time>
      </trkpt>
      <trkpt lat="50.7597" lon="3.63123">
        <ele>63</ele>
        <time>2015-12-13T11:33:13Z</time>
      </trkpt>
      <trkpt lat="50.7597" lon="3.63126">
        <ele>63</ele>
        <time>2015-12-13T11:33:14Z</time>
      </trkpt>
      <trkpt lat="50.75969" lon="3.6313">
        <ele>63</ele>
        <time>2015-12-13T11:33:15Z</time>
      </trkpt>
      <trkpt lat="50.75968" lon="3.63132">
        <ele>63</ele>
        <time>2015-12-13T11:33:16Z</time>
      </trkpt>
      <trkpt lat="50.75965" lon="3.63133">
        <ele>63</ele>
        <time>2015-12-13T11:33:17Z</time>
      </trkpt>
      <trkpt lat="50.75963" lon="3.63134">
        <ele>63</ele>
        <time>2015-12-13T11:33:18Z</time>
      </trkpt>
      <trkpt lat="50.7596" lon="3.63135">
        <ele>63</ele>
        <time>2015-12-13T11:33:19Z</time>
      </trkpt>
      <trkpt lat="50.75958" lon="3.63136">
        <ele>63</ele>
        <time>2015-12-13T11:33:20Z</time>
      </trkpt>
      <trkpt lat="50.75956" lon="3.63137">
        <ele>63</ele>
        <time>2015-12-13T11:33:21Z</time>
      </trkpt>
      <trkpt lat="50.75953" lon="3.63138">
        <ele>63</ele>
        <time>2015-12-13T11:33:22Z</time>
      </trkpt>
      <trkpt lat="50.75951" lon="3.63139">
        <ele>63</ele>
        <time>2015-12-13T11:33:23Z</time>
      </trkpt>
      <trkpt lat="50.75948" lon="3.6314">
        <ele>63</ele>
        <time>2015-12-13T11:33:24Z</time>
      </trkpt>
      <trkpt lat="50.75946" lon="3.63141">
        <ele>63</ele>
        <time>2015-12-13T11:33:25Z</time>
      </trkpt>
      <trkpt lat="50.75943" lon="3.63142">
        <ele>63</ele>
        <time>2015-12-13T11:33:26Z</time>
      </trkpt>
      <trkpt lat="50.75941" lon="3.63143">
        <ele>63</ele>
        <time>2015-12-13T11:33:27Z</time>
      </trkpt>
      <trkpt lat="50.75939" lon="3.63144">
        <ele>63</ele>
        <time>2015-12-13T11:33:28Z</time>
      </trkpt>
      <trkpt lat="50.75936" lon="3.63145">
        <ele>63</ele>
        <time>2015-12-13T11:33:29Z</time>
      </trkpt>
      <trkpt lat="50.75934" lon="3.63146">
        <ele>63</ele>
        <time>2015-12-13T11:33:30Z</time>
      </trkpt>
      <trkpt lat="50.75932" lon="3.63146">
        <ele>63</ele>
        <time>2015-12-13T11:33:31Z</time>
      </trkpt>
      <trkpt lat="50.75929" lon="3.63147">
        <ele>61.7</ele>
        <time>2015-12-13T11:33:32Z</time>
      </trkpt>
      <trkpt lat="50.75927" lon="3.63148">
        <ele>61</ele>
        <time>2015-12-13T11:33:33Z</time>
      </trkpt>
      <trkpt lat="50.75925" lon="3.63149">
        <ele>61</ele>
        <time>2015-12-13T11:33:34Z</time>
      </trkpt>
      <trkpt lat="50.75923" lon="3.6315">
        <ele>61</ele>
        <time>2015-12-13T11:33:35Z</time>
      </trkpt>
      <trkpt lat="50.75921" lon="3.63151">
        <ele>59.7</ele>
        <time>2015-12-13T11:33:36Z</time>
      </trkpt>
      <trkpt lat="50.75918" lon="3.63151">
        <ele>59</ele>
        <time>2015-12-13T11:33:37Z</time>
      </trkpt>
      <trkpt lat="50.75916" lon="3.63152">
        <ele>59</ele>
        <time>2015-12-13T11:33:38Z</time>
      </trkpt>
      <trkpt lat="50.75913" lon="3.63153">
        <ele>59</ele>
        <time>2015-12-13T11:33:39Z</time>
      </trkpt>
      <trkpt lat="50.75911" lon="3.63154">
        <ele>59</ele>
        <time>2015-12-13T11:33:40Z</time>
      </trkpt>
      <trkpt lat="50.75908" lon="3.63155">
        <ele>59</ele>
        <time>2015-12-13T11:33:41Z</time>
      </trkpt>
      <trkpt lat="50.75906" lon="3.63156">
        <ele>59</ele>
        <time>2015-12-13T11:33:42Z</time>
      </trkpt>
      <trkpt lat="50.75903" lon="3.63156">
        <ele>59</ele>
        <time>2015-12-13T11:33:43Z</time>
      </trkpt>
      <trkpt lat="50.75901" lon="3.63157">
        <ele>59</ele>
        <time>2015-12-13T11:33:44Z</time>
      </trkpt>
      <trkpt lat="50.75899" lon="3.63157">
        <ele>59</ele>
        <time>2015-12-13T11:33:45Z</time>
      </trkpt>
      <trkpt lat="50.75897" lon="3.63158">
        <ele>58.3</ele>
        <time>2015-12-13T11:33:46Z</time>
      </trkpt>
      <trkpt lat="50.75895" lon="3.63158">
        <ele>58</ele>
        <time>2015-12-13T11:33:47Z</time>
      </trkpt>
      <trkpt lat="50.75892" lon="3.63159">
        <ele>58</ele>
        <time>2015-12-13T11:33:48Z</time>
      </trkpt>
      <trkpt lat="50.7589" lon="3.6316">
        <ele>58</ele>
        <time>2015-12-13T11:33:49Z</time>
      </trkpt>
      <trkpt lat="50.75888" lon="3.63161">
        <ele>58</ele>
        <time>2015-12-13T11:33:50Z</time>
      </trkpt>
      <trkpt lat="50.75886" lon="3.63162">
        <ele>57.3</ele>
        <time>2015-12-13T11:33:51Z</time>
      </trkpt>
      <trkpt lat="50.75883" lon="3.63162">
        <ele>57</ele>
        <time>2015-12-13T11:33:52Z</time>
      </trkpt>
      <trkpt lat="50.75881" lon="3.63163">
        <ele>57</ele>
        <time>2015-12-13T11:33:53Z</time>
      </trkpt>
      <trkpt lat="50.75879" lon="3.63164">
        <ele>57</ele>
        <time>2015-12-13T11:33:54Z</time>
      </trkpt>
      <trkpt lat="50.75876" lon="3.63164">
        <ele>57</ele>
        <time>2015-12-13T11:33:55Z</time>
      </trkpt>
      <trkpt lat="50.75874" lon="3.63165">
        <ele>56.3</ele>
        <time>2015-12-13T11:33:56Z</time>
      </trkpt>
      <trkpt lat="50.75872" lon="3.63166">
        <ele>56</ele>
        <time>2015-12-13T11:33:57Z</time>
      </trkpt>
      <trkpt lat="50.75869" lon="3.63166">
        <ele>56</ele>
        <time>2015-12-13T11:33:58Z</time>
      </trkpt>
      <trkpt lat="50.75867" lon="3.63167">
        <ele>56</ele>
        <time>2015-12-13T11:33:59Z</time>
      </trkpt>
      <trkpt lat="50.75864" lon="3.63168">
        <ele>56</ele>
        <time>2015-12-13T11:34:00Z</time>
      </trkpt>
      <trkpt lat="50.75862" lon="3.63169">
        <ele>56</ele>
        <time>2015-12-13T11:34:01Z</time>
      </trkpt>
      <trkpt lat="50.7586" lon="3.6317">
        <ele>56</ele>
        <time>2015-12-13T11:34:02Z</time>
      </trkpt>
      <trkpt lat="50.75857" lon="3.6317">
        <ele>56</ele>
        <time>2015-12-13T11:34:03Z</time>
      </trkpt>
      <trkpt lat="50.75855" lon="3.63171">
        <ele>56</ele>
        <time>2015-12-13T11:34:04Z</time>
      </trkpt>
      <trkpt lat="50.75852" lon="3.63172">
        <ele>56</ele>
        <time>2015-12-13T11:34:05Z</time>
      </trkpt>
      <trkpt lat="50.7585" lon="3.63172">
        <ele>55.3</ele>
        <time>2015-12-13T11:34:06Z</time>
      </trkpt>
      <trkpt lat="50.75847" lon="3.63173">
        <ele>55</ele>
        <time>2015-12-13T11:34:07Z</time>
      </trkpt>
      <trkpt lat="50.75845" lon="3.63174">
        <ele>55</ele>
        <time>2015-12-13T11:34:08Z</time>
      </trkpt>
      <trkpt lat="50.75842" lon="3.63175">
        <ele>55</ele>
        <time>2015-12-13T11:34:09Z</time>
      </trkpt>
      <trkpt lat="50.7584" lon="3.63176">
        <ele>55</ele>
        <time>2015-12-13T11:34:10Z</time>
      </trkpt>
      <trkpt lat="50.75837" lon="3.63176">
        <ele>55</ele>
        <time>2015-12-13T11:34:11Z</time>
      </trkpt>
      <trkpt lat="50.75835" lon="3.63177">
        <ele>55</ele>
        <time>2015-12-13T11:34:12Z</time>
      </trkpt>
      <trkpt lat="50.75833" lon="3.63178">
        <ele>55</ele>
        <time>2015-12-13T11:34:13Z</time>
      </trkpt>
      <trkpt lat="50.7583" lon="3.63179">
        <ele>55</ele>
        <time>2015-12-13T11:34:14Z</time>
      </trkpt>
      <trkpt lat="50.75828" lon="3.6318">
        <ele>55</ele>
        <time>2015-12-13T11:34:15Z</time>
      </trkpt>
      <trkpt lat="50.75826" lon="3.6318">
        <ele>54.3</ele>
        <time>2015-12-13T11:34:16Z</time>
      </trkpt>
      <trkpt lat="50.75823" lon="3.63181">
        <ele>54</ele>
        <time>2015-12-13T11:34:17Z</time>
      </trkpt>
      <trkpt lat="50.75821" lon="3.63182">
        <ele>54</ele>
        <time>2015-12-13T11:34:18Z</time>
      </trkpt>
      <trkpt lat="50.75818" lon="3.63182">
        <ele>54</ele>
        <time>2015-12-13T11:34:19Z</time>
      </trkpt>
      <trkpt lat="50.75816" lon="3.63183">
        <ele>54</ele>
        <time>2015-12-13T11:34:20Z</time>
      </trkpt>
      <trkpt lat="50.75814" lon="3.63184">
        <ele>54</ele>
        <time>2015-12-13T11:34:21Z</time>
      </trkpt>
      <trkpt lat="50.75811" lon="3.63185">
        <ele>54</ele>
        <time>2015-12-13T11:34:22Z</time>
      </trkpt>
      <trkpt lat="50.75809" lon="3.63186">
        <ele>54</ele>
        <time>2015-12-13T11:34:23Z</time>
      </trkpt>
      <trkpt lat="50.75806" lon="3.63187">
        <ele>54</ele>
        <time>2015-12-13T11:34:24Z</time>
      </trkpt>
      <trkpt lat="50.75804" lon="3.63188">
        <ele>54</ele>
        <time>2015-12-13T11:34:25Z</time>
      </trkpt>
      <trkpt lat="50.75802" lon="3.63188">
        <ele>53.5</ele>
        <time>2015-12-13T11:34:26Z</time>
      </trkpt>
      <trkpt lat="50.75799" lon="3.63189">
        <ele>53</ele>
        <time>2015-12-13T11:34:27Z</time>
      </trkpt>
      <trkpt lat="50.75797" lon="3.6319">
        <ele>53</ele>
        <time>2015-12-13T11:34:28Z</time>
      </trkpt>
      <trkpt lat="50.75794" lon="3.63191">
        <ele>53</ele>
        <time>2015-12-13T11:34:29Z</time>
      </trkpt>
      <trkpt lat="50.75792" lon="3.63192">
        <ele>53</ele>
        <time>2015-12-13T11:34:30Z</time>
      </trkpt>
      <trkpt lat="50.7579" lon="3.63193">
        <ele>53</ele>
        <time>2015-12-13T11:34:31Z</time>
      </trkpt>
      <trkpt lat="50.75787" lon="3.63194">
        <ele>53</ele>
        <time>2015-12-13T11:34:33Z</time>
      </trkpt>
      <trkpt lat="50.75787" lon="3.63198">
        <ele>52</ele>
        <time>2015-12-13T11:34:39Z</time>
      </trkpt>
      <trkpt lat="50.75787" lon="3.63202">
        <ele>52</ele>
        <time>2015-12-13T11:34:41Z</time>
      </trkpt>
      <trkpt lat="50.75789" lon="3.63207">
        <ele>52</ele>
        <time>2015-12-13T11:34:43Z</time>
      </trkpt>
      <trkpt lat="50.7579" lon="3.63211">
        <ele>52</ele>
        <time>2015-12-13T11:34:45Z</time>
      </trkpt>
      <trkpt lat="50.75791" lon="3.63216">
        <ele>52</ele>
        <time>2015-12-13T11:34:47Z</time>
      </trkpt>
      <trkpt lat="50.75792" lon="3.63219">
        <ele>52</ele>
        <time>2015-12-13T11:34:48Z</time>
      </trkpt>
      <trkpt lat="50.75793" lon="3.63222">
        <ele>52</ele>
        <time>2015-12-13T11:34:49Z</time>
      </trkpt>
      <trkpt lat="50.75794" lon="3.63225">
        <ele>52</ele>
        <time>2015-12-13T11:34:50Z</time>
      </trkpt>
      <trkpt lat="50.75795" lon="3.63228">
        <ele>52</ele>
        <time>2015-12-13T11:34:51Z</time>
      </trkpt>
      <trkpt lat="50.75796" lon="3.63231">
        <ele>52</ele>
        <time>2015-12-13T11:34:52Z</time>
      </trkpt>
      <trkpt lat="50.75797" lon="3.63235">
        <ele>52</ele>
        <time>2015-12-13T11:34:53Z</time>
      </trkpt>
      <trkpt lat="50.75798" lon="3.63238">
        <ele>52</ele>
        <time>2015-12-13T11:34:54Z</time>
      </trkpt>
      <trkpt lat="50.75798" lon="3.63241">
        <ele>52</ele>
        <time>2015-12-13T11:34:55Z</time>
      </trkpt>
      <trkpt lat="50.75799" lon="3.63245">
        <ele>51.3</ele>
        <time>2015-12-13T11:34:56Z</time>
      </trkpt>
      <trkpt lat="50.758" lon="3.63248">
        <ele>51</ele>
        <time>2015-12-13T11:34:57Z</time>
      </trkpt>
      <trkpt lat="50.75801" lon="3.63252">
        <ele>51</ele>
        <time>2015-12-13T11:34:58Z</time>
      </trkpt>
      <trkpt lat="50.75801" lon="3.63256">
        <ele>51</ele>
        <time>2015-12-13T11:34:59Z</time>
      </trkpt>
      <trkpt lat="50.75802" lon="3.63259">
        <ele>51</ele>
        <time>2015-12-13T11:35:00Z</time>
      </trkpt>
      <trkpt lat="50.75803" lon="3.63263">
        <ele>50.3</ele>
        <time>2015-12-13T11:35:01Z</time>
      </trkpt>
      <trkpt lat="50.75803" lon="3.63266">
        <ele>50</ele>
        <time>2015-12-13T11:35:02Z</time>
      </trkpt>
      <trkpt lat="50.75804" lon="3.6327">
        <ele>50</ele>
        <time>2015-12-13T11:35:03Z</time>
      </trkpt>
      <trkpt lat="50.75804" lon="3.63273">
        <ele>50</ele>
        <time>2015-12-13T11:35:04Z</time>
      </trkpt>
      <trkpt lat="50.75805" lon="3.63277">
        <ele>50</ele>
        <time>2015-12-13T11:35:05Z</time>
      </trkpt>
      <trkpt lat="50.75806" lon="3.6328">
        <ele>50</ele>
        <time>2015-12-13T11:35:06Z</time>
      </trkpt>
      <trkpt lat="50.75807" lon="3.63283">
        <ele>50</ele>
        <time>2015-12-13T11:35:07Z</time>
      </trkpt>
      <trkpt lat="50.75808" lon="3.63286">
        <ele>50</ele>
        <time>2015-12-13T11:35:09Z</time>
      </trkpt>
      <trkpt lat="50.75809" lon="3.63289">
        <ele>50</ele>
        <time>2015-12-13T11:35:11Z</time>
      </trkpt>
      <trkpt lat="50.7581" lon="3.63292">
        <ele>50</ele>
        <time>2015-12-13T11:35:13Z</time>
      </trkpt>
      <trkpt lat="50.75812" lon="3.63296">
        <ele>50</ele>
        <time>2015-12-13T11:35:15Z</time>
      </trkpt>
      <trkpt lat="50.75812" lon="3.63299">
        <ele>50</ele>
        <time>2015-12-13T11:35:20Z</time>
      </trkpt>
      <trkpt lat="50.75814" lon="3.63302">
        <ele>50</ele>
        <time>2015-12-13T11:35:22Z</time>
      </trkpt>
      <trkpt lat="50.75814" lon="3.63307">
        <ele>50</ele>
        <time>2015-12-13T11:35:24Z</time>
      </trkpt>
      <trkpt lat="50.75815" lon="3.63311">
        <ele>50</ele>
        <time>2015-12-13T11:35:26Z</time>
      </trkpt>
      <trkpt lat="50.75816" lon="3.63315">
        <ele>50</ele>
        <time>2015-12-13T11:35:28Z</time>
      </trkpt>
      <trkpt lat="50.75818" lon="3.63318">
        <ele>50</ele>
        <time>2015-12-13T11:35:30Z</time>
      </trkpt>
      <trkpt lat="50.75819" lon="3.63323">
        <ele>52</ele>
        <time>2015-12-13T11:35:32Z</time>
      </trkpt>
      <trkpt lat="50.7582" lon="3.63327">
        <ele>52</ele>
        <time>2015-12-13T11:35:34Z</time>
      </trkpt>
      <trkpt lat="50.75822" lon="3.63331">
        <ele>52</ele>
        <time>2015-12-13T11:35:36Z</time>
      </trkpt>
      <trkpt lat="50.75823" lon="3.63336">
        <ele>52</ele>
        <time>2015-12-13T11:35:38Z</time>
      </trkpt>
      <trkpt lat="50.75824" lon="3.63341">
        <ele>52</ele>
        <time>2015-12-13T11:35:40Z</time>
      </trkpt>
      <trkpt lat="50.75824" lon="3.63345">
        <ele>53</ele>
        <time>2015-12-13T11:35:42Z</time>
      </trkpt>
      <trkpt lat="50.75826" lon="3.6335">
        <ele>53</ele>
        <time>2015-12-13T11:35:44Z</time>
      </trkpt>
      <trkpt lat="50.75826" lon="3.63354">
        <ele>53</ele>
        <time>2015-12-13T11:35:46Z</time>
      </trkpt>
      <trkpt lat="50.75827" lon="3.63359">
        <ele>53</ele>
        <time>2015-12-13T11:35:48Z</time>
      </trkpt>
      <trkpt lat="50.75828" lon="3.63364">
        <ele>53</ele>
        <time>2015-12-13T11:35:50Z</time>
      </trkpt>
      <trkpt lat="50.75829" lon="3.63368">
        <ele>53</ele>
        <time>2015-12-13T11:35:52Z</time>
      </trkpt>
      <trkpt lat="50.75831" lon="3.63372">
        <ele>53</ele>
        <time>2015-12-13T11:35:54Z</time>
      </trkpt>
      <trkpt lat="50.75832" lon="3.63377">
        <ele>53</ele>
        <time>2015-12-13T11:35:56Z</time>
      </trkpt>
      <trkpt lat="50.75833" lon="3.63381">
        <ele>53</ele>
        <time>2015-12-13T11:35:58Z</time>
      </trkpt>
      <trkpt lat="50.75834" lon="3.63385">
        <ele>53</ele>
        <time>2015-12-13T11:36:00Z</time>
      </trkpt>
      <trkpt lat="50.75836" lon="3.6339">
        <ele>55</ele>
        <time>2015-12-13T11:36:02Z</time>
      </trkpt>
      <trkpt lat="50.75837" lon="3.63394">
        <ele>55</ele>
        <time>2015-12-13T11:36:04Z</time>
      </trkpt>
      <trkpt lat="50.75838" lon="3.634">
        <ele>55</ele>
        <time>2015-12-13T11:36:06Z</time>
      </trkpt>
      <trkpt lat="50.75839" lon="3.63404">
        <ele>55</ele>
        <time>2015-12-13T11:36:08Z</time>
      </trkpt>
      <trkpt lat="50.7584" lon="3.63408">
        <ele>55</ele>
        <time>2015-12-13T11:36:10Z</time>
      </trkpt>
      <trkpt lat="50.75841" lon="3.63413">
        <ele>55</ele>
        <time>2015-12-13T11:36:12Z</time>
      </trkpt>
      <trkpt lat="50.75841" lon="3.63418">
        <ele>55</ele>
        <time>2015-12-13T11:36:14Z</time>
      </trkpt>
      <trkpt lat="50.75842" lon="3.63422">
        <ele>55</ele>
        <time>2015-12-13T11:36:16Z</time>
      </trkpt>
      <trkpt lat="50.75843" lon="3.63427">
        <ele>55</ele>
        <time>2015-12-13T11:36:18Z</time>
      </trkpt>
      <trkpt lat="50.75843" lon="3.63432">
        <ele>55</ele>
        <time>2015-12-13T11:36:20Z</time>
      </trkpt>
      <trkpt lat="50.75844" lon="3.63436">
        <ele>56</ele>
        <time>2015-12-13T11:36:22Z</time>
      </trkpt>
      <trkpt lat="50.75845" lon="3.6344">
        <ele>56</ele>
        <time>2015-12-13T11:36:24Z</time>
      </trkpt>
      <trkpt lat="50.75847" lon="3.63444">
        <ele>56</ele>
        <time>2015-12-13T11:36:26Z</time>
      </trkpt>
      <trkpt lat="50.75848" lon="3.63448">
        <ele>56</ele>
        <time>2015-12-13T11:36:28Z</time>
      </trkpt>
      <trkpt lat="50.7585" lon="3.63451">
        <ele>56</ele>
        <time>2015-12-13T11:36:30Z</time>
      </trkpt>
      <trkpt lat="50.75852" lon="3.63454">
        <ele>56</ele>
        <time>2015-12-13T11:36:32Z</time>
      </trkpt>
      <trkpt lat="50.75853" lon="3.63457">
        <ele>56</ele>
        <time>2015-12-13T11:36:34Z</time>
      </trkpt>
      <trkpt lat="50.75856" lon="3.63461">
        <ele>56</ele>
        <time>2015-12-13T11:36:36Z</time>
      </trkpt>
      <trkpt lat="50.75858" lon="3.63464">
        <ele>56</ele>
        <time>2015-12-13T11:36:38Z</time>
      </trkpt>
      <trkpt lat="50.7586" lon="3.63467">
        <ele>56</ele>
        <time>2015-12-13T11:36:40Z</time>
      </trkpt>
      <trkpt lat="50.75861" lon="3.6347">
        <ele>58</ele>
        <time>2015-12-13T11:36:42Z</time>
      </trkpt>
      <trkpt lat="50.75863" lon="3.63473">
        <ele>58</ele>
        <time>2015-12-13T11:36:44Z</time>
      </trkpt>
      <trkpt lat="50.75865" lon="3.63476">
        <ele>58</ele>
        <time>2015-12-13T11:36:46Z</time>
      </trkpt>
      <trkpt lat="50.75866" lon="3.6348">
        <ele>58</ele>
        <time>2015-12-13T11:36:48Z</time>
      </trkpt>
      <trkpt lat="50.75868" lon="3.63484">
        <ele>58</ele>
        <time>2015-12-13T11:36:50Z</time>
      </trkpt>
      <trkpt lat="50.7587" lon="3.63488">
        <ele>59</ele>
        <time>2015-12-13T11:36:52Z</time>
      </trkpt>
      <trkpt lat="50.75871" lon="3.63492">
        <ele>59</ele>
        <time>2015-12-13T11:36:54Z</time>
      </trkpt>
      <trkpt lat="50.75872" lon="3.63495">
        <ele>59</ele>
        <time>2015-12-13T11:36:56Z</time>
      </trkpt>
      <trkpt lat="50.75873" lon="3.63499">
        <ele>59</ele>
        <time>2015-12-13T11:36:58Z</time>
      </trkpt>
      <trkpt lat="50.75874" lon="3.63503">
        <ele>59</ele>
        <time>2015-12-13T11:37:00Z</time>
      </trkpt>
      <trkpt lat="50.75876" lon="3.63507">
        <ele>59</ele>
        <time>2015-12-13T11:37:02Z</time>
      </trkpt>
      <trkpt lat="50.75877" lon="3.63511">
        <ele>59</ele>
        <time>2015-12-13T11:37:04Z</time>
      </trkpt>
      <trkpt lat="50.75878" lon="3.63514">
        <ele>59</ele>
        <time>2015-12-13T11:37:06Z</time>
      </trkpt>
      <trkpt lat="50.75879" lon="3.63518">
        <ele>59</ele>
        <time>2015-12-13T11:37:08Z</time>
      </trkpt>
      <trkpt lat="50.7588" lon="3.63522">
        <ele>59</ele>
        <time>2015-12-13T11:37:10Z</time>
      </trkpt>
      <trkpt lat="50.75881" lon="3.63526">
        <ele>61</ele>
        <time>2015-12-13T11:37:12Z</time>
      </trkpt>
      <trkpt lat="50.75881" lon="3.6353">
        <ele>61</ele>
        <time>2015-12-13T11:37:14Z</time>
      </trkpt>
      <trkpt lat="50.75882" lon="3.63534">
        <ele>61</ele>
        <time>2015-12-13T11:37:16Z</time>
      </trkpt>
      <trkpt lat="50.75881" lon="3.63538">
        <ele>61</ele>
        <time>2015-12-13T11:37:18Z</time>
      </trkpt>
      <trkpt lat="50.75882" lon="3.63541">
        <ele>61</ele>
        <time>2015-12-13T11:37:20Z</time>
      </trkpt>
      <trkpt lat="50.75882" lon="3.63544">
        <ele>63</ele>
        <time>2015-12-13T11:37:22Z</time>
      </trkpt>
      <trkpt lat="50.75882" lon="3.63548">
        <ele>62</ele>
        <time>2015-12-13T11:37:25Z</time>
      </trkpt>
      <trkpt lat="50.75881" lon="3.63552">
        <ele>62</ele>
        <time>2015-12-13T11:37:27Z</time>
      </trkpt>
      <trkpt lat="50.75881" lon="3.63556">
        <ele>62</ele>
        <time>2015-12-13T11:37:29Z</time>
      </trkpt>
      <trkpt lat="50.75882" lon="3.63559">
        <ele>64</ele>
        <time>2015-12-13T11:37:31Z</time>
      </trkpt>
      <trkpt lat="50.75882" lon="3.63562">
        <ele>65</ele>
        <time>2015-12-13T11:37:33Z</time>
      </trkpt>
      <trkpt lat="50.75882" lon="3.63566">
        <ele>65</ele>
        <time>2015-12-13T11:37:35Z</time>
      </trkpt>
      <trkpt lat="50.75882" lon="3.6357">
        <ele>67</ele>
        <time>2015-12-13T11:37:37Z</time>
      </trkpt>
      <trkpt lat="50.75882" lon="3.63574">
        <ele>67</ele>
        <time>2015-12-13T11:37:39Z</time>
      </trkpt>
      <trkpt lat="50.75882" lon="3.63578">
        <ele>67</ele>
        <time>2015-12-13T11:37:41Z</time>
      </trkpt>
      <trkpt lat="50.75882" lon="3.63583">
        <ele>67</ele>
        <time>2015-12-13T11:37:43Z</time>
      </trkpt>
      <trkpt lat="50.75882" lon="3.63587">
        <ele>67</ele>
        <time>2015-12-13T11:37:45Z</time>
      </trkpt>
      <trkpt lat="50.75882" lon="3.63591">
        <ele>68</ele>
        <time>2015-12-13T11:37:47Z</time>
      </trkpt>
      <trkpt lat="50.75882" lon="3.63595">
        <ele>68</ele>
        <time>2015-12-13T11:37:49Z</time>
      </trkpt>
      <trkpt lat="50.75881" lon="3.63599">
        <ele>68.7</ele>
        <time>2015-12-13T11:37:51Z</time>
      </trkpt>
      <trkpt lat="50.7588" lon="3.63603">
        <ele>69</ele>
        <time>2015-12-13T11:37:53Z</time>
      </trkpt>
      <trkpt lat="50.75879" lon="3.63606">
        <ele>69</ele>
        <time>2015-12-13T11:37:55Z</time>
      </trkpt>
      <trkpt lat="50.75877" lon="3.6361">
        <ele>69</ele>
        <time>2015-12-13T11:37:57Z</time>
      </trkpt>
      <trkpt lat="50.75874" lon="3.63613">
        <ele>69</ele>
        <time>2015-12-13T11:37:59Z</time>
      </trkpt>
      <trkpt lat="50.75873" lon="3.63617">
        <ele>69.5</ele>
        <time>2015-12-13T11:38:01Z</time>
      </trkpt>
      <trkpt lat="50.75871" lon="3.6362">
        <ele>70</ele>
        <time>2015-12-13T11:38:03Z</time>
      </trkpt>
      <trkpt lat="50.7587" lon="3.63624">
        <ele>70</ele>
        <time>2015-12-13T11:38:05Z</time>
      </trkpt>
      <trkpt lat="50.7587" lon="3.63628">
        <ele>70</ele>
        <time>2015-12-13T11:38:07Z</time>
      </trkpt>
      <trkpt lat="50.7587" lon="3.63633">
        <ele>70</ele>
        <time>2015-12-13T11:38:09Z</time>
      </trkpt>
      <trkpt lat="50.7587" lon="3.63637">
        <ele>70.7</ele>
        <time>2015-12-13T11:38:11Z</time>
      </trkpt>
      <trkpt lat="50.75871" lon="3.63641">
        <ele>71</ele>
        <time>2015-12-13T11:38:13Z</time>
      </trkpt>
      <trkpt lat="50.75871" lon="3.63644">
        <ele>71</ele>
        <time>2015-12-13T11:38:15Z</time>
      </trkpt>
      <trkpt lat="50.75872" lon="3.63648">
        <ele>71</ele>
        <time>2015-12-13T11:38:17Z</time>
      </trkpt>
      <trkpt lat="50.75873" lon="3.63653">
        <ele>71</ele>
        <time>2015-12-13T11:38:19Z</time>
      </trkpt>
      <trkpt lat="50.75873" lon="3.63657">
        <ele>72.4</ele>
        <time>2015-12-13T11:38:21Z</time>
      </trkpt>
      <trkpt lat="50.75875" lon="3.63661">
        <ele>73</ele>
        <time>2015-12-13T11:38:23Z</time>
      </trkpt>
      <trkpt lat="50.75876" lon="3.63665">
        <ele>73</ele>
        <time>2015-12-13T11:38:25Z</time>
      </trkpt>
      <trkpt lat="50.75876" lon="3.63669">
        <ele>72</ele>
        <time>2015-12-13T11:38:27Z</time>
      </trkpt>
      <trkpt lat="50.75877" lon="3.63673">
        <ele>72</ele>
        <time>2015-12-13T11:38:29Z</time>
      </trkpt>
      <trkpt lat="50.75877" lon="3.63677">
        <ele>72.7</ele>
        <time>2015-12-13T11:38:31Z</time>
      </trkpt>
      <trkpt lat="50.75878" lon="3.63682">
        <ele>73</ele>
        <time>2015-12-13T11:38:33Z</time>
      </trkpt>
      <trkpt lat="50.75879" lon="3.63687">
        <ele>73</ele>
        <time>2015-12-13T11:38:35Z</time>
      </trkpt>
      <trkpt lat="50.75879" lon="3.63691">
        <ele>73</ele>
        <time>2015-12-13T11:38:37Z</time>
      </trkpt>
      <trkpt lat="50.75881" lon="3.63695">
        <ele>73</ele>
        <time>2015-12-13T11:38:39Z</time>
      </trkpt>
      <trkpt lat="50.75881" lon="3.63699">
        <ele>73.7</ele>
        <time>2015-12-13T11:38:41Z</time>
      </trkpt>
      <trkpt lat="50.75882" lon="3.63704">
        <ele>74</ele>
        <time>2015-12-13T11:38:43Z</time>
      </trkpt>
      <trkpt lat="50.75883" lon="3.63709">
        <ele>74</ele>
        <time>2015-12-13T11:38:45Z</time>
      </trkpt>
      <trkpt lat="50.75883" lon="3.63713">
        <ele>74</ele>
        <time>2015-12-13T11:38:47Z</time>
      </trkpt>
      <trkpt lat="50.75884" lon="3.63718">
        <ele>74</ele>
        <time>2015-12-13T11:38:49Z</time>
      </trkpt>
      <trkpt lat="50.75885" lon="3.63722">
        <ele>74</ele>
        <time>2015-12-13T11:38:51Z</time>
      </trkpt>
      <trkpt lat="50.75884" lon="3.63727">
        <ele>74</ele>
        <time>2015-12-13T11:38:53Z</time>
      </trkpt>
      <trkpt lat="50.75885" lon="3.63731">
        <ele>74</ele>
        <time>2015-12-13T11:38:55Z</time>
      </trkpt>
      <trkpt lat="50.75885" lon="3.63735">
        <ele>74</ele>
        <time>2015-12-13T11:38:57Z</time>
      </trkpt>
      <trkpt lat="50.75884" lon="3.63739">
        <ele>74</ele>
        <time>2015-12-13T11:38:59Z</time>
      </trkpt>
      <trkpt lat="50.75884" lon="3.63744">
        <ele>74</ele>
        <time>2015-12-13T11:39:01Z</time>
      </trkpt>
      <trkpt lat="50.75884" lon="3.63748">
        <ele>74</ele>
        <time>2015-12-13T11:39:03Z</time>
      </trkpt>
      <trkpt lat="50.75884" lon="3.63753">
        <ele>74</ele>
        <time>2015-12-13T11:39:05Z</time>
      </trkpt>
      <trkpt lat="50.75884" lon="3.63757">
        <ele>74</ele>
        <time>2015-12-13T11:39:07Z</time>
      </trkpt>
      <trkpt lat="50.75884" lon="3.63761">
        <ele>74</ele>
        <time>2015-12-13T11:39:09Z</time>
      </trkpt>
      <trkpt lat="50.75884" lon="3.63765">
        <ele>74</ele>
        <time>2015-12-13T11:39:11Z</time>
      </trkpt>
      <trkpt lat="50.75884" lon="3.63768">
        <ele>74</ele>
        <time>2015-12-13T11:39:13Z</time>
      </trkpt>
      <trkpt lat="50.75885" lon="3.63772">
        <ele>74</ele>
        <time>2015-12-13T11:39:15Z</time>
      </trkpt>
      <trkpt lat="50.75885" lon="3.63776">
        <ele>74</ele>
        <time>2015-12-13T11:39:17Z</time>
      </trkpt>
      <trkpt lat="50.75886" lon="3.63779">
        <ele>74</ele>
        <time>2015-12-13T11:39:19Z</time>
      </trkpt>
      <trkpt lat="50.75886" lon="3.63783">
        <ele>73.3</ele>
        <time>2015-12-13T11:39:21Z</time>
      </trkpt>
      <trkpt lat="50.75886" lon="3.63787">
        <ele>73</ele>
        <time>2015-12-13T11:39:23Z</time>
      </trkpt>
      <trkpt lat="50.75887" lon="3.63792">
        <ele>73</ele>
        <time>2015-12-13T11:39:25Z</time>
      </trkpt>
      <trkpt lat="50.75887" lon="3.63795">
        <ele>73</ele>
        <time>2015-12-13T11:39:27Z</time>
      </trkpt>
      <trkpt lat="50.75888" lon="3.63798">
        <ele>73</ele>
        <time>2015-12-13T11:39:29Z</time>
      </trkpt>
      <trkpt lat="50.75889" lon="3.63802">
        <ele>73</ele>
        <time>2015-12-13T11:39:33Z</time>
      </trkpt>
      <trkpt lat="50.7589" lon="3.63806">
        <ele>73</ele>
        <time>2015-12-13T11:39:35Z</time>
      </trkpt>
      <trkpt lat="50.7589" lon="3.63811">
        <ele>73</ele>
        <time>2015-12-13T11:39:37Z</time>
      </trkpt>
      <trkpt lat="50.7589" lon="3.63815">
        <ele>73</ele>
        <time>2015-12-13T11:39:39Z</time>
      </trkpt>
      <trkpt lat="50.7589" lon="3.63818">
        <ele>73.7</ele>
        <time>2015-12-13T11:39:41Z</time>
      </trkpt>
      <trkpt lat="50.7589" lon="3.63821">
        <ele>74</ele>
        <time>2015-12-13T11:39:43Z</time>
      </trkpt>
      <trkpt lat="50.7589" lon="3.63825">
        <ele>74</ele>
        <time>2015-12-13T11:39:45Z</time>
      </trkpt>
      <trkpt lat="50.7589" lon="3.63828">
        <ele>74</ele>
        <time>2015-12-13T11:39:47Z</time>
      </trkpt>
      <trkpt lat="50.75891" lon="3.63832">
        <ele>74</ele>
        <time>2015-12-13T11:39:49Z</time>
      </trkpt>
      <trkpt lat="50.75891" lon="3.63835">
        <ele>74.7</ele>
        <time>2015-12-13T11:39:51Z</time>
      </trkpt>
      <trkpt lat="50.75892" lon="3.63839">
        <ele>75</ele>
        <time>2015-12-13T11:39:54Z</time>
      </trkpt>
      <trkpt lat="50.75893" lon="3.63842">
        <ele>75</ele>
        <time>2015-12-13T11:39:56Z</time>
      </trkpt>
      <trkpt lat="50.75893" lon="3.63845">
        <ele>75</ele>
        <time>2015-12-13T11:39:58Z</time>
      </trkpt>
      <trkpt lat="50.75894" lon="3.63848">
        <ele>75</ele>
        <time>2015-12-13T11:40:00Z</time>
      </trkpt>
      <trkpt lat="50.75895" lon="3.63851">
        <ele>76</ele>
        <time>2015-12-13T11:40:02Z</time>
      </trkpt>
      <trkpt lat="50.75895" lon="3.63854">
        <ele>76</ele>
        <time>2015-12-13T11:40:04Z</time>
      </trkpt>
      <trkpt lat="50.75896" lon="3.63857">
        <ele>76</ele>
        <time>2015-12-13T11:40:06Z</time>
      </trkpt>
      <trkpt lat="50.75898" lon="3.6386">
        <ele>76</ele>
        <time>2015-12-13T11:40:08Z</time>
      </trkpt>
      <trkpt lat="50.75899" lon="3.63862">
        <ele>76</ele>
        <time>2015-12-13T11:40:10Z</time>
      </trkpt>
      <trkpt lat="50.759" lon="3.63868">
        <ele>77</ele>
        <time>2015-12-13T11:40:12Z</time>
      </trkpt>
      <trkpt lat="50.75901" lon="3.63871">
        <ele>77</ele>
        <time>2015-12-13T11:40:13Z</time>
      </trkpt>
      <trkpt lat="50.75902" lon="3.63875">
        <ele>77</ele>
        <time>2015-12-13T11:40:14Z</time>
      </trkpt>
      <trkpt lat="50.75903" lon="3.63878">
        <ele>77</ele>
        <time>2015-12-13T11:40:15Z</time>
      </trkpt>
      <trkpt lat="50.75904" lon="3.63881">
        <ele>77</ele>
        <time>2015-12-13T11:40:16Z</time>
      </trkpt>
      <trkpt lat="50.75905" lon="3.63884">
        <ele>77</ele>
        <time>2015-12-13T11:40:17Z</time>
      </trkpt>
      <trkpt lat="50.75906" lon="3.63887">
        <ele>77</ele>
        <time>2015-12-13T11:40:18Z</time>
      </trkpt>
      <trkpt lat="50.75907" lon="3.6389">
        <ele>77</ele>
        <time>2015-12-13T11:40:19Z</time>
      </trkpt>
      <trkpt lat="50.75908" lon="3.63893">
        <ele>77</ele>
        <time>2015-12-13T11:40:20Z</time>
      </trkpt>
      <trkpt lat="50.75909" lon="3.63897">
        <ele>77</ele>
        <time>2015-12-13T11:40:21Z</time>
      </trkpt>
      <trkpt lat="50.7591" lon="3.639">
        <ele>77</ele>
        <time>2015-12-13T11:40:22Z</time>
      </trkpt>
      <trkpt lat="50.7591" lon="3.63903">
        <ele>77</ele>
        <time>2015-12-13T11:40:23Z</time>
      </trkpt>
      <trkpt lat="50.75911" lon="3.63906">
        <ele>77</ele>
        <time>2015-12-13T11:40:24Z</time>
      </trkpt>
      <trkpt lat="50.75912" lon="3.63909">
        <ele>77</ele>
        <time>2015-12-13T11:40:25Z</time>
      </trkpt>
      <trkpt lat="50.75912" lon="3.63913">
        <ele>77</ele>
        <time>2015-12-13T11:40:26Z</time>
      </trkpt>
      <trkpt lat="50.75912" lon="3.63916">
        <ele>77</ele>
        <time>2015-12-13T11:40:27Z</time>
      </trkpt>
      <trkpt lat="50.75912" lon="3.63919">
        <ele>77</ele>
        <time>2015-12-13T11:40:28Z</time>
      </trkpt>
      <trkpt lat="50.75912" lon="3.63922">
        <ele>77</ele>
        <time>2015-12-13T11:40:29Z</time>
      </trkpt>
      <trkpt lat="50.75912" lon="3.63926">
        <ele>77</ele>
        <time>2015-12-13T11:40:30Z</time>
      </trkpt>
      <trkpt lat="50.75911" lon="3.63929">
        <ele>77</ele>
        <time>2015-12-13T11:40:31Z</time>
      </trkpt>
      <trkpt lat="50.7591" lon="3.63931">
        <ele>77</ele>
        <time>2015-12-13T11:40:32Z</time>
      </trkpt>
      <trkpt lat="50.75908" lon="3.63936">
        <ele>77</ele>
        <time>2015-12-13T11:40:34Z</time>
      </trkpt>
      <trkpt lat="50.75907" lon="3.63941">
        <ele>77</ele>
        <time>2015-12-13T11:40:36Z</time>
      </trkpt>
      <trkpt lat="50.75906" lon="3.63946">
        <ele>77</ele>
        <time>2015-12-13T11:40:38Z</time>
      </trkpt>
      <trkpt lat="50.75907" lon="3.6395">
        <ele>77</ele>
        <time>2015-12-13T11:40:40Z</time>
      </trkpt>
      <trkpt lat="50.75908" lon="3.63955">
        <ele>77</ele>
        <time>2015-12-13T11:40:42Z</time>
      </trkpt>
      <trkpt lat="50.75907" lon="3.63958">
        <ele>77</ele>
        <time>2015-12-13T11:40:43Z</time>
      </trkpt>
      <trkpt lat="50.75906" lon="3.63962">
        <ele>77</ele>
        <time>2015-12-13T11:40:45Z</time>
      </trkpt>
      <trkpt lat="50.75903" lon="3.63966">
        <ele>77</ele>
        <time>2015-12-13T11:40:47Z</time>
      </trkpt>
      <trkpt lat="50.759" lon="3.63966">
        <ele>77</ele>
        <time>2015-12-13T11:40:49Z</time>
      </trkpt>
      <trkpt lat="50.75898" lon="3.63968">
        <ele>75.6</ele>
        <time>2015-12-13T11:40:51Z</time>
      </trkpt>
      <trkpt lat="50.75897" lon="3.63971">
        <ele>75</ele>
        <time>2015-12-13T11:40:52Z</time>
      </trkpt>
      <trkpt lat="50.75896" lon="3.63974">
        <ele>75</ele>
        <time>2015-12-13T11:40:53Z</time>
      </trkpt>
      <trkpt lat="50.75895" lon="3.63977">
        <ele>75</ele>
        <time>2015-12-13T11:40:54Z</time>
      </trkpt>
      <trkpt lat="50.75894" lon="3.63979">
        <ele>75</ele>
        <time>2015-12-13T11:40:55Z</time>
      </trkpt>
      <trkpt lat="50.75892" lon="3.63982">
        <ele>75</ele>
        <time>2015-12-13T11:40:56Z</time>
      </trkpt>
      <trkpt lat="50.75891" lon="3.63985">
        <ele>75</ele>
        <time>2015-12-13T11:40:57Z</time>
      </trkpt>
      <trkpt lat="50.7589" lon="3.63988">
        <ele>75</ele>
        <time>2015-12-13T11:40:58Z</time>
      </trkpt>
      <trkpt lat="50.75889" lon="3.63991">
        <ele>75</ele>
        <time>2015-12-13T11:40:59Z</time>
      </trkpt>
      <trkpt lat="50.75888" lon="3.63994">
        <ele>75</ele>
        <time>2015-12-13T11:41:00Z</time>
      </trkpt>
      <trkpt lat="50.75887" lon="3.63997">
        <ele>75</ele>
        <time>2015-12-13T11:41:02Z</time>
      </trkpt>
      <trkpt lat="50.75886" lon="3.64001">
        <ele>75</ele>
        <time>2015-12-13T11:41:04Z</time>
      </trkpt>
      <trkpt lat="50.75887" lon="3.64003">
        <ele>75</ele>
        <time>2015-12-13T11:41:08Z</time>
      </trkpt>
      <trkpt lat="50.75889" lon="3.64004">
        <ele>75</ele>
        <time>2015-12-13T11:41:12Z</time>
      </trkpt>
      <trkpt lat="50.75891" lon="3.64006">
        <ele>75</ele>
        <time>2015-12-13T11:41:14Z</time>
      </trkpt>
      <trkpt lat="50.75893" lon="3.64008">
        <ele>75</ele>
        <time>2015-12-13T11:41:16Z</time>
      </trkpt>
      <trkpt lat="50.75895" lon="3.64009">
        <ele>75</ele>
        <time>2015-12-13T11:41:18Z</time>
      </trkpt>
      <trkpt lat="50.75897" lon="3.64011">
        <ele>75</ele>
        <time>2015-12-13T11:41:20Z</time>
      </trkpt>
      <trkpt lat="50.75899" lon="3.64013">
        <ele>75</ele>
        <time>2015-12-13T11:41:22Z</time>
      </trkpt>
      <trkpt lat="50.75901" lon="3.64015">
        <ele>75</ele>
        <time>2015-12-13T11:41:24Z</time>
      </trkpt>
      <trkpt lat="50.75903" lon="3.64018">
        <ele>75</ele>
        <time>2015-12-13T11:41:26Z</time>
      </trkpt>
      <trkpt lat="50.75905" lon="3.6402">
        <ele>75</ele>
        <time>2015-12-13T11:41:28Z</time>
      </trkpt>
      <trkpt lat="50.75907" lon="3.64022">
        <ele>75</ele>
        <time>2015-12-13T11:41:30Z</time>
      </trkpt>
      <trkpt lat="50.75909" lon="3.64023">
        <ele>75</ele>
        <time>2015-12-13T11:41:32Z</time>
      </trkpt>
      <trkpt lat="50.75911" lon="3.64025">
        <ele>75</ele>
        <time>2015-12-13T11:41:34Z</time>
      </trkpt>
      <trkpt lat="50.75913" lon="3.64027">
        <ele>75</ele>
        <time>2015-12-13T11:41:36Z</time>
      </trkpt>
      <trkpt lat="50.75915" lon="3.64029">
        <ele>75</ele>
        <time>2015-12-13T11:41:38Z</time>
      </trkpt>
      <trkpt lat="50.75917" lon="3.6403">
        <ele>75</ele>
        <time>2015-12-13T11:41:40Z</time>
      </trkpt>
      <trkpt lat="50.75919" lon="3.64032">
        <ele>77</ele>
        <time>2015-12-13T11:41:42Z</time>
      </trkpt>
      <trkpt lat="50.75921" lon="3.64034">
        <ele>77</ele>
        <time>2015-12-13T11:41:44Z</time>
      </trkpt>
      <trkpt lat="50.75924" lon="3.64036">
        <ele>77</ele>
        <time>2015-12-13T11:41:46Z</time>
      </trkpt>
      <trkpt lat="50.75926" lon="3.64037">
        <ele>77</ele>
        <time>2015-12-13T11:41:48Z</time>
      </trkpt>
      <trkpt lat="50.75927" lon="3.64039">
        <ele>77</ele>
        <time>2015-12-13T11:41:50Z</time>
      </trkpt>
      <trkpt lat="50.7593" lon="3.64041">
        <ele>79</ele>
        <time>2015-12-13T11:41:52Z</time>
      </trkpt>
      <trkpt lat="50.75932" lon="3.64043">
        <ele>79</ele>
        <time>2015-12-13T11:41:54Z</time>
      </trkpt>
      <trkpt lat="50.75934" lon="3.64048">
        <ele>78</ele>
        <time>2015-12-13T11:42:34Z</time>
      </trkpt>
      <trkpt lat="50.75936" lon="3.6405">
        <ele>78</ele>
        <time>2015-12-13T11:42:37Z</time>
      </trkpt>
      <trkpt lat="50.75938" lon="3.64053">
        <ele>78</ele>
        <time>2015-12-13T11:42:39Z</time>
      </trkpt>
      <trkpt lat="50.75939" lon="3.64055">
        <ele>78.5</ele>
        <time>2015-12-13T11:42:41Z</time>
      </trkpt>
      <trkpt lat="50.75941" lon="3.64058">
        <ele>79</ele>
        <time>2015-12-13T11:42:43Z</time>
      </trkpt>
      <trkpt lat="50.75943" lon="3.64062">
        <ele>79</ele>
        <time>2015-12-13T11:42:45Z</time>
      </trkpt>
      <trkpt lat="50.75944" lon="3.64066">
        <ele>79</ele>
        <time>2015-12-13T11:42:47Z</time>
      </trkpt>
      <trkpt lat="50.75945" lon="3.64069">
        <ele>79</ele>
        <time>2015-12-13T11:42:49Z</time>
      </trkpt>
      <trkpt lat="50.75947" lon="3.64072">
        <ele>80.4</ele>
        <time>2015-12-13T11:42:51Z</time>
      </trkpt>
      <trkpt lat="50.75948" lon="3.64074">
        <ele>81</ele>
        <time>2015-12-13T11:42:53Z</time>
      </trkpt>
      <trkpt lat="50.7595" lon="3.64077">
        <ele>81</ele>
        <time>2015-12-13T11:42:55Z</time>
      </trkpt>
      <trkpt lat="50.75952" lon="3.6408">
        <ele>81</ele>
        <time>2015-12-13T11:42:57Z</time>
      </trkpt>
      <trkpt lat="50.75954" lon="3.64082">
        <ele>81</ele>
        <time>2015-12-13T11:42:59Z</time>
      </trkpt>
      <trkpt lat="50.75956" lon="3.64085">
        <ele>81</ele>
        <time>2015-12-13T11:43:01Z</time>
      </trkpt>
      <trkpt lat="50.75958" lon="3.64089">
        <ele>81</ele>
        <time>2015-12-13T11:43:03Z</time>
      </trkpt>
      <trkpt lat="50.7596" lon="3.64092">
        <ele>81</ele>
        <time>2015-12-13T11:43:05Z</time>
      </trkpt>
      <trkpt lat="50.75961" lon="3.64096">
        <ele>81</ele>
        <time>2015-12-13T11:43:07Z</time>
      </trkpt>
      <trkpt lat="50.75963" lon="3.641">
        <ele>81</ele>
        <time>2015-12-13T11:43:09Z</time>
      </trkpt>
      <trkpt lat="50.75964" lon="3.64103">
        <ele>81</ele>
        <time>2015-12-13T11:43:11Z</time>
      </trkpt>
      <trkpt lat="50.75966" lon="3.64107">
        <ele>81</ele>
        <time>2015-12-13T11:43:13Z</time>
      </trkpt>
      <trkpt lat="50.75967" lon="3.64111">
        <ele>81</ele>
        <time>2015-12-13T11:43:15Z</time>
      </trkpt>
      <trkpt lat="50.75969" lon="3.64114">
        <ele>81</ele>
        <time>2015-12-13T11:43:17Z</time>
      </trkpt>
      <trkpt lat="50.7597" lon="3.64118">
        <ele>81</ele>
        <time>2015-12-13T11:43:19Z</time>
      </trkpt>
      <trkpt lat="50.75971" lon="3.64121">
        <ele>81.7</ele>
        <time>2015-12-13T11:43:21Z</time>
      </trkpt>
      <trkpt lat="50.75972" lon="3.64125">
        <ele>82</ele>
        <time>2015-12-13T11:43:23Z</time>
      </trkpt>
      <trkpt lat="50.75973" lon="3.64128">
        <ele>82</ele>
        <time>2015-12-13T11:43:25Z</time>
      </trkpt>
      <trkpt lat="50.75975" lon="3.64132">
        <ele>82</ele>
        <time>2015-12-13T11:43:27Z</time>
      </trkpt>
      <trkpt lat="50.75978" lon="3.64136">
        <ele>82</ele>
        <time>2015-12-13T11:43:29Z</time>
      </trkpt>
      <trkpt lat="50.7598" lon="3.64139">
        <ele>82.7</ele>
        <time>2015-12-13T11:43:31Z</time>
      </trkpt>
      <trkpt lat="50.75982" lon="3.64144">
        <ele>83</ele>
        <time>2015-12-13T11:43:33Z</time>
      </trkpt>
      <trkpt lat="50.75984" lon="3.64148">
        <ele>83</ele>
        <time>2015-12-13T11:43:35Z</time>
      </trkpt>
      <trkpt lat="50.75985" lon="3.64152">
        <ele>83</ele>
        <time>2015-12-13T11:43:37Z</time>
      </trkpt>
      <trkpt lat="50.75987" lon="3.64156">
        <ele>83</ele>
        <time>2015-12-13T11:43:38Z</time>
      </trkpt>
      <trkpt lat="50.75988" lon="3.64159">
        <ele>83</ele>
        <time>2015-12-13T11:43:39Z</time>
      </trkpt>
      <trkpt lat="50.7599" lon="3.64163">
        <ele>83</ele>
        <time>2015-12-13T11:43:41Z</time>
      </trkpt>
      <trkpt lat="50.75992" lon="3.64166">
        <ele>83</ele>
        <time>2015-12-13T11:43:43Z</time>
      </trkpt>
      <trkpt lat="50.75994" lon="3.6417">
        <ele>83</ele>
        <time>2015-12-13T11:43:45Z</time>
      </trkpt>
      <trkpt lat="50.75996" lon="3.64174">
        <ele>83</ele>
        <time>2015-12-13T11:43:47Z</time>
      </trkpt>
      <trkpt lat="50.75998" lon="3.64178">
        <ele>83</ele>
        <time>2015-12-13T11:43:49Z</time>
      </trkpt>
      <trkpt lat="50.76" lon="3.64182">
        <ele>83</ele>
        <time>2015-12-13T11:43:51Z</time>
      </trkpt>
      <trkpt lat="50.76001" lon="3.64186">
        <ele>83</ele>
        <time>2015-12-13T11:43:53Z</time>
      </trkpt>
      <trkpt lat="50.76003" lon="3.6419">
        <ele>83</ele>
        <time>2015-12-13T11:43:55Z</time>
      </trkpt>
      <trkpt lat="50.76005" lon="3.64192">
        <ele>83</ele>
        <time>2015-12-13T11:43:57Z</time>
      </trkpt>
      <trkpt lat="50.76006" lon="3.64195">
        <ele>83</ele>
        <time>2015-12-13T11:44:00Z</time>
      </trkpt>
      <trkpt lat="50.76007" lon="3.64192">
        <ele>84</ele>
        <time>2015-12-13T11:44:04Z</time>
      </trkpt>
      <trkpt lat="50.76009" lon="3.64192">
        <ele>84</ele>
        <time>2015-12-13T11:44:06Z</time>
      </trkpt>
      <trkpt lat="50.76012" lon="3.64194">
        <ele>84</ele>
        <time>2015-12-13T11:44:08Z</time>
      </trkpt>
      <trkpt lat="50.76015" lon="3.64194">
        <ele>84</ele>
        <time>2015-12-13T11:44:12Z</time>
      </trkpt>
      <trkpt lat="50.76017" lon="3.64195">
        <ele>84</ele>
        <time>2015-12-13T11:44:14Z</time>
      </trkpt>
      <trkpt lat="50.76019" lon="3.64197">
        <ele>84</ele>
        <time>2015-12-13T11:44:16Z</time>
      </trkpt>
      <trkpt lat="50.76021" lon="3.64198">
        <ele>84</ele>
        <time>2015-12-13T11:44:18Z</time>
      </trkpt>
      <trkpt lat="50.76023" lon="3.64199">
        <ele>84</ele>
        <time>2015-12-13T11:44:20Z</time>
      </trkpt>
      <trkpt lat="50.76025" lon="3.64201">
        <ele>85</ele>
        <time>2015-12-13T11:44:23Z</time>
      </trkpt>
      <trkpt lat="50.76027" lon="3.64203">
        <ele>85</ele>
        <time>2015-12-13T11:44:25Z</time>
      </trkpt>
      <trkpt lat="50.76029" lon="3.64206">
        <ele>85</ele>
        <time>2015-12-13T11:44:27Z</time>
      </trkpt>
      <trkpt lat="50.76032" lon="3.64208">
        <ele>85</ele>
        <time>2015-12-13T11:44:29Z</time>
      </trkpt>
      <trkpt lat="50.76034" lon="3.6421">
        <ele>85.7</ele>
        <time>2015-12-13T11:44:31Z</time>
      </trkpt>
      <trkpt lat="50.76036" lon="3.64212">
        <ele>86</ele>
        <time>2015-12-13T11:44:33Z</time>
      </trkpt>
      <trkpt lat="50.76039" lon="3.64213">
        <ele>86</ele>
        <time>2015-12-13T11:44:35Z</time>
      </trkpt>
      <trkpt lat="50.76041" lon="3.64215">
        <ele>86</ele>
        <time>2015-12-13T11:44:37Z</time>
      </trkpt>
      <trkpt lat="50.76043" lon="3.64217">
        <ele>86</ele>
        <time>2015-12-13T11:44:39Z</time>
      </trkpt>
      <trkpt lat="50.76045" lon="3.64218">
        <ele>87.4</ele>
        <time>2015-12-13T11:44:41Z</time>
      </trkpt>
      <trkpt lat="50.76047" lon="3.6422">
        <ele>88</ele>
        <time>2015-12-13T11:44:43Z</time>
      </trkpt>
      <trkpt lat="50.7605" lon="3.64221">
        <ele>88</ele>
        <time>2015-12-13T11:44:45Z</time>
      </trkpt>
      <trkpt lat="50.76052" lon="3.64223">
        <ele>88</ele>
        <time>2015-12-13T11:44:47Z</time>
      </trkpt>
      <trkpt lat="50.76055" lon="3.64222">
        <ele>88</ele>
        <time>2015-12-13T11:44:49Z</time>
      </trkpt>
      <trkpt lat="50.76058" lon="3.64222">
        <ele>89</ele>
        <time>2015-12-13T11:44:52Z</time>
      </trkpt>
      <trkpt lat="50.7606" lon="3.64222">
        <ele>89</ele>
        <time>2015-12-13T11:44:54Z</time>
      </trkpt>
      <trkpt lat="50.76062" lon="3.64222">
        <ele>89</ele>
        <time>2015-12-13T11:44:56Z</time>
      </trkpt>
      <trkpt lat="50.76064" lon="3.64221">
        <ele>89</ele>
        <time>2015-12-13T11:44:58Z</time>
      </trkpt>
      <trkpt lat="50.76066" lon="3.6422">
        <ele>89</ele>
        <time>2015-12-13T11:45:00Z</time>
      </trkpt>
      <trkpt lat="50.76068" lon="3.6422">
        <ele>91</ele>
        <time>2015-12-13T11:45:02Z</time>
      </trkpt>
      <trkpt lat="50.7607" lon="3.64219">
        <ele>91</ele>
        <time>2015-12-13T11:45:04Z</time>
      </trkpt>
      <trkpt lat="50.76072" lon="3.64217">
        <ele>91</ele>
        <time>2015-12-13T11:45:06Z</time>
      </trkpt>
      <trkpt lat="50.76075" lon="3.64215">
        <ele>91</ele>
        <time>2015-12-13T11:45:08Z</time>
      </trkpt>
      <trkpt lat="50.76076" lon="3.64213">
        <ele>91</ele>
        <time>2015-12-13T11:45:09Z</time>
      </trkpt>
      <trkpt lat="50.76078" lon="3.6421">
        <ele>91.7</ele>
        <time>2015-12-13T11:45:11Z</time>
      </trkpt>
      <trkpt lat="50.76079" lon="3.64207">
        <ele>92</ele>
        <time>2015-12-13T11:45:15Z</time>
      </trkpt>
      <trkpt lat="50.7608" lon="3.64204">
        <ele>92</ele>
        <time>2015-12-13T11:45:17Z</time>
      </trkpt>
      <trkpt lat="50.76083" lon="3.64203">
        <ele>92</ele>
        <time>2015-12-13T11:45:19Z</time>
      </trkpt>
      <trkpt lat="50.76085" lon="3.64201">
        <ele>93.4</ele>
        <time>2015-12-13T11:45:21Z</time>
      </trkpt>
      <trkpt lat="50.76086" lon="3.642">
        <ele>94</ele>
        <time>2015-12-13T11:45:23Z</time>
      </trkpt>
      <trkpt lat="50.76088" lon="3.64198">
        <ele>94</ele>
        <time>2015-12-13T11:45:25Z</time>
      </trkpt>
      <trkpt lat="50.7609" lon="3.64196">
        <ele>94</ele>
        <time>2015-12-13T11:45:27Z</time>
      </trkpt>
      <trkpt lat="50.76092" lon="3.64195">
        <ele>94</ele>
        <time>2015-12-13T11:45:28Z</time>
      </trkpt>
      <trkpt lat="50.76095" lon="3.64192">
        <ele>94</ele>
        <time>2015-12-13T11:45:30Z</time>
      </trkpt>
      <trkpt lat="50.76097" lon="3.64191">
        <ele>94</ele>
        <time>2015-12-13T11:45:31Z</time>
      </trkpt>
      <trkpt lat="50.76098" lon="3.6419">
        <ele>94</ele>
        <time>2015-12-13T11:45:32Z</time>
      </trkpt>
      <trkpt lat="50.76101" lon="3.6419">
        <ele>94</ele>
        <time>2015-12-13T11:45:34Z</time>
      </trkpt>
      <trkpt lat="50.76106" lon="3.64185">
        <ele>95.1</ele>
        <time>2015-12-13T11:45:41Z</time>
      </trkpt>
      <trkpt lat="50.76109" lon="3.64182">
        <ele>96</ele>
        <time>2015-12-13T11:45:43Z</time>
      </trkpt>
      <trkpt lat="50.76111" lon="3.64181">
        <ele>96</ele>
        <time>2015-12-13T11:45:44Z</time>
      </trkpt>
      <trkpt lat="50.76113" lon="3.6418">
        <ele>96</ele>
        <time>2015-12-13T11:45:46Z</time>
      </trkpt>
      <trkpt lat="50.76115" lon="3.64178">
        <ele>96</ele>
        <time>2015-12-13T11:45:48Z</time>
      </trkpt>
      <trkpt lat="50.76117" lon="3.64177">
        <ele>96</ele>
        <time>2015-12-13T11:45:50Z</time>
      </trkpt>
      <trkpt lat="50.7612" lon="3.64173">
        <ele>97</ele>
        <time>2015-12-13T11:45:54Z</time>
      </trkpt>
      <trkpt lat="50.76121" lon="3.64171">
        <ele>97</ele>
        <time>2015-12-13T11:45:55Z</time>
      </trkpt>
      <trkpt lat="50.76123" lon="3.64169">
        <ele>97</ele>
        <time>2015-12-13T11:45:56Z</time>
      </trkpt>
      <trkpt lat="50.76125" lon="3.64166">
        <ele>97</ele>
        <time>2015-12-13T11:45:58Z</time>
      </trkpt>
      <trkpt lat="50.76128" lon="3.64164">
        <ele>97</ele>
        <time>2015-12-13T11:46:00Z</time>
      </trkpt>
      <trkpt lat="50.76131" lon="3.64163">
        <ele>98</ele>
        <time>2015-12-13T11:46:03Z</time>
      </trkpt>
      <trkpt lat="50.76134" lon="3.64162">
        <ele>98</ele>
        <time>2015-12-13T11:46:05Z</time>
      </trkpt>
      <trkpt lat="50.76137" lon="3.64161">
        <ele>98</ele>
        <time>2015-12-13T11:46:07Z</time>
      </trkpt>
      <trkpt lat="50.76139" lon="3.64161">
        <ele>98</ele>
        <time>2015-12-13T11:46:08Z</time>
      </trkpt>
      <trkpt lat="50.76142" lon="3.6416">
        <ele>98</ele>
        <time>2015-12-13T11:46:10Z</time>
      </trkpt>
      <trkpt lat="50.76144" lon="3.64158">
        <ele>99</ele>
        <time>2015-12-13T11:46:12Z</time>
      </trkpt>
      <trkpt lat="50.76146" lon="3.64156">
        <ele>99</ele>
        <time>2015-12-13T11:46:15Z</time>
      </trkpt>
      <trkpt lat="50.76148" lon="3.64155">
        <ele>99</ele>
        <time>2015-12-13T11:46:17Z</time>
      </trkpt>
      <trkpt lat="50.7615" lon="3.64153">
        <ele>99</ele>
        <time>2015-12-13T11:46:18Z</time>
      </trkpt>
      <trkpt lat="50.76152" lon="3.64152">
        <ele>99</ele>
        <time>2015-12-13T11:46:20Z</time>
      </trkpt>
      <trkpt lat="50.76155" lon="3.64151">
        <ele>101</ele>
        <time>2015-12-13T11:46:22Z</time>
      </trkpt>
      <trkpt lat="50.76157" lon="3.6415">
        <ele>101</ele>
        <time>2015-12-13T11:46:24Z</time>
      </trkpt>
      <trkpt lat="50.7616" lon="3.64149">
        <ele>101</ele>
        <time>2015-12-13T11:46:27Z</time>
      </trkpt>
      <trkpt lat="50.76162" lon="3.64148">
        <ele>101</ele>
        <time>2015-12-13T11:46:29Z</time>
      </trkpt>
      <trkpt lat="50.76164" lon="3.64146">
        <ele>101.7</ele>
        <time>2015-12-13T11:46:31Z</time>
      </trkpt>
      <trkpt lat="50.76167" lon="3.64144">
        <ele>102</ele>
        <time>2015-12-13T11:46:33Z</time>
      </trkpt>
      <trkpt lat="50.76169" lon="3.64142">
        <ele>102</ele>
        <time>2015-12-13T11:46:35Z</time>
      </trkpt>
      <trkpt lat="50.76171" lon="3.64141">
        <ele>103</ele>
        <time>2015-12-13T11:46:37Z</time>
      </trkpt>
      <trkpt lat="50.76173" lon="3.64138">
        <ele>103</ele>
        <time>2015-12-13T11:46:40Z</time>
      </trkpt>
      <trkpt lat="50.76175" lon="3.64135">
        <ele>104</ele>
        <time>2015-12-13T11:46:43Z</time>
      </trkpt>
      <trkpt lat="50.76177" lon="3.64132">
        <ele>104</ele>
        <time>2015-12-13T11:46:45Z</time>
      </trkpt>
      <trkpt lat="50.76179" lon="3.64128">
        <ele>104</ele>
        <time>2015-12-13T11:46:47Z</time>
      </trkpt>
      <trkpt lat="50.76181" lon="3.64123">
        <ele>104</ele>
        <time>2015-12-13T11:46:49Z</time>
      </trkpt>
      <trkpt lat="50.76181" lon="3.6412">
        <ele>104.7</ele>
        <time>2015-12-13T11:46:51Z</time>
      </trkpt>
      <trkpt lat="50.76181" lon="3.64116">
        <ele>105</ele>
        <time>2015-12-13T11:46:54Z</time>
      </trkpt>
      <trkpt lat="50.76182" lon="3.64111">
        <ele>105</ele>
        <time>2015-12-13T11:46:58Z</time>
      </trkpt>
      <trkpt lat="50.76183" lon="3.64108">
        <ele>105</ele>
        <time>2015-12-13T11:47:00Z</time>
      </trkpt>
      <trkpt lat="50.76186" lon="3.64105">
        <ele>107</ele>
        <time>2015-12-13T11:47:02Z</time>
      </trkpt>
      <trkpt lat="50.76187" lon="3.64101">
        <ele>107</ele>
        <time>2015-12-13T11:47:04Z</time>
      </trkpt>
      <trkpt lat="50.76188" lon="3.64098">
        <ele>107</ele>
        <time>2015-12-13T11:47:07Z</time>
      </trkpt>
      <trkpt lat="50.7619" lon="3.64095">
        <ele>107</ele>
        <time>2015-12-13T11:47:10Z</time>
      </trkpt>
      <trkpt lat="50.76191" lon="3.64091">
        <ele>108</ele>
        <time>2015-12-13T11:47:12Z</time>
      </trkpt>
      <trkpt lat="50.76192" lon="3.64087">
        <ele>109</ele>
        <time>2015-12-13T11:47:14Z</time>
      </trkpt>
      <trkpt lat="50.76193" lon="3.64083">
        <ele>109</ele>
        <time>2015-12-13T11:47:16Z</time>
      </trkpt>
      <trkpt lat="50.76195" lon="3.6408">
        <ele>109</ele>
        <time>2015-12-13T11:47:18Z</time>
      </trkpt>
      <trkpt lat="50.76196" lon="3.64078">
        <ele>109</ele>
        <time>2015-12-13T11:47:20Z</time>
      </trkpt>
      <trkpt lat="50.76198" lon="3.64074">
        <ele>110</ele>
        <time>2015-12-13T11:47:24Z</time>
      </trkpt>
      <trkpt lat="50.762" lon="3.64072">
        <ele>110</ele>
        <time>2015-12-13T11:47:26Z</time>
      </trkpt>
      <trkpt lat="50.76202" lon="3.64071">
        <ele>110</ele>
        <time>2015-12-13T11:47:29Z</time>
      </trkpt>
      <trkpt lat="50.76204" lon="3.64072">
        <ele>113</ele>
        <time>2015-12-13T11:47:32Z</time>
      </trkpt>
      <trkpt lat="50.76213" lon="3.64075">
        <ele>115</ele>
        <time>2015-12-13T11:47:42Z</time>
      </trkpt>
      <trkpt lat="50.76216" lon="3.64074">
        <ele>115</ele>
        <time>2015-12-13T11:47:45Z</time>
      </trkpt>
      <trkpt lat="50.76218" lon="3.64075">
        <ele>117</ele>
        <time>2015-12-13T11:47:47Z</time>
      </trkpt>
      <trkpt lat="50.7622" lon="3.64077">
        <ele>117</ele>
        <time>2015-12-13T11:47:49Z</time>
      </trkpt>
      <trkpt lat="50.76222" lon="3.64081">
        <ele>117.7</ele>
        <time>2015-12-13T11:47:51Z</time>
      </trkpt>
      <trkpt lat="50.76223" lon="3.64084">
        <ele>118</ele>
        <time>2015-12-13T11:47:53Z</time>
      </trkpt>
      <trkpt lat="50.76224" lon="3.64087">
        <ele>118</ele>
        <time>2015-12-13T11:47:55Z</time>
      </trkpt>
      <trkpt lat="50.76226" lon="3.64085">
        <ele>122</ele>
        <time>2015-12-13T11:48:02Z</time>
      </trkpt>
      <trkpt lat="50.76228" lon="3.64081">
        <ele>124</ele>
        <time>2015-12-13T11:48:07Z</time>
      </trkpt>
      <trkpt lat="50.76231" lon="3.64076">
        <ele>127</ele>
        <time>2015-12-13T11:48:20Z</time>
      </trkpt>
      <trkpt lat="50.76233" lon="3.64074">
        <ele>128</ele>
        <time>2015-12-13T11:48:25Z</time>
      </trkpt>
      <trkpt lat="50.76235" lon="3.64072">
        <ele>130.4</ele>
        <time>2015-12-13T11:48:31Z</time>
      </trkpt>
      <trkpt lat="50.76237" lon="3.64072">
        <ele>131</ele>
        <time>2015-12-13T11:48:33Z</time>
      </trkpt>
      <trkpt lat="50.76239" lon="3.64073">
        <ele>131.7</ele>
        <time>2015-12-13T11:48:36Z</time>
      </trkpt>
      <trkpt lat="50.76242" lon="3.64075">
        <ele>132</ele>
        <time>2015-12-13T11:48:39Z</time>
      </trkpt>
      <trkpt lat="50.76244" lon="3.64075">
        <ele>132</ele>
        <time>2015-12-13T11:48:43Z</time>
      </trkpt>
      <trkpt lat="50.76246" lon="3.64074">
        <ele>132</ele>
        <time>2015-12-13T11:48:48Z</time>
      </trkpt>
      <trkpt lat="50.76248" lon="3.64073">
        <ele>132</ele>
        <time>2015-12-13T11:48:50Z</time>
      </trkpt>
      <trkpt lat="50.7625" lon="3.64072">
        <ele>134</ele>
        <time>2015-12-13T11:48:52Z</time>
      </trkpt>
      <trkpt lat="50.76253" lon="3.64073">
        <ele>134</ele>
        <time>2015-12-13T11:48:54Z</time>
      </trkpt>
      <trkpt lat="50.76255" lon="3.64073">
        <ele>137</ele>
        <time>2015-12-13T11:48:58Z</time>
      </trkpt>
      <trkpt lat="50.76257" lon="3.64072">
        <ele>137.5</ele>
        <time>2015-12-13T11:49:01Z</time>
      </trkpt>
      <trkpt lat="50.76259" lon="3.64071">
        <ele>138</ele>
        <time>2015-12-13T11:49:04Z</time>
      </trkpt>
      <trkpt lat="50.76262" lon="3.64071">
        <ele>139</ele>
        <time>2015-12-13T11:49:08Z</time>
      </trkpt>
      <trkpt lat="50.76263" lon="3.64073">
        <ele>139</ele>
        <time>2015-12-13T11:49:11Z</time>
      </trkpt>
      <trkpt lat="50.76265" lon="3.64075">
        <ele>139</ele>
        <time>2015-12-13T11:49:13Z</time>
      </trkpt>
      <trkpt lat="50.76267" lon="3.64079">
        <ele>139</ele>
        <time>2015-12-13T11:49:16Z</time>
      </trkpt>
      <trkpt lat="50.76269" lon="3.64081">
        <ele>139</ele>
        <time>2015-12-13T11:49:18Z</time>
      </trkpt>
      <trkpt lat="50.76271" lon="3.64083">
        <ele>139</ele>
        <time>2015-12-13T11:49:20Z</time>
      </trkpt>
      <trkpt lat="50.76273" lon="3.64086">
        <ele>139</ele>
        <time>2015-12-13T11:49:22Z</time>
      </trkpt>
      <trkpt lat="50.76275" lon="3.64089">
        <ele>139</ele>
        <time>2015-12-13T11:49:24Z</time>
      </trkpt>
      <trkpt lat="50.76278" lon="3.64092">
        <ele>139</ele>
        <time>2015-12-13T11:49:26Z</time>
      </trkpt>
      <trkpt lat="50.7628" lon="3.64094">
        <ele>139</ele>
        <time>2015-12-13T11:49:28Z</time>
      </trkpt>
      <trkpt lat="50.76283" lon="3.64097">
        <ele>139</ele>
        <time>2015-12-13T11:49:30Z</time>
      </trkpt>
      <trkpt lat="50.76285" lon="3.64099">
        <ele>140</ele>
        <time>2015-12-13T11:49:32Z</time>
      </trkpt>
      <trkpt lat="50.76287" lon="3.64101">
        <ele>140</ele>
        <time>2015-12-13T11:49:34Z</time>
      </trkpt>
      <trkpt lat="50.76289" lon="3.64103">
        <ele>140</ele>
        <time>2015-12-13T11:49:36Z</time>
      </trkpt>
      <trkpt lat="50.76291" lon="3.64106">
        <ele>140</ele>
        <time>2015-12-13T11:49:38Z</time>
      </trkpt>
      <trkpt lat="50.76293" lon="3.64108">
        <ele>140</ele>
        <time>2015-12-13T11:49:40Z</time>
      </trkpt>
      <trkpt lat="50.76294" lon="3.6411">
        <ele>141</ele>
        <time>2015-12-13T11:49:42Z</time>
      </trkpt>
      <trkpt lat="50.76296" lon="3.64113">
        <ele>141</ele>
        <time>2015-12-13T11:49:44Z</time>
      </trkpt>
      <trkpt lat="50.76299" lon="3.64114">
        <ele>141</ele>
        <time>2015-12-13T11:49:46Z</time>
      </trkpt>
      <trkpt lat="50.763" lon="3.64116">
        <ele>141</ele>
        <time>2015-12-13T11:49:48Z</time>
      </trkpt>
      <trkpt lat="50.76303" lon="3.64119">
        <ele>141</ele>
        <time>2015-12-13T11:49:50Z</time>
      </trkpt>
      <trkpt lat="50.76305" lon="3.64122">
        <ele>141</ele>
        <time>2015-12-13T11:49:52Z</time>
      </trkpt>
      <trkpt lat="50.76307" lon="3.64124">
        <ele>141</ele>
        <time>2015-12-13T11:49:54Z</time>
      </trkpt>
      <trkpt lat="50.76309" lon="3.64126">
        <ele>141</ele>
        <time>2015-12-13T11:49:56Z</time>
      </trkpt>
      <trkpt lat="50.76311" lon="3.64129">
        <ele>141</ele>
        <time>2015-12-13T11:49:58Z</time>
      </trkpt>
      <trkpt lat="50.76313" lon="3.64131">
        <ele>141.7</ele>
        <time>2015-12-13T11:50:01Z</time>
      </trkpt>
      <trkpt lat="50.76315" lon="3.64134">
        <ele>142</ele>
        <time>2015-12-13T11:50:03Z</time>
      </trkpt>
      <trkpt lat="50.76317" lon="3.64136">
        <ele>142</ele>
        <time>2015-12-13T11:50:05Z</time>
      </trkpt>
      <trkpt lat="50.76319" lon="3.64138">
        <ele>142</ele>
        <time>2015-12-13T11:50:07Z</time>
      </trkpt>
      <trkpt lat="50.76321" lon="3.64141">
        <ele>142</ele>
        <time>2015-12-13T11:50:09Z</time>
      </trkpt>
      <trkpt lat="50.76323" lon="3.64144">
        <ele>142</ele>
        <time>2015-12-13T11:50:11Z</time>
      </trkpt>
      <trkpt lat="50.76325" lon="3.64146">
        <ele>142</ele>
        <time>2015-12-13T11:50:13Z</time>
      </trkpt>
      <trkpt lat="50.76327" lon="3.64148">
        <ele>142</ele>
        <time>2015-12-13T11:50:15Z</time>
      </trkpt>
      <trkpt lat="50.76329" lon="3.6415">
        <ele>142</ele>
        <time>2015-12-13T11:50:17Z</time>
      </trkpt>
      <trkpt lat="50.7633" lon="3.64152">
        <ele>142</ele>
        <time>2015-12-13T11:50:19Z</time>
      </trkpt>
      <trkpt lat="50.76332" lon="3.64155">
        <ele>143</ele>
        <time>2015-12-13T11:50:22Z</time>
      </trkpt>
      <trkpt lat="50.76334" lon="3.64158">
        <ele>143</ele>
        <time>2015-12-13T11:50:24Z</time>
      </trkpt>
      <trkpt lat="50.76336" lon="3.6416">
        <ele>143</ele>
        <time>2015-12-13T11:50:26Z</time>
      </trkpt>
      <trkpt lat="50.76337" lon="3.64162">
        <ele>143</ele>
        <time>2015-12-13T11:50:28Z</time>
      </trkpt>
      <trkpt lat="50.76339" lon="3.64164">
        <ele>143</ele>
        <time>2015-12-13T11:50:30Z</time>
      </trkpt>
      <trkpt lat="50.76341" lon="3.64166">
        <ele>144</ele>
        <time>2015-12-13T11:50:32Z</time>
      </trkpt>
      <trkpt lat="50.76343" lon="3.64168">
        <ele>144</ele>
        <time>2015-12-13T11:50:34Z</time>
      </trkpt>
      <trkpt lat="50.76345" lon="3.64171">
        <ele>144</ele>
        <time>2015-12-13T11:50:36Z</time>
      </trkpt>
      <trkpt lat="50.76348" lon="3.64172">
        <ele>144</ele>
        <time>2015-12-13T11:50:38Z</time>
      </trkpt>
      <trkpt lat="50.7635" lon="3.64174">
        <ele>144</ele>
        <time>2015-12-13T11:50:41Z</time>
      </trkpt>
      <trkpt lat="50.76352" lon="3.64175">
        <ele>144</ele>
        <time>2015-12-13T11:50:43Z</time>
      </trkpt>
      <trkpt lat="50.76354" lon="3.64177">
        <ele>144</ele>
        <time>2015-12-13T11:50:45Z</time>
      </trkpt>
      <trkpt lat="50.76357" lon="3.64178">
        <ele>144</ele>
        <time>2015-12-13T11:50:47Z</time>
      </trkpt>
      <trkpt lat="50.76359" lon="3.64179">
        <ele>144</ele>
        <time>2015-12-13T11:50:49Z</time>
      </trkpt>
      <trkpt lat="50.76361" lon="3.64179">
        <ele>144.7</ele>
        <time>2015-12-13T11:50:51Z</time>
      </trkpt>
      <trkpt lat="50.76363" lon="3.64182">
        <ele>145</ele>
        <time>2015-12-13T11:50:54Z</time>
      </trkpt>
      <trkpt lat="50.76364" lon="3.64186">
        <ele>145</ele>
        <time>2015-12-13T11:51:18Z</time>
      </trkpt>
      <trkpt lat="50.76365" lon="3.64188">
        <ele>145</ele>
        <time>2015-12-13T11:51:20Z</time>
      </trkpt>
      <trkpt lat="50.76367" lon="3.64191">
        <ele>145</ele>
        <time>2015-12-13T11:51:22Z</time>
      </trkpt>
      <trkpt lat="50.76369" lon="3.64193">
        <ele>145</ele>
        <time>2015-12-13T11:51:24Z</time>
      </trkpt>
      <trkpt lat="50.76371" lon="3.64195">
        <ele>145</ele>
        <time>2015-12-13T11:51:26Z</time>
      </trkpt>
      <trkpt lat="50.76373" lon="3.64197">
        <ele>145</ele>
        <time>2015-12-13T11:51:28Z</time>
      </trkpt>
      <trkpt lat="50.76375" lon="3.64198">
        <ele>145</ele>
        <time>2015-12-13T11:51:30Z</time>
      </trkpt>
      <trkpt lat="50.76377" lon="3.64199">
        <ele>144</ele>
        <time>2015-12-13T11:51:32Z</time>
      </trkpt>
      <trkpt lat="50.76378" lon="3.64201">
        <ele>144</ele>
        <time>2015-12-13T11:51:34Z</time>
      </trkpt>
      <trkpt lat="50.76381" lon="3.64203">
        <ele>144</ele>
        <time>2015-12-13T11:51:36Z</time>
      </trkpt>
      <trkpt lat="50.76382" lon="3.64205">
        <ele>144</ele>
        <time>2015-12-13T11:51:38Z</time>
      </trkpt>
      <trkpt lat="50.76384" lon="3.64206">
        <ele>144</ele>
        <time>2015-12-13T11:51:40Z</time>
      </trkpt>
      <trkpt lat="50.76386" lon="3.64205">
        <ele>145</ele>
        <time>2015-12-13T11:51:42Z</time>
      </trkpt>
      <trkpt lat="50.76387" lon="3.64207">
        <ele>145</ele>
        <time>2015-12-13T11:51:44Z</time>
      </trkpt>
      <trkpt lat="50.7639" lon="3.6421">
        <ele>145</ele>
        <time>2015-12-13T11:51:48Z</time>
      </trkpt>
      <trkpt lat="50.76392" lon="3.64212">
        <ele>145</ele>
        <time>2015-12-13T11:51:50Z</time>
      </trkpt>
      <trkpt lat="50.76395" lon="3.6422">
        <ele>145</ele>
        <time>2015-12-13T11:51:58Z</time>
      </trkpt>
      <trkpt lat="50.76397" lon="3.64226">
        <ele>145</ele>
        <time>2015-12-13T11:52:17Z</time>
      </trkpt>
      <trkpt lat="50.76398" lon="3.64229">
        <ele>146</ele>
        <time>2015-12-13T11:52:21Z</time>
      </trkpt>
      <trkpt lat="50.76401" lon="3.64229">
        <ele>146</ele>
        <time>2015-12-13T11:52:24Z</time>
      </trkpt>
      <trkpt lat="50.76403" lon="3.64232">
        <ele>146</ele>
        <time>2015-12-13T11:52:27Z</time>
      </trkpt>
      <trkpt lat="50.76405" lon="3.64235">
        <ele>146</ele>
        <time>2015-12-13T11:52:29Z</time>
      </trkpt>
      <trkpt lat="50.76407" lon="3.64236">
        <ele>145.3</ele>
        <time>2015-12-13T11:52:31Z</time>
      </trkpt>
      <trkpt lat="50.76409" lon="3.64239">
        <ele>145</ele>
        <time>2015-12-13T11:52:33Z</time>
      </trkpt>
      <trkpt lat="50.76411" lon="3.64242">
        <ele>145</ele>
        <time>2015-12-13T11:52:35Z</time>
      </trkpt>
      <trkpt lat="50.76413" lon="3.64244">
        <ele>145</ele>
        <time>2015-12-13T11:52:37Z</time>
      </trkpt>
      <trkpt lat="50.76415" lon="3.64245">
        <ele>145</ele>
        <time>2015-12-13T11:52:39Z</time>
      </trkpt>
      <trkpt lat="50.76417" lon="3.64247">
        <ele>144.3</ele>
        <time>2015-12-13T11:52:41Z</time>
      </trkpt>
      <trkpt lat="50.76419" lon="3.64249">
        <ele>144</ele>
        <time>2015-12-13T11:52:43Z</time>
      </trkpt>
      <trkpt lat="50.76421" lon="3.6425">
        <ele>144</ele>
        <time>2015-12-13T11:52:47Z</time>
      </trkpt>
      <trkpt lat="50.76424" lon="3.64249">
        <ele>144</ele>
        <time>2015-12-13T11:52:49Z</time>
      </trkpt>
      <trkpt lat="50.76426" lon="3.64249">
        <ele>145.1</ele>
        <time>2015-12-13T11:52:51Z</time>
      </trkpt>
      <trkpt lat="50.76428" lon="3.64252">
        <ele>146</ele>
        <time>2015-12-13T11:52:53Z</time>
      </trkpt>
      <trkpt lat="50.7643" lon="3.64254">
        <ele>146</ele>
        <time>2015-12-13T11:52:55Z</time>
      </trkpt>
      <trkpt lat="50.7643" lon="3.64258">
        <ele>146</ele>
        <time>2015-12-13T11:52:57Z</time>
      </trkpt>
      <trkpt lat="50.7643" lon="3.64263">
        <ele>146</ele>
        <time>2015-12-13T11:52:59Z</time>
      </trkpt>
      <trkpt lat="50.7643" lon="3.64268">
        <ele>145.3</ele>
        <time>2015-12-13T11:53:01Z</time>
      </trkpt>
      <trkpt lat="50.7643" lon="3.64272">
        <ele>145</ele>
        <time>2015-12-13T11:53:03Z</time>
      </trkpt>
      <trkpt lat="50.7643" lon="3.64277">
        <ele>145</ele>
        <time>2015-12-13T11:53:06Z</time>
      </trkpt>
      <trkpt lat="50.76433" lon="3.6428">
        <ele>145</ele>
        <time>2015-12-13T11:53:08Z</time>
      </trkpt>
      <trkpt lat="50.76435" lon="3.64282">
        <ele>145</ele>
        <time>2015-12-13T11:53:09Z</time>
      </trkpt>
      <trkpt lat="50.76436" lon="3.64283">
        <ele>145</ele>
        <time>2015-12-13T11:53:10Z</time>
      </trkpt>
      <trkpt lat="50.76438" lon="3.64285">
        <ele>145</ele>
        <time>2015-12-13T11:53:11Z</time>
      </trkpt>
      <trkpt lat="50.7644" lon="3.64286">
        <ele>145</ele>
        <time>2015-12-13T11:53:12Z</time>
      </trkpt>
      <trkpt lat="50.76442" lon="3.64289">
        <ele>145</ele>
        <time>2015-12-13T11:53:14Z</time>
      </trkpt>
      <trkpt lat="50.76445" lon="3.64293">
        <ele>145</ele>
        <time>2015-12-13T11:53:16Z</time>
      </trkpt>
      <trkpt lat="50.76447" lon="3.64296">
        <ele>145</ele>
        <time>2015-12-13T11:53:18Z</time>
      </trkpt>
      <trkpt lat="50.76448" lon="3.64299">
        <ele>145</ele>
        <time>2015-12-13T11:53:19Z</time>
      </trkpt>
      <trkpt lat="50.7645" lon="3.64302">
        <ele>145</ele>
        <time>2015-12-13T11:53:20Z</time>
      </trkpt>
      <trkpt lat="50.76451" lon="3.64304">
        <ele>143.9</ele>
        <time>2015-12-13T11:53:21Z</time>
      </trkpt>
      <trkpt lat="50.76452" lon="3.64308">
        <ele>143</ele>
        <time>2015-12-13T11:53:22Z</time>
      </trkpt>
      <trkpt lat="50.76454" lon="3.6431">
        <ele>143</ele>
        <time>2015-12-13T11:53:23Z</time>
      </trkpt>
      <trkpt lat="50.76455" lon="3.64313">
        <ele>143</ele>
        <time>2015-12-13T11:53:24Z</time>
      </trkpt>
      <trkpt lat="50.76456" lon="3.64317">
        <ele>143</ele>
        <time>2015-12-13T11:53:25Z</time>
      </trkpt>
      <trkpt lat="50.76457" lon="3.6432">
        <ele>143</ele>
        <time>2015-12-13T11:53:26Z</time>
      </trkpt>
      <trkpt lat="50.76459" lon="3.64323">
        <ele>143</ele>
        <time>2015-12-13T11:53:27Z</time>
      </trkpt>
      <trkpt lat="50.7646" lon="3.64325">
        <ele>143</ele>
        <time>2015-12-13T11:53:28Z</time>
      </trkpt>
      <trkpt lat="50.76462" lon="3.64328">
        <ele>143</ele>
        <time>2015-12-13T11:53:29Z</time>
      </trkpt>
      <trkpt lat="50.76463" lon="3.64331">
        <ele>143</ele>
        <time>2015-12-13T11:53:30Z</time>
      </trkpt>
      <trkpt lat="50.76464" lon="3.64335">
        <ele>142.3</ele>
        <time>2015-12-13T11:53:31Z</time>
      </trkpt>
      <trkpt lat="50.76465" lon="3.64338">
        <ele>142</ele>
        <time>2015-12-13T11:53:32Z</time>
      </trkpt>
      <trkpt lat="50.76467" lon="3.64341">
        <ele>142</ele>
        <time>2015-12-13T11:53:33Z</time>
      </trkpt>
      <trkpt lat="50.76468" lon="3.64344">
        <ele>142</ele>
        <time>2015-12-13T11:53:34Z</time>
      </trkpt>
      <trkpt lat="50.76469" lon="3.64347">
        <ele>142</ele>
        <time>2015-12-13T11:53:35Z</time>
      </trkpt>
      <trkpt lat="50.7647" lon="3.64351">
        <ele>142</ele>
        <time>2015-12-13T11:53:36Z</time>
      </trkpt>
      <trkpt lat="50.76471" lon="3.64354">
        <ele>142</ele>
        <time>2015-12-13T11:53:37Z</time>
      </trkpt>
      <trkpt lat="50.76473" lon="3.64358">
        <ele>142</ele>
        <time>2015-12-13T11:53:38Z</time>
      </trkpt>
      <trkpt lat="50.76474" lon="3.64361">
        <ele>142</ele>
        <time>2015-12-13T11:53:39Z</time>
      </trkpt>
      <trkpt lat="50.76476" lon="3.64364">
        <ele>142</ele>
        <time>2015-12-13T11:53:40Z</time>
      </trkpt>
      <trkpt lat="50.76477" lon="3.64367">
        <ele>140.6</ele>
        <time>2015-12-13T11:53:41Z</time>
      </trkpt>
      <trkpt lat="50.76478" lon="3.6437">
        <ele>140</ele>
        <time>2015-12-13T11:53:42Z</time>
      </trkpt>
      <trkpt lat="50.7648" lon="3.64373">
        <ele>140</ele>
        <time>2015-12-13T11:53:43Z</time>
      </trkpt>
      <trkpt lat="50.76481" lon="3.64377">
        <ele>140</ele>
        <time>2015-12-13T11:53:44Z</time>
      </trkpt>
      <trkpt lat="50.76483" lon="3.64382">
        <ele>140</ele>
        <time>2015-12-13T11:53:45Z</time>
      </trkpt>
      <trkpt lat="50.76484" lon="3.64386">
        <ele>140</ele>
        <time>2015-12-13T11:53:46Z</time>
      </trkpt>
      <trkpt lat="50.76486" lon="3.64389">
        <ele>140</ele>
        <time>2015-12-13T11:53:47Z</time>
      </trkpt>
      <trkpt lat="50.76487" lon="3.64393">
        <ele>140</ele>
        <time>2015-12-13T11:53:48Z</time>
      </trkpt>
      <trkpt lat="50.76488" lon="3.64396">
        <ele>140</ele>
        <time>2015-12-13T11:53:49Z</time>
      </trkpt>
      <trkpt lat="50.7649" lon="3.64399">
        <ele>140</ele>
        <time>2015-12-13T11:53:50Z</time>
      </trkpt>
      <trkpt lat="50.76491" lon="3.64401">
        <ele>138.6</ele>
        <time>2015-12-13T11:53:51Z</time>
      </trkpt>
      <trkpt lat="50.76493" lon="3.64404">
        <ele>138</ele>
        <time>2015-12-13T11:53:52Z</time>
      </trkpt>
      <trkpt lat="50.76494" lon="3.64407">
        <ele>138</ele>
        <time>2015-12-13T11:53:53Z</time>
      </trkpt>
      <trkpt lat="50.76496" lon="3.64411">
        <ele>138</ele>
        <time>2015-12-13T11:53:54Z</time>
      </trkpt>
      <trkpt lat="50.76498" lon="3.64414">
        <ele>138</ele>
        <time>2015-12-13T11:53:55Z</time>
      </trkpt>
      <trkpt lat="50.76499" lon="3.64417">
        <ele>137.3</ele>
        <time>2015-12-13T11:53:56Z</time>
      </trkpt>
      <trkpt lat="50.76501" lon="3.6442">
        <ele>137</ele>
        <time>2015-12-13T11:53:57Z</time>
      </trkpt>
      <trkpt lat="50.76503" lon="3.64424">
        <ele>137</ele>
        <time>2015-12-13T11:53:58Z</time>
      </trkpt>
      <trkpt lat="50.76504" lon="3.64428">
        <ele>137</ele>
        <time>2015-12-13T11:53:59Z</time>
      </trkpt>
      <trkpt lat="50.76505" lon="3.64432">
        <ele>137</ele>
        <time>2015-12-13T11:54:00Z</time>
      </trkpt>
      <trkpt lat="50.76506" lon="3.64435">
        <ele>135.9</ele>
        <time>2015-12-13T11:54:01Z</time>
      </trkpt>
      <trkpt lat="50.76508" lon="3.64438">
        <ele>135</ele>
        <time>2015-12-13T11:54:02Z</time>
      </trkpt>
      <trkpt lat="50.76509" lon="3.64441">
        <ele>135</ele>
        <time>2015-12-13T11:54:03Z</time>
      </trkpt>
      <trkpt lat="50.76511" lon="3.64444">
        <ele>135</ele>
        <time>2015-12-13T11:54:04Z</time>
      </trkpt>
      <trkpt lat="50.76513" lon="3.64448">
        <ele>135</ele>
        <time>2015-12-13T11:54:05Z</time>
      </trkpt>
      <trkpt lat="50.76515" lon="3.64452">
        <ele>135</ele>
        <time>2015-12-13T11:54:06Z</time>
      </trkpt>
      <trkpt lat="50.76517" lon="3.64456">
        <ele>135</ele>
        <time>2015-12-13T11:54:07Z</time>
      </trkpt>
      <trkpt lat="50.76519" lon="3.64459">
        <ele>135</ele>
        <time>2015-12-13T11:54:08Z</time>
      </trkpt>
      <trkpt lat="50.76521" lon="3.64461">
        <ele>135</ele>
        <time>2015-12-13T11:54:09Z</time>
      </trkpt>
      <trkpt lat="50.76524" lon="3.64464">
        <ele>135</ele>
        <time>2015-12-13T11:54:10Z</time>
      </trkpt>
      <trkpt lat="50.76526" lon="3.64467">
        <ele>135</ele>
        <time>2015-12-13T11:54:11Z</time>
      </trkpt>
      <trkpt lat="50.76527" lon="3.6447">
        <ele>135</ele>
        <time>2015-12-13T11:54:12Z</time>
      </trkpt>
      <trkpt lat="50.76529" lon="3.64473">
        <ele>135</ele>
        <time>2015-12-13T11:54:13Z</time>
      </trkpt>
      <trkpt lat="50.7653" lon="3.64477">
        <ele>135</ele>
        <time>2015-12-13T11:54:14Z</time>
      </trkpt>
      <trkpt lat="50.76531" lon="3.64481">
        <ele>135</ele>
        <time>2015-12-13T11:54:15Z</time>
      </trkpt>
      <trkpt lat="50.76532" lon="3.64484">
        <ele>135</ele>
        <time>2015-12-13T11:54:16Z</time>
      </trkpt>
      <trkpt lat="50.76532" lon="3.64489">
        <ele>135</ele>
        <time>2015-12-13T11:54:17Z</time>
      </trkpt>
      <trkpt lat="50.76533" lon="3.64494">
        <ele>135</ele>
        <time>2015-12-13T11:54:18Z</time>
      </trkpt>
      <trkpt lat="50.76532" lon="3.64498">
        <ele>135</ele>
        <time>2015-12-13T11:54:19Z</time>
      </trkpt>
      <trkpt lat="50.76532" lon="3.64502">
        <ele>135</ele>
        <time>2015-12-13T11:54:20Z</time>
      </trkpt>
      <trkpt lat="50.76531" lon="3.64506">
        <ele>134.3</ele>
        <time>2015-12-13T11:54:21Z</time>
      </trkpt>
      <trkpt lat="50.76531" lon="3.6451">
        <ele>134</ele>
        <time>2015-12-13T11:54:22Z</time>
      </trkpt>
      <trkpt lat="50.7653" lon="3.64513">
        <ele>134</ele>
        <time>2015-12-13T11:54:23Z</time>
      </trkpt>
      <trkpt lat="50.7653" lon="3.64518">
        <ele>134</ele>
        <time>2015-12-13T11:54:24Z</time>
      </trkpt>
      <trkpt lat="50.76531" lon="3.64522">
        <ele>134</ele>
        <time>2015-12-13T11:54:25Z</time>
      </trkpt>
      <trkpt lat="50.76532" lon="3.64525">
        <ele>134</ele>
        <time>2015-12-13T11:54:26Z</time>
      </trkpt>
      <trkpt lat="50.76534" lon="3.64527">
        <ele>134</ele>
        <time>2015-12-13T11:54:28Z</time>
      </trkpt>
      <trkpt lat="50.76536" lon="3.64525">
        <ele>134</ele>
        <time>2015-12-13T11:54:30Z</time>
      </trkpt>
      <trkpt lat="50.76538" lon="3.64522">
        <ele>132</ele>
        <time>2015-12-13T11:54:32Z</time>
      </trkpt>
      <trkpt lat="50.7654" lon="3.64519">
        <ele>132</ele>
        <time>2015-12-13T11:54:34Z</time>
      </trkpt>
      <trkpt lat="50.76541" lon="3.64514">
        <ele>132</ele>
        <time>2015-12-13T11:54:36Z</time>
      </trkpt>
      <trkpt lat="50.76542" lon="3.6451">
        <ele>132</ele>
        <time>2015-12-13T11:54:38Z</time>
      </trkpt>
      <trkpt lat="50.76543" lon="3.64507">
        <ele>132</ele>
        <time>2015-12-13T11:54:40Z</time>
      </trkpt>
      <trkpt lat="50.76545" lon="3.64501">
        <ele>132</ele>
        <time>2015-12-13T11:54:42Z</time>
      </trkpt>
      <trkpt lat="50.76546" lon="3.64498">
        <ele>132</ele>
        <time>2015-12-13T11:54:43Z</time>
      </trkpt>
      <trkpt lat="50.76547" lon="3.64496">
        <ele>132</ele>
        <time>2015-12-13T11:54:44Z</time>
      </trkpt>
      <trkpt lat="50.76549" lon="3.64493">
        <ele>132</ele>
        <time>2015-12-13T11:54:45Z</time>
      </trkpt>
      <trkpt lat="50.7655" lon="3.6449">
        <ele>132</ele>
        <time>2015-12-13T11:54:46Z</time>
      </trkpt>
      <trkpt lat="50.76551" lon="3.64487">
        <ele>132</ele>
        <time>2015-12-13T11:54:47Z</time>
      </trkpt>
      <trkpt lat="50.76553" lon="3.64484">
        <ele>132</ele>
        <time>2015-12-13T11:54:48Z</time>
      </trkpt>
      <trkpt lat="50.76554" lon="3.64481">
        <ele>132</ele>
        <time>2015-12-13T11:54:49Z</time>
      </trkpt>
      <trkpt lat="50.76556" lon="3.64478">
        <ele>132</ele>
        <time>2015-12-13T11:54:50Z</time>
      </trkpt>
      <trkpt lat="50.76558" lon="3.64476">
        <ele>130.6</ele>
        <time>2015-12-13T11:54:51Z</time>
      </trkpt>
      <trkpt lat="50.76559" lon="3.64474">
        <ele>130</ele>
        <time>2015-12-13T11:54:52Z</time>
      </trkpt>
      <trkpt lat="50.76561" lon="3.64472">
        <ele>130</ele>
        <time>2015-12-13T11:54:53Z</time>
      </trkpt>
      <trkpt lat="50.76564" lon="3.6447">
        <ele>130</ele>
        <time>2015-12-13T11:54:54Z</time>
      </trkpt>
      <trkpt lat="50.76566" lon="3.64467">
        <ele>130</ele>
        <time>2015-12-13T11:54:55Z</time>
      </trkpt>
      <trkpt lat="50.76568" lon="3.64466">
        <ele>130</ele>
        <time>2015-12-13T11:54:56Z</time>
      </trkpt>
      <trkpt lat="50.76571" lon="3.64464">
        <ele>130</ele>
        <time>2015-12-13T11:54:57Z</time>
      </trkpt>
      <trkpt lat="50.76574" lon="3.64463">
        <ele>130</ele>
        <time>2015-12-13T11:54:58Z</time>
      </trkpt>
      <trkpt lat="50.76576" lon="3.64462">
        <ele>130</ele>
        <time>2015-12-13T11:54:59Z</time>
      </trkpt>
      <trkpt lat="50.76579" lon="3.64461">
        <ele>130</ele>
        <time>2015-12-13T11:55:00Z</time>
      </trkpt>
      <trkpt lat="50.76582" lon="3.6446">
        <ele>128.9</ele>
        <time>2015-12-13T11:55:01Z</time>
      </trkpt>
      <trkpt lat="50.76584" lon="3.64459">
        <ele>128</ele>
        <time>2015-12-13T11:55:02Z</time>
      </trkpt>
      <trkpt lat="50.76587" lon="3.64458">
        <ele>128</ele>
        <time>2015-12-13T11:55:03Z</time>
      </trkpt>
      <trkpt lat="50.7659" lon="3.64458">
        <ele>128</ele>
        <time>2015-12-13T11:55:04Z</time>
      </trkpt>
      <trkpt lat="50.76593" lon="3.64457">
        <ele>128</ele>
        <time>2015-12-13T11:55:05Z</time>
      </trkpt>
      <trkpt lat="50.76595" lon="3.64456">
        <ele>128</ele>
        <time>2015-12-13T11:55:06Z</time>
      </trkpt>
      <trkpt lat="50.76598" lon="3.64455">
        <ele>128</ele>
        <time>2015-12-13T11:55:07Z</time>
      </trkpt>
      <trkpt lat="50.766" lon="3.64454">
        <ele>128</ele>
        <time>2015-12-13T11:55:08Z</time>
      </trkpt>
      <trkpt lat="50.76603" lon="3.64453">
        <ele>128</ele>
        <time>2015-12-13T11:55:09Z</time>
      </trkpt>
      <trkpt lat="50.76605" lon="3.64453">
        <ele>128</ele>
        <time>2015-12-13T11:55:10Z</time>
      </trkpt>
      <trkpt lat="50.76608" lon="3.64452">
        <ele>128</ele>
        <time>2015-12-13T11:55:11Z</time>
      </trkpt>
      <trkpt lat="50.76611" lon="3.64451">
        <ele>128</ele>
        <time>2015-12-13T11:55:12Z</time>
      </trkpt>
      <trkpt lat="50.76614" lon="3.6445">
        <ele>128</ele>
        <time>2015-12-13T11:55:13Z</time>
      </trkpt>
      <trkpt lat="50.76617" lon="3.64449">
        <ele>128</ele>
        <time>2015-12-13T11:55:14Z</time>
      </trkpt>
      <trkpt lat="50.7662" lon="3.64448">
        <ele>128</ele>
        <time>2015-12-13T11:55:15Z</time>
      </trkpt>
      <trkpt lat="50.76623" lon="3.64447">
        <ele>128</ele>
        <time>2015-12-13T11:55:16Z</time>
      </trkpt>
      <trkpt lat="50.76626" lon="3.64446">
        <ele>128</ele>
        <time>2015-12-13T11:55:17Z</time>
      </trkpt>
      <trkpt lat="50.76628" lon="3.64445">
        <ele>128</ele>
        <time>2015-12-13T11:55:18Z</time>
      </trkpt>
      <trkpt lat="50.76631" lon="3.64444">
        <ele>128</ele>
        <time>2015-12-13T11:55:19Z</time>
      </trkpt>
      <trkpt lat="50.76634" lon="3.64443">
        <ele>128</ele>
        <time>2015-12-13T11:55:20Z</time>
      </trkpt>
      <trkpt lat="50.76636" lon="3.64442">
        <ele>127.5</ele>
        <time>2015-12-13T11:55:21Z</time>
      </trkpt>
      <trkpt lat="50.76639" lon="3.64441">
        <ele>127</ele>
        <time>2015-12-13T11:55:22Z</time>
      </trkpt>
      <trkpt lat="50.76642" lon="3.64441">
        <ele>127</ele>
        <time>2015-12-13T11:55:23Z</time>
      </trkpt>
      <trkpt lat="50.76644" lon="3.6444">
        <ele>127</ele>
        <time>2015-12-13T11:55:24Z</time>
      </trkpt>
      <trkpt lat="50.76647" lon="3.64438">
        <ele>127</ele>
        <time>2015-12-13T11:55:25Z</time>
      </trkpt>
      <trkpt lat="50.7665" lon="3.64437">
        <ele>127</ele>
        <time>2015-12-13T11:55:26Z</time>
      </trkpt>
      <trkpt lat="50.76652" lon="3.64436">
        <ele>127</ele>
        <time>2015-12-13T11:55:27Z</time>
      </trkpt>
      <trkpt lat="50.76655" lon="3.64436">
        <ele>127</ele>
        <time>2015-12-13T11:55:28Z</time>
      </trkpt>
      <trkpt lat="50.76658" lon="3.64435">
        <ele>127</ele>
        <time>2015-12-13T11:55:29Z</time>
      </trkpt>
      <trkpt lat="50.76661" lon="3.64434">
        <ele>127</ele>
        <time>2015-12-13T11:55:30Z</time>
      </trkpt>
      <trkpt lat="50.76663" lon="3.64432">
        <ele>127</ele>
        <time>2015-12-13T11:55:31Z</time>
      </trkpt>
      <trkpt lat="50.76666" lon="3.64431">
        <ele>127</ele>
        <time>2015-12-13T11:55:32Z</time>
      </trkpt>
      <trkpt lat="50.76669" lon="3.64431">
        <ele>127</ele>
        <time>2015-12-13T11:55:33Z</time>
      </trkpt>
      <trkpt lat="50.76671" lon="3.6443">
        <ele>127</ele>
        <time>2015-12-13T11:55:34Z</time>
      </trkpt>
      <trkpt lat="50.76674" lon="3.64429">
        <ele>127</ele>
        <time>2015-12-13T11:55:35Z</time>
      </trkpt>
      <trkpt lat="50.76677" lon="3.64428">
        <ele>127</ele>
        <time>2015-12-13T11:55:36Z</time>
      </trkpt>
      <trkpt lat="50.76679" lon="3.64428">
        <ele>127</ele>
        <time>2015-12-13T11:55:37Z</time>
      </trkpt>
      <trkpt lat="50.76682" lon="3.64427">
        <ele>127</ele>
        <time>2015-12-13T11:55:38Z</time>
      </trkpt>
      <trkpt lat="50.76685" lon="3.64427">
        <ele>127</ele>
        <time>2015-12-13T11:55:39Z</time>
      </trkpt>
      <trkpt lat="50.76687" lon="3.64426">
        <ele>127</ele>
        <time>2015-12-13T11:55:40Z</time>
      </trkpt>
      <trkpt lat="50.7669" lon="3.64426">
        <ele>125.7</ele>
        <time>2015-12-13T11:55:41Z</time>
      </trkpt>
      <trkpt lat="50.76693" lon="3.64425">
        <ele>125</ele>
        <time>2015-12-13T11:55:42Z</time>
      </trkpt>
      <trkpt lat="50.76696" lon="3.64425">
        <ele>125</ele>
        <time>2015-12-13T11:55:43Z</time>
      </trkpt>
      <trkpt lat="50.76699" lon="3.64425">
        <ele>125</ele>
        <time>2015-12-13T11:55:44Z</time>
      </trkpt>
      <trkpt lat="50.76702" lon="3.64425">
        <ele>125</ele>
        <time>2015-12-13T11:55:45Z</time>
      </trkpt>
      <trkpt lat="50.76704" lon="3.64424">
        <ele>125.7</ele>
        <time>2015-12-13T11:55:46Z</time>
      </trkpt>
      <trkpt lat="50.76707" lon="3.64424">
        <ele>126</ele>
        <time>2015-12-13T11:55:47Z</time>
      </trkpt>
      <trkpt lat="50.7671" lon="3.64424">
        <ele>126</ele>
        <time>2015-12-13T11:55:48Z</time>
      </trkpt>
      <trkpt lat="50.76713" lon="3.64424">
        <ele>126</ele>
        <time>2015-12-13T11:55:49Z</time>
      </trkpt>
      <trkpt lat="50.76716" lon="3.64424">
        <ele>126</ele>
        <time>2015-12-13T11:55:50Z</time>
      </trkpt>
      <trkpt lat="50.76718" lon="3.64423">
        <ele>125.3</ele>
        <time>2015-12-13T11:55:51Z</time>
      </trkpt>
      <trkpt lat="50.76721" lon="3.64423">
        <ele>125</ele>
        <time>2015-12-13T11:55:52Z</time>
      </trkpt>
      <trkpt lat="50.76724" lon="3.64423">
        <ele>125</ele>
        <time>2015-12-13T11:55:53Z</time>
      </trkpt>
      <trkpt lat="50.76726" lon="3.64422">
        <ele>125</ele>
        <time>2015-12-13T11:55:54Z</time>
      </trkpt>
      <trkpt lat="50.76729" lon="3.64422">
        <ele>125</ele>
        <time>2015-12-13T11:55:55Z</time>
      </trkpt>
      <trkpt lat="50.76732" lon="3.64421">
        <ele>125</ele>
        <time>2015-12-13T11:55:56Z</time>
      </trkpt>
      <trkpt lat="50.76735" lon="3.6442">
        <ele>125</ele>
        <time>2015-12-13T11:55:57Z</time>
      </trkpt>
      <trkpt lat="50.76738" lon="3.64419">
        <ele>125</ele>
        <time>2015-12-13T11:55:58Z</time>
      </trkpt>
      <trkpt lat="50.76741" lon="3.64418">
        <ele>125</ele>
        <time>2015-12-13T11:55:59Z</time>
      </trkpt>
      <trkpt lat="50.76743" lon="3.64417">
        <ele>125</ele>
        <time>2015-12-13T11:56:00Z</time>
      </trkpt>
      <trkpt lat="50.76746" lon="3.64415">
        <ele>122.3</ele>
        <time>2015-12-13T11:56:01Z</time>
      </trkpt>
      <trkpt lat="50.76748" lon="3.64413">
        <ele>120</ele>
        <time>2015-12-13T11:56:02Z</time>
      </trkpt>
      <trkpt lat="50.76751" lon="3.64411">
        <ele>120</ele>
        <time>2015-12-13T11:56:03Z</time>
      </trkpt>
      <trkpt lat="50.76753" lon="3.64409">
        <ele>120</ele>
        <time>2015-12-13T11:56:04Z</time>
      </trkpt>
      <trkpt lat="50.76755" lon="3.64407">
        <ele>120</ele>
        <time>2015-12-13T11:56:05Z</time>
      </trkpt>
      <trkpt lat="50.76758" lon="3.64405">
        <ele>120</ele>
        <time>2015-12-13T11:56:06Z</time>
      </trkpt>
      <trkpt lat="50.7676" lon="3.64402">
        <ele>120</ele>
        <time>2015-12-13T11:56:07Z</time>
      </trkpt>
      <trkpt lat="50.76763" lon="3.644">
        <ele>120</ele>
        <time>2015-12-13T11:56:08Z</time>
      </trkpt>
      <trkpt lat="50.76765" lon="3.64397">
        <ele>120</ele>
        <time>2015-12-13T11:56:09Z</time>
      </trkpt>
      <trkpt lat="50.76767" lon="3.64394">
        <ele>120</ele>
        <time>2015-12-13T11:56:10Z</time>
      </trkpt>
      <trkpt lat="50.76769" lon="3.64392">
        <ele>119.3</ele>
        <time>2015-12-13T11:56:11Z</time>
      </trkpt>
      <trkpt lat="50.76772" lon="3.64389">
        <ele>119</ele>
        <time>2015-12-13T11:56:12Z</time>
      </trkpt>
      <trkpt lat="50.76774" lon="3.64386">
        <ele>119</ele>
        <time>2015-12-13T11:56:13Z</time>
      </trkpt>
      <trkpt lat="50.76776" lon="3.64384">
        <ele>119</ele>
        <time>2015-12-13T11:56:14Z</time>
      </trkpt>
      <trkpt lat="50.76778" lon="3.64381">
        <ele>119</ele>
        <time>2015-12-13T11:56:15Z</time>
      </trkpt>
      <trkpt lat="50.7678" lon="3.64378">
        <ele>119</ele>
        <time>2015-12-13T11:56:16Z</time>
      </trkpt>
      <trkpt lat="50.76782" lon="3.64375">
        <ele>119</ele>
        <time>2015-12-13T11:56:17Z</time>
      </trkpt>
      <trkpt lat="50.76784" lon="3.64372">
        <ele>119</ele>
        <time>2015-12-13T11:56:18Z</time>
      </trkpt>
      <trkpt lat="50.76786" lon="3.64369">
        <ele>119</ele>
        <time>2015-12-13T11:56:19Z</time>
      </trkpt>
      <trkpt lat="50.76788" lon="3.64366">
        <ele>119</ele>
        <time>2015-12-13T11:56:20Z</time>
      </trkpt>
      <trkpt lat="50.76791" lon="3.64363">
        <ele>118.3</ele>
        <time>2015-12-13T11:56:21Z</time>
      </trkpt>
      <trkpt lat="50.76793" lon="3.64361">
        <ele>118</ele>
        <time>2015-12-13T11:56:22Z</time>
      </trkpt>
      <trkpt lat="50.76795" lon="3.64358">
        <ele>118</ele>
        <time>2015-12-13T11:56:23Z</time>
      </trkpt>
      <trkpt lat="50.76797" lon="3.64355">
        <ele>118</ele>
        <time>2015-12-13T11:56:24Z</time>
      </trkpt>
      <trkpt lat="50.76799" lon="3.64353">
        <ele>118</ele>
        <time>2015-12-13T11:56:25Z</time>
      </trkpt>
      <trkpt lat="50.76801" lon="3.6435">
        <ele>118</ele>
        <time>2015-12-13T11:56:26Z</time>
      </trkpt>
      <trkpt lat="50.76803" lon="3.64348">
        <ele>118</ele>
        <time>2015-12-13T11:56:27Z</time>
      </trkpt>
      <trkpt lat="50.76806" lon="3.64346">
        <ele>118</ele>
        <time>2015-12-13T11:56:28Z</time>
      </trkpt>
      <trkpt lat="50.76808" lon="3.64343">
        <ele>118</ele>
        <time>2015-12-13T11:56:29Z</time>
      </trkpt>
      <trkpt lat="50.7681" lon="3.64341">
        <ele>118</ele>
        <time>2015-12-13T11:56:30Z</time>
      </trkpt>
      <trkpt lat="50.76812" lon="3.64338">
        <ele>116.6</ele>
        <time>2015-12-13T11:56:31Z</time>
      </trkpt>
      <trkpt lat="50.76814" lon="3.64335">
        <ele>116</ele>
        <time>2015-12-13T11:56:32Z</time>
      </trkpt>
      <trkpt lat="50.76817" lon="3.64332">
        <ele>116</ele>
        <time>2015-12-13T11:56:33Z</time>
      </trkpt>
      <trkpt lat="50.76819" lon="3.6433">
        <ele>116</ele>
        <time>2015-12-13T11:56:34Z</time>
      </trkpt>
      <trkpt lat="50.76821" lon="3.64327">
        <ele>116</ele>
        <time>2015-12-13T11:56:35Z</time>
      </trkpt>
      <trkpt lat="50.76824" lon="3.64325">
        <ele>116</ele>
        <time>2015-12-13T11:56:36Z</time>
      </trkpt>
      <trkpt lat="50.76825" lon="3.64323">
        <ele>116</ele>
        <time>2015-12-13T11:56:37Z</time>
      </trkpt>
      <trkpt lat="50.76827" lon="3.6432">
        <ele>116</ele>
        <time>2015-12-13T11:56:38Z</time>
      </trkpt>
      <trkpt lat="50.7683" lon="3.64318">
        <ele>116</ele>
        <time>2015-12-13T11:56:39Z</time>
      </trkpt>
      <trkpt lat="50.76832" lon="3.64315">
        <ele>116</ele>
        <time>2015-12-13T11:56:40Z</time>
      </trkpt>
      <trkpt lat="50.76833" lon="3.64312">
        <ele>114.6</ele>
        <time>2015-12-13T11:56:41Z</time>
      </trkpt>
      <trkpt lat="50.76835" lon="3.6431">
        <ele>114</ele>
        <time>2015-12-13T11:56:42Z</time>
      </trkpt>
      <trkpt lat="50.76837" lon="3.64308">
        <ele>114</ele>
        <time>2015-12-13T11:56:43Z</time>
      </trkpt>
      <trkpt lat="50.76839" lon="3.64306">
        <ele>114</ele>
        <time>2015-12-13T11:56:44Z</time>
      </trkpt>
      <trkpt lat="50.76841" lon="3.64303">
        <ele>114</ele>
        <time>2015-12-13T11:56:45Z</time>
      </trkpt>
      <trkpt lat="50.76843" lon="3.64301">
        <ele>114</ele>
        <time>2015-12-13T11:56:46Z</time>
      </trkpt>
      <trkpt lat="50.76844" lon="3.64298">
        <ele>114</ele>
        <time>2015-12-13T11:56:47Z</time>
      </trkpt>
      <trkpt lat="50.76846" lon="3.64296">
        <ele>114</ele>
        <time>2015-12-13T11:56:48Z</time>
      </trkpt>
      <trkpt lat="50.76849" lon="3.64293">
        <ele>114</ele>
        <time>2015-12-13T11:56:49Z</time>
      </trkpt>
      <trkpt lat="50.76851" lon="3.64291">
        <ele>114</ele>
        <time>2015-12-13T11:56:50Z</time>
      </trkpt>
      <trkpt lat="50.76853" lon="3.64288">
        <ele>114</ele>
        <time>2015-12-13T11:56:51Z</time>
      </trkpt>
      <trkpt lat="50.76855" lon="3.64285">
        <ele>114</ele>
        <time>2015-12-13T11:56:52Z</time>
      </trkpt>
      <trkpt lat="50.76856" lon="3.64282">
        <ele>114</ele>
        <time>2015-12-13T11:56:53Z</time>
      </trkpt>
      <trkpt lat="50.76858" lon="3.6428">
        <ele>114</ele>
        <time>2015-12-13T11:56:54Z</time>
      </trkpt>
      <trkpt lat="50.7686" lon="3.64277">
        <ele>114</ele>
        <time>2015-12-13T11:56:55Z</time>
      </trkpt>
      <trkpt lat="50.76862" lon="3.64274">
        <ele>114</ele>
        <time>2015-12-13T11:56:56Z</time>
      </trkpt>
      <trkpt lat="50.76864" lon="3.64271">
        <ele>114</ele>
        <time>2015-12-13T11:56:57Z</time>
      </trkpt>
      <trkpt lat="50.76866" lon="3.64268">
        <ele>114</ele>
        <time>2015-12-13T11:56:58Z</time>
      </trkpt>
      <trkpt lat="50.76868" lon="3.64265">
        <ele>114</ele>
        <time>2015-12-13T11:56:59Z</time>
      </trkpt>
      <trkpt lat="50.7687" lon="3.64262">
        <ele>114</ele>
        <time>2015-12-13T11:57:00Z</time>
      </trkpt>
      <trkpt lat="50.76872" lon="3.64259">
        <ele>112</ele>
        <time>2015-12-13T11:57:01Z</time>
      </trkpt>
      <trkpt lat="50.76874" lon="3.64257">
        <ele>111</ele>
        <time>2015-12-13T11:57:02Z</time>
      </trkpt>
      <trkpt lat="50.76876" lon="3.64254">
        <ele>111</ele>
        <time>2015-12-13T11:57:03Z</time>
      </trkpt>
      <trkpt lat="50.76878" lon="3.64251">
        <ele>111</ele>
        <time>2015-12-13T11:57:04Z</time>
      </trkpt>
      <trkpt lat="50.7688" lon="3.64249">
        <ele>111</ele>
        <time>2015-12-13T11:57:05Z</time>
      </trkpt>
      <trkpt lat="50.76883" lon="3.64246">
        <ele>111</ele>
        <time>2015-12-13T11:57:06Z</time>
      </trkpt>
      <trkpt lat="50.76886" lon="3.64244">
        <ele>111</ele>
        <time>2015-12-13T11:57:07Z</time>
      </trkpt>
      <trkpt lat="50.76889" lon="3.64241">
        <ele>111</ele>
        <time>2015-12-13T11:57:08Z</time>
      </trkpt>
      <trkpt lat="50.76892" lon="3.6424">
        <ele>111</ele>
        <time>2015-12-13T11:57:09Z</time>
      </trkpt>
      <trkpt lat="50.76895" lon="3.64239">
        <ele>111</ele>
        <time>2015-12-13T11:57:10Z</time>
      </trkpt>
      <trkpt lat="50.76898" lon="3.64238">
        <ele>110.3</ele>
        <time>2015-12-13T11:57:11Z</time>
      </trkpt>
      <trkpt lat="50.76901" lon="3.64239">
        <ele>110</ele>
        <time>2015-12-13T11:57:12Z</time>
      </trkpt>
      <trkpt lat="50.76904" lon="3.64242">
        <ele>110</ele>
        <time>2015-12-13T11:57:13Z</time>
      </trkpt>
      <trkpt lat="50.76906" lon="3.64244">
        <ele>110</ele>
        <time>2015-12-13T11:57:14Z</time>
      </trkpt>
      <trkpt lat="50.76908" lon="3.64247">
        <ele>110</ele>
        <time>2015-12-13T11:57:15Z</time>
      </trkpt>
      <trkpt lat="50.7691" lon="3.64249">
        <ele>110</ele>
        <time>2015-12-13T11:57:16Z</time>
      </trkpt>
      <trkpt lat="50.76912" lon="3.64252">
        <ele>110</ele>
        <time>2015-12-13T11:57:17Z</time>
      </trkpt>
      <trkpt lat="50.76914" lon="3.64254">
        <ele>110</ele>
        <time>2015-12-13T11:57:18Z</time>
      </trkpt>
      <trkpt lat="50.76917" lon="3.64256">
        <ele>110</ele>
        <time>2015-12-13T11:57:19Z</time>
      </trkpt>
      <trkpt lat="50.76919" lon="3.64259">
        <ele>110</ele>
        <time>2015-12-13T11:57:20Z</time>
      </trkpt>
      <trkpt lat="50.7692" lon="3.64261">
        <ele>110</ele>
        <time>2015-12-13T11:57:21Z</time>
      </trkpt>
      <trkpt lat="50.76922" lon="3.64263">
        <ele>110</ele>
        <time>2015-12-13T11:57:22Z</time>
      </trkpt>
      <trkpt lat="50.76924" lon="3.64266">
        <ele>110</ele>
        <time>2015-12-13T11:57:23Z</time>
      </trkpt>
      <trkpt lat="50.76926" lon="3.64268">
        <ele>110</ele>
        <time>2015-12-13T11:57:24Z</time>
      </trkpt>
      <trkpt lat="50.76927" lon="3.6427">
        <ele>110</ele>
        <time>2015-12-13T11:57:25Z</time>
      </trkpt>
      <trkpt lat="50.76929" lon="3.64272">
        <ele>110</ele>
        <time>2015-12-13T11:57:26Z</time>
      </trkpt>
      <trkpt lat="50.7693" lon="3.64275">
        <ele>110</ele>
        <time>2015-12-13T11:57:27Z</time>
      </trkpt>
      <trkpt lat="50.76932" lon="3.64277">
        <ele>110</ele>
        <time>2015-12-13T11:57:28Z</time>
      </trkpt>
      <trkpt lat="50.76933" lon="3.64279">
        <ele>110</ele>
        <time>2015-12-13T11:57:29Z</time>
      </trkpt>
      <trkpt lat="50.76934" lon="3.64282">
        <ele>110</ele>
        <time>2015-12-13T11:57:30Z</time>
      </trkpt>
      <trkpt lat="50.76936" lon="3.64284">
        <ele>111.4</ele>
        <time>2015-12-13T11:57:31Z</time>
      </trkpt>
      <trkpt lat="50.76938" lon="3.64287">
        <ele>112</ele>
        <time>2015-12-13T11:57:32Z</time>
      </trkpt>
      <trkpt lat="50.76939" lon="3.64289">
        <ele>112</ele>
        <time>2015-12-13T11:57:33Z</time>
      </trkpt>
      <trkpt lat="50.76941" lon="3.64291">
        <ele>112</ele>
        <time>2015-12-13T11:57:34Z</time>
      </trkpt>
      <trkpt lat="50.76943" lon="3.64293">
        <ele>112</ele>
        <time>2015-12-13T11:57:35Z</time>
      </trkpt>
      <trkpt lat="50.76944" lon="3.64295">
        <ele>112</ele>
        <time>2015-12-13T11:57:36Z</time>
      </trkpt>
      <trkpt lat="50.76946" lon="3.64297">
        <ele>112</ele>
        <time>2015-12-13T11:57:37Z</time>
      </trkpt>
      <trkpt lat="50.76948" lon="3.64299">
        <ele>112</ele>
        <time>2015-12-13T11:57:38Z</time>
      </trkpt>
      <trkpt lat="50.7695" lon="3.64302">
        <ele>112</ele>
        <time>2015-12-13T11:57:39Z</time>
      </trkpt>
      <trkpt lat="50.76952" lon="3.64304">
        <ele>112</ele>
        <time>2015-12-13T11:57:40Z</time>
      </trkpt>
      <trkpt lat="50.76954" lon="3.64306">
        <ele>112</ele>
        <time>2015-12-13T11:57:41Z</time>
      </trkpt>
      <trkpt lat="50.76955" lon="3.64309">
        <ele>112</ele>
        <time>2015-12-13T11:57:42Z</time>
      </trkpt>
      <trkpt lat="50.76957" lon="3.64311">
        <ele>112</ele>
        <time>2015-12-13T11:57:43Z</time>
      </trkpt>
      <trkpt lat="50.76959" lon="3.64314">
        <ele>112</ele>
        <time>2015-12-13T11:57:44Z</time>
      </trkpt>
      <trkpt lat="50.7696" lon="3.64316">
        <ele>112</ele>
        <time>2015-12-13T11:57:45Z</time>
      </trkpt>
      <trkpt lat="50.76962" lon="3.64318">
        <ele>112</ele>
        <time>2015-12-13T11:57:46Z</time>
      </trkpt>
      <trkpt lat="50.76965" lon="3.6432">
        <ele>112</ele>
        <time>2015-12-13T11:57:47Z</time>
      </trkpt>
      <trkpt lat="50.76967" lon="3.64323">
        <ele>112</ele>
        <time>2015-12-13T11:57:48Z</time>
      </trkpt>
      <trkpt lat="50.76969" lon="3.64325">
        <ele>112</ele>
        <time>2015-12-13T11:57:49Z</time>
      </trkpt>
      <trkpt lat="50.76971" lon="3.64328">
        <ele>112</ele>
        <time>2015-12-13T11:57:50Z</time>
      </trkpt>
      <trkpt lat="50.76973" lon="3.6433">
        <ele>112.7</ele>
        <time>2015-12-13T11:57:51Z</time>
      </trkpt>
      <trkpt lat="50.76975" lon="3.64333">
        <ele>113</ele>
        <time>2015-12-13T11:57:52Z</time>
      </trkpt>
      <trkpt lat="50.76978" lon="3.64335">
        <ele>113</ele>
        <time>2015-12-13T11:57:53Z</time>
      </trkpt>
      <trkpt lat="50.7698" lon="3.64337">
        <ele>113</ele>
        <time>2015-12-13T11:57:54Z</time>
      </trkpt>
      <trkpt lat="50.76982" lon="3.6434">
        <ele>113</ele>
        <time>2015-12-13T11:57:55Z</time>
      </trkpt>
      <trkpt lat="50.76984" lon="3.64342">
        <ele>113</ele>
        <time>2015-12-13T11:57:56Z</time>
      </trkpt>
      <trkpt lat="50.76986" lon="3.64344">
        <ele>113</ele>
        <time>2015-12-13T11:57:57Z</time>
      </trkpt>
      <trkpt lat="50.76987" lon="3.64346">
        <ele>113</ele>
        <time>2015-12-13T11:57:58Z</time>
      </trkpt>
      <trkpt lat="50.76989" lon="3.64348">
        <ele>113</ele>
        <time>2015-12-13T11:57:59Z</time>
      </trkpt>
      <trkpt lat="50.76991" lon="3.6435">
        <ele>113</ele>
        <time>2015-12-13T11:58:00Z</time>
      </trkpt>
      <trkpt lat="50.76993" lon="3.64352">
        <ele>113</ele>
        <time>2015-12-13T11:58:01Z</time>
      </trkpt>
      <trkpt lat="50.76995" lon="3.64354">
        <ele>113</ele>
        <time>2015-12-13T11:58:02Z</time>
      </trkpt>
      <trkpt lat="50.76998" lon="3.64356">
        <ele>113</ele>
        <time>2015-12-13T11:58:03Z</time>
      </trkpt>
      <trkpt lat="50.77" lon="3.64358">
        <ele>113</ele>
        <time>2015-12-13T11:58:04Z</time>
      </trkpt>
      <trkpt lat="50.77002" lon="3.6436">
        <ele>113</ele>
        <time>2015-12-13T11:58:05Z</time>
      </trkpt>
      <trkpt lat="50.77004" lon="3.64362">
        <ele>113</ele>
        <time>2015-12-13T11:58:06Z</time>
      </trkpt>
      <trkpt lat="50.77006" lon="3.64363">
        <ele>113</ele>
        <time>2015-12-13T11:58:07Z</time>
      </trkpt>
      <trkpt lat="50.77009" lon="3.64365">
        <ele>113</ele>
        <time>2015-12-13T11:58:08Z</time>
      </trkpt>
      <trkpt lat="50.77011" lon="3.64367">
        <ele>113</ele>
        <time>2015-12-13T11:58:09Z</time>
      </trkpt>
      <trkpt lat="50.77013" lon="3.64368">
        <ele>113</ele>
        <time>2015-12-13T11:58:10Z</time>
      </trkpt>
      <trkpt lat="50.77015" lon="3.64369">
        <ele>113</ele>
        <time>2015-12-13T11:58:11Z</time>
      </trkpt>
      <trkpt lat="50.77017" lon="3.6437">
        <ele>113</ele>
        <time>2015-12-13T11:58:12Z</time>
      </trkpt>
      <trkpt lat="50.77019" lon="3.64369">
        <ele>113</ele>
        <time>2015-12-13T11:58:13Z</time>
      </trkpt>
      <trkpt lat="50.77021" lon="3.64368">
        <ele>113</ele>
        <time>2015-12-13T11:58:14Z</time>
      </trkpt>
      <trkpt lat="50.77022" lon="3.64366">
        <ele>113</ele>
        <time>2015-12-13T11:58:15Z</time>
      </trkpt>
      <trkpt lat="50.77024" lon="3.64365">
        <ele>113</ele>
        <time>2015-12-13T11:58:16Z</time>
      </trkpt>
      <trkpt lat="50.77026" lon="3.64363">
        <ele>113</ele>
        <time>2015-12-13T11:58:17Z</time>
      </trkpt>
      <trkpt lat="50.77027" lon="3.6436">
        <ele>113</ele>
        <time>2015-12-13T11:58:18Z</time>
      </trkpt>
      <trkpt lat="50.77029" lon="3.64358">
        <ele>113</ele>
        <time>2015-12-13T11:58:19Z</time>
      </trkpt>
      <trkpt lat="50.7703" lon="3.64355">
        <ele>113</ele>
        <time>2015-12-13T11:58:20Z</time>
      </trkpt>
      <trkpt lat="50.77031" lon="3.64352">
        <ele>111</ele>
        <time>2015-12-13T11:58:21Z</time>
      </trkpt>
      <trkpt lat="50.77032" lon="3.6435">
        <ele>110</ele>
        <time>2015-12-13T11:58:22Z</time>
      </trkpt>
      <trkpt lat="50.77033" lon="3.64347">
        <ele>110</ele>
        <time>2015-12-13T11:58:23Z</time>
      </trkpt>
      <trkpt lat="50.77035" lon="3.64345">
        <ele>110</ele>
        <time>2015-12-13T11:58:24Z</time>
      </trkpt>
      <trkpt lat="50.77036" lon="3.64342">
        <ele>110</ele>
        <time>2015-12-13T11:58:25Z</time>
      </trkpt>
      <trkpt lat="50.77038" lon="3.6434">
        <ele>110</ele>
        <time>2015-12-13T11:58:26Z</time>
      </trkpt>
      <trkpt lat="50.77039" lon="3.64338">
        <ele>110</ele>
        <time>2015-12-13T11:58:27Z</time>
      </trkpt>
      <trkpt lat="50.7704" lon="3.64335">
        <ele>110</ele>
        <time>2015-12-13T11:58:28Z</time>
      </trkpt>
      <trkpt lat="50.77042" lon="3.64332">
        <ele>110</ele>
        <time>2015-12-13T11:58:29Z</time>
      </trkpt>
      <trkpt lat="50.77043" lon="3.6433">
        <ele>110</ele>
        <time>2015-12-13T11:58:30Z</time>
      </trkpt>
      <trkpt lat="50.77044" lon="3.64327">
        <ele>108.9</ele>
        <time>2015-12-13T11:58:31Z</time>
      </trkpt>
      <trkpt lat="50.77045" lon="3.64325">
        <ele>108</ele>
        <time>2015-12-13T11:58:32Z</time>
      </trkpt>
      <trkpt lat="50.77047" lon="3.64323">
        <ele>108</ele>
        <time>2015-12-13T11:58:33Z</time>
      </trkpt>
      <trkpt lat="50.77048" lon="3.6432">
        <ele>108</ele>
        <time>2015-12-13T11:58:34Z</time>
      </trkpt>
      <trkpt lat="50.77049" lon="3.64318">
        <ele>108</ele>
        <time>2015-12-13T11:58:35Z</time>
      </trkpt>
      <trkpt lat="50.7705" lon="3.64315">
        <ele>107.3</ele>
        <time>2015-12-13T11:58:36Z</time>
      </trkpt>
      <trkpt lat="50.77051" lon="3.64313">
        <ele>107</ele>
        <time>2015-12-13T11:58:37Z</time>
      </trkpt>
      <trkpt lat="50.77053" lon="3.64308">
        <ele>107</ele>
        <time>2015-12-13T11:58:39Z</time>
      </trkpt>
      <trkpt lat="50.77054" lon="3.64306">
        <ele>107</ele>
        <time>2015-12-13T11:58:40Z</time>
      </trkpt>
      <trkpt lat="50.77056" lon="3.64304">
        <ele>106.3</ele>
        <time>2015-12-13T11:58:41Z</time>
      </trkpt>
      <trkpt lat="50.77058" lon="3.64302">
        <ele>106</ele>
        <time>2015-12-13T11:58:42Z</time>
      </trkpt>
      <trkpt lat="50.77059" lon="3.643">
        <ele>106</ele>
        <time>2015-12-13T11:58:43Z</time>
      </trkpt>
      <trkpt lat="50.77061" lon="3.64298">
        <ele>106</ele>
        <time>2015-12-13T11:58:44Z</time>
      </trkpt>
      <trkpt lat="50.77063" lon="3.64297">
        <ele>106</ele>
        <time>2015-12-13T11:58:45Z</time>
      </trkpt>
      <trkpt lat="50.77065" lon="3.64295">
        <ele>105.3</ele>
        <time>2015-12-13T11:58:46Z</time>
      </trkpt>
      <trkpt lat="50.77067" lon="3.64294">
        <ele>105</ele>
        <time>2015-12-13T11:58:47Z</time>
      </trkpt>
      <trkpt lat="50.77069" lon="3.64292">
        <ele>105</ele>
        <time>2015-12-13T11:58:48Z</time>
      </trkpt>
      <trkpt lat="50.7707" lon="3.64291">
        <ele>105</ele>
        <time>2015-12-13T11:58:49Z</time>
      </trkpt>
      <trkpt lat="50.77073" lon="3.64289">
        <ele>105</ele>
        <time>2015-12-13T11:58:50Z</time>
      </trkpt>
      <trkpt lat="50.77075" lon="3.64288">
        <ele>104.3</ele>
        <time>2015-12-13T11:58:51Z</time>
      </trkpt>
      <trkpt lat="50.77076" lon="3.64289">
        <ele>104</ele>
        <time>2015-12-13T11:58:52Z</time>
      </trkpt>
      <trkpt lat="50.77079" lon="3.64294">
        <ele>104</ele>
        <time>2015-12-13T11:58:54Z</time>
      </trkpt>
      <trkpt lat="50.7708" lon="3.64298">
        <ele>104</ele>
        <time>2015-12-13T11:58:56Z</time>
      </trkpt>
      <trkpt lat="50.77082" lon="3.64301">
        <ele>104</ele>
        <time>2015-12-13T11:58:58Z</time>
      </trkpt>
      <trkpt lat="50.77083" lon="3.64305">
        <ele>104</ele>
        <time>2015-12-13T11:59:00Z</time>
      </trkpt>
      <trkpt lat="50.77084" lon="3.64309">
        <ele>105</ele>
        <time>2015-12-13T11:59:02Z</time>
      </trkpt>
      <trkpt lat="50.77085" lon="3.64313">
        <ele>105</ele>
        <time>2015-12-13T11:59:04Z</time>
      </trkpt>
      <trkpt lat="50.77085" lon="3.64317">
        <ele>105</ele>
        <time>2015-12-13T11:59:06Z</time>
      </trkpt>
      <trkpt lat="50.77086" lon="3.6432">
        <ele>105</ele>
        <time>2015-12-13T11:59:08Z</time>
      </trkpt>
      <trkpt lat="50.77087" lon="3.64324">
        <ele>105</ele>
        <time>2015-12-13T11:59:10Z</time>
      </trkpt>
      <trkpt lat="50.77088" lon="3.64327">
        <ele>106</ele>
        <time>2015-12-13T11:59:12Z</time>
      </trkpt>
      <trkpt lat="50.77089" lon="3.64331">
        <ele>106</ele>
        <time>2015-12-13T11:59:14Z</time>
      </trkpt>
      <trkpt lat="50.77091" lon="3.64334">
        <ele>106</ele>
        <time>2015-12-13T11:59:16Z</time>
      </trkpt>
      <trkpt lat="50.77092" lon="3.64337">
        <ele>106</ele>
        <time>2015-12-13T11:59:18Z</time>
      </trkpt>
      <trkpt lat="50.77093" lon="3.64341">
        <ele>106</ele>
        <time>2015-12-13T11:59:20Z</time>
      </trkpt>
      <trkpt lat="50.77094" lon="3.64344">
        <ele>107</ele>
        <time>2015-12-13T11:59:22Z</time>
      </trkpt>
      <trkpt lat="50.77094" lon="3.64348">
        <ele>107</ele>
        <time>2015-12-13T11:59:24Z</time>
      </trkpt>
      <trkpt lat="50.77095" lon="3.64352">
        <ele>107</ele>
        <time>2015-12-13T11:59:26Z</time>
      </trkpt>
      <trkpt lat="50.77097" lon="3.64356">
        <ele>107</ele>
        <time>2015-12-13T11:59:28Z</time>
      </trkpt>
      <trkpt lat="50.77098" lon="3.6436">
        <ele>107</ele>
        <time>2015-12-13T11:59:30Z</time>
      </trkpt>
      <trkpt lat="50.77099" lon="3.64364">
        <ele>108</ele>
        <time>2015-12-13T11:59:32Z</time>
      </trkpt>
      <trkpt lat="50.771" lon="3.64368">
        <ele>108</ele>
        <time>2015-12-13T11:59:34Z</time>
      </trkpt>
      <trkpt lat="50.77102" lon="3.64372">
        <ele>108</ele>
        <time>2015-12-13T11:59:36Z</time>
      </trkpt>
      <trkpt lat="50.77103" lon="3.64376">
        <ele>108</ele>
        <time>2015-12-13T11:59:38Z</time>
      </trkpt>
      <trkpt lat="50.77103" lon="3.6438">
        <ele>108</ele>
        <time>2015-12-13T11:59:40Z</time>
      </trkpt>
      <trkpt lat="50.77103" lon="3.64384">
        <ele>108</ele>
        <time>2015-12-13T11:59:42Z</time>
      </trkpt>
      <trkpt lat="50.77103" lon="3.64388">
        <ele>108</ele>
        <time>2015-12-13T11:59:44Z</time>
      </trkpt>
      <trkpt lat="50.77102" lon="3.64391">
        <ele>108</ele>
        <time>2015-12-13T11:59:46Z</time>
      </trkpt>
      <trkpt lat="50.771" lon="3.64393">
        <ele>108</ele>
        <time>2015-12-13T11:59:48Z</time>
      </trkpt>
      <trkpt lat="50.77102" lon="3.64393">
        <ele>109</ele>
        <time>2015-12-13T12:00:42Z</time>
      </trkpt>
      <trkpt lat="50.77104" lon="3.64394">
        <ele>109</ele>
        <time>2015-12-13T12:00:46Z</time>
      </trkpt>
      <trkpt lat="50.77104" lon="3.64397">
        <ele>109</ele>
        <time>2015-12-13T12:00:49Z</time>
      </trkpt>
      <trkpt lat="50.77106" lon="3.64395">
        <ele>109</ele>
        <time>2015-12-13T12:02:07Z</time>
      </trkpt>
      <trkpt lat="50.77108" lon="3.64396">
        <ele>109</ele>
        <time>2015-12-13T12:02:09Z</time>
      </trkpt>
      <trkpt lat="50.77109" lon="3.64399">
        <ele>109</ele>
        <time>2015-12-13T12:02:11Z</time>
      </trkpt>
      <trkpt lat="50.77111" lon="3.64401">
        <ele>109</ele>
        <time>2015-12-13T12:02:13Z</time>
      </trkpt>
      <trkpt lat="50.77112" lon="3.64404">
        <ele>109</ele>
        <time>2015-12-13T12:02:15Z</time>
      </trkpt>
      <trkpt lat="50.77114" lon="3.64407">
        <ele>109</ele>
        <time>2015-12-13T12:02:17Z</time>
      </trkpt>
      <trkpt lat="50.77115" lon="3.64411">
        <ele>109</ele>
        <time>2015-12-13T12:02:19Z</time>
      </trkpt>
      <trkpt lat="50.77115" lon="3.64415">
        <ele>109</ele>
        <time>2015-12-13T12:02:21Z</time>
      </trkpt>
      <trkpt lat="50.77115" lon="3.64419">
        <ele>109</ele>
        <time>2015-12-13T12:02:23Z</time>
      </trkpt>
      <trkpt lat="50.77116" lon="3.64422">
        <ele>109</ele>
        <time>2015-12-13T12:02:25Z</time>
      </trkpt>
      <trkpt lat="50.77116" lon="3.64426">
        <ele>109</ele>
        <time>2015-12-13T12:02:27Z</time>
      </trkpt>
      <trkpt lat="50.77117" lon="3.6443">
        <ele>109</ele>
        <time>2015-12-13T12:02:29Z</time>
      </trkpt>
      <trkpt lat="50.77119" lon="3.64434">
        <ele>109</ele>
        <time>2015-12-13T12:02:31Z</time>
      </trkpt>
      <trkpt lat="50.7712" lon="3.64437">
        <ele>109</ele>
        <time>2015-12-13T12:02:33Z</time>
      </trkpt>
      <trkpt lat="50.77121" lon="3.6444">
        <ele>109</ele>
        <time>2015-12-13T12:02:35Z</time>
      </trkpt>
      <trkpt lat="50.77122" lon="3.64444">
        <ele>109</ele>
        <time>2015-12-13T12:02:37Z</time>
      </trkpt>
      <trkpt lat="50.77123" lon="3.64447">
        <ele>109</ele>
        <time>2015-12-13T12:02:39Z</time>
      </trkpt>
      <trkpt lat="50.77123" lon="3.64452">
        <ele>109</ele>
        <time>2015-12-13T12:02:41Z</time>
      </trkpt>
      <trkpt lat="50.77124" lon="3.64456">
        <ele>109</ele>
        <time>2015-12-13T12:02:43Z</time>
      </trkpt>
      <trkpt lat="50.77125" lon="3.64459">
        <ele>109</ele>
        <time>2015-12-13T12:02:45Z</time>
      </trkpt>
      <trkpt lat="50.77126" lon="3.64463">
        <ele>109</ele>
        <time>2015-12-13T12:02:47Z</time>
      </trkpt>
      <trkpt lat="50.77127" lon="3.64467">
        <ele>109</ele>
        <time>2015-12-13T12:02:49Z</time>
      </trkpt>
      <trkpt lat="50.77129" lon="3.64468">
        <ele>109</ele>
        <time>2015-12-13T12:02:52Z</time>
      </trkpt>
      <trkpt lat="50.77131" lon="3.64468">
        <ele>109</ele>
        <time>2015-12-13T12:02:54Z</time>
      </trkpt>
      <trkpt lat="50.77134" lon="3.64468">
        <ele>109</ele>
        <time>2015-12-13T12:02:56Z</time>
      </trkpt>
      <trkpt lat="50.77136" lon="3.64468">
        <ele>109</ele>
        <time>2015-12-13T12:02:58Z</time>
      </trkpt>
      <trkpt lat="50.77138" lon="3.64469">
        <ele>108.3</ele>
        <time>2015-12-13T12:03:01Z</time>
      </trkpt>
      <trkpt lat="50.7714" lon="3.64468">
        <ele>108</ele>
        <time>2015-12-13T12:03:03Z</time>
      </trkpt>
      <trkpt lat="50.77142" lon="3.64469">
        <ele>108</ele>
        <time>2015-12-13T12:03:05Z</time>
      </trkpt>
      <trkpt lat="50.7714" lon="3.64467">
        <ele>105</ele>
        <time>2015-12-13T12:19:38Z</time>
      </trkpt>
      <trkpt lat="50.77138" lon="3.64466">
        <ele>105</ele>
        <time>2015-12-13T12:19:41Z</time>
      </trkpt>
      <trkpt lat="50.77136" lon="3.64466">
        <ele>105</ele>
        <time>2015-12-13T12:19:43Z</time>
      </trkpt>
      <trkpt lat="50.77134" lon="3.64466">
        <ele>105</ele>
        <time>2015-12-13T12:19:45Z</time>
      </trkpt>
      <trkpt lat="50.77132" lon="3.64467">
        <ele>105</ele>
        <time>2015-12-13T12:19:47Z</time>
      </trkpt>
      <trkpt lat="50.7713" lon="3.64467">
        <ele>105</ele>
        <time>2015-12-13T12:19:49Z</time>
      </trkpt>
      <trkpt lat="50.77128" lon="3.64468">
        <ele>105</ele>
        <time>2015-12-13T12:19:51Z</time>
      </trkpt>
      <trkpt lat="50.77126" lon="3.64468">
        <ele>105</ele>
        <time>2015-12-13T12:19:53Z</time>
      </trkpt>
      <trkpt lat="50.77124" lon="3.64468">
        <ele>105</ele>
        <time>2015-12-13T12:19:56Z</time>
      </trkpt>
      <trkpt lat="50.77122" lon="3.64468">
        <ele>105</ele>
        <time>2015-12-13T12:19:58Z</time>
      </trkpt>
      <trkpt lat="50.7712" lon="3.64469">
        <ele>105</ele>
        <time>2015-12-13T12:20:00Z</time>
      </trkpt>
      <trkpt lat="50.77118" lon="3.6447">
        <ele>105</ele>
        <time>2015-12-13T12:20:02Z</time>
      </trkpt>
      <trkpt lat="50.77116" lon="3.64472">
        <ele>105</ele>
        <time>2015-12-13T12:20:04Z</time>
      </trkpt>
      <trkpt lat="50.77113" lon="3.64473">
        <ele>105</ele>
        <time>2015-12-13T12:20:06Z</time>
      </trkpt>
      <trkpt lat="50.77111" lon="3.64475">
        <ele>105</ele>
        <time>2015-12-13T12:20:08Z</time>
      </trkpt>
      <trkpt lat="50.77109" lon="3.64477">
        <ele>105</ele>
        <time>2015-12-13T12:20:10Z</time>
      </trkpt>
      <trkpt lat="50.77106" lon="3.64478">
        <ele>105</ele>
        <time>2015-12-13T12:20:12Z</time>
      </trkpt>
      <trkpt lat="50.77104" lon="3.6448">
        <ele>105</ele>
        <time>2015-12-13T12:20:14Z</time>
      </trkpt>
      <trkpt lat="50.77102" lon="3.64482">
        <ele>105</ele>
        <time>2015-12-13T12:20:16Z</time>
      </trkpt>
      <trkpt lat="50.771" lon="3.64484">
        <ele>105</ele>
        <time>2015-12-13T12:20:18Z</time>
      </trkpt>
      <trkpt lat="50.77097" lon="3.64487">
        <ele>105</ele>
        <time>2015-12-13T12:20:20Z</time>
      </trkpt>
      <trkpt lat="50.77095" lon="3.64488">
        <ele>105</ele>
        <time>2015-12-13T12:20:21Z</time>
      </trkpt>
      <trkpt lat="50.77093" lon="3.64488">
        <ele>105</ele>
        <time>2015-12-13T12:20:22Z</time>
      </trkpt>
      <trkpt lat="50.7709" lon="3.64488">
        <ele>105</ele>
        <time>2015-12-13T12:20:23Z</time>
      </trkpt>
      <trkpt lat="50.77088" lon="3.64486">
        <ele>105</ele>
        <time>2015-12-13T12:20:24Z</time>
      </trkpt>
      <trkpt lat="50.77086" lon="3.64484">
        <ele>105</ele>
        <time>2015-12-13T12:20:25Z</time>
      </trkpt>
      <trkpt lat="50.77084" lon="3.64482">
        <ele>105</ele>
        <time>2015-12-13T12:20:26Z</time>
      </trkpt>
      <trkpt lat="50.77082" lon="3.6448">
        <ele>105</ele>
        <time>2015-12-13T12:20:27Z</time>
      </trkpt>
      <trkpt lat="50.7708" lon="3.64479">
        <ele>105</ele>
        <time>2015-12-13T12:20:28Z</time>
      </trkpt>
      <trkpt lat="50.77078" lon="3.64477">
        <ele>105</ele>
        <time>2015-12-13T12:20:29Z</time>
      </trkpt>
      <trkpt lat="50.77076" lon="3.64475">
        <ele>105</ele>
        <time>2015-12-13T12:20:30Z</time>
      </trkpt>
      <trkpt lat="50.77074" lon="3.64474">
        <ele>105</ele>
        <time>2015-12-13T12:20:31Z</time>
      </trkpt>
      <trkpt lat="50.77072" lon="3.64473">
        <ele>105</ele>
        <time>2015-12-13T12:20:32Z</time>
      </trkpt>
      <trkpt lat="50.7707" lon="3.64471">
        <ele>105</ele>
        <time>2015-12-13T12:20:33Z</time>
      </trkpt>
      <trkpt lat="50.77068" lon="3.64469">
        <ele>105</ele>
        <time>2015-12-13T12:20:34Z</time>
      </trkpt>
      <trkpt lat="50.77065" lon="3.64468">
        <ele>105</ele>
        <time>2015-12-13T12:20:35Z</time>
      </trkpt>
      <trkpt lat="50.77063" lon="3.64467">
        <ele>105</ele>
        <time>2015-12-13T12:20:36Z</time>
      </trkpt>
      <trkpt lat="50.77061" lon="3.64465">
        <ele>105</ele>
        <time>2015-12-13T12:20:37Z</time>
      </trkpt>
      <trkpt lat="50.77059" lon="3.64463">
        <ele>105</ele>
        <time>2015-12-13T12:20:38Z</time>
      </trkpt>
      <trkpt lat="50.77057" lon="3.64462">
        <ele>105</ele>
        <time>2015-12-13T12:20:39Z</time>
      </trkpt>
      <trkpt lat="50.77054" lon="3.64461">
        <ele>105</ele>
        <time>2015-12-13T12:20:40Z</time>
      </trkpt>
      <trkpt lat="50.77052" lon="3.6446">
        <ele>105</ele>
        <time>2015-12-13T12:20:41Z</time>
      </trkpt>
      <trkpt lat="50.7705" lon="3.6446">
        <ele>105</ele>
        <time>2015-12-13T12:20:42Z</time>
      </trkpt>
      <trkpt lat="50.77048" lon="3.6446">
        <ele>105</ele>
        <time>2015-12-13T12:20:43Z</time>
      </trkpt>
      <trkpt lat="50.77045" lon="3.6446">
        <ele>105</ele>
        <time>2015-12-13T12:20:44Z</time>
      </trkpt>
      <trkpt lat="50.77043" lon="3.6446">
        <ele>105</ele>
        <time>2015-12-13T12:20:45Z</time>
      </trkpt>
      <trkpt lat="50.77041" lon="3.64461">
        <ele>105</ele>
        <time>2015-12-13T12:20:46Z</time>
      </trkpt>
      <trkpt lat="50.77039" lon="3.64461">
        <ele>105</ele>
        <time>2015-12-13T12:20:47Z</time>
      </trkpt>
      <trkpt lat="50.77036" lon="3.64463">
        <ele>105</ele>
        <time>2015-12-13T12:20:48Z</time>
      </trkpt>
      <trkpt lat="50.77034" lon="3.64464">
        <ele>105</ele>
        <time>2015-12-13T12:20:49Z</time>
      </trkpt>
      <trkpt lat="50.77032" lon="3.64466">
        <ele>105</ele>
        <time>2015-12-13T12:20:50Z</time>
      </trkpt>
      <trkpt lat="50.7703" lon="3.64467">
        <ele>105</ele>
        <time>2015-12-13T12:20:51Z</time>
      </trkpt>
      <trkpt lat="50.77028" lon="3.64468">
        <ele>105</ele>
        <time>2015-12-13T12:20:52Z</time>
      </trkpt>
      <trkpt lat="50.77026" lon="3.64469">
        <ele>105</ele>
        <time>2015-12-13T12:20:53Z</time>
      </trkpt>
      <trkpt lat="50.77024" lon="3.6447">
        <ele>105</ele>
        <time>2015-12-13T12:20:54Z</time>
      </trkpt>
      <trkpt lat="50.77022" lon="3.64471">
        <ele>105</ele>
        <time>2015-12-13T12:20:55Z</time>
      </trkpt>
      <trkpt lat="50.77019" lon="3.64472">
        <ele>105</ele>
        <time>2015-12-13T12:20:56Z</time>
      </trkpt>
      <trkpt lat="50.77017" lon="3.64474">
        <ele>105</ele>
        <time>2015-12-13T12:20:57Z</time>
      </trkpt>
      <trkpt lat="50.77015" lon="3.64475">
        <ele>105</ele>
        <time>2015-12-13T12:20:58Z</time>
      </trkpt>
      <trkpt lat="50.77012" lon="3.64476">
        <ele>105</ele>
        <time>2015-12-13T12:20:59Z</time>
      </trkpt>
      <trkpt lat="50.7701" lon="3.64477">
        <ele>105</ele>
        <time>2015-12-13T12:21:00Z</time>
      </trkpt>
      <trkpt lat="50.77007" lon="3.64478">
        <ele>105</ele>
        <time>2015-12-13T12:21:01Z</time>
      </trkpt>
      <trkpt lat="50.77005" lon="3.64479">
        <ele>105</ele>
        <time>2015-12-13T12:21:02Z</time>
      </trkpt>
      <trkpt lat="50.77002" lon="3.6448">
        <ele>105</ele>
        <time>2015-12-13T12:21:03Z</time>
      </trkpt>
      <trkpt lat="50.77" lon="3.64482">
        <ele>105</ele>
        <time>2015-12-13T12:21:04Z</time>
      </trkpt>
      <trkpt lat="50.76998" lon="3.64484">
        <ele>105</ele>
        <time>2015-12-13T12:21:05Z</time>
      </trkpt>
      <trkpt lat="50.76996" lon="3.64486">
        <ele>105</ele>
        <time>2015-12-13T12:21:06Z</time>
      </trkpt>
      <trkpt lat="50.76994" lon="3.64487">
        <ele>105</ele>
        <time>2015-12-13T12:21:07Z</time>
      </trkpt>
      <trkpt lat="50.76991" lon="3.64489">
        <ele>105</ele>
        <time>2015-12-13T12:21:08Z</time>
      </trkpt>
      <trkpt lat="50.76989" lon="3.64491">
        <ele>105</ele>
        <time>2015-12-13T12:21:09Z</time>
      </trkpt>
      <trkpt lat="50.76988" lon="3.64493">
        <ele>105</ele>
        <time>2015-12-13T12:21:10Z</time>
      </trkpt>
      <trkpt lat="50.76986" lon="3.64495">
        <ele>105</ele>
        <time>2015-12-13T12:21:11Z</time>
      </trkpt>
      <trkpt lat="50.76985" lon="3.64497">
        <ele>105</ele>
        <time>2015-12-13T12:21:12Z</time>
      </trkpt>
      <trkpt lat="50.76983" lon="3.64499">
        <ele>105</ele>
        <time>2015-12-13T12:21:13Z</time>
      </trkpt>
      <trkpt lat="50.76981" lon="3.64501">
        <ele>105</ele>
        <time>2015-12-13T12:21:14Z</time>
      </trkpt>
      <trkpt lat="50.7698" lon="3.64503">
        <ele>105</ele>
        <time>2015-12-13T12:21:15Z</time>
      </trkpt>
      <trkpt lat="50.76978" lon="3.64506">
        <ele>105</ele>
        <time>2015-12-13T12:21:16Z</time>
      </trkpt>
      <trkpt lat="50.76977" lon="3.64509">
        <ele>105</ele>
        <time>2015-12-13T12:21:17Z</time>
      </trkpt>
      <trkpt lat="50.76975" lon="3.64512">
        <ele>105</ele>
        <time>2015-12-13T12:21:18Z</time>
      </trkpt>
      <trkpt lat="50.76974" lon="3.64515">
        <ele>105</ele>
        <time>2015-12-13T12:21:19Z</time>
      </trkpt>
      <trkpt lat="50.76972" lon="3.64519">
        <ele>105</ele>
        <time>2015-12-13T12:21:20Z</time>
      </trkpt>
      <trkpt lat="50.76971" lon="3.64522">
        <ele>105</ele>
        <time>2015-12-13T12:21:21Z</time>
      </trkpt>
      <trkpt lat="50.76969" lon="3.64526">
        <ele>105</ele>
        <time>2015-12-13T12:21:22Z</time>
      </trkpt>
      <trkpt lat="50.76968" lon="3.64529">
        <ele>105</ele>
        <time>2015-12-13T12:21:23Z</time>
      </trkpt>
      <trkpt lat="50.76967" lon="3.64532">
        <ele>105</ele>
        <time>2015-12-13T12:21:24Z</time>
      </trkpt>
      <trkpt lat="50.76966" lon="3.64535">
        <ele>105</ele>
        <time>2015-12-13T12:21:25Z</time>
      </trkpt>
      <trkpt lat="50.76965" lon="3.64538">
        <ele>105</ele>
        <time>2015-12-13T12:21:26Z</time>
      </trkpt>
      <trkpt lat="50.76964" lon="3.64541">
        <ele>105</ele>
        <time>2015-12-13T12:21:27Z</time>
      </trkpt>
      <trkpt lat="50.76963" lon="3.64544">
        <ele>105</ele>
        <time>2015-12-13T12:21:28Z</time>
      </trkpt>
      <trkpt lat="50.76962" lon="3.64547">
        <ele>105</ele>
        <time>2015-12-13T12:21:29Z</time>
      </trkpt>
      <trkpt lat="50.7696" lon="3.64553">
        <ele>105</ele>
        <time>2015-12-13T12:21:31Z</time>
      </trkpt>
      <trkpt lat="50.76959" lon="3.64555">
        <ele>105</ele>
        <time>2015-12-13T12:21:32Z</time>
      </trkpt>
      <trkpt lat="50.76957" lon="3.64561">
        <ele>105</ele>
        <time>2015-12-13T12:21:34Z</time>
      </trkpt>
      <trkpt lat="50.76956" lon="3.64564">
        <ele>105</ele>
        <time>2015-12-13T12:21:35Z</time>
      </trkpt>
      <trkpt lat="50.76955" lon="3.64567">
        <ele>105</ele>
        <time>2015-12-13T12:21:36Z</time>
      </trkpt>
      <trkpt lat="50.76954" lon="3.64571">
        <ele>105</ele>
        <time>2015-12-13T12:21:37Z</time>
      </trkpt>
      <trkpt lat="50.76952" lon="3.64575">
        <ele>105</ele>
        <time>2015-12-13T12:21:38Z</time>
      </trkpt>
      <trkpt lat="50.76951" lon="3.64578">
        <ele>105</ele>
        <time>2015-12-13T12:21:39Z</time>
      </trkpt>
      <trkpt lat="50.7695" lon="3.64581">
        <ele>105</ele>
        <time>2015-12-13T12:21:40Z</time>
      </trkpt>
      <trkpt lat="50.76948" lon="3.64584">
        <ele>105</ele>
        <time>2015-12-13T12:21:41Z</time>
      </trkpt>
      <trkpt lat="50.76946" lon="3.64587">
        <ele>105</ele>
        <time>2015-12-13T12:21:42Z</time>
      </trkpt>
      <trkpt lat="50.76945" lon="3.64591">
        <ele>105</ele>
        <time>2015-12-13T12:21:43Z</time>
      </trkpt>
      <trkpt lat="50.76943" lon="3.64595">
        <ele>105</ele>
        <time>2015-12-13T12:21:44Z</time>
      </trkpt>
      <trkpt lat="50.76942" lon="3.64599">
        <ele>105</ele>
        <time>2015-12-13T12:21:45Z</time>
      </trkpt>
      <trkpt lat="50.76941" lon="3.64603">
        <ele>105</ele>
        <time>2015-12-13T12:21:46Z</time>
      </trkpt>
      <trkpt lat="50.76941" lon="3.64608">
        <ele>105</ele>
        <time>2015-12-13T12:21:47Z</time>
      </trkpt>
      <trkpt lat="50.7694" lon="3.64612">
        <ele>105</ele>
        <time>2015-12-13T12:21:48Z</time>
      </trkpt>
      <trkpt lat="50.76941" lon="3.64616">
        <ele>105</ele>
        <time>2015-12-13T12:21:49Z</time>
      </trkpt>
      <trkpt lat="50.76941" lon="3.64619">
        <ele>105</ele>
        <time>2015-12-13T12:21:50Z</time>
      </trkpt>
      <trkpt lat="50.76941" lon="3.64624">
        <ele>105</ele>
        <time>2015-12-13T12:21:51Z</time>
      </trkpt>
      <trkpt lat="50.7694" lon="3.64628">
        <ele>101.6</ele>
        <time>2015-12-13T12:21:52Z</time>
      </trkpt>
      <trkpt lat="50.7694" lon="3.64633">
        <ele>98.6</ele>
        <time>2015-12-13T12:21:53Z</time>
      </trkpt>
      <trkpt lat="50.7694" lon="3.64637">
        <ele>98</ele>
        <time>2015-12-13T12:21:54Z</time>
      </trkpt>
      <trkpt lat="50.76939" lon="3.64641">
        <ele>98</ele>
        <time>2015-12-13T12:21:55Z</time>
      </trkpt>
      <trkpt lat="50.76939" lon="3.64645">
        <ele>98</ele>
        <time>2015-12-13T12:21:56Z</time>
      </trkpt>
      <trkpt lat="50.76938" lon="3.64649">
        <ele>98</ele>
        <time>2015-12-13T12:21:57Z</time>
      </trkpt>
      <trkpt lat="50.76938" lon="3.64653">
        <ele>98</ele>
        <time>2015-12-13T12:21:58Z</time>
      </trkpt>
      <trkpt lat="50.76937" lon="3.64657">
        <ele>97.3</ele>
        <time>2015-12-13T12:21:59Z</time>
      </trkpt>
      <trkpt lat="50.76936" lon="3.6466">
        <ele>97</ele>
        <time>2015-12-13T12:22:00Z</time>
      </trkpt>
      <trkpt lat="50.76935" lon="3.64664">
        <ele>97</ele>
        <time>2015-12-13T12:22:01Z</time>
      </trkpt>
      <trkpt lat="50.76934" lon="3.64668">
        <ele>97</ele>
        <time>2015-12-13T12:22:02Z</time>
      </trkpt>
      <trkpt lat="50.76933" lon="3.64671">
        <ele>97</ele>
        <time>2015-12-13T12:22:03Z</time>
      </trkpt>
      <trkpt lat="50.76932" lon="3.64674">
        <ele>97</ele>
        <time>2015-12-13T12:22:04Z</time>
      </trkpt>
      <trkpt lat="50.76931" lon="3.64677">
        <ele>97</ele>
        <time>2015-12-13T12:22:05Z</time>
      </trkpt>
      <trkpt lat="50.7693" lon="3.6468">
        <ele>97</ele>
        <time>2015-12-13T12:22:06Z</time>
      </trkpt>
      <trkpt lat="50.76929" lon="3.64684">
        <ele>97</ele>
        <time>2015-12-13T12:22:07Z</time>
      </trkpt>
      <trkpt lat="50.76929" lon="3.64687">
        <ele>97</ele>
        <time>2015-12-13T12:22:08Z</time>
      </trkpt>
      <trkpt lat="50.76928" lon="3.64691">
        <ele>97</ele>
        <time>2015-12-13T12:22:09Z</time>
      </trkpt>
      <trkpt lat="50.76927" lon="3.64694">
        <ele>97</ele>
        <time>2015-12-13T12:22:10Z</time>
      </trkpt>
      <trkpt lat="50.76925" lon="3.64697">
        <ele>97</ele>
        <time>2015-12-13T12:22:11Z</time>
      </trkpt>
      <trkpt lat="50.76924" lon="3.64699">
        <ele>97</ele>
        <time>2015-12-13T12:22:12Z</time>
      </trkpt>
      <trkpt lat="50.76923" lon="3.64702">
        <ele>97</ele>
        <time>2015-12-13T12:22:13Z</time>
      </trkpt>
      <trkpt lat="50.76922" lon="3.64704">
        <ele>97</ele>
        <time>2015-12-13T12:22:14Z</time>
      </trkpt>
      <trkpt lat="50.7692" lon="3.64709">
        <ele>97</ele>
        <time>2015-12-13T12:22:16Z</time>
      </trkpt>
      <trkpt lat="50.76919" lon="3.64712">
        <ele>97</ele>
        <time>2015-12-13T12:22:17Z</time>
      </trkpt>
      <trkpt lat="50.76918" lon="3.64717">
        <ele>97</ele>
        <time>2015-12-13T12:22:19Z</time>
      </trkpt>
      <trkpt lat="50.76918" lon="3.6472">
        <ele>97</ele>
        <time>2015-12-13T12:22:20Z</time>
      </trkpt>
      <trkpt lat="50.76918" lon="3.64723">
        <ele>97</ele>
        <time>2015-12-13T12:22:21Z</time>
      </trkpt>
      <trkpt lat="50.76918" lon="3.64727">
        <ele>96.3</ele>
        <time>2015-12-13T12:22:22Z</time>
      </trkpt>
      <trkpt lat="50.76918" lon="3.64731">
        <ele>96</ele>
        <time>2015-12-13T12:22:23Z</time>
      </trkpt>
      <trkpt lat="50.76918" lon="3.64735">
        <ele>96</ele>
        <time>2015-12-13T12:22:24Z</time>
      </trkpt>
      <trkpt lat="50.76919" lon="3.64739">
        <ele>96</ele>
        <time>2015-12-13T12:22:25Z</time>
      </trkpt>
      <trkpt lat="50.76921" lon="3.64743">
        <ele>96</ele>
        <time>2015-12-13T12:22:26Z</time>
      </trkpt>
      <trkpt lat="50.76922" lon="3.64746">
        <ele>96</ele>
        <time>2015-12-13T12:22:27Z</time>
      </trkpt>
      <trkpt lat="50.76923" lon="3.64749">
        <ele>96</ele>
        <time>2015-12-13T12:22:28Z</time>
      </trkpt>
      <trkpt lat="50.76924" lon="3.64751">
        <ele>96</ele>
        <time>2015-12-13T12:22:29Z</time>
      </trkpt>
      <trkpt lat="50.76926" lon="3.64756">
        <ele>96</ele>
        <time>2015-12-13T12:22:31Z</time>
      </trkpt>
      <trkpt lat="50.76929" lon="3.64761">
        <ele>98</ele>
        <time>2015-12-13T12:22:33Z</time>
      </trkpt>
      <trkpt lat="50.7693" lon="3.64763">
        <ele>98</ele>
        <time>2015-12-13T12:22:34Z</time>
      </trkpt>
      <trkpt lat="50.76931" lon="3.64765">
        <ele>98</ele>
        <time>2015-12-13T12:22:35Z</time>
      </trkpt>
      <trkpt lat="50.76933" lon="3.64767">
        <ele>98</ele>
        <time>2015-12-13T12:22:36Z</time>
      </trkpt>
      <trkpt lat="50.76934" lon="3.64771">
        <ele>98</ele>
        <time>2015-12-13T12:22:38Z</time>
      </trkpt>
      <trkpt lat="50.76936" lon="3.64775">
        <ele>98</ele>
        <time>2015-12-13T12:22:40Z</time>
      </trkpt>
      <trkpt lat="50.76937" lon="3.6478">
        <ele>98</ele>
        <time>2015-12-13T12:22:42Z</time>
      </trkpt>
      <trkpt lat="50.76938" lon="3.64784">
        <ele>98</ele>
        <time>2015-12-13T12:22:44Z</time>
      </trkpt>
      <trkpt lat="50.76939" lon="3.64787">
        <ele>98</ele>
        <time>2015-12-13T12:22:45Z</time>
      </trkpt>
      <trkpt lat="50.76939" lon="3.64792">
        <ele>98</ele>
        <time>2015-12-13T12:22:47Z</time>
      </trkpt>
      <trkpt lat="50.7694" lon="3.64796">
        <ele>98</ele>
        <time>2015-12-13T12:22:49Z</time>
      </trkpt>
      <trkpt lat="50.76941" lon="3.648">
        <ele>98</ele>
        <time>2015-12-13T12:22:51Z</time>
      </trkpt>
      <trkpt lat="50.76942" lon="3.64802">
        <ele>99.4</ele>
        <time>2015-12-13T12:22:52Z</time>
      </trkpt>
      <trkpt lat="50.76943" lon="3.64806">
        <ele>100</ele>
        <time>2015-12-13T12:22:54Z</time>
      </trkpt>
      <trkpt lat="50.76944" lon="3.64811">
        <ele>100</ele>
        <time>2015-12-13T12:22:56Z</time>
      </trkpt>
      <trkpt lat="50.76945" lon="3.64817">
        <ele>100</ele>
        <time>2015-12-13T12:22:58Z</time>
      </trkpt>
      <trkpt lat="50.76946" lon="3.64821">
        <ele>100</ele>
        <time>2015-12-13T12:23:00Z</time>
      </trkpt>
      <trkpt lat="50.76947" lon="3.64825">
        <ele>101</ele>
        <time>2015-12-13T12:23:02Z</time>
      </trkpt>
      <trkpt lat="50.76947" lon="3.64829">
        <ele>101</ele>
        <time>2015-12-13T12:23:04Z</time>
      </trkpt>
      <trkpt lat="50.76947" lon="3.64833">
        <ele>101</ele>
        <time>2015-12-13T12:23:06Z</time>
      </trkpt>
      <trkpt lat="50.76946" lon="3.64837">
        <ele>101</ele>
        <time>2015-12-13T12:23:08Z</time>
      </trkpt>
      <trkpt lat="50.76945" lon="3.64841">
        <ele>101</ele>
        <time>2015-12-13T12:23:10Z</time>
      </trkpt>
      <trkpt lat="50.76943" lon="3.64844">
        <ele>102</ele>
        <time>2015-12-13T12:23:12Z</time>
      </trkpt>
      <trkpt lat="50.7694" lon="3.64846">
        <ele>102</ele>
        <time>2015-12-13T12:23:14Z</time>
      </trkpt>
      <trkpt lat="50.76938" lon="3.64848">
        <ele>103.4</ele>
        <time>2015-12-13T12:23:16Z</time>
      </trkpt>
      <trkpt lat="50.76935" lon="3.64851">
        <ele>104</ele>
        <time>2015-12-13T12:23:18Z</time>
      </trkpt>
      <trkpt lat="50.76933" lon="3.64853">
        <ele>104</ele>
        <time>2015-12-13T12:23:20Z</time>
      </trkpt>
      <trkpt lat="50.7693" lon="3.64856">
        <ele>105</ele>
        <time>2015-12-13T12:23:22Z</time>
      </trkpt>
      <trkpt lat="50.76927" lon="3.64859">
        <ele>105</ele>
        <time>2015-12-13T12:23:24Z</time>
      </trkpt>
      <trkpt lat="50.76925" lon="3.6486">
        <ele>105</ele>
        <time>2015-12-13T12:23:25Z</time>
      </trkpt>
      <trkpt lat="50.76922" lon="3.64863">
        <ele>105</ele>
        <time>2015-12-13T12:23:27Z</time>
      </trkpt>
      <trkpt lat="50.7692" lon="3.64865">
        <ele>105</ele>
        <time>2015-12-13T12:23:29Z</time>
      </trkpt>
      <trkpt lat="50.76917" lon="3.64867">
        <ele>105</ele>
        <time>2015-12-13T12:23:31Z</time>
      </trkpt>
      <trkpt lat="50.76915" lon="3.6487">
        <ele>105</ele>
        <time>2015-12-13T12:23:33Z</time>
      </trkpt>
      <trkpt lat="50.76912" lon="3.64871">
        <ele>105</ele>
        <time>2015-12-13T12:23:35Z</time>
      </trkpt>
      <trkpt lat="50.76909" lon="3.64873">
        <ele>105</ele>
        <time>2015-12-13T12:23:37Z</time>
      </trkpt>
      <trkpt lat="50.76907" lon="3.64875">
        <ele>105</ele>
        <time>2015-12-13T12:23:39Z</time>
      </trkpt>
      <trkpt lat="50.76904" lon="3.64878">
        <ele>106.4</ele>
        <time>2015-12-13T12:23:41Z</time>
      </trkpt>
      <trkpt lat="50.76902" lon="3.6488">
        <ele>107</ele>
        <time>2015-12-13T12:23:43Z</time>
      </trkpt>
      <trkpt lat="50.769" lon="3.64882">
        <ele>107</ele>
        <time>2015-12-13T12:23:45Z</time>
      </trkpt>
      <trkpt lat="50.76897" lon="3.64885">
        <ele>107</ele>
        <time>2015-12-13T12:23:47Z</time>
      </trkpt>
      <trkpt lat="50.76895" lon="3.64887">
        <ele>107</ele>
        <time>2015-12-13T12:23:49Z</time>
      </trkpt>
      <trkpt lat="50.76892" lon="3.64889">
        <ele>108.1</ele>
        <time>2015-12-13T12:23:51Z</time>
      </trkpt>
      <trkpt lat="50.7689" lon="3.6489">
        <ele>109</ele>
        <time>2015-12-13T12:23:53Z</time>
      </trkpt>
      <trkpt lat="50.76888" lon="3.64893">
        <ele>109</ele>
        <time>2015-12-13T12:23:55Z</time>
      </trkpt>
      <trkpt lat="50.76886" lon="3.64893">
        <ele>109</ele>
        <time>2015-12-13T12:23:57Z</time>
      </trkpt>
      <trkpt lat="50.76883" lon="3.64893">
        <ele>109</ele>
        <time>2015-12-13T12:24:00Z</time>
      </trkpt>
      <trkpt lat="50.76881" lon="3.64893">
        <ele>109</ele>
        <time>2015-12-13T12:24:02Z</time>
      </trkpt>
      <trkpt lat="50.76879" lon="3.64891">
        <ele>109</ele>
        <time>2015-12-13T12:24:04Z</time>
      </trkpt>
      <trkpt lat="50.76876" lon="3.64892">
        <ele>109</ele>
        <time>2015-12-13T12:24:07Z</time>
      </trkpt>
      <trkpt lat="50.76873" lon="3.64893">
        <ele>109</ele>
        <time>2015-12-13T12:24:09Z</time>
      </trkpt>
      <trkpt lat="50.76871" lon="3.64893">
        <ele>109.7</ele>
        <time>2015-12-13T12:24:11Z</time>
      </trkpt>
      <trkpt lat="50.76868" lon="3.64893">
        <ele>110</ele>
        <time>2015-12-13T12:24:13Z</time>
      </trkpt>
      <trkpt lat="50.76865" lon="3.64893">
        <ele>110</ele>
        <time>2015-12-13T12:24:15Z</time>
      </trkpt>
      <trkpt lat="50.76862" lon="3.64893">
        <ele>110</ele>
        <time>2015-12-13T12:24:17Z</time>
      </trkpt>
      <trkpt lat="50.7686" lon="3.64893">
        <ele>110</ele>
        <time>2015-12-13T12:24:19Z</time>
      </trkpt>
      <trkpt lat="50.76857" lon="3.64893">
        <ele>110.7</ele>
        <time>2015-12-13T12:24:21Z</time>
      </trkpt>
      <trkpt lat="50.76855" lon="3.64892">
        <ele>111</ele>
        <time>2015-12-13T12:24:23Z</time>
      </trkpt>
      <trkpt lat="50.76852" lon="3.64893">
        <ele>111</ele>
        <time>2015-12-13T12:24:25Z</time>
      </trkpt>
      <trkpt lat="50.76849" lon="3.64894">
        <ele>111</ele>
        <time>2015-12-13T12:24:27Z</time>
      </trkpt>
      <trkpt lat="50.76847" lon="3.64895">
        <ele>111</ele>
        <time>2015-12-13T12:24:29Z</time>
      </trkpt>
      <trkpt lat="50.76843" lon="3.64896">
        <ele>112.4</ele>
        <time>2015-12-13T12:24:31Z</time>
      </trkpt>
      <trkpt lat="50.76841" lon="3.64896">
        <ele>113</ele>
        <time>2015-12-13T12:24:33Z</time>
      </trkpt>
      <trkpt lat="50.76838" lon="3.64896">
        <ele>113</ele>
        <time>2015-12-13T12:24:35Z</time>
      </trkpt>
      <trkpt lat="50.76836" lon="3.64897">
        <ele>113</ele>
        <time>2015-12-13T12:24:37Z</time>
      </trkpt>
      <trkpt lat="50.76834" lon="3.64897">
        <ele>113</ele>
        <time>2015-12-13T12:24:38Z</time>
      </trkpt>
      <trkpt lat="50.76831" lon="3.64897">
        <ele>113</ele>
        <time>2015-12-13T12:24:40Z</time>
      </trkpt>
      <trkpt lat="50.76828" lon="3.64898">
        <ele>113</ele>
        <time>2015-12-13T12:24:42Z</time>
      </trkpt>
      <trkpt lat="50.76826" lon="3.64898">
        <ele>113</ele>
        <time>2015-12-13T12:24:43Z</time>
      </trkpt>
      <trkpt lat="50.76824" lon="3.64899">
        <ele>113</ele>
        <time>2015-12-13T12:24:45Z</time>
      </trkpt>
      <trkpt lat="50.76821" lon="3.64899">
        <ele>113</ele>
        <time>2015-12-13T12:24:47Z</time>
      </trkpt>
      <trkpt lat="50.76818" lon="3.64899">
        <ele>113</ele>
        <time>2015-12-13T12:24:49Z</time>
      </trkpt>
      <trkpt lat="50.76815" lon="3.649">
        <ele>113</ele>
        <time>2015-12-13T12:24:51Z</time>
      </trkpt>
      <trkpt lat="50.76813" lon="3.64901">
        <ele>113</ele>
        <time>2015-12-13T12:24:52Z</time>
      </trkpt>
      <trkpt lat="50.76811" lon="3.64902">
        <ele>113</ele>
        <time>2015-12-13T12:24:53Z</time>
      </trkpt>
      <trkpt lat="50.76809" lon="3.64903">
        <ele>113</ele>
        <time>2015-12-13T12:24:54Z</time>
      </trkpt>
      <trkpt lat="50.76807" lon="3.64904">
        <ele>113</ele>
        <time>2015-12-13T12:24:55Z</time>
      </trkpt>
      <trkpt lat="50.76805" lon="3.64905">
        <ele>113</ele>
        <time>2015-12-13T12:24:56Z</time>
      </trkpt>
      <trkpt lat="50.76803" lon="3.64906">
        <ele>113</ele>
        <time>2015-12-13T12:24:57Z</time>
      </trkpt>
      <trkpt lat="50.76801" lon="3.64907">
        <ele>113</ele>
        <time>2015-12-13T12:24:58Z</time>
      </trkpt>
      <trkpt lat="50.76799" lon="3.64908">
        <ele>113</ele>
        <time>2015-12-13T12:24:59Z</time>
      </trkpt>
      <trkpt lat="50.76796" lon="3.64909">
        <ele>113</ele>
        <time>2015-12-13T12:25:00Z</time>
      </trkpt>
      <trkpt lat="50.76794" lon="3.64909">
        <ele>115.7</ele>
        <time>2015-12-13T12:25:01Z</time>
      </trkpt>
      <trkpt lat="50.76792" lon="3.64909">
        <ele>117</ele>
        <time>2015-12-13T12:25:02Z</time>
      </trkpt>
      <trkpt lat="50.76789" lon="3.64909">
        <ele>117</ele>
        <time>2015-12-13T12:25:04Z</time>
      </trkpt>
      <trkpt lat="50.76786" lon="3.6491">
        <ele>117</ele>
        <time>2015-12-13T12:25:05Z</time>
      </trkpt>
      <trkpt lat="50.76783" lon="3.6491">
        <ele>117</ele>
        <time>2015-12-13T12:25:06Z</time>
      </trkpt>
      <trkpt lat="50.76781" lon="3.6491">
        <ele>117</ele>
        <time>2015-12-13T12:25:07Z</time>
      </trkpt>
      <trkpt lat="50.76779" lon="3.6491">
        <ele>117</ele>
        <time>2015-12-13T12:25:08Z</time>
      </trkpt>
      <trkpt lat="50.76777" lon="3.64911">
        <ele>117</ele>
        <time>2015-12-13T12:25:09Z</time>
      </trkpt>
      <trkpt lat="50.76774" lon="3.64911">
        <ele>117</ele>
        <time>2015-12-13T12:25:10Z</time>
      </trkpt>
      <trkpt lat="50.76771" lon="3.64911">
        <ele>119.7</ele>
        <time>2015-12-13T12:25:11Z</time>
      </trkpt>
      <trkpt lat="50.76768" lon="3.6491">
        <ele>121</ele>
        <time>2015-12-13T12:25:12Z</time>
      </trkpt>
      <trkpt lat="50.76766" lon="3.6491">
        <ele>121</ele>
        <time>2015-12-13T12:25:13Z</time>
      </trkpt>
      <trkpt lat="50.76764" lon="3.6491">
        <ele>121</ele>
        <time>2015-12-13T12:25:14Z</time>
      </trkpt>
      <trkpt lat="50.76762" lon="3.64911">
        <ele>121</ele>
        <time>2015-12-13T12:25:15Z</time>
      </trkpt>
      <trkpt lat="50.76759" lon="3.64911">
        <ele>121</ele>
        <time>2015-12-13T12:25:16Z</time>
      </trkpt>
      <trkpt lat="50.76757" lon="3.64912">
        <ele>121</ele>
        <time>2015-12-13T12:25:17Z</time>
      </trkpt>
      <trkpt lat="50.76754" lon="3.64911">
        <ele>121</ele>
        <time>2015-12-13T12:25:18Z</time>
      </trkpt>
      <trkpt lat="50.76752" lon="3.64911">
        <ele>121</ele>
        <time>2015-12-13T12:25:19Z</time>
      </trkpt>
      <trkpt lat="50.7675" lon="3.64912">
        <ele>121</ele>
        <time>2015-12-13T12:25:20Z</time>
      </trkpt>
      <trkpt lat="50.76748" lon="3.64912">
        <ele>121</ele>
        <time>2015-12-13T12:25:21Z</time>
      </trkpt>
      <trkpt lat="50.76745" lon="3.64912">
        <ele>121</ele>
        <time>2015-12-13T12:25:22Z</time>
      </trkpt>
      <trkpt lat="50.76743" lon="3.64912">
        <ele>121</ele>
        <time>2015-12-13T12:25:23Z</time>
      </trkpt>
      <trkpt lat="50.76741" lon="3.64913">
        <ele>121</ele>
        <time>2015-12-13T12:25:24Z</time>
      </trkpt>
      <trkpt lat="50.76739" lon="3.64913">
        <ele>121</ele>
        <time>2015-12-13T12:25:25Z</time>
      </trkpt>
      <trkpt lat="50.76737" lon="3.64913">
        <ele>121</ele>
        <time>2015-12-13T12:25:26Z</time>
      </trkpt>
      <trkpt lat="50.76734" lon="3.64913">
        <ele>121</ele>
        <time>2015-12-13T12:25:27Z</time>
      </trkpt>
      <trkpt lat="50.76732" lon="3.64913">
        <ele>121</ele>
        <time>2015-12-13T12:25:28Z</time>
      </trkpt>
      <trkpt lat="50.7673" lon="3.64913">
        <ele>121</ele>
        <time>2015-12-13T12:25:29Z</time>
      </trkpt>
      <trkpt lat="50.76728" lon="3.64913">
        <ele>121</ele>
        <time>2015-12-13T12:25:30Z</time>
      </trkpt>
      <trkpt lat="50.76725" lon="3.64913">
        <ele>122.4</ele>
        <time>2015-12-13T12:25:31Z</time>
      </trkpt>
      <trkpt lat="50.76723" lon="3.64913">
        <ele>123</ele>
        <time>2015-12-13T12:25:32Z</time>
      </trkpt>
      <trkpt lat="50.76721" lon="3.64913">
        <ele>123</ele>
        <time>2015-12-13T12:25:33Z</time>
      </trkpt>
      <trkpt lat="50.76719" lon="3.64913">
        <ele>123</ele>
        <time>2015-12-13T12:25:34Z</time>
      </trkpt>
      <trkpt lat="50.76717" lon="3.64913">
        <ele>123</ele>
        <time>2015-12-13T12:25:35Z</time>
      </trkpt>
      <trkpt lat="50.76715" lon="3.64913">
        <ele>123</ele>
        <time>2015-12-13T12:25:36Z</time>
      </trkpt>
      <trkpt lat="50.76713" lon="3.64913">
        <ele>123</ele>
        <time>2015-12-13T12:25:37Z</time>
      </trkpt>
      <trkpt lat="50.7671" lon="3.64914">
        <ele>123</ele>
        <time>2015-12-13T12:25:38Z</time>
      </trkpt>
      <trkpt lat="50.76708" lon="3.64914">
        <ele>123</ele>
        <time>2015-12-13T12:25:39Z</time>
      </trkpt>
      <trkpt lat="50.76705" lon="3.64912">
        <ele>124</ele>
        <time>2015-12-13T12:25:43Z</time>
      </trkpt>
      <trkpt lat="50.76703" lon="3.64912">
        <ele>124</ele>
        <time>2015-12-13T12:25:44Z</time>
      </trkpt>
      <trkpt lat="50.767" lon="3.64911">
        <ele>124</ele>
        <time>2015-12-13T12:25:45Z</time>
      </trkpt>
      <trkpt lat="50.76698" lon="3.64911">
        <ele>124</ele>
        <time>2015-12-13T12:25:46Z</time>
      </trkpt>
      <trkpt lat="50.76696" lon="3.6491">
        <ele>124</ele>
        <time>2015-12-13T12:25:47Z</time>
      </trkpt>
      <trkpt lat="50.76693" lon="3.64911">
        <ele>124</ele>
        <time>2015-12-13T12:25:48Z</time>
      </trkpt>
      <trkpt lat="50.76691" lon="3.64911">
        <ele>124</ele>
        <time>2015-12-13T12:25:49Z</time>
      </trkpt>
      <trkpt lat="50.76688" lon="3.64911">
        <ele>124</ele>
        <time>2015-12-13T12:25:50Z</time>
      </trkpt>
      <trkpt lat="50.76686" lon="3.64911">
        <ele>125.4</ele>
        <time>2015-12-13T12:25:51Z</time>
      </trkpt>
      <trkpt lat="50.76684" lon="3.64911">
        <ele>126</ele>
        <time>2015-12-13T12:25:52Z</time>
      </trkpt>
      <trkpt lat="50.76682" lon="3.64912">
        <ele>126</ele>
        <time>2015-12-13T12:25:53Z</time>
      </trkpt>
      <trkpt lat="50.76679" lon="3.64912">
        <ele>126</ele>
        <time>2015-12-13T12:25:54Z</time>
      </trkpt>
      <trkpt lat="50.76677" lon="3.64911">
        <ele>126</ele>
        <time>2015-12-13T12:25:55Z</time>
      </trkpt>
      <trkpt lat="50.76675" lon="3.6491">
        <ele>126</ele>
        <time>2015-12-13T12:25:56Z</time>
      </trkpt>
      <trkpt lat="50.76672" lon="3.6491">
        <ele>126</ele>
        <time>2015-12-13T12:25:57Z</time>
      </trkpt>
      <trkpt lat="50.7667" lon="3.64909">
        <ele>126</ele>
        <time>2015-12-13T12:25:58Z</time>
      </trkpt>
      <trkpt lat="50.76667" lon="3.64909">
        <ele>126</ele>
        <time>2015-12-13T12:25:59Z</time>
      </trkpt>
      <trkpt lat="50.76665" lon="3.64908">
        <ele>126</ele>
        <time>2015-12-13T12:26:00Z</time>
      </trkpt>
      <trkpt lat="50.76663" lon="3.64908">
        <ele>126.7</ele>
        <time>2015-12-13T12:26:01Z</time>
      </trkpt>
      <trkpt lat="50.76661" lon="3.64907">
        <ele>127</ele>
        <time>2015-12-13T12:26:02Z</time>
      </trkpt>
      <trkpt lat="50.76658" lon="3.64907">
        <ele>127</ele>
        <time>2015-12-13T12:26:03Z</time>
      </trkpt>
      <trkpt lat="50.76656" lon="3.64906">
        <ele>127</ele>
        <time>2015-12-13T12:26:04Z</time>
      </trkpt>
      <trkpt lat="50.76654" lon="3.64906">
        <ele>127</ele>
        <time>2015-12-13T12:26:05Z</time>
      </trkpt>
      <trkpt lat="50.76651" lon="3.64906">
        <ele>127</ele>
        <time>2015-12-13T12:26:06Z</time>
      </trkpt>
      <trkpt lat="50.76649" lon="3.64906">
        <ele>127</ele>
        <time>2015-12-13T12:26:07Z</time>
      </trkpt>
      <trkpt lat="50.76647" lon="3.64906">
        <ele>127</ele>
        <time>2015-12-13T12:26:09Z</time>
      </trkpt>
      <trkpt lat="50.76645" lon="3.64908">
        <ele>127</ele>
        <time>2015-12-13T12:26:11Z</time>
      </trkpt>
      <trkpt lat="50.76645" lon="3.64912">
        <ele>127</ele>
        <time>2015-12-13T12:26:13Z</time>
      </trkpt>
      <trkpt lat="50.76648" lon="3.64916">
        <ele>127</ele>
        <time>2015-12-13T12:26:15Z</time>
      </trkpt>
      <trkpt lat="50.76649" lon="3.64918">
        <ele>127</ele>
        <time>2015-12-13T12:26:16Z</time>
      </trkpt>
      <trkpt lat="50.76651" lon="3.6492">
        <ele>127</ele>
        <time>2015-12-13T12:26:17Z</time>
      </trkpt>
      <trkpt lat="50.76653" lon="3.64922">
        <ele>127</ele>
        <time>2015-12-13T12:26:18Z</time>
      </trkpt>
      <trkpt lat="50.76654" lon="3.64924">
        <ele>127</ele>
        <time>2015-12-13T12:26:19Z</time>
      </trkpt>
      <trkpt lat="50.76656" lon="3.64926">
        <ele>127</ele>
        <time>2015-12-13T12:26:20Z</time>
      </trkpt>
      <trkpt lat="50.76658" lon="3.64929">
        <ele>127</ele>
        <time>2015-12-13T12:26:21Z</time>
      </trkpt>
      <trkpt lat="50.76659" lon="3.64931">
        <ele>127</ele>
        <time>2015-12-13T12:26:22Z</time>
      </trkpt>
      <trkpt lat="50.76661" lon="3.64933">
        <ele>127</ele>
        <time>2015-12-13T12:26:23Z</time>
      </trkpt>
      <trkpt lat="50.76662" lon="3.64936">
        <ele>127</ele>
        <time>2015-12-13T12:26:24Z</time>
      </trkpt>
      <trkpt lat="50.76664" lon="3.64938">
        <ele>127</ele>
        <time>2015-12-13T12:26:25Z</time>
      </trkpt>
      <trkpt lat="50.76665" lon="3.6494">
        <ele>127</ele>
        <time>2015-12-13T12:26:26Z</time>
      </trkpt>
      <trkpt lat="50.76667" lon="3.64943">
        <ele>127</ele>
        <time>2015-12-13T12:26:27Z</time>
      </trkpt>
      <trkpt lat="50.76668" lon="3.64945">
        <ele>127</ele>
        <time>2015-12-13T12:26:28Z</time>
      </trkpt>
      <trkpt lat="50.7667" lon="3.64948">
        <ele>127</ele>
        <time>2015-12-13T12:26:29Z</time>
      </trkpt>
      <trkpt lat="50.76672" lon="3.64951">
        <ele>127</ele>
        <time>2015-12-13T12:26:30Z</time>
      </trkpt>
      <trkpt lat="50.76673" lon="3.64954">
        <ele>126.3</ele>
        <time>2015-12-13T12:26:31Z</time>
      </trkpt>
      <trkpt lat="50.76675" lon="3.64956">
        <ele>126</ele>
        <time>2015-12-13T12:26:32Z</time>
      </trkpt>
      <trkpt lat="50.76677" lon="3.64958">
        <ele>126</ele>
        <time>2015-12-13T12:26:33Z</time>
      </trkpt>
      <trkpt lat="50.76679" lon="3.64961">
        <ele>126</ele>
        <time>2015-12-13T12:26:34Z</time>
      </trkpt>
      <trkpt lat="50.7668" lon="3.64963">
        <ele>126</ele>
        <time>2015-12-13T12:26:35Z</time>
      </trkpt>
      <trkpt lat="50.76682" lon="3.64965">
        <ele>126</ele>
        <time>2015-12-13T12:26:36Z</time>
      </trkpt>
      <trkpt lat="50.76684" lon="3.64967">
        <ele>126</ele>
        <time>2015-12-13T12:26:37Z</time>
      </trkpt>
      <trkpt lat="50.76686" lon="3.64969">
        <ele>126</ele>
        <time>2015-12-13T12:26:38Z</time>
      </trkpt>
      <trkpt lat="50.76688" lon="3.64972">
        <ele>126</ele>
        <time>2015-12-13T12:26:39Z</time>
      </trkpt>
      <trkpt lat="50.7669" lon="3.64974">
        <ele>126</ele>
        <time>2015-12-13T12:26:40Z</time>
      </trkpt>
      <trkpt lat="50.76692" lon="3.64976">
        <ele>125.5</ele>
        <time>2015-12-13T12:26:41Z</time>
      </trkpt>
      <trkpt lat="50.76693" lon="3.64978">
        <ele>125</ele>
        <time>2015-12-13T12:26:42Z</time>
      </trkpt>
      <trkpt lat="50.76694" lon="3.64981">
        <ele>125</ele>
        <time>2015-12-13T12:26:43Z</time>
      </trkpt>
      <trkpt lat="50.76697" lon="3.64985">
        <ele>125</ele>
        <time>2015-12-13T12:26:45Z</time>
      </trkpt>
      <trkpt lat="50.76698" lon="3.64988">
        <ele>125</ele>
        <time>2015-12-13T12:26:46Z</time>
      </trkpt>
      <trkpt lat="50.767" lon="3.64991">
        <ele>125</ele>
        <time>2015-12-13T12:26:47Z</time>
      </trkpt>
      <trkpt lat="50.76702" lon="3.64993">
        <ele>125</ele>
        <time>2015-12-13T12:26:48Z</time>
      </trkpt>
      <trkpt lat="50.76704" lon="3.64996">
        <ele>125</ele>
        <time>2015-12-13T12:26:49Z</time>
      </trkpt>
      <trkpt lat="50.76706" lon="3.64999">
        <ele>125</ele>
        <time>2015-12-13T12:26:50Z</time>
      </trkpt>
      <trkpt lat="50.76708" lon="3.65002">
        <ele>123.6</ele>
        <time>2015-12-13T12:26:51Z</time>
      </trkpt>
      <trkpt lat="50.76711" lon="3.65005">
        <ele>123</ele>
        <time>2015-12-13T12:26:52Z</time>
      </trkpt>
      <trkpt lat="50.76713" lon="3.65007">
        <ele>123</ele>
        <time>2015-12-13T12:26:53Z</time>
      </trkpt>
      <trkpt lat="50.76715" lon="3.6501">
        <ele>123</ele>
        <time>2015-12-13T12:26:54Z</time>
      </trkpt>
      <trkpt lat="50.76717" lon="3.65012">
        <ele>123</ele>
        <time>2015-12-13T12:26:55Z</time>
      </trkpt>
      <trkpt lat="50.76719" lon="3.65015">
        <ele>123</ele>
        <time>2015-12-13T12:26:56Z</time>
      </trkpt>
      <trkpt lat="50.76721" lon="3.65017">
        <ele>123</ele>
        <time>2015-12-13T12:26:57Z</time>
      </trkpt>
      <trkpt lat="50.76722" lon="3.65018">
        <ele>123</ele>
        <time>2015-12-13T12:26:58Z</time>
      </trkpt>
      <trkpt lat="50.76724" lon="3.65019">
        <ele>123</ele>
        <time>2015-12-13T12:26:59Z</time>
      </trkpt>
      <trkpt lat="50.76726" lon="3.65021">
        <ele>123</ele>
        <time>2015-12-13T12:27:00Z</time>
      </trkpt>
      <trkpt lat="50.76728" lon="3.65022">
        <ele>121.9</ele>
        <time>2015-12-13T12:27:01Z</time>
      </trkpt>
      <trkpt lat="50.7673" lon="3.65023">
        <ele>121</ele>
        <time>2015-12-13T12:27:02Z</time>
      </trkpt>
      <trkpt lat="50.76732" lon="3.65025">
        <ele>121</ele>
        <time>2015-12-13T12:27:03Z</time>
      </trkpt>
      <trkpt lat="50.76734" lon="3.65026">
        <ele>121</ele>
        <time>2015-12-13T12:27:04Z</time>
      </trkpt>
      <trkpt lat="50.76736" lon="3.65027">
        <ele>121</ele>
        <time>2015-12-13T12:27:05Z</time>
      </trkpt>
      <trkpt lat="50.76738" lon="3.65028">
        <ele>121</ele>
        <time>2015-12-13T12:27:06Z</time>
      </trkpt>
      <trkpt lat="50.76741" lon="3.6503">
        <ele>121</ele>
        <time>2015-12-13T12:27:07Z</time>
      </trkpt>
      <trkpt lat="50.76743" lon="3.65031">
        <ele>121</ele>
        <time>2015-12-13T12:27:08Z</time>
      </trkpt>
      <trkpt lat="50.76745" lon="3.65032">
        <ele>121</ele>
        <time>2015-12-13T12:27:09Z</time>
      </trkpt>
      <trkpt lat="50.76748" lon="3.65034">
        <ele>121</ele>
        <time>2015-12-13T12:27:10Z</time>
      </trkpt>
      <trkpt lat="50.76751" lon="3.65036">
        <ele>121</ele>
        <time>2015-12-13T12:27:11Z</time>
      </trkpt>
      <trkpt lat="50.76753" lon="3.65038">
        <ele>121</ele>
        <time>2015-12-13T12:27:12Z</time>
      </trkpt>
      <trkpt lat="50.76756" lon="3.6504">
        <ele>121</ele>
        <time>2015-12-13T12:27:13Z</time>
      </trkpt>
      <trkpt lat="50.76759" lon="3.65041">
        <ele>121</ele>
        <time>2015-12-13T12:27:14Z</time>
      </trkpt>
      <trkpt lat="50.76762" lon="3.65042">
        <ele>121</ele>
        <time>2015-12-13T12:27:15Z</time>
      </trkpt>
      <trkpt lat="50.76765" lon="3.65042">
        <ele>121</ele>
        <time>2015-12-13T12:27:16Z</time>
      </trkpt>
      <trkpt lat="50.76767" lon="3.65042">
        <ele>121</ele>
        <time>2015-12-13T12:27:17Z</time>
      </trkpt>
      <trkpt lat="50.7677" lon="3.65043">
        <ele>121</ele>
        <time>2015-12-13T12:27:18Z</time>
      </trkpt>
      <trkpt lat="50.76773" lon="3.65043">
        <ele>121</ele>
        <time>2015-12-13T12:27:19Z</time>
      </trkpt>
      <trkpt lat="50.76775" lon="3.65044">
        <ele>121</ele>
        <time>2015-12-13T12:27:20Z</time>
      </trkpt>
      <trkpt lat="50.76777" lon="3.65046">
        <ele>121</ele>
        <time>2015-12-13T12:27:21Z</time>
      </trkpt>
      <trkpt lat="50.7678" lon="3.65047">
        <ele>121</ele>
        <time>2015-12-13T12:27:22Z</time>
      </trkpt>
      <trkpt lat="50.76783" lon="3.65049">
        <ele>121</ele>
        <time>2015-12-13T12:27:23Z</time>
      </trkpt>
      <trkpt lat="50.76785" lon="3.65052">
        <ele>121</ele>
        <time>2015-12-13T12:27:24Z</time>
      </trkpt>
      <trkpt lat="50.76788" lon="3.65054">
        <ele>121</ele>
        <time>2015-12-13T12:27:25Z</time>
      </trkpt>
      <trkpt lat="50.7679" lon="3.65057">
        <ele>121</ele>
        <time>2015-12-13T12:27:26Z</time>
      </trkpt>
      <trkpt lat="50.76792" lon="3.6506">
        <ele>121</ele>
        <time>2015-12-13T12:27:27Z</time>
      </trkpt>
      <trkpt lat="50.76795" lon="3.65062">
        <ele>121</ele>
        <time>2015-12-13T12:27:28Z</time>
      </trkpt>
      <trkpt lat="50.76797" lon="3.65065">
        <ele>121</ele>
        <time>2015-12-13T12:27:29Z</time>
      </trkpt>
      <trkpt lat="50.76799" lon="3.65068">
        <ele>121</ele>
        <time>2015-12-13T12:27:30Z</time>
      </trkpt>
      <trkpt lat="50.76802" lon="3.65072">
        <ele>118.3</ele>
        <time>2015-12-13T12:27:31Z</time>
      </trkpt>
      <trkpt lat="50.76804" lon="3.65075">
        <ele>117</ele>
        <time>2015-12-13T12:27:32Z</time>
      </trkpt>
      <trkpt lat="50.76806" lon="3.65078">
        <ele>117</ele>
        <time>2015-12-13T12:27:33Z</time>
      </trkpt>
      <trkpt lat="50.76808" lon="3.6508">
        <ele>117</ele>
        <time>2015-12-13T12:27:34Z</time>
      </trkpt>
      <trkpt lat="50.7681" lon="3.65083">
        <ele>117</ele>
        <time>2015-12-13T12:27:35Z</time>
      </trkpt>
      <trkpt lat="50.76812" lon="3.65085">
        <ele>116.5</ele>
        <time>2015-12-13T12:27:36Z</time>
      </trkpt>
      <trkpt lat="50.76814" lon="3.65088">
        <ele>116</ele>
        <time>2015-12-13T12:27:37Z</time>
      </trkpt>
      <trkpt lat="50.76817" lon="3.65092">
        <ele>116</ele>
        <time>2015-12-13T12:27:38Z</time>
      </trkpt>
      <trkpt lat="50.76819" lon="3.65095">
        <ele>116</ele>
        <time>2015-12-13T12:27:39Z</time>
      </trkpt>
      <trkpt lat="50.76821" lon="3.65098">
        <ele>116</ele>
        <time>2015-12-13T12:27:40Z</time>
      </trkpt>
      <trkpt lat="50.76824" lon="3.65101">
        <ele>115.3</ele>
        <time>2015-12-13T12:27:41Z</time>
      </trkpt>
      <trkpt lat="50.76826" lon="3.65103">
        <ele>115</ele>
        <time>2015-12-13T12:27:42Z</time>
      </trkpt>
      <trkpt lat="50.76828" lon="3.65106">
        <ele>115</ele>
        <time>2015-12-13T12:27:43Z</time>
      </trkpt>
      <trkpt lat="50.7683" lon="3.65108">
        <ele>115</ele>
        <time>2015-12-13T12:27:44Z</time>
      </trkpt>
      <trkpt lat="50.76832" lon="3.6511">
        <ele>115</ele>
        <time>2015-12-13T12:27:45Z</time>
      </trkpt>
      <trkpt lat="50.76833" lon="3.65113">
        <ele>115</ele>
        <time>2015-12-13T12:27:46Z</time>
      </trkpt>
      <trkpt lat="50.76835" lon="3.65116">
        <ele>115</ele>
        <time>2015-12-13T12:27:47Z</time>
      </trkpt>
      <trkpt lat="50.76837" lon="3.65119">
        <ele>115</ele>
        <time>2015-12-13T12:27:48Z</time>
      </trkpt>
      <trkpt lat="50.76839" lon="3.65122">
        <ele>115</ele>
        <time>2015-12-13T12:27:49Z</time>
      </trkpt>
      <trkpt lat="50.7684" lon="3.65124">
        <ele>115</ele>
        <time>2015-12-13T12:27:50Z</time>
      </trkpt>
      <trkpt lat="50.76842" lon="3.65127">
        <ele>114.3</ele>
        <time>2015-12-13T12:27:51Z</time>
      </trkpt>
      <trkpt lat="50.76844" lon="3.65129">
        <ele>114</ele>
        <time>2015-12-13T12:27:52Z</time>
      </trkpt>
      <trkpt lat="50.76847" lon="3.65132">
        <ele>114</ele>
        <time>2015-12-13T12:27:53Z</time>
      </trkpt>
      <trkpt lat="50.76849" lon="3.65134">
        <ele>114</ele>
        <time>2015-12-13T12:27:54Z</time>
      </trkpt>
      <trkpt lat="50.76852" lon="3.65137">
        <ele>114</ele>
        <time>2015-12-13T12:27:55Z</time>
      </trkpt>
      <trkpt lat="50.76853" lon="3.65139">
        <ele>114</ele>
        <time>2015-12-13T12:27:56Z</time>
      </trkpt>
      <trkpt lat="50.76856" lon="3.65142">
        <ele>114</ele>
        <time>2015-12-13T12:27:57Z</time>
      </trkpt>
      <trkpt lat="50.76858" lon="3.65145">
        <ele>114</ele>
        <time>2015-12-13T12:27:58Z</time>
      </trkpt>
      <trkpt lat="50.7686" lon="3.65148">
        <ele>114</ele>
        <time>2015-12-13T12:27:59Z</time>
      </trkpt>
      <trkpt lat="50.76862" lon="3.65151">
        <ele>114</ele>
        <time>2015-12-13T12:28:00Z</time>
      </trkpt>
      <trkpt lat="50.76864" lon="3.65153">
        <ele>113.3</ele>
        <time>2015-12-13T12:28:01Z</time>
      </trkpt>
      <trkpt lat="50.76866" lon="3.65156">
        <ele>113</ele>
        <time>2015-12-13T12:28:02Z</time>
      </trkpt>
      <trkpt lat="50.76867" lon="3.65159">
        <ele>113</ele>
        <time>2015-12-13T12:28:03Z</time>
      </trkpt>
      <trkpt lat="50.76869" lon="3.65162">
        <ele>113</ele>
        <time>2015-12-13T12:28:04Z</time>
      </trkpt>
      <trkpt lat="50.76871" lon="3.65165">
        <ele>113</ele>
        <time>2015-12-13T12:28:05Z</time>
      </trkpt>
      <trkpt lat="50.76872" lon="3.65168">
        <ele>113</ele>
        <time>2015-12-13T12:28:06Z</time>
      </trkpt>
      <trkpt lat="50.76874" lon="3.65172">
        <ele>113</ele>
        <time>2015-12-13T12:28:07Z</time>
      </trkpt>
      <trkpt lat="50.76875" lon="3.65176">
        <ele>113</ele>
        <time>2015-12-13T12:28:08Z</time>
      </trkpt>
      <trkpt lat="50.76876" lon="3.6518">
        <ele>113</ele>
        <time>2015-12-13T12:28:09Z</time>
      </trkpt>
      <trkpt lat="50.76877" lon="3.65183">
        <ele>113</ele>
        <time>2015-12-13T12:28:10Z</time>
      </trkpt>
      <trkpt lat="50.76878" lon="3.65187">
        <ele>113</ele>
        <time>2015-12-13T12:28:11Z</time>
      </trkpt>
      <trkpt lat="50.76879" lon="3.6519">
        <ele>113</ele>
        <time>2015-12-13T12:28:12Z</time>
      </trkpt>
      <trkpt lat="50.7688" lon="3.65194">
        <ele>113</ele>
        <time>2015-12-13T12:28:13Z</time>
      </trkpt>
      <trkpt lat="50.76881" lon="3.65197">
        <ele>113</ele>
        <time>2015-12-13T12:28:14Z</time>
      </trkpt>
      <trkpt lat="50.76882" lon="3.65201">
        <ele>113</ele>
        <time>2015-12-13T12:28:15Z</time>
      </trkpt>
      <trkpt lat="50.76883" lon="3.65204">
        <ele>113</ele>
        <time>2015-12-13T12:28:16Z</time>
      </trkpt>
      <trkpt lat="50.76883" lon="3.65207">
        <ele>113.5</ele>
        <time>2015-12-13T12:28:17Z</time>
      </trkpt>
      <trkpt lat="50.76884" lon="3.65211">
        <ele>114</ele>
        <time>2015-12-13T12:28:18Z</time>
      </trkpt>
      <trkpt lat="50.76885" lon="3.65214">
        <ele>114</ele>
        <time>2015-12-13T12:28:19Z</time>
      </trkpt>
      <trkpt lat="50.76886" lon="3.65218">
        <ele>114</ele>
        <time>2015-12-13T12:28:20Z</time>
      </trkpt>
      <trkpt lat="50.76887" lon="3.65221">
        <ele>114</ele>
        <time>2015-12-13T12:28:21Z</time>
      </trkpt>
      <trkpt lat="50.76888" lon="3.65224">
        <ele>114</ele>
        <time>2015-12-13T12:28:22Z</time>
      </trkpt>
      <trkpt lat="50.76889" lon="3.65228">
        <ele>114</ele>
        <time>2015-12-13T12:28:23Z</time>
      </trkpt>
      <trkpt lat="50.7689" lon="3.65231">
        <ele>114</ele>
        <time>2015-12-13T12:28:24Z</time>
      </trkpt>
      <trkpt lat="50.7689" lon="3.65234">
        <ele>114</ele>
        <time>2015-12-13T12:28:25Z</time>
      </trkpt>
      <trkpt lat="50.76891" lon="3.65238">
        <ele>114</ele>
        <time>2015-12-13T12:28:26Z</time>
      </trkpt>
      <trkpt lat="50.76891" lon="3.65241">
        <ele>114</ele>
        <time>2015-12-13T12:28:27Z</time>
      </trkpt>
      <trkpt lat="50.76893" lon="3.65245">
        <ele>114</ele>
        <time>2015-12-13T12:28:28Z</time>
      </trkpt>
      <trkpt lat="50.76894" lon="3.65249">
        <ele>114</ele>
        <time>2015-12-13T12:28:29Z</time>
      </trkpt>
      <trkpt lat="50.76895" lon="3.65252">
        <ele>114</ele>
        <time>2015-12-13T12:28:30Z</time>
      </trkpt>
      <trkpt lat="50.76896" lon="3.65256">
        <ele>114</ele>
        <time>2015-12-13T12:28:31Z</time>
      </trkpt>
      <trkpt lat="50.76897" lon="3.65259">
        <ele>114</ele>
        <time>2015-12-13T12:28:32Z</time>
      </trkpt>
      <trkpt lat="50.76899" lon="3.65262">
        <ele>114</ele>
        <time>2015-12-13T12:28:33Z</time>
      </trkpt>
      <trkpt lat="50.769" lon="3.65265">
        <ele>114</ele>
        <time>2015-12-13T12:28:34Z</time>
      </trkpt>
      <trkpt lat="50.76901" lon="3.65268">
        <ele>114</ele>
        <time>2015-12-13T12:28:35Z</time>
      </trkpt>
      <trkpt lat="50.76901" lon="3.65271">
        <ele>114</ele>
        <time>2015-12-13T12:28:36Z</time>
      </trkpt>
      <trkpt lat="50.76902" lon="3.65274">
        <ele>114</ele>
        <time>2015-12-13T12:28:37Z</time>
      </trkpt>
      <trkpt lat="50.76903" lon="3.65277">
        <ele>114</ele>
        <time>2015-12-13T12:28:38Z</time>
      </trkpt>
      <trkpt lat="50.76903" lon="3.6528">
        <ele>114</ele>
        <time>2015-12-13T12:28:39Z</time>
      </trkpt>
      <trkpt lat="50.76904" lon="3.65286">
        <ele>114</ele>
        <time>2015-12-13T12:28:41Z</time>
      </trkpt>
      <trkpt lat="50.76905" lon="3.65289">
        <ele>114</ele>
        <time>2015-12-13T12:28:42Z</time>
      </trkpt>
      <trkpt lat="50.76905" lon="3.65292">
        <ele>114</ele>
        <time>2015-12-13T12:28:43Z</time>
      </trkpt>
      <trkpt lat="50.76906" lon="3.65295">
        <ele>114</ele>
        <time>2015-12-13T12:28:44Z</time>
      </trkpt>
      <trkpt lat="50.76907" lon="3.65297">
        <ele>114</ele>
        <time>2015-12-13T12:28:45Z</time>
      </trkpt>
      <trkpt lat="50.76908" lon="3.653">
        <ele>114</ele>
        <time>2015-12-13T12:28:46Z</time>
      </trkpt>
      <trkpt lat="50.76909" lon="3.65305">
        <ele>114</ele>
        <time>2015-12-13T12:28:48Z</time>
      </trkpt>
      <trkpt lat="50.7691" lon="3.65308">
        <ele>114</ele>
        <time>2015-12-13T12:28:50Z</time>
      </trkpt>
      <trkpt lat="50.76911" lon="3.65312">
        <ele>115</ele>
        <time>2015-12-13T12:28:52Z</time>
      </trkpt>
      <trkpt lat="50.76912" lon="3.65315">
        <ele>115</ele>
        <time>2015-12-13T12:28:54Z</time>
      </trkpt>
      <trkpt lat="50.76913" lon="3.6532">
        <ele>115</ele>
        <time>2015-12-13T12:28:56Z</time>
      </trkpt>
      <trkpt lat="50.76914" lon="3.65325">
        <ele>115</ele>
        <time>2015-12-13T12:28:58Z</time>
      </trkpt>
      <trkpt lat="50.76915" lon="3.65329">
        <ele>115</ele>
        <time>2015-12-13T12:29:00Z</time>
      </trkpt>
      <trkpt lat="50.76917" lon="3.65333">
        <ele>114</ele>
        <time>2015-12-13T12:29:02Z</time>
      </trkpt>
      <trkpt lat="50.76918" lon="3.65337">
        <ele>114</ele>
        <time>2015-12-13T12:29:04Z</time>
      </trkpt>
      <trkpt lat="50.76918" lon="3.65342">
        <ele>114</ele>
        <time>2015-12-13T12:29:06Z</time>
      </trkpt>
      <trkpt lat="50.76918" lon="3.65345">
        <ele>114</ele>
        <time>2015-12-13T12:29:08Z</time>
      </trkpt>
      <trkpt lat="50.76921" lon="3.65349">
        <ele>114</ele>
        <time>2015-12-13T12:29:10Z</time>
      </trkpt>
      <trkpt lat="50.76923" lon="3.65353">
        <ele>116</ele>
        <time>2015-12-13T12:29:12Z</time>
      </trkpt>
      <trkpt lat="50.76924" lon="3.65357">
        <ele>116</ele>
        <time>2015-12-13T12:29:14Z</time>
      </trkpt>
      <trkpt lat="50.76925" lon="3.65361">
        <ele>116</ele>
        <time>2015-12-13T12:29:16Z</time>
      </trkpt>
      <trkpt lat="50.76925" lon="3.65366">
        <ele>116</ele>
        <time>2015-12-13T12:29:18Z</time>
      </trkpt>
      <trkpt lat="50.76926" lon="3.6537">
        <ele>116</ele>
        <time>2015-12-13T12:29:20Z</time>
      </trkpt>
      <trkpt lat="50.76927" lon="3.65374">
        <ele>116</ele>
        <time>2015-12-13T12:29:22Z</time>
      </trkpt>
      <trkpt lat="50.76929" lon="3.65378">
        <ele>116</ele>
        <time>2015-12-13T12:29:24Z</time>
      </trkpt>
      <trkpt lat="50.7693" lon="3.65383">
        <ele>116</ele>
        <time>2015-12-13T12:29:26Z</time>
      </trkpt>
      <trkpt lat="50.76931" lon="3.65387">
        <ele>116</ele>
        <time>2015-12-13T12:29:28Z</time>
      </trkpt>
      <trkpt lat="50.76932" lon="3.65391">
        <ele>116</ele>
        <time>2015-12-13T12:29:30Z</time>
      </trkpt>
      <trkpt lat="50.76933" lon="3.65395">
        <ele>116</ele>
        <time>2015-12-13T12:29:32Z</time>
      </trkpt>
      <trkpt lat="50.76934" lon="3.65399">
        <ele>116</ele>
        <time>2015-12-13T12:29:34Z</time>
      </trkpt>
      <trkpt lat="50.76936" lon="3.65403">
        <ele>116</ele>
        <time>2015-12-13T12:29:36Z</time>
      </trkpt>
      <trkpt lat="50.76937" lon="3.65406">
        <ele>116</ele>
        <time>2015-12-13T12:29:38Z</time>
      </trkpt>
      <trkpt lat="50.76938" lon="3.6541">
        <ele>116</ele>
        <time>2015-12-13T12:29:40Z</time>
      </trkpt>
      <trkpt lat="50.76939" lon="3.65415">
        <ele>116</ele>
        <time>2015-12-13T12:29:42Z</time>
      </trkpt>
      <trkpt lat="50.7694" lon="3.65419">
        <ele>116</ele>
        <time>2015-12-13T12:29:44Z</time>
      </trkpt>
      <trkpt lat="50.76941" lon="3.65424">
        <ele>116</ele>
        <time>2015-12-13T12:29:46Z</time>
      </trkpt>
      <trkpt lat="50.76942" lon="3.65428">
        <ele>116</ele>
        <time>2015-12-13T12:29:48Z</time>
      </trkpt>
      <trkpt lat="50.76943" lon="3.65432">
        <ele>116</ele>
        <time>2015-12-13T12:29:50Z</time>
      </trkpt>
      <trkpt lat="50.76944" lon="3.65436">
        <ele>116</ele>
        <time>2015-12-13T12:29:52Z</time>
      </trkpt>
      <trkpt lat="50.76945" lon="3.65439">
        <ele>116</ele>
        <time>2015-12-13T12:29:54Z</time>
      </trkpt>
      <trkpt lat="50.76946" lon="3.65442">
        <ele>116</ele>
        <time>2015-12-13T12:29:56Z</time>
      </trkpt>
      <trkpt lat="50.76947" lon="3.65446">
        <ele>116</ele>
        <time>2015-12-13T12:29:58Z</time>
      </trkpt>
      <trkpt lat="50.76948" lon="3.6545">
        <ele>116</ele>
        <time>2015-12-13T12:30:00Z</time>
      </trkpt>
      <trkpt lat="50.76949" lon="3.65454">
        <ele>116</ele>
        <time>2015-12-13T12:30:02Z</time>
      </trkpt>
      <trkpt lat="50.7695" lon="3.65457">
        <ele>116</ele>
        <time>2015-12-13T12:30:04Z</time>
      </trkpt>
      <trkpt lat="50.76951" lon="3.65462">
        <ele>116</ele>
        <time>2015-12-13T12:30:06Z</time>
      </trkpt>
      <trkpt lat="50.76952" lon="3.65466">
        <ele>116</ele>
        <time>2015-12-13T12:30:08Z</time>
      </trkpt>
      <trkpt lat="50.76954" lon="3.6547">
        <ele>116</ele>
        <time>2015-12-13T12:30:10Z</time>
      </trkpt>
      <trkpt lat="50.76953" lon="3.65473">
        <ele>116</ele>
        <time>2015-12-13T12:30:12Z</time>
      </trkpt>
      <trkpt lat="50.76951" lon="3.65475">
        <ele>116</ele>
        <time>2015-12-13T12:30:14Z</time>
      </trkpt>
      <trkpt lat="50.76948" lon="3.65477">
        <ele>116</ele>
        <time>2015-12-13T12:30:16Z</time>
      </trkpt>
      <trkpt lat="50.76946" lon="3.65478">
        <ele>116</ele>
        <time>2015-12-13T12:30:18Z</time>
      </trkpt>
      <trkpt lat="50.76948" lon="3.65476">
        <ele>114</ele>
        <time>2015-12-13T12:30:36Z</time>
      </trkpt>
      <trkpt lat="50.76951" lon="3.65477">
        <ele>114</ele>
        <time>2015-12-13T12:30:38Z</time>
      </trkpt>
      <trkpt lat="50.76953" lon="3.65477">
        <ele>114</ele>
        <time>2015-12-13T12:30:40Z</time>
      </trkpt>
      <trkpt lat="50.76956" lon="3.65479">
        <ele>114</ele>
        <time>2015-12-13T12:30:42Z</time>
      </trkpt>
      <trkpt lat="50.76958" lon="3.65481">
        <ele>114</ele>
        <time>2015-12-13T12:30:44Z</time>
      </trkpt>
      <trkpt lat="50.76958" lon="3.65484">
        <ele>114</ele>
        <time>2015-12-13T12:30:46Z</time>
      </trkpt>
      <trkpt lat="50.76959" lon="3.65486">
        <ele>114</ele>
        <time>2015-12-13T12:30:48Z</time>
      </trkpt>
      <trkpt lat="50.7696" lon="3.6549">
        <ele>114</ele>
        <time>2015-12-13T12:30:50Z</time>
      </trkpt>
      <trkpt lat="50.76961" lon="3.65494">
        <ele>114</ele>
        <time>2015-12-13T12:30:52Z</time>
      </trkpt>
      <trkpt lat="50.76962" lon="3.65498">
        <ele>114</ele>
        <time>2015-12-13T12:30:54Z</time>
      </trkpt>
      <trkpt lat="50.76964" lon="3.65502">
        <ele>114</ele>
        <time>2015-12-13T12:30:56Z</time>
      </trkpt>
      <trkpt lat="50.76965" lon="3.65506">
        <ele>114</ele>
        <time>2015-12-13T12:30:58Z</time>
      </trkpt>
      <trkpt lat="50.76966" lon="3.65509">
        <ele>114</ele>
        <time>2015-12-13T12:31:00Z</time>
      </trkpt>
      <trkpt lat="50.76967" lon="3.65513">
        <ele>113</ele>
        <time>2015-12-13T12:31:02Z</time>
      </trkpt>
      <trkpt lat="50.76969" lon="3.65518">
        <ele>113</ele>
        <time>2015-12-13T12:31:04Z</time>
      </trkpt>
      <trkpt lat="50.7697" lon="3.65522">
        <ele>113</ele>
        <time>2015-12-13T12:31:06Z</time>
      </trkpt>
      <trkpt lat="50.76971" lon="3.65526">
        <ele>113</ele>
        <time>2015-12-13T12:31:08Z</time>
      </trkpt>
      <trkpt lat="50.76972" lon="3.6553">
        <ele>113</ele>
        <time>2015-12-13T12:31:10Z</time>
      </trkpt>
      <trkpt lat="50.76974" lon="3.65534">
        <ele>113</ele>
        <time>2015-12-13T12:31:12Z</time>
      </trkpt>
      <trkpt lat="50.76975" lon="3.65538">
        <ele>113</ele>
        <time>2015-12-13T12:31:14Z</time>
      </trkpt>
      <trkpt lat="50.76976" lon="3.65543">
        <ele>113</ele>
        <time>2015-12-13T12:31:16Z</time>
      </trkpt>
      <trkpt lat="50.76977" lon="3.65546">
        <ele>113</ele>
        <time>2015-12-13T12:31:18Z</time>
      </trkpt>
      <trkpt lat="50.76978" lon="3.6555">
        <ele>113</ele>
        <time>2015-12-13T12:31:20Z</time>
      </trkpt>
      <trkpt lat="50.7698" lon="3.65554">
        <ele>112</ele>
        <time>2015-12-13T12:31:22Z</time>
      </trkpt>
      <trkpt lat="50.76981" lon="3.65556">
        <ele>112</ele>
        <time>2015-12-13T12:31:24Z</time>
      </trkpt>
      <trkpt lat="50.76984" lon="3.6556">
        <ele>112</ele>
        <time>2015-12-13T12:31:26Z</time>
      </trkpt>
      <trkpt lat="50.76985" lon="3.65564">
        <ele>112</ele>
        <time>2015-12-13T12:31:28Z</time>
      </trkpt>
      <trkpt lat="50.76985" lon="3.65568">
        <ele>112</ele>
        <time>2015-12-13T12:31:30Z</time>
      </trkpt>
      <trkpt lat="50.76986" lon="3.65572">
        <ele>111</ele>
        <time>2015-12-13T12:31:32Z</time>
      </trkpt>
      <trkpt lat="50.76987" lon="3.65577">
        <ele>111</ele>
        <time>2015-12-13T12:31:34Z</time>
      </trkpt>
      <trkpt lat="50.76988" lon="3.65581">
        <ele>111</ele>
        <time>2015-12-13T12:31:36Z</time>
      </trkpt>
      <trkpt lat="50.76989" lon="3.65586">
        <ele>111</ele>
        <time>2015-12-13T12:31:38Z</time>
      </trkpt>
      <trkpt lat="50.76989" lon="3.65591">
        <ele>111</ele>
        <time>2015-12-13T12:31:40Z</time>
      </trkpt>
      <trkpt lat="50.76991" lon="3.65594">
        <ele>110</ele>
        <time>2015-12-13T12:31:42Z</time>
      </trkpt>
      <trkpt lat="50.76992" lon="3.65598">
        <ele>110</ele>
        <time>2015-12-13T12:31:44Z</time>
      </trkpt>
      <trkpt lat="50.76994" lon="3.65602">
        <ele>110</ele>
        <time>2015-12-13T12:31:46Z</time>
      </trkpt>
      <trkpt lat="50.76995" lon="3.65606">
        <ele>110</ele>
        <time>2015-12-13T12:31:48Z</time>
      </trkpt>
      <trkpt lat="50.76996" lon="3.65611">
        <ele>110</ele>
        <time>2015-12-13T12:31:50Z</time>
      </trkpt>
      <trkpt lat="50.76998" lon="3.65615">
        <ele>109.7</ele>
        <time>2015-12-13T12:31:52Z</time>
      </trkpt>
      <trkpt lat="50.76999" lon="3.6562">
        <ele>110</ele>
        <time>2015-12-13T12:31:54Z</time>
      </trkpt>
      <trkpt lat="50.77001" lon="3.65624">
        <ele>110</ele>
        <time>2015-12-13T12:31:56Z</time>
      </trkpt>
      <trkpt lat="50.77002" lon="3.65627">
        <ele>110</ele>
        <time>2015-12-13T12:31:58Z</time>
      </trkpt>
      <trkpt lat="50.77003" lon="3.65631">
        <ele>110</ele>
        <time>2015-12-13T12:32:00Z</time>
      </trkpt>
      <trkpt lat="50.77004" lon="3.65635">
        <ele>110</ele>
        <time>2015-12-13T12:32:02Z</time>
      </trkpt>
      <trkpt lat="50.77004" lon="3.65639">
        <ele>110</ele>
        <time>2015-12-13T12:32:04Z</time>
      </trkpt>
      <trkpt lat="50.77005" lon="3.65643">
        <ele>110</ele>
        <time>2015-12-13T12:32:06Z</time>
      </trkpt>
      <trkpt lat="50.77007" lon="3.65647">
        <ele>110</ele>
        <time>2015-12-13T12:32:08Z</time>
      </trkpt>
      <trkpt lat="50.77007" lon="3.6565">
        <ele>110</ele>
        <time>2015-12-13T12:32:09Z</time>
      </trkpt>
      <trkpt lat="50.77009" lon="3.65654">
        <ele>110</ele>
        <time>2015-12-13T12:32:11Z</time>
      </trkpt>
      <trkpt lat="50.77009" lon="3.65658">
        <ele>110</ele>
        <time>2015-12-13T12:32:13Z</time>
      </trkpt>
      <trkpt lat="50.7701" lon="3.65662">
        <ele>110</ele>
        <time>2015-12-13T12:32:15Z</time>
      </trkpt>
      <trkpt lat="50.77011" lon="3.65666">
        <ele>110</ele>
        <time>2015-12-13T12:32:17Z</time>
      </trkpt>
      <trkpt lat="50.77013" lon="3.6567">
        <ele>110</ele>
        <time>2015-12-13T12:32:19Z</time>
      </trkpt>
      <trkpt lat="50.77014" lon="3.65674">
        <ele>109.3</ele>
        <time>2015-12-13T12:32:21Z</time>
      </trkpt>
      <trkpt lat="50.77015" lon="3.65678">
        <ele>109</ele>
        <time>2015-12-13T12:32:23Z</time>
      </trkpt>
      <trkpt lat="50.77017" lon="3.65682">
        <ele>109</ele>
        <time>2015-12-13T12:32:25Z</time>
      </trkpt>
      <trkpt lat="50.77018" lon="3.65685">
        <ele>109</ele>
        <time>2015-12-13T12:32:27Z</time>
      </trkpt>
      <trkpt lat="50.77019" lon="3.65688">
        <ele>109</ele>
        <time>2015-12-13T12:32:29Z</time>
      </trkpt>
      <trkpt lat="50.7702" lon="3.65692">
        <ele>109</ele>
        <time>2015-12-13T12:32:31Z</time>
      </trkpt>
      <trkpt lat="50.77022" lon="3.65697">
        <ele>109</ele>
        <time>2015-12-13T12:32:33Z</time>
      </trkpt>
      <trkpt lat="50.77024" lon="3.65701">
        <ele>109</ele>
        <time>2015-12-13T12:32:35Z</time>
      </trkpt>
      <trkpt lat="50.77025" lon="3.65705">
        <ele>109</ele>
        <time>2015-12-13T12:32:37Z</time>
      </trkpt>
      <trkpt lat="50.77027" lon="3.65709">
        <ele>109</ele>
        <time>2015-12-13T12:32:39Z</time>
      </trkpt>
      <trkpt lat="50.77029" lon="3.65712">
        <ele>108.3</ele>
        <time>2015-12-13T12:32:41Z</time>
      </trkpt>
      <trkpt lat="50.77031" lon="3.65715">
        <ele>108</ele>
        <time>2015-12-13T12:32:43Z</time>
      </trkpt>
      <trkpt lat="50.77033" lon="3.65718">
        <ele>108</ele>
        <time>2015-12-13T12:32:45Z</time>
      </trkpt>
      <trkpt lat="50.77034" lon="3.65722">
        <ele>108</ele>
        <time>2015-12-13T12:32:47Z</time>
      </trkpt>
      <trkpt lat="50.77036" lon="3.65725">
        <ele>108</ele>
        <time>2015-12-13T12:32:49Z</time>
      </trkpt>
      <trkpt lat="50.77038" lon="3.65729">
        <ele>108</ele>
        <time>2015-12-13T12:32:51Z</time>
      </trkpt>
      <trkpt lat="50.7704" lon="3.65733">
        <ele>108</ele>
        <time>2015-12-13T12:32:53Z</time>
      </trkpt>
      <trkpt lat="50.77041" lon="3.65737">
        <ele>108</ele>
        <time>2015-12-13T12:32:55Z</time>
      </trkpt>
      <trkpt lat="50.77043" lon="3.6574">
        <ele>108</ele>
        <time>2015-12-13T12:32:57Z</time>
      </trkpt>
      <trkpt lat="50.77044" lon="3.65744">
        <ele>108</ele>
        <time>2015-12-13T12:32:59Z</time>
      </trkpt>
      <trkpt lat="50.77046" lon="3.65748">
        <ele>108.5</ele>
        <time>2015-12-13T12:33:01Z</time>
      </trkpt>
      <trkpt lat="50.77048" lon="3.65751">
        <ele>109</ele>
        <time>2015-12-13T12:33:03Z</time>
      </trkpt>
      <trkpt lat="50.77049" lon="3.65754">
        <ele>109</ele>
        <time>2015-12-13T12:33:05Z</time>
      </trkpt>
      <trkpt lat="50.7705" lon="3.65757">
        <ele>109</ele>
        <time>2015-12-13T12:33:07Z</time>
      </trkpt>
      <trkpt lat="50.77052" lon="3.65761">
        <ele>109</ele>
        <time>2015-12-13T12:33:09Z</time>
      </trkpt>
      <trkpt lat="50.77052" lon="3.65764">
        <ele>109.7</ele>
        <time>2015-12-13T12:33:11Z</time>
      </trkpt>
      <trkpt lat="50.77054" lon="3.65768">
        <ele>110</ele>
        <time>2015-12-13T12:33:13Z</time>
      </trkpt>
      <trkpt lat="50.77055" lon="3.65771">
        <ele>110</ele>
        <time>2015-12-13T12:33:14Z</time>
      </trkpt>
      <trkpt lat="50.77056" lon="3.65774">
        <ele>110</ele>
        <time>2015-12-13T12:33:15Z</time>
      </trkpt>
      <trkpt lat="50.77057" lon="3.65777">
        <ele>110</ele>
        <time>2015-12-13T12:33:16Z</time>
      </trkpt>
      <trkpt lat="50.77059" lon="3.65781">
        <ele>110</ele>
        <time>2015-12-13T12:33:18Z</time>
      </trkpt>
      <trkpt lat="50.77061" lon="3.65786">
        <ele>110</ele>
        <time>2015-12-13T12:33:20Z</time>
      </trkpt>
      <trkpt lat="50.77063" lon="3.65791">
        <ele>110</ele>
        <time>2015-12-13T12:33:22Z</time>
      </trkpt>
      <trkpt lat="50.77064" lon="3.65796">
        <ele>110</ele>
        <time>2015-12-13T12:33:24Z</time>
      </trkpt>
      <trkpt lat="50.77064" lon="3.65799">
        <ele>110</ele>
        <time>2015-12-13T12:33:25Z</time>
      </trkpt>
      <trkpt lat="50.77065" lon="3.65801">
        <ele>110</ele>
        <time>2015-12-13T12:33:26Z</time>
      </trkpt>
      <trkpt lat="50.77066" lon="3.65804">
        <ele>110</ele>
        <time>2015-12-13T12:33:27Z</time>
      </trkpt>
      <trkpt lat="50.77068" lon="3.65809">
        <ele>110</ele>
        <time>2015-12-13T12:33:29Z</time>
      </trkpt>
      <trkpt lat="50.7707" lon="3.65814">
        <ele>110.7</ele>
        <time>2015-12-13T12:33:31Z</time>
      </trkpt>
      <trkpt lat="50.77071" lon="3.65817">
        <ele>111</ele>
        <time>2015-12-13T12:33:32Z</time>
      </trkpt>
      <trkpt lat="50.77072" lon="3.6582">
        <ele>111</ele>
        <time>2015-12-13T12:33:33Z</time>
      </trkpt>
      <trkpt lat="50.77073" lon="3.65823">
        <ele>111</ele>
        <time>2015-12-13T12:33:34Z</time>
      </trkpt>
      <trkpt lat="50.77074" lon="3.65826">
        <ele>111</ele>
        <time>2015-12-13T12:33:35Z</time>
      </trkpt>
      <trkpt lat="50.77075" lon="3.65829">
        <ele>111</ele>
        <time>2015-12-13T12:33:36Z</time>
      </trkpt>
      <trkpt lat="50.77076" lon="3.65832">
        <ele>111</ele>
        <time>2015-12-13T12:33:37Z</time>
      </trkpt>
      <trkpt lat="50.77078" lon="3.65835">
        <ele>111</ele>
        <time>2015-12-13T12:33:38Z</time>
      </trkpt>
      <trkpt lat="50.77079" lon="3.65838">
        <ele>111</ele>
        <time>2015-12-13T12:33:39Z</time>
      </trkpt>
      <trkpt lat="50.77081" lon="3.65841">
        <ele>111</ele>
        <time>2015-12-13T12:33:40Z</time>
      </trkpt>
      <trkpt lat="50.77083" lon="3.65844">
        <ele>111.7</ele>
        <time>2015-12-13T12:33:41Z</time>
      </trkpt>
      <trkpt lat="50.77084" lon="3.65848">
        <ele>112</ele>
        <time>2015-12-13T12:33:42Z</time>
      </trkpt>
      <trkpt lat="50.77085" lon="3.65851">
        <ele>112</ele>
        <time>2015-12-13T12:33:43Z</time>
      </trkpt>
      <trkpt lat="50.77086" lon="3.65855">
        <ele>112</ele>
        <time>2015-12-13T12:33:44Z</time>
      </trkpt>
      <trkpt lat="50.77088" lon="3.65858">
        <ele>112</ele>
        <time>2015-12-13T12:33:45Z</time>
      </trkpt>
      <trkpt lat="50.77089" lon="3.6586">
        <ele>112</ele>
        <time>2015-12-13T12:33:46Z</time>
      </trkpt>
      <trkpt lat="50.7709" lon="3.65863">
        <ele>112</ele>
        <time>2015-12-13T12:33:47Z</time>
      </trkpt>
      <trkpt lat="50.77091" lon="3.65866">
        <ele>112</ele>
        <time>2015-12-13T12:33:48Z</time>
      </trkpt>
      <trkpt lat="50.77092" lon="3.65868">
        <ele>112</ele>
        <time>2015-12-13T12:33:49Z</time>
      </trkpt>
      <trkpt lat="50.77094" lon="3.65871">
        <ele>112</ele>
        <time>2015-12-13T12:33:50Z</time>
      </trkpt>
      <trkpt lat="50.77095" lon="3.65874">
        <ele>112.5</ele>
        <time>2015-12-13T12:33:51Z</time>
      </trkpt>
      <trkpt lat="50.77096" lon="3.65877">
        <ele>113</ele>
        <time>2015-12-13T12:33:52Z</time>
      </trkpt>
      <trkpt lat="50.77098" lon="3.65882">
        <ele>113</ele>
        <time>2015-12-13T12:33:54Z</time>
      </trkpt>
      <trkpt lat="50.77099" lon="3.65884">
        <ele>113</ele>
        <time>2015-12-13T12:33:55Z</time>
      </trkpt>
      <trkpt lat="50.771" lon="3.65887">
        <ele>113</ele>
        <time>2015-12-13T12:33:56Z</time>
      </trkpt>
      <trkpt lat="50.77102" lon="3.6589">
        <ele>113</ele>
        <time>2015-12-13T12:33:57Z</time>
      </trkpt>
      <trkpt lat="50.77103" lon="3.65893">
        <ele>113</ele>
        <time>2015-12-13T12:33:58Z</time>
      </trkpt>
      <trkpt lat="50.77104" lon="3.65896">
        <ele>113</ele>
        <time>2015-12-13T12:33:59Z</time>
      </trkpt>
      <trkpt lat="50.77105" lon="3.65899">
        <ele>113</ele>
        <time>2015-12-13T12:34:00Z</time>
      </trkpt>
      <trkpt lat="50.77106" lon="3.65902">
        <ele>112.3</ele>
        <time>2015-12-13T12:34:01Z</time>
      </trkpt>
      <trkpt lat="50.77107" lon="3.65905">
        <ele>112</ele>
        <time>2015-12-13T12:34:02Z</time>
      </trkpt>
      <trkpt lat="50.77109" lon="3.65908">
        <ele>112</ele>
        <time>2015-12-13T12:34:03Z</time>
      </trkpt>
      <trkpt lat="50.7711" lon="3.6591">
        <ele>112</ele>
        <time>2015-12-13T12:34:04Z</time>
      </trkpt>
      <trkpt lat="50.77111" lon="3.65913">
        <ele>112</ele>
        <time>2015-12-13T12:34:05Z</time>
      </trkpt>
      <trkpt lat="50.77113" lon="3.65917">
        <ele>112</ele>
        <time>2015-12-13T12:34:06Z</time>
      </trkpt>
      <trkpt lat="50.77115" lon="3.6592">
        <ele>112</ele>
        <time>2015-12-13T12:34:07Z</time>
      </trkpt>
      <trkpt lat="50.77116" lon="3.65924">
        <ele>112</ele>
        <time>2015-12-13T12:34:08Z</time>
      </trkpt>
      <trkpt lat="50.77117" lon="3.65927">
        <ele>112</ele>
        <time>2015-12-13T12:34:09Z</time>
      </trkpt>
      <trkpt lat="50.77118" lon="3.6593">
        <ele>112</ele>
        <time>2015-12-13T12:34:10Z</time>
      </trkpt>
      <trkpt lat="50.77119" lon="3.65934">
        <ele>112.7</ele>
        <time>2015-12-13T12:34:11Z</time>
      </trkpt>
      <trkpt lat="50.77121" lon="3.65937">
        <ele>113</ele>
        <time>2015-12-13T12:34:12Z</time>
      </trkpt>
      <trkpt lat="50.77122" lon="3.6594">
        <ele>113</ele>
        <time>2015-12-13T12:34:13Z</time>
      </trkpt>
      <trkpt lat="50.77123" lon="3.65943">
        <ele>113</ele>
        <time>2015-12-13T12:34:14Z</time>
      </trkpt>
      <trkpt lat="50.77125" lon="3.65946">
        <ele>113</ele>
        <time>2015-12-13T12:34:15Z</time>
      </trkpt>
      <trkpt lat="50.77126" lon="3.65949">
        <ele>113</ele>
        <time>2015-12-13T12:34:16Z</time>
      </trkpt>
      <trkpt lat="50.77128" lon="3.65952">
        <ele>113</ele>
        <time>2015-12-13T12:34:17Z</time>
      </trkpt>
      <trkpt lat="50.77129" lon="3.65955">
        <ele>113</ele>
        <time>2015-12-13T12:34:18Z</time>
      </trkpt>
      <trkpt lat="50.7713" lon="3.65958">
        <ele>113</ele>
        <time>2015-12-13T12:34:19Z</time>
      </trkpt>
      <trkpt lat="50.77131" lon="3.65961">
        <ele>113</ele>
        <time>2015-12-13T12:34:20Z</time>
      </trkpt>
      <trkpt lat="50.77132" lon="3.65963">
        <ele>112.3</ele>
        <time>2015-12-13T12:34:21Z</time>
      </trkpt>
      <trkpt lat="50.77133" lon="3.65966">
        <ele>112</ele>
        <time>2015-12-13T12:34:22Z</time>
      </trkpt>
      <trkpt lat="50.77135" lon="3.65969">
        <ele>112</ele>
        <time>2015-12-13T12:34:23Z</time>
      </trkpt>
      <trkpt lat="50.77136" lon="3.65971">
        <ele>112</ele>
        <time>2015-12-13T12:34:24Z</time>
      </trkpt>
      <trkpt lat="50.77138" lon="3.65976">
        <ele>112</ele>
        <time>2015-12-13T12:34:26Z</time>
      </trkpt>
      <trkpt lat="50.77139" lon="3.65979">
        <ele>112</ele>
        <time>2015-12-13T12:34:27Z</time>
      </trkpt>
      <trkpt lat="50.7714" lon="3.65982">
        <ele>112</ele>
        <time>2015-12-13T12:34:28Z</time>
      </trkpt>
      <trkpt lat="50.77141" lon="3.65984">
        <ele>112</ele>
        <time>2015-12-13T12:34:29Z</time>
      </trkpt>
      <trkpt lat="50.77143" lon="3.65987">
        <ele>112</ele>
        <time>2015-12-13T12:34:30Z</time>
      </trkpt>
      <trkpt lat="50.77145" lon="3.65989">
        <ele>110.6</ele>
        <time>2015-12-13T12:34:31Z</time>
      </trkpt>
      <trkpt lat="50.77146" lon="3.65992">
        <ele>110</ele>
        <time>2015-12-13T12:34:32Z</time>
      </trkpt>
      <trkpt lat="50.77147" lon="3.65995">
        <ele>110</ele>
        <time>2015-12-13T12:34:33Z</time>
      </trkpt>
      <trkpt lat="50.77149" lon="3.66">
        <ele>110</ele>
        <time>2015-12-13T12:34:35Z</time>
      </trkpt>
      <trkpt lat="50.77151" lon="3.66003">
        <ele>110</ele>
        <time>2015-12-13T12:34:36Z</time>
      </trkpt>
      <trkpt lat="50.77153" lon="3.66006">
        <ele>110</ele>
        <time>2015-12-13T12:34:37Z</time>
      </trkpt>
      <trkpt lat="50.77155" lon="3.66009">
        <ele>110</ele>
        <time>2015-12-13T12:34:38Z</time>
      </trkpt>
      <trkpt lat="50.77157" lon="3.66012">
        <ele>110</ele>
        <time>2015-12-13T12:34:39Z</time>
      </trkpt>
      <trkpt lat="50.77159" lon="3.66015">
        <ele>110</ele>
        <time>2015-12-13T12:34:40Z</time>
      </trkpt>
      <trkpt lat="50.77161" lon="3.66018">
        <ele>110</ele>
        <time>2015-12-13T12:34:41Z</time>
      </trkpt>
      <trkpt lat="50.77163" lon="3.66021">
        <ele>110</ele>
        <time>2015-12-13T12:34:42Z</time>
      </trkpt>
      <trkpt lat="50.77165" lon="3.66023">
        <ele>110</ele>
        <time>2015-12-13T12:34:43Z</time>
      </trkpt>
      <trkpt lat="50.77167" lon="3.66026">
        <ele>110</ele>
        <time>2015-12-13T12:34:44Z</time>
      </trkpt>
      <trkpt lat="50.77169" lon="3.66028">
        <ele>110</ele>
        <time>2015-12-13T12:34:45Z</time>
      </trkpt>
      <trkpt lat="50.77171" lon="3.6603">
        <ele>110</ele>
        <time>2015-12-13T12:34:46Z</time>
      </trkpt>
      <trkpt lat="50.77173" lon="3.66032">
        <ele>110</ele>
        <time>2015-12-13T12:34:47Z</time>
      </trkpt>
      <trkpt lat="50.77175" lon="3.66034">
        <ele>110</ele>
        <time>2015-12-13T12:34:48Z</time>
      </trkpt>
      <trkpt lat="50.77177" lon="3.66036">
        <ele>110</ele>
        <time>2015-12-13T12:34:49Z</time>
      </trkpt>
      <trkpt lat="50.77179" lon="3.66038">
        <ele>110</ele>
        <time>2015-12-13T12:34:50Z</time>
      </trkpt>
      <trkpt lat="50.77181" lon="3.6604">
        <ele>110</ele>
        <time>2015-12-13T12:34:51Z</time>
      </trkpt>
      <trkpt lat="50.77183" lon="3.66042">
        <ele>110</ele>
        <time>2015-12-13T12:34:52Z</time>
      </trkpt>
      <trkpt lat="50.77185" lon="3.66043">
        <ele>110</ele>
        <time>2015-12-13T12:34:53Z</time>
      </trkpt>
      <trkpt lat="50.77187" lon="3.66045">
        <ele>110</ele>
        <time>2015-12-13T12:34:54Z</time>
      </trkpt>
      <trkpt lat="50.77189" lon="3.66047">
        <ele>110</ele>
        <time>2015-12-13T12:34:55Z</time>
      </trkpt>
      <trkpt lat="50.7719" lon="3.66049">
        <ele>110</ele>
        <time>2015-12-13T12:34:56Z</time>
      </trkpt>
      <trkpt lat="50.77193" lon="3.66052">
        <ele>108</ele>
        <time>2015-12-13T12:35:02Z</time>
      </trkpt>
      <trkpt lat="50.77196" lon="3.66054">
        <ele>108</ele>
        <time>2015-12-13T12:35:04Z</time>
      </trkpt>
      <trkpt lat="50.77198" lon="3.66056">
        <ele>108</ele>
        <time>2015-12-13T12:35:05Z</time>
      </trkpt>
      <trkpt lat="50.77201" lon="3.66059">
        <ele>108</ele>
        <time>2015-12-13T12:35:07Z</time>
      </trkpt>
      <trkpt lat="50.77203" lon="3.6606">
        <ele>108</ele>
        <time>2015-12-13T12:35:08Z</time>
      </trkpt>
      <trkpt lat="50.77205" lon="3.66063">
        <ele>108</ele>
        <time>2015-12-13T12:35:09Z</time>
      </trkpt>
      <trkpt lat="50.77208" lon="3.66065">
        <ele>108</ele>
        <time>2015-12-13T12:35:10Z</time>
      </trkpt>
      <trkpt lat="50.7721" lon="3.66067">
        <ele>109.4</ele>
        <time>2015-12-13T12:35:11Z</time>
      </trkpt>
      <trkpt lat="50.77212" lon="3.66068">
        <ele>110</ele>
        <time>2015-12-13T12:35:12Z</time>
      </trkpt>
      <trkpt lat="50.77214" lon="3.6607">
        <ele>110</ele>
        <time>2015-12-13T12:35:13Z</time>
      </trkpt>
      <trkpt lat="50.77216" lon="3.66071">
        <ele>110</ele>
        <time>2015-12-13T12:35:14Z</time>
      </trkpt>
      <trkpt lat="50.77218" lon="3.66073">
        <ele>110</ele>
        <time>2015-12-13T12:35:15Z</time>
      </trkpt>
      <trkpt lat="50.77221" lon="3.66075">
        <ele>110</ele>
        <time>2015-12-13T12:35:16Z</time>
      </trkpt>
      <trkpt lat="50.77223" lon="3.66077">
        <ele>110</ele>
        <time>2015-12-13T12:35:17Z</time>
      </trkpt>
      <trkpt lat="50.77225" lon="3.66078">
        <ele>110</ele>
        <time>2015-12-13T12:35:18Z</time>
      </trkpt>
      <trkpt lat="50.77227" lon="3.66079">
        <ele>110</ele>
        <time>2015-12-13T12:35:19Z</time>
      </trkpt>
      <trkpt lat="50.7723" lon="3.66081">
        <ele>110</ele>
        <time>2015-12-13T12:35:21Z</time>
      </trkpt>
      <trkpt lat="50.77233" lon="3.66082">
        <ele>110</ele>
        <time>2015-12-13T12:35:23Z</time>
      </trkpt>
      <trkpt lat="50.77235" lon="3.6608">
        <ele>110</ele>
        <time>2015-12-13T12:35:25Z</time>
      </trkpt>
      <trkpt lat="50.77237" lon="3.66078">
        <ele>110</ele>
        <time>2015-12-13T12:35:27Z</time>
      </trkpt>
      <trkpt lat="50.77238" lon="3.66075">
        <ele>110</ele>
        <time>2015-12-13T12:35:29Z</time>
      </trkpt>
      <trkpt lat="50.77239" lon="3.66071">
        <ele>110</ele>
        <time>2015-12-13T12:35:31Z</time>
      </trkpt>
      <trkpt lat="50.7724" lon="3.66069">
        <ele>110</ele>
        <time>2015-12-13T12:35:33Z</time>
      </trkpt>
      <trkpt lat="50.77241" lon="3.66066">
        <ele>110</ele>
        <time>2015-12-13T12:35:35Z</time>
      </trkpt>
      <trkpt lat="50.77243" lon="3.66063">
        <ele>110</ele>
        <time>2015-12-13T12:35:37Z</time>
      </trkpt>
      <trkpt lat="50.77245" lon="3.66061">
        <ele>110</ele>
        <time>2015-12-13T12:35:39Z</time>
      </trkpt>
      <trkpt lat="50.77246" lon="3.66057">
        <ele>110</ele>
        <time>2015-12-13T12:35:43Z</time>
      </trkpt>
      <trkpt lat="50.77247" lon="3.66054">
        <ele>110</ele>
        <time>2015-12-13T12:35:45Z</time>
      </trkpt>
      <trkpt lat="50.77249" lon="3.6605">
        <ele>110</ele>
        <time>2015-12-13T12:35:47Z</time>
      </trkpt>
      <trkpt lat="50.7725" lon="3.66046">
        <ele>110</ele>
        <time>2015-12-13T12:35:49Z</time>
      </trkpt>
      <trkpt lat="50.77251" lon="3.66043">
        <ele>110</ele>
        <time>2015-12-13T12:35:50Z</time>
      </trkpt>
      <trkpt lat="50.77252" lon="3.66041">
        <ele>109.3</ele>
        <time>2015-12-13T12:35:51Z</time>
      </trkpt>
      <trkpt lat="50.77253" lon="3.66037">
        <ele>109</ele>
        <time>2015-12-13T12:35:52Z</time>
      </trkpt>
      <trkpt lat="50.77254" lon="3.66034">
        <ele>109</ele>
        <time>2015-12-13T12:35:53Z</time>
      </trkpt>
      <trkpt lat="50.77256" lon="3.6603">
        <ele>109</ele>
        <time>2015-12-13T12:35:54Z</time>
      </trkpt>
      <trkpt lat="50.77257" lon="3.66027">
        <ele>109</ele>
        <time>2015-12-13T12:35:55Z</time>
      </trkpt>
      <trkpt lat="50.77258" lon="3.66024">
        <ele>109</ele>
        <time>2015-12-13T12:35:56Z</time>
      </trkpt>
      <trkpt lat="50.77259" lon="3.6602">
        <ele>109</ele>
        <time>2015-12-13T12:35:57Z</time>
      </trkpt>
      <trkpt lat="50.7726" lon="3.66017">
        <ele>109</ele>
        <time>2015-12-13T12:35:58Z</time>
      </trkpt>
      <trkpt lat="50.77261" lon="3.66013">
        <ele>109</ele>
        <time>2015-12-13T12:35:59Z</time>
      </trkpt>
      <trkpt lat="50.77262" lon="3.6601">
        <ele>109</ele>
        <time>2015-12-13T12:36:00Z</time>
      </trkpt>
      <trkpt lat="50.77264" lon="3.66006">
        <ele>109</ele>
        <time>2015-12-13T12:36:01Z</time>
      </trkpt>
      <trkpt lat="50.77265" lon="3.66003">
        <ele>109</ele>
        <time>2015-12-13T12:36:02Z</time>
      </trkpt>
      <trkpt lat="50.77266" lon="3.66">
        <ele>109</ele>
        <time>2015-12-13T12:36:03Z</time>
      </trkpt>
      <trkpt lat="50.77267" lon="3.65997">
        <ele>109</ele>
        <time>2015-12-13T12:36:04Z</time>
      </trkpt>
      <trkpt lat="50.77268" lon="3.65993">
        <ele>109</ele>
        <time>2015-12-13T12:36:05Z</time>
      </trkpt>
      <trkpt lat="50.7727" lon="3.6599">
        <ele>109</ele>
        <time>2015-12-13T12:36:06Z</time>
      </trkpt>
      <trkpt lat="50.77271" lon="3.65986">
        <ele>109</ele>
        <time>2015-12-13T12:36:07Z</time>
      </trkpt>
      <trkpt lat="50.77272" lon="3.65983">
        <ele>109</ele>
        <time>2015-12-13T12:36:08Z</time>
      </trkpt>
      <trkpt lat="50.77274" lon="3.65979">
        <ele>109</ele>
        <time>2015-12-13T12:36:09Z</time>
      </trkpt>
      <trkpt lat="50.77275" lon="3.65976">
        <ele>109</ele>
        <time>2015-12-13T12:36:10Z</time>
      </trkpt>
      <trkpt lat="50.77276" lon="3.65972">
        <ele>109</ele>
        <time>2015-12-13T12:36:11Z</time>
      </trkpt>
      <trkpt lat="50.77277" lon="3.65968">
        <ele>109</ele>
        <time>2015-12-13T12:36:12Z</time>
      </trkpt>
      <trkpt lat="50.77278" lon="3.65965">
        <ele>109</ele>
        <time>2015-12-13T12:36:13Z</time>
      </trkpt>
      <trkpt lat="50.77279" lon="3.65962">
        <ele>109</ele>
        <time>2015-12-13T12:36:14Z</time>
      </trkpt>
      <trkpt lat="50.77281" lon="3.65959">
        <ele>109</ele>
        <time>2015-12-13T12:36:15Z</time>
      </trkpt>
      <trkpt lat="50.77282" lon="3.65955">
        <ele>109</ele>
        <time>2015-12-13T12:36:17Z</time>
      </trkpt>
      <trkpt lat="50.77284" lon="3.65951">
        <ele>109</ele>
        <time>2015-12-13T12:36:19Z</time>
      </trkpt>
      <trkpt lat="50.77285" lon="3.65947">
        <ele>108.3</ele>
        <time>2015-12-13T12:36:21Z</time>
      </trkpt>
      <trkpt lat="50.77286" lon="3.65943">
        <ele>108</ele>
        <time>2015-12-13T12:36:23Z</time>
      </trkpt>
      <trkpt lat="50.77287" lon="3.65941">
        <ele>108</ele>
        <time>2015-12-13T12:36:24Z</time>
      </trkpt>
      <trkpt lat="50.77288" lon="3.65938">
        <ele>108</ele>
        <time>2015-12-13T12:36:25Z</time>
      </trkpt>
      <trkpt lat="50.77289" lon="3.65935">
        <ele>108</ele>
        <time>2015-12-13T12:36:26Z</time>
      </trkpt>
      <trkpt lat="50.77291" lon="3.65932">
        <ele>108</ele>
        <time>2015-12-13T12:36:27Z</time>
      </trkpt>
      <trkpt lat="50.77292" lon="3.65929">
        <ele>108</ele>
        <time>2015-12-13T12:36:28Z</time>
      </trkpt>
      <trkpt lat="50.77293" lon="3.65926">
        <ele>108</ele>
        <time>2015-12-13T12:36:29Z</time>
      </trkpt>
      <trkpt lat="50.77294" lon="3.65923">
        <ele>108</ele>
        <time>2015-12-13T12:36:30Z</time>
      </trkpt>
      <trkpt lat="50.77295" lon="3.65919">
        <ele>108</ele>
        <time>2015-12-13T12:36:31Z</time>
      </trkpt>
      <trkpt lat="50.77296" lon="3.65916">
        <ele>108</ele>
        <time>2015-12-13T12:36:32Z</time>
      </trkpt>
      <trkpt lat="50.77297" lon="3.65912">
        <ele>108</ele>
        <time>2015-12-13T12:36:33Z</time>
      </trkpt>
      <trkpt lat="50.77298" lon="3.65909">
        <ele>108</ele>
        <time>2015-12-13T12:36:34Z</time>
      </trkpt>
      <trkpt lat="50.77299" lon="3.65906">
        <ele>108</ele>
        <time>2015-12-13T12:36:35Z</time>
      </trkpt>
      <trkpt lat="50.773" lon="3.65903">
        <ele>108</ele>
        <time>2015-12-13T12:36:36Z</time>
      </trkpt>
      <trkpt lat="50.77301" lon="3.659">
        <ele>108</ele>
        <time>2015-12-13T12:36:37Z</time>
      </trkpt>
      <trkpt lat="50.77302" lon="3.65897">
        <ele>108</ele>
        <time>2015-12-13T12:36:38Z</time>
      </trkpt>
      <trkpt lat="50.77304" lon="3.65893">
        <ele>108</ele>
        <time>2015-12-13T12:36:39Z</time>
      </trkpt>
      <trkpt lat="50.77305" lon="3.6589">
        <ele>108</ele>
        <time>2015-12-13T12:36:40Z</time>
      </trkpt>
      <trkpt lat="50.77306" lon="3.65887">
        <ele>108</ele>
        <time>2015-12-13T12:36:41Z</time>
      </trkpt>
      <trkpt lat="50.77307" lon="3.65884">
        <ele>108</ele>
        <time>2015-12-13T12:36:42Z</time>
      </trkpt>
      <trkpt lat="50.77309" lon="3.65881">
        <ele>108</ele>
        <time>2015-12-13T12:36:43Z</time>
      </trkpt>
      <trkpt lat="50.7731" lon="3.65878">
        <ele>108</ele>
        <time>2015-12-13T12:36:44Z</time>
      </trkpt>
      <trkpt lat="50.77311" lon="3.65875">
        <ele>108</ele>
        <time>2015-12-13T12:36:45Z</time>
      </trkpt>
      <trkpt lat="50.77312" lon="3.65872">
        <ele>108</ele>
        <time>2015-12-13T12:36:46Z</time>
      </trkpt>
      <trkpt lat="50.77314" lon="3.65869">
        <ele>108</ele>
        <time>2015-12-13T12:36:47Z</time>
      </trkpt>
      <trkpt lat="50.77315" lon="3.65866">
        <ele>108</ele>
        <time>2015-12-13T12:36:48Z</time>
      </trkpt>
      <trkpt lat="50.77316" lon="3.65863">
        <ele>108</ele>
        <time>2015-12-13T12:36:49Z</time>
      </trkpt>
      <trkpt lat="50.77318" lon="3.6586">
        <ele>108</ele>
        <time>2015-12-13T12:36:50Z</time>
      </trkpt>
      <trkpt lat="50.77319" lon="3.65857">
        <ele>108</ele>
        <time>2015-12-13T12:36:51Z</time>
      </trkpt>
      <trkpt lat="50.77321" lon="3.65854">
        <ele>108</ele>
        <time>2015-12-13T12:36:52Z</time>
      </trkpt>
      <trkpt lat="50.77322" lon="3.6585">
        <ele>108</ele>
        <time>2015-12-13T12:36:53Z</time>
      </trkpt>
      <trkpt lat="50.77324" lon="3.65847">
        <ele>108</ele>
        <time>2015-12-13T12:36:54Z</time>
      </trkpt>
      <trkpt lat="50.77325" lon="3.65843">
        <ele>108</ele>
        <time>2015-12-13T12:36:55Z</time>
      </trkpt>
      <trkpt lat="50.77326" lon="3.6584">
        <ele>108</ele>
        <time>2015-12-13T12:36:56Z</time>
      </trkpt>
      <trkpt lat="50.77328" lon="3.65837">
        <ele>108</ele>
        <time>2015-12-13T12:36:57Z</time>
      </trkpt>
      <trkpt lat="50.77329" lon="3.65833">
        <ele>108</ele>
        <time>2015-12-13T12:36:58Z</time>
      </trkpt>
      <trkpt lat="50.77331" lon="3.6583">
        <ele>108</ele>
        <time>2015-12-13T12:36:59Z</time>
      </trkpt>
      <trkpt lat="50.77332" lon="3.65826">
        <ele>108</ele>
        <time>2015-12-13T12:37:00Z</time>
      </trkpt>
      <trkpt lat="50.77333" lon="3.65823">
        <ele>107.3</ele>
        <time>2015-12-13T12:37:01Z</time>
      </trkpt>
      <trkpt lat="50.77335" lon="3.6582">
        <ele>107</ele>
        <time>2015-12-13T12:37:02Z</time>
      </trkpt>
      <trkpt lat="50.77336" lon="3.65817">
        <ele>107</ele>
        <time>2015-12-13T12:37:03Z</time>
      </trkpt>
      <trkpt lat="50.77338" lon="3.65814">
        <ele>107</ele>
        <time>2015-12-13T12:37:04Z</time>
      </trkpt>
      <trkpt lat="50.77339" lon="3.65811">
        <ele>107</ele>
        <time>2015-12-13T12:37:05Z</time>
      </trkpt>
      <trkpt lat="50.7734" lon="3.65808">
        <ele>107</ele>
        <time>2015-12-13T12:37:07Z</time>
      </trkpt>
      <trkpt lat="50.77341" lon="3.65805">
        <ele>107</ele>
        <time>2015-12-13T12:37:10Z</time>
      </trkpt>
      <trkpt lat="50.77341" lon="3.65802">
        <ele>108</ele>
        <time>2015-12-13T12:37:13Z</time>
      </trkpt>
      <trkpt lat="50.77338" lon="3.658">
        <ele>108</ele>
        <time>2015-12-13T12:37:15Z</time>
      </trkpt>
      <trkpt lat="50.77336" lon="3.65796">
        <ele>108</ele>
        <time>2015-12-13T12:37:17Z</time>
      </trkpt>
      <trkpt lat="50.77334" lon="3.65794">
        <ele>108</ele>
        <time>2015-12-13T12:37:19Z</time>
      </trkpt>
      <trkpt lat="50.77331" lon="3.65792">
        <ele>107.3</ele>
        <time>2015-12-13T12:37:21Z</time>
      </trkpt>
      <trkpt lat="50.77329" lon="3.65791">
        <ele>107</ele>
        <time>2015-12-13T12:37:22Z</time>
      </trkpt>
      <trkpt lat="50.77327" lon="3.65789">
        <ele>107</ele>
        <time>2015-12-13T12:37:23Z</time>
      </trkpt>
      <trkpt lat="50.77325" lon="3.65788">
        <ele>107</ele>
        <time>2015-12-13T12:37:24Z</time>
      </trkpt>
      <trkpt lat="50.77323" lon="3.65786">
        <ele>107</ele>
        <time>2015-12-13T12:37:25Z</time>
      </trkpt>
      <trkpt lat="50.77324" lon="3.65783">
        <ele>107</ele>
        <time>2015-12-13T12:37:28Z</time>
      </trkpt>
      <trkpt lat="50.77322" lon="3.65781">
        <ele>105</ele>
        <time>2015-12-13T12:37:38Z</time>
      </trkpt>
      <trkpt lat="50.7732" lon="3.65778">
        <ele>105</ele>
        <time>2015-12-13T12:37:40Z</time>
      </trkpt>
      <trkpt lat="50.77317" lon="3.65776">
        <ele>105</ele>
        <time>2015-12-13T12:37:42Z</time>
      </trkpt>
      <trkpt lat="50.77315" lon="3.65774">
        <ele>105</ele>
        <time>2015-12-13T12:37:44Z</time>
      </trkpt>
      <trkpt lat="50.77314" lon="3.65772">
        <ele>105</ele>
        <time>2015-12-13T12:37:46Z</time>
      </trkpt>
      <trkpt lat="50.77311" lon="3.6577">
        <ele>105</ele>
        <time>2015-12-13T12:37:48Z</time>
      </trkpt>
      <trkpt lat="50.77309" lon="3.65768">
        <ele>105</ele>
        <time>2015-12-13T12:37:50Z</time>
      </trkpt>
      <trkpt lat="50.77306" lon="3.65764">
        <ele>105</ele>
        <time>2015-12-13T12:37:52Z</time>
      </trkpt>
      <trkpt lat="50.77304" lon="3.6576">
        <ele>105</ele>
        <time>2015-12-13T12:37:54Z</time>
      </trkpt>
      <trkpt lat="50.77304" lon="3.65757">
        <ele>105</ele>
        <time>2015-12-13T12:37:56Z</time>
      </trkpt>
      <trkpt lat="50.77303" lon="3.65753">
        <ele>105</ele>
        <time>2015-12-13T12:37:58Z</time>
      </trkpt>
      <trkpt lat="50.77303" lon="3.65749">
        <ele>105</ele>
        <time>2015-12-13T12:38:00Z</time>
      </trkpt>
      <trkpt lat="50.77302" lon="3.65745">
        <ele>101</ele>
        <time>2015-12-13T12:38:02Z</time>
      </trkpt>
      <trkpt lat="50.77302" lon="3.65742">
        <ele>101</ele>
        <time>2015-12-13T12:38:04Z</time>
      </trkpt>
      <trkpt lat="50.77301" lon="3.65738">
        <ele>101</ele>
        <time>2015-12-13T12:38:06Z</time>
      </trkpt>
      <trkpt lat="50.773" lon="3.65733">
        <ele>101</ele>
        <time>2015-12-13T12:38:08Z</time>
      </trkpt>
      <trkpt lat="50.77301" lon="3.65729">
        <ele>101</ele>
        <time>2015-12-13T12:38:10Z</time>
      </trkpt>
      <trkpt lat="50.77302" lon="3.65726">
        <ele>101</ele>
        <time>2015-12-13T12:38:12Z</time>
      </trkpt>
      <trkpt lat="50.77302" lon="3.65722">
        <ele>101</ele>
        <time>2015-12-13T12:38:14Z</time>
      </trkpt>
      <trkpt lat="50.77302" lon="3.65719">
        <ele>101</ele>
        <time>2015-12-13T12:38:15Z</time>
      </trkpt>
      <trkpt lat="50.77302" lon="3.65716">
        <ele>101</ele>
        <time>2015-12-13T12:38:16Z</time>
      </trkpt>
      <trkpt lat="50.77303" lon="3.65711">
        <ele>101</ele>
        <time>2015-12-13T12:38:18Z</time>
      </trkpt>
      <trkpt lat="50.77304" lon="3.65709">
        <ele>101</ele>
        <time>2015-12-13T12:38:19Z</time>
      </trkpt>
      <trkpt lat="50.77306" lon="3.65704">
        <ele>99.6</ele>
        <time>2015-12-13T12:38:21Z</time>
      </trkpt>
      <trkpt lat="50.77306" lon="3.657">
        <ele>99</ele>
        <time>2015-12-13T12:38:23Z</time>
      </trkpt>
      <trkpt lat="50.77307" lon="3.65698">
        <ele>99</ele>
        <time>2015-12-13T12:38:24Z</time>
      </trkpt>
      <trkpt lat="50.77308" lon="3.65695">
        <ele>99</ele>
        <time>2015-12-13T12:38:25Z</time>
      </trkpt>
      <trkpt lat="50.77308" lon="3.65692">
        <ele>99</ele>
        <time>2015-12-13T12:38:26Z</time>
      </trkpt>
      <trkpt lat="50.7731" lon="3.65689">
        <ele>99</ele>
        <time>2015-12-13T12:38:27Z</time>
      </trkpt>
      <trkpt lat="50.77311" lon="3.65687">
        <ele>99</ele>
        <time>2015-12-13T12:38:28Z</time>
      </trkpt>
      <trkpt lat="50.77312" lon="3.65684">
        <ele>99</ele>
        <time>2015-12-13T12:38:29Z</time>
      </trkpt>
      <trkpt lat="50.77313" lon="3.65681">
        <ele>99</ele>
        <time>2015-12-13T12:38:30Z</time>
      </trkpt>
      <trkpt lat="50.77313" lon="3.65678">
        <ele>97.6</ele>
        <time>2015-12-13T12:38:31Z</time>
      </trkpt>
      <trkpt lat="50.77315" lon="3.65674">
        <ele>97</ele>
        <time>2015-12-13T12:38:32Z</time>
      </trkpt>
      <trkpt lat="50.77315" lon="3.65671">
        <ele>97</ele>
        <time>2015-12-13T12:38:33Z</time>
      </trkpt>
      <trkpt lat="50.77315" lon="3.65668">
        <ele>97</ele>
        <time>2015-12-13T12:38:34Z</time>
      </trkpt>
      <trkpt lat="50.77316" lon="3.65664">
        <ele>97</ele>
        <time>2015-12-13T12:38:35Z</time>
      </trkpt>
      <trkpt lat="50.77317" lon="3.6566">
        <ele>96</ele>
        <time>2015-12-13T12:38:37Z</time>
      </trkpt>
      <trkpt lat="50.77317" lon="3.65655">
        <ele>96</ele>
        <time>2015-12-13T12:38:39Z</time>
      </trkpt>
      <trkpt lat="50.77318" lon="3.65649">
        <ele>95.3</ele>
        <time>2015-12-13T12:38:41Z</time>
      </trkpt>
      <trkpt lat="50.77321" lon="3.65644">
        <ele>95</ele>
        <time>2015-12-13T12:38:43Z</time>
      </trkpt>
      <trkpt lat="50.77322" lon="3.6564">
        <ele>95</ele>
        <time>2015-12-13T12:38:44Z</time>
      </trkpt>
      <trkpt lat="50.77322" lon="3.65638">
        <ele>95</ele>
        <time>2015-12-13T12:38:45Z</time>
      </trkpt>
      <trkpt lat="50.77323" lon="3.65632">
        <ele>95</ele>
        <time>2015-12-13T12:38:47Z</time>
      </trkpt>
      <trkpt lat="50.77323" lon="3.65629">
        <ele>95</ele>
        <time>2015-12-13T12:38:48Z</time>
      </trkpt>
      <trkpt lat="50.77324" lon="3.65626">
        <ele>95</ele>
        <time>2015-12-13T12:38:49Z</time>
      </trkpt>
      <trkpt lat="50.77324" lon="3.65623">
        <ele>95</ele>
        <time>2015-12-13T12:38:50Z</time>
      </trkpt>
      <trkpt lat="50.77325" lon="3.6562">
        <ele>93.6</ele>
        <time>2015-12-13T12:38:51Z</time>
      </trkpt>
      <trkpt lat="50.77326" lon="3.65617">
        <ele>93</ele>
        <time>2015-12-13T12:38:52Z</time>
      </trkpt>
      <trkpt lat="50.77326" lon="3.65612">
        <ele>93</ele>
        <time>2015-12-13T12:38:54Z</time>
      </trkpt>
      <trkpt lat="50.77327" lon="3.65607">
        <ele>91</ele>
        <time>2015-12-13T12:38:56Z</time>
      </trkpt>
      <trkpt lat="50.77328" lon="3.65604">
        <ele>90</ele>
        <time>2015-12-13T12:38:57Z</time>
      </trkpt>
      <trkpt lat="50.77329" lon="3.65599">
        <ele>90</ele>
        <time>2015-12-13T12:38:59Z</time>
      </trkpt>
      <trkpt lat="50.77331" lon="3.65595">
        <ele>88.6</ele>
        <time>2015-12-13T12:39:01Z</time>
      </trkpt>
      <trkpt lat="50.77332" lon="3.65591">
        <ele>88</ele>
        <time>2015-12-13T12:39:03Z</time>
      </trkpt>
      <trkpt lat="50.77335" lon="3.65589">
        <ele>88</ele>
        <time>2015-12-13T12:39:05Z</time>
      </trkpt>
      <trkpt lat="50.77337" lon="3.65587">
        <ele>88</ele>
        <time>2015-12-13T12:39:07Z</time>
      </trkpt>
      <trkpt lat="50.77339" lon="3.65586">
        <ele>88</ele>
        <time>2015-12-13T12:39:09Z</time>
      </trkpt>
      <trkpt lat="50.77342" lon="3.65584">
        <ele>88</ele>
        <time>2015-12-13T12:39:11Z</time>
      </trkpt>
      <trkpt lat="50.77345" lon="3.65582">
        <ele>88</ele>
        <time>2015-12-13T12:39:13Z</time>
      </trkpt>
      <trkpt lat="50.77348" lon="3.6558">
        <ele>88</ele>
        <time>2015-12-13T12:39:15Z</time>
      </trkpt>
      <trkpt lat="50.77351" lon="3.65577">
        <ele>88</ele>
        <time>2015-12-13T12:39:17Z</time>
      </trkpt>
      <trkpt lat="50.77352" lon="3.65575">
        <ele>88</ele>
        <time>2015-12-13T12:39:18Z</time>
      </trkpt>
      <trkpt lat="50.77354" lon="3.65573">
        <ele>88</ele>
        <time>2015-12-13T12:39:19Z</time>
      </trkpt>
      <trkpt lat="50.77356" lon="3.6557">
        <ele>86.4</ele>
        <time>2015-12-13T12:39:21Z</time>
      </trkpt>
      <trkpt lat="50.77358" lon="3.65568">
        <ele>85</ele>
        <time>2015-12-13T12:39:22Z</time>
      </trkpt>
      <trkpt lat="50.77359" lon="3.65566">
        <ele>85</ele>
        <time>2015-12-13T12:39:23Z</time>
      </trkpt>
      <trkpt lat="50.77361" lon="3.65562">
        <ele>85</ele>
        <time>2015-12-13T12:39:25Z</time>
      </trkpt>
      <trkpt lat="50.7736" lon="3.65559">
        <ele>85</ele>
        <time>2015-12-13T12:39:28Z</time>
      </trkpt>
      <trkpt lat="50.77358" lon="3.65557">
        <ele>85</ele>
        <time>2015-12-13T12:39:31Z</time>
      </trkpt>
      <trkpt lat="50.77356" lon="3.65558">
        <ele>85</ele>
        <time>2015-12-13T12:39:33Z</time>
      </trkpt>
      <trkpt lat="50.77354" lon="3.65557">
        <ele>85</ele>
        <time>2015-12-13T12:39:35Z</time>
      </trkpt>
      <trkpt lat="50.77351" lon="3.65557">
        <ele>85</ele>
        <time>2015-12-13T12:39:37Z</time>
      </trkpt>
      <trkpt lat="50.77349" lon="3.65556">
        <ele>85</ele>
        <time>2015-12-13T12:39:40Z</time>
      </trkpt>
      <trkpt lat="50.77347" lon="3.65554">
        <ele>83</ele>
        <time>2015-12-13T12:39:42Z</time>
      </trkpt>
      <trkpt lat="50.77345" lon="3.65552">
        <ele>83</ele>
        <time>2015-12-13T12:39:44Z</time>
      </trkpt>
      <trkpt lat="50.77342" lon="3.65552">
        <ele>82.3</ele>
        <time>2015-12-13T12:39:46Z</time>
      </trkpt>
      <trkpt lat="50.77339" lon="3.65552">
        <ele>82</ele>
        <time>2015-12-13T12:39:48Z</time>
      </trkpt>
      <trkpt lat="50.77336" lon="3.65552">
        <ele>82</ele>
        <time>2015-12-13T12:39:50Z</time>
      </trkpt>
      <trkpt lat="50.77334" lon="3.65552">
        <ele>82</ele>
        <time>2015-12-13T12:39:51Z</time>
      </trkpt>
      <trkpt lat="50.77331" lon="3.65552">
        <ele>82</ele>
        <time>2015-12-13T12:39:53Z</time>
      </trkpt>
      <trkpt lat="50.77329" lon="3.65549">
        <ele>82</ele>
        <time>2015-12-13T12:39:55Z</time>
      </trkpt>
      <trkpt lat="50.77328" lon="3.65546">
        <ele>82</ele>
        <time>2015-12-13T12:39:57Z</time>
      </trkpt>
      <trkpt lat="50.77326" lon="3.65545">
        <ele>82</ele>
        <time>2015-12-13T12:39:59Z</time>
      </trkpt>
      <trkpt lat="50.77324" lon="3.65544">
        <ele>80</ele>
        <time>2015-12-13T12:40:03Z</time>
      </trkpt>
      <trkpt lat="50.77322" lon="3.65545">
        <ele>80</ele>
        <time>2015-12-13T12:40:05Z</time>
      </trkpt>
      <trkpt lat="50.7732" lon="3.65544">
        <ele>80</ele>
        <time>2015-12-13T12:40:08Z</time>
      </trkpt>
      <trkpt lat="50.77319" lon="3.65546">
        <ele>80</ele>
        <time>2015-12-13T12:40:17Z</time>
      </trkpt>
      <trkpt lat="50.77318" lon="3.65556">
        <ele>81</ele>
        <time>2015-12-13T12:40:28Z</time>
      </trkpt>
      <trkpt lat="50.77316" lon="3.65557">
        <ele>81</ele>
        <time>2015-12-13T12:40:29Z</time>
      </trkpt>
      <trkpt lat="50.77313" lon="3.65558">
        <ele>81</ele>
        <time>2015-12-13T12:40:31Z</time>
      </trkpt>
      <trkpt lat="50.77309" lon="3.65564">
        <ele>81</ele>
        <time>2015-12-13T12:40:44Z</time>
      </trkpt>
      <trkpt lat="50.77305" lon="3.65561">
        <ele>81</ele>
        <time>2015-12-13T12:40:52Z</time>
      </trkpt>
      <trkpt lat="50.77299" lon="3.65575">
        <ele>81</ele>
        <time>2015-12-13T12:41:00Z</time>
      </trkpt>
      <trkpt lat="50.77291" lon="3.65569">
        <ele>81</ele>
        <time>2015-12-13T12:41:08Z</time>
      </trkpt>
      <trkpt lat="50.77288" lon="3.65571">
        <ele>81</ele>
        <time>2015-12-13T12:41:11Z</time>
      </trkpt>
      <trkpt lat="50.77285" lon="3.65574">
        <ele>81</ele>
        <time>2015-12-13T12:41:32Z</time>
      </trkpt>
      <trkpt lat="50.77281" lon="3.65577">
        <ele>81</ele>
        <time>2015-12-13T12:41:36Z</time>
      </trkpt>
      <trkpt lat="50.7728" lon="3.6558">
        <ele>81</ele>
        <time>2015-12-13T12:41:38Z</time>
      </trkpt>
      <trkpt lat="50.77277" lon="3.65582">
        <ele>81</ele>
        <time>2015-12-13T12:41:40Z</time>
      </trkpt>
      <trkpt lat="50.77275" lon="3.65584">
        <ele>82</ele>
        <time>2015-12-13T12:41:42Z</time>
      </trkpt>
      <trkpt lat="50.77271" lon="3.65586">
        <ele>82</ele>
        <time>2015-12-13T12:41:47Z</time>
      </trkpt>
      <trkpt lat="50.77269" lon="3.65584">
        <ele>82</ele>
        <time>2015-12-13T12:41:50Z</time>
      </trkpt>
      <trkpt lat="50.77266" lon="3.65588">
        <ele>83</ele>
        <time>2015-12-13T12:41:55Z</time>
      </trkpt>
      <trkpt lat="50.77263" lon="3.65589">
        <ele>83</ele>
        <time>2015-12-13T12:41:56Z</time>
      </trkpt>
      <trkpt lat="50.7726" lon="3.6559">
        <ele>83</ele>
        <time>2015-12-13T12:41:58Z</time>
      </trkpt>
      <trkpt lat="50.77259" lon="3.65589">
        <ele>83</ele>
        <time>2015-12-13T12:42:00Z</time>
      </trkpt>
      <trkpt lat="50.77254" lon="3.65584">
        <ele>86</ele>
        <time>2015-12-13T12:42:13Z</time>
      </trkpt>
      <trkpt lat="50.77251" lon="3.65585">
        <ele>86</ele>
        <time>2015-12-13T12:42:16Z</time>
      </trkpt>
      <trkpt lat="50.7725" lon="3.65583">
        <ele>86</ele>
        <time>2015-12-13T12:42:19Z</time>
      </trkpt>
      <trkpt lat="50.77249" lon="3.6558">
        <ele>86</ele>
        <time>2015-12-13T12:42:22Z</time>
      </trkpt>
      <trkpt lat="50.77247" lon="3.65573">
        <ele>86</ele>
        <time>2015-12-13T12:42:29Z</time>
      </trkpt>
      <trkpt lat="50.77248" lon="3.6557">
        <ele>86.5</ele>
        <time>2015-12-13T12:42:31Z</time>
      </trkpt>
      <trkpt lat="50.77249" lon="3.65567">
        <ele>87</ele>
        <time>2015-12-13T12:42:33Z</time>
      </trkpt>
      <trkpt lat="50.77252" lon="3.65564">
        <ele>87</ele>
        <time>2015-12-13T12:42:35Z</time>
      </trkpt>
      <trkpt lat="50.77254" lon="3.65562">
        <ele>87</ele>
        <time>2015-12-13T12:42:37Z</time>
      </trkpt>
      <trkpt lat="50.77256" lon="3.65558">
        <ele>87</ele>
        <time>2015-12-13T12:42:39Z</time>
      </trkpt>
      <trkpt lat="50.77258" lon="3.65552">
        <ele>85.6</ele>
        <time>2015-12-13T12:42:41Z</time>
      </trkpt>
      <trkpt lat="50.7726" lon="3.65548">
        <ele>85</ele>
        <time>2015-12-13T12:42:43Z</time>
      </trkpt>
      <trkpt lat="50.77261" lon="3.65546">
        <ele>85</ele>
        <time>2015-12-13T12:42:44Z</time>
      </trkpt>
      <trkpt lat="50.77263" lon="3.65541">
        <ele>85</ele>
        <time>2015-12-13T12:42:46Z</time>
      </trkpt>
      <trkpt lat="50.77264" lon="3.65539">
        <ele>85</ele>
        <time>2015-12-13T12:42:47Z</time>
      </trkpt>
      <trkpt lat="50.77265" lon="3.65536">
        <ele>85</ele>
        <time>2015-12-13T12:42:48Z</time>
      </trkpt>
      <trkpt lat="50.77266" lon="3.65532">
        <ele>85</ele>
        <time>2015-12-13T12:42:50Z</time>
      </trkpt>
      <trkpt lat="50.77267" lon="3.65527">
        <ele>85</ele>
        <time>2015-12-13T12:42:52Z</time>
      </trkpt>
      <trkpt lat="50.77267" lon="3.65523">
        <ele>85</ele>
        <time>2015-12-13T12:42:54Z</time>
      </trkpt>
      <trkpt lat="50.77268" lon="3.65519">
        <ele>85</ele>
        <time>2015-12-13T12:42:56Z</time>
      </trkpt>
      <trkpt lat="50.77269" lon="3.65515">
        <ele>85</ele>
        <time>2015-12-13T12:42:58Z</time>
      </trkpt>
      <trkpt lat="50.77269" lon="3.6551">
        <ele>85</ele>
        <time>2015-12-13T12:43:00Z</time>
      </trkpt>
      <trkpt lat="50.77269" lon="3.65505">
        <ele>84</ele>
        <time>2015-12-13T12:43:02Z</time>
      </trkpt>
      <trkpt lat="50.77268" lon="3.65502">
        <ele>84</ele>
        <time>2015-12-13T12:43:04Z</time>
      </trkpt>
      <trkpt lat="50.77269" lon="3.65498">
        <ele>84</ele>
        <time>2015-12-13T12:43:06Z</time>
      </trkpt>
      <trkpt lat="50.77269" lon="3.65494">
        <ele>84</ele>
        <time>2015-12-13T12:43:08Z</time>
      </trkpt>
      <trkpt lat="50.7727" lon="3.65489">
        <ele>84</ele>
        <time>2015-12-13T12:43:10Z</time>
      </trkpt>
      <trkpt lat="50.77271" lon="3.65485">
        <ele>84</ele>
        <time>2015-12-13T12:43:12Z</time>
      </trkpt>
      <trkpt lat="50.77273" lon="3.6548">
        <ele>84</ele>
        <time>2015-12-13T12:43:16Z</time>
      </trkpt>
      <trkpt lat="50.77276" lon="3.65476">
        <ele>84</ele>
        <time>2015-12-13T12:43:18Z</time>
      </trkpt>
      <trkpt lat="50.77278" lon="3.65471">
        <ele>84</ele>
        <time>2015-12-13T12:43:20Z</time>
      </trkpt>
      <trkpt lat="50.77279" lon="3.65469">
        <ele>84</ele>
        <time>2015-12-13T12:43:21Z</time>
      </trkpt>
      <trkpt lat="50.7728" lon="3.65465">
        <ele>84</ele>
        <time>2015-12-13T12:43:22Z</time>
      </trkpt>
      <trkpt lat="50.77282" lon="3.65463">
        <ele>84</ele>
        <time>2015-12-13T12:43:23Z</time>
      </trkpt>
      <trkpt lat="50.77283" lon="3.6546">
        <ele>84</ele>
        <time>2015-12-13T12:43:24Z</time>
      </trkpt>
      <trkpt lat="50.77285" lon="3.65456">
        <ele>84</ele>
        <time>2015-12-13T12:43:26Z</time>
      </trkpt>
      <trkpt lat="50.77286" lon="3.65453">
        <ele>84</ele>
        <time>2015-12-13T12:43:28Z</time>
      </trkpt>
      <trkpt lat="50.77287" lon="3.65449">
        <ele>84</ele>
        <time>2015-12-13T12:43:30Z</time>
      </trkpt>
      <trkpt lat="50.77289" lon="3.65448">
        <ele>83</ele>
        <time>2015-12-13T12:43:32Z</time>
      </trkpt>
      <trkpt lat="50.77291" lon="3.65448">
        <ele>83</ele>
        <time>2015-12-13T12:43:34Z</time>
      </trkpt>
      <trkpt lat="50.77291" lon="3.65444">
        <ele>83</ele>
        <time>2015-12-13T12:43:37Z</time>
      </trkpt>
      <trkpt lat="50.77292" lon="3.65441">
        <ele>83</ele>
        <time>2015-12-13T12:43:39Z</time>
      </trkpt>
      <trkpt lat="50.77293" lon="3.65437">
        <ele>82</ele>
        <time>2015-12-13T12:43:42Z</time>
      </trkpt>
      <trkpt lat="50.77294" lon="3.65431">
        <ele>82</ele>
        <time>2015-12-13T12:43:46Z</time>
      </trkpt>
      <trkpt lat="50.77294" lon="3.65427">
        <ele>82</ele>
        <time>2015-12-13T12:43:48Z</time>
      </trkpt>
      <trkpt lat="50.77293" lon="3.65424">
        <ele>82</ele>
        <time>2015-12-13T12:43:50Z</time>
      </trkpt>
      <trkpt lat="50.77293" lon="3.6542">
        <ele>82</ele>
        <time>2015-12-13T12:43:52Z</time>
      </trkpt>
      <trkpt lat="50.77293" lon="3.65416">
        <ele>82</ele>
        <time>2015-12-13T12:43:54Z</time>
      </trkpt>
      <trkpt lat="50.77293" lon="3.65413">
        <ele>82</ele>
        <time>2015-12-13T12:43:56Z</time>
      </trkpt>
      <trkpt lat="50.77293" lon="3.6541">
        <ele>82</ele>
        <time>2015-12-13T12:43:58Z</time>
      </trkpt>
      <trkpt lat="50.77295" lon="3.65407">
        <ele>82</ele>
        <time>2015-12-13T12:44:00Z</time>
      </trkpt>
      <trkpt lat="50.77296" lon="3.65404">
        <ele>83</ele>
        <time>2015-12-13T12:44:02Z</time>
      </trkpt>
      <trkpt lat="50.77297" lon="3.654">
        <ele>83</ele>
        <time>2015-12-13T12:44:04Z</time>
      </trkpt>
      <trkpt lat="50.77298" lon="3.65397">
        <ele>83</ele>
        <time>2015-12-13T12:44:06Z</time>
      </trkpt>
      <trkpt lat="50.77299" lon="3.65394">
        <ele>83</ele>
        <time>2015-12-13T12:44:09Z</time>
      </trkpt>
      <trkpt lat="50.773" lon="3.65391">
        <ele>83.7</ele>
        <time>2015-12-13T12:44:11Z</time>
      </trkpt>
      <trkpt lat="50.77301" lon="3.65387">
        <ele>84</ele>
        <time>2015-12-13T12:44:13Z</time>
      </trkpt>
      <trkpt lat="50.77302" lon="3.65384">
        <ele>84</ele>
        <time>2015-12-13T12:44:15Z</time>
      </trkpt>
      <trkpt lat="50.77303" lon="3.65381">
        <ele>84</ele>
        <time>2015-12-13T12:44:17Z</time>
      </trkpt>
      <trkpt lat="50.77304" lon="3.65378">
        <ele>84</ele>
        <time>2015-12-13T12:44:19Z</time>
      </trkpt>
      <trkpt lat="50.77305" lon="3.65374">
        <ele>84</ele>
        <time>2015-12-13T12:44:21Z</time>
      </trkpt>
      <trkpt lat="50.77307" lon="3.65371">
        <ele>84</ele>
        <time>2015-12-13T12:44:23Z</time>
      </trkpt>
      <trkpt lat="50.77308" lon="3.65368">
        <ele>84</ele>
        <time>2015-12-13T12:44:24Z</time>
      </trkpt>
      <trkpt lat="50.77309" lon="3.65363">
        <ele>84</ele>
        <time>2015-12-13T12:44:26Z</time>
      </trkpt>
      <trkpt lat="50.7731" lon="3.6536">
        <ele>84</ele>
        <time>2015-12-13T12:44:28Z</time>
      </trkpt>
      <trkpt lat="50.77311" lon="3.65357">
        <ele>84</ele>
        <time>2015-12-13T12:44:30Z</time>
      </trkpt>
      <trkpt lat="50.77313" lon="3.65356">
        <ele>84</ele>
        <time>2015-12-13T12:44:31Z</time>
      </trkpt>
      <trkpt lat="50.77315" lon="3.65353">
        <ele>84</ele>
        <time>2015-12-13T12:44:33Z</time>
      </trkpt>
      <trkpt lat="50.77317" lon="3.65351">
        <ele>84</ele>
        <time>2015-12-13T12:44:35Z</time>
      </trkpt>
      <trkpt lat="50.77319" lon="3.65353">
        <ele>84</ele>
        <time>2015-12-13T12:44:37Z</time>
      </trkpt>
      <trkpt lat="50.77319" lon="3.65349">
        <ele>84</ele>
        <time>2015-12-13T12:44:43Z</time>
      </trkpt>
      <trkpt lat="50.77319" lon="3.65345">
        <ele>84</ele>
        <time>2015-12-13T12:44:45Z</time>
      </trkpt>
      <trkpt lat="50.77319" lon="3.65342">
        <ele>84</ele>
        <time>2015-12-13T12:44:47Z</time>
      </trkpt>
      <trkpt lat="50.7732" lon="3.65338">
        <ele>84</ele>
        <time>2015-12-13T12:44:49Z</time>
      </trkpt>
      <trkpt lat="50.77321" lon="3.65335">
        <ele>84.7</ele>
        <time>2015-12-13T12:44:51Z</time>
      </trkpt>
      <trkpt lat="50.77323" lon="3.65334">
        <ele>85</ele>
        <time>2015-12-13T12:44:53Z</time>
      </trkpt>
      <trkpt lat="50.77325" lon="3.65336">
        <ele>85</ele>
        <time>2015-12-13T12:44:56Z</time>
      </trkpt>
      <trkpt lat="50.77327" lon="3.65335">
        <ele>85</ele>
        <time>2015-12-13T12:44:58Z</time>
      </trkpt>
      <trkpt lat="50.7733" lon="3.65333">
        <ele>85</ele>
        <time>2015-12-13T12:45:00Z</time>
      </trkpt>
      <trkpt lat="50.77333" lon="3.65333">
        <ele>82</ele>
        <time>2015-12-13T12:45:02Z</time>
      </trkpt>
      <trkpt lat="50.77336" lon="3.65334">
        <ele>82</ele>
        <time>2015-12-13T12:45:05Z</time>
      </trkpt>
      <trkpt lat="50.77338" lon="3.65336">
        <ele>82</ele>
        <time>2015-12-13T12:45:07Z</time>
      </trkpt>
      <trkpt lat="50.7734" lon="3.65333">
        <ele>81.3</ele>
        <time>2015-12-13T12:45:11Z</time>
      </trkpt>
      <trkpt lat="50.77342" lon="3.65331">
        <ele>81</ele>
        <time>2015-12-13T12:45:13Z</time>
      </trkpt>
      <trkpt lat="50.77344" lon="3.65332">
        <ele>81</ele>
        <time>2015-12-13T12:45:15Z</time>
      </trkpt>
      <trkpt lat="50.77345" lon="3.65336">
        <ele>81</ele>
        <time>2015-12-13T12:45:17Z</time>
      </trkpt>
      <trkpt lat="50.77346" lon="3.6534">
        <ele>81</ele>
        <time>2015-12-13T12:45:19Z</time>
      </trkpt>
      <trkpt lat="50.77348" lon="3.65342">
        <ele>81</ele>
        <time>2015-12-13T12:45:21Z</time>
      </trkpt>
      <trkpt lat="50.7735" lon="3.65343">
        <ele>81</ele>
        <time>2015-12-13T12:45:24Z</time>
      </trkpt>
      <trkpt lat="50.77353" lon="3.65342">
        <ele>81</ele>
        <time>2015-12-13T12:45:27Z</time>
      </trkpt>
      <trkpt lat="50.77354" lon="3.65342">
        <ele>81</ele>
        <time>2015-12-13T12:45:29Z</time>
      </trkpt>
      <trkpt lat="50.77356" lon="3.65339">
        <ele>81</ele>
        <time>2015-12-13T12:45:32Z</time>
      </trkpt>
      <trkpt lat="50.77359" lon="3.65339">
        <ele>81</ele>
        <time>2015-12-13T12:45:34Z</time>
      </trkpt>
      <trkpt lat="50.77361" lon="3.65338">
        <ele>81</ele>
        <time>2015-12-13T12:45:36Z</time>
      </trkpt>
      <trkpt lat="50.77363" lon="3.65338">
        <ele>81</ele>
        <time>2015-12-13T12:45:38Z</time>
      </trkpt>
      <trkpt lat="50.77366" lon="3.65337">
        <ele>80.5</ele>
        <time>2015-12-13T12:45:41Z</time>
      </trkpt>
      <trkpt lat="50.77364" lon="3.65343">
        <ele>80</ele>
        <time>2015-12-13T12:45:49Z</time>
      </trkpt>
      <trkpt lat="50.77375" lon="3.65352">
        <ele>80</ele>
        <time>2015-12-13T12:46:12Z</time>
      </trkpt>
      <trkpt lat="50.77381" lon="3.65352">
        <ele>81</ele>
        <time>2015-12-13T12:46:53Z</time>
      </trkpt>
      <trkpt lat="50.77383" lon="3.65354">
        <ele>81</ele>
        <time>2015-12-13T12:46:56Z</time>
      </trkpt>
      <trkpt lat="50.77379" lon="3.65349">
        <ele>79</ele>
        <time>2015-12-13T12:47:06Z</time>
      </trkpt>
      <trkpt lat="50.77377" lon="3.65348">
        <ele>79</ele>
        <time>2015-12-13T12:47:08Z</time>
      </trkpt>
      <trkpt lat="50.77373" lon="3.65347">
        <ele>79</ele>
        <time>2015-12-13T12:47:42Z</time>
      </trkpt>
      <trkpt lat="50.77376" lon="3.6535">
        <ele>80</ele>
        <time>2015-12-13T12:48:16Z</time>
      </trkpt>
      <trkpt lat="50.77374" lon="3.65345">
        <ele>80</ele>
        <time>2015-12-13T12:48:35Z</time>
      </trkpt>
      <trkpt lat="50.77371" lon="3.65345">
        <ele>80</ele>
        <time>2015-12-13T12:48:38Z</time>
      </trkpt>
      <trkpt lat="50.77367" lon="3.65348">
        <ele>80</ele>
        <time>2015-12-13T12:48:46Z</time>
      </trkpt>
      <trkpt lat="50.77363" lon="3.65352">
        <ele>80</ele>
        <time>2015-12-13T12:48:49Z</time>
      </trkpt>
      <trkpt lat="50.77359" lon="3.65357">
        <ele>81</ele>
        <time>2015-12-13T12:48:57Z</time>
      </trkpt>
      <trkpt lat="50.7736" lon="3.65362">
        <ele>81</ele>
        <time>2015-12-13T12:49:00Z</time>
      </trkpt>
      <trkpt lat="50.7736" lon="3.65365">
        <ele>79</ele>
        <time>2015-12-13T12:49:02Z</time>
      </trkpt>
      <trkpt lat="50.77361" lon="3.65368">
        <ele>79</ele>
        <time>2015-12-13T12:49:05Z</time>
      </trkpt>
      <trkpt lat="50.77363" lon="3.65371">
        <ele>79</ele>
        <time>2015-12-13T12:49:07Z</time>
      </trkpt>
      <trkpt lat="50.77363" lon="3.65376">
        <ele>79</ele>
        <time>2015-12-13T12:49:10Z</time>
      </trkpt>
      <trkpt lat="50.77364" lon="3.6538">
        <ele>79</ele>
        <time>2015-12-13T12:49:12Z</time>
      </trkpt>
      <trkpt lat="50.77364" lon="3.65384">
        <ele>79</ele>
        <time>2015-12-13T12:49:14Z</time>
      </trkpt>
      <trkpt lat="50.77363" lon="3.65388">
        <ele>79</ele>
        <time>2015-12-13T12:49:16Z</time>
      </trkpt>
      <trkpt lat="50.77364" lon="3.65392">
        <ele>79</ele>
        <time>2015-12-13T12:49:18Z</time>
      </trkpt>
      <trkpt lat="50.77364" lon="3.65396">
        <ele>79</ele>
        <time>2015-12-13T12:49:20Z</time>
      </trkpt>
      <trkpt lat="50.77365" lon="3.654">
        <ele>77</ele>
        <time>2015-12-13T12:49:22Z</time>
      </trkpt>
      <trkpt lat="50.77366" lon="3.65405">
        <ele>77</ele>
        <time>2015-12-13T12:49:24Z</time>
      </trkpt>
      <trkpt lat="50.77367" lon="3.6541">
        <ele>75.6</ele>
        <time>2015-12-13T12:49:26Z</time>
      </trkpt>
      <trkpt lat="50.77368" lon="3.65413">
        <ele>75</ele>
        <time>2015-12-13T12:49:28Z</time>
      </trkpt>
      <trkpt lat="50.77369" lon="3.65417">
        <ele>75</ele>
        <time>2015-12-13T12:49:30Z</time>
      </trkpt>
      <trkpt lat="50.7737" lon="3.65422">
        <ele>74</ele>
        <time>2015-12-13T12:49:32Z</time>
      </trkpt>
      <trkpt lat="50.77369" lon="3.65425">
        <ele>74</ele>
        <time>2015-12-13T12:49:34Z</time>
      </trkpt>
      <trkpt lat="50.77371" lon="3.6543">
        <ele>74</ele>
        <time>2015-12-13T12:49:36Z</time>
      </trkpt>
      <trkpt lat="50.77371" lon="3.65435">
        <ele>74</ele>
        <time>2015-12-13T12:49:38Z</time>
      </trkpt>
      <trkpt lat="50.77374" lon="3.65441">
        <ele>74</ele>
        <time>2015-12-13T12:49:40Z</time>
      </trkpt>
      <trkpt lat="50.77381" lon="3.6545">
        <ele>74</ele>
        <time>2015-12-13T12:49:46Z</time>
      </trkpt>
      <trkpt lat="50.77384" lon="3.65451">
        <ele>74</ele>
        <time>2015-12-13T12:49:48Z</time>
      </trkpt>
      <trkpt lat="50.77386" lon="3.65453">
        <ele>74</ele>
        <time>2015-12-13T12:49:50Z</time>
      </trkpt>
      <trkpt lat="50.77388" lon="3.65453">
        <ele>75</ele>
        <time>2015-12-13T12:49:53Z</time>
      </trkpt>
      <trkpt lat="50.77391" lon="3.65453">
        <ele>75</ele>
        <time>2015-12-13T12:49:56Z</time>
      </trkpt>
      <trkpt lat="50.77393" lon="3.65452">
        <ele>75</ele>
        <time>2015-12-13T12:49:58Z</time>
      </trkpt>
      <trkpt lat="50.77397" lon="3.65451">
        <ele>75</ele>
        <time>2015-12-13T12:50:00Z</time>
      </trkpt>
      <trkpt lat="50.77398" lon="3.65451">
        <ele>76.4</ele>
        <time>2015-12-13T12:50:01Z</time>
      </trkpt>
      <trkpt lat="50.77401" lon="3.65451">
        <ele>77</ele>
        <time>2015-12-13T12:50:02Z</time>
      </trkpt>
      <trkpt lat="50.77403" lon="3.6545">
        <ele>77</ele>
        <time>2015-12-13T12:50:03Z</time>
      </trkpt>
      <trkpt lat="50.77404" lon="3.6545">
        <ele>77</ele>
        <time>2015-12-13T12:50:04Z</time>
      </trkpt>
      <trkpt lat="50.77406" lon="3.65448">
        <ele>77</ele>
        <time>2015-12-13T12:50:05Z</time>
      </trkpt>
      <trkpt lat="50.77409" lon="3.65446">
        <ele>77</ele>
        <time>2015-12-13T12:50:07Z</time>
      </trkpt>
      <trkpt lat="50.77411" lon="3.65444">
        <ele>77</ele>
        <time>2015-12-13T12:50:08Z</time>
      </trkpt>
      <trkpt lat="50.77415" lon="3.65441">
        <ele>77</ele>
        <time>2015-12-13T12:50:10Z</time>
      </trkpt>
      <trkpt lat="50.77417" lon="3.65439">
        <ele>76.3</ele>
        <time>2015-12-13T12:50:11Z</time>
      </trkpt>
      <trkpt lat="50.77418" lon="3.65438">
        <ele>76</ele>
        <time>2015-12-13T12:50:12Z</time>
      </trkpt>
      <trkpt lat="50.7742" lon="3.65437">
        <ele>76</ele>
        <time>2015-12-13T12:50:13Z</time>
      </trkpt>
      <trkpt lat="50.77422" lon="3.65436">
        <ele>76</ele>
        <time>2015-12-13T12:50:14Z</time>
      </trkpt>
      <trkpt lat="50.77425" lon="3.65436">
        <ele>76</ele>
        <time>2015-12-13T12:50:15Z</time>
      </trkpt>
      <trkpt lat="50.77428" lon="3.65435">
        <ele>76</ele>
        <time>2015-12-13T12:50:16Z</time>
      </trkpt>
      <trkpt lat="50.7743" lon="3.65435">
        <ele>76</ele>
        <time>2015-12-13T12:50:17Z</time>
      </trkpt>
      <trkpt lat="50.77433" lon="3.65435">
        <ele>76</ele>
        <time>2015-12-13T12:50:18Z</time>
      </trkpt>
      <trkpt lat="50.77435" lon="3.65435">
        <ele>76</ele>
        <time>2015-12-13T12:50:19Z</time>
      </trkpt>
      <trkpt lat="50.77437" lon="3.65435">
        <ele>76</ele>
        <time>2015-12-13T12:50:20Z</time>
      </trkpt>
      <trkpt lat="50.77439" lon="3.65435">
        <ele>74.6</ele>
        <time>2015-12-13T12:50:21Z</time>
      </trkpt>
      <trkpt lat="50.77442" lon="3.65435">
        <ele>74</ele>
        <time>2015-12-13T12:50:22Z</time>
      </trkpt>
      <trkpt lat="50.77444" lon="3.65435">
        <ele>74</ele>
        <time>2015-12-13T12:50:23Z</time>
      </trkpt>
      <trkpt lat="50.77446" lon="3.65435">
        <ele>74</ele>
        <time>2015-12-13T12:50:24Z</time>
      </trkpt>
      <trkpt lat="50.77448" lon="3.65435">
        <ele>74</ele>
        <time>2015-12-13T12:50:25Z</time>
      </trkpt>
      <trkpt lat="50.7745" lon="3.65435">
        <ele>74</ele>
        <time>2015-12-13T12:50:26Z</time>
      </trkpt>
      <trkpt lat="50.77452" lon="3.65435">
        <ele>74</ele>
        <time>2015-12-13T12:50:27Z</time>
      </trkpt>
      <trkpt lat="50.77455" lon="3.65434">
        <ele>74</ele>
        <time>2015-12-13T12:50:28Z</time>
      </trkpt>
      <trkpt lat="50.77458" lon="3.65435">
        <ele>74</ele>
        <time>2015-12-13T12:50:30Z</time>
      </trkpt>
      <trkpt lat="50.77459" lon="3.65435">
        <ele>73</ele>
        <time>2015-12-13T12:50:32Z</time>
      </trkpt>
      <trkpt lat="50.77462" lon="3.65436">
        <ele>73</ele>
        <time>2015-12-13T12:50:34Z</time>
      </trkpt>
      <trkpt lat="50.77465" lon="3.65439">
        <ele>73</ele>
        <time>2015-12-13T12:50:36Z</time>
      </trkpt>
      <trkpt lat="50.77467" lon="3.65442">
        <ele>73</ele>
        <time>2015-12-13T12:50:38Z</time>
      </trkpt>
      <trkpt lat="50.7747" lon="3.65443">
        <ele>73</ele>
        <time>2015-12-13T12:50:40Z</time>
      </trkpt>
      <trkpt lat="50.77473" lon="3.65445">
        <ele>73</ele>
        <time>2015-12-13T12:50:42Z</time>
      </trkpt>
      <trkpt lat="50.77475" lon="3.65448">
        <ele>73</ele>
        <time>2015-12-13T12:50:44Z</time>
      </trkpt>
      <trkpt lat="50.77477" lon="3.6545">
        <ele>73</ele>
        <time>2015-12-13T12:50:46Z</time>
      </trkpt>
      <trkpt lat="50.77479" lon="3.65451">
        <ele>73</ele>
        <time>2015-12-13T12:50:48Z</time>
      </trkpt>
      <trkpt lat="50.77482" lon="3.65452">
        <ele>73</ele>
        <time>2015-12-13T12:50:50Z</time>
      </trkpt>
      <trkpt lat="50.77484" lon="3.65453">
        <ele>73</ele>
        <time>2015-12-13T12:50:52Z</time>
      </trkpt>
      <trkpt lat="50.77486" lon="3.65455">
        <ele>73</ele>
        <time>2015-12-13T12:50:53Z</time>
      </trkpt>
      <trkpt lat="50.77487" lon="3.65457">
        <ele>73</ele>
        <time>2015-12-13T12:50:54Z</time>
      </trkpt>
      <trkpt lat="50.77489" lon="3.65459">
        <ele>73</ele>
        <time>2015-12-13T12:50:55Z</time>
      </trkpt>
      <trkpt lat="50.77492" lon="3.65461">
        <ele>73</ele>
        <time>2015-12-13T12:50:57Z</time>
      </trkpt>
      <trkpt lat="50.77494" lon="3.65464">
        <ele>73</ele>
        <time>2015-12-13T12:50:59Z</time>
      </trkpt>
      <trkpt lat="50.77496" lon="3.65466">
        <ele>73</ele>
        <time>2015-12-13T12:51:00Z</time>
      </trkpt>
      <trkpt lat="50.77498" lon="3.65468">
        <ele>73</ele>
        <time>2015-12-13T12:51:01Z</time>
      </trkpt>
      <trkpt lat="50.775" lon="3.6547">
        <ele>73</ele>
        <time>2015-12-13T12:51:02Z</time>
      </trkpt>
      <trkpt lat="50.77502" lon="3.65471">
        <ele>73</ele>
        <time>2015-12-13T12:51:03Z</time>
      </trkpt>
      <trkpt lat="50.77504" lon="3.65473">
        <ele>73</ele>
        <time>2015-12-13T12:51:04Z</time>
      </trkpt>
      <trkpt lat="50.77506" lon="3.65474">
        <ele>73</ele>
        <time>2015-12-13T12:51:05Z</time>
      </trkpt>
      <trkpt lat="50.77508" lon="3.65476">
        <ele>73</ele>
        <time>2015-12-13T12:51:06Z</time>
      </trkpt>
      <trkpt lat="50.77509" lon="3.65477">
        <ele>73</ele>
        <time>2015-12-13T12:51:07Z</time>
      </trkpt>
      <trkpt lat="50.77512" lon="3.6548">
        <ele>73</ele>
        <time>2015-12-13T12:51:09Z</time>
      </trkpt>
      <trkpt lat="50.77514" lon="3.65482">
        <ele>73</ele>
        <time>2015-12-13T12:51:10Z</time>
      </trkpt>
      <trkpt lat="50.77516" lon="3.65483">
        <ele>72.3</ele>
        <time>2015-12-13T12:51:11Z</time>
      </trkpt>
      <trkpt lat="50.77518" lon="3.65486">
        <ele>72</ele>
        <time>2015-12-13T12:51:12Z</time>
      </trkpt>
      <trkpt lat="50.77519" lon="3.65489">
        <ele>72</ele>
        <time>2015-12-13T12:51:13Z</time>
      </trkpt>
      <trkpt lat="50.77521" lon="3.65491">
        <ele>72</ele>
        <time>2015-12-13T12:51:14Z</time>
      </trkpt>
      <trkpt lat="50.77522" lon="3.65493">
        <ele>72</ele>
        <time>2015-12-13T12:51:15Z</time>
      </trkpt>
      <trkpt lat="50.77526" lon="3.65493">
        <ele>72</ele>
        <time>2015-12-13T12:51:17Z</time>
      </trkpt>
      <trkpt lat="50.77529" lon="3.65494">
        <ele>72</ele>
        <time>2015-12-13T12:51:19Z</time>
      </trkpt>
      <trkpt lat="50.77531" lon="3.65497">
        <ele>71.3</ele>
        <time>2015-12-13T12:51:21Z</time>
      </trkpt>
      <trkpt lat="50.77533" lon="3.65499">
        <ele>71</ele>
        <time>2015-12-13T12:51:22Z</time>
      </trkpt>
      <trkpt lat="50.77535" lon="3.65501">
        <ele>71</ele>
        <time>2015-12-13T12:51:23Z</time>
      </trkpt>
      <trkpt lat="50.77537" lon="3.65503">
        <ele>71</ele>
        <time>2015-12-13T12:51:24Z</time>
      </trkpt>
      <trkpt lat="50.77538" lon="3.65504">
        <ele>71</ele>
        <time>2015-12-13T12:51:25Z</time>
      </trkpt>
      <trkpt lat="50.77541" lon="3.65507">
        <ele>71</ele>
        <time>2015-12-13T12:51:26Z</time>
      </trkpt>
      <trkpt lat="50.77543" lon="3.65509">
        <ele>71</ele>
        <time>2015-12-13T12:51:27Z</time>
      </trkpt>
      <trkpt lat="50.77545" lon="3.65512">
        <ele>71</ele>
        <time>2015-12-13T12:51:29Z</time>
      </trkpt>
      <trkpt lat="50.77547" lon="3.65513">
        <ele>71</ele>
        <time>2015-12-13T12:51:30Z</time>
      </trkpt>
      <trkpt lat="50.7755" lon="3.65515">
        <ele>71</ele>
        <time>2015-12-13T12:51:32Z</time>
      </trkpt>
      <trkpt lat="50.77552" lon="3.65516">
        <ele>71</ele>
        <time>2015-12-13T12:51:33Z</time>
      </trkpt>
      <trkpt lat="50.77553" lon="3.65519">
        <ele>71</ele>
        <time>2015-12-13T12:51:34Z</time>
      </trkpt>
      <trkpt lat="50.77554" lon="3.65523">
        <ele>71</ele>
        <time>2015-12-13T12:51:35Z</time>
      </trkpt>
      <trkpt lat="50.77555" lon="3.65526">
        <ele>71</ele>
        <time>2015-12-13T12:51:37Z</time>
      </trkpt>
      <trkpt lat="50.77558" lon="3.65527">
        <ele>71</ele>
        <time>2015-12-13T12:51:39Z</time>
      </trkpt>
      <trkpt lat="50.77561" lon="3.65529">
        <ele>71</ele>
        <time>2015-12-13T12:51:41Z</time>
      </trkpt>
      <trkpt lat="50.77562" lon="3.65532">
        <ele>71</ele>
        <time>2015-12-13T12:51:42Z</time>
      </trkpt>
      <trkpt lat="50.77565" lon="3.65535">
        <ele>71</ele>
        <time>2015-12-13T12:51:44Z</time>
      </trkpt>
      <trkpt lat="50.77568" lon="3.65536">
        <ele>71</ele>
        <time>2015-12-13T12:51:46Z</time>
      </trkpt>
      <trkpt lat="50.77571" lon="3.65538">
        <ele>71</ele>
        <time>2015-12-13T12:51:48Z</time>
      </trkpt>
      <trkpt lat="50.77579" lon="3.65546">
        <ele>71</ele>
        <time>2015-12-13T12:51:53Z</time>
      </trkpt>
      <trkpt lat="50.77584" lon="3.65554">
        <ele>71</ele>
        <time>2015-12-13T12:51:56Z</time>
      </trkpt>
      <trkpt lat="50.77586" lon="3.65556">
        <ele>71</ele>
        <time>2015-12-13T12:51:57Z</time>
      </trkpt>
      <trkpt lat="50.77588" lon="3.65558">
        <ele>71</ele>
        <time>2015-12-13T12:51:58Z</time>
      </trkpt>
      <trkpt lat="50.77589" lon="3.6556">
        <ele>71</ele>
        <time>2015-12-13T12:51:59Z</time>
      </trkpt>
      <trkpt lat="50.77592" lon="3.65563">
        <ele>71</ele>
        <time>2015-12-13T12:52:00Z</time>
      </trkpt>
      <trkpt lat="50.77593" lon="3.65564">
        <ele>70.5</ele>
        <time>2015-12-13T12:52:01Z</time>
      </trkpt>
      <trkpt lat="50.77595" lon="3.65566">
        <ele>70</ele>
        <time>2015-12-13T12:52:02Z</time>
      </trkpt>
      <trkpt lat="50.77598" lon="3.65569">
        <ele>70</ele>
        <time>2015-12-13T12:52:04Z</time>
      </trkpt>
      <trkpt lat="50.77601" lon="3.6557">
        <ele>70</ele>
        <time>2015-12-13T12:52:06Z</time>
      </trkpt>
      <trkpt lat="50.77604" lon="3.65572">
        <ele>70</ele>
        <time>2015-12-13T12:52:08Z</time>
      </trkpt>
      <trkpt lat="50.77607" lon="3.65572">
        <ele>70</ele>
        <time>2015-12-13T12:52:10Z</time>
      </trkpt>
      <trkpt lat="50.77609" lon="3.65572">
        <ele>70</ele>
        <time>2015-12-13T12:52:11Z</time>
      </trkpt>
      <trkpt lat="50.77613" lon="3.65571">
        <ele>70</ele>
        <time>2015-12-13T12:52:13Z</time>
      </trkpt>
      <trkpt lat="50.77615" lon="3.65572">
        <ele>70</ele>
        <time>2015-12-13T12:52:14Z</time>
      </trkpt>
      <trkpt lat="50.77618" lon="3.65573">
        <ele>70</ele>
        <time>2015-12-13T12:52:15Z</time>
      </trkpt>
      <trkpt lat="50.7762" lon="3.65574">
        <ele>70</ele>
        <time>2015-12-13T12:52:16Z</time>
      </trkpt>
      <trkpt lat="50.77622" lon="3.65574">
        <ele>70</ele>
        <time>2015-12-13T12:52:17Z</time>
      </trkpt>
      <trkpt lat="50.77625" lon="3.65574">
        <ele>70</ele>
        <time>2015-12-13T12:52:18Z</time>
      </trkpt>
      <trkpt lat="50.77627" lon="3.65574">
        <ele>70</ele>
        <time>2015-12-13T12:52:19Z</time>
      </trkpt>
      <trkpt lat="50.77629" lon="3.65574">
        <ele>70</ele>
        <time>2015-12-13T12:52:20Z</time>
      </trkpt>
      <trkpt lat="50.77632" lon="3.65576">
        <ele>71</ele>
        <time>2015-12-13T12:52:22Z</time>
      </trkpt>
      <trkpt lat="50.77634" lon="3.65577">
        <ele>71</ele>
        <time>2015-12-13T12:52:23Z</time>
      </trkpt>
      <trkpt lat="50.77642" lon="3.65582">
        <ele>71</ele>
        <time>2015-12-13T12:52:28Z</time>
      </trkpt>
      <trkpt lat="50.77644" lon="3.65583">
        <ele>71</ele>
        <time>2015-12-13T12:52:29Z</time>
      </trkpt>
      <trkpt lat="50.77646" lon="3.65583">
        <ele>71</ele>
        <time>2015-12-13T12:52:30Z</time>
      </trkpt>
      <trkpt lat="50.77648" lon="3.65583">
        <ele>72.4</ele>
        <time>2015-12-13T12:52:31Z</time>
      </trkpt>
      <trkpt lat="50.77652" lon="3.65584">
        <ele>73</ele>
        <time>2015-12-13T12:52:33Z</time>
      </trkpt>
      <trkpt lat="50.77654" lon="3.65586">
        <ele>73</ele>
        <time>2015-12-13T12:52:34Z</time>
      </trkpt>
      <trkpt lat="50.77656" lon="3.65587">
        <ele>73</ele>
        <time>2015-12-13T12:52:35Z</time>
      </trkpt>
      <trkpt lat="50.77664" lon="3.65604">
        <ele>73</ele>
        <time>2015-12-13T12:52:38Z</time>
      </trkpt>
      <trkpt lat="50.77669" lon="3.65618">
        <ele>73</ele>
        <time>2015-12-13T12:52:42Z</time>
      </trkpt>
      <trkpt lat="50.77671" lon="3.65632">
        <ele>73</ele>
        <time>2015-12-13T12:52:46Z</time>
      </trkpt>
      <trkpt lat="50.77672" lon="3.65635">
        <ele>73</ele>
        <time>2015-12-13T12:52:47Z</time>
      </trkpt>
      <trkpt lat="50.77671" lon="3.65639">
        <ele>73</ele>
        <time>2015-12-13T12:52:49Z</time>
      </trkpt>
      <trkpt lat="50.7767" lon="3.65642">
        <ele>74.4</ele>
        <time>2015-12-13T12:52:51Z</time>
      </trkpt>
      <trkpt lat="50.77671" lon="3.65646">
        <ele>75</ele>
        <time>2015-12-13T12:52:53Z</time>
      </trkpt>
      <trkpt lat="50.7767" lon="3.6565">
        <ele>75</ele>
        <time>2015-12-13T12:52:55Z</time>
      </trkpt>
      <trkpt lat="50.77671" lon="3.65654">
        <ele>75</ele>
        <time>2015-12-13T12:52:57Z</time>
      </trkpt>
      <trkpt lat="50.77671" lon="3.65657">
        <ele>75</ele>
        <time>2015-12-13T12:52:59Z</time>
      </trkpt>
      <trkpt lat="50.77671" lon="3.6566">
        <ele>76.4</ele>
        <time>2015-12-13T12:53:01Z</time>
      </trkpt>
      <trkpt lat="50.77672" lon="3.65664">
        <ele>77</ele>
        <time>2015-12-13T12:53:03Z</time>
      </trkpt>
      <trkpt lat="50.77672" lon="3.65669">
        <ele>77</ele>
        <time>2015-12-13T12:53:05Z</time>
      </trkpt>
      <trkpt lat="50.77672" lon="3.65673">
        <ele>77</ele>
        <time>2015-12-13T12:53:07Z</time>
      </trkpt>
      <trkpt lat="50.77672" lon="3.65676">
        <ele>77</ele>
        <time>2015-12-13T12:53:09Z</time>
      </trkpt>
      <trkpt lat="50.77672" lon="3.65681">
        <ele>77</ele>
        <time>2015-12-13T12:53:11Z</time>
      </trkpt>
      <trkpt lat="50.77672" lon="3.65685">
        <ele>77</ele>
        <time>2015-12-13T12:53:13Z</time>
      </trkpt>
      <trkpt lat="50.77671" lon="3.65689">
        <ele>77</ele>
        <time>2015-12-13T12:53:15Z</time>
      </trkpt>
      <trkpt lat="50.77671" lon="3.65694">
        <ele>77</ele>
        <time>2015-12-13T12:53:17Z</time>
      </trkpt>
      <trkpt lat="50.7767" lon="3.65698">
        <ele>77</ele>
        <time>2015-12-13T12:53:19Z</time>
      </trkpt>
      <trkpt lat="50.7767" lon="3.65703">
        <ele>78.4</ele>
        <time>2015-12-13T12:53:21Z</time>
      </trkpt>
      <trkpt lat="50.77671" lon="3.65707">
        <ele>79</ele>
        <time>2015-12-13T12:53:23Z</time>
      </trkpt>
      <trkpt lat="50.77671" lon="3.65711">
        <ele>79</ele>
        <time>2015-12-13T12:53:25Z</time>
      </trkpt>
      <trkpt lat="50.7767" lon="3.65715">
        <ele>79</ele>
        <time>2015-12-13T12:53:27Z</time>
      </trkpt>
      <trkpt lat="50.77669" lon="3.65719">
        <ele>79</ele>
        <time>2015-12-13T12:53:29Z</time>
      </trkpt>
      <trkpt lat="50.77668" lon="3.65722">
        <ele>79.7</ele>
        <time>2015-12-13T12:53:31Z</time>
      </trkpt>
      <trkpt lat="50.77667" lon="3.65726">
        <ele>80</ele>
        <time>2015-12-13T12:53:33Z</time>
      </trkpt>
      <trkpt lat="50.77667" lon="3.65729">
        <ele>80</ele>
        <time>2015-12-13T12:53:35Z</time>
      </trkpt>
      <trkpt lat="50.77666" lon="3.65733">
        <ele>80</ele>
        <time>2015-12-13T12:53:38Z</time>
      </trkpt>
      <trkpt lat="50.77666" lon="3.65736">
        <ele>80.7</ele>
        <time>2015-12-13T12:53:41Z</time>
      </trkpt>
      <trkpt lat="50.77666" lon="3.65739">
        <ele>81</ele>
        <time>2015-12-13T12:53:43Z</time>
      </trkpt>
      <trkpt lat="50.77667" lon="3.65744">
        <ele>81</ele>
        <time>2015-12-13T12:53:45Z</time>
      </trkpt>
      <trkpt lat="50.77668" lon="3.6575">
        <ele>81</ele>
        <time>2015-12-13T12:53:47Z</time>
      </trkpt>
      <trkpt lat="50.77667" lon="3.65754">
        <ele>81</ele>
        <time>2015-12-13T12:53:49Z</time>
      </trkpt>
      <trkpt lat="50.77667" lon="3.65757">
        <ele>81</ele>
        <time>2015-12-13T12:53:51Z</time>
      </trkpt>
      <trkpt lat="50.77667" lon="3.65761">
        <ele>81</ele>
        <time>2015-12-13T12:53:53Z</time>
      </trkpt>
      <trkpt lat="50.77666" lon="3.65764">
        <ele>81</ele>
        <time>2015-12-13T12:53:55Z</time>
      </trkpt>
      <trkpt lat="50.77667" lon="3.65767">
        <ele>81</ele>
        <time>2015-12-13T12:53:57Z</time>
      </trkpt>
      <trkpt lat="50.77668" lon="3.65769">
        <ele>81</ele>
        <time>2015-12-13T12:54:00Z</time>
      </trkpt>
      <trkpt lat="50.7767" lon="3.6577">
        <ele>83</ele>
        <time>2015-12-13T12:54:03Z</time>
      </trkpt>
      <trkpt lat="50.77672" lon="3.6577">
        <ele>83</ele>
        <time>2015-12-13T12:54:05Z</time>
      </trkpt>
      <trkpt lat="50.77675" lon="3.6577">
        <ele>83</ele>
        <time>2015-12-13T12:54:07Z</time>
      </trkpt>
      <trkpt lat="50.77677" lon="3.65769">
        <ele>83</ele>
        <time>2015-12-13T12:54:09Z</time>
      </trkpt>
      <trkpt lat="50.77679" lon="3.65769">
        <ele>83</ele>
        <time>2015-12-13T12:54:11Z</time>
      </trkpt>
      <trkpt lat="50.77682" lon="3.65768">
        <ele>83</ele>
        <time>2015-12-13T12:54:13Z</time>
      </trkpt>
      <trkpt lat="50.77685" lon="3.65768">
        <ele>83</ele>
        <time>2015-12-13T12:54:15Z</time>
      </trkpt>
      <trkpt lat="50.77687" lon="3.65768">
        <ele>83</ele>
        <time>2015-12-13T12:54:17Z</time>
      </trkpt>
      <trkpt lat="50.7769" lon="3.65768">
        <ele>83</ele>
        <time>2015-12-13T12:54:19Z</time>
      </trkpt>
      <trkpt lat="50.77692" lon="3.65768">
        <ele>83</ele>
        <time>2015-12-13T12:54:21Z</time>
      </trkpt>
      <trkpt lat="50.77695" lon="3.65768">
        <ele>83</ele>
        <time>2015-12-13T12:54:23Z</time>
      </trkpt>
      <trkpt lat="50.77698" lon="3.65769">
        <ele>83</ele>
        <time>2015-12-13T12:54:25Z</time>
      </trkpt>
      <trkpt lat="50.77701" lon="3.6577">
        <ele>83</ele>
        <time>2015-12-13T12:54:27Z</time>
      </trkpt>
      <trkpt lat="50.77703" lon="3.6577">
        <ele>83</ele>
        <time>2015-12-13T12:54:28Z</time>
      </trkpt>
      <trkpt lat="50.77705" lon="3.6577">
        <ele>83</ele>
        <time>2015-12-13T12:54:29Z</time>
      </trkpt>
      <trkpt lat="50.77707" lon="3.65771">
        <ele>83</ele>
        <time>2015-12-13T12:54:30Z</time>
      </trkpt>
      <trkpt lat="50.7771" lon="3.65771">
        <ele>83</ele>
        <time>2015-12-13T12:54:31Z</time>
      </trkpt>
      <trkpt lat="50.77712" lon="3.6577">
        <ele>83</ele>
        <time>2015-12-13T12:54:32Z</time>
      </trkpt>
      <trkpt lat="50.77715" lon="3.65771">
        <ele>83</ele>
        <time>2015-12-13T12:54:34Z</time>
      </trkpt>
      <trkpt lat="50.77717" lon="3.65772">
        <ele>83</ele>
        <time>2015-12-13T12:54:35Z</time>
      </trkpt>
      <trkpt lat="50.77719" lon="3.65771">
        <ele>83</ele>
        <time>2015-12-13T12:54:36Z</time>
      </trkpt>
      <trkpt lat="50.77721" lon="3.65772">
        <ele>83</ele>
        <time>2015-12-13T12:54:37Z</time>
      </trkpt>
      <trkpt lat="50.77724" lon="3.65772">
        <ele>83</ele>
        <time>2015-12-13T12:54:39Z</time>
      </trkpt>
      <trkpt lat="50.77726" lon="3.65772">
        <ele>83</ele>
        <time>2015-12-13T12:54:40Z</time>
      </trkpt>
      <trkpt lat="50.77728" lon="3.65773">
        <ele>82.3</ele>
        <time>2015-12-13T12:54:41Z</time>
      </trkpt>
      <trkpt lat="50.7773" lon="3.65773">
        <ele>82</ele>
        <time>2015-12-13T12:54:42Z</time>
      </trkpt>
      <trkpt lat="50.77733" lon="3.65774">
        <ele>82</ele>
        <time>2015-12-13T12:54:44Z</time>
      </trkpt>
      <trkpt lat="50.77736" lon="3.65775">
        <ele>82</ele>
        <time>2015-12-13T12:54:46Z</time>
      </trkpt>
      <trkpt lat="50.77739" lon="3.65777">
        <ele>82</ele>
        <time>2015-12-13T12:54:48Z</time>
      </trkpt>
      <trkpt lat="50.77742" lon="3.65778">
        <ele>82</ele>
        <time>2015-12-13T12:54:50Z</time>
      </trkpt>
      <trkpt lat="50.77744" lon="3.65779">
        <ele>81</ele>
        <time>2015-12-13T12:54:52Z</time>
      </trkpt>
      <trkpt lat="50.77748" lon="3.65781">
        <ele>81</ele>
        <time>2015-12-13T12:54:54Z</time>
      </trkpt>
      <trkpt lat="50.77749" lon="3.65782">
        <ele>81</ele>
        <time>2015-12-13T12:54:55Z</time>
      </trkpt>
      <trkpt lat="50.77751" lon="3.65783">
        <ele>81</ele>
        <time>2015-12-13T12:54:56Z</time>
      </trkpt>
      <trkpt lat="50.77754" lon="3.65783">
        <ele>81</ele>
        <time>2015-12-13T12:54:57Z</time>
      </trkpt>
      <trkpt lat="50.77755" lon="3.65784">
        <ele>81</ele>
        <time>2015-12-13T12:54:58Z</time>
      </trkpt>
      <trkpt lat="50.77759" lon="3.65784">
        <ele>81</ele>
        <time>2015-12-13T12:55:00Z</time>
      </trkpt>
      <trkpt lat="50.77762" lon="3.65784">
        <ele>81</ele>
        <time>2015-12-13T12:55:02Z</time>
      </trkpt>
      <trkpt lat="50.77764" lon="3.65784">
        <ele>81</ele>
        <time>2015-12-13T12:55:04Z</time>
      </trkpt>
      <trkpt lat="50.77766" lon="3.65785">
        <ele>81</ele>
        <time>2015-12-13T12:55:05Z</time>
      </trkpt>
      <trkpt lat="50.77768" lon="3.65788">
        <ele>81</ele>
        <time>2015-12-13T12:55:06Z</time>
      </trkpt>
      <trkpt lat="50.7777" lon="3.6579">
        <ele>81</ele>
        <time>2015-12-13T12:55:08Z</time>
      </trkpt>
      <trkpt lat="50.77773" lon="3.6579">
        <ele>81</ele>
        <time>2015-12-13T12:55:10Z</time>
      </trkpt>
      <trkpt lat="50.77775" lon="3.65791">
        <ele>81</ele>
        <time>2015-12-13T12:55:11Z</time>
      </trkpt>
      <trkpt lat="50.77777" lon="3.65792">
        <ele>81</ele>
        <time>2015-12-13T12:55:12Z</time>
      </trkpt>
      <trkpt lat="50.77779" lon="3.65794">
        <ele>81</ele>
        <time>2015-12-13T12:55:14Z</time>
      </trkpt>
      <trkpt lat="50.77781" lon="3.65796">
        <ele>81</ele>
        <time>2015-12-13T12:55:15Z</time>
      </trkpt>
      <trkpt lat="50.77783" lon="3.658">
        <ele>81</ele>
        <time>2015-12-13T12:55:17Z</time>
      </trkpt>
      <trkpt lat="50.77784" lon="3.65804">
        <ele>81</ele>
        <time>2015-12-13T12:55:19Z</time>
      </trkpt>
      <trkpt lat="50.77785" lon="3.65808">
        <ele>81.7</ele>
        <time>2015-12-13T12:55:21Z</time>
      </trkpt>
      <trkpt lat="50.77785" lon="3.65812">
        <ele>82</ele>
        <time>2015-12-13T12:55:23Z</time>
      </trkpt>
      <trkpt lat="50.77785" lon="3.65817">
        <ele>82</ele>
        <time>2015-12-13T12:55:25Z</time>
      </trkpt>
      <trkpt lat="50.77785" lon="3.65822">
        <ele>82</ele>
        <time>2015-12-13T12:55:27Z</time>
      </trkpt>
      <trkpt lat="50.77786" lon="3.65824">
        <ele>82</ele>
        <time>2015-12-13T12:55:28Z</time>
      </trkpt>
      <trkpt lat="50.77786" lon="3.65827">
        <ele>82</ele>
        <time>2015-12-13T12:55:29Z</time>
      </trkpt>
      <trkpt lat="50.77786" lon="3.6583">
        <ele>82</ele>
        <time>2015-12-13T12:55:30Z</time>
      </trkpt>
      <trkpt lat="50.77787" lon="3.65833">
        <ele>82.5</ele>
        <time>2015-12-13T12:55:31Z</time>
      </trkpt>
      <trkpt lat="50.77786" lon="3.65837">
        <ele>83</ele>
        <time>2015-12-13T12:55:33Z</time>
      </trkpt>
      <trkpt lat="50.77786" lon="3.65841">
        <ele>83</ele>
        <time>2015-12-13T12:55:35Z</time>
      </trkpt>
      <trkpt lat="50.77787" lon="3.65845">
        <ele>83</ele>
        <time>2015-12-13T12:55:38Z</time>
      </trkpt>
      <trkpt lat="50.77787" lon="3.65848">
        <ele>83</ele>
        <time>2015-12-13T12:55:40Z</time>
      </trkpt>
      <trkpt lat="50.77787" lon="3.65852">
        <ele>85</ele>
        <time>2015-12-13T12:55:42Z</time>
      </trkpt>
      <trkpt lat="50.77786" lon="3.65856">
        <ele>85</ele>
        <time>2015-12-13T12:55:44Z</time>
      </trkpt>
      <trkpt lat="50.77784" lon="3.65859">
        <ele>85.7</ele>
        <time>2015-12-13T12:55:46Z</time>
      </trkpt>
      <trkpt lat="50.77782" lon="3.65863">
        <ele>86</ele>
        <time>2015-12-13T12:55:48Z</time>
      </trkpt>
      <trkpt lat="50.77781" lon="3.65868">
        <ele>86</ele>
        <time>2015-12-13T12:55:50Z</time>
      </trkpt>
      <trkpt lat="50.7778" lon="3.65873">
        <ele>86</ele>
        <time>2015-12-13T12:55:52Z</time>
      </trkpt>
      <trkpt lat="50.77779" lon="3.65877">
        <ele>86</ele>
        <time>2015-12-13T12:55:54Z</time>
      </trkpt>
      <trkpt lat="50.77778" lon="3.65881">
        <ele>86</ele>
        <time>2015-12-13T12:55:56Z</time>
      </trkpt>
      <trkpt lat="50.77776" lon="3.65884">
        <ele>86</ele>
        <time>2015-12-13T12:55:58Z</time>
      </trkpt>
      <trkpt lat="50.77775" lon="3.65889">
        <ele>86</ele>
        <time>2015-12-13T12:56:00Z</time>
      </trkpt>
      <trkpt lat="50.77773" lon="3.65893">
        <ele>87</ele>
        <time>2015-12-13T12:56:02Z</time>
      </trkpt>
      <trkpt lat="50.77771" lon="3.65897">
        <ele>87</ele>
        <time>2015-12-13T12:56:04Z</time>
      </trkpt>
      <trkpt lat="50.7777" lon="3.65902">
        <ele>87</ele>
        <time>2015-12-13T12:56:06Z</time>
      </trkpt>
      <trkpt lat="50.7777" lon="3.65907">
        <ele>87</ele>
        <time>2015-12-13T12:56:08Z</time>
      </trkpt>
      <trkpt lat="50.77768" lon="3.65912">
        <ele>87</ele>
        <time>2015-12-13T12:56:10Z</time>
      </trkpt>
      <trkpt lat="50.77767" lon="3.65915">
        <ele>89</ele>
        <time>2015-12-13T12:56:12Z</time>
      </trkpt>
      <trkpt lat="50.77765" lon="3.65919">
        <ele>89</ele>
        <time>2015-12-13T12:56:14Z</time>
      </trkpt>
      <trkpt lat="50.77763" lon="3.65922">
        <ele>89</ele>
        <time>2015-12-13T12:56:16Z</time>
      </trkpt>
      <trkpt lat="50.77762" lon="3.65926">
        <ele>89</ele>
        <time>2015-12-13T12:56:18Z</time>
      </trkpt>
      <trkpt lat="50.7776" lon="3.6593">
        <ele>89</ele>
        <time>2015-12-13T12:56:20Z</time>
      </trkpt>
      <trkpt lat="50.77758" lon="3.65933">
        <ele>90</ele>
        <time>2015-12-13T12:56:22Z</time>
      </trkpt>
      <trkpt lat="50.77757" lon="3.65937">
        <ele>90</ele>
        <time>2015-12-13T12:56:24Z</time>
      </trkpt>
      <trkpt lat="50.77756" lon="3.65941">
        <ele>90</ele>
        <time>2015-12-13T12:56:26Z</time>
      </trkpt>
      <trkpt lat="50.77755" lon="3.65946">
        <ele>90</ele>
        <time>2015-12-13T12:56:28Z</time>
      </trkpt>
      <trkpt lat="50.77754" lon="3.6595">
        <ele>90</ele>
        <time>2015-12-13T12:56:30Z</time>
      </trkpt>
      <trkpt lat="50.77753" lon="3.65954">
        <ele>91</ele>
        <time>2015-12-13T12:56:32Z</time>
      </trkpt>
      <trkpt lat="50.77752" lon="3.65957">
        <ele>91</ele>
        <time>2015-12-13T12:56:34Z</time>
      </trkpt>
      <trkpt lat="50.77751" lon="3.65962">
        <ele>91</ele>
        <time>2015-12-13T12:56:36Z</time>
      </trkpt>
      <trkpt lat="50.7775" lon="3.65964">
        <ele>91</ele>
        <time>2015-12-13T12:56:37Z</time>
      </trkpt>
      <trkpt lat="50.77748" lon="3.65969">
        <ele>91</ele>
        <time>2015-12-13T12:56:39Z</time>
      </trkpt>
      <trkpt lat="50.77747" lon="3.65973">
        <ele>91</ele>
        <time>2015-12-13T12:56:41Z</time>
      </trkpt>
      <trkpt lat="50.77746" lon="3.65977">
        <ele>91</ele>
        <time>2015-12-13T12:56:43Z</time>
      </trkpt>
      <trkpt lat="50.77744" lon="3.65981">
        <ele>91</ele>
        <time>2015-12-13T12:56:45Z</time>
      </trkpt>
      <trkpt lat="50.77743" lon="3.65986">
        <ele>91</ele>
        <time>2015-12-13T12:56:47Z</time>
      </trkpt>
      <trkpt lat="50.77742" lon="3.65991">
        <ele>91</ele>
        <time>2015-12-13T12:56:49Z</time>
      </trkpt>
      <trkpt lat="50.77741" lon="3.65995">
        <ele>92.4</ele>
        <time>2015-12-13T12:56:51Z</time>
      </trkpt>
      <trkpt lat="50.77741" lon="3.66">
        <ele>93</ele>
        <time>2015-12-13T12:56:53Z</time>
      </trkpt>
      <trkpt lat="50.77741" lon="3.66004">
        <ele>93</ele>
        <time>2015-12-13T12:56:55Z</time>
      </trkpt>
      <trkpt lat="50.77741" lon="3.66008">
        <ele>93</ele>
        <time>2015-12-13T12:56:57Z</time>
      </trkpt>
      <trkpt lat="50.77742" lon="3.66012">
        <ele>93</ele>
        <time>2015-12-13T12:56:59Z</time>
      </trkpt>
      <trkpt lat="50.77744" lon="3.66016">
        <ele>93.5</ele>
        <time>2015-12-13T12:57:01Z</time>
      </trkpt>
      <trkpt lat="50.77746" lon="3.66019">
        <ele>94</ele>
        <time>2015-12-13T12:57:03Z</time>
      </trkpt>
      <trkpt lat="50.77749" lon="3.66022">
        <ele>94</ele>
        <time>2015-12-13T12:57:05Z</time>
      </trkpt>
      <trkpt lat="50.77751" lon="3.66026">
        <ele>94</ele>
        <time>2015-12-13T12:57:07Z</time>
      </trkpt>
      <trkpt lat="50.77754" lon="3.6603">
        <ele>94</ele>
        <time>2015-12-13T12:57:09Z</time>
      </trkpt>
      <trkpt lat="50.77756" lon="3.66034">
        <ele>94</ele>
        <time>2015-12-13T12:57:11Z</time>
      </trkpt>
      <trkpt lat="50.77757" lon="3.66038">
        <ele>94</ele>
        <time>2015-12-13T12:57:13Z</time>
      </trkpt>
      <trkpt lat="50.77759" lon="3.66041">
        <ele>94</ele>
        <time>2015-12-13T12:57:15Z</time>
      </trkpt>
      <trkpt lat="50.77761" lon="3.66044">
        <ele>94</ele>
        <time>2015-12-13T12:57:17Z</time>
      </trkpt>
      <trkpt lat="50.77763" lon="3.66047">
        <ele>94</ele>
        <time>2015-12-13T12:57:19Z</time>
      </trkpt>
      <trkpt lat="50.77765" lon="3.6605">
        <ele>94.7</ele>
        <time>2015-12-13T12:57:21Z</time>
      </trkpt>
      <trkpt lat="50.77767" lon="3.66053">
        <ele>95</ele>
        <time>2015-12-13T12:57:23Z</time>
      </trkpt>
      <trkpt lat="50.7777" lon="3.66057">
        <ele>95</ele>
        <time>2015-12-13T12:57:25Z</time>
      </trkpt>
      <trkpt lat="50.77772" lon="3.6606">
        <ele>95</ele>
        <time>2015-12-13T12:57:27Z</time>
      </trkpt>
      <trkpt lat="50.77774" lon="3.66063">
        <ele>95</ele>
        <time>2015-12-13T12:57:29Z</time>
      </trkpt>
      <trkpt lat="50.77777" lon="3.66066">
        <ele>96.4</ele>
        <time>2015-12-13T12:57:31Z</time>
      </trkpt>
      <trkpt lat="50.77779" lon="3.6607">
        <ele>97</ele>
        <time>2015-12-13T12:57:33Z</time>
      </trkpt>
      <trkpt lat="50.7778" lon="3.66072">
        <ele>97</ele>
        <time>2015-12-13T12:57:34Z</time>
      </trkpt>
      <trkpt lat="50.77783" lon="3.66075">
        <ele>97</ele>
        <time>2015-12-13T12:57:36Z</time>
      </trkpt>
      <trkpt lat="50.77785" lon="3.66078">
        <ele>97</ele>
        <time>2015-12-13T12:57:38Z</time>
      </trkpt>
      <trkpt lat="50.77787" lon="3.66082">
        <ele>97</ele>
        <time>2015-12-13T12:57:40Z</time>
      </trkpt>
      <trkpt lat="50.77789" lon="3.66085">
        <ele>98</ele>
        <time>2015-12-13T12:57:42Z</time>
      </trkpt>
      <trkpt lat="50.77791" lon="3.66089">
        <ele>98</ele>
        <time>2015-12-13T12:57:44Z</time>
      </trkpt>
      <trkpt lat="50.77791" lon="3.66093">
        <ele>98</ele>
        <time>2015-12-13T12:57:46Z</time>
      </trkpt>
      <trkpt lat="50.7779" lon="3.66098">
        <ele>98</ele>
        <time>2015-12-13T12:57:48Z</time>
      </trkpt>
      <trkpt lat="50.77789" lon="3.66102">
        <ele>98</ele>
        <time>2015-12-13T12:57:50Z</time>
      </trkpt>
      <trkpt lat="50.77787" lon="3.66105">
        <ele>99</ele>
        <time>2015-12-13T12:57:52Z</time>
      </trkpt>
      <trkpt lat="50.77785" lon="3.66109">
        <ele>99</ele>
        <time>2015-12-13T12:57:54Z</time>
      </trkpt>
      <trkpt lat="50.77783" lon="3.66114">
        <ele>99</ele>
        <time>2015-12-13T12:57:56Z</time>
      </trkpt>
      <trkpt lat="50.77781" lon="3.66118">
        <ele>99</ele>
        <time>2015-12-13T12:57:58Z</time>
      </trkpt>
      <trkpt lat="50.77779" lon="3.66122">
        <ele>99</ele>
        <time>2015-12-13T12:58:00Z</time>
      </trkpt>
      <trkpt lat="50.77777" lon="3.66126">
        <ele>100</ele>
        <time>2015-12-13T12:58:02Z</time>
      </trkpt>
      <trkpt lat="50.77774" lon="3.6613">
        <ele>100</ele>
        <time>2015-12-13T12:58:04Z</time>
      </trkpt>
      <trkpt lat="50.77772" lon="3.66134">
        <ele>100</ele>
        <time>2015-12-13T12:58:06Z</time>
      </trkpt>
      <trkpt lat="50.7777" lon="3.66138">
        <ele>100</ele>
        <time>2015-12-13T12:58:08Z</time>
      </trkpt>
      <trkpt lat="50.77768" lon="3.66142">
        <ele>100</ele>
        <time>2015-12-13T12:58:10Z</time>
      </trkpt>
      <trkpt lat="50.77766" lon="3.66146">
        <ele>101</ele>
        <time>2015-12-13T12:58:12Z</time>
      </trkpt>
      <trkpt lat="50.77764" lon="3.6615">
        <ele>101</ele>
        <time>2015-12-13T12:58:14Z</time>
      </trkpt>
      <trkpt lat="50.77761" lon="3.66154">
        <ele>101</ele>
        <time>2015-12-13T12:58:16Z</time>
      </trkpt>
      <trkpt lat="50.7776" lon="3.66158">
        <ele>101</ele>
        <time>2015-12-13T12:58:18Z</time>
      </trkpt>
      <trkpt lat="50.77758" lon="3.66162">
        <ele>101</ele>
        <time>2015-12-13T12:58:20Z</time>
      </trkpt>
      <trkpt lat="50.77756" lon="3.66167">
        <ele>101</ele>
        <time>2015-12-13T12:58:22Z</time>
      </trkpt>
      <trkpt lat="50.77754" lon="3.66171">
        <ele>101</ele>
        <time>2015-12-13T12:58:24Z</time>
      </trkpt>
      <trkpt lat="50.77752" lon="3.66175">
        <ele>101</ele>
        <time>2015-12-13T12:58:26Z</time>
      </trkpt>
      <trkpt lat="50.7775" lon="3.66178">
        <ele>101</ele>
        <time>2015-12-13T12:58:28Z</time>
      </trkpt>
      <trkpt lat="50.77748" lon="3.66182">
        <ele>101</ele>
        <time>2015-12-13T12:58:30Z</time>
      </trkpt>
      <trkpt lat="50.77746" lon="3.66186">
        <ele>101</ele>
        <time>2015-12-13T12:58:32Z</time>
      </trkpt>
      <trkpt lat="50.77744" lon="3.6619">
        <ele>101</ele>
        <time>2015-12-13T12:58:34Z</time>
      </trkpt>
      <trkpt lat="50.77742" lon="3.66193">
        <ele>101</ele>
        <time>2015-12-13T12:58:36Z</time>
      </trkpt>
      <trkpt lat="50.77741" lon="3.66196">
        <ele>101</ele>
        <time>2015-12-13T12:58:38Z</time>
      </trkpt>
      <trkpt lat="50.77738" lon="3.662">
        <ele>101</ele>
        <time>2015-12-13T12:58:40Z</time>
      </trkpt>
      <trkpt lat="50.77735" lon="3.66203">
        <ele>102</ele>
        <time>2015-12-13T12:58:42Z</time>
      </trkpt>
      <trkpt lat="50.77733" lon="3.66206">
        <ele>102</ele>
        <time>2015-12-13T12:58:44Z</time>
      </trkpt>
      <trkpt lat="50.7773" lon="3.6621">
        <ele>102</ele>
        <time>2015-12-13T12:58:46Z</time>
      </trkpt>
      <trkpt lat="50.77728" lon="3.66214">
        <ele>102</ele>
        <time>2015-12-13T12:58:48Z</time>
      </trkpt>
      <trkpt lat="50.77726" lon="3.66217">
        <ele>102</ele>
        <time>2015-12-13T12:58:50Z</time>
      </trkpt>
      <trkpt lat="50.77724" lon="3.6622">
        <ele>102</ele>
        <time>2015-12-13T12:58:52Z</time>
      </trkpt>
      <trkpt lat="50.77723" lon="3.66222">
        <ele>102</ele>
        <time>2015-12-13T12:58:54Z</time>
      </trkpt>
      <trkpt lat="50.77722" lon="3.66225">
        <ele>102</ele>
        <time>2015-12-13T12:58:56Z</time>
      </trkpt>
      <trkpt lat="50.7772" lon="3.66228">
        <ele>102</ele>
        <time>2015-12-13T12:58:58Z</time>
      </trkpt>
      <trkpt lat="50.77718" lon="3.66232">
        <ele>102</ele>
        <time>2015-12-13T12:59:00Z</time>
      </trkpt>
      <trkpt lat="50.77716" lon="3.66234">
        <ele>102.7</ele>
        <time>2015-12-13T12:59:02Z</time>
      </trkpt>
      <trkpt lat="50.77715" lon="3.66237">
        <ele>103</ele>
        <time>2015-12-13T12:59:04Z</time>
      </trkpt>
      <trkpt lat="50.77712" lon="3.6624">
        <ele>103</ele>
        <time>2015-12-13T12:59:06Z</time>
      </trkpt>
      <trkpt lat="50.7771" lon="3.66243">
        <ele>103</ele>
        <time>2015-12-13T12:59:08Z</time>
      </trkpt>
      <trkpt lat="50.77708" lon="3.66246">
        <ele>103</ele>
        <time>2015-12-13T12:59:09Z</time>
      </trkpt>
      <trkpt lat="50.77706" lon="3.66248">
        <ele>103</ele>
        <time>2015-12-13T12:59:10Z</time>
      </trkpt>
      <trkpt lat="50.77704" lon="3.66251">
        <ele>103</ele>
        <time>2015-12-13T12:59:11Z</time>
      </trkpt>
      <trkpt lat="50.77702" lon="3.66253">
        <ele>103.7</ele>
        <time>2015-12-13T12:59:12Z</time>
      </trkpt>
      <trkpt lat="50.777" lon="3.66256">
        <ele>104</ele>
        <time>2015-12-13T12:59:13Z</time>
      </trkpt>
      <trkpt lat="50.77698" lon="3.66258">
        <ele>104</ele>
        <time>2015-12-13T12:59:14Z</time>
      </trkpt>
      <trkpt lat="50.77697" lon="3.6626">
        <ele>104</ele>
        <time>2015-12-13T12:59:15Z</time>
      </trkpt>
      <trkpt lat="50.77695" lon="3.66263">
        <ele>104</ele>
        <time>2015-12-13T12:59:16Z</time>
      </trkpt>
      <trkpt lat="50.77693" lon="3.66265">
        <ele>104</ele>
        <time>2015-12-13T12:59:17Z</time>
      </trkpt>
      <trkpt lat="50.77691" lon="3.66269">
        <ele>104</ele>
        <time>2015-12-13T12:59:19Z</time>
      </trkpt>
      <trkpt lat="50.77689" lon="3.66272">
        <ele>104</ele>
        <time>2015-12-13T12:59:20Z</time>
      </trkpt>
      <trkpt lat="50.77687" lon="3.66274">
        <ele>104</ele>
        <time>2015-12-13T12:59:21Z</time>
      </trkpt>
      <trkpt lat="50.77685" lon="3.66277">
        <ele>104.7</ele>
        <time>2015-12-13T12:59:22Z</time>
      </trkpt>
      <trkpt lat="50.77683" lon="3.66279">
        <ele>105</ele>
        <time>2015-12-13T12:59:23Z</time>
      </trkpt>
      <trkpt lat="50.77681" lon="3.66281">
        <ele>105</ele>
        <time>2015-12-13T12:59:24Z</time>
      </trkpt>
      <trkpt lat="50.77679" lon="3.66284">
        <ele>105</ele>
        <time>2015-12-13T12:59:25Z</time>
      </trkpt>
      <trkpt lat="50.77678" lon="3.66286">
        <ele>105</ele>
        <time>2015-12-13T12:59:26Z</time>
      </trkpt>
      <trkpt lat="50.77676" lon="3.66288">
        <ele>105</ele>
        <time>2015-12-13T12:59:27Z</time>
      </trkpt>
      <trkpt lat="50.77675" lon="3.6629">
        <ele>105</ele>
        <time>2015-12-13T12:59:28Z</time>
      </trkpt>
      <trkpt lat="50.77673" lon="3.66293">
        <ele>105</ele>
        <time>2015-12-13T12:59:29Z</time>
      </trkpt>
      <trkpt lat="50.77671" lon="3.66296">
        <ele>105</ele>
        <time>2015-12-13T12:59:30Z</time>
      </trkpt>
      <trkpt lat="50.77669" lon="3.66299">
        <ele>105</ele>
        <time>2015-12-13T12:59:31Z</time>
      </trkpt>
      <trkpt lat="50.77667" lon="3.66302">
        <ele>106.4</ele>
        <time>2015-12-13T12:59:32Z</time>
      </trkpt>
      <trkpt lat="50.77665" lon="3.66305">
        <ele>107</ele>
        <time>2015-12-13T12:59:33Z</time>
      </trkpt>
      <trkpt lat="50.77662" lon="3.66308">
        <ele>107</ele>
        <time>2015-12-13T12:59:34Z</time>
      </trkpt>
      <trkpt lat="50.77661" lon="3.6631">
        <ele>107</ele>
        <time>2015-12-13T12:59:35Z</time>
      </trkpt>
      <trkpt lat="50.77659" lon="3.66313">
        <ele>107</ele>
        <time>2015-12-13T12:59:36Z</time>
      </trkpt>
      <trkpt lat="50.77657" lon="3.66315">
        <ele>107</ele>
        <time>2015-12-13T12:59:37Z</time>
      </trkpt>
      <trkpt lat="50.77655" lon="3.66318">
        <ele>107</ele>
        <time>2015-12-13T12:59:38Z</time>
      </trkpt>
      <trkpt lat="50.77654" lon="3.6632">
        <ele>107</ele>
        <time>2015-12-13T12:59:39Z</time>
      </trkpt>
      <trkpt lat="50.77652" lon="3.66323">
        <ele>107</ele>
        <time>2015-12-13T12:59:40Z</time>
      </trkpt>
      <trkpt lat="50.7765" lon="3.66325">
        <ele>107</ele>
        <time>2015-12-13T12:59:41Z</time>
      </trkpt>
      <trkpt lat="50.77648" lon="3.66327">
        <ele>107.7</ele>
        <time>2015-12-13T12:59:42Z</time>
      </trkpt>
      <trkpt lat="50.77647" lon="3.6633">
        <ele>108</ele>
        <time>2015-12-13T12:59:43Z</time>
      </trkpt>
      <trkpt lat="50.77645" lon="3.66332">
        <ele>108</ele>
        <time>2015-12-13T12:59:44Z</time>
      </trkpt>
      <trkpt lat="50.77644" lon="3.66334">
        <ele>108</ele>
        <time>2015-12-13T12:59:45Z</time>
      </trkpt>
      <trkpt lat="50.77642" lon="3.66337">
        <ele>108</ele>
        <time>2015-12-13T12:59:46Z</time>
      </trkpt>
      <trkpt lat="50.7764" lon="3.66339">
        <ele>108</ele>
        <time>2015-12-13T12:59:47Z</time>
      </trkpt>
      <trkpt lat="50.77638" lon="3.66341">
        <ele>108</ele>
        <time>2015-12-13T12:59:48Z</time>
      </trkpt>
      <trkpt lat="50.77637" lon="3.66343">
        <ele>108</ele>
        <time>2015-12-13T12:59:49Z</time>
      </trkpt>
      <trkpt lat="50.77635" lon="3.66345">
        <ele>108</ele>
        <time>2015-12-13T12:59:50Z</time>
      </trkpt>
      <trkpt lat="50.77633" lon="3.66347">
        <ele>108</ele>
        <time>2015-12-13T12:59:51Z</time>
      </trkpt>
      <trkpt lat="50.7763" lon="3.66349">
        <ele>108.5</ele>
        <time>2015-12-13T12:59:52Z</time>
      </trkpt>
      <trkpt lat="50.77628" lon="3.66351">
        <ele>109</ele>
        <time>2015-12-13T12:59:53Z</time>
      </trkpt>
      <trkpt lat="50.77626" lon="3.66352">
        <ele>109</ele>
        <time>2015-12-13T12:59:54Z</time>
      </trkpt>
      <trkpt lat="50.77624" lon="3.66355">
        <ele>109</ele>
        <time>2015-12-13T12:59:55Z</time>
      </trkpt>
      <trkpt lat="50.77622" lon="3.66359">
        <ele>109</ele>
        <time>2015-12-13T12:59:57Z</time>
      </trkpt>
      <trkpt lat="50.77621" lon="3.66361">
        <ele>109</ele>
        <time>2015-12-13T12:59:58Z</time>
      </trkpt>
      <trkpt lat="50.7762" lon="3.66364">
        <ele>109</ele>
        <time>2015-12-13T12:59:59Z</time>
      </trkpt>
      <trkpt lat="50.77619" lon="3.66366">
        <ele>109</ele>
        <time>2015-12-13T13:00:00Z</time>
      </trkpt>
      <trkpt lat="50.77617" lon="3.66369">
        <ele>109</ele>
        <time>2015-12-13T13:00:01Z</time>
      </trkpt>
      <trkpt lat="50.77615" lon="3.66372">
        <ele>109</ele>
        <time>2015-12-13T13:00:02Z</time>
      </trkpt>
      <trkpt lat="50.77614" lon="3.66374">
        <ele>109</ele>
        <time>2015-12-13T13:00:03Z</time>
      </trkpt>
      <trkpt lat="50.77612" lon="3.66376">
        <ele>109</ele>
        <time>2015-12-13T13:00:04Z</time>
      </trkpt>
      <trkpt lat="50.77611" lon="3.66379">
        <ele>109</ele>
        <time>2015-12-13T13:00:05Z</time>
      </trkpt>
      <trkpt lat="50.77609" lon="3.66382">
        <ele>109</ele>
        <time>2015-12-13T13:00:06Z</time>
      </trkpt>
      <trkpt lat="50.77608" lon="3.66384">
        <ele>109</ele>
        <time>2015-12-13T13:00:07Z</time>
      </trkpt>
      <trkpt lat="50.77606" lon="3.66386">
        <ele>109</ele>
        <time>2015-12-13T13:00:08Z</time>
      </trkpt>
      <trkpt lat="50.77604" lon="3.66388">
        <ele>109</ele>
        <time>2015-12-13T13:00:09Z</time>
      </trkpt>
      <trkpt lat="50.77603" lon="3.66391">
        <ele>109</ele>
        <time>2015-12-13T13:00:10Z</time>
      </trkpt>
      <trkpt lat="50.77601" lon="3.66393">
        <ele>109</ele>
        <time>2015-12-13T13:00:11Z</time>
      </trkpt>
      <trkpt lat="50.776" lon="3.66396">
        <ele>109.7</ele>
        <time>2015-12-13T13:00:12Z</time>
      </trkpt>
      <trkpt lat="50.77599" lon="3.66399">
        <ele>110</ele>
        <time>2015-12-13T13:00:13Z</time>
      </trkpt>
      <trkpt lat="50.77597" lon="3.66402">
        <ele>110</ele>
        <time>2015-12-13T13:00:14Z</time>
      </trkpt>
      <trkpt lat="50.77595" lon="3.66406">
        <ele>110</ele>
        <time>2015-12-13T13:00:15Z</time>
      </trkpt>
      <trkpt lat="50.77593" lon="3.66408">
        <ele>110</ele>
        <time>2015-12-13T13:00:16Z</time>
      </trkpt>
      <trkpt lat="50.77591" lon="3.66411">
        <ele>110</ele>
        <time>2015-12-13T13:00:17Z</time>
      </trkpt>
      <trkpt lat="50.77589" lon="3.66414">
        <ele>110</ele>
        <time>2015-12-13T13:00:18Z</time>
      </trkpt>
      <trkpt lat="50.77588" lon="3.66416">
        <ele>110</ele>
        <time>2015-12-13T13:00:19Z</time>
      </trkpt>
      <trkpt lat="50.77586" lon="3.66419">
        <ele>110</ele>
        <time>2015-12-13T13:00:20Z</time>
      </trkpt>
      <trkpt lat="50.77583" lon="3.66422">
        <ele>110</ele>
        <time>2015-12-13T13:00:21Z</time>
      </trkpt>
      <trkpt lat="50.77581" lon="3.66424">
        <ele>110</ele>
        <time>2015-12-13T13:00:22Z</time>
      </trkpt>
      <trkpt lat="50.77579" lon="3.66427">
        <ele>110</ele>
        <time>2015-12-13T13:00:23Z</time>
      </trkpt>
      <trkpt lat="50.77578" lon="3.6643">
        <ele>110</ele>
        <time>2015-12-13T13:00:24Z</time>
      </trkpt>
      <trkpt lat="50.77576" lon="3.66432">
        <ele>110</ele>
        <time>2015-12-13T13:00:25Z</time>
      </trkpt>
      <trkpt lat="50.77574" lon="3.66435">
        <ele>110</ele>
        <time>2015-12-13T13:00:26Z</time>
      </trkpt>
      <trkpt lat="50.77573" lon="3.66438">
        <ele>110</ele>
        <time>2015-12-13T13:00:27Z</time>
      </trkpt>
      <trkpt lat="50.77571" lon="3.6644">
        <ele>110</ele>
        <time>2015-12-13T13:00:28Z</time>
      </trkpt>
      <trkpt lat="50.77569" lon="3.66443">
        <ele>110</ele>
        <time>2015-12-13T13:00:29Z</time>
      </trkpt>
      <trkpt lat="50.77568" lon="3.66445">
        <ele>110</ele>
        <time>2015-12-13T13:00:30Z</time>
      </trkpt>
      <trkpt lat="50.77566" lon="3.66447">
        <ele>110</ele>
        <time>2015-12-13T13:00:31Z</time>
      </trkpt>
      <trkpt lat="50.77564" lon="3.6645">
        <ele>110</ele>
        <time>2015-12-13T13:00:32Z</time>
      </trkpt>
      <trkpt lat="50.77563" lon="3.66452">
        <ele>110</ele>
        <time>2015-12-13T13:00:33Z</time>
      </trkpt>
      <trkpt lat="50.77561" lon="3.66455">
        <ele>110</ele>
        <time>2015-12-13T13:00:34Z</time>
      </trkpt>
      <trkpt lat="50.7756" lon="3.66457">
        <ele>110</ele>
        <time>2015-12-13T13:00:35Z</time>
      </trkpt>
      <trkpt lat="50.77558" lon="3.6646">
        <ele>110</ele>
        <time>2015-12-13T13:00:36Z</time>
      </trkpt>
      <trkpt lat="50.77556" lon="3.66462">
        <ele>110</ele>
        <time>2015-12-13T13:00:37Z</time>
      </trkpt>
      <trkpt lat="50.77554" lon="3.66465">
        <ele>110</ele>
        <time>2015-12-13T13:00:38Z</time>
      </trkpt>
      <trkpt lat="50.77553" lon="3.66467">
        <ele>110</ele>
        <time>2015-12-13T13:00:39Z</time>
      </trkpt>
      <trkpt lat="50.77551" lon="3.6647">
        <ele>110</ele>
        <time>2015-12-13T13:00:40Z</time>
      </trkpt>
      <trkpt lat="50.77549" lon="3.66473">
        <ele>110</ele>
        <time>2015-12-13T13:00:41Z</time>
      </trkpt>
      <trkpt lat="50.77548" lon="3.66475">
        <ele>110</ele>
        <time>2015-12-13T13:00:42Z</time>
      </trkpt>
      <trkpt lat="50.77546" lon="3.66478">
        <ele>110</ele>
        <time>2015-12-13T13:00:43Z</time>
      </trkpt>
      <trkpt lat="50.77545" lon="3.6648">
        <ele>110</ele>
        <time>2015-12-13T13:00:44Z</time>
      </trkpt>
      <trkpt lat="50.77543" lon="3.66482">
        <ele>110</ele>
        <time>2015-12-13T13:00:45Z</time>
      </trkpt>
      <trkpt lat="50.77541" lon="3.66485">
        <ele>110</ele>
        <time>2015-12-13T13:00:46Z</time>
      </trkpt>
      <trkpt lat="50.77539" lon="3.66487">
        <ele>110</ele>
        <time>2015-12-13T13:00:47Z</time>
      </trkpt>
      <trkpt lat="50.77538" lon="3.6649">
        <ele>110</ele>
        <time>2015-12-13T13:00:48Z</time>
      </trkpt>
      <trkpt lat="50.77535" lon="3.66492">
        <ele>110</ele>
        <time>2015-12-13T13:00:49Z</time>
      </trkpt>
      <trkpt lat="50.77533" lon="3.66494">
        <ele>110</ele>
        <time>2015-12-13T13:00:50Z</time>
      </trkpt>
      <trkpt lat="50.77531" lon="3.66497">
        <ele>110</ele>
        <time>2015-12-13T13:00:51Z</time>
      </trkpt>
      <trkpt lat="50.77529" lon="3.66499">
        <ele>110</ele>
        <time>2015-12-13T13:00:52Z</time>
      </trkpt>
      <trkpt lat="50.77528" lon="3.66502">
        <ele>110</ele>
        <time>2015-12-13T13:00:53Z</time>
      </trkpt>
      <trkpt lat="50.77526" lon="3.66504">
        <ele>110</ele>
        <time>2015-12-13T13:00:54Z</time>
      </trkpt>
      <trkpt lat="50.77524" lon="3.66507">
        <ele>110</ele>
        <time>2015-12-13T13:00:55Z</time>
      </trkpt>
      <trkpt lat="50.77522" lon="3.6651">
        <ele>110</ele>
        <time>2015-12-13T13:00:56Z</time>
      </trkpt>
      <trkpt lat="50.7752" lon="3.66513">
        <ele>110</ele>
        <time>2015-12-13T13:00:57Z</time>
      </trkpt>
      <trkpt lat="50.77518" lon="3.66515">
        <ele>110</ele>
        <time>2015-12-13T13:00:58Z</time>
      </trkpt>
      <trkpt lat="50.77516" lon="3.66518">
        <ele>110</ele>
        <time>2015-12-13T13:00:59Z</time>
      </trkpt>
      <trkpt lat="50.77515" lon="3.66521">
        <ele>110</ele>
        <time>2015-12-13T13:01:00Z</time>
      </trkpt>
      <trkpt lat="50.77513" lon="3.66523">
        <ele>110</ele>
        <time>2015-12-13T13:01:01Z</time>
      </trkpt>
      <trkpt lat="50.77511" lon="3.66526">
        <ele>110</ele>
        <time>2015-12-13T13:01:02Z</time>
      </trkpt>
      <trkpt lat="50.77509" lon="3.66529">
        <ele>110</ele>
        <time>2015-12-13T13:01:03Z</time>
      </trkpt>
      <trkpt lat="50.77507" lon="3.66532">
        <ele>110</ele>
        <time>2015-12-13T13:01:04Z</time>
      </trkpt>
      <trkpt lat="50.77505" lon="3.66534">
        <ele>110</ele>
        <time>2015-12-13T13:01:05Z</time>
      </trkpt>
      <trkpt lat="50.77503" lon="3.66537">
        <ele>110</ele>
        <time>2015-12-13T13:01:06Z</time>
      </trkpt>
      <trkpt lat="50.77502" lon="3.66539">
        <ele>110</ele>
        <time>2015-12-13T13:01:07Z</time>
      </trkpt>
      <trkpt lat="50.775" lon="3.66542">
        <ele>110</ele>
        <time>2015-12-13T13:01:08Z</time>
      </trkpt>
      <trkpt lat="50.77498" lon="3.66545">
        <ele>110</ele>
        <time>2015-12-13T13:01:09Z</time>
      </trkpt>
      <trkpt lat="50.77496" lon="3.66547">
        <ele>110</ele>
        <time>2015-12-13T13:01:10Z</time>
      </trkpt>
      <trkpt lat="50.77494" lon="3.6655">
        <ele>110</ele>
        <time>2015-12-13T13:01:11Z</time>
      </trkpt>
      <trkpt lat="50.77492" lon="3.66553">
        <ele>110</ele>
        <time>2015-12-13T13:01:12Z</time>
      </trkpt>
      <trkpt lat="50.7749" lon="3.66555">
        <ele>110</ele>
        <time>2015-12-13T13:01:13Z</time>
      </trkpt>
      <trkpt lat="50.77489" lon="3.66557">
        <ele>110</ele>
        <time>2015-12-13T13:01:14Z</time>
      </trkpt>
      <trkpt lat="50.77487" lon="3.6656">
        <ele>110</ele>
        <time>2015-12-13T13:01:15Z</time>
      </trkpt>
      <trkpt lat="50.77486" lon="3.66562">
        <ele>110</ele>
        <time>2015-12-13T13:01:16Z</time>
      </trkpt>
      <trkpt lat="50.77484" lon="3.66565">
        <ele>110</ele>
        <time>2015-12-13T13:01:17Z</time>
      </trkpt>
      <trkpt lat="50.77483" lon="3.66568">
        <ele>110</ele>
        <time>2015-12-13T13:01:18Z</time>
      </trkpt>
      <trkpt lat="50.77481" lon="3.66571">
        <ele>110</ele>
        <time>2015-12-13T13:01:19Z</time>
      </trkpt>
      <trkpt lat="50.7748" lon="3.66573">
        <ele>110</ele>
        <time>2015-12-13T13:01:20Z</time>
      </trkpt>
      <trkpt lat="50.77478" lon="3.66576">
        <ele>110</ele>
        <time>2015-12-13T13:01:21Z</time>
      </trkpt>
      <trkpt lat="50.77476" lon="3.66578">
        <ele>110</ele>
        <time>2015-12-13T13:01:22Z</time>
      </trkpt>
      <trkpt lat="50.77474" lon="3.6658">
        <ele>110</ele>
        <time>2015-12-13T13:01:23Z</time>
      </trkpt>
      <trkpt lat="50.77472" lon="3.66582">
        <ele>110</ele>
        <time>2015-12-13T13:01:24Z</time>
      </trkpt>
      <trkpt lat="50.7747" lon="3.66584">
        <ele>110</ele>
        <time>2015-12-13T13:01:25Z</time>
      </trkpt>
      <trkpt lat="50.77468" lon="3.66586">
        <ele>110</ele>
        <time>2015-12-13T13:01:26Z</time>
      </trkpt>
      <trkpt lat="50.77465" lon="3.66587">
        <ele>110</ele>
        <time>2015-12-13T13:01:27Z</time>
      </trkpt>
      <trkpt lat="50.77463" lon="3.66589">
        <ele>110</ele>
        <time>2015-12-13T13:01:28Z</time>
      </trkpt>
      <trkpt lat="50.77461" lon="3.66591">
        <ele>110</ele>
        <time>2015-12-13T13:01:29Z</time>
      </trkpt>
      <trkpt lat="50.77458" lon="3.66592">
        <ele>110</ele>
        <time>2015-12-13T13:01:30Z</time>
      </trkpt>
      <trkpt lat="50.77456" lon="3.66594">
        <ele>110</ele>
        <time>2015-12-13T13:01:31Z</time>
      </trkpt>
      <trkpt lat="50.77454" lon="3.66595">
        <ele>110</ele>
        <time>2015-12-13T13:01:32Z</time>
      </trkpt>
      <trkpt lat="50.77451" lon="3.66597">
        <ele>110</ele>
        <time>2015-12-13T13:01:33Z</time>
      </trkpt>
      <trkpt lat="50.77449" lon="3.66599">
        <ele>110</ele>
        <time>2015-12-13T13:01:34Z</time>
      </trkpt>
      <trkpt lat="50.77446" lon="3.666">
        <ele>110</ele>
        <time>2015-12-13T13:01:35Z</time>
      </trkpt>
      <trkpt lat="50.77444" lon="3.66602">
        <ele>110</ele>
        <time>2015-12-13T13:01:36Z</time>
      </trkpt>
      <trkpt lat="50.77442" lon="3.66603">
        <ele>110</ele>
        <time>2015-12-13T13:01:37Z</time>
      </trkpt>
      <trkpt lat="50.7744" lon="3.66605">
        <ele>110</ele>
        <time>2015-12-13T13:01:38Z</time>
      </trkpt>
      <trkpt lat="50.77437" lon="3.66607">
        <ele>110</ele>
        <time>2015-12-13T13:01:39Z</time>
      </trkpt>
      <trkpt lat="50.77435" lon="3.66608">
        <ele>110</ele>
        <time>2015-12-13T13:01:40Z</time>
      </trkpt>
      <trkpt lat="50.77433" lon="3.6661">
        <ele>110</ele>
        <time>2015-12-13T13:01:41Z</time>
      </trkpt>
      <trkpt lat="50.77431" lon="3.66612">
        <ele>110</ele>
        <time>2015-12-13T13:01:42Z</time>
      </trkpt>
      <trkpt lat="50.77428" lon="3.66613">
        <ele>110</ele>
        <time>2015-12-13T13:01:43Z</time>
      </trkpt>
      <trkpt lat="50.77426" lon="3.66615">
        <ele>110</ele>
        <time>2015-12-13T13:01:44Z</time>
      </trkpt>
      <trkpt lat="50.77423" lon="3.66617">
        <ele>110</ele>
        <time>2015-12-13T13:01:45Z</time>
      </trkpt>
      <trkpt lat="50.77421" lon="3.66619">
        <ele>110</ele>
        <time>2015-12-13T13:01:46Z</time>
      </trkpt>
      <trkpt lat="50.77419" lon="3.66621">
        <ele>110</ele>
        <time>2015-12-13T13:01:47Z</time>
      </trkpt>
      <trkpt lat="50.77417" lon="3.66623">
        <ele>110</ele>
        <time>2015-12-13T13:01:48Z</time>
      </trkpt>
      <trkpt lat="50.77414" lon="3.66625">
        <ele>110</ele>
        <time>2015-12-13T13:01:49Z</time>
      </trkpt>
      <trkpt lat="50.77412" lon="3.66627">
        <ele>110</ele>
        <time>2015-12-13T13:01:50Z</time>
      </trkpt>
      <trkpt lat="50.7741" lon="3.66628">
        <ele>110</ele>
        <time>2015-12-13T13:01:51Z</time>
      </trkpt>
      <trkpt lat="50.77408" lon="3.6663">
        <ele>110</ele>
        <time>2015-12-13T13:01:52Z</time>
      </trkpt>
      <trkpt lat="50.77406" lon="3.66632">
        <ele>110</ele>
        <time>2015-12-13T13:01:53Z</time>
      </trkpt>
      <trkpt lat="50.77404" lon="3.66634">
        <ele>110</ele>
        <time>2015-12-13T13:01:54Z</time>
      </trkpt>
      <trkpt lat="50.77402" lon="3.66636">
        <ele>110</ele>
        <time>2015-12-13T13:01:55Z</time>
      </trkpt>
      <trkpt lat="50.774" lon="3.66638">
        <ele>110</ele>
        <time>2015-12-13T13:01:56Z</time>
      </trkpt>
      <trkpt lat="50.77398" lon="3.6664">
        <ele>110</ele>
        <time>2015-12-13T13:01:57Z</time>
      </trkpt>
      <trkpt lat="50.77396" lon="3.66642">
        <ele>110</ele>
        <time>2015-12-13T13:01:58Z</time>
      </trkpt>
      <trkpt lat="50.77394" lon="3.66645">
        <ele>110</ele>
        <time>2015-12-13T13:01:59Z</time>
      </trkpt>
      <trkpt lat="50.77392" lon="3.66647">
        <ele>110</ele>
        <time>2015-12-13T13:02:00Z</time>
      </trkpt>
      <trkpt lat="50.7739" lon="3.6665">
        <ele>110</ele>
        <time>2015-12-13T13:02:01Z</time>
      </trkpt>
      <trkpt lat="50.77388" lon="3.66653">
        <ele>110</ele>
        <time>2015-12-13T13:02:02Z</time>
      </trkpt>
      <trkpt lat="50.77386" lon="3.66655">
        <ele>110</ele>
        <time>2015-12-13T13:02:03Z</time>
      </trkpt>
      <trkpt lat="50.77384" lon="3.66657">
        <ele>110</ele>
        <time>2015-12-13T13:02:04Z</time>
      </trkpt>
      <trkpt lat="50.77381" lon="3.6666">
        <ele>110</ele>
        <time>2015-12-13T13:02:05Z</time>
      </trkpt>
      <trkpt lat="50.77379" lon="3.66662">
        <ele>110</ele>
        <time>2015-12-13T13:02:06Z</time>
      </trkpt>
      <trkpt lat="50.77377" lon="3.66665">
        <ele>110</ele>
        <time>2015-12-13T13:02:07Z</time>
      </trkpt>
      <trkpt lat="50.77375" lon="3.66668">
        <ele>110</ele>
        <time>2015-12-13T13:02:08Z</time>
      </trkpt>
      <trkpt lat="50.77373" lon="3.6667">
        <ele>110</ele>
        <time>2015-12-13T13:02:09Z</time>
      </trkpt>
      <trkpt lat="50.77371" lon="3.66672">
        <ele>110</ele>
        <time>2015-12-13T13:02:10Z</time>
      </trkpt>
      <trkpt lat="50.77369" lon="3.66675">
        <ele>110.7</ele>
        <time>2015-12-13T13:02:11Z</time>
      </trkpt>
      <trkpt lat="50.77367" lon="3.66678">
        <ele>111</ele>
        <time>2015-12-13T13:02:12Z</time>
      </trkpt>
      <trkpt lat="50.77366" lon="3.6668">
        <ele>111</ele>
        <time>2015-12-13T13:02:13Z</time>
      </trkpt>
      <trkpt lat="50.77364" lon="3.66683">
        <ele>111</ele>
        <time>2015-12-13T13:02:14Z</time>
      </trkpt>
      <trkpt lat="50.77362" lon="3.66686">
        <ele>111</ele>
        <time>2015-12-13T13:02:15Z</time>
      </trkpt>
      <trkpt lat="50.7736" lon="3.66689">
        <ele>111</ele>
        <time>2015-12-13T13:02:16Z</time>
      </trkpt>
      <trkpt lat="50.77358" lon="3.66691">
        <ele>111</ele>
        <time>2015-12-13T13:02:17Z</time>
      </trkpt>
      <trkpt lat="50.77356" lon="3.66694">
        <ele>111</ele>
        <time>2015-12-13T13:02:18Z</time>
      </trkpt>
      <trkpt lat="50.77354" lon="3.66697">
        <ele>111</ele>
        <time>2015-12-13T13:02:19Z</time>
      </trkpt>
      <trkpt lat="50.77352" lon="3.667">
        <ele>111</ele>
        <time>2015-12-13T13:02:20Z</time>
      </trkpt>
      <trkpt lat="50.7735" lon="3.66703">
        <ele>111.7</ele>
        <time>2015-12-13T13:02:21Z</time>
      </trkpt>
      <trkpt lat="50.77347" lon="3.66706">
        <ele>112</ele>
        <time>2015-12-13T13:02:22Z</time>
      </trkpt>
      <trkpt lat="50.77345" lon="3.6671">
        <ele>112</ele>
        <time>2015-12-13T13:02:23Z</time>
      </trkpt>
      <trkpt lat="50.77343" lon="3.66712">
        <ele>112</ele>
        <time>2015-12-13T13:02:24Z</time>
      </trkpt>
      <trkpt lat="50.77342" lon="3.66715">
        <ele>112</ele>
        <time>2015-12-13T13:02:25Z</time>
      </trkpt>
      <trkpt lat="50.7734" lon="3.66718">
        <ele>112</ele>
        <time>2015-12-13T13:02:26Z</time>
      </trkpt>
      <trkpt lat="50.77339" lon="3.66721">
        <ele>112</ele>
        <time>2015-12-13T13:02:27Z</time>
      </trkpt>
      <trkpt lat="50.77337" lon="3.66724">
        <ele>112</ele>
        <time>2015-12-13T13:02:28Z</time>
      </trkpt>
      <trkpt lat="50.77335" lon="3.66727">
        <ele>112</ele>
        <time>2015-12-13T13:02:29Z</time>
      </trkpt>
      <trkpt lat="50.77333" lon="3.6673">
        <ele>112</ele>
        <time>2015-12-13T13:02:30Z</time>
      </trkpt>
      <trkpt lat="50.77332" lon="3.66733">
        <ele>112.7</ele>
        <time>2015-12-13T13:02:31Z</time>
      </trkpt>
      <trkpt lat="50.7733" lon="3.66736">
        <ele>113</ele>
        <time>2015-12-13T13:02:32Z</time>
      </trkpt>
      <trkpt lat="50.77328" lon="3.66739">
        <ele>113</ele>
        <time>2015-12-13T13:02:33Z</time>
      </trkpt>
      <trkpt lat="50.77326" lon="3.66742">
        <ele>113</ele>
        <time>2015-12-13T13:02:34Z</time>
      </trkpt>
      <trkpt lat="50.77324" lon="3.66745">
        <ele>113</ele>
        <time>2015-12-13T13:02:35Z</time>
      </trkpt>
      <trkpt lat="50.77323" lon="3.66748">
        <ele>113</ele>
        <time>2015-12-13T13:02:36Z</time>
      </trkpt>
      <trkpt lat="50.77321" lon="3.66752">
        <ele>113</ele>
        <time>2015-12-13T13:02:37Z</time>
      </trkpt>
      <trkpt lat="50.7732" lon="3.66755">
        <ele>113</ele>
        <time>2015-12-13T13:02:38Z</time>
      </trkpt>
      <trkpt lat="50.77318" lon="3.66758">
        <ele>113</ele>
        <time>2015-12-13T13:02:39Z</time>
      </trkpt>
      <trkpt lat="50.77316" lon="3.66762">
        <ele>113</ele>
        <time>2015-12-13T13:02:40Z</time>
      </trkpt>
      <trkpt lat="50.77314" lon="3.66765">
        <ele>113.7</ele>
        <time>2015-12-13T13:02:41Z</time>
      </trkpt>
      <trkpt lat="50.77313" lon="3.66769">
        <ele>114</ele>
        <time>2015-12-13T13:02:42Z</time>
      </trkpt>
      <trkpt lat="50.77311" lon="3.66772">
        <ele>114</ele>
        <time>2015-12-13T13:02:43Z</time>
      </trkpt>
      <trkpt lat="50.7731" lon="3.66775">
        <ele>114</ele>
        <time>2015-12-13T13:02:44Z</time>
      </trkpt>
      <trkpt lat="50.77308" lon="3.66778">
        <ele>114</ele>
        <time>2015-12-13T13:02:45Z</time>
      </trkpt>
      <trkpt lat="50.77306" lon="3.66781">
        <ele>114</ele>
        <time>2015-12-13T13:02:46Z</time>
      </trkpt>
      <trkpt lat="50.77305" lon="3.66785">
        <ele>114</ele>
        <time>2015-12-13T13:02:47Z</time>
      </trkpt>
      <trkpt lat="50.77303" lon="3.66788">
        <ele>114</ele>
        <time>2015-12-13T13:02:48Z</time>
      </trkpt>
      <trkpt lat="50.77302" lon="3.66791">
        <ele>114</ele>
        <time>2015-12-13T13:02:49Z</time>
      </trkpt>
      <trkpt lat="50.773" lon="3.66794">
        <ele>114</ele>
        <time>2015-12-13T13:02:50Z</time>
      </trkpt>
      <trkpt lat="50.77298" lon="3.66797">
        <ele>114.7</ele>
        <time>2015-12-13T13:02:51Z</time>
      </trkpt>
      <trkpt lat="50.77297" lon="3.66801">
        <ele>115</ele>
        <time>2015-12-13T13:02:52Z</time>
      </trkpt>
      <trkpt lat="50.77295" lon="3.66804">
        <ele>115</ele>
        <time>2015-12-13T13:02:53Z</time>
      </trkpt>
      <trkpt lat="50.77294" lon="3.66807">
        <ele>115</ele>
        <time>2015-12-13T13:02:54Z</time>
      </trkpt>
      <trkpt lat="50.77292" lon="3.6681">
        <ele>115</ele>
        <time>2015-12-13T13:02:55Z</time>
      </trkpt>
      <trkpt lat="50.77291" lon="3.66813">
        <ele>115</ele>
        <time>2015-12-13T13:02:56Z</time>
      </trkpt>
      <trkpt lat="50.77289" lon="3.66816">
        <ele>115</ele>
        <time>2015-12-13T13:02:57Z</time>
      </trkpt>
      <trkpt lat="50.77288" lon="3.6682">
        <ele>115</ele>
        <time>2015-12-13T13:02:58Z</time>
      </trkpt>
      <trkpt lat="50.77286" lon="3.66823">
        <ele>115</ele>
        <time>2015-12-13T13:02:59Z</time>
      </trkpt>
      <trkpt lat="50.77285" lon="3.66826">
        <ele>115</ele>
        <time>2015-12-13T13:03:00Z</time>
      </trkpt>
      <trkpt lat="50.77283" lon="3.66829">
        <ele>115.7</ele>
        <time>2015-12-13T13:03:01Z</time>
      </trkpt>
      <trkpt lat="50.77282" lon="3.66833">
        <ele>116</ele>
        <time>2015-12-13T13:03:02Z</time>
      </trkpt>
      <trkpt lat="50.77281" lon="3.66836">
        <ele>116</ele>
        <time>2015-12-13T13:03:03Z</time>
      </trkpt>
      <trkpt lat="50.77279" lon="3.66839">
        <ele>116</ele>
        <time>2015-12-13T13:03:04Z</time>
      </trkpt>
      <trkpt lat="50.77277" lon="3.66842">
        <ele>116</ele>
        <time>2015-12-13T13:03:05Z</time>
      </trkpt>
      <trkpt lat="50.77276" lon="3.66846">
        <ele>116</ele>
        <time>2015-12-13T13:03:06Z</time>
      </trkpt>
      <trkpt lat="50.77275" lon="3.66849">
        <ele>116</ele>
        <time>2015-12-13T13:03:07Z</time>
      </trkpt>
      <trkpt lat="50.77273" lon="3.66852">
        <ele>116</ele>
        <time>2015-12-13T13:03:08Z</time>
      </trkpt>
      <trkpt lat="50.77272" lon="3.66855">
        <ele>116</ele>
        <time>2015-12-13T13:03:09Z</time>
      </trkpt>
      <trkpt lat="50.77271" lon="3.66859">
        <ele>116</ele>
        <time>2015-12-13T13:03:10Z</time>
      </trkpt>
      <trkpt lat="50.77269" lon="3.66862">
        <ele>116.7</ele>
        <time>2015-12-13T13:03:11Z</time>
      </trkpt>
      <trkpt lat="50.77268" lon="3.66866">
        <ele>117</ele>
        <time>2015-12-13T13:03:12Z</time>
      </trkpt>
      <trkpt lat="50.77266" lon="3.66869">
        <ele>117</ele>
        <time>2015-12-13T13:03:13Z</time>
      </trkpt>
      <trkpt lat="50.77264" lon="3.66873">
        <ele>117</ele>
        <time>2015-12-13T13:03:14Z</time>
      </trkpt>
      <trkpt lat="50.77263" lon="3.66876">
        <ele>117</ele>
        <time>2015-12-13T13:03:15Z</time>
      </trkpt>
      <trkpt lat="50.77261" lon="3.66879">
        <ele>117</ele>
        <time>2015-12-13T13:03:16Z</time>
      </trkpt>
      <trkpt lat="50.77259" lon="3.66883">
        <ele>117</ele>
        <time>2015-12-13T13:03:17Z</time>
      </trkpt>
      <trkpt lat="50.77258" lon="3.66886">
        <ele>117</ele>
        <time>2015-12-13T13:03:18Z</time>
      </trkpt>
      <trkpt lat="50.77256" lon="3.66889">
        <ele>117</ele>
        <time>2015-12-13T13:03:19Z</time>
      </trkpt>
      <trkpt lat="50.77253" lon="3.66893">
        <ele>117</ele>
        <time>2015-12-13T13:03:20Z</time>
      </trkpt>
      <trkpt lat="50.77251" lon="3.66896">
        <ele>117</ele>
        <time>2015-12-13T13:03:21Z</time>
      </trkpt>
      <trkpt lat="50.7725" lon="3.66899">
        <ele>117</ele>
        <time>2015-12-13T13:03:22Z</time>
      </trkpt>
      <trkpt lat="50.77248" lon="3.66903">
        <ele>117</ele>
        <time>2015-12-13T13:03:23Z</time>
      </trkpt>
      <trkpt lat="50.77246" lon="3.66906">
        <ele>117</ele>
        <time>2015-12-13T13:03:24Z</time>
      </trkpt>
      <trkpt lat="50.77245" lon="3.6691">
        <ele>117</ele>
        <time>2015-12-13T13:03:25Z</time>
      </trkpt>
      <trkpt lat="50.77243" lon="3.66913">
        <ele>117</ele>
        <time>2015-12-13T13:03:26Z</time>
      </trkpt>
      <trkpt lat="50.77241" lon="3.66916">
        <ele>117</ele>
        <time>2015-12-13T13:03:27Z</time>
      </trkpt>
      <trkpt lat="50.7724" lon="3.66919">
        <ele>117</ele>
        <time>2015-12-13T13:03:28Z</time>
      </trkpt>
      <trkpt lat="50.77238" lon="3.66922">
        <ele>117</ele>
        <time>2015-12-13T13:03:29Z</time>
      </trkpt>
      <trkpt lat="50.77236" lon="3.66925">
        <ele>117</ele>
        <time>2015-12-13T13:03:30Z</time>
      </trkpt>
      <trkpt lat="50.77235" lon="3.66929">
        <ele>116.5</ele>
        <time>2015-12-13T13:03:31Z</time>
      </trkpt>
      <trkpt lat="50.77233" lon="3.66932">
        <ele>116</ele>
        <time>2015-12-13T13:03:32Z</time>
      </trkpt>
      <trkpt lat="50.77231" lon="3.66935">
        <ele>116</ele>
        <time>2015-12-13T13:03:33Z</time>
      </trkpt>
      <trkpt lat="50.77229" lon="3.66939">
        <ele>116</ele>
        <time>2015-12-13T13:03:34Z</time>
      </trkpt>
      <trkpt lat="50.77228" lon="3.66942">
        <ele>116</ele>
        <time>2015-12-13T13:03:35Z</time>
      </trkpt>
      <trkpt lat="50.77226" lon="3.66945">
        <ele>116</ele>
        <time>2015-12-13T13:03:36Z</time>
      </trkpt>
      <trkpt lat="50.77225" lon="3.66948">
        <ele>116</ele>
        <time>2015-12-13T13:03:37Z</time>
      </trkpt>
      <trkpt lat="50.77223" lon="3.66952">
        <ele>116</ele>
        <time>2015-12-13T13:03:38Z</time>
      </trkpt>
      <trkpt lat="50.77222" lon="3.66955">
        <ele>116</ele>
        <time>2015-12-13T13:03:39Z</time>
      </trkpt>
      <trkpt lat="50.7722" lon="3.66958">
        <ele>116</ele>
        <time>2015-12-13T13:03:40Z</time>
      </trkpt>
      <trkpt lat="50.77218" lon="3.66962">
        <ele>116</ele>
        <time>2015-12-13T13:03:41Z</time>
      </trkpt>
      <trkpt lat="50.77217" lon="3.66965">
        <ele>116</ele>
        <time>2015-12-13T13:03:42Z</time>
      </trkpt>
      <trkpt lat="50.77216" lon="3.66969">
        <ele>116</ele>
        <time>2015-12-13T13:03:43Z</time>
      </trkpt>
      <trkpt lat="50.77214" lon="3.66972">
        <ele>116</ele>
        <time>2015-12-13T13:03:44Z</time>
      </trkpt>
      <trkpt lat="50.77212" lon="3.66976">
        <ele>116</ele>
        <time>2015-12-13T13:03:45Z</time>
      </trkpt>
      <trkpt lat="50.7721" lon="3.66979">
        <ele>116</ele>
        <time>2015-12-13T13:03:46Z</time>
      </trkpt>
      <trkpt lat="50.77208" lon="3.66983">
        <ele>116</ele>
        <time>2015-12-13T13:03:47Z</time>
      </trkpt>
      <trkpt lat="50.77207" lon="3.66986">
        <ele>116</ele>
        <time>2015-12-13T13:03:48Z</time>
      </trkpt>
      <trkpt lat="50.77205" lon="3.66989">
        <ele>116</ele>
        <time>2015-12-13T13:03:49Z</time>
      </trkpt>
      <trkpt lat="50.77203" lon="3.66992">
        <ele>116</ele>
        <time>2015-12-13T13:03:50Z</time>
      </trkpt>
      <trkpt lat="50.77201" lon="3.66995">
        <ele>116</ele>
        <time>2015-12-13T13:03:51Z</time>
      </trkpt>
      <trkpt lat="50.77199" lon="3.66997">
        <ele>116</ele>
        <time>2015-12-13T13:03:52Z</time>
      </trkpt>
      <trkpt lat="50.77197" lon="3.67">
        <ele>116</ele>
        <time>2015-12-13T13:03:53Z</time>
      </trkpt>
      <trkpt lat="50.77196" lon="3.67002">
        <ele>116</ele>
        <time>2015-12-13T13:03:54Z</time>
      </trkpt>
      <trkpt lat="50.77194" lon="3.67004">
        <ele>116</ele>
        <time>2015-12-13T13:03:55Z</time>
      </trkpt>
      <trkpt lat="50.77192" lon="3.67006">
        <ele>116</ele>
        <time>2015-12-13T13:03:56Z</time>
      </trkpt>
      <trkpt lat="50.7719" lon="3.67009">
        <ele>116</ele>
        <time>2015-12-13T13:03:57Z</time>
      </trkpt>
      <trkpt lat="50.77188" lon="3.67011">
        <ele>116</ele>
        <time>2015-12-13T13:03:58Z</time>
      </trkpt>
      <trkpt lat="50.77186" lon="3.67014">
        <ele>116</ele>
        <time>2015-12-13T13:03:59Z</time>
      </trkpt>
      <trkpt lat="50.77184" lon="3.67016">
        <ele>116</ele>
        <time>2015-12-13T13:04:00Z</time>
      </trkpt>
      <trkpt lat="50.77183" lon="3.67019">
        <ele>116.7</ele>
        <time>2015-12-13T13:04:01Z</time>
      </trkpt>
      <trkpt lat="50.77181" lon="3.67022">
        <ele>117</ele>
        <time>2015-12-13T13:04:02Z</time>
      </trkpt>
      <trkpt lat="50.77179" lon="3.67025">
        <ele>117</ele>
        <time>2015-12-13T13:04:03Z</time>
      </trkpt>
      <trkpt lat="50.77178" lon="3.67028">
        <ele>117</ele>
        <time>2015-12-13T13:04:04Z</time>
      </trkpt>
      <trkpt lat="50.77176" lon="3.67031">
        <ele>117</ele>
        <time>2015-12-13T13:04:05Z</time>
      </trkpt>
      <trkpt lat="50.77174" lon="3.67034">
        <ele>117</ele>
        <time>2015-12-13T13:04:06Z</time>
      </trkpt>
      <trkpt lat="50.77172" lon="3.67036">
        <ele>117</ele>
        <time>2015-12-13T13:04:07Z</time>
      </trkpt>
      <trkpt lat="50.7717" lon="3.67039">
        <ele>117</ele>
        <time>2015-12-13T13:04:08Z</time>
      </trkpt>
      <trkpt lat="50.77168" lon="3.67041">
        <ele>117</ele>
        <time>2015-12-13T13:04:09Z</time>
      </trkpt>
      <trkpt lat="50.77165" lon="3.67044">
        <ele>117</ele>
        <time>2015-12-13T13:04:10Z</time>
      </trkpt>
      <trkpt lat="50.77163" lon="3.67046">
        <ele>117</ele>
        <time>2015-12-13T13:04:11Z</time>
      </trkpt>
      <trkpt lat="50.77161" lon="3.67049">
        <ele>117</ele>
        <time>2015-12-13T13:04:12Z</time>
      </trkpt>
      <trkpt lat="50.77158" lon="3.67051">
        <ele>117</ele>
        <time>2015-12-13T13:04:13Z</time>
      </trkpt>
      <trkpt lat="50.77156" lon="3.67054">
        <ele>117</ele>
        <time>2015-12-13T13:04:14Z</time>
      </trkpt>
      <trkpt lat="50.77154" lon="3.67055">
        <ele>117</ele>
        <time>2015-12-13T13:04:15Z</time>
      </trkpt>
      <trkpt lat="50.77152" lon="3.67053">
        <ele>117</ele>
        <time>2015-12-13T13:04:17Z</time>
      </trkpt>
      <trkpt lat="50.77151" lon="3.67051">
        <ele>117</ele>
        <time>2015-12-13T13:04:18Z</time>
      </trkpt>
      <trkpt lat="50.7715" lon="3.67047">
        <ele>117</ele>
        <time>2015-12-13T13:04:19Z</time>
      </trkpt>
      <trkpt lat="50.77148" lon="3.67044">
        <ele>117</ele>
        <time>2015-12-13T13:04:20Z</time>
      </trkpt>
      <trkpt lat="50.77146" lon="3.67041">
        <ele>117.7</ele>
        <time>2015-12-13T13:04:21Z</time>
      </trkpt>
      <trkpt lat="50.77145" lon="3.67039">
        <ele>118</ele>
        <time>2015-12-13T13:04:22Z</time>
      </trkpt>
      <trkpt lat="50.77143" lon="3.67036">
        <ele>118</ele>
        <time>2015-12-13T13:04:23Z</time>
      </trkpt>
      <trkpt lat="50.77141" lon="3.67033">
        <ele>118</ele>
        <time>2015-12-13T13:04:24Z</time>
      </trkpt>
      <trkpt lat="50.77139" lon="3.6703">
        <ele>118</ele>
        <time>2015-12-13T13:04:25Z</time>
      </trkpt>
      <trkpt lat="50.77138" lon="3.67027">
        <ele>118</ele>
        <time>2015-12-13T13:04:26Z</time>
      </trkpt>
      <trkpt lat="50.77135" lon="3.67024">
        <ele>118</ele>
        <time>2015-12-13T13:04:27Z</time>
      </trkpt>
      <trkpt lat="50.77134" lon="3.67022">
        <ele>118</ele>
        <time>2015-12-13T13:04:28Z</time>
      </trkpt>
      <trkpt lat="50.77132" lon="3.67019">
        <ele>118</ele>
        <time>2015-12-13T13:04:29Z</time>
      </trkpt>
      <trkpt lat="50.7713" lon="3.67015">
        <ele>118</ele>
        <time>2015-12-13T13:04:30Z</time>
      </trkpt>
      <trkpt lat="50.77129" lon="3.67012">
        <ele>118</ele>
        <time>2015-12-13T13:04:31Z</time>
      </trkpt>
      <trkpt lat="50.77127" lon="3.67009">
        <ele>118</ele>
        <time>2015-12-13T13:04:32Z</time>
      </trkpt>
      <trkpt lat="50.77125" lon="3.67007">
        <ele>118</ele>
        <time>2015-12-13T13:04:33Z</time>
      </trkpt>
      <trkpt lat="50.77123" lon="3.67004">
        <ele>118</ele>
        <time>2015-12-13T13:04:34Z</time>
      </trkpt>
      <trkpt lat="50.77121" lon="3.67002">
        <ele>118</ele>
        <time>2015-12-13T13:04:35Z</time>
      </trkpt>
      <trkpt lat="50.77119" lon="3.66999">
        <ele>118</ele>
        <time>2015-12-13T13:04:36Z</time>
      </trkpt>
      <trkpt lat="50.77117" lon="3.66996">
        <ele>118</ele>
        <time>2015-12-13T13:04:37Z</time>
      </trkpt>
      <trkpt lat="50.77116" lon="3.66993">
        <ele>118</ele>
        <time>2015-12-13T13:04:38Z</time>
      </trkpt>
      <trkpt lat="50.77113" lon="3.66991">
        <ele>118</ele>
        <time>2015-12-13T13:04:39Z</time>
      </trkpt>
      <trkpt lat="50.77111" lon="3.66988">
        <ele>118</ele>
        <time>2015-12-13T13:04:40Z</time>
      </trkpt>
      <trkpt lat="50.7711" lon="3.66986">
        <ele>120.1</ele>
        <time>2015-12-13T13:04:41Z</time>
      </trkpt>
      <trkpt lat="50.77108" lon="3.66983">
        <ele>122</ele>
        <time>2015-12-13T13:04:42Z</time>
      </trkpt>
      <trkpt lat="50.77106" lon="3.66981">
        <ele>122</ele>
        <time>2015-12-13T13:04:43Z</time>
      </trkpt>
      <trkpt lat="50.77104" lon="3.66978">
        <ele>122</ele>
        <time>2015-12-13T13:04:44Z</time>
      </trkpt>
      <trkpt lat="50.77102" lon="3.66976">
        <ele>122</ele>
        <time>2015-12-13T13:04:45Z</time>
      </trkpt>
      <trkpt lat="50.771" lon="3.66974">
        <ele>122</ele>
        <time>2015-12-13T13:04:46Z</time>
      </trkpt>
      <trkpt lat="50.77099" lon="3.66972">
        <ele>122</ele>
        <time>2015-12-13T13:04:47Z</time>
      </trkpt>
      <trkpt lat="50.77097" lon="3.6697">
        <ele>122</ele>
        <time>2015-12-13T13:04:48Z</time>
      </trkpt>
      <trkpt lat="50.77095" lon="3.66967">
        <ele>122</ele>
        <time>2015-12-13T13:04:49Z</time>
      </trkpt>
      <trkpt lat="50.77093" lon="3.66965">
        <ele>122</ele>
        <time>2015-12-13T13:04:50Z</time>
      </trkpt>
      <trkpt lat="50.77091" lon="3.66962">
        <ele>122</ele>
        <time>2015-12-13T13:04:51Z</time>
      </trkpt>
      <trkpt lat="50.77089" lon="3.66959">
        <ele>122</ele>
        <time>2015-12-13T13:04:52Z</time>
      </trkpt>
      <trkpt lat="50.77087" lon="3.66956">
        <ele>122</ele>
        <time>2015-12-13T13:04:53Z</time>
      </trkpt>
      <trkpt lat="50.77085" lon="3.66954">
        <ele>122</ele>
        <time>2015-12-13T13:04:54Z</time>
      </trkpt>
      <trkpt lat="50.77083" lon="3.66952">
        <ele>122</ele>
        <time>2015-12-13T13:04:55Z</time>
      </trkpt>
      <trkpt lat="50.77082" lon="3.66949">
        <ele>122</ele>
        <time>2015-12-13T13:04:56Z</time>
      </trkpt>
      <trkpt lat="50.7708" lon="3.66945">
        <ele>122</ele>
        <time>2015-12-13T13:04:58Z</time>
      </trkpt>
      <trkpt lat="50.77081" lon="3.66942">
        <ele>122</ele>
        <time>2015-12-13T13:04:59Z</time>
      </trkpt>
      <trkpt lat="50.77081" lon="3.66937">
        <ele>122</ele>
        <time>2015-12-13T13:05:01Z</time>
      </trkpt>
      <trkpt lat="50.77081" lon="3.66934">
        <ele>122</ele>
        <time>2015-12-13T13:05:02Z</time>
      </trkpt>
      <trkpt lat="50.77081" lon="3.6693">
        <ele>122</ele>
        <time>2015-12-13T13:05:03Z</time>
      </trkpt>
      <trkpt lat="50.77082" lon="3.66927">
        <ele>122</ele>
        <time>2015-12-13T13:05:04Z</time>
      </trkpt>
      <trkpt lat="50.77082" lon="3.66922">
        <ele>122</ele>
        <time>2015-12-13T13:05:06Z</time>
      </trkpt>
      <trkpt lat="50.7708" lon="3.66919">
        <ele>122</ele>
        <time>2015-12-13T13:05:07Z</time>
      </trkpt>
      <trkpt lat="50.77079" lon="3.66917">
        <ele>122</ele>
        <time>2015-12-13T13:05:08Z</time>
      </trkpt>
      <trkpt lat="50.77077" lon="3.66914">
        <ele>122</ele>
        <time>2015-12-13T13:05:09Z</time>
      </trkpt>
      <trkpt lat="50.77075" lon="3.66912">
        <ele>122</ele>
        <time>2015-12-13T13:05:10Z</time>
      </trkpt>
      <trkpt lat="50.77074" lon="3.66909">
        <ele>122</ele>
        <time>2015-12-13T13:05:11Z</time>
      </trkpt>
      <trkpt lat="50.77072" lon="3.66907">
        <ele>122</ele>
        <time>2015-12-13T13:05:12Z</time>
      </trkpt>
      <trkpt lat="50.7707" lon="3.66904">
        <ele>122</ele>
        <time>2015-12-13T13:05:13Z</time>
      </trkpt>
      <trkpt lat="50.77069" lon="3.66902">
        <ele>122</ele>
        <time>2015-12-13T13:05:14Z</time>
      </trkpt>
      <trkpt lat="50.77067" lon="3.669">
        <ele>122</ele>
        <time>2015-12-13T13:05:15Z</time>
      </trkpt>
      <trkpt lat="50.77066" lon="3.66897">
        <ele>122</ele>
        <time>2015-12-13T13:05:16Z</time>
      </trkpt>
      <trkpt lat="50.77064" lon="3.66894">
        <ele>122</ele>
        <time>2015-12-13T13:05:17Z</time>
      </trkpt>
      <trkpt lat="50.77063" lon="3.66892">
        <ele>122</ele>
        <time>2015-12-13T13:05:18Z</time>
      </trkpt>
      <trkpt lat="50.77061" lon="3.66889">
        <ele>122</ele>
        <time>2015-12-13T13:05:19Z</time>
      </trkpt>
      <trkpt lat="50.77059" lon="3.66887">
        <ele>122</ele>
        <time>2015-12-13T13:05:20Z</time>
      </trkpt>
      <trkpt lat="50.77057" lon="3.66884">
        <ele>122</ele>
        <time>2015-12-13T13:05:21Z</time>
      </trkpt>
      <trkpt lat="50.77054" lon="3.66881">
        <ele>122</ele>
        <time>2015-12-13T13:05:22Z</time>
      </trkpt>
      <trkpt lat="50.77052" lon="3.66879">
        <ele>122</ele>
        <time>2015-12-13T13:05:23Z</time>
      </trkpt>
      <trkpt lat="50.77049" lon="3.66877">
        <ele>122</ele>
        <time>2015-12-13T13:05:24Z</time>
      </trkpt>
      <trkpt lat="50.77047" lon="3.66875">
        <ele>122</ele>
        <time>2015-12-13T13:05:25Z</time>
      </trkpt>
      <trkpt lat="50.77045" lon="3.66872">
        <ele>122</ele>
        <time>2015-12-13T13:05:26Z</time>
      </trkpt>
      <trkpt lat="50.77043" lon="3.66868">
        <ele>122</ele>
        <time>2015-12-13T13:05:27Z</time>
      </trkpt>
      <trkpt lat="50.77042" lon="3.66865">
        <ele>122</ele>
        <time>2015-12-13T13:05:28Z</time>
      </trkpt>
      <trkpt lat="50.77042" lon="3.66859">
        <ele>122</ele>
        <time>2015-12-13T13:05:30Z</time>
      </trkpt>
      <trkpt lat="50.77042" lon="3.66855">
        <ele>119.3</ele>
        <time>2015-12-13T13:05:31Z</time>
      </trkpt>
      <trkpt lat="50.77043" lon="3.66852">
        <ele>118</ele>
        <time>2015-12-13T13:05:32Z</time>
      </trkpt>
      <trkpt lat="50.77043" lon="3.66848">
        <ele>118</ele>
        <time>2015-12-13T13:05:33Z</time>
      </trkpt>
      <trkpt lat="50.77043" lon="3.66845">
        <ele>118</ele>
        <time>2015-12-13T13:05:34Z</time>
      </trkpt>
      <trkpt lat="50.77044" lon="3.66841">
        <ele>118</ele>
        <time>2015-12-13T13:05:35Z</time>
      </trkpt>
      <trkpt lat="50.77044" lon="3.66838">
        <ele>118</ele>
        <time>2015-12-13T13:05:36Z</time>
      </trkpt>
      <trkpt lat="50.77045" lon="3.66835">
        <ele>118</ele>
        <time>2015-12-13T13:05:37Z</time>
      </trkpt>
      <trkpt lat="50.77045" lon="3.6683">
        <ele>118</ele>
        <time>2015-12-13T13:05:38Z</time>
      </trkpt>
      <trkpt lat="50.77046" lon="3.66826">
        <ele>118</ele>
        <time>2015-12-13T13:05:39Z</time>
      </trkpt>
      <trkpt lat="50.77047" lon="3.66822">
        <ele>118</ele>
        <time>2015-12-13T13:05:40Z</time>
      </trkpt>
      <trkpt lat="50.77047" lon="3.66817">
        <ele>117.3</ele>
        <time>2015-12-13T13:05:41Z</time>
      </trkpt>
      <trkpt lat="50.77048" lon="3.66813">
        <ele>117</ele>
        <time>2015-12-13T13:05:42Z</time>
      </trkpt>
      <trkpt lat="50.7705" lon="3.6681">
        <ele>117</ele>
        <time>2015-12-13T13:05:43Z</time>
      </trkpt>
      <trkpt lat="50.77051" lon="3.66805">
        <ele>117</ele>
        <time>2015-12-13T13:05:44Z</time>
      </trkpt>
      <trkpt lat="50.77052" lon="3.66801">
        <ele>117</ele>
        <time>2015-12-13T13:05:45Z</time>
      </trkpt>
      <trkpt lat="50.77052" lon="3.66797">
        <ele>117</ele>
        <time>2015-12-13T13:05:46Z</time>
      </trkpt>
      <trkpt lat="50.77053" lon="3.66793">
        <ele>117</ele>
        <time>2015-12-13T13:05:47Z</time>
      </trkpt>
      <trkpt lat="50.77055" lon="3.66789">
        <ele>117</ele>
        <time>2015-12-13T13:05:48Z</time>
      </trkpt>
      <trkpt lat="50.77056" lon="3.66784">
        <ele>117</ele>
        <time>2015-12-13T13:05:49Z</time>
      </trkpt>
      <trkpt lat="50.77057" lon="3.6678">
        <ele>117</ele>
        <time>2015-12-13T13:05:50Z</time>
      </trkpt>
      <trkpt lat="50.77058" lon="3.66777">
        <ele>117</ele>
        <time>2015-12-13T13:05:51Z</time>
      </trkpt>
      <trkpt lat="50.77059" lon="3.66774">
        <ele>117</ele>
        <time>2015-12-13T13:05:52Z</time>
      </trkpt>
      <trkpt lat="50.7706" lon="3.6677">
        <ele>117</ele>
        <time>2015-12-13T13:05:53Z</time>
      </trkpt>
      <trkpt lat="50.77061" lon="3.66766">
        <ele>117</ele>
        <time>2015-12-13T13:05:54Z</time>
      </trkpt>
      <trkpt lat="50.77062" lon="3.66762">
        <ele>117</ele>
        <time>2015-12-13T13:05:55Z</time>
      </trkpt>
      <trkpt lat="50.77064" lon="3.66759">
        <ele>117</ele>
        <time>2015-12-13T13:05:56Z</time>
      </trkpt>
      <trkpt lat="50.77065" lon="3.66755">
        <ele>117</ele>
        <time>2015-12-13T13:05:57Z</time>
      </trkpt>
      <trkpt lat="50.77066" lon="3.66751">
        <ele>117</ele>
        <time>2015-12-13T13:05:58Z</time>
      </trkpt>
      <trkpt lat="50.77067" lon="3.66747">
        <ele>117</ele>
        <time>2015-12-13T13:05:59Z</time>
      </trkpt>
      <trkpt lat="50.77069" lon="3.66744">
        <ele>117</ele>
        <time>2015-12-13T13:06:00Z</time>
      </trkpt>
      <trkpt lat="50.7707" lon="3.66741">
        <ele>116.3</ele>
        <time>2015-12-13T13:06:01Z</time>
      </trkpt>
      <trkpt lat="50.77071" lon="3.66737">
        <ele>116</ele>
        <time>2015-12-13T13:06:02Z</time>
      </trkpt>
      <trkpt lat="50.77072" lon="3.66734">
        <ele>116</ele>
        <time>2015-12-13T13:06:03Z</time>
      </trkpt>
      <trkpt lat="50.77073" lon="3.6673">
        <ele>116</ele>
        <time>2015-12-13T13:06:04Z</time>
      </trkpt>
      <trkpt lat="50.77073" lon="3.66727">
        <ele>116</ele>
        <time>2015-12-13T13:06:05Z</time>
      </trkpt>
      <trkpt lat="50.77074" lon="3.66723">
        <ele>116</ele>
        <time>2015-12-13T13:06:06Z</time>
      </trkpt>
      <trkpt lat="50.77075" lon="3.6672">
        <ele>116</ele>
        <time>2015-12-13T13:06:07Z</time>
      </trkpt>
      <trkpt lat="50.77076" lon="3.66717">
        <ele>116</ele>
        <time>2015-12-13T13:06:08Z</time>
      </trkpt>
      <trkpt lat="50.77077" lon="3.66714">
        <ele>116</ele>
        <time>2015-12-13T13:06:09Z</time>
      </trkpt>
      <trkpt lat="50.77078" lon="3.6671">
        <ele>116</ele>
        <time>2015-12-13T13:06:10Z</time>
      </trkpt>
      <trkpt lat="50.77079" lon="3.66707">
        <ele>116</ele>
        <time>2015-12-13T13:06:11Z</time>
      </trkpt>
      <trkpt lat="50.7708" lon="3.66704">
        <ele>116</ele>
        <time>2015-12-13T13:06:12Z</time>
      </trkpt>
      <trkpt lat="50.7708" lon="3.66701">
        <ele>116</ele>
        <time>2015-12-13T13:06:13Z</time>
      </trkpt>
      <trkpt lat="50.77081" lon="3.66698">
        <ele>116</ele>
        <time>2015-12-13T13:06:14Z</time>
      </trkpt>
      <trkpt lat="50.77082" lon="3.66695">
        <ele>116</ele>
        <time>2015-12-13T13:06:15Z</time>
      </trkpt>
      <trkpt lat="50.77083" lon="3.66691">
        <ele>116</ele>
        <time>2015-12-13T13:06:16Z</time>
      </trkpt>
      <trkpt lat="50.77085" lon="3.66688">
        <ele>116</ele>
        <time>2015-12-13T13:06:17Z</time>
      </trkpt>
      <trkpt lat="50.77086" lon="3.66686">
        <ele>116</ele>
        <time>2015-12-13T13:06:18Z</time>
      </trkpt>
      <trkpt lat="50.77088" lon="3.66681">
        <ele>116</ele>
        <time>2015-12-13T13:06:20Z</time>
      </trkpt>
      <trkpt lat="50.77088" lon="3.66678">
        <ele>116</ele>
        <time>2015-12-13T13:06:21Z</time>
      </trkpt>
      <trkpt lat="50.77089" lon="3.66674">
        <ele>116</ele>
        <time>2015-12-13T13:06:22Z</time>
      </trkpt>
      <trkpt lat="50.7709" lon="3.6667">
        <ele>116</ele>
        <time>2015-12-13T13:06:23Z</time>
      </trkpt>
      <trkpt lat="50.77091" lon="3.66666">
        <ele>116</ele>
        <time>2015-12-13T13:06:24Z</time>
      </trkpt>
      <trkpt lat="50.77092" lon="3.66662">
        <ele>116</ele>
        <time>2015-12-13T13:06:25Z</time>
      </trkpt>
      <trkpt lat="50.77093" lon="3.66659">
        <ele>116</ele>
        <time>2015-12-13T13:06:26Z</time>
      </trkpt>
      <trkpt lat="50.77094" lon="3.66655">
        <ele>116</ele>
        <time>2015-12-13T13:06:27Z</time>
      </trkpt>
      <trkpt lat="50.77095" lon="3.66651">
        <ele>116</ele>
        <time>2015-12-13T13:06:28Z</time>
      </trkpt>
      <trkpt lat="50.77097" lon="3.66647">
        <ele>116</ele>
        <time>2015-12-13T13:06:29Z</time>
      </trkpt>
      <trkpt lat="50.77098" lon="3.66644">
        <ele>116</ele>
        <time>2015-12-13T13:06:30Z</time>
      </trkpt>
      <trkpt lat="50.77099" lon="3.6664">
        <ele>115.3</ele>
        <time>2015-12-13T13:06:31Z</time>
      </trkpt>
      <trkpt lat="50.77101" lon="3.66636">
        <ele>115</ele>
        <time>2015-12-13T13:06:32Z</time>
      </trkpt>
      <trkpt lat="50.77102" lon="3.66632">
        <ele>115</ele>
        <time>2015-12-13T13:06:33Z</time>
      </trkpt>
      <trkpt lat="50.77102" lon="3.66627">
        <ele>115</ele>
        <time>2015-12-13T13:06:34Z</time>
      </trkpt>
      <trkpt lat="50.77103" lon="3.66624">
        <ele>115</ele>
        <time>2015-12-13T13:06:35Z</time>
      </trkpt>
      <trkpt lat="50.77104" lon="3.66621">
        <ele>115</ele>
        <time>2015-12-13T13:06:36Z</time>
      </trkpt>
      <trkpt lat="50.77105" lon="3.66617">
        <ele>115</ele>
        <time>2015-12-13T13:06:37Z</time>
      </trkpt>
      <trkpt lat="50.77106" lon="3.66613">
        <ele>115</ele>
        <time>2015-12-13T13:06:38Z</time>
      </trkpt>
      <trkpt lat="50.77107" lon="3.6661">
        <ele>115</ele>
        <time>2015-12-13T13:06:39Z</time>
      </trkpt>
      <trkpt lat="50.77108" lon="3.66607">
        <ele>115</ele>
        <time>2015-12-13T13:06:40Z</time>
      </trkpt>
      <trkpt lat="50.77109" lon="3.66604">
        <ele>115</ele>
        <time>2015-12-13T13:06:41Z</time>
      </trkpt>
      <trkpt lat="50.77111" lon="3.66601">
        <ele>115</ele>
        <time>2015-12-13T13:06:42Z</time>
      </trkpt>
      <trkpt lat="50.77112" lon="3.66597">
        <ele>115</ele>
        <time>2015-12-13T13:06:43Z</time>
      </trkpt>
      <trkpt lat="50.77113" lon="3.66593">
        <ele>115</ele>
        <time>2015-12-13T13:06:44Z</time>
      </trkpt>
      <trkpt lat="50.77114" lon="3.6659">
        <ele>115</ele>
        <time>2015-12-13T13:06:45Z</time>
      </trkpt>
      <trkpt lat="50.77115" lon="3.66586">
        <ele>115</ele>
        <time>2015-12-13T13:06:46Z</time>
      </trkpt>
      <trkpt lat="50.77116" lon="3.66582">
        <ele>115</ele>
        <time>2015-12-13T13:06:47Z</time>
      </trkpt>
      <trkpt lat="50.77117" lon="3.66579">
        <ele>115</ele>
        <time>2015-12-13T13:06:48Z</time>
      </trkpt>
      <trkpt lat="50.77118" lon="3.66575">
        <ele>115</ele>
        <time>2015-12-13T13:06:49Z</time>
      </trkpt>
      <trkpt lat="50.77119" lon="3.66571">
        <ele>115</ele>
        <time>2015-12-13T13:06:50Z</time>
      </trkpt>
      <trkpt lat="50.7712" lon="3.66567">
        <ele>115</ele>
        <time>2015-12-13T13:06:51Z</time>
      </trkpt>
      <trkpt lat="50.77121" lon="3.66564">
        <ele>115</ele>
        <time>2015-12-13T13:06:52Z</time>
      </trkpt>
      <trkpt lat="50.77121" lon="3.6656">
        <ele>115</ele>
        <time>2015-12-13T13:06:53Z</time>
      </trkpt>
      <trkpt lat="50.77122" lon="3.66556">
        <ele>115</ele>
        <time>2015-12-13T13:06:54Z</time>
      </trkpt>
      <trkpt lat="50.77123" lon="3.66553">
        <ele>115</ele>
        <time>2015-12-13T13:06:55Z</time>
      </trkpt>
      <trkpt lat="50.77124" lon="3.6655">
        <ele>115</ele>
        <time>2015-12-13T13:06:56Z</time>
      </trkpt>
      <trkpt lat="50.77124" lon="3.66546">
        <ele>115</ele>
        <time>2015-12-13T13:06:57Z</time>
      </trkpt>
      <trkpt lat="50.77125" lon="3.66543">
        <ele>115</ele>
        <time>2015-12-13T13:06:58Z</time>
      </trkpt>
      <trkpt lat="50.77126" lon="3.6654">
        <ele>115</ele>
        <time>2015-12-13T13:06:59Z</time>
      </trkpt>
      <trkpt lat="50.77126" lon="3.66537">
        <ele>115</ele>
        <time>2015-12-13T13:07:00Z</time>
      </trkpt>
      <trkpt lat="50.77127" lon="3.66533">
        <ele>115</ele>
        <time>2015-12-13T13:07:01Z</time>
      </trkpt>
      <trkpt lat="50.77128" lon="3.6653">
        <ele>115</ele>
        <time>2015-12-13T13:07:02Z</time>
      </trkpt>
      <trkpt lat="50.77129" lon="3.66526">
        <ele>115</ele>
        <time>2015-12-13T13:07:03Z</time>
      </trkpt>
      <trkpt lat="50.7713" lon="3.66522">
        <ele>115</ele>
        <time>2015-12-13T13:07:04Z</time>
      </trkpt>
      <trkpt lat="50.77131" lon="3.66519">
        <ele>115</ele>
        <time>2015-12-13T13:07:05Z</time>
      </trkpt>
      <trkpt lat="50.77132" lon="3.66515">
        <ele>115</ele>
        <time>2015-12-13T13:07:06Z</time>
      </trkpt>
      <trkpt lat="50.77134" lon="3.66512">
        <ele>115</ele>
        <time>2015-12-13T13:07:07Z</time>
      </trkpt>
      <trkpt lat="50.77135" lon="3.66508">
        <ele>115</ele>
        <time>2015-12-13T13:07:08Z</time>
      </trkpt>
      <trkpt lat="50.77136" lon="3.66505">
        <ele>115</ele>
        <time>2015-12-13T13:07:09Z</time>
      </trkpt>
      <trkpt lat="50.77136" lon="3.66502">
        <ele>115</ele>
        <time>2015-12-13T13:07:10Z</time>
      </trkpt>
      <trkpt lat="50.77137" lon="3.66498">
        <ele>115</ele>
        <time>2015-12-13T13:07:11Z</time>
      </trkpt>
      <trkpt lat="50.77138" lon="3.66494">
        <ele>115</ele>
        <time>2015-12-13T13:07:12Z</time>
      </trkpt>
      <trkpt lat="50.77138" lon="3.6649">
        <ele>115</ele>
        <time>2015-12-13T13:07:13Z</time>
      </trkpt>
      <trkpt lat="50.77137" lon="3.66486">
        <ele>115</ele>
        <time>2015-12-13T13:07:14Z</time>
      </trkpt>
      <trkpt lat="50.77135" lon="3.66482">
        <ele>115</ele>
        <time>2015-12-13T13:07:15Z</time>
      </trkpt>
      <trkpt lat="50.77134" lon="3.66479">
        <ele>115</ele>
        <time>2015-12-13T13:07:16Z</time>
      </trkpt>
      <trkpt lat="50.77132" lon="3.66476">
        <ele>115</ele>
        <time>2015-12-13T13:07:17Z</time>
      </trkpt>
      <trkpt lat="50.7713" lon="3.66473">
        <ele>115</ele>
        <time>2015-12-13T13:07:18Z</time>
      </trkpt>
      <trkpt lat="50.77129" lon="3.6647">
        <ele>115</ele>
        <time>2015-12-13T13:07:19Z</time>
      </trkpt>
      <trkpt lat="50.77127" lon="3.66467">
        <ele>115</ele>
        <time>2015-12-13T13:07:20Z</time>
      </trkpt>
      <trkpt lat="50.77125" lon="3.66464">
        <ele>115</ele>
        <time>2015-12-13T13:07:21Z</time>
      </trkpt>
      <trkpt lat="50.77124" lon="3.6646">
        <ele>115</ele>
        <time>2015-12-13T13:07:22Z</time>
      </trkpt>
      <trkpt lat="50.77122" lon="3.66457">
        <ele>115</ele>
        <time>2015-12-13T13:07:23Z</time>
      </trkpt>
      <trkpt lat="50.77121" lon="3.66454">
        <ele>115</ele>
        <time>2015-12-13T13:07:24Z</time>
      </trkpt>
      <trkpt lat="50.77119" lon="3.66451">
        <ele>115</ele>
        <time>2015-12-13T13:07:25Z</time>
      </trkpt>
      <trkpt lat="50.77118" lon="3.66448">
        <ele>115</ele>
        <time>2015-12-13T13:07:26Z</time>
      </trkpt>
      <trkpt lat="50.77116" lon="3.66446">
        <ele>115</ele>
        <time>2015-12-13T13:07:27Z</time>
      </trkpt>
      <trkpt lat="50.77115" lon="3.66443">
        <ele>115</ele>
        <time>2015-12-13T13:07:28Z</time>
      </trkpt>
      <trkpt lat="50.77113" lon="3.66441">
        <ele>115</ele>
        <time>2015-12-13T13:07:29Z</time>
      </trkpt>
      <trkpt lat="50.77112" lon="3.66437">
        <ele>115</ele>
        <time>2015-12-13T13:07:30Z</time>
      </trkpt>
      <trkpt lat="50.7711" lon="3.66434">
        <ele>115</ele>
        <time>2015-12-13T13:07:31Z</time>
      </trkpt>
      <trkpt lat="50.77109" lon="3.66431">
        <ele>115</ele>
        <time>2015-12-13T13:07:32Z</time>
      </trkpt>
      <trkpt lat="50.77108" lon="3.66428">
        <ele>115</ele>
        <time>2015-12-13T13:07:33Z</time>
      </trkpt>
      <trkpt lat="50.77106" lon="3.66425">
        <ele>115</ele>
        <time>2015-12-13T13:07:34Z</time>
      </trkpt>
      <trkpt lat="50.77105" lon="3.66422">
        <ele>115</ele>
        <time>2015-12-13T13:07:35Z</time>
      </trkpt>
      <trkpt lat="50.77104" lon="3.66419">
        <ele>115</ele>
        <time>2015-12-13T13:07:36Z</time>
      </trkpt>
      <trkpt lat="50.77102" lon="3.66417">
        <ele>115</ele>
        <time>2015-12-13T13:07:37Z</time>
      </trkpt>
      <trkpt lat="50.77101" lon="3.66414">
        <ele>115</ele>
        <time>2015-12-13T13:07:38Z</time>
      </trkpt>
      <trkpt lat="50.77099" lon="3.66411">
        <ele>115</ele>
        <time>2015-12-13T13:07:39Z</time>
      </trkpt>
      <trkpt lat="50.77098" lon="3.66408">
        <ele>115</ele>
        <time>2015-12-13T13:07:40Z</time>
      </trkpt>
      <trkpt lat="50.77096" lon="3.66406">
        <ele>115</ele>
        <time>2015-12-13T13:07:41Z</time>
      </trkpt>
      <trkpt lat="50.77094" lon="3.66403">
        <ele>115</ele>
        <time>2015-12-13T13:07:42Z</time>
      </trkpt>
      <trkpt lat="50.77093" lon="3.664">
        <ele>115</ele>
        <time>2015-12-13T13:07:43Z</time>
      </trkpt>
      <trkpt lat="50.77091" lon="3.66397">
        <ele>115</ele>
        <time>2015-12-13T13:07:44Z</time>
      </trkpt>
      <trkpt lat="50.7709" lon="3.66394">
        <ele>115</ele>
        <time>2015-12-13T13:07:45Z</time>
      </trkpt>
      <trkpt lat="50.77088" lon="3.66391">
        <ele>115</ele>
        <time>2015-12-13T13:07:46Z</time>
      </trkpt>
      <trkpt lat="50.77087" lon="3.66388">
        <ele>115</ele>
        <time>2015-12-13T13:07:47Z</time>
      </trkpt>
      <trkpt lat="50.77085" lon="3.66385">
        <ele>115</ele>
        <time>2015-12-13T13:07:48Z</time>
      </trkpt>
      <trkpt lat="50.77084" lon="3.66382">
        <ele>115</ele>
        <time>2015-12-13T13:07:49Z</time>
      </trkpt>
      <trkpt lat="50.77082" lon="3.66379">
        <ele>115</ele>
        <time>2015-12-13T13:07:50Z</time>
      </trkpt>
      <trkpt lat="50.77081" lon="3.66376">
        <ele>115</ele>
        <time>2015-12-13T13:07:51Z</time>
      </trkpt>
      <trkpt lat="50.77079" lon="3.66373">
        <ele>115</ele>
        <time>2015-12-13T13:07:52Z</time>
      </trkpt>
      <trkpt lat="50.77078" lon="3.6637">
        <ele>115</ele>
        <time>2015-12-13T13:07:53Z</time>
      </trkpt>
      <trkpt lat="50.77076" lon="3.66367">
        <ele>115</ele>
        <time>2015-12-13T13:07:54Z</time>
      </trkpt>
      <trkpt lat="50.77075" lon="3.66364">
        <ele>115</ele>
        <time>2015-12-13T13:07:55Z</time>
      </trkpt>
      <trkpt lat="50.77073" lon="3.66361">
        <ele>115</ele>
        <time>2015-12-13T13:07:56Z</time>
      </trkpt>
      <trkpt lat="50.77072" lon="3.66358">
        <ele>115</ele>
        <time>2015-12-13T13:07:57Z</time>
      </trkpt>
      <trkpt lat="50.7707" lon="3.66355">
        <ele>115</ele>
        <time>2015-12-13T13:07:58Z</time>
      </trkpt>
      <trkpt lat="50.77069" lon="3.66352">
        <ele>115</ele>
        <time>2015-12-13T13:07:59Z</time>
      </trkpt>
      <trkpt lat="50.77067" lon="3.66348">
        <ele>115</ele>
        <time>2015-12-13T13:08:00Z</time>
      </trkpt>
      <trkpt lat="50.77066" lon="3.66345">
        <ele>115</ele>
        <time>2015-12-13T13:08:01Z</time>
      </trkpt>
      <trkpt lat="50.77064" lon="3.66342">
        <ele>114.3</ele>
        <time>2015-12-13T13:08:02Z</time>
      </trkpt>
      <trkpt lat="50.77063" lon="3.66339">
        <ele>114</ele>
        <time>2015-12-13T13:08:03Z</time>
      </trkpt>
      <trkpt lat="50.77061" lon="3.66336">
        <ele>114</ele>
        <time>2015-12-13T13:08:04Z</time>
      </trkpt>
      <trkpt lat="50.7706" lon="3.66332">
        <ele>114</ele>
        <time>2015-12-13T13:08:05Z</time>
      </trkpt>
      <trkpt lat="50.77059" lon="3.66329">
        <ele>114</ele>
        <time>2015-12-13T13:08:06Z</time>
      </trkpt>
      <trkpt lat="50.77057" lon="3.66326">
        <ele>114</ele>
        <time>2015-12-13T13:08:07Z</time>
      </trkpt>
      <trkpt lat="50.77056" lon="3.66323">
        <ele>114</ele>
        <time>2015-12-13T13:08:08Z</time>
      </trkpt>
      <trkpt lat="50.77055" lon="3.6632">
        <ele>114</ele>
        <time>2015-12-13T13:08:09Z</time>
      </trkpt>
      <trkpt lat="50.77054" lon="3.66317">
        <ele>114</ele>
        <time>2015-12-13T13:08:10Z</time>
      </trkpt>
      <trkpt lat="50.77052" lon="3.66314">
        <ele>114</ele>
        <time>2015-12-13T13:08:12Z</time>
      </trkpt>
      <trkpt lat="50.77052" lon="3.6631">
        <ele>114</ele>
        <time>2015-12-13T13:08:14Z</time>
      </trkpt>
      <trkpt lat="50.77051" lon="3.66306">
        <ele>114</ele>
        <time>2015-12-13T13:08:16Z</time>
      </trkpt>
      <trkpt lat="50.77049" lon="3.66303">
        <ele>114</ele>
        <time>2015-12-13T13:08:18Z</time>
      </trkpt>
      <trkpt lat="50.77048" lon="3.663">
        <ele>114</ele>
        <time>2015-12-13T13:08:20Z</time>
      </trkpt>
      <trkpt lat="50.77046" lon="3.66297">
        <ele>113.3</ele>
        <time>2015-12-13T13:08:22Z</time>
      </trkpt>
      <trkpt lat="50.77045" lon="3.66293">
        <ele>113</ele>
        <time>2015-12-13T13:08:24Z</time>
      </trkpt>
      <trkpt lat="50.77043" lon="3.6629">
        <ele>113</ele>
        <time>2015-12-13T13:08:26Z</time>
      </trkpt>
      <trkpt lat="50.77042" lon="3.66286">
        <ele>113</ele>
        <time>2015-12-13T13:08:28Z</time>
      </trkpt>
      <trkpt lat="50.7704" lon="3.66282">
        <ele>113</ele>
        <time>2015-12-13T13:08:30Z</time>
      </trkpt>
      <trkpt lat="50.77038" lon="3.66279">
        <ele>112.3</ele>
        <time>2015-12-13T13:08:32Z</time>
      </trkpt>
      <trkpt lat="50.77037" lon="3.66274">
        <ele>112</ele>
        <time>2015-12-13T13:08:34Z</time>
      </trkpt>
      <trkpt lat="50.77035" lon="3.66272">
        <ele>112</ele>
        <time>2015-12-13T13:08:36Z</time>
      </trkpt>
      <trkpt lat="50.77034" lon="3.66269">
        <ele>112</ele>
        <time>2015-12-13T13:08:37Z</time>
      </trkpt>
      <trkpt lat="50.77033" lon="3.66266">
        <ele>112</ele>
        <time>2015-12-13T13:08:38Z</time>
      </trkpt>
      <trkpt lat="50.77032" lon="3.66263">
        <ele>112</ele>
        <time>2015-12-13T13:08:39Z</time>
      </trkpt>
      <trkpt lat="50.7703" lon="3.66261">
        <ele>112</ele>
        <time>2015-12-13T13:08:40Z</time>
      </trkpt>
      <trkpt lat="50.77029" lon="3.66258">
        <ele>112</ele>
        <time>2015-12-13T13:08:41Z</time>
      </trkpt>
      <trkpt lat="50.77027" lon="3.66254">
        <ele>110.6</ele>
        <time>2015-12-13T13:08:42Z</time>
      </trkpt>
      <trkpt lat="50.77026" lon="3.66251">
        <ele>110</ele>
        <time>2015-12-13T13:08:43Z</time>
      </trkpt>
      <trkpt lat="50.77024" lon="3.66247">
        <ele>110</ele>
        <time>2015-12-13T13:08:44Z</time>
      </trkpt>
      <trkpt lat="50.77022" lon="3.66244">
        <ele>110</ele>
        <time>2015-12-13T13:08:45Z</time>
      </trkpt>
      <trkpt lat="50.77021" lon="3.6624">
        <ele>110</ele>
        <time>2015-12-13T13:08:46Z</time>
      </trkpt>
      <trkpt lat="50.7702" lon="3.66237">
        <ele>110</ele>
        <time>2015-12-13T13:08:47Z</time>
      </trkpt>
      <trkpt lat="50.77018" lon="3.66234">
        <ele>110</ele>
        <time>2015-12-13T13:08:48Z</time>
      </trkpt>
      <trkpt lat="50.77016" lon="3.6623">
        <ele>110</ele>
        <time>2015-12-13T13:08:49Z</time>
      </trkpt>
      <trkpt lat="50.77015" lon="3.66227">
        <ele>110</ele>
        <time>2015-12-13T13:08:50Z</time>
      </trkpt>
      <trkpt lat="50.77013" lon="3.66224">
        <ele>110</ele>
        <time>2015-12-13T13:08:51Z</time>
      </trkpt>
      <trkpt lat="50.77011" lon="3.6622">
        <ele>110</ele>
        <time>2015-12-13T13:08:52Z</time>
      </trkpt>
      <trkpt lat="50.7701" lon="3.66217">
        <ele>110</ele>
        <time>2015-12-13T13:08:53Z</time>
      </trkpt>
      <trkpt lat="50.77008" lon="3.66214">
        <ele>110</ele>
        <time>2015-12-13T13:08:54Z</time>
      </trkpt>
      <trkpt lat="50.77006" lon="3.66211">
        <ele>110</ele>
        <time>2015-12-13T13:08:55Z</time>
      </trkpt>
      <trkpt lat="50.77005" lon="3.66208">
        <ele>110</ele>
        <time>2015-12-13T13:08:56Z</time>
      </trkpt>
      <trkpt lat="50.77003" lon="3.66205">
        <ele>110</ele>
        <time>2015-12-13T13:08:57Z</time>
      </trkpt>
      <trkpt lat="50.77002" lon="3.66202">
        <ele>110</ele>
        <time>2015-12-13T13:08:58Z</time>
      </trkpt>
      <trkpt lat="50.77" lon="3.66198">
        <ele>110</ele>
        <time>2015-12-13T13:08:59Z</time>
      </trkpt>
      <trkpt lat="50.76999" lon="3.66195">
        <ele>110</ele>
        <time>2015-12-13T13:09:00Z</time>
      </trkpt>
      <trkpt lat="50.76997" lon="3.66192">
        <ele>108.6</ele>
        <time>2015-12-13T13:09:01Z</time>
      </trkpt>
      <trkpt lat="50.76996" lon="3.66189">
        <ele>108</ele>
        <time>2015-12-13T13:09:02Z</time>
      </trkpt>
      <trkpt lat="50.76994" lon="3.66186">
        <ele>108</ele>
        <time>2015-12-13T13:09:03Z</time>
      </trkpt>
      <trkpt lat="50.76993" lon="3.66182">
        <ele>108</ele>
        <time>2015-12-13T13:09:04Z</time>
      </trkpt>
      <trkpt lat="50.76991" lon="3.66179">
        <ele>108</ele>
        <time>2015-12-13T13:09:05Z</time>
      </trkpt>
      <trkpt lat="50.7699" lon="3.66176">
        <ele>108</ele>
        <time>2015-12-13T13:09:06Z</time>
      </trkpt>
      <trkpt lat="50.76989" lon="3.66172">
        <ele>108</ele>
        <time>2015-12-13T13:09:07Z</time>
      </trkpt>
      <trkpt lat="50.76987" lon="3.66169">
        <ele>108</ele>
        <time>2015-12-13T13:09:08Z</time>
      </trkpt>
      <trkpt lat="50.76985" lon="3.66166">
        <ele>108</ele>
        <time>2015-12-13T13:09:09Z</time>
      </trkpt>
      <trkpt lat="50.76984" lon="3.66163">
        <ele>108</ele>
        <time>2015-12-13T13:09:10Z</time>
      </trkpt>
      <trkpt lat="50.76982" lon="3.6616">
        <ele>108</ele>
        <time>2015-12-13T13:09:11Z</time>
      </trkpt>
      <trkpt lat="50.76981" lon="3.66156">
        <ele>108</ele>
        <time>2015-12-13T13:09:12Z</time>
      </trkpt>
      <trkpt lat="50.76979" lon="3.66153">
        <ele>108</ele>
        <time>2015-12-13T13:09:13Z</time>
      </trkpt>
      <trkpt lat="50.76978" lon="3.6615">
        <ele>108</ele>
        <time>2015-12-13T13:09:14Z</time>
      </trkpt>
      <trkpt lat="50.76976" lon="3.66147">
        <ele>108</ele>
        <time>2015-12-13T13:09:15Z</time>
      </trkpt>
      <trkpt lat="50.76974" lon="3.66144">
        <ele>108</ele>
        <time>2015-12-13T13:09:16Z</time>
      </trkpt>
      <trkpt lat="50.76973" lon="3.66141">
        <ele>108</ele>
        <time>2015-12-13T13:09:17Z</time>
      </trkpt>
      <trkpt lat="50.76971" lon="3.66138">
        <ele>108</ele>
        <time>2015-12-13T13:09:18Z</time>
      </trkpt>
      <trkpt lat="50.7697" lon="3.66135">
        <ele>108</ele>
        <time>2015-12-13T13:09:19Z</time>
      </trkpt>
      <trkpt lat="50.76968" lon="3.66133">
        <ele>108</ele>
        <time>2015-12-13T13:09:20Z</time>
      </trkpt>
      <trkpt lat="50.76967" lon="3.6613">
        <ele>107.3</ele>
        <time>2015-12-13T13:09:21Z</time>
      </trkpt>
      <trkpt lat="50.76965" lon="3.66127">
        <ele>107</ele>
        <time>2015-12-13T13:09:22Z</time>
      </trkpt>
      <trkpt lat="50.76964" lon="3.66124">
        <ele>107</ele>
        <time>2015-12-13T13:09:23Z</time>
      </trkpt>
      <trkpt lat="50.76962" lon="3.66122">
        <ele>107</ele>
        <time>2015-12-13T13:09:24Z</time>
      </trkpt>
      <trkpt lat="50.76961" lon="3.6612">
        <ele>107</ele>
        <time>2015-12-13T13:09:25Z</time>
      </trkpt>
      <trkpt lat="50.76959" lon="3.66116">
        <ele>107</ele>
        <time>2015-12-13T13:09:26Z</time>
      </trkpt>
      <trkpt lat="50.76958" lon="3.66113">
        <ele>107</ele>
        <time>2015-12-13T13:09:27Z</time>
      </trkpt>
      <trkpt lat="50.76956" lon="3.6611">
        <ele>107</ele>
        <time>2015-12-13T13:09:28Z</time>
      </trkpt>
      <trkpt lat="50.76955" lon="3.66107">
        <ele>107</ele>
        <time>2015-12-13T13:09:29Z</time>
      </trkpt>
      <trkpt lat="50.76953" lon="3.66104">
        <ele>107</ele>
        <time>2015-12-13T13:09:30Z</time>
      </trkpt>
      <trkpt lat="50.76952" lon="3.66101">
        <ele>106.5</ele>
        <time>2015-12-13T13:09:31Z</time>
      </trkpt>
      <trkpt lat="50.7695" lon="3.66098">
        <ele>106</ele>
        <time>2015-12-13T13:09:32Z</time>
      </trkpt>
      <trkpt lat="50.76949" lon="3.66095">
        <ele>106</ele>
        <time>2015-12-13T13:09:33Z</time>
      </trkpt>
      <trkpt lat="50.76947" lon="3.66091">
        <ele>106</ele>
        <time>2015-12-13T13:09:34Z</time>
      </trkpt>
      <trkpt lat="50.76946" lon="3.66088">
        <ele>106</ele>
        <time>2015-12-13T13:09:35Z</time>
      </trkpt>
      <trkpt lat="50.76945" lon="3.66084">
        <ele>106</ele>
        <time>2015-12-13T13:09:36Z</time>
      </trkpt>
      <trkpt lat="50.76943" lon="3.66081">
        <ele>106</ele>
        <time>2015-12-13T13:09:37Z</time>
      </trkpt>
      <trkpt lat="50.76942" lon="3.66078">
        <ele>106</ele>
        <time>2015-12-13T13:09:38Z</time>
      </trkpt>
      <trkpt lat="50.7694" lon="3.66074">
        <ele>106</ele>
        <time>2015-12-13T13:09:39Z</time>
      </trkpt>
      <trkpt lat="50.76939" lon="3.66071">
        <ele>106</ele>
        <time>2015-12-13T13:09:40Z</time>
      </trkpt>
      <trkpt lat="50.76937" lon="3.66068">
        <ele>106</ele>
        <time>2015-12-13T13:09:41Z</time>
      </trkpt>
      <trkpt lat="50.76935" lon="3.66065">
        <ele>106</ele>
        <time>2015-12-13T13:09:42Z</time>
      </trkpt>
      <trkpt lat="50.76934" lon="3.66062">
        <ele>106</ele>
        <time>2015-12-13T13:09:43Z</time>
      </trkpt>
      <trkpt lat="50.76932" lon="3.66058">
        <ele>106</ele>
        <time>2015-12-13T13:09:44Z</time>
      </trkpt>
      <trkpt lat="50.76931" lon="3.66055">
        <ele>106</ele>
        <time>2015-12-13T13:09:45Z</time>
      </trkpt>
      <trkpt lat="50.76929" lon="3.66052">
        <ele>106</ele>
        <time>2015-12-13T13:09:46Z</time>
      </trkpt>
      <trkpt lat="50.76928" lon="3.66049">
        <ele>106</ele>
        <time>2015-12-13T13:09:47Z</time>
      </trkpt>
      <trkpt lat="50.76926" lon="3.66045">
        <ele>106</ele>
        <time>2015-12-13T13:09:48Z</time>
      </trkpt>
      <trkpt lat="50.76924" lon="3.66042">
        <ele>106</ele>
        <time>2015-12-13T13:09:49Z</time>
      </trkpt>
      <trkpt lat="50.76923" lon="3.66039">
        <ele>106</ele>
        <time>2015-12-13T13:09:50Z</time>
      </trkpt>
      <trkpt lat="50.76921" lon="3.66036">
        <ele>106</ele>
        <time>2015-12-13T13:09:51Z</time>
      </trkpt>
      <trkpt lat="50.7692" lon="3.66033">
        <ele>106</ele>
        <time>2015-12-13T13:09:52Z</time>
      </trkpt>
      <trkpt lat="50.76918" lon="3.6603">
        <ele>106</ele>
        <time>2015-12-13T13:09:53Z</time>
      </trkpt>
      <trkpt lat="50.76916" lon="3.66027">
        <ele>106</ele>
        <time>2015-12-13T13:09:54Z</time>
      </trkpt>
      <trkpt lat="50.76914" lon="3.66024">
        <ele>106</ele>
        <time>2015-12-13T13:09:55Z</time>
      </trkpt>
      <trkpt lat="50.76913" lon="3.66021">
        <ele>106</ele>
        <time>2015-12-13T13:09:56Z</time>
      </trkpt>
      <trkpt lat="50.76911" lon="3.66018">
        <ele>106</ele>
        <time>2015-12-13T13:09:57Z</time>
      </trkpt>
      <trkpt lat="50.76909" lon="3.66015">
        <ele>106</ele>
        <time>2015-12-13T13:09:58Z</time>
      </trkpt>
      <trkpt lat="50.76908" lon="3.66012">
        <ele>106</ele>
        <time>2015-12-13T13:09:59Z</time>
      </trkpt>
      <trkpt lat="50.76906" lon="3.66009">
        <ele>106</ele>
        <time>2015-12-13T13:10:00Z</time>
      </trkpt>
      <trkpt lat="50.76905" lon="3.66005">
        <ele>106</ele>
        <time>2015-12-13T13:10:01Z</time>
      </trkpt>
      <trkpt lat="50.76904" lon="3.66001">
        <ele>106</ele>
        <time>2015-12-13T13:10:02Z</time>
      </trkpt>
      <trkpt lat="50.76903" lon="3.65997">
        <ele>106</ele>
        <time>2015-12-13T13:10:03Z</time>
      </trkpt>
      <trkpt lat="50.76901" lon="3.65993">
        <ele>106</ele>
        <time>2015-12-13T13:10:04Z</time>
      </trkpt>
      <trkpt lat="50.769" lon="3.6599">
        <ele>106</ele>
        <time>2015-12-13T13:10:05Z</time>
      </trkpt>
      <trkpt lat="50.76898" lon="3.65987">
        <ele>106</ele>
        <time>2015-12-13T13:10:06Z</time>
      </trkpt>
      <trkpt lat="50.76896" lon="3.65983">
        <ele>106</ele>
        <time>2015-12-13T13:10:07Z</time>
      </trkpt>
      <trkpt lat="50.76895" lon="3.6598">
        <ele>106</ele>
        <time>2015-12-13T13:10:08Z</time>
      </trkpt>
      <trkpt lat="50.76893" lon="3.65977">
        <ele>106</ele>
        <time>2015-12-13T13:10:09Z</time>
      </trkpt>
      <trkpt lat="50.76891" lon="3.65973">
        <ele>106</ele>
        <time>2015-12-13T13:10:10Z</time>
      </trkpt>
      <trkpt lat="50.7689" lon="3.6597">
        <ele>106</ele>
        <time>2015-12-13T13:10:11Z</time>
      </trkpt>
      <trkpt lat="50.76888" lon="3.65967">
        <ele>106</ele>
        <time>2015-12-13T13:10:12Z</time>
      </trkpt>
      <trkpt lat="50.76887" lon="3.65963">
        <ele>106</ele>
        <time>2015-12-13T13:10:13Z</time>
      </trkpt>
      <trkpt lat="50.76885" lon="3.6596">
        <ele>106</ele>
        <time>2015-12-13T13:10:14Z</time>
      </trkpt>
      <trkpt lat="50.76884" lon="3.65957">
        <ele>106</ele>
        <time>2015-12-13T13:10:15Z</time>
      </trkpt>
      <trkpt lat="50.76882" lon="3.65953">
        <ele>106</ele>
        <time>2015-12-13T13:10:16Z</time>
      </trkpt>
      <trkpt lat="50.76881" lon="3.6595">
        <ele>106</ele>
        <time>2015-12-13T13:10:17Z</time>
      </trkpt>
      <trkpt lat="50.76879" lon="3.65946">
        <ele>106</ele>
        <time>2015-12-13T13:10:18Z</time>
      </trkpt>
      <trkpt lat="50.76878" lon="3.65942">
        <ele>106</ele>
        <time>2015-12-13T13:10:19Z</time>
      </trkpt>
      <trkpt lat="50.76876" lon="3.65939">
        <ele>106</ele>
        <time>2015-12-13T13:10:20Z</time>
      </trkpt>
      <trkpt lat="50.76875" lon="3.65936">
        <ele>106</ele>
        <time>2015-12-13T13:10:21Z</time>
      </trkpt>
      <trkpt lat="50.76873" lon="3.65932">
        <ele>106</ele>
        <time>2015-12-13T13:10:22Z</time>
      </trkpt>
      <trkpt lat="50.76871" lon="3.65929">
        <ele>106</ele>
        <time>2015-12-13T13:10:23Z</time>
      </trkpt>
      <trkpt lat="50.7687" lon="3.65925">
        <ele>106</ele>
        <time>2015-12-13T13:10:24Z</time>
      </trkpt>
      <trkpt lat="50.76868" lon="3.65922">
        <ele>106</ele>
        <time>2015-12-13T13:10:25Z</time>
      </trkpt>
      <trkpt lat="50.76866" lon="3.65919">
        <ele>106</ele>
        <time>2015-12-13T13:10:26Z</time>
      </trkpt>
      <trkpt lat="50.76864" lon="3.65916">
        <ele>106</ele>
        <time>2015-12-13T13:10:27Z</time>
      </trkpt>
      <trkpt lat="50.76863" lon="3.65912">
        <ele>106</ele>
        <time>2015-12-13T13:10:28Z</time>
      </trkpt>
      <trkpt lat="50.76861" lon="3.65909">
        <ele>106</ele>
        <time>2015-12-13T13:10:29Z</time>
      </trkpt>
      <trkpt lat="50.76859" lon="3.65906">
        <ele>106</ele>
        <time>2015-12-13T13:10:30Z</time>
      </trkpt>
      <trkpt lat="50.76857" lon="3.65903">
        <ele>105.3</ele>
        <time>2015-12-13T13:10:31Z</time>
      </trkpt>
      <trkpt lat="50.76856" lon="3.65899">
        <ele>105</ele>
        <time>2015-12-13T13:10:32Z</time>
      </trkpt>
      <trkpt lat="50.76854" lon="3.65896">
        <ele>105</ele>
        <time>2015-12-13T13:10:33Z</time>
      </trkpt>
      <trkpt lat="50.76853" lon="3.65893">
        <ele>105</ele>
        <time>2015-12-13T13:10:34Z</time>
      </trkpt>
      <trkpt lat="50.76851" lon="3.6589">
        <ele>105</ele>
        <time>2015-12-13T13:10:35Z</time>
      </trkpt>
      <trkpt lat="50.76849" lon="3.65886">
        <ele>105</ele>
        <time>2015-12-13T13:10:36Z</time>
      </trkpt>
      <trkpt lat="50.76848" lon="3.65883">
        <ele>105</ele>
        <time>2015-12-13T13:10:37Z</time>
      </trkpt>
      <trkpt lat="50.76846" lon="3.6588">
        <ele>105</ele>
        <time>2015-12-13T13:10:38Z</time>
      </trkpt>
      <trkpt lat="50.76844" lon="3.65876">
        <ele>105</ele>
        <time>2015-12-13T13:10:39Z</time>
      </trkpt>
      <trkpt lat="50.76843" lon="3.65873">
        <ele>105</ele>
        <time>2015-12-13T13:10:40Z</time>
      </trkpt>
      <trkpt lat="50.76842" lon="3.65869">
        <ele>105</ele>
        <time>2015-12-13T13:10:41Z</time>
      </trkpt>
      <trkpt lat="50.7684" lon="3.65866">
        <ele>105</ele>
        <time>2015-12-13T13:10:42Z</time>
      </trkpt>
      <trkpt lat="50.76838" lon="3.65863">
        <ele>105</ele>
        <time>2015-12-13T13:10:43Z</time>
      </trkpt>
      <trkpt lat="50.76836" lon="3.65859">
        <ele>105</ele>
        <time>2015-12-13T13:10:44Z</time>
      </trkpt>
      <trkpt lat="50.76834" lon="3.65856">
        <ele>105</ele>
        <time>2015-12-13T13:10:45Z</time>
      </trkpt>
      <trkpt lat="50.76833" lon="3.65852">
        <ele>105</ele>
        <time>2015-12-13T13:10:46Z</time>
      </trkpt>
      <trkpt lat="50.76831" lon="3.65849">
        <ele>105</ele>
        <time>2015-12-13T13:10:47Z</time>
      </trkpt>
      <trkpt lat="50.76829" lon="3.65846">
        <ele>105</ele>
        <time>2015-12-13T13:10:48Z</time>
      </trkpt>
      <trkpt lat="50.76827" lon="3.65842">
        <ele>105</ele>
        <time>2015-12-13T13:10:49Z</time>
      </trkpt>
      <trkpt lat="50.76825" lon="3.65839">
        <ele>105</ele>
        <time>2015-12-13T13:10:50Z</time>
      </trkpt>
      <trkpt lat="50.76823" lon="3.65836">
        <ele>105</ele>
        <time>2015-12-13T13:10:51Z</time>
      </trkpt>
      <trkpt lat="50.76822" lon="3.65833">
        <ele>105</ele>
        <time>2015-12-13T13:10:52Z</time>
      </trkpt>
      <trkpt lat="50.7682" lon="3.65829">
        <ele>105</ele>
        <time>2015-12-13T13:10:53Z</time>
      </trkpt>
      <trkpt lat="50.76818" lon="3.65826">
        <ele>105</ele>
        <time>2015-12-13T13:10:54Z</time>
      </trkpt>
      <trkpt lat="50.76817" lon="3.65822">
        <ele>105</ele>
        <time>2015-12-13T13:10:55Z</time>
      </trkpt>
      <trkpt lat="50.76815" lon="3.65819">
        <ele>105</ele>
        <time>2015-12-13T13:10:56Z</time>
      </trkpt>
      <trkpt lat="50.76814" lon="3.65815">
        <ele>105</ele>
        <time>2015-12-13T13:10:57Z</time>
      </trkpt>
      <trkpt lat="50.76812" lon="3.65812">
        <ele>105</ele>
        <time>2015-12-13T13:10:58Z</time>
      </trkpt>
      <trkpt lat="50.7681" lon="3.65809">
        <ele>105</ele>
        <time>2015-12-13T13:10:59Z</time>
      </trkpt>
      <trkpt lat="50.76809" lon="3.65805">
        <ele>105</ele>
        <time>2015-12-13T13:11:00Z</time>
      </trkpt>
      <trkpt lat="50.76807" lon="3.65802">
        <ele>103.4</ele>
        <time>2015-12-13T13:11:01Z</time>
      </trkpt>
      <trkpt lat="50.76805" lon="3.65798">
        <ele>102</ele>
        <time>2015-12-13T13:11:02Z</time>
      </trkpt>
      <trkpt lat="50.76803" lon="3.65795">
        <ele>102</ele>
        <time>2015-12-13T13:11:03Z</time>
      </trkpt>
      <trkpt lat="50.76802" lon="3.65791">
        <ele>102</ele>
        <time>2015-12-13T13:11:04Z</time>
      </trkpt>
      <trkpt lat="50.768" lon="3.65787">
        <ele>102</ele>
        <time>2015-12-13T13:11:05Z</time>
      </trkpt>
      <trkpt lat="50.76798" lon="3.65784">
        <ele>102</ele>
        <time>2015-12-13T13:11:06Z</time>
      </trkpt>
      <trkpt lat="50.76797" lon="3.65781">
        <ele>102</ele>
        <time>2015-12-13T13:11:07Z</time>
      </trkpt>
      <trkpt lat="50.76795" lon="3.65777">
        <ele>102</ele>
        <time>2015-12-13T13:11:08Z</time>
      </trkpt>
      <trkpt lat="50.76794" lon="3.65774">
        <ele>102</ele>
        <time>2015-12-13T13:11:09Z</time>
      </trkpt>
      <trkpt lat="50.76792" lon="3.6577">
        <ele>102</ele>
        <time>2015-12-13T13:11:10Z</time>
      </trkpt>
      <trkpt lat="50.76791" lon="3.65766">
        <ele>102</ele>
        <time>2015-12-13T13:11:11Z</time>
      </trkpt>
      <trkpt lat="50.76789" lon="3.65762">
        <ele>102</ele>
        <time>2015-12-13T13:11:12Z</time>
      </trkpt>
      <trkpt lat="50.76787" lon="3.65759">
        <ele>102</ele>
        <time>2015-12-13T13:11:13Z</time>
      </trkpt>
      <trkpt lat="50.76785" lon="3.65756">
        <ele>102</ele>
        <time>2015-12-13T13:11:14Z</time>
      </trkpt>
      <trkpt lat="50.76783" lon="3.65752">
        <ele>102</ele>
        <time>2015-12-13T13:11:15Z</time>
      </trkpt>
      <trkpt lat="50.76782" lon="3.65749">
        <ele>102</ele>
        <time>2015-12-13T13:11:16Z</time>
      </trkpt>
      <trkpt lat="50.7678" lon="3.65745">
        <ele>102</ele>
        <time>2015-12-13T13:11:17Z</time>
      </trkpt>
      <trkpt lat="50.76778" lon="3.65742">
        <ele>102</ele>
        <time>2015-12-13T13:11:18Z</time>
      </trkpt>
      <trkpt lat="50.76777" lon="3.65738">
        <ele>102</ele>
        <time>2015-12-13T13:11:19Z</time>
      </trkpt>
      <trkpt lat="50.76775" lon="3.65735">
        <ele>102</ele>
        <time>2015-12-13T13:11:20Z</time>
      </trkpt>
      <trkpt lat="50.76773" lon="3.65731">
        <ele>101.5</ele>
        <time>2015-12-13T13:11:21Z</time>
      </trkpt>
      <trkpt lat="50.76772" lon="3.65728">
        <ele>101</ele>
        <time>2015-12-13T13:11:22Z</time>
      </trkpt>
      <trkpt lat="50.7677" lon="3.65724">
        <ele>101</ele>
        <time>2015-12-13T13:11:23Z</time>
      </trkpt>
      <trkpt lat="50.76769" lon="3.65721">
        <ele>101</ele>
        <time>2015-12-13T13:11:24Z</time>
      </trkpt>
      <trkpt lat="50.76767" lon="3.65718">
        <ele>101</ele>
        <time>2015-12-13T13:11:25Z</time>
      </trkpt>
      <trkpt lat="50.76766" lon="3.65714">
        <ele>101</ele>
        <time>2015-12-13T13:11:26Z</time>
      </trkpt>
      <trkpt lat="50.76764" lon="3.65711">
        <ele>101</ele>
        <time>2015-12-13T13:11:27Z</time>
      </trkpt>
      <trkpt lat="50.76762" lon="3.65707">
        <ele>101</ele>
        <time>2015-12-13T13:11:28Z</time>
      </trkpt>
      <trkpt lat="50.76761" lon="3.65704">
        <ele>101</ele>
        <time>2015-12-13T13:11:29Z</time>
      </trkpt>
      <trkpt lat="50.7676" lon="3.657">
        <ele>101</ele>
        <time>2015-12-13T13:11:30Z</time>
      </trkpt>
      <trkpt lat="50.76758" lon="3.65697">
        <ele>101</ele>
        <time>2015-12-13T13:11:31Z</time>
      </trkpt>
      <trkpt lat="50.76757" lon="3.65694">
        <ele>101</ele>
        <time>2015-12-13T13:11:32Z</time>
      </trkpt>
      <trkpt lat="50.76755" lon="3.6569">
        <ele>101</ele>
        <time>2015-12-13T13:11:33Z</time>
      </trkpt>
      <trkpt lat="50.76754" lon="3.65687">
        <ele>101</ele>
        <time>2015-12-13T13:11:34Z</time>
      </trkpt>
      <trkpt lat="50.76753" lon="3.65684">
        <ele>101</ele>
        <time>2015-12-13T13:11:35Z</time>
      </trkpt>
      <trkpt lat="50.76751" lon="3.65681">
        <ele>101</ele>
        <time>2015-12-13T13:11:36Z</time>
      </trkpt>
      <trkpt lat="50.7675" lon="3.65677">
        <ele>101</ele>
        <time>2015-12-13T13:11:37Z</time>
      </trkpt>
      <trkpt lat="50.76748" lon="3.65674">
        <ele>101</ele>
        <time>2015-12-13T13:11:38Z</time>
      </trkpt>
      <trkpt lat="50.76747" lon="3.65671">
        <ele>101</ele>
        <time>2015-12-13T13:11:39Z</time>
      </trkpt>
      <trkpt lat="50.76745" lon="3.65667">
        <ele>101</ele>
        <time>2015-12-13T13:11:40Z</time>
      </trkpt>
      <trkpt lat="50.76743" lon="3.65664">
        <ele>100.5</ele>
        <time>2015-12-13T13:11:41Z</time>
      </trkpt>
      <trkpt lat="50.76742" lon="3.65661">
        <ele>100</ele>
        <time>2015-12-13T13:11:42Z</time>
      </trkpt>
      <trkpt lat="50.76741" lon="3.65658">
        <ele>100</ele>
        <time>2015-12-13T13:11:43Z</time>
      </trkpt>
      <trkpt lat="50.76739" lon="3.65655">
        <ele>100</ele>
        <time>2015-12-13T13:11:44Z</time>
      </trkpt>
      <trkpt lat="50.76738" lon="3.65651">
        <ele>100</ele>
        <time>2015-12-13T13:11:45Z</time>
      </trkpt>
      <trkpt lat="50.76736" lon="3.65648">
        <ele>100</ele>
        <time>2015-12-13T13:11:46Z</time>
      </trkpt>
      <trkpt lat="50.76735" lon="3.65646">
        <ele>100</ele>
        <time>2015-12-13T13:11:47Z</time>
      </trkpt>
      <trkpt lat="50.76734" lon="3.65643">
        <ele>100</ele>
        <time>2015-12-13T13:11:48Z</time>
      </trkpt>
      <trkpt lat="50.76732" lon="3.6564">
        <ele>100</ele>
        <time>2015-12-13T13:11:49Z</time>
      </trkpt>
      <trkpt lat="50.76731" lon="3.65637">
        <ele>100</ele>
        <time>2015-12-13T13:11:50Z</time>
      </trkpt>
      <trkpt lat="50.7673" lon="3.65634">
        <ele>100</ele>
        <time>2015-12-13T13:11:51Z</time>
      </trkpt>
      <trkpt lat="50.76729" lon="3.6563">
        <ele>100</ele>
        <time>2015-12-13T13:11:52Z</time>
      </trkpt>
      <trkpt lat="50.76727" lon="3.65627">
        <ele>100</ele>
        <time>2015-12-13T13:11:53Z</time>
      </trkpt>
      <trkpt lat="50.76726" lon="3.65624">
        <ele>100</ele>
        <time>2015-12-13T13:11:54Z</time>
      </trkpt>
      <trkpt lat="50.76725" lon="3.6562">
        <ele>100</ele>
        <time>2015-12-13T13:11:55Z</time>
      </trkpt>
      <trkpt lat="50.76724" lon="3.65618">
        <ele>100</ele>
        <time>2015-12-13T13:11:57Z</time>
      </trkpt>
      <trkpt lat="50.76722" lon="3.65616">
        <ele>101</ele>
        <time>2015-12-13T13:12:08Z</time>
      </trkpt>
      <trkpt lat="50.76721" lon="3.65614">
        <ele>101</ele>
        <time>2015-12-13T13:12:10Z</time>
      </trkpt>
      <trkpt lat="50.76719" lon="3.65611">
        <ele>101</ele>
        <time>2015-12-13T13:12:13Z</time>
      </trkpt>
      <trkpt lat="50.76717" lon="3.65608">
        <ele>101</ele>
        <time>2015-12-13T13:12:15Z</time>
      </trkpt>
      <trkpt lat="50.76715" lon="3.65606">
        <ele>101</ele>
        <time>2015-12-13T13:12:17Z</time>
      </trkpt>
      <trkpt lat="50.76714" lon="3.65603">
        <ele>101</ele>
        <time>2015-12-13T13:12:19Z</time>
      </trkpt>
      <trkpt lat="50.76712" lon="3.656">
        <ele>100</ele>
        <time>2015-12-13T13:12:22Z</time>
      </trkpt>
      <trkpt lat="50.7671" lon="3.65598">
        <ele>100</ele>
        <time>2015-12-13T13:12:24Z</time>
      </trkpt>
      <trkpt lat="50.7671" lon="3.65594">
        <ele>100</ele>
        <time>2015-12-13T13:12:26Z</time>
      </trkpt>
      <trkpt lat="50.76708" lon="3.6559">
        <ele>100</ele>
        <time>2015-12-13T13:12:28Z</time>
      </trkpt>
      <trkpt lat="50.76706" lon="3.65589">
        <ele>100</ele>
        <time>2015-12-13T13:12:29Z</time>
      </trkpt>
      <trkpt lat="50.76704" lon="3.65586">
        <ele>100</ele>
        <time>2015-12-13T13:12:31Z</time>
      </trkpt>
      <trkpt lat="50.76702" lon="3.65583">
        <ele>100</ele>
        <time>2015-12-13T13:12:33Z</time>
      </trkpt>
      <trkpt lat="50.76701" lon="3.65579">
        <ele>100</ele>
        <time>2015-12-13T13:12:35Z</time>
      </trkpt>
      <trkpt lat="50.76699" lon="3.65577">
        <ele>100</ele>
        <time>2015-12-13T13:12:36Z</time>
      </trkpt>
      <trkpt lat="50.76697" lon="3.65574">
        <ele>100</ele>
        <time>2015-12-13T13:12:38Z</time>
      </trkpt>
      <trkpt lat="50.76696" lon="3.65572">
        <ele>100</ele>
        <time>2015-12-13T13:12:39Z</time>
      </trkpt>
      <trkpt lat="50.76694" lon="3.65568">
        <ele>100</ele>
        <time>2015-12-13T13:12:41Z</time>
      </trkpt>
      <trkpt lat="50.76691" lon="3.65565">
        <ele>100</ele>
        <time>2015-12-13T13:12:43Z</time>
      </trkpt>
      <trkpt lat="50.7669" lon="3.65563">
        <ele>100</ele>
        <time>2015-12-13T13:12:44Z</time>
      </trkpt>
      <trkpt lat="50.76687" lon="3.6556">
        <ele>100</ele>
        <time>2015-12-13T13:12:46Z</time>
      </trkpt>
      <trkpt lat="50.76685" lon="3.65555">
        <ele>100</ele>
        <time>2015-12-13T13:12:48Z</time>
      </trkpt>
      <trkpt lat="50.76684" lon="3.65552">
        <ele>100</ele>
        <time>2015-12-13T13:12:50Z</time>
      </trkpt>
      <trkpt lat="50.76683" lon="3.65549">
        <ele>98</ele>
        <time>2015-12-13T13:12:53Z</time>
      </trkpt>
      <trkpt lat="50.76681" lon="3.65549">
        <ele>98</ele>
        <time>2015-12-13T13:12:57Z</time>
      </trkpt>
      <trkpt lat="50.76679" lon="3.65551">
        <ele>98</ele>
        <time>2015-12-13T13:13:00Z</time>
      </trkpt>
      <trkpt lat="50.76676" lon="3.65554">
        <ele>97</ele>
        <time>2015-12-13T13:13:02Z</time>
      </trkpt>
      <trkpt lat="50.76675" lon="3.65556">
        <ele>97</ele>
        <time>2015-12-13T13:13:03Z</time>
      </trkpt>
      <trkpt lat="50.76671" lon="3.65557">
        <ele>97</ele>
        <time>2015-12-13T13:13:05Z</time>
      </trkpt>
      <trkpt lat="50.76669" lon="3.65559">
        <ele>97</ele>
        <time>2015-12-13T13:13:07Z</time>
      </trkpt>
      <trkpt lat="50.76667" lon="3.65562">
        <ele>97</ele>
        <time>2015-12-13T13:13:09Z</time>
      </trkpt>
      <trkpt lat="50.76666" lon="3.65564">
        <ele>97</ele>
        <time>2015-12-13T13:13:10Z</time>
      </trkpt>
      <trkpt lat="50.76664" lon="3.65566">
        <ele>96.3</ele>
        <time>2015-12-13T13:13:11Z</time>
      </trkpt>
      <trkpt lat="50.76663" lon="3.65569">
        <ele>96</ele>
        <time>2015-12-13T13:13:13Z</time>
      </trkpt>
      <trkpt lat="50.7666" lon="3.65573">
        <ele>96</ele>
        <time>2015-12-13T13:13:15Z</time>
      </trkpt>
      <trkpt lat="50.76657" lon="3.65576">
        <ele>96</ele>
        <time>2015-12-13T13:13:17Z</time>
      </trkpt>
      <trkpt lat="50.76656" lon="3.65581">
        <ele>96</ele>
        <time>2015-12-13T13:13:19Z</time>
      </trkpt>
      <trkpt lat="50.76655" lon="3.65584">
        <ele>95.3</ele>
        <time>2015-12-13T13:13:21Z</time>
      </trkpt>
      <trkpt lat="50.76652" lon="3.65586">
        <ele>95</ele>
        <time>2015-12-13T13:13:23Z</time>
      </trkpt>
      <trkpt lat="50.7665" lon="3.65588">
        <ele>95</ele>
        <time>2015-12-13T13:13:25Z</time>
      </trkpt>
      <trkpt lat="50.76649" lon="3.65591">
        <ele>95</ele>
        <time>2015-12-13T13:13:27Z</time>
      </trkpt>
      <trkpt lat="50.76647" lon="3.65593">
        <ele>95</ele>
        <time>2015-12-13T13:13:29Z</time>
      </trkpt>
      <trkpt lat="50.76646" lon="3.65597">
        <ele>94.3</ele>
        <time>2015-12-13T13:13:31Z</time>
      </trkpt>
      <trkpt lat="50.76645" lon="3.656">
        <ele>94</ele>
        <time>2015-12-13T13:13:32Z</time>
      </trkpt>
      <trkpt lat="50.76644" lon="3.65604">
        <ele>94</ele>
        <time>2015-12-13T13:13:34Z</time>
      </trkpt>
      <trkpt lat="50.76644" lon="3.65609">
        <ele>94</ele>
        <time>2015-12-13T13:13:36Z</time>
      </trkpt>
      <trkpt lat="50.76644" lon="3.65613">
        <ele>94</ele>
        <time>2015-12-13T13:13:38Z</time>
      </trkpt>
      <trkpt lat="50.76644" lon="3.65617">
        <ele>94</ele>
        <time>2015-12-13T13:13:40Z</time>
      </trkpt>
      <trkpt lat="50.76643" lon="3.65622">
        <ele>93</ele>
        <time>2015-12-13T13:13:42Z</time>
      </trkpt>
      <trkpt lat="50.76642" lon="3.65625">
        <ele>93</ele>
        <time>2015-12-13T13:13:43Z</time>
      </trkpt>
      <trkpt lat="50.76642" lon="3.65628">
        <ele>93</ele>
        <time>2015-12-13T13:13:44Z</time>
      </trkpt>
      <trkpt lat="50.76642" lon="3.65631">
        <ele>93</ele>
        <time>2015-12-13T13:13:45Z</time>
      </trkpt>
      <trkpt lat="50.76642" lon="3.65634">
        <ele>93</ele>
        <time>2015-12-13T13:13:46Z</time>
      </trkpt>
      <trkpt lat="50.76642" lon="3.65637">
        <ele>93</ele>
        <time>2015-12-13T13:13:47Z</time>
      </trkpt>
      <trkpt lat="50.76642" lon="3.6564">
        <ele>93</ele>
        <time>2015-12-13T13:13:48Z</time>
      </trkpt>
      <trkpt lat="50.76641" lon="3.65643">
        <ele>93</ele>
        <time>2015-12-13T13:13:49Z</time>
      </trkpt>
      <trkpt lat="50.76641" lon="3.65647">
        <ele>93</ele>
        <time>2015-12-13T13:13:50Z</time>
      </trkpt>
      <trkpt lat="50.76641" lon="3.6565">
        <ele>91.6</ele>
        <time>2015-12-13T13:13:51Z</time>
      </trkpt>
      <trkpt lat="50.7664" lon="3.65653">
        <ele>91</ele>
        <time>2015-12-13T13:13:52Z</time>
      </trkpt>
      <trkpt lat="50.7664" lon="3.65656">
        <ele>91</ele>
        <time>2015-12-13T13:13:53Z</time>
      </trkpt>
      <trkpt lat="50.76637" lon="3.65659">
        <ele>91</ele>
        <time>2015-12-13T13:13:55Z</time>
      </trkpt>
      <trkpt lat="50.76634" lon="3.65657">
        <ele>91</ele>
        <time>2015-12-13T13:13:57Z</time>
      </trkpt>
      <trkpt lat="50.76633" lon="3.65655">
        <ele>91</ele>
        <time>2015-12-13T13:13:59Z</time>
      </trkpt>
      <trkpt lat="50.76631" lon="3.65653">
        <ele>90.3</ele>
        <time>2015-12-13T13:14:01Z</time>
      </trkpt>
      <trkpt lat="50.7663" lon="3.65651">
        <ele>90</ele>
        <time>2015-12-13T13:14:03Z</time>
      </trkpt>
      <trkpt lat="50.76629" lon="3.65648">
        <ele>90</ele>
        <time>2015-12-13T13:14:05Z</time>
      </trkpt>
      <trkpt lat="50.76631" lon="3.65645">
        <ele>90</ele>
        <time>2015-12-13T13:14:13Z</time>
      </trkpt>
      <trkpt lat="50.76631" lon="3.65649">
        <ele>90</ele>
        <time>2015-12-13T13:14:16Z</time>
      </trkpt>
      <trkpt lat="50.76632" lon="3.65653">
        <ele>90</ele>
        <time>2015-12-13T13:14:18Z</time>
      </trkpt>
      <trkpt lat="50.76631" lon="3.65658">
        <ele>90</ele>
        <time>2015-12-13T13:14:21Z</time>
      </trkpt>
      <trkpt lat="50.76627" lon="3.65662">
        <ele>90</ele>
        <time>2015-12-13T13:14:30Z</time>
      </trkpt>
      <trkpt lat="50.76625" lon="3.65663">
        <ele>89</ele>
        <time>2015-12-13T13:14:32Z</time>
      </trkpt>
      <trkpt lat="50.76623" lon="3.65664">
        <ele>89</ele>
        <time>2015-12-13T13:14:33Z</time>
      </trkpt>
      <trkpt lat="50.7662" lon="3.65666">
        <ele>89</ele>
        <time>2015-12-13T13:14:35Z</time>
      </trkpt>
      <trkpt lat="50.76614" lon="3.65661">
        <ele>87</ele>
        <time>2015-12-13T13:14:43Z</time>
      </trkpt>
      <trkpt lat="50.76608" lon="3.65659">
        <ele>86.3</ele>
        <time>2015-12-13T13:14:51Z</time>
      </trkpt>
      <trkpt lat="50.76606" lon="3.6566">
        <ele>86</ele>
        <time>2015-12-13T13:14:53Z</time>
      </trkpt>
      <trkpt lat="50.76604" lon="3.65661">
        <ele>86</ele>
        <time>2015-12-13T13:14:55Z</time>
      </trkpt>
      <trkpt lat="50.76602" lon="3.65659">
        <ele>86</ele>
        <time>2015-12-13T13:14:57Z</time>
      </trkpt>
      <trkpt lat="50.766" lon="3.65657">
        <ele>86</ele>
        <time>2015-12-13T13:14:59Z</time>
      </trkpt>
      <trkpt lat="50.76599" lon="3.65653">
        <ele>86</ele>
        <time>2015-12-13T13:15:01Z</time>
      </trkpt>
      <trkpt lat="50.76598" lon="3.65648">
        <ele>84</ele>
        <time>2015-12-13T13:15:03Z</time>
      </trkpt>
      <trkpt lat="50.76597" lon="3.65643">
        <ele>84</ele>
        <time>2015-12-13T13:15:05Z</time>
      </trkpt>
      <trkpt lat="50.76596" lon="3.65638">
        <ele>84</ele>
        <time>2015-12-13T13:15:07Z</time>
      </trkpt>
      <trkpt lat="50.76593" lon="3.65626">
        <ele>84</ele>
        <time>2015-12-13T13:15:11Z</time>
      </trkpt>
      <trkpt lat="50.76592" lon="3.65622">
        <ele>84</ele>
        <time>2015-12-13T13:15:12Z</time>
      </trkpt>
      <trkpt lat="50.76593" lon="3.65611">
        <ele>84</ele>
        <time>2015-12-13T13:15:15Z</time>
      </trkpt>
      <trkpt lat="50.76592" lon="3.65606">
        <ele>84</ele>
        <time>2015-12-13T13:15:16Z</time>
      </trkpt>
      <trkpt lat="50.76591" lon="3.65602">
        <ele>84</ele>
        <time>2015-12-13T13:15:17Z</time>
      </trkpt>
      <trkpt lat="50.76591" lon="3.65599">
        <ele>84</ele>
        <time>2015-12-13T13:15:18Z</time>
      </trkpt>
      <trkpt lat="50.7659" lon="3.65595">
        <ele>84</ele>
        <time>2015-12-13T13:15:19Z</time>
      </trkpt>
      <trkpt lat="50.7659" lon="3.65592">
        <ele>84</ele>
        <time>2015-12-13T13:15:20Z</time>
      </trkpt>
      <trkpt lat="50.7659" lon="3.65589">
        <ele>84</ele>
        <time>2015-12-13T13:15:21Z</time>
      </trkpt>
      <trkpt lat="50.7659" lon="3.65583">
        <ele>84</ele>
        <time>2015-12-13T13:15:23Z</time>
      </trkpt>
      <trkpt lat="50.76589" lon="3.65579">
        <ele>84</ele>
        <time>2015-12-13T13:15:25Z</time>
      </trkpt>
      <trkpt lat="50.76588" lon="3.65576">
        <ele>84</ele>
        <time>2015-12-13T13:15:26Z</time>
      </trkpt>
      <trkpt lat="50.76587" lon="3.65572">
        <ele>84</ele>
        <time>2015-12-13T13:15:27Z</time>
      </trkpt>
      <trkpt lat="50.76586" lon="3.65569">
        <ele>84</ele>
        <time>2015-12-13T13:15:28Z</time>
      </trkpt>
      <trkpt lat="50.76583" lon="3.65566">
        <ele>84</ele>
        <time>2015-12-13T13:15:30Z</time>
      </trkpt>
      <trkpt lat="50.76581" lon="3.65565">
        <ele>84</ele>
        <time>2015-12-13T13:15:31Z</time>
      </trkpt>
      <trkpt lat="50.76579" lon="3.65565">
        <ele>83.3</ele>
        <time>2015-12-13T13:15:32Z</time>
      </trkpt>
      <trkpt lat="50.76575" lon="3.65564">
        <ele>83</ele>
        <time>2015-12-13T13:15:34Z</time>
      </trkpt>
      <trkpt lat="50.76572" lon="3.65564">
        <ele>83</ele>
        <time>2015-12-13T13:15:36Z</time>
      </trkpt>
      <trkpt lat="50.7657" lon="3.65565">
        <ele>83</ele>
        <time>2015-12-13T13:15:37Z</time>
      </trkpt>
      <trkpt lat="50.76569" lon="3.6557">
        <ele>83</ele>
        <time>2015-12-13T13:15:39Z</time>
      </trkpt>
      <trkpt lat="50.76569" lon="3.65576">
        <ele>83</ele>
        <time>2015-12-13T13:15:41Z</time>
      </trkpt>
      <trkpt lat="50.76569" lon="3.65579">
        <ele>81.6</ele>
        <time>2015-12-13T13:15:42Z</time>
      </trkpt>
      <trkpt lat="50.76569" lon="3.65582">
        <ele>81</ele>
        <time>2015-12-13T13:15:43Z</time>
      </trkpt>
      <trkpt lat="50.76568" lon="3.65585">
        <ele>81</ele>
        <time>2015-12-13T13:15:44Z</time>
      </trkpt>
      <trkpt lat="50.76567" lon="3.65589">
        <ele>81</ele>
        <time>2015-12-13T13:15:45Z</time>
      </trkpt>
      <trkpt lat="50.76566" lon="3.65592">
        <ele>81</ele>
        <time>2015-12-13T13:15:46Z</time>
      </trkpt>
      <trkpt lat="50.76566" lon="3.65595">
        <ele>81</ele>
        <time>2015-12-13T13:15:47Z</time>
      </trkpt>
      <trkpt lat="50.76566" lon="3.65599">
        <ele>81</ele>
        <time>2015-12-13T13:15:48Z</time>
      </trkpt>
      <trkpt lat="50.76565" lon="3.65602">
        <ele>81</ele>
        <time>2015-12-13T13:15:49Z</time>
      </trkpt>
      <trkpt lat="50.76564" lon="3.65606">
        <ele>81</ele>
        <time>2015-12-13T13:15:50Z</time>
      </trkpt>
      <trkpt lat="50.76563" lon="3.65609">
        <ele>81</ele>
        <time>2015-12-13T13:15:51Z</time>
      </trkpt>
      <trkpt lat="50.76562" lon="3.65612">
        <ele>80.3</ele>
        <time>2015-12-13T13:15:52Z</time>
      </trkpt>
      <trkpt lat="50.76561" lon="3.65616">
        <ele>80</ele>
        <time>2015-12-13T13:15:53Z</time>
      </trkpt>
      <trkpt lat="50.76559" lon="3.65619">
        <ele>80</ele>
        <time>2015-12-13T13:15:54Z</time>
      </trkpt>
      <trkpt lat="50.76559" lon="3.65623">
        <ele>80</ele>
        <time>2015-12-13T13:15:55Z</time>
      </trkpt>
      <trkpt lat="50.76558" lon="3.65627">
        <ele>80</ele>
        <time>2015-12-13T13:15:56Z</time>
      </trkpt>
      <trkpt lat="50.76557" lon="3.65631">
        <ele>80</ele>
        <time>2015-12-13T13:15:57Z</time>
      </trkpt>
      <trkpt lat="50.76557" lon="3.65634">
        <ele>80</ele>
        <time>2015-12-13T13:15:58Z</time>
      </trkpt>
      <trkpt lat="50.76557" lon="3.65638">
        <ele>80</ele>
        <time>2015-12-13T13:15:59Z</time>
      </trkpt>
      <trkpt lat="50.76556" lon="3.65641">
        <ele>80</ele>
        <time>2015-12-13T13:16:00Z</time>
      </trkpt>
      <trkpt lat="50.76556" lon="3.65645">
        <ele>79.3</ele>
        <time>2015-12-13T13:16:01Z</time>
      </trkpt>
      <trkpt lat="50.76555" lon="3.6565">
        <ele>79</ele>
        <time>2015-12-13T13:16:03Z</time>
      </trkpt>
      <trkpt lat="50.76555" lon="3.65654">
        <ele>79</ele>
        <time>2015-12-13T13:16:04Z</time>
      </trkpt>
      <trkpt lat="50.76555" lon="3.65657">
        <ele>79</ele>
        <time>2015-12-13T13:16:05Z</time>
      </trkpt>
      <trkpt lat="50.76554" lon="3.65661">
        <ele>79</ele>
        <time>2015-12-13T13:16:06Z</time>
      </trkpt>
      <trkpt lat="50.76554" lon="3.65664">
        <ele>79</ele>
        <time>2015-12-13T13:16:07Z</time>
      </trkpt>
      <trkpt lat="50.76553" lon="3.65667">
        <ele>79</ele>
        <time>2015-12-13T13:16:08Z</time>
      </trkpt>
      <trkpt lat="50.76551" lon="3.6567">
        <ele>79</ele>
        <time>2015-12-13T13:16:09Z</time>
      </trkpt>
      <trkpt lat="50.7655" lon="3.65674">
        <ele>79</ele>
        <time>2015-12-13T13:16:10Z</time>
      </trkpt>
      <trkpt lat="50.76548" lon="3.65677">
        <ele>77.6</ele>
        <time>2015-12-13T13:16:11Z</time>
      </trkpt>
      <trkpt lat="50.76547" lon="3.6568">
        <ele>77</ele>
        <time>2015-12-13T13:16:12Z</time>
      </trkpt>
      <trkpt lat="50.76546" lon="3.65682">
        <ele>77</ele>
        <time>2015-12-13T13:16:13Z</time>
      </trkpt>
      <trkpt lat="50.76544" lon="3.65687">
        <ele>77</ele>
        <time>2015-12-13T13:16:15Z</time>
      </trkpt>
      <trkpt lat="50.76543" lon="3.6569">
        <ele>76.5</ele>
        <time>2015-12-13T13:16:16Z</time>
      </trkpt>
      <trkpt lat="50.76542" lon="3.65693">
        <ele>76</ele>
        <time>2015-12-13T13:16:17Z</time>
      </trkpt>
      <trkpt lat="50.76541" lon="3.65696">
        <ele>76</ele>
        <time>2015-12-13T13:16:18Z</time>
      </trkpt>
      <trkpt lat="50.76541" lon="3.657">
        <ele>76</ele>
        <time>2015-12-13T13:16:19Z</time>
      </trkpt>
      <trkpt lat="50.7654" lon="3.65703">
        <ele>76</ele>
        <time>2015-12-13T13:16:20Z</time>
      </trkpt>
      <trkpt lat="50.76539" lon="3.65706">
        <ele>76</ele>
        <time>2015-12-13T13:16:21Z</time>
      </trkpt>
      <trkpt lat="50.76539" lon="3.6571">
        <ele>76</ele>
        <time>2015-12-13T13:16:22Z</time>
      </trkpt>
      <trkpt lat="50.76537" lon="3.65714">
        <ele>76</ele>
        <time>2015-12-13T13:16:23Z</time>
      </trkpt>
      <trkpt lat="50.76532" lon="3.65726">
        <ele>76</ele>
        <time>2015-12-13T13:16:26Z</time>
      </trkpt>
      <trkpt lat="50.76532" lon="3.65729">
        <ele>76</ele>
        <time>2015-12-13T13:16:27Z</time>
      </trkpt>
      <trkpt lat="50.76532" lon="3.65733">
        <ele>76</ele>
        <time>2015-12-13T13:16:28Z</time>
      </trkpt>
      <trkpt lat="50.76532" lon="3.65737">
        <ele>76</ele>
        <time>2015-12-13T13:16:29Z</time>
      </trkpt>
      <trkpt lat="50.7653" lon="3.6574">
        <ele>76</ele>
        <time>2015-12-13T13:16:30Z</time>
      </trkpt>
      <trkpt lat="50.76529" lon="3.65743">
        <ele>74</ele>
        <time>2015-12-13T13:16:31Z</time>
      </trkpt>
      <trkpt lat="50.76528" lon="3.65746">
        <ele>73</ele>
        <time>2015-12-13T13:16:32Z</time>
      </trkpt>
      <trkpt lat="50.76527" lon="3.6575">
        <ele>73</ele>
        <time>2015-12-13T13:16:34Z</time>
      </trkpt>
      <trkpt lat="50.76526" lon="3.65755">
        <ele>72.3</ele>
        <time>2015-12-13T13:16:36Z</time>
      </trkpt>
      <trkpt lat="50.76523" lon="3.65768">
        <ele>72</ele>
        <time>2015-12-13T13:16:41Z</time>
      </trkpt>
      <trkpt lat="50.76521" lon="3.65771">
        <ele>72</ele>
        <time>2015-12-13T13:16:44Z</time>
      </trkpt>
      <trkpt lat="50.7652" lon="3.65777">
        <ele>72</ele>
        <time>2015-12-13T13:16:48Z</time>
      </trkpt>
      <trkpt lat="50.7652" lon="3.6578">
        <ele>72</ele>
        <time>2015-12-13T13:16:50Z</time>
      </trkpt>
      <trkpt lat="50.76518" lon="3.65783">
        <ele>72</ele>
        <time>2015-12-13T13:16:51Z</time>
      </trkpt>
      <trkpt lat="50.76516" lon="3.65784">
        <ele>72</ele>
        <time>2015-12-13T13:16:52Z</time>
      </trkpt>
      <trkpt lat="50.76514" lon="3.65784">
        <ele>72</ele>
        <time>2015-12-13T13:16:53Z</time>
      </trkpt>
      <trkpt lat="50.76511" lon="3.65784">
        <ele>72</ele>
        <time>2015-12-13T13:16:54Z</time>
      </trkpt>
      <trkpt lat="50.76509" lon="3.65787">
        <ele>72</ele>
        <time>2015-12-13T13:16:56Z</time>
      </trkpt>
      <trkpt lat="50.76507" lon="3.65789">
        <ele>72</ele>
        <time>2015-12-13T13:16:59Z</time>
      </trkpt>
      <trkpt lat="50.76505" lon="3.65788">
        <ele>68.6</ele>
        <time>2015-12-13T13:17:01Z</time>
      </trkpt>
      <trkpt lat="50.76495" lon="3.65776">
        <ele>67</ele>
        <time>2015-12-13T13:17:07Z</time>
      </trkpt>
      <trkpt lat="50.76489" lon="3.65778">
        <ele>67</ele>
        <time>2015-12-13T13:17:13Z</time>
      </trkpt>
      <trkpt lat="50.76481" lon="3.65785">
        <ele>68</ele>
        <time>2015-12-13T13:17:22Z</time>
      </trkpt>
      <trkpt lat="50.76477" lon="3.65784">
        <ele>68</ele>
        <time>2015-12-13T13:17:25Z</time>
      </trkpt>
      <trkpt lat="50.76475" lon="3.65781">
        <ele>68</ele>
        <time>2015-12-13T13:17:26Z</time>
      </trkpt>
      <trkpt lat="50.76472" lon="3.65774">
        <ele>68</ele>
        <time>2015-12-13T13:17:36Z</time>
      </trkpt>
      <trkpt lat="50.7647" lon="3.65774">
        <ele>68</ele>
        <time>2015-12-13T13:17:38Z</time>
      </trkpt>
      <trkpt lat="50.76462" lon="3.65781">
        <ele>67</ele>
        <time>2015-12-13T13:17:48Z</time>
      </trkpt>
      <trkpt lat="50.76454" lon="3.65786">
        <ele>67</ele>
        <time>2015-12-13T13:17:59Z</time>
      </trkpt>
      <trkpt lat="50.76447" lon="3.65788">
        <ele>68</ele>
        <time>2015-12-13T13:18:03Z</time>
      </trkpt>
      <trkpt lat="50.76445" lon="3.6579">
        <ele>68</ele>
        <time>2015-12-13T13:18:05Z</time>
      </trkpt>
      <trkpt lat="50.76443" lon="3.65792">
        <ele>68</ele>
        <time>2015-12-13T13:18:06Z</time>
      </trkpt>
      <trkpt lat="50.76443" lon="3.65796">
        <ele>68</ele>
        <time>2015-12-13T13:18:08Z</time>
      </trkpt>
      <trkpt lat="50.7644" lon="3.658">
        <ele>68</ele>
        <time>2015-12-13T13:18:10Z</time>
      </trkpt>
      <trkpt lat="50.76437" lon="3.65801">
        <ele>69.4</ele>
        <time>2015-12-13T13:18:12Z</time>
      </trkpt>
      <trkpt lat="50.76428" lon="3.65805">
        <ele>70</ele>
        <time>2015-12-13T13:18:18Z</time>
      </trkpt>
      <trkpt lat="50.76424" lon="3.65808">
        <ele>70</ele>
        <time>2015-12-13T13:18:21Z</time>
      </trkpt>
      <trkpt lat="50.76422" lon="3.65823">
        <ele>66.5</ele>
        <time>2015-12-13T13:18:37Z</time>
      </trkpt>
      <trkpt lat="50.7642" lon="3.65836">
        <ele>66</ele>
        <time>2015-12-13T13:18:45Z</time>
      </trkpt>
      <trkpt lat="50.7641" lon="3.65843">
        <ele>71</ele>
        <time>2015-12-13T13:18:59Z</time>
      </trkpt>
      <trkpt lat="50.76409" lon="3.6585">
        <ele>71</ele>
        <time>2015-12-13T13:19:10Z</time>
      </trkpt>
      <trkpt lat="50.76412" lon="3.65858">
        <ele>71.5</ele>
        <time>2015-12-13T13:19:16Z</time>
      </trkpt>
      <trkpt lat="50.76415" lon="3.65866">
        <ele>72</ele>
        <time>2015-12-13T13:19:21Z</time>
      </trkpt>
      <trkpt lat="50.76414" lon="3.65873">
        <ele>75</ele>
        <time>2015-12-13T13:19:27Z</time>
      </trkpt>
      <trkpt lat="50.76415" lon="3.65877">
        <ele>75</ele>
        <time>2015-12-13T13:19:30Z</time>
      </trkpt>
      <trkpt lat="50.76414" lon="3.65892">
        <ele>75</ele>
        <time>2015-12-13T13:19:43Z</time>
      </trkpt>
      <trkpt lat="50.76408" lon="3.65894">
        <ele>75</ele>
        <time>2015-12-13T13:19:52Z</time>
      </trkpt>
      <trkpt lat="50.76403" lon="3.65908">
        <ele>76</ele>
        <time>2015-12-13T13:20:01Z</time>
      </trkpt>
      <trkpt lat="50.76395" lon="3.65922">
        <ele>76</ele>
        <time>2015-12-13T13:20:12Z</time>
      </trkpt>
      <trkpt lat="50.76388" lon="3.65933">
        <ele>76</ele>
        <time>2015-12-13T13:20:18Z</time>
      </trkpt>
      <trkpt lat="50.76384" lon="3.65948">
        <ele>76</ele>
        <time>2015-12-13T13:20:23Z</time>
      </trkpt>
      <trkpt lat="50.76381" lon="3.65964">
        <ele>76</ele>
        <time>2015-12-13T13:20:28Z</time>
      </trkpt>
      <trkpt lat="50.76377" lon="3.65974">
        <ele>76</ele>
        <time>2015-12-13T13:20:35Z</time>
      </trkpt>
      <trkpt lat="50.76374" lon="3.65978">
        <ele>76</ele>
        <time>2015-12-13T13:20:48Z</time>
      </trkpt>
      <trkpt lat="50.76374" lon="3.65982">
        <ele>76</ele>
        <time>2015-12-13T13:20:50Z</time>
      </trkpt>
      <trkpt lat="50.76374" lon="3.65986">
        <ele>76</ele>
        <time>2015-12-13T13:20:52Z</time>
      </trkpt>
      <trkpt lat="50.76374" lon="3.65989">
        <ele>76</ele>
        <time>2015-12-13T13:20:54Z</time>
      </trkpt>
      <trkpt lat="50.76374" lon="3.65993">
        <ele>76</ele>
        <time>2015-12-13T13:20:56Z</time>
      </trkpt>
      <trkpt lat="50.76373" lon="3.65997">
        <ele>76</ele>
        <time>2015-12-13T13:20:58Z</time>
      </trkpt>
      <trkpt lat="50.76374" lon="3.66001">
        <ele>76</ele>
        <time>2015-12-13T13:21:00Z</time>
      </trkpt>
      <trkpt lat="50.76374" lon="3.66005">
        <ele>76</ele>
        <time>2015-12-13T13:21:02Z</time>
      </trkpt>
      <trkpt lat="50.76374" lon="3.6601">
        <ele>76</ele>
        <time>2015-12-13T13:21:06Z</time>
      </trkpt>
      <trkpt lat="50.76379" lon="3.66015">
        <ele>76.7</ele>
        <time>2015-12-13T13:21:11Z</time>
      </trkpt>
      <trkpt lat="50.76381" lon="3.66016">
        <ele>77</ele>
        <time>2015-12-13T13:21:15Z</time>
      </trkpt>
      <trkpt lat="50.76391" lon="3.66015">
        <ele>78</ele>
        <time>2015-12-13T13:21:24Z</time>
      </trkpt>
      <trkpt lat="50.76401" lon="3.66018">
        <ele>78</ele>
        <time>2015-12-13T13:21:29Z</time>
      </trkpt>
      <trkpt lat="50.7641" lon="3.66023">
        <ele>80</ele>
        <time>2015-12-13T13:21:34Z</time>
      </trkpt>
      <trkpt lat="50.76419" lon="3.66028">
        <ele>80</ele>
        <time>2015-12-13T13:21:40Z</time>
      </trkpt>
      <trkpt lat="50.76427" lon="3.66037">
        <ele>81</ele>
        <time>2015-12-13T13:21:47Z</time>
      </trkpt>
      <trkpt lat="50.76437" lon="3.66045">
        <ele>82</ele>
        <time>2015-12-13T13:21:53Z</time>
      </trkpt>
      <trkpt lat="50.76445" lon="3.66055">
        <ele>82</ele>
        <time>2015-12-13T13:21:59Z</time>
      </trkpt>
      <trkpt lat="50.76454" lon="3.66061">
        <ele>82</ele>
        <time>2015-12-13T13:22:07Z</time>
      </trkpt>
      <trkpt lat="50.76463" lon="3.66066">
        <ele>84</ele>
        <time>2015-12-13T13:22:13Z</time>
      </trkpt>
      <trkpt lat="50.76471" lon="3.66077">
        <ele>84</ele>
        <time>2015-12-13T13:22:19Z</time>
      </trkpt>
      <trkpt lat="50.76477" lon="3.66083">
        <ele>84</ele>
        <time>2015-12-13T13:22:24Z</time>
      </trkpt>
      <trkpt lat="50.76484" lon="3.6609">
        <ele>84</ele>
        <time>2015-12-13T13:22:28Z</time>
      </trkpt>
      <trkpt lat="50.76486" lon="3.66091">
        <ele>84</ele>
        <time>2015-12-13T13:22:29Z</time>
      </trkpt>
      <trkpt lat="50.76489" lon="3.66094">
        <ele>84.7</ele>
        <time>2015-12-13T13:22:31Z</time>
      </trkpt>
      <trkpt lat="50.7649" lon="3.66096">
        <ele>85</ele>
        <time>2015-12-13T13:22:32Z</time>
      </trkpt>
      <trkpt lat="50.76491" lon="3.66098">
        <ele>85</ele>
        <time>2015-12-13T13:22:33Z</time>
      </trkpt>
      <trkpt lat="50.76494" lon="3.66102">
        <ele>85</ele>
        <time>2015-12-13T13:22:35Z</time>
      </trkpt>
      <trkpt lat="50.76495" lon="3.66104">
        <ele>85</ele>
        <time>2015-12-13T13:22:36Z</time>
      </trkpt>
      <trkpt lat="50.76497" lon="3.66106">
        <ele>85</ele>
        <time>2015-12-13T13:22:37Z</time>
      </trkpt>
      <trkpt lat="50.76499" lon="3.66108">
        <ele>85</ele>
        <time>2015-12-13T13:22:38Z</time>
      </trkpt>
      <trkpt lat="50.76502" lon="3.66111">
        <ele>85</ele>
        <time>2015-12-13T13:22:40Z</time>
      </trkpt>
      <trkpt lat="50.76507" lon="3.66115">
        <ele>87</ele>
        <time>2015-12-13T13:22:43Z</time>
      </trkpt>
      <trkpt lat="50.76509" lon="3.66117">
        <ele>87</ele>
        <time>2015-12-13T13:22:44Z</time>
      </trkpt>
      <trkpt lat="50.76511" lon="3.66118">
        <ele>87</ele>
        <time>2015-12-13T13:22:45Z</time>
      </trkpt>
      <trkpt lat="50.76512" lon="3.6612">
        <ele>87</ele>
        <time>2015-12-13T13:22:46Z</time>
      </trkpt>
      <trkpt lat="50.76519" lon="3.66132">
        <ele>87</ele>
        <time>2015-12-13T13:22:50Z</time>
      </trkpt>
      <trkpt lat="50.76528" lon="3.66141">
        <ele>89</ele>
        <time>2015-12-13T13:22:56Z</time>
      </trkpt>
      <trkpt lat="50.7653" lon="3.66144">
        <ele>89</ele>
        <time>2015-12-13T13:22:59Z</time>
      </trkpt>
      <trkpt lat="50.76533" lon="3.66144">
        <ele>89</ele>
        <time>2015-12-13T13:23:05Z</time>
      </trkpt>
      <trkpt lat="50.76535" lon="3.66147">
        <ele>89</ele>
        <time>2015-12-13T13:23:07Z</time>
      </trkpt>
      <trkpt lat="50.76537" lon="3.6615">
        <ele>89</ele>
        <time>2015-12-13T13:23:09Z</time>
      </trkpt>
      <trkpt lat="50.76539" lon="3.66152">
        <ele>89.7</ele>
        <time>2015-12-13T13:23:11Z</time>
      </trkpt>
      <trkpt lat="50.76541" lon="3.66153">
        <ele>90</ele>
        <time>2015-12-13T13:23:12Z</time>
      </trkpt>
      <trkpt lat="50.76543" lon="3.66155">
        <ele>90</ele>
        <time>2015-12-13T13:23:14Z</time>
      </trkpt>
      <trkpt lat="50.76546" lon="3.66158">
        <ele>90</ele>
        <time>2015-12-13T13:23:16Z</time>
      </trkpt>
      <trkpt lat="50.76553" lon="3.66168">
        <ele>90</ele>
        <time>2015-12-13T13:23:23Z</time>
      </trkpt>
      <trkpt lat="50.76557" lon="3.6617">
        <ele>90</ele>
        <time>2015-12-13T13:23:26Z</time>
      </trkpt>
      <trkpt lat="50.76565" lon="3.6618">
        <ele>92</ele>
        <time>2015-12-13T13:23:35Z</time>
      </trkpt>
      <trkpt lat="50.76567" lon="3.66183">
        <ele>92</ele>
        <time>2015-12-13T13:23:37Z</time>
      </trkpt>
      <trkpt lat="50.76568" lon="3.66185">
        <ele>92</ele>
        <time>2015-12-13T13:23:39Z</time>
      </trkpt>
      <trkpt lat="50.76577" lon="3.66192">
        <ele>93</ele>
        <time>2015-12-13T13:23:48Z</time>
      </trkpt>
      <trkpt lat="50.76585" lon="3.66201">
        <ele>93</ele>
        <time>2015-12-13T13:23:56Z</time>
      </trkpt>
      <trkpt lat="50.76588" lon="3.66209">
        <ele>93</ele>
        <time>2015-12-13T13:24:00Z</time>
      </trkpt>
      <trkpt lat="50.76589" lon="3.66214">
        <ele>93</ele>
        <time>2015-12-13T13:24:02Z</time>
      </trkpt>
      <trkpt lat="50.7659" lon="3.66218">
        <ele>93</ele>
        <time>2015-12-13T13:24:04Z</time>
      </trkpt>
      <trkpt lat="50.76591" lon="3.66221">
        <ele>93</ele>
        <time>2015-12-13T13:24:06Z</time>
      </trkpt>
      <trkpt lat="50.76592" lon="3.66224">
        <ele>93</ele>
        <time>2015-12-13T13:24:08Z</time>
      </trkpt>
      <trkpt lat="50.76597" lon="3.66231">
        <ele>94</ele>
        <time>2015-12-13T13:24:14Z</time>
      </trkpt>
      <trkpt lat="50.766" lon="3.66241">
        <ele>94</ele>
        <time>2015-12-13T13:24:19Z</time>
      </trkpt>
      <trkpt lat="50.76601" lon="3.66243">
        <ele>94</ele>
        <time>2015-12-13T13:24:20Z</time>
      </trkpt>
      <trkpt lat="50.76603" lon="3.66246">
        <ele>95</ele>
        <time>2015-12-13T13:24:22Z</time>
      </trkpt>
      <trkpt lat="50.76604" lon="3.6625">
        <ele>95</ele>
        <time>2015-12-13T13:24:24Z</time>
      </trkpt>
      <trkpt lat="50.76606" lon="3.66254">
        <ele>95</ele>
        <time>2015-12-13T13:24:26Z</time>
      </trkpt>
      <trkpt lat="50.76608" lon="3.66259">
        <ele>95</ele>
        <time>2015-12-13T13:24:28Z</time>
      </trkpt>
      <trkpt lat="50.7661" lon="3.66265">
        <ele>95.7</ele>
        <time>2015-12-13T13:24:31Z</time>
      </trkpt>
      <trkpt lat="50.76611" lon="3.66269">
        <ele>96</ele>
        <time>2015-12-13T13:24:33Z</time>
      </trkpt>
      <trkpt lat="50.76612" lon="3.66273">
        <ele>96</ele>
        <time>2015-12-13T13:24:35Z</time>
      </trkpt>
      <trkpt lat="50.76617" lon="3.66285">
        <ele>97</ele>
        <time>2015-12-13T13:24:42Z</time>
      </trkpt>
      <trkpt lat="50.76623" lon="3.66296">
        <ele>97</ele>
        <time>2015-12-13T13:24:47Z</time>
      </trkpt>
      <trkpt lat="50.7663" lon="3.66305">
        <ele>98</ele>
        <time>2015-12-13T13:24:54Z</time>
      </trkpt>
      <trkpt lat="50.76636" lon="3.66318">
        <ele>99.4</ele>
        <time>2015-12-13T13:25:01Z</time>
      </trkpt>
      <trkpt lat="50.76639" lon="3.66333">
        <ele>100</ele>
        <time>2015-12-13T13:25:09Z</time>
      </trkpt>
      <trkpt lat="50.76647" lon="3.66351">
        <ele>100</ele>
        <time>2015-12-13T13:25:20Z</time>
      </trkpt>
      <trkpt lat="50.76653" lon="3.66363">
        <ele>101</ele>
        <time>2015-12-13T13:25:26Z</time>
      </trkpt>
      <trkpt lat="50.76657" lon="3.66376">
        <ele>104</ele>
        <time>2015-12-13T13:25:34Z</time>
      </trkpt>
      <trkpt lat="50.7666" lon="3.66391">
        <ele>105.4</ele>
        <time>2015-12-13T13:25:41Z</time>
      </trkpt>
      <trkpt lat="50.76664" lon="3.66404">
        <ele>106</ele>
        <time>2015-12-13T13:25:48Z</time>
      </trkpt>
      <trkpt lat="50.7667" lon="3.66417">
        <ele>106</ele>
        <time>2015-12-13T13:25:56Z</time>
      </trkpt>
      <trkpt lat="50.76678" lon="3.66426">
        <ele>108</ele>
        <time>2015-12-13T13:26:04Z</time>
      </trkpt>
      <trkpt lat="50.76681" lon="3.66442">
        <ele>109.1</ele>
        <time>2015-12-13T13:26:11Z</time>
      </trkpt>
      <trkpt lat="50.76685" lon="3.66456">
        <ele>110</ele>
        <time>2015-12-13T13:26:19Z</time>
      </trkpt>
      <trkpt lat="50.76689" lon="3.6647">
        <ele>110</ele>
        <time>2015-12-13T13:26:27Z</time>
      </trkpt>
      <trkpt lat="50.76696" lon="3.6648">
        <ele>110</ele>
        <time>2015-12-13T13:26:37Z</time>
      </trkpt>
      <trkpt lat="50.76704" lon="3.66488">
        <ele>112</ele>
        <time>2015-12-13T13:26:44Z</time>
      </trkpt>
      <trkpt lat="50.76705" lon="3.66491">
        <ele>112</ele>
        <time>2015-12-13T13:26:46Z</time>
      </trkpt>
      <trkpt lat="50.76707" lon="3.66496">
        <ele>112</ele>
        <time>2015-12-13T13:26:48Z</time>
      </trkpt>
      <trkpt lat="50.7671" lon="3.66499">
        <ele>112</ele>
        <time>2015-12-13T13:26:50Z</time>
      </trkpt>
      <trkpt lat="50.76712" lon="3.66503">
        <ele>113</ele>
        <time>2015-12-13T13:26:52Z</time>
      </trkpt>
      <trkpt lat="50.76714" lon="3.66506">
        <ele>113</ele>
        <time>2015-12-13T13:26:54Z</time>
      </trkpt>
      <trkpt lat="50.76715" lon="3.66509">
        <ele>113</ele>
        <time>2015-12-13T13:26:56Z</time>
      </trkpt>
      <trkpt lat="50.76716" lon="3.66513">
        <ele>113</ele>
        <time>2015-12-13T13:26:58Z</time>
      </trkpt>
      <trkpt lat="50.76718" lon="3.66515">
        <ele>113</ele>
        <time>2015-12-13T13:27:00Z</time>
      </trkpt>
      <trkpt lat="50.7672" lon="3.66519">
        <ele>114</ele>
        <time>2015-12-13T13:27:02Z</time>
      </trkpt>
      <trkpt lat="50.76722" lon="3.66523">
        <ele>114</ele>
        <time>2015-12-13T13:27:04Z</time>
      </trkpt>
      <trkpt lat="50.76723" lon="3.66527">
        <ele>114</ele>
        <time>2015-12-13T13:27:06Z</time>
      </trkpt>
      <trkpt lat="50.76725" lon="3.66532">
        <ele>114</ele>
        <time>2015-12-13T13:27:08Z</time>
      </trkpt>
      <trkpt lat="50.76727" lon="3.66536">
        <ele>114</ele>
        <time>2015-12-13T13:27:10Z</time>
      </trkpt>
      <trkpt lat="50.76729" lon="3.66538">
        <ele>116</ele>
        <time>2015-12-13T13:27:12Z</time>
      </trkpt>
      <trkpt lat="50.7673" lon="3.66541">
        <ele>116</ele>
        <time>2015-12-13T13:27:14Z</time>
      </trkpt>
      <trkpt lat="50.76731" lon="3.66546">
        <ele>116</ele>
        <time>2015-12-13T13:27:17Z</time>
      </trkpt>
      <trkpt lat="50.76733" lon="3.66549">
        <ele>116</ele>
        <time>2015-12-13T13:27:19Z</time>
      </trkpt>
      <trkpt lat="50.76734" lon="3.66553">
        <ele>116</ele>
        <time>2015-12-13T13:27:21Z</time>
      </trkpt>
      <trkpt lat="50.76735" lon="3.66558">
        <ele>116</ele>
        <time>2015-12-13T13:27:23Z</time>
      </trkpt>
      <trkpt lat="50.76735" lon="3.66562">
        <ele>116</ele>
        <time>2015-12-13T13:27:25Z</time>
      </trkpt>
      <trkpt lat="50.76732" lon="3.66566">
        <ele>116</ele>
        <time>2015-12-13T13:27:29Z</time>
      </trkpt>
      <trkpt lat="50.76729" lon="3.66567">
        <ele>117.4</ele>
        <time>2015-12-13T13:27:31Z</time>
      </trkpt>
      <trkpt lat="50.76727" lon="3.66568">
        <ele>118</ele>
        <time>2015-12-13T13:27:33Z</time>
      </trkpt>
      <trkpt lat="50.76724" lon="3.66568">
        <ele>118</ele>
        <time>2015-12-13T13:27:35Z</time>
      </trkpt>
      <trkpt lat="50.76722" lon="3.66567">
        <ele>118</ele>
        <time>2015-12-13T13:27:36Z</time>
      </trkpt>
      <trkpt lat="50.76719" lon="3.66567">
        <ele>118</ele>
        <time>2015-12-13T13:27:38Z</time>
      </trkpt>
      <trkpt lat="50.76716" lon="3.66566">
        <ele>118</ele>
        <time>2015-12-13T13:27:40Z</time>
      </trkpt>
      <trkpt lat="50.76713" lon="3.66567">
        <ele>118</ele>
        <time>2015-12-13T13:27:42Z</time>
      </trkpt>
      <trkpt lat="50.7671" lon="3.66567">
        <ele>118</ele>
        <time>2015-12-13T13:27:44Z</time>
      </trkpt>
      <trkpt lat="50.76708" lon="3.66567">
        <ele>118</ele>
        <time>2015-12-13T13:27:45Z</time>
      </trkpt>
      <trkpt lat="50.76705" lon="3.66567">
        <ele>118</ele>
        <time>2015-12-13T13:27:46Z</time>
      </trkpt>
      <trkpt lat="50.76703" lon="3.66566">
        <ele>118</ele>
        <time>2015-12-13T13:27:47Z</time>
      </trkpt>
      <trkpt lat="50.76701" lon="3.66566">
        <ele>118</ele>
        <time>2015-12-13T13:27:48Z</time>
      </trkpt>
      <trkpt lat="50.76699" lon="3.66566">
        <ele>118</ele>
        <time>2015-12-13T13:27:49Z</time>
      </trkpt>
      <trkpt lat="50.76696" lon="3.66565">
        <ele>118</ele>
        <time>2015-12-13T13:27:50Z</time>
      </trkpt>
      <trkpt lat="50.76694" lon="3.66564">
        <ele>115.3</ele>
        <time>2015-12-13T13:27:51Z</time>
      </trkpt>
      <trkpt lat="50.76692" lon="3.66563">
        <ele>114</ele>
        <time>2015-12-13T13:27:52Z</time>
      </trkpt>
      <trkpt lat="50.76691" lon="3.66561">
        <ele>114</ele>
        <time>2015-12-13T13:27:53Z</time>
      </trkpt>
      <trkpt lat="50.76689" lon="3.6656">
        <ele>114</ele>
        <time>2015-12-13T13:27:54Z</time>
      </trkpt>
      <trkpt lat="50.76686" lon="3.66559">
        <ele>114</ele>
        <time>2015-12-13T13:27:55Z</time>
      </trkpt>
      <trkpt lat="50.76684" lon="3.66558">
        <ele>112</ele>
        <time>2015-12-13T13:27:56Z</time>
      </trkpt>
      <trkpt lat="50.76682" lon="3.66557">
        <ele>111</ele>
        <time>2015-12-13T13:27:57Z</time>
      </trkpt>
      <trkpt lat="50.76679" lon="3.66556">
        <ele>111</ele>
        <time>2015-12-13T13:27:58Z</time>
      </trkpt>
      <trkpt lat="50.76677" lon="3.66555">
        <ele>111</ele>
        <time>2015-12-13T13:27:59Z</time>
      </trkpt>
      <trkpt lat="50.76675" lon="3.66554">
        <ele>111</ele>
        <time>2015-12-13T13:28:00Z</time>
      </trkpt>
      <trkpt lat="50.76672" lon="3.66554">
        <ele>109.6</ele>
        <time>2015-12-13T13:28:01Z</time>
      </trkpt>
      <trkpt lat="50.7667" lon="3.66554">
        <ele>109</ele>
        <time>2015-12-13T13:28:02Z</time>
      </trkpt>
      <trkpt lat="50.76668" lon="3.66553">
        <ele>109</ele>
        <time>2015-12-13T13:28:03Z</time>
      </trkpt>
      <trkpt lat="50.76665" lon="3.66552">
        <ele>108.3</ele>
        <time>2015-12-13T13:28:04Z</time>
      </trkpt>
      <trkpt lat="50.76663" lon="3.66551">
        <ele>107.3</ele>
        <time>2015-12-13T13:28:05Z</time>
      </trkpt>
      <trkpt lat="50.76661" lon="3.6655">
        <ele>107</ele>
        <time>2015-12-13T13:28:06Z</time>
      </trkpt>
      <trkpt lat="50.76659" lon="3.66548">
        <ele>106.5</ele>
        <time>2015-12-13T13:28:07Z</time>
      </trkpt>
      <trkpt lat="50.76657" lon="3.66546">
        <ele>106</ele>
        <time>2015-12-13T13:28:08Z</time>
      </trkpt>
      <trkpt lat="50.76655" lon="3.66544">
        <ele>106</ele>
        <time>2015-12-13T13:28:09Z</time>
      </trkpt>
      <trkpt lat="50.76652" lon="3.66541">
        <ele>105.3</ele>
        <time>2015-12-13T13:28:10Z</time>
      </trkpt>
      <trkpt lat="50.76649" lon="3.66539">
        <ele>104.3</ele>
        <time>2015-12-13T13:28:11Z</time>
      </trkpt>
      <trkpt lat="50.76647" lon="3.66537">
        <ele>104</ele>
        <time>2015-12-13T13:28:12Z</time>
      </trkpt>
      <trkpt lat="50.76642" lon="3.66533">
        <ele>104</ele>
        <time>2015-12-13T13:28:15Z</time>
      </trkpt>
      <trkpt lat="50.7664" lon="3.66532">
        <ele>102.6</ele>
        <time>2015-12-13T13:28:16Z</time>
      </trkpt>
      <trkpt lat="50.76638" lon="3.66531">
        <ele>102</ele>
        <time>2015-12-13T13:28:17Z</time>
      </trkpt>
      <trkpt lat="50.76636" lon="3.66529">
        <ele>102</ele>
        <time>2015-12-13T13:28:18Z</time>
      </trkpt>
      <trkpt lat="50.76634" lon="3.66528">
        <ele>102</ele>
        <time>2015-12-13T13:28:19Z</time>
      </trkpt>
      <trkpt lat="50.76632" lon="3.66527">
        <ele>102</ele>
        <time>2015-12-13T13:28:20Z</time>
      </trkpt>
      <trkpt lat="50.76623" lon="3.66521">
        <ele>101</ele>
        <time>2015-12-13T13:28:23Z</time>
      </trkpt>
      <trkpt lat="50.76615" lon="3.66514">
        <ele>99.9</ele>
        <time>2015-12-13T13:28:26Z</time>
      </trkpt>
      <trkpt lat="50.76607" lon="3.66507">
        <ele>99</ele>
        <time>2015-12-13T13:28:29Z</time>
      </trkpt>
      <trkpt lat="50.766" lon="3.66498">
        <ele>97</ele>
        <time>2015-12-13T13:28:32Z</time>
      </trkpt>
      <trkpt lat="50.76591" lon="3.66488">
        <ele>97</ele>
        <time>2015-12-13T13:28:36Z</time>
      </trkpt>
      <trkpt lat="50.7659" lon="3.66485">
        <ele>97</ele>
        <time>2015-12-13T13:28:37Z</time>
      </trkpt>
      <trkpt lat="50.76587" lon="3.66483">
        <ele>97</ele>
        <time>2015-12-13T13:28:38Z</time>
      </trkpt>
      <trkpt lat="50.76585" lon="3.66481">
        <ele>97</ele>
        <time>2015-12-13T13:28:39Z</time>
      </trkpt>
      <trkpt lat="50.76584" lon="3.66478">
        <ele>97</ele>
        <time>2015-12-13T13:28:40Z</time>
      </trkpt>
      <trkpt lat="50.76581" lon="3.66475">
        <ele>96</ele>
        <time>2015-12-13T13:28:42Z</time>
      </trkpt>
      <trkpt lat="50.76581" lon="3.66491">
        <ele>93</ele>
        <time>2015-12-13T13:28:52Z</time>
      </trkpt>
      <trkpt lat="50.76579" lon="3.66495">
        <ele>92.3</ele>
        <time>2015-12-13T13:28:56Z</time>
      </trkpt>
      <trkpt lat="50.76575" lon="3.66498">
        <ele>92</ele>
        <time>2015-12-13T13:28:58Z</time>
      </trkpt>
      <trkpt lat="50.76572" lon="3.66501">
        <ele>92</ele>
        <time>2015-12-13T13:29:00Z</time>
      </trkpt>
      <trkpt lat="50.7657" lon="3.665">
        <ele>88.7</ele>
        <time>2015-12-13T13:29:03Z</time>
      </trkpt>
      <trkpt lat="50.76573" lon="3.66504">
        <ele>89</ele>
        <time>2015-12-13T13:29:32Z</time>
      </trkpt>
      <trkpt lat="50.76573" lon="3.66508">
        <ele>89</ele>
        <time>2015-12-13T13:29:35Z</time>
      </trkpt>
      <trkpt lat="50.76572" lon="3.66523">
        <ele>89</ele>
        <time>2015-12-13T13:29:41Z</time>
      </trkpt>
      <trkpt lat="50.76569" lon="3.66537">
        <ele>89</ele>
        <time>2015-12-13T13:29:46Z</time>
      </trkpt>
      <trkpt lat="50.7657" lon="3.66553">
        <ele>89</ele>
        <time>2015-12-13T13:29:51Z</time>
      </trkpt>
      <trkpt lat="50.76569" lon="3.66562">
        <ele>89</ele>
        <time>2015-12-13T13:29:54Z</time>
      </trkpt>
      <trkpt lat="50.76566" lon="3.66566">
        <ele>89</ele>
        <time>2015-12-13T13:29:56Z</time>
      </trkpt>
      <trkpt lat="50.76564" lon="3.66571">
        <ele>89</ele>
        <time>2015-12-13T13:29:58Z</time>
      </trkpt>
      <trkpt lat="50.76564" lon="3.66574">
        <ele>89</ele>
        <time>2015-12-13T13:29:59Z</time>
      </trkpt>
      <trkpt lat="50.76565" lon="3.66581">
        <ele>89</ele>
        <time>2015-12-13T13:30:02Z</time>
      </trkpt>
      <trkpt lat="50.76562" lon="3.66591">
        <ele>89</ele>
        <time>2015-12-13T13:30:06Z</time>
      </trkpt>
      <trkpt lat="50.76562" lon="3.66594">
        <ele>89</ele>
        <time>2015-12-13T13:30:07Z</time>
      </trkpt>
      <trkpt lat="50.76561" lon="3.666">
        <ele>89</ele>
        <time>2015-12-13T13:30:09Z</time>
      </trkpt>
      <trkpt lat="50.76561" lon="3.66603">
        <ele>89</ele>
        <time>2015-12-13T13:30:10Z</time>
      </trkpt>
      <trkpt lat="50.7656" lon="3.66609">
        <ele>89</ele>
        <time>2015-12-13T13:30:12Z</time>
      </trkpt>
      <trkpt lat="50.7656" lon="3.66613">
        <ele>89</ele>
        <time>2015-12-13T13:30:14Z</time>
      </trkpt>
      <trkpt lat="50.76558" lon="3.66616">
        <ele>89</ele>
        <time>2015-12-13T13:30:16Z</time>
      </trkpt>
      <trkpt lat="50.76556" lon="3.6662">
        <ele>89</ele>
        <time>2015-12-13T13:30:18Z</time>
      </trkpt>
      <trkpt lat="50.76554" lon="3.66621">
        <ele>89</ele>
        <time>2015-12-13T13:30:19Z</time>
      </trkpt>
      <trkpt lat="50.76553" lon="3.66624">
        <ele>89</ele>
        <time>2015-12-13T13:30:20Z</time>
      </trkpt>
      <trkpt lat="50.76552" lon="3.66629">
        <ele>88</ele>
        <time>2015-12-13T13:30:22Z</time>
      </trkpt>
      <trkpt lat="50.76552" lon="3.66635">
        <ele>88</ele>
        <time>2015-12-13T13:30:24Z</time>
      </trkpt>
      <trkpt lat="50.76553" lon="3.6664">
        <ele>88</ele>
        <time>2015-12-13T13:30:26Z</time>
      </trkpt>
      <trkpt lat="50.76553" lon="3.66643">
        <ele>88</ele>
        <time>2015-12-13T13:30:27Z</time>
      </trkpt>
      <trkpt lat="50.76552" lon="3.66646">
        <ele>88</ele>
        <time>2015-12-13T13:30:28Z</time>
      </trkpt>
      <trkpt lat="50.76551" lon="3.66649">
        <ele>88</ele>
        <time>2015-12-13T13:30:29Z</time>
      </trkpt>
      <trkpt lat="50.76549" lon="3.66651">
        <ele>88</ele>
        <time>2015-12-13T13:30:30Z</time>
      </trkpt>
      <trkpt lat="50.76547" lon="3.66653">
        <ele>87.3</ele>
        <time>2015-12-13T13:30:31Z</time>
      </trkpt>
      <trkpt lat="50.76545" lon="3.66655">
        <ele>87</ele>
        <time>2015-12-13T13:30:32Z</time>
      </trkpt>
      <trkpt lat="50.76543" lon="3.66656">
        <ele>87</ele>
        <time>2015-12-13T13:30:33Z</time>
      </trkpt>
      <trkpt lat="50.76541" lon="3.66657">
        <ele>87</ele>
        <time>2015-12-13T13:30:34Z</time>
      </trkpt>
      <trkpt lat="50.76539" lon="3.66657">
        <ele>87</ele>
        <time>2015-12-13T13:30:35Z</time>
      </trkpt>
      <trkpt lat="50.76537" lon="3.66658">
        <ele>87</ele>
        <time>2015-12-13T13:30:36Z</time>
      </trkpt>
      <trkpt lat="50.76535" lon="3.66659">
        <ele>87</ele>
        <time>2015-12-13T13:30:37Z</time>
      </trkpt>
      <trkpt lat="50.76533" lon="3.6666">
        <ele>87</ele>
        <time>2015-12-13T13:30:38Z</time>
      </trkpt>
      <trkpt lat="50.7653" lon="3.66661">
        <ele>87</ele>
        <time>2015-12-13T13:30:39Z</time>
      </trkpt>
      <trkpt lat="50.76528" lon="3.6666">
        <ele>87</ele>
        <time>2015-12-13T13:30:40Z</time>
      </trkpt>
      <trkpt lat="50.76526" lon="3.6666">
        <ele>85.6</ele>
        <time>2015-12-13T13:30:41Z</time>
      </trkpt>
      <trkpt lat="50.76523" lon="3.66658">
        <ele>85</ele>
        <time>2015-12-13T13:30:43Z</time>
      </trkpt>
      <trkpt lat="50.76523" lon="3.66663">
        <ele>83.6</ele>
        <time>2015-12-13T13:30:46Z</time>
      </trkpt>
      <trkpt lat="50.76522" lon="3.66667">
        <ele>83</ele>
        <time>2015-12-13T13:30:48Z</time>
      </trkpt>
      <trkpt lat="50.76522" lon="3.66671">
        <ele>83</ele>
        <time>2015-12-13T13:30:50Z</time>
      </trkpt>
      <trkpt lat="50.76522" lon="3.66675">
        <ele>83</ele>
        <time>2015-12-13T13:30:52Z</time>
      </trkpt>
      <trkpt lat="50.76521" lon="3.66678">
        <ele>83</ele>
        <time>2015-12-13T13:30:54Z</time>
      </trkpt>
      <trkpt lat="50.7652" lon="3.6668">
        <ele>83</ele>
        <time>2015-12-13T13:30:56Z</time>
      </trkpt>
      <trkpt lat="50.76519" lon="3.66684">
        <ele>83</ele>
        <time>2015-12-13T13:30:59Z</time>
      </trkpt>
      <trkpt lat="50.76519" lon="3.66687">
        <ele>83</ele>
        <time>2015-12-13T13:31:01Z</time>
      </trkpt>
      <trkpt lat="50.76519" lon="3.66691">
        <ele>83</ele>
        <time>2015-12-13T13:31:03Z</time>
      </trkpt>
      <trkpt lat="50.76519" lon="3.66694">
        <ele>83</ele>
        <time>2015-12-13T13:31:05Z</time>
      </trkpt>
      <trkpt lat="50.76518" lon="3.66697">
        <ele>83</ele>
        <time>2015-12-13T13:31:07Z</time>
      </trkpt>
      <trkpt lat="50.76518" lon="3.66701">
        <ele>83</ele>
        <time>2015-12-13T13:31:09Z</time>
      </trkpt>
      <trkpt lat="50.76517" lon="3.66706">
        <ele>83.7</ele>
        <time>2015-12-13T13:31:11Z</time>
      </trkpt>
      <trkpt lat="50.76516" lon="3.6671">
        <ele>84</ele>
        <time>2015-12-13T13:31:13Z</time>
      </trkpt>
      <trkpt lat="50.76506" lon="3.66713">
        <ele>84</ele>
        <time>2015-12-13T13:31:19Z</time>
      </trkpt>
      <trkpt lat="50.76503" lon="3.66713">
        <ele>84</ele>
        <time>2015-12-13T13:31:20Z</time>
      </trkpt>
      <trkpt lat="50.76501" lon="3.66712">
        <ele>84</ele>
        <time>2015-12-13T13:31:21Z</time>
      </trkpt>
      <trkpt lat="50.76499" lon="3.66711">
        <ele>84</ele>
        <time>2015-12-13T13:31:22Z</time>
      </trkpt>
      <trkpt lat="50.76496" lon="3.66711">
        <ele>84</ele>
        <time>2015-12-13T13:31:23Z</time>
      </trkpt>
      <trkpt lat="50.76493" lon="3.6671">
        <ele>84</ele>
        <time>2015-12-13T13:31:25Z</time>
      </trkpt>
      <trkpt lat="50.7649" lon="3.66709">
        <ele>84</ele>
        <time>2015-12-13T13:31:27Z</time>
      </trkpt>
      <trkpt lat="50.76487" lon="3.66707">
        <ele>84</ele>
        <time>2015-12-13T13:31:29Z</time>
      </trkpt>
      <trkpt lat="50.76484" lon="3.66706">
        <ele>82.6</ele>
        <time>2015-12-13T13:31:31Z</time>
      </trkpt>
      <trkpt lat="50.76482" lon="3.66705">
        <ele>82</ele>
        <time>2015-12-13T13:31:32Z</time>
      </trkpt>
      <trkpt lat="50.7648" lon="3.66704">
        <ele>82</ele>
        <time>2015-12-13T13:31:33Z</time>
      </trkpt>
      <trkpt lat="50.76478" lon="3.66703">
        <ele>82</ele>
        <time>2015-12-13T13:31:34Z</time>
      </trkpt>
      <trkpt lat="50.76475" lon="3.66701">
        <ele>82</ele>
        <time>2015-12-13T13:31:36Z</time>
      </trkpt>
      <trkpt lat="50.76473" lon="3.667">
        <ele>82</ele>
        <time>2015-12-13T13:31:38Z</time>
      </trkpt>
      <trkpt lat="50.76469" lon="3.66699">
        <ele>82</ele>
        <time>2015-12-13T13:31:40Z</time>
      </trkpt>
      <trkpt lat="50.76467" lon="3.66698">
        <ele>80.6</ele>
        <time>2015-12-13T13:31:41Z</time>
      </trkpt>
      <trkpt lat="50.76464" lon="3.66696">
        <ele>80</ele>
        <time>2015-12-13T13:31:42Z</time>
      </trkpt>
      <trkpt lat="50.76462" lon="3.66694">
        <ele>80</ele>
        <time>2015-12-13T13:31:43Z</time>
      </trkpt>
      <trkpt lat="50.7646" lon="3.66691">
        <ele>80</ele>
        <time>2015-12-13T13:31:44Z</time>
      </trkpt>
      <trkpt lat="50.7646" lon="3.66687">
        <ele>80</ele>
        <time>2015-12-13T13:31:45Z</time>
      </trkpt>
      <trkpt lat="50.7646" lon="3.66684">
        <ele>79.3</ele>
        <time>2015-12-13T13:31:46Z</time>
      </trkpt>
      <trkpt lat="50.76459" lon="3.66681">
        <ele>79</ele>
        <time>2015-12-13T13:31:47Z</time>
      </trkpt>
      <trkpt lat="50.76459" lon="3.66677">
        <ele>79</ele>
        <time>2015-12-13T13:31:48Z</time>
      </trkpt>
      <trkpt lat="50.76459" lon="3.66673">
        <ele>79</ele>
        <time>2015-12-13T13:31:49Z</time>
      </trkpt>
      <trkpt lat="50.76458" lon="3.6667">
        <ele>79</ele>
        <time>2015-12-13T13:31:50Z</time>
      </trkpt>
      <trkpt lat="50.76458" lon="3.66666">
        <ele>78.3</ele>
        <time>2015-12-13T13:31:51Z</time>
      </trkpt>
      <trkpt lat="50.76457" lon="3.66663">
        <ele>78</ele>
        <time>2015-12-13T13:31:52Z</time>
      </trkpt>
      <trkpt lat="50.76457" lon="3.6666">
        <ele>78</ele>
        <time>2015-12-13T13:31:53Z</time>
      </trkpt>
      <trkpt lat="50.76457" lon="3.66655">
        <ele>78</ele>
        <time>2015-12-13T13:31:55Z</time>
      </trkpt>
      <trkpt lat="50.76456" lon="3.66652">
        <ele>78</ele>
        <time>2015-12-13T13:31:56Z</time>
      </trkpt>
      <trkpt lat="50.76455" lon="3.66649">
        <ele>78</ele>
        <time>2015-12-13T13:31:57Z</time>
      </trkpt>
      <trkpt lat="50.76454" lon="3.66646">
        <ele>78</ele>
        <time>2015-12-13T13:31:58Z</time>
      </trkpt>
      <trkpt lat="50.76452" lon="3.66644">
        <ele>78</ele>
        <time>2015-12-13T13:31:59Z</time>
      </trkpt>
      <trkpt lat="50.76451" lon="3.66641">
        <ele>78</ele>
        <time>2015-12-13T13:32:00Z</time>
      </trkpt>
      <trkpt lat="50.76451" lon="3.66638">
        <ele>78</ele>
        <time>2015-12-13T13:32:01Z</time>
      </trkpt>
      <trkpt lat="50.76451" lon="3.66635">
        <ele>78</ele>
        <time>2015-12-13T13:32:02Z</time>
      </trkpt>
      <trkpt lat="50.76451" lon="3.66632">
        <ele>78</ele>
        <time>2015-12-13T13:32:03Z</time>
      </trkpt>
      <trkpt lat="50.7645" lon="3.66628">
        <ele>78</ele>
        <time>2015-12-13T13:32:04Z</time>
      </trkpt>
      <trkpt lat="50.76449" lon="3.66626">
        <ele>78</ele>
        <time>2015-12-13T13:32:05Z</time>
      </trkpt>
      <trkpt lat="50.76448" lon="3.66622">
        <ele>78</ele>
        <time>2015-12-13T13:32:06Z</time>
      </trkpt>
      <trkpt lat="50.76446" lon="3.66619">
        <ele>78</ele>
        <time>2015-12-13T13:32:07Z</time>
      </trkpt>
      <trkpt lat="50.76445" lon="3.66617">
        <ele>78</ele>
        <time>2015-12-13T13:32:08Z</time>
      </trkpt>
      <trkpt lat="50.76442" lon="3.66613">
        <ele>78</ele>
        <time>2015-12-13T13:32:10Z</time>
      </trkpt>
      <trkpt lat="50.76441" lon="3.66611">
        <ele>78.7</ele>
        <time>2015-12-13T13:32:11Z</time>
      </trkpt>
      <trkpt lat="50.76439" lon="3.6661">
        <ele>79</ele>
        <time>2015-12-13T13:32:13Z</time>
      </trkpt>
      <trkpt lat="50.76437" lon="3.66608">
        <ele>79</ele>
        <time>2015-12-13T13:32:16Z</time>
      </trkpt>
      <trkpt lat="50.76435" lon="3.66605">
        <ele>79</ele>
        <time>2015-12-13T13:32:26Z</time>
      </trkpt>
      <trkpt lat="50.76433" lon="3.66604">
        <ele>79</ele>
        <time>2015-12-13T13:32:28Z</time>
      </trkpt>
      <trkpt lat="50.7643" lon="3.66604">
        <ele>79</ele>
        <time>2015-12-13T13:32:30Z</time>
      </trkpt>
      <trkpt lat="50.76428" lon="3.66603">
        <ele>80</ele>
        <time>2015-12-13T13:32:32Z</time>
      </trkpt>
      <trkpt lat="50.76426" lon="3.66601">
        <ele>80</ele>
        <time>2015-12-13T13:32:34Z</time>
      </trkpt>
      <trkpt lat="50.76423" lon="3.66601">
        <ele>80</ele>
        <time>2015-12-13T13:32:36Z</time>
      </trkpt>
      <trkpt lat="50.7642" lon="3.66601">
        <ele>80</ele>
        <time>2015-12-13T13:32:38Z</time>
      </trkpt>
      <trkpt lat="50.76417" lon="3.666">
        <ele>80</ele>
        <time>2015-12-13T13:32:40Z</time>
      </trkpt>
      <trkpt lat="50.76415" lon="3.66599">
        <ele>81</ele>
        <time>2015-12-13T13:32:42Z</time>
      </trkpt>
      <trkpt lat="50.76412" lon="3.66599">
        <ele>81</ele>
        <time>2015-12-13T13:32:44Z</time>
      </trkpt>
      <trkpt lat="50.7641" lon="3.66599">
        <ele>81</ele>
        <time>2015-12-13T13:32:46Z</time>
      </trkpt>
      <trkpt lat="50.76408" lon="3.66599">
        <ele>81</ele>
        <time>2015-12-13T13:32:48Z</time>
      </trkpt>
      <trkpt lat="50.76407" lon="3.66601">
        <ele>84</ele>
        <time>2015-12-13T13:32:53Z</time>
      </trkpt>
      <trkpt lat="50.76404" lon="3.66601">
        <ele>84</ele>
        <time>2015-12-13T13:32:55Z</time>
      </trkpt>
      <trkpt lat="50.76401" lon="3.66601">
        <ele>85</ele>
        <time>2015-12-13T13:32:57Z</time>
      </trkpt>
      <trkpt lat="50.76399" lon="3.66601">
        <ele>85</ele>
        <time>2015-12-13T13:32:59Z</time>
      </trkpt>
      <trkpt lat="50.76396" lon="3.666">
        <ele>85</ele>
        <time>2015-12-13T13:33:01Z</time>
      </trkpt>
      <trkpt lat="50.76394" lon="3.666">
        <ele>85</ele>
        <time>2015-12-13T13:33:03Z</time>
      </trkpt>
      <trkpt lat="50.76391" lon="3.66599">
        <ele>85</ele>
        <time>2015-12-13T13:33:05Z</time>
      </trkpt>
      <trkpt lat="50.76389" lon="3.66599">
        <ele>85</ele>
        <time>2015-12-13T13:33:07Z</time>
      </trkpt>
      <trkpt lat="50.76386" lon="3.66599">
        <ele>85</ele>
        <time>2015-12-13T13:33:09Z</time>
      </trkpt>
      <trkpt lat="50.76384" lon="3.66599">
        <ele>85</ele>
        <time>2015-12-13T13:33:11Z</time>
      </trkpt>
      <trkpt lat="50.76382" lon="3.66599">
        <ele>85</ele>
        <time>2015-12-13T13:33:13Z</time>
      </trkpt>
      <trkpt lat="50.76379" lon="3.66599">
        <ele>85</ele>
        <time>2015-12-13T13:33:16Z</time>
      </trkpt>
      <trkpt lat="50.76376" lon="3.66599">
        <ele>85</ele>
        <time>2015-12-13T13:33:18Z</time>
      </trkpt>
      <trkpt lat="50.76374" lon="3.666">
        <ele>85</ele>
        <time>2015-12-13T13:33:20Z</time>
      </trkpt>
      <trkpt lat="50.76372" lon="3.66599">
        <ele>87</ele>
        <time>2015-12-13T13:33:22Z</time>
      </trkpt>
      <trkpt lat="50.7637" lon="3.66599">
        <ele>87</ele>
        <time>2015-12-13T13:33:24Z</time>
      </trkpt>
      <trkpt lat="50.76367" lon="3.666">
        <ele>87</ele>
        <time>2015-12-13T13:33:26Z</time>
      </trkpt>
      <trkpt lat="50.76365" lon="3.666">
        <ele>87</ele>
        <time>2015-12-13T13:33:28Z</time>
      </trkpt>
      <trkpt lat="50.76363" lon="3.666">
        <ele>87</ele>
        <time>2015-12-13T13:33:30Z</time>
      </trkpt>
      <trkpt lat="50.76359" lon="3.66601">
        <ele>88</ele>
        <time>2015-12-13T13:33:55Z</time>
      </trkpt>
      <trkpt lat="50.76358" lon="3.66604">
        <ele>88</ele>
        <time>2015-12-13T13:33:57Z</time>
      </trkpt>
      <trkpt lat="50.76358" lon="3.66608">
        <ele>88</ele>
        <time>2015-12-13T13:33:59Z</time>
      </trkpt>
      <trkpt lat="50.76356" lon="3.66611">
        <ele>90</ele>
        <time>2015-12-13T13:34:02Z</time>
      </trkpt>
      <trkpt lat="50.76355" lon="3.66614">
        <ele>90</ele>
        <time>2015-12-13T13:34:04Z</time>
      </trkpt>
      <trkpt lat="50.76352" lon="3.66615">
        <ele>90</ele>
        <time>2015-12-13T13:34:06Z</time>
      </trkpt>
      <trkpt lat="50.76351" lon="3.66618">
        <ele>90</ele>
        <time>2015-12-13T13:34:11Z</time>
      </trkpt>
      <trkpt lat="50.76348" lon="3.66621">
        <ele>90</ele>
        <time>2015-12-13T13:34:13Z</time>
      </trkpt>
      <trkpt lat="50.76345" lon="3.66623">
        <ele>90</ele>
        <time>2015-12-13T13:34:15Z</time>
      </trkpt>
      <trkpt lat="50.76343" lon="3.66625">
        <ele>90</ele>
        <time>2015-12-13T13:34:17Z</time>
      </trkpt>
      <trkpt lat="50.7634" lon="3.66628">
        <ele>90</ele>
        <time>2015-12-13T13:34:19Z</time>
      </trkpt>
      <trkpt lat="50.76338" lon="3.6663">
        <ele>90.7</ele>
        <time>2015-12-13T13:34:21Z</time>
      </trkpt>
      <trkpt lat="50.76335" lon="3.66633">
        <ele>91</ele>
        <time>2015-12-13T13:34:23Z</time>
      </trkpt>
      <trkpt lat="50.76333" lon="3.66635">
        <ele>91</ele>
        <time>2015-12-13T13:34:25Z</time>
      </trkpt>
      <trkpt lat="50.76331" lon="3.66637">
        <ele>91</ele>
        <time>2015-12-13T13:34:27Z</time>
      </trkpt>
      <trkpt lat="50.76328" lon="3.66638">
        <ele>91</ele>
        <time>2015-12-13T13:34:29Z</time>
      </trkpt>
      <trkpt lat="50.76325" lon="3.66641">
        <ele>91.7</ele>
        <time>2015-12-13T13:34:31Z</time>
      </trkpt>
      <trkpt lat="50.76323" lon="3.66643">
        <ele>92</ele>
        <time>2015-12-13T13:34:33Z</time>
      </trkpt>
      <trkpt lat="50.76322" lon="3.66646">
        <ele>92</ele>
        <time>2015-12-13T13:34:35Z</time>
      </trkpt>
      <trkpt lat="50.7632" lon="3.66647">
        <ele>92</ele>
        <time>2015-12-13T13:34:37Z</time>
      </trkpt>
      <trkpt lat="50.76318" lon="3.66649">
        <ele>92</ele>
        <time>2015-12-13T13:34:39Z</time>
      </trkpt>
      <trkpt lat="50.76316" lon="3.66651">
        <ele>92</ele>
        <time>2015-12-13T13:34:41Z</time>
      </trkpt>
      <trkpt lat="50.76309" lon="3.6666">
        <ele>92</ele>
        <time>2015-12-13T13:34:48Z</time>
      </trkpt>
      <trkpt lat="50.76307" lon="3.66662">
        <ele>92</ele>
        <time>2015-12-13T13:34:50Z</time>
      </trkpt>
      <trkpt lat="50.76302" lon="3.66669">
        <ele>94</ele>
        <time>2015-12-13T13:34:54Z</time>
      </trkpt>
      <trkpt lat="50.76299" lon="3.66669">
        <ele>94</ele>
        <time>2015-12-13T13:34:56Z</time>
      </trkpt>
      <trkpt lat="50.76297" lon="3.66668">
        <ele>94</ele>
        <time>2015-12-13T13:34:58Z</time>
      </trkpt>
      <trkpt lat="50.76296" lon="3.66672">
        <ele>94</ele>
        <time>2015-12-13T13:35:01Z</time>
      </trkpt>
      <trkpt lat="50.76295" lon="3.66676">
        <ele>94</ele>
        <time>2015-12-13T13:35:03Z</time>
      </trkpt>
      <trkpt lat="50.76295" lon="3.6668">
        <ele>94</ele>
        <time>2015-12-13T13:35:05Z</time>
      </trkpt>
      <trkpt lat="50.76296" lon="3.66683">
        <ele>94</ele>
        <time>2015-12-13T13:35:07Z</time>
      </trkpt>
      <trkpt lat="50.76296" lon="3.66688">
        <ele>94</ele>
        <time>2015-12-13T13:35:09Z</time>
      </trkpt>
      <trkpt lat="50.76296" lon="3.66692">
        <ele>94.7</ele>
        <time>2015-12-13T13:35:11Z</time>
      </trkpt>
      <trkpt lat="50.76298" lon="3.66696">
        <ele>95</ele>
        <time>2015-12-13T13:35:13Z</time>
      </trkpt>
      <trkpt lat="50.76298" lon="3.66701">
        <ele>95</ele>
        <time>2015-12-13T13:35:15Z</time>
      </trkpt>
      <trkpt lat="50.763" lon="3.66705">
        <ele>95</ele>
        <time>2015-12-13T13:35:18Z</time>
      </trkpt>
      <trkpt lat="50.76301" lon="3.66708">
        <ele>95</ele>
        <time>2015-12-13T13:35:20Z</time>
      </trkpt>
      <trkpt lat="50.76302" lon="3.66713">
        <ele>95</ele>
        <time>2015-12-13T13:35:22Z</time>
      </trkpt>
      <trkpt lat="50.76302" lon="3.66718">
        <ele>95</ele>
        <time>2015-12-13T13:35:24Z</time>
      </trkpt>
      <trkpt lat="50.76302" lon="3.66722">
        <ele>95</ele>
        <time>2015-12-13T13:35:27Z</time>
      </trkpt>
      <trkpt lat="50.76302" lon="3.66725">
        <ele>95</ele>
        <time>2015-12-13T13:35:30Z</time>
      </trkpt>
      <trkpt lat="50.76303" lon="3.66731">
        <ele>96</ele>
        <time>2015-12-13T13:35:32Z</time>
      </trkpt>
      <trkpt lat="50.76304" lon="3.66735">
        <ele>96</ele>
        <time>2015-12-13T13:35:34Z</time>
      </trkpt>
      <trkpt lat="50.76304" lon="3.66738">
        <ele>96</ele>
        <time>2015-12-13T13:35:36Z</time>
      </trkpt>
      <trkpt lat="50.76304" lon="3.66741">
        <ele>96</ele>
        <time>2015-12-13T13:35:38Z</time>
      </trkpt>
      <trkpt lat="50.76306" lon="3.66744">
        <ele>96</ele>
        <time>2015-12-13T13:35:41Z</time>
      </trkpt>
      <trkpt lat="50.76306" lon="3.66749">
        <ele>96</ele>
        <time>2015-12-13T13:35:43Z</time>
      </trkpt>
      <trkpt lat="50.76307" lon="3.66752">
        <ele>96</ele>
        <time>2015-12-13T13:35:44Z</time>
      </trkpt>
      <trkpt lat="50.76307" lon="3.66756">
        <ele>96</ele>
        <time>2015-12-13T13:35:46Z</time>
      </trkpt>
      <trkpt lat="50.76307" lon="3.66759">
        <ele>97</ele>
        <time>2015-12-13T13:36:18Z</time>
      </trkpt>
      <trkpt lat="50.76307" lon="3.66763">
        <ele>97</ele>
        <time>2015-12-13T13:36:20Z</time>
      </trkpt>
      <trkpt lat="50.76308" lon="3.66768">
        <ele>97</ele>
        <time>2015-12-13T13:36:23Z</time>
      </trkpt>
      <trkpt lat="50.76308" lon="3.66773">
        <ele>97</ele>
        <time>2015-12-13T13:36:25Z</time>
      </trkpt>
      <trkpt lat="50.76309" lon="3.66776">
        <ele>97</ele>
        <time>2015-12-13T13:36:26Z</time>
      </trkpt>
      <trkpt lat="50.76311" lon="3.66778">
        <ele>97</ele>
        <time>2015-12-13T13:36:28Z</time>
      </trkpt>
      <trkpt lat="50.76313" lon="3.66781">
        <ele>97</ele>
        <time>2015-12-13T13:36:31Z</time>
      </trkpt>
      <trkpt lat="50.76314" lon="3.66783">
        <ele>97</ele>
        <time>2015-12-13T13:36:32Z</time>
      </trkpt>
      <trkpt lat="50.76315" lon="3.66787">
        <ele>97</ele>
        <time>2015-12-13T13:36:34Z</time>
      </trkpt>
      <trkpt lat="50.76316" lon="3.6679">
        <ele>97</ele>
        <time>2015-12-13T13:36:36Z</time>
      </trkpt>
      <trkpt lat="50.76317" lon="3.66793">
        <ele>97</ele>
        <time>2015-12-13T13:36:39Z</time>
      </trkpt>
      <trkpt lat="50.76318" lon="3.66799">
        <ele>97</ele>
        <time>2015-12-13T13:36:41Z</time>
      </trkpt>
      <trkpt lat="50.76319" lon="3.66801">
        <ele>97</ele>
        <time>2015-12-13T13:36:42Z</time>
      </trkpt>
      <trkpt lat="50.7632" lon="3.66805">
        <ele>97</ele>
        <time>2015-12-13T13:36:43Z</time>
      </trkpt>
      <trkpt lat="50.76322" lon="3.66808">
        <ele>97</ele>
        <time>2015-12-13T13:36:44Z</time>
      </trkpt>
      <trkpt lat="50.76323" lon="3.6681">
        <ele>97</ele>
        <time>2015-12-13T13:36:45Z</time>
      </trkpt>
      <trkpt lat="50.76325" lon="3.66815">
        <ele>97</ele>
        <time>2015-12-13T13:36:47Z</time>
      </trkpt>
      <trkpt lat="50.76326" lon="3.66818">
        <ele>97</ele>
        <time>2015-12-13T13:36:48Z</time>
      </trkpt>
      <trkpt lat="50.76328" lon="3.66821">
        <ele>97</ele>
        <time>2015-12-13T13:36:49Z</time>
      </trkpt>
      <trkpt lat="50.76329" lon="3.66824">
        <ele>97</ele>
        <time>2015-12-13T13:36:50Z</time>
      </trkpt>
      <trkpt lat="50.76331" lon="3.66827">
        <ele>97</ele>
        <time>2015-12-13T13:36:51Z</time>
      </trkpt>
      <trkpt lat="50.76332" lon="3.6683">
        <ele>97</ele>
        <time>2015-12-13T13:36:52Z</time>
      </trkpt>
      <trkpt lat="50.76334" lon="3.66833">
        <ele>97</ele>
        <time>2015-12-13T13:36:53Z</time>
      </trkpt>
      <trkpt lat="50.76336" lon="3.66836">
        <ele>97</ele>
        <time>2015-12-13T13:36:54Z</time>
      </trkpt>
      <trkpt lat="50.76337" lon="3.6684">
        <ele>97</ele>
        <time>2015-12-13T13:36:55Z</time>
      </trkpt>
      <trkpt lat="50.76339" lon="3.66843">
        <ele>97</ele>
        <time>2015-12-13T13:36:56Z</time>
      </trkpt>
      <trkpt lat="50.7634" lon="3.66846">
        <ele>97</ele>
        <time>2015-12-13T13:36:57Z</time>
      </trkpt>
      <trkpt lat="50.76341" lon="3.66849">
        <ele>97</ele>
        <time>2015-12-13T13:36:58Z</time>
      </trkpt>
      <trkpt lat="50.76342" lon="3.66853">
        <ele>97</ele>
        <time>2015-12-13T13:36:59Z</time>
      </trkpt>
      <trkpt lat="50.76343" lon="3.66856">
        <ele>97</ele>
        <time>2015-12-13T13:37:00Z</time>
      </trkpt>
      <trkpt lat="50.76345" lon="3.66859">
        <ele>97</ele>
        <time>2015-12-13T13:37:01Z</time>
      </trkpt>
      <trkpt lat="50.76346" lon="3.66862">
        <ele>96.3</ele>
        <time>2015-12-13T13:37:02Z</time>
      </trkpt>
      <trkpt lat="50.76348" lon="3.66865">
        <ele>96</ele>
        <time>2015-12-13T13:37:03Z</time>
      </trkpt>
      <trkpt lat="50.7635" lon="3.66869">
        <ele>96</ele>
        <time>2015-12-13T13:37:04Z</time>
      </trkpt>
      <trkpt lat="50.76351" lon="3.66873">
        <ele>96</ele>
        <time>2015-12-13T13:37:05Z</time>
      </trkpt>
      <trkpt lat="50.76353" lon="3.66877">
        <ele>96</ele>
        <time>2015-12-13T13:37:06Z</time>
      </trkpt>
      <trkpt lat="50.76354" lon="3.66879">
        <ele>96</ele>
        <time>2015-12-13T13:37:07Z</time>
      </trkpt>
      <trkpt lat="50.76356" lon="3.66883">
        <ele>96</ele>
        <time>2015-12-13T13:37:08Z</time>
      </trkpt>
      <trkpt lat="50.76357" lon="3.66887">
        <ele>96</ele>
        <time>2015-12-13T13:37:09Z</time>
      </trkpt>
      <trkpt lat="50.76359" lon="3.6689">
        <ele>96</ele>
        <time>2015-12-13T13:37:10Z</time>
      </trkpt>
      <trkpt lat="50.7636" lon="3.66894">
        <ele>96</ele>
        <time>2015-12-13T13:37:11Z</time>
      </trkpt>
      <trkpt lat="50.76362" lon="3.66898">
        <ele>96</ele>
        <time>2015-12-13T13:37:13Z</time>
      </trkpt>
      <trkpt lat="50.76363" lon="3.66902">
        <ele>96</ele>
        <time>2015-12-13T13:37:14Z</time>
      </trkpt>
      <trkpt lat="50.76365" lon="3.66904">
        <ele>96</ele>
        <time>2015-12-13T13:37:15Z</time>
      </trkpt>
      <trkpt lat="50.76366" lon="3.66908">
        <ele>96</ele>
        <time>2015-12-13T13:37:16Z</time>
      </trkpt>
      <trkpt lat="50.76367" lon="3.6691">
        <ele>96</ele>
        <time>2015-12-13T13:37:17Z</time>
      </trkpt>
      <trkpt lat="50.76368" lon="3.66913">
        <ele>96</ele>
        <time>2015-12-13T13:37:18Z</time>
      </trkpt>
      <trkpt lat="50.76369" lon="3.66916">
        <ele>96</ele>
        <time>2015-12-13T13:37:19Z</time>
      </trkpt>
      <trkpt lat="50.76371" lon="3.66919">
        <ele>96</ele>
        <time>2015-12-13T13:37:20Z</time>
      </trkpt>
      <trkpt lat="50.76373" lon="3.66922">
        <ele>96</ele>
        <time>2015-12-13T13:37:21Z</time>
      </trkpt>
      <trkpt lat="50.76374" lon="3.66925">
        <ele>97.4</ele>
        <time>2015-12-13T13:37:22Z</time>
      </trkpt>
      <trkpt lat="50.76375" lon="3.66928">
        <ele>98</ele>
        <time>2015-12-13T13:37:23Z</time>
      </trkpt>
      <trkpt lat="50.76377" lon="3.66931">
        <ele>98</ele>
        <time>2015-12-13T13:37:24Z</time>
      </trkpt>
      <trkpt lat="50.76378" lon="3.66934">
        <ele>98</ele>
        <time>2015-12-13T13:37:25Z</time>
      </trkpt>
      <trkpt lat="50.7638" lon="3.66937">
        <ele>98</ele>
        <time>2015-12-13T13:37:26Z</time>
      </trkpt>
      <trkpt lat="50.76381" lon="3.6694">
        <ele>98</ele>
        <time>2015-12-13T13:37:27Z</time>
      </trkpt>
      <trkpt lat="50.76382" lon="3.66943">
        <ele>98</ele>
        <time>2015-12-13T13:37:28Z</time>
      </trkpt>
      <trkpt lat="50.76383" lon="3.66947">
        <ele>98</ele>
        <time>2015-12-13T13:37:29Z</time>
      </trkpt>
      <trkpt lat="50.76384" lon="3.66949">
        <ele>98</ele>
        <time>2015-12-13T13:37:30Z</time>
      </trkpt>
      <trkpt lat="50.76384" lon="3.66952">
        <ele>98</ele>
        <time>2015-12-13T13:37:31Z</time>
      </trkpt>
      <trkpt lat="50.76385" lon="3.66955">
        <ele>98.5</ele>
        <time>2015-12-13T13:37:32Z</time>
      </trkpt>
      <trkpt lat="50.76389" lon="3.66956">
        <ele>99</ele>
        <time>2015-12-13T13:37:34Z</time>
      </trkpt>
      <trkpt lat="50.7639" lon="3.66957">
        <ele>99</ele>
        <time>2015-12-13T13:37:35Z</time>
      </trkpt>
      <trkpt lat="50.76392" lon="3.66958">
        <ele>99</ele>
        <time>2015-12-13T13:37:36Z</time>
      </trkpt>
      <trkpt lat="50.76394" lon="3.66958">
        <ele>99</ele>
        <time>2015-12-13T13:37:37Z</time>
      </trkpt>
      <trkpt lat="50.76398" lon="3.6696">
        <ele>99</ele>
        <time>2015-12-13T13:37:39Z</time>
      </trkpt>
      <trkpt lat="50.76399" lon="3.66963">
        <ele>99</ele>
        <time>2015-12-13T13:37:40Z</time>
      </trkpt>
      <trkpt lat="50.76401" lon="3.66965">
        <ele>99</ele>
        <time>2015-12-13T13:37:41Z</time>
      </trkpt>
      <trkpt lat="50.76403" lon="3.66968">
        <ele>99</ele>
        <time>2015-12-13T13:37:42Z</time>
      </trkpt>
      <trkpt lat="50.76404" lon="3.6697">
        <ele>99</ele>
        <time>2015-12-13T13:37:43Z</time>
      </trkpt>
      <trkpt lat="50.76405" lon="3.66974">
        <ele>99</ele>
        <time>2015-12-13T13:37:44Z</time>
      </trkpt>
      <trkpt lat="50.76406" lon="3.66976">
        <ele>99</ele>
        <time>2015-12-13T13:37:45Z</time>
      </trkpt>
      <trkpt lat="50.76407" lon="3.6698">
        <ele>99</ele>
        <time>2015-12-13T13:37:46Z</time>
      </trkpt>
      <trkpt lat="50.76407" lon="3.66984">
        <ele>99</ele>
        <time>2015-12-13T13:37:47Z</time>
      </trkpt>
      <trkpt lat="50.76409" lon="3.66987">
        <ele>99</ele>
        <time>2015-12-13T13:37:48Z</time>
      </trkpt>
      <trkpt lat="50.7641" lon="3.66991">
        <ele>99</ele>
        <time>2015-12-13T13:37:49Z</time>
      </trkpt>
      <trkpt lat="50.76412" lon="3.66994">
        <ele>99</ele>
        <time>2015-12-13T13:37:50Z</time>
      </trkpt>
      <trkpt lat="50.76413" lon="3.66997">
        <ele>99</ele>
        <time>2015-12-13T13:37:51Z</time>
      </trkpt>
      <trkpt lat="50.76414" lon="3.67001">
        <ele>98.3</ele>
        <time>2015-12-13T13:37:52Z</time>
      </trkpt>
      <trkpt lat="50.76416" lon="3.67004">
        <ele>98</ele>
        <time>2015-12-13T13:37:53Z</time>
      </trkpt>
      <trkpt lat="50.76418" lon="3.67009">
        <ele>98</ele>
        <time>2015-12-13T13:37:54Z</time>
      </trkpt>
      <trkpt lat="50.76419" lon="3.67012">
        <ele>98</ele>
        <time>2015-12-13T13:37:55Z</time>
      </trkpt>
      <trkpt lat="50.76421" lon="3.67016">
        <ele>98</ele>
        <time>2015-12-13T13:37:56Z</time>
      </trkpt>
      <trkpt lat="50.76422" lon="3.67019">
        <ele>98</ele>
        <time>2015-12-13T13:37:57Z</time>
      </trkpt>
      <trkpt lat="50.76423" lon="3.67022">
        <ele>98</ele>
        <time>2015-12-13T13:37:58Z</time>
      </trkpt>
      <trkpt lat="50.76425" lon="3.67025">
        <ele>98</ele>
        <time>2015-12-13T13:37:59Z</time>
      </trkpt>
      <trkpt lat="50.76426" lon="3.67028">
        <ele>98</ele>
        <time>2015-12-13T13:38:00Z</time>
      </trkpt>
      <trkpt lat="50.76427" lon="3.67032">
        <ele>97.3</ele>
        <time>2015-12-13T13:38:01Z</time>
      </trkpt>
      <trkpt lat="50.76428" lon="3.67035">
        <ele>97</ele>
        <time>2015-12-13T13:38:02Z</time>
      </trkpt>
      <trkpt lat="50.7643" lon="3.67038">
        <ele>97</ele>
        <time>2015-12-13T13:38:03Z</time>
      </trkpt>
      <trkpt lat="50.76431" lon="3.67042">
        <ele>97</ele>
        <time>2015-12-13T13:38:04Z</time>
      </trkpt>
      <trkpt lat="50.76432" lon="3.67045">
        <ele>97</ele>
        <time>2015-12-13T13:38:05Z</time>
      </trkpt>
      <trkpt lat="50.76434" lon="3.67049">
        <ele>97</ele>
        <time>2015-12-13T13:38:06Z</time>
      </trkpt>
      <trkpt lat="50.76435" lon="3.67053">
        <ele>97</ele>
        <time>2015-12-13T13:38:07Z</time>
      </trkpt>
      <trkpt lat="50.76437" lon="3.67057">
        <ele>97</ele>
        <time>2015-12-13T13:38:08Z</time>
      </trkpt>
      <trkpt lat="50.76438" lon="3.6706">
        <ele>97</ele>
        <time>2015-12-13T13:38:09Z</time>
      </trkpt>
      <trkpt lat="50.76438" lon="3.67064">
        <ele>97</ele>
        <time>2015-12-13T13:38:10Z</time>
      </trkpt>
      <trkpt lat="50.76439" lon="3.67068">
        <ele>97</ele>
        <time>2015-12-13T13:38:11Z</time>
      </trkpt>
      <trkpt lat="50.7644" lon="3.67071">
        <ele>97</ele>
        <time>2015-12-13T13:38:12Z</time>
      </trkpt>
      <trkpt lat="50.76441" lon="3.67074">
        <ele>97</ele>
        <time>2015-12-13T13:38:13Z</time>
      </trkpt>
      <trkpt lat="50.76442" lon="3.67077">
        <ele>97</ele>
        <time>2015-12-13T13:38:14Z</time>
      </trkpt>
      <trkpt lat="50.76443" lon="3.6708">
        <ele>97</ele>
        <time>2015-12-13T13:38:15Z</time>
      </trkpt>
      <trkpt lat="50.76444" lon="3.67083">
        <ele>97</ele>
        <time>2015-12-13T13:38:16Z</time>
      </trkpt>
      <trkpt lat="50.76445" lon="3.67086">
        <ele>97</ele>
        <time>2015-12-13T13:38:17Z</time>
      </trkpt>
      <trkpt lat="50.76446" lon="3.67089">
        <ele>97</ele>
        <time>2015-12-13T13:38:18Z</time>
      </trkpt>
      <trkpt lat="50.76447" lon="3.67092">
        <ele>97</ele>
        <time>2015-12-13T13:38:19Z</time>
      </trkpt>
      <trkpt lat="50.76448" lon="3.67095">
        <ele>97</ele>
        <time>2015-12-13T13:38:20Z</time>
      </trkpt>
      <trkpt lat="50.76449" lon="3.67098">
        <ele>94.3</ele>
        <time>2015-12-13T13:38:21Z</time>
      </trkpt>
      <trkpt lat="50.7645" lon="3.67102">
        <ele>93</ele>
        <time>2015-12-13T13:38:22Z</time>
      </trkpt>
      <trkpt lat="50.76451" lon="3.67104">
        <ele>93</ele>
        <time>2015-12-13T13:38:23Z</time>
      </trkpt>
      <trkpt lat="50.76453" lon="3.67107">
        <ele>93</ele>
        <time>2015-12-13T13:38:24Z</time>
      </trkpt>
      <trkpt lat="50.76455" lon="3.67109">
        <ele>93</ele>
        <time>2015-12-13T13:38:25Z</time>
      </trkpt>
      <trkpt lat="50.76456" lon="3.67112">
        <ele>92.3</ele>
        <time>2015-12-13T13:38:26Z</time>
      </trkpt>
      <trkpt lat="50.76458" lon="3.67118">
        <ele>92</ele>
        <time>2015-12-13T13:38:28Z</time>
      </trkpt>
      <trkpt lat="50.7646" lon="3.67119">
        <ele>92</ele>
        <time>2015-12-13T13:38:29Z</time>
      </trkpt>
      <trkpt lat="50.76462" lon="3.67121">
        <ele>92</ele>
        <time>2015-12-13T13:38:31Z</time>
      </trkpt>
      <trkpt lat="50.76465" lon="3.67122">
        <ele>92</ele>
        <time>2015-12-13T13:38:37Z</time>
      </trkpt>
      <trkpt lat="50.76468" lon="3.67124">
        <ele>92</ele>
        <time>2015-12-13T13:38:39Z</time>
      </trkpt>
      <trkpt lat="50.7647" lon="3.67126">
        <ele>92</ele>
        <time>2015-12-13T13:38:40Z</time>
      </trkpt>
      <trkpt lat="50.76471" lon="3.67128">
        <ele>91.3</ele>
        <time>2015-12-13T13:38:41Z</time>
      </trkpt>
      <trkpt lat="50.76473" lon="3.67132">
        <ele>91</ele>
        <time>2015-12-13T13:38:43Z</time>
      </trkpt>
      <trkpt lat="50.76475" lon="3.67136">
        <ele>91</ele>
        <time>2015-12-13T13:38:45Z</time>
      </trkpt>
      <trkpt lat="50.76476" lon="3.67138">
        <ele>91</ele>
        <time>2015-12-13T13:38:46Z</time>
      </trkpt>
      <trkpt lat="50.76477" lon="3.6714">
        <ele>91</ele>
        <time>2015-12-13T13:38:48Z</time>
      </trkpt>
      <trkpt lat="50.76478" lon="3.67143">
        <ele>91</ele>
        <time>2015-12-13T13:38:50Z</time>
      </trkpt>
      <trkpt lat="50.76479" lon="3.67147">
        <ele>92</ele>
        <time>2015-12-13T13:38:52Z</time>
      </trkpt>
      <trkpt lat="50.76479" lon="3.6715">
        <ele>92</ele>
        <time>2015-12-13T13:38:54Z</time>
      </trkpt>
      <trkpt lat="50.76481" lon="3.67154">
        <ele>92</ele>
        <time>2015-12-13T13:38:56Z</time>
      </trkpt>
      <trkpt lat="50.76483" lon="3.67156">
        <ele>92</ele>
        <time>2015-12-13T13:38:59Z</time>
      </trkpt>
      <trkpt lat="50.76485" lon="3.67158">
        <ele>93.4</ele>
        <time>2015-12-13T13:39:01Z</time>
      </trkpt>
      <trkpt lat="50.76486" lon="3.67162">
        <ele>94</ele>
        <time>2015-12-13T13:39:03Z</time>
      </trkpt>
      <trkpt lat="50.76487" lon="3.67165">
        <ele>94</ele>
        <time>2015-12-13T13:39:05Z</time>
      </trkpt>
      <trkpt lat="50.76489" lon="3.67169">
        <ele>95</ele>
        <time>2015-12-13T13:39:07Z</time>
      </trkpt>
      <trkpt lat="50.76492" lon="3.67171">
        <ele>95</ele>
        <time>2015-12-13T13:39:09Z</time>
      </trkpt>
      <trkpt lat="50.76493" lon="3.67172">
        <ele>95</ele>
        <time>2015-12-13T13:39:10Z</time>
      </trkpt>
      <trkpt lat="50.76495" lon="3.67175">
        <ele>97</ele>
        <time>2015-12-13T13:39:12Z</time>
      </trkpt>
      <trkpt lat="50.76498" lon="3.67177">
        <ele>97</ele>
        <time>2015-12-13T13:39:14Z</time>
      </trkpt>
      <trkpt lat="50.765" lon="3.6718">
        <ele>97</ele>
        <time>2015-12-13T13:39:16Z</time>
      </trkpt>
      <trkpt lat="50.76502" lon="3.67184">
        <ele>97</ele>
        <time>2015-12-13T13:39:18Z</time>
      </trkpt>
      <trkpt lat="50.76504" lon="3.67187">
        <ele>97</ele>
        <time>2015-12-13T13:39:20Z</time>
      </trkpt>
      <trkpt lat="50.76505" lon="3.67191">
        <ele>97</ele>
        <time>2015-12-13T13:39:22Z</time>
      </trkpt>
      <trkpt lat="50.76506" lon="3.67196">
        <ele>97</ele>
        <time>2015-12-13T13:39:24Z</time>
      </trkpt>
      <trkpt lat="50.76506" lon="3.67199">
        <ele>97</ele>
        <time>2015-12-13T13:39:25Z</time>
      </trkpt>
      <trkpt lat="50.76506" lon="3.67204">
        <ele>96.3</ele>
        <time>2015-12-13T13:39:27Z</time>
      </trkpt>
      <trkpt lat="50.76507" lon="3.67207">
        <ele>96</ele>
        <time>2015-12-13T13:39:28Z</time>
      </trkpt>
      <trkpt lat="50.76508" lon="3.67209">
        <ele>96</ele>
        <time>2015-12-13T13:39:29Z</time>
      </trkpt>
      <trkpt lat="50.7651" lon="3.67213">
        <ele>96.5</ele>
        <time>2015-12-13T13:39:31Z</time>
      </trkpt>
      <trkpt lat="50.76511" lon="3.67216">
        <ele>97</ele>
        <time>2015-12-13T13:39:32Z</time>
      </trkpt>
      <trkpt lat="50.76512" lon="3.67219">
        <ele>97</ele>
        <time>2015-12-13T13:39:33Z</time>
      </trkpt>
      <trkpt lat="50.76512" lon="3.67225">
        <ele>97</ele>
        <time>2015-12-13T13:39:35Z</time>
      </trkpt>
      <trkpt lat="50.76513" lon="3.6723">
        <ele>97</ele>
        <time>2015-12-13T13:39:37Z</time>
      </trkpt>
      <trkpt lat="50.76514" lon="3.67233">
        <ele>97</ele>
        <time>2015-12-13T13:39:38Z</time>
      </trkpt>
      <trkpt lat="50.76515" lon="3.67237">
        <ele>97</ele>
        <time>2015-12-13T13:39:40Z</time>
      </trkpt>
      <trkpt lat="50.76517" lon="3.67241">
        <ele>98</ele>
        <time>2015-12-13T13:39:42Z</time>
      </trkpt>
      <trkpt lat="50.76518" lon="3.67244">
        <ele>98</ele>
        <time>2015-12-13T13:39:43Z</time>
      </trkpt>
      <trkpt lat="50.7652" lon="3.67248">
        <ele>98</ele>
        <time>2015-12-13T13:39:45Z</time>
      </trkpt>
      <trkpt lat="50.76521" lon="3.6725">
        <ele>98</ele>
        <time>2015-12-13T13:39:46Z</time>
      </trkpt>
      <trkpt lat="50.76523" lon="3.67253">
        <ele>98</ele>
        <time>2015-12-13T13:39:48Z</time>
      </trkpt>
      <trkpt lat="50.76526" lon="3.67255">
        <ele>98</ele>
        <time>2015-12-13T13:39:53Z</time>
      </trkpt>
      <trkpt lat="50.76528" lon="3.67258">
        <ele>98</ele>
        <time>2015-12-13T13:39:55Z</time>
      </trkpt>
      <trkpt lat="50.7653" lon="3.67261">
        <ele>98</ele>
        <time>2015-12-13T13:39:57Z</time>
      </trkpt>
      <trkpt lat="50.76533" lon="3.67264">
        <ele>98</ele>
        <time>2015-12-13T13:39:59Z</time>
      </trkpt>
      <trkpt lat="50.76535" lon="3.67266">
        <ele>98</ele>
        <time>2015-12-13T13:40:01Z</time>
      </trkpt>
      <trkpt lat="50.76536" lon="3.67269">
        <ele>98</ele>
        <time>2015-12-13T13:40:03Z</time>
      </trkpt>
      <trkpt lat="50.76538" lon="3.67271">
        <ele>98</ele>
        <time>2015-12-13T13:40:05Z</time>
      </trkpt>
      <trkpt lat="50.7654" lon="3.67273">
        <ele>98</ele>
        <time>2015-12-13T13:40:07Z</time>
      </trkpt>
      <trkpt lat="50.76543" lon="3.67275">
        <ele>98</ele>
        <time>2015-12-13T13:40:10Z</time>
      </trkpt>
      <trkpt lat="50.76543" lon="3.67278">
        <ele>99</ele>
        <time>2015-12-13T13:40:12Z</time>
      </trkpt>
      <trkpt lat="50.76545" lon="3.67282">
        <ele>99</ele>
        <time>2015-12-13T13:40:14Z</time>
      </trkpt>
      <trkpt lat="50.76546" lon="3.67285">
        <ele>99</ele>
        <time>2015-12-13T13:40:16Z</time>
      </trkpt>
      <trkpt lat="50.76547" lon="3.67289">
        <ele>99</ele>
        <time>2015-12-13T13:40:18Z</time>
      </trkpt>
      <trkpt lat="50.76548" lon="3.67293">
        <ele>99</ele>
        <time>2015-12-13T13:40:20Z</time>
      </trkpt>
      <trkpt lat="50.7655" lon="3.67297">
        <ele>100</ele>
        <time>2015-12-13T13:40:22Z</time>
      </trkpt>
      <trkpt lat="50.76551" lon="3.67301">
        <ele>100</ele>
        <time>2015-12-13T13:40:24Z</time>
      </trkpt>
      <trkpt lat="50.76552" lon="3.67304">
        <ele>100</ele>
        <time>2015-12-13T13:40:26Z</time>
      </trkpt>
      <trkpt lat="50.76553" lon="3.67309">
        <ele>99</ele>
        <time>2015-12-13T13:40:29Z</time>
      </trkpt>
      <trkpt lat="50.76555" lon="3.67312">
        <ele>99</ele>
        <time>2015-12-13T13:40:31Z</time>
      </trkpt>
      <trkpt lat="50.76557" lon="3.67315">
        <ele>99</ele>
        <time>2015-12-13T13:40:33Z</time>
      </trkpt>
      <trkpt lat="50.76558" lon="3.67319">
        <ele>99</ele>
        <time>2015-12-13T13:40:35Z</time>
      </trkpt>
      <trkpt lat="50.76558" lon="3.67322">
        <ele>99</ele>
        <time>2015-12-13T13:40:37Z</time>
      </trkpt>
      <trkpt lat="50.76559" lon="3.67325">
        <ele>99</ele>
        <time>2015-12-13T13:40:39Z</time>
      </trkpt>
      <trkpt lat="50.76561" lon="3.67328">
        <ele>100.4</ele>
        <time>2015-12-13T13:40:41Z</time>
      </trkpt>
      <trkpt lat="50.76562" lon="3.67331">
        <ele>101</ele>
        <time>2015-12-13T13:40:43Z</time>
      </trkpt>
      <trkpt lat="50.76563" lon="3.67334">
        <ele>101</ele>
        <time>2015-12-13T13:40:45Z</time>
      </trkpt>
      <trkpt lat="50.76564" lon="3.67337">
        <ele>101</ele>
        <time>2015-12-13T13:40:47Z</time>
      </trkpt>
      <trkpt lat="50.76565" lon="3.6734">
        <ele>101</ele>
        <time>2015-12-13T13:40:49Z</time>
      </trkpt>
      <trkpt lat="50.76566" lon="3.67342">
        <ele>101</ele>
        <time>2015-12-13T13:40:50Z</time>
      </trkpt>
      <trkpt lat="50.76568" lon="3.67346">
        <ele>101</ele>
        <time>2015-12-13T13:40:52Z</time>
      </trkpt>
      <trkpt lat="50.76569" lon="3.6735">
        <ele>101</ele>
        <time>2015-12-13T13:40:54Z</time>
      </trkpt>
      <trkpt lat="50.7657" lon="3.67353">
        <ele>101</ele>
        <time>2015-12-13T13:40:56Z</time>
      </trkpt>
      <trkpt lat="50.7657" lon="3.67356">
        <ele>101</ele>
        <time>2015-12-13T13:40:58Z</time>
      </trkpt>
      <trkpt lat="50.76571" lon="3.6736">
        <ele>101</ele>
        <time>2015-12-13T13:41:00Z</time>
      </trkpt>
      <trkpt lat="50.76572" lon="3.67363">
        <ele>103</ele>
        <time>2015-12-13T13:41:03Z</time>
      </trkpt>
      <trkpt lat="50.76573" lon="3.67366">
        <ele>103</ele>
        <time>2015-12-13T13:41:05Z</time>
      </trkpt>
      <trkpt lat="50.76573" lon="3.6737">
        <ele>103</ele>
        <time>2015-12-13T13:41:07Z</time>
      </trkpt>
      <trkpt lat="50.76573" lon="3.67374">
        <ele>103</ele>
        <time>2015-12-13T13:41:10Z</time>
      </trkpt>
      <trkpt lat="50.76572" lon="3.67377">
        <ele>104</ele>
        <time>2015-12-13T13:41:12Z</time>
      </trkpt>
      <trkpt lat="50.7657" lon="3.6738">
        <ele>104</ele>
        <time>2015-12-13T13:41:15Z</time>
      </trkpt>
      <trkpt lat="50.76569" lon="3.67383">
        <ele>104</ele>
        <time>2015-12-13T13:41:21Z</time>
      </trkpt>
      <trkpt lat="50.76567" lon="3.67384">
        <ele>104</ele>
        <time>2015-12-13T13:41:25Z</time>
      </trkpt>
      <trkpt lat="50.76564" lon="3.67386">
        <ele>104</ele>
        <time>2015-12-13T13:41:28Z</time>
      </trkpt>
      <trkpt lat="50.76561" lon="3.67388">
        <ele>104</ele>
        <time>2015-12-13T13:41:30Z</time>
      </trkpt>
      <trkpt lat="50.76559" lon="3.67389">
        <ele>105</ele>
        <time>2015-12-13T13:41:32Z</time>
      </trkpt>
      <trkpt lat="50.76556" lon="3.67391">
        <ele>105</ele>
        <time>2015-12-13T13:41:34Z</time>
      </trkpt>
      <trkpt lat="50.76554" lon="3.67392">
        <ele>105</ele>
        <time>2015-12-13T13:41:35Z</time>
      </trkpt>
      <trkpt lat="50.76553" lon="3.67394">
        <ele>105</ele>
        <time>2015-12-13T13:41:36Z</time>
      </trkpt>
      <trkpt lat="50.76551" lon="3.67398">
        <ele>105</ele>
        <time>2015-12-13T13:41:38Z</time>
      </trkpt>
      <trkpt lat="50.7655" lon="3.67403">
        <ele>105</ele>
        <time>2015-12-13T13:41:40Z</time>
      </trkpt>
      <trkpt lat="50.7655" lon="3.67408">
        <ele>106</ele>
        <time>2015-12-13T13:41:42Z</time>
      </trkpt>
      <trkpt lat="50.7655" lon="3.67411">
        <ele>106</ele>
        <time>2015-12-13T13:41:43Z</time>
      </trkpt>
      <trkpt lat="50.7655" lon="3.67414">
        <ele>106</ele>
        <time>2015-12-13T13:41:44Z</time>
      </trkpt>
      <trkpt lat="50.7655" lon="3.67417">
        <ele>106</ele>
        <time>2015-12-13T13:41:45Z</time>
      </trkpt>
      <trkpt lat="50.7655" lon="3.6742">
        <ele>106</ele>
        <time>2015-12-13T13:41:46Z</time>
      </trkpt>
      <trkpt lat="50.7655" lon="3.67424">
        <ele>106</ele>
        <time>2015-12-13T13:41:47Z</time>
      </trkpt>
      <trkpt lat="50.76551" lon="3.67441">
        <ele>107</ele>
        <time>2015-12-13T13:41:53Z</time>
      </trkpt>
      <trkpt lat="50.76552" lon="3.67457">
        <ele>107</ele>
        <time>2015-12-13T13:41:58Z</time>
      </trkpt>
      <trkpt lat="50.76553" lon="3.67472">
        <ele>109</ele>
        <time>2015-12-13T13:42:03Z</time>
      </trkpt>
      <trkpt lat="50.76553" lon="3.67478">
        <ele>109</ele>
        <time>2015-12-13T13:42:05Z</time>
      </trkpt>
      <trkpt lat="50.76553" lon="3.67483">
        <ele>109</ele>
        <time>2015-12-13T13:42:07Z</time>
      </trkpt>
      <trkpt lat="50.76554" lon="3.67497">
        <ele>111</ele>
        <time>2015-12-13T13:42:12Z</time>
      </trkpt>
      <trkpt lat="50.7656" lon="3.67511">
        <ele>111</ele>
        <time>2015-12-13T13:42:19Z</time>
      </trkpt>
      <trkpt lat="50.76565" lon="3.67523">
        <ele>112</ele>
        <time>2015-12-13T13:42:26Z</time>
      </trkpt>
      <trkpt lat="50.76572" lon="3.67534">
        <ele>114</ele>
        <time>2015-12-13T13:42:33Z</time>
      </trkpt>
      <trkpt lat="50.76578" lon="3.67547">
        <ele>114</ele>
        <time>2015-12-13T13:42:40Z</time>
      </trkpt>
      <trkpt lat="50.76583" lon="3.67555">
        <ele>115</ele>
        <time>2015-12-13T13:42:44Z</time>
      </trkpt>
      <trkpt lat="50.76585" lon="3.67558">
        <ele>115</ele>
        <time>2015-12-13T13:42:46Z</time>
      </trkpt>
      <trkpt lat="50.76588" lon="3.67563">
        <ele>115</ele>
        <time>2015-12-13T13:42:49Z</time>
      </trkpt>
      <trkpt lat="50.76592" lon="3.67575">
        <ele>115</ele>
        <time>2015-12-13T13:42:55Z</time>
      </trkpt>
      <trkpt lat="50.76594" lon="3.67578">
        <ele>115</ele>
        <time>2015-12-13T13:42:57Z</time>
      </trkpt>
      <trkpt lat="50.76596" lon="3.6758">
        <ele>115</ele>
        <time>2015-12-13T13:42:59Z</time>
      </trkpt>
      <trkpt lat="50.76598" lon="3.67582">
        <ele>117.2</ele>
        <time>2015-12-13T13:43:01Z</time>
      </trkpt>
      <trkpt lat="50.76607" lon="3.67588">
        <ele>120</ele>
        <time>2015-12-13T13:43:08Z</time>
      </trkpt>
      <trkpt lat="50.76616" lon="3.67598">
        <ele>120</ele>
        <time>2015-12-13T13:43:15Z</time>
      </trkpt>
      <trkpt lat="50.76622" lon="3.67599">
        <ele>120</ele>
        <time>2015-12-13T13:43:19Z</time>
      </trkpt>
      <trkpt lat="50.7663" lon="3.67593">
        <ele>121</ele>
        <time>2015-12-13T13:43:29Z</time>
      </trkpt>
      <trkpt lat="50.76639" lon="3.67592">
        <ele>121</ele>
        <time>2015-12-13T13:43:37Z</time>
      </trkpt>
      <trkpt lat="50.76642" lon="3.67593">
        <ele>121</ele>
        <time>2015-12-13T13:43:39Z</time>
      </trkpt>
      <trkpt lat="50.76644" lon="3.67595">
        <ele>121</ele>
        <time>2015-12-13T13:43:40Z</time>
      </trkpt>
      <trkpt lat="50.76645" lon="3.67598">
        <ele>121</ele>
        <time>2015-12-13T13:43:41Z</time>
      </trkpt>
      <trkpt lat="50.76647" lon="3.67601">
        <ele>121</ele>
        <time>2015-12-13T13:43:42Z</time>
      </trkpt>
      <trkpt lat="50.76648" lon="3.67603">
        <ele>121</ele>
        <time>2015-12-13T13:43:43Z</time>
      </trkpt>
      <trkpt lat="50.7665" lon="3.67605">
        <ele>121</ele>
        <time>2015-12-13T13:43:44Z</time>
      </trkpt>
      <trkpt lat="50.76652" lon="3.6761">
        <ele>121</ele>
        <time>2015-12-13T13:43:46Z</time>
      </trkpt>
      <trkpt lat="50.76654" lon="3.67613">
        <ele>121</ele>
        <time>2015-12-13T13:43:48Z</time>
      </trkpt>
      <trkpt lat="50.76656" lon="3.67617">
        <ele>121</ele>
        <time>2015-12-13T13:43:50Z</time>
      </trkpt>
      <trkpt lat="50.76659" lon="3.67623">
        <ele>122</ele>
        <time>2015-12-13T13:43:53Z</time>
      </trkpt>
      <trkpt lat="50.7666" lon="3.67626">
        <ele>122</ele>
        <time>2015-12-13T13:43:55Z</time>
      </trkpt>
      <trkpt lat="50.76661" lon="3.67629">
        <ele>122</ele>
        <time>2015-12-13T13:43:57Z</time>
      </trkpt>
      <trkpt lat="50.76662" lon="3.67633">
        <ele>122</ele>
        <time>2015-12-13T13:43:59Z</time>
      </trkpt>
      <trkpt lat="50.76664" lon="3.67636">
        <ele>123.4</ele>
        <time>2015-12-13T13:44:01Z</time>
      </trkpt>
      <trkpt lat="50.76666" lon="3.6764">
        <ele>124</ele>
        <time>2015-12-13T13:44:03Z</time>
      </trkpt>
      <trkpt lat="50.76667" lon="3.67644">
        <ele>124</ele>
        <time>2015-12-13T13:44:05Z</time>
      </trkpt>
      <trkpt lat="50.76669" lon="3.67646">
        <ele>124</ele>
        <time>2015-12-13T13:44:06Z</time>
      </trkpt>
      <trkpt lat="50.7667" lon="3.67649">
        <ele>124</ele>
        <time>2015-12-13T13:44:07Z</time>
      </trkpt>
      <trkpt lat="50.76671" lon="3.67653">
        <ele>124</ele>
        <time>2015-12-13T13:44:08Z</time>
      </trkpt>
      <trkpt lat="50.76673" lon="3.67656">
        <ele>124</ele>
        <time>2015-12-13T13:44:09Z</time>
      </trkpt>
      <trkpt lat="50.76674" lon="3.6766">
        <ele>124</ele>
        <time>2015-12-13T13:44:10Z</time>
      </trkpt>
      <trkpt lat="50.76676" lon="3.67664">
        <ele>124</ele>
        <time>2015-12-13T13:44:11Z</time>
      </trkpt>
      <trkpt lat="50.76677" lon="3.67667">
        <ele>124</ele>
        <time>2015-12-13T13:44:12Z</time>
      </trkpt>
      <trkpt lat="50.76679" lon="3.67671">
        <ele>123.3</ele>
        <time>2015-12-13T13:44:13Z</time>
      </trkpt>
      <trkpt lat="50.7668" lon="3.67674">
        <ele>123</ele>
        <time>2015-12-13T13:44:14Z</time>
      </trkpt>
      <trkpt lat="50.76681" lon="3.67677">
        <ele>123</ele>
        <time>2015-12-13T13:44:15Z</time>
      </trkpt>
      <trkpt lat="50.76683" lon="3.6768">
        <ele>123</ele>
        <time>2015-12-13T13:44:16Z</time>
      </trkpt>
      <trkpt lat="50.76684" lon="3.67683">
        <ele>123</ele>
        <time>2015-12-13T13:44:17Z</time>
      </trkpt>
      <trkpt lat="50.76685" lon="3.67687">
        <ele>123</ele>
        <time>2015-12-13T13:44:18Z</time>
      </trkpt>
      <trkpt lat="50.76687" lon="3.6769">
        <ele>123</ele>
        <time>2015-12-13T13:44:19Z</time>
      </trkpt>
      <trkpt lat="50.76688" lon="3.67693">
        <ele>123</ele>
        <time>2015-12-13T13:44:20Z</time>
      </trkpt>
      <trkpt lat="50.7669" lon="3.67697">
        <ele>123</ele>
        <time>2015-12-13T13:44:21Z</time>
      </trkpt>
      <trkpt lat="50.76691" lon="3.677">
        <ele>123</ele>
        <time>2015-12-13T13:44:22Z</time>
      </trkpt>
      <trkpt lat="50.76692" lon="3.67703">
        <ele>123</ele>
        <time>2015-12-13T13:44:23Z</time>
      </trkpt>
      <trkpt lat="50.76694" lon="3.67706">
        <ele>123</ele>
        <time>2015-12-13T13:44:24Z</time>
      </trkpt>
      <trkpt lat="50.76695" lon="3.67709">
        <ele>123</ele>
        <time>2015-12-13T13:44:25Z</time>
      </trkpt>
      <trkpt lat="50.76696" lon="3.67712">
        <ele>123</ele>
        <time>2015-12-13T13:44:26Z</time>
      </trkpt>
      <trkpt lat="50.76697" lon="3.67716">
        <ele>122.3</ele>
        <time>2015-12-13T13:44:27Z</time>
      </trkpt>
      <trkpt lat="50.76698" lon="3.67719">
        <ele>122</ele>
        <time>2015-12-13T13:44:28Z</time>
      </trkpt>
      <trkpt lat="50.76699" lon="3.67722">
        <ele>122</ele>
        <time>2015-12-13T13:44:29Z</time>
      </trkpt>
      <trkpt lat="50.767" lon="3.67725">
        <ele>122</ele>
        <time>2015-12-13T13:44:30Z</time>
      </trkpt>
      <trkpt lat="50.76701" lon="3.67728">
        <ele>122</ele>
        <time>2015-12-13T13:44:31Z</time>
      </trkpt>
      <trkpt lat="50.76702" lon="3.67731">
        <ele>122</ele>
        <time>2015-12-13T13:44:32Z</time>
      </trkpt>
      <trkpt lat="50.76704" lon="3.67734">
        <ele>122</ele>
        <time>2015-12-13T13:44:33Z</time>
      </trkpt>
      <trkpt lat="50.76706" lon="3.67738">
        <ele>122</ele>
        <time>2015-12-13T13:44:35Z</time>
      </trkpt>
      <trkpt lat="50.76708" lon="3.67742">
        <ele>122</ele>
        <time>2015-12-13T13:44:37Z</time>
      </trkpt>
      <trkpt lat="50.76709" lon="3.67746">
        <ele>122</ele>
        <time>2015-12-13T13:44:39Z</time>
      </trkpt>
      <trkpt lat="50.76711" lon="3.67752">
        <ele>121</ele>
        <time>2015-12-13T13:45:02Z</time>
      </trkpt>
      <trkpt lat="50.76713" lon="3.67755">
        <ele>121</ele>
        <time>2015-12-13T13:45:04Z</time>
      </trkpt>
      <trkpt lat="50.76715" lon="3.67759">
        <ele>121</ele>
        <time>2015-12-13T13:45:06Z</time>
      </trkpt>
      <trkpt lat="50.76717" lon="3.67763">
        <ele>121</ele>
        <time>2015-12-13T13:45:08Z</time>
      </trkpt>
      <trkpt lat="50.76718" lon="3.67765">
        <ele>121</ele>
        <time>2015-12-13T13:45:09Z</time>
      </trkpt>
      <trkpt lat="50.7672" lon="3.67768">
        <ele>121</ele>
        <time>2015-12-13T13:45:10Z</time>
      </trkpt>
      <trkpt lat="50.76721" lon="3.67771">
        <ele>121</ele>
        <time>2015-12-13T13:45:11Z</time>
      </trkpt>
      <trkpt lat="50.76723" lon="3.67773">
        <ele>121</ele>
        <time>2015-12-13T13:45:12Z</time>
      </trkpt>
      <trkpt lat="50.76725" lon="3.67775">
        <ele>121</ele>
        <time>2015-12-13T13:45:13Z</time>
      </trkpt>
      <trkpt lat="50.76727" lon="3.67778">
        <ele>121</ele>
        <time>2015-12-13T13:45:14Z</time>
      </trkpt>
      <trkpt lat="50.76728" lon="3.6778">
        <ele>121</ele>
        <time>2015-12-13T13:45:15Z</time>
      </trkpt>
      <trkpt lat="50.7673" lon="3.67783">
        <ele>121</ele>
        <time>2015-12-13T13:45:16Z</time>
      </trkpt>
      <trkpt lat="50.76731" lon="3.67785">
        <ele>121</ele>
        <time>2015-12-13T13:45:17Z</time>
      </trkpt>
      <trkpt lat="50.76733" lon="3.67788">
        <ele>121</ele>
        <time>2015-12-13T13:45:18Z</time>
      </trkpt>
      <trkpt lat="50.76734" lon="3.6779">
        <ele>121</ele>
        <time>2015-12-13T13:45:19Z</time>
      </trkpt>
      <trkpt lat="50.76736" lon="3.67792">
        <ele>121</ele>
        <time>2015-12-13T13:45:20Z</time>
      </trkpt>
      <trkpt lat="50.76737" lon="3.67795">
        <ele>121</ele>
        <time>2015-12-13T13:45:21Z</time>
      </trkpt>
      <trkpt lat="50.76739" lon="3.67798">
        <ele>121</ele>
        <time>2015-12-13T13:45:22Z</time>
      </trkpt>
      <trkpt lat="50.7674" lon="3.678">
        <ele>121</ele>
        <time>2015-12-13T13:45:23Z</time>
      </trkpt>
      <trkpt lat="50.76741" lon="3.67803">
        <ele>121</ele>
        <time>2015-12-13T13:45:24Z</time>
      </trkpt>
      <trkpt lat="50.76743" lon="3.67806">
        <ele>121</ele>
        <time>2015-12-13T13:45:25Z</time>
      </trkpt>
      <trkpt lat="50.76745" lon="3.67809">
        <ele>121</ele>
        <time>2015-12-13T13:45:26Z</time>
      </trkpt>
      <trkpt lat="50.76747" lon="3.67811">
        <ele>121</ele>
        <time>2015-12-13T13:45:27Z</time>
      </trkpt>
      <trkpt lat="50.76749" lon="3.67815">
        <ele>121</ele>
        <time>2015-12-13T13:45:29Z</time>
      </trkpt>
      <trkpt lat="50.76751" lon="3.67817">
        <ele>119</ele>
        <time>2015-12-13T13:45:39Z</time>
      </trkpt>
      <trkpt lat="50.76752" lon="3.67819">
        <ele>119</ele>
        <time>2015-12-13T13:45:40Z</time>
      </trkpt>
      <trkpt lat="50.76754" lon="3.67822">
        <ele>118.3</ele>
        <time>2015-12-13T13:45:41Z</time>
      </trkpt>
      <trkpt lat="50.76755" lon="3.67825">
        <ele>118</ele>
        <time>2015-12-13T13:45:42Z</time>
      </trkpt>
      <trkpt lat="50.76757" lon="3.67828">
        <ele>118</ele>
        <time>2015-12-13T13:45:43Z</time>
      </trkpt>
      <trkpt lat="50.76759" lon="3.67831">
        <ele>118</ele>
        <time>2015-12-13T13:45:44Z</time>
      </trkpt>
      <trkpt lat="50.76761" lon="3.67834">
        <ele>118</ele>
        <time>2015-12-13T13:45:45Z</time>
      </trkpt>
      <trkpt lat="50.76763" lon="3.67837">
        <ele>118</ele>
        <time>2015-12-13T13:45:46Z</time>
      </trkpt>
      <trkpt lat="50.76765" lon="3.6784">
        <ele>118</ele>
        <time>2015-12-13T13:45:47Z</time>
      </trkpt>
      <trkpt lat="50.76767" lon="3.67843">
        <ele>118</ele>
        <time>2015-12-13T13:45:48Z</time>
      </trkpt>
      <trkpt lat="50.76769" lon="3.67846">
        <ele>118</ele>
        <time>2015-12-13T13:45:49Z</time>
      </trkpt>
      <trkpt lat="50.7677" lon="3.67849">
        <ele>118</ele>
        <time>2015-12-13T13:45:50Z</time>
      </trkpt>
      <trkpt lat="50.76772" lon="3.67852">
        <ele>115.9</ele>
        <time>2015-12-13T13:45:51Z</time>
      </trkpt>
      <trkpt lat="50.76774" lon="3.67855">
        <ele>114</ele>
        <time>2015-12-13T13:45:52Z</time>
      </trkpt>
      <trkpt lat="50.76776" lon="3.67858">
        <ele>114</ele>
        <time>2015-12-13T13:45:53Z</time>
      </trkpt>
      <trkpt lat="50.76778" lon="3.6786">
        <ele>114</ele>
        <time>2015-12-13T13:45:54Z</time>
      </trkpt>
      <trkpt lat="50.76779" lon="3.67863">
        <ele>114</ele>
        <time>2015-12-13T13:45:55Z</time>
      </trkpt>
      <trkpt lat="50.76781" lon="3.67866">
        <ele>114</ele>
        <time>2015-12-13T13:45:56Z</time>
      </trkpt>
      <trkpt lat="50.76783" lon="3.67869">
        <ele>114</ele>
        <time>2015-12-13T13:45:57Z</time>
      </trkpt>
      <trkpt lat="50.76785" lon="3.67872">
        <ele>114</ele>
        <time>2015-12-13T13:45:58Z</time>
      </trkpt>
      <trkpt lat="50.76787" lon="3.67874">
        <ele>114</ele>
        <time>2015-12-13T13:45:59Z</time>
      </trkpt>
      <trkpt lat="50.76789" lon="3.67877">
        <ele>114</ele>
        <time>2015-12-13T13:46:00Z</time>
      </trkpt>
      <trkpt lat="50.76791" lon="3.6788">
        <ele>112.6</ele>
        <time>2015-12-13T13:46:01Z</time>
      </trkpt>
      <trkpt lat="50.76793" lon="3.67883">
        <ele>112</ele>
        <time>2015-12-13T13:46:02Z</time>
      </trkpt>
      <trkpt lat="50.76795" lon="3.67886">
        <ele>112</ele>
        <time>2015-12-13T13:46:03Z</time>
      </trkpt>
      <trkpt lat="50.76797" lon="3.67889">
        <ele>112</ele>
        <time>2015-12-13T13:46:04Z</time>
      </trkpt>
      <trkpt lat="50.76799" lon="3.67892">
        <ele>112</ele>
        <time>2015-12-13T13:46:05Z</time>
      </trkpt>
      <trkpt lat="50.76801" lon="3.67894">
        <ele>112.7</ele>
        <time>2015-12-13T13:46:06Z</time>
      </trkpt>
      <trkpt lat="50.76802" lon="3.67897">
        <ele>113</ele>
        <time>2015-12-13T13:46:07Z</time>
      </trkpt>
      <trkpt lat="50.76804" lon="3.67899">
        <ele>113</ele>
        <time>2015-12-13T13:46:08Z</time>
      </trkpt>
      <trkpt lat="50.76806" lon="3.67901">
        <ele>113</ele>
        <time>2015-12-13T13:46:09Z</time>
      </trkpt>
      <trkpt lat="50.76808" lon="3.67904">
        <ele>113</ele>
        <time>2015-12-13T13:46:10Z</time>
      </trkpt>
      <trkpt lat="50.7681" lon="3.67906">
        <ele>113</ele>
        <time>2015-12-13T13:46:11Z</time>
      </trkpt>
      <trkpt lat="50.76811" lon="3.67909">
        <ele>113</ele>
        <time>2015-12-13T13:46:12Z</time>
      </trkpt>
      <trkpt lat="50.76814" lon="3.67911">
        <ele>113</ele>
        <time>2015-12-13T13:46:13Z</time>
      </trkpt>
      <trkpt lat="50.76815" lon="3.67914">
        <ele>113</ele>
        <time>2015-12-13T13:46:14Z</time>
      </trkpt>
      <trkpt lat="50.76817" lon="3.67916">
        <ele>113</ele>
        <time>2015-12-13T13:46:15Z</time>
      </trkpt>
      <trkpt lat="50.76819" lon="3.67918">
        <ele>113</ele>
        <time>2015-12-13T13:46:16Z</time>
      </trkpt>
      <trkpt lat="50.76821" lon="3.67921">
        <ele>113</ele>
        <time>2015-12-13T13:46:17Z</time>
      </trkpt>
      <trkpt lat="50.76823" lon="3.67923">
        <ele>113</ele>
        <time>2015-12-13T13:46:18Z</time>
      </trkpt>
      <trkpt lat="50.76825" lon="3.67926">
        <ele>113</ele>
        <time>2015-12-13T13:46:19Z</time>
      </trkpt>
      <trkpt lat="50.76827" lon="3.67928">
        <ele>113</ele>
        <time>2015-12-13T13:46:20Z</time>
      </trkpt>
      <trkpt lat="50.76829" lon="3.67931">
        <ele>113</ele>
        <time>2015-12-13T13:46:21Z</time>
      </trkpt>
      <trkpt lat="50.76831" lon="3.67933">
        <ele>113</ele>
        <time>2015-12-13T13:46:22Z</time>
      </trkpt>
      <trkpt lat="50.76833" lon="3.67936">
        <ele>113</ele>
        <time>2015-12-13T13:46:23Z</time>
      </trkpt>
      <trkpt lat="50.76835" lon="3.67938">
        <ele>113</ele>
        <time>2015-12-13T13:46:24Z</time>
      </trkpt>
      <trkpt lat="50.76838" lon="3.6794">
        <ele>113</ele>
        <time>2015-12-13T13:46:25Z</time>
      </trkpt>
      <trkpt lat="50.76839" lon="3.67942">
        <ele>113</ele>
        <time>2015-12-13T13:46:26Z</time>
      </trkpt>
      <trkpt lat="50.76841" lon="3.67944">
        <ele>113</ele>
        <time>2015-12-13T13:46:27Z</time>
      </trkpt>
      <trkpt lat="50.76843" lon="3.67946">
        <ele>113</ele>
        <time>2015-12-13T13:46:28Z</time>
      </trkpt>
      <trkpt lat="50.76845" lon="3.67948">
        <ele>113</ele>
        <time>2015-12-13T13:46:29Z</time>
      </trkpt>
      <trkpt lat="50.76847" lon="3.6795">
        <ele>113</ele>
        <time>2015-12-13T13:46:30Z</time>
      </trkpt>
      <trkpt lat="50.76849" lon="3.67952">
        <ele>113</ele>
        <time>2015-12-13T13:46:31Z</time>
      </trkpt>
      <trkpt lat="50.7685" lon="3.67955">
        <ele>113</ele>
        <time>2015-12-13T13:46:32Z</time>
      </trkpt>
      <trkpt lat="50.76853" lon="3.67957">
        <ele>113</ele>
        <time>2015-12-13T13:46:33Z</time>
      </trkpt>
      <trkpt lat="50.76855" lon="3.67959">
        <ele>113</ele>
        <time>2015-12-13T13:46:34Z</time>
      </trkpt>
      <trkpt lat="50.76857" lon="3.67961">
        <ele>113</ele>
        <time>2015-12-13T13:46:35Z</time>
      </trkpt>
      <trkpt lat="50.76859" lon="3.67964">
        <ele>113</ele>
        <time>2015-12-13T13:46:36Z</time>
      </trkpt>
      <trkpt lat="50.76861" lon="3.67967">
        <ele>113</ele>
        <time>2015-12-13T13:46:37Z</time>
      </trkpt>
      <trkpt lat="50.76863" lon="3.67969">
        <ele>113</ele>
        <time>2015-12-13T13:46:38Z</time>
      </trkpt>
      <trkpt lat="50.76865" lon="3.67971">
        <ele>113</ele>
        <time>2015-12-13T13:46:39Z</time>
      </trkpt>
      <trkpt lat="50.76867" lon="3.67973">
        <ele>113</ele>
        <time>2015-12-13T13:46:40Z</time>
      </trkpt>
      <trkpt lat="50.76868" lon="3.67976">
        <ele>113.7</ele>
        <time>2015-12-13T13:46:41Z</time>
      </trkpt>
      <trkpt lat="50.7687" lon="3.67978">
        <ele>114</ele>
        <time>2015-12-13T13:46:42Z</time>
      </trkpt>
      <trkpt lat="50.76872" lon="3.6798">
        <ele>114</ele>
        <time>2015-12-13T13:46:43Z</time>
      </trkpt>
      <trkpt lat="50.76874" lon="3.67983">
        <ele>114</ele>
        <time>2015-12-13T13:46:44Z</time>
      </trkpt>
      <trkpt lat="50.76875" lon="3.67985">
        <ele>114</ele>
        <time>2015-12-13T13:46:45Z</time>
      </trkpt>
      <trkpt lat="50.76877" lon="3.67987">
        <ele>114</ele>
        <time>2015-12-13T13:46:46Z</time>
      </trkpt>
      <trkpt lat="50.76879" lon="3.67989">
        <ele>113.3</ele>
        <time>2015-12-13T13:46:47Z</time>
      </trkpt>
      <trkpt lat="50.76881" lon="3.67991">
        <ele>113</ele>
        <time>2015-12-13T13:46:48Z</time>
      </trkpt>
      <trkpt lat="50.76883" lon="3.67993">
        <ele>113</ele>
        <time>2015-12-13T13:46:49Z</time>
      </trkpt>
      <trkpt lat="50.76884" lon="3.67994">
        <ele>113</ele>
        <time>2015-12-13T13:46:50Z</time>
      </trkpt>
      <trkpt lat="50.76886" lon="3.67996">
        <ele>113</ele>
        <time>2015-12-13T13:46:51Z</time>
      </trkpt>
      <trkpt lat="50.76888" lon="3.67999">
        <ele>113</ele>
        <time>2015-12-13T13:46:52Z</time>
      </trkpt>
      <trkpt lat="50.7689" lon="3.68001">
        <ele>113</ele>
        <time>2015-12-13T13:46:53Z</time>
      </trkpt>
      <trkpt lat="50.76892" lon="3.68003">
        <ele>113</ele>
        <time>2015-12-13T13:46:54Z</time>
      </trkpt>
      <trkpt lat="50.76894" lon="3.68005">
        <ele>113</ele>
        <time>2015-12-13T13:46:55Z</time>
      </trkpt>
      <trkpt lat="50.76896" lon="3.68007">
        <ele>113</ele>
        <time>2015-12-13T13:46:56Z</time>
      </trkpt>
      <trkpt lat="50.76898" lon="3.68008">
        <ele>113</ele>
        <time>2015-12-13T13:46:57Z</time>
      </trkpt>
      <trkpt lat="50.76899" lon="3.6801">
        <ele>113</ele>
        <time>2015-12-13T13:46:58Z</time>
      </trkpt>
      <trkpt lat="50.76901" lon="3.68013">
        <ele>113</ele>
        <time>2015-12-13T13:46:59Z</time>
      </trkpt>
      <trkpt lat="50.76902" lon="3.68016">
        <ele>113</ele>
        <time>2015-12-13T13:47:00Z</time>
      </trkpt>
      <trkpt lat="50.76905" lon="3.68018">
        <ele>113</ele>
        <time>2015-12-13T13:47:01Z</time>
      </trkpt>
      <trkpt lat="50.76907" lon="3.6802">
        <ele>113</ele>
        <time>2015-12-13T13:47:02Z</time>
      </trkpt>
      <trkpt lat="50.76909" lon="3.68022">
        <ele>113</ele>
        <time>2015-12-13T13:47:03Z</time>
      </trkpt>
      <trkpt lat="50.76911" lon="3.68024">
        <ele>113</ele>
        <time>2015-12-13T13:47:04Z</time>
      </trkpt>
      <trkpt lat="50.76913" lon="3.68027">
        <ele>113</ele>
        <time>2015-12-13T13:47:05Z</time>
      </trkpt>
      <trkpt lat="50.76915" lon="3.68029">
        <ele>113</ele>
        <time>2015-12-13T13:47:06Z</time>
      </trkpt>
      <trkpt lat="50.76916" lon="3.68032">
        <ele>113</ele>
        <time>2015-12-13T13:47:07Z</time>
      </trkpt>
      <trkpt lat="50.76918" lon="3.68034">
        <ele>113</ele>
        <time>2015-12-13T13:47:08Z</time>
      </trkpt>
      <trkpt lat="50.7692" lon="3.68036">
        <ele>113</ele>
        <time>2015-12-13T13:47:09Z</time>
      </trkpt>
      <trkpt lat="50.76922" lon="3.68038">
        <ele>113</ele>
        <time>2015-12-13T13:47:10Z</time>
      </trkpt>
      <trkpt lat="50.76924" lon="3.68041">
        <ele>113</ele>
        <time>2015-12-13T13:47:11Z</time>
      </trkpt>
      <trkpt lat="50.76926" lon="3.68044">
        <ele>113</ele>
        <time>2015-12-13T13:47:12Z</time>
      </trkpt>
      <trkpt lat="50.76928" lon="3.68046">
        <ele>113</ele>
        <time>2015-12-13T13:47:13Z</time>
      </trkpt>
      <trkpt lat="50.7693" lon="3.68048">
        <ele>113</ele>
        <time>2015-12-13T13:47:14Z</time>
      </trkpt>
      <trkpt lat="50.76931" lon="3.6805">
        <ele>113</ele>
        <time>2015-12-13T13:47:15Z</time>
      </trkpt>
      <trkpt lat="50.76933" lon="3.68052">
        <ele>113</ele>
        <time>2015-12-13T13:47:16Z</time>
      </trkpt>
      <trkpt lat="50.76935" lon="3.68054">
        <ele>113</ele>
        <time>2015-12-13T13:47:17Z</time>
      </trkpt>
      <trkpt lat="50.76937" lon="3.68056">
        <ele>113</ele>
        <time>2015-12-13T13:47:18Z</time>
      </trkpt>
      <trkpt lat="50.76939" lon="3.68058">
        <ele>113</ele>
        <time>2015-12-13T13:47:19Z</time>
      </trkpt>
      <trkpt lat="50.76941" lon="3.68061">
        <ele>113</ele>
        <time>2015-12-13T13:47:20Z</time>
      </trkpt>
      <trkpt lat="50.76943" lon="3.68063">
        <ele>113</ele>
        <time>2015-12-13T13:47:21Z</time>
      </trkpt>
      <trkpt lat="50.76945" lon="3.68065">
        <ele>113</ele>
        <time>2015-12-13T13:47:22Z</time>
      </trkpt>
      <trkpt lat="50.76947" lon="3.68068">
        <ele>113</ele>
        <time>2015-12-13T13:47:23Z</time>
      </trkpt>
      <trkpt lat="50.76949" lon="3.6807">
        <ele>113</ele>
        <time>2015-12-13T13:47:24Z</time>
      </trkpt>
      <trkpt lat="50.76951" lon="3.68073">
        <ele>113</ele>
        <time>2015-12-13T13:47:25Z</time>
      </trkpt>
      <trkpt lat="50.76953" lon="3.68075">
        <ele>113</ele>
        <time>2015-12-13T13:47:26Z</time>
      </trkpt>
      <trkpt lat="50.76955" lon="3.68078">
        <ele>113</ele>
        <time>2015-12-13T13:47:27Z</time>
      </trkpt>
      <trkpt lat="50.76956" lon="3.6808">
        <ele>113</ele>
        <time>2015-12-13T13:47:28Z</time>
      </trkpt>
      <trkpt lat="50.76958" lon="3.68082">
        <ele>113</ele>
        <time>2015-12-13T13:47:29Z</time>
      </trkpt>
      <trkpt lat="50.7696" lon="3.68085">
        <ele>113</ele>
        <time>2015-12-13T13:47:30Z</time>
      </trkpt>
      <trkpt lat="50.76963" lon="3.68087">
        <ele>113</ele>
        <time>2015-12-13T13:47:31Z</time>
      </trkpt>
      <trkpt lat="50.76965" lon="3.68089">
        <ele>113</ele>
        <time>2015-12-13T13:47:32Z</time>
      </trkpt>
      <trkpt lat="50.76966" lon="3.68092">
        <ele>113</ele>
        <time>2015-12-13T13:47:33Z</time>
      </trkpt>
      <trkpt lat="50.76968" lon="3.68094">
        <ele>113</ele>
        <time>2015-12-13T13:47:34Z</time>
      </trkpt>
      <trkpt lat="50.7697" lon="3.68097">
        <ele>113</ele>
        <time>2015-12-13T13:47:35Z</time>
      </trkpt>
      <trkpt lat="50.76972" lon="3.68099">
        <ele>113</ele>
        <time>2015-12-13T13:47:36Z</time>
      </trkpt>
      <trkpt lat="50.76974" lon="3.68101">
        <ele>113</ele>
        <time>2015-12-13T13:47:37Z</time>
      </trkpt>
      <trkpt lat="50.76976" lon="3.68104">
        <ele>113</ele>
        <time>2015-12-13T13:47:38Z</time>
      </trkpt>
      <trkpt lat="50.76978" lon="3.68106">
        <ele>113</ele>
        <time>2015-12-13T13:47:39Z</time>
      </trkpt>
      <trkpt lat="50.7698" lon="3.68109">
        <ele>113</ele>
        <time>2015-12-13T13:47:40Z</time>
      </trkpt>
      <trkpt lat="50.76982" lon="3.68111">
        <ele>112.3</ele>
        <time>2015-12-13T13:47:41Z</time>
      </trkpt>
      <trkpt lat="50.76984" lon="3.68114">
        <ele>112</ele>
        <time>2015-12-13T13:47:42Z</time>
      </trkpt>
      <trkpt lat="50.76986" lon="3.68116">
        <ele>112</ele>
        <time>2015-12-13T13:47:43Z</time>
      </trkpt>
      <trkpt lat="50.76989" lon="3.68118">
        <ele>112</ele>
        <time>2015-12-13T13:47:44Z</time>
      </trkpt>
      <trkpt lat="50.76991" lon="3.6812">
        <ele>112</ele>
        <time>2015-12-13T13:47:45Z</time>
      </trkpt>
      <trkpt lat="50.76992" lon="3.68122">
        <ele>112</ele>
        <time>2015-12-13T13:47:46Z</time>
      </trkpt>
      <trkpt lat="50.76994" lon="3.68124">
        <ele>112</ele>
        <time>2015-12-13T13:47:47Z</time>
      </trkpt>
      <trkpt lat="50.76996" lon="3.68126">
        <ele>112</ele>
        <time>2015-12-13T13:47:48Z</time>
      </trkpt>
      <trkpt lat="50.76998" lon="3.68128">
        <ele>112</ele>
        <time>2015-12-13T13:47:49Z</time>
      </trkpt>
      <trkpt lat="50.76999" lon="3.6813">
        <ele>112</ele>
        <time>2015-12-13T13:47:50Z</time>
      </trkpt>
      <trkpt lat="50.77001" lon="3.68133">
        <ele>111.5</ele>
        <time>2015-12-13T13:47:51Z</time>
      </trkpt>
      <trkpt lat="50.77003" lon="3.68135">
        <ele>111</ele>
        <time>2015-12-13T13:47:52Z</time>
      </trkpt>
      <trkpt lat="50.77005" lon="3.68138">
        <ele>111</ele>
        <time>2015-12-13T13:47:53Z</time>
      </trkpt>
      <trkpt lat="50.77007" lon="3.6814">
        <ele>111</ele>
        <time>2015-12-13T13:47:54Z</time>
      </trkpt>
      <trkpt lat="50.77009" lon="3.68142">
        <ele>111</ele>
        <time>2015-12-13T13:47:55Z</time>
      </trkpt>
      <trkpt lat="50.77011" lon="3.68145">
        <ele>111</ele>
        <time>2015-12-13T13:47:56Z</time>
      </trkpt>
      <trkpt lat="50.77012" lon="3.68147">
        <ele>111</ele>
        <time>2015-12-13T13:47:57Z</time>
      </trkpt>
      <trkpt lat="50.77014" lon="3.68149">
        <ele>111</ele>
        <time>2015-12-13T13:47:58Z</time>
      </trkpt>
      <trkpt lat="50.77016" lon="3.6815">
        <ele>111</ele>
        <time>2015-12-13T13:47:59Z</time>
      </trkpt>
      <trkpt lat="50.77018" lon="3.68153">
        <ele>111</ele>
        <time>2015-12-13T13:48:00Z</time>
      </trkpt>
      <trkpt lat="50.7702" lon="3.68155">
        <ele>111</ele>
        <time>2015-12-13T13:48:01Z</time>
      </trkpt>
      <trkpt lat="50.77021" lon="3.68157">
        <ele>111</ele>
        <time>2015-12-13T13:48:02Z</time>
      </trkpt>
      <trkpt lat="50.77023" lon="3.68159">
        <ele>111</ele>
        <time>2015-12-13T13:48:03Z</time>
      </trkpt>
      <trkpt lat="50.77025" lon="3.68161">
        <ele>111</ele>
        <time>2015-12-13T13:48:04Z</time>
      </trkpt>
      <trkpt lat="50.77027" lon="3.68164">
        <ele>111</ele>
        <time>2015-12-13T13:48:05Z</time>
      </trkpt>
      <trkpt lat="50.77029" lon="3.68166">
        <ele>111</ele>
        <time>2015-12-13T13:48:06Z</time>
      </trkpt>
      <trkpt lat="50.7703" lon="3.68167">
        <ele>111</ele>
        <time>2015-12-13T13:48:07Z</time>
      </trkpt>
      <trkpt lat="50.77032" lon="3.6817">
        <ele>111</ele>
        <time>2015-12-13T13:48:08Z</time>
      </trkpt>
      <trkpt lat="50.77034" lon="3.68172">
        <ele>111</ele>
        <time>2015-12-13T13:48:09Z</time>
      </trkpt>
      <trkpt lat="50.77035" lon="3.68174">
        <ele>111</ele>
        <time>2015-12-13T13:48:10Z</time>
      </trkpt>
      <trkpt lat="50.77037" lon="3.68177">
        <ele>111</ele>
        <time>2015-12-13T13:48:11Z</time>
      </trkpt>
      <trkpt lat="50.77039" lon="3.68179">
        <ele>111</ele>
        <time>2015-12-13T13:48:12Z</time>
      </trkpt>
      <trkpt lat="50.77041" lon="3.68181">
        <ele>111</ele>
        <time>2015-12-13T13:48:13Z</time>
      </trkpt>
      <trkpt lat="50.77042" lon="3.68183">
        <ele>111</ele>
        <time>2015-12-13T13:48:14Z</time>
      </trkpt>
      <trkpt lat="50.77044" lon="3.68186">
        <ele>111</ele>
        <time>2015-12-13T13:48:15Z</time>
      </trkpt>
      <trkpt lat="50.77046" lon="3.68188">
        <ele>111</ele>
        <time>2015-12-13T13:48:16Z</time>
      </trkpt>
      <trkpt lat="50.77048" lon="3.6819">
        <ele>111</ele>
        <time>2015-12-13T13:48:17Z</time>
      </trkpt>
      <trkpt lat="50.7705" lon="3.68192">
        <ele>111</ele>
        <time>2015-12-13T13:48:18Z</time>
      </trkpt>
      <trkpt lat="50.77051" lon="3.68194">
        <ele>111</ele>
        <time>2015-12-13T13:48:19Z</time>
      </trkpt>
      <trkpt lat="50.77053" lon="3.68195">
        <ele>111</ele>
        <time>2015-12-13T13:48:20Z</time>
      </trkpt>
      <trkpt lat="50.77055" lon="3.68197">
        <ele>110.3</ele>
        <time>2015-12-13T13:48:21Z</time>
      </trkpt>
      <trkpt lat="50.77057" lon="3.68199">
        <ele>110</ele>
        <time>2015-12-13T13:48:22Z</time>
      </trkpt>
      <trkpt lat="50.77059" lon="3.68201">
        <ele>110</ele>
        <time>2015-12-13T13:48:23Z</time>
      </trkpt>
      <trkpt lat="50.7706" lon="3.68204">
        <ele>110</ele>
        <time>2015-12-13T13:48:24Z</time>
      </trkpt>
      <trkpt lat="50.77062" lon="3.68206">
        <ele>110</ele>
        <time>2015-12-13T13:48:25Z</time>
      </trkpt>
      <trkpt lat="50.77064" lon="3.68208">
        <ele>110</ele>
        <time>2015-12-13T13:48:26Z</time>
      </trkpt>
      <trkpt lat="50.77066" lon="3.6821">
        <ele>110</ele>
        <time>2015-12-13T13:48:27Z</time>
      </trkpt>
      <trkpt lat="50.77068" lon="3.68212">
        <ele>110</ele>
        <time>2015-12-13T13:48:28Z</time>
      </trkpt>
      <trkpt lat="50.7707" lon="3.68214">
        <ele>110</ele>
        <time>2015-12-13T13:48:29Z</time>
      </trkpt>
      <trkpt lat="50.77072" lon="3.68216">
        <ele>110</ele>
        <time>2015-12-13T13:48:30Z</time>
      </trkpt>
      <trkpt lat="50.77074" lon="3.68219">
        <ele>109.3</ele>
        <time>2015-12-13T13:48:31Z</time>
      </trkpt>
      <trkpt lat="50.77076" lon="3.68221">
        <ele>109</ele>
        <time>2015-12-13T13:48:32Z</time>
      </trkpt>
      <trkpt lat="50.77078" lon="3.68223">
        <ele>109</ele>
        <time>2015-12-13T13:48:33Z</time>
      </trkpt>
      <trkpt lat="50.77079" lon="3.68226">
        <ele>109</ele>
        <time>2015-12-13T13:48:34Z</time>
      </trkpt>
      <trkpt lat="50.77081" lon="3.68228">
        <ele>109</ele>
        <time>2015-12-13T13:48:35Z</time>
      </trkpt>
      <trkpt lat="50.77083" lon="3.6823">
        <ele>109</ele>
        <time>2015-12-13T13:48:36Z</time>
      </trkpt>
      <trkpt lat="50.77085" lon="3.68232">
        <ele>109</ele>
        <time>2015-12-13T13:48:37Z</time>
      </trkpt>
      <trkpt lat="50.77087" lon="3.68235">
        <ele>109</ele>
        <time>2015-12-13T13:48:38Z</time>
      </trkpt>
      <trkpt lat="50.77089" lon="3.68237">
        <ele>109</ele>
        <time>2015-12-13T13:48:39Z</time>
      </trkpt>
      <trkpt lat="50.77091" lon="3.68239">
        <ele>109</ele>
        <time>2015-12-13T13:48:40Z</time>
      </trkpt>
      <trkpt lat="50.77093" lon="3.68241">
        <ele>109</ele>
        <time>2015-12-13T13:48:41Z</time>
      </trkpt>
      <trkpt lat="50.77095" lon="3.68243">
        <ele>109</ele>
        <time>2015-12-13T13:48:42Z</time>
      </trkpt>
      <trkpt lat="50.77096" lon="3.68244">
        <ele>109</ele>
        <time>2015-12-13T13:48:43Z</time>
      </trkpt>
      <trkpt lat="50.77099" lon="3.68244">
        <ele>109</ele>
        <time>2015-12-13T13:48:44Z</time>
      </trkpt>
      <trkpt lat="50.77101" lon="3.68243">
        <ele>109</ele>
        <time>2015-12-13T13:48:45Z</time>
      </trkpt>
      <trkpt lat="50.77103" lon="3.68242">
        <ele>109</ele>
        <time>2015-12-13T13:48:46Z</time>
      </trkpt>
      <trkpt lat="50.77104" lon="3.6824">
        <ele>109</ele>
        <time>2015-12-13T13:48:47Z</time>
      </trkpt>
      <trkpt lat="50.77106" lon="3.68238">
        <ele>109</ele>
        <time>2015-12-13T13:48:48Z</time>
      </trkpt>
      <trkpt lat="50.77107" lon="3.68235">
        <ele>109</ele>
        <time>2015-12-13T13:48:49Z</time>
      </trkpt>
      <trkpt lat="50.77108" lon="3.68232">
        <ele>109</ele>
        <time>2015-12-13T13:48:50Z</time>
      </trkpt>
      <trkpt lat="50.7711" lon="3.6823">
        <ele>109</ele>
        <time>2015-12-13T13:48:51Z</time>
      </trkpt>
      <trkpt lat="50.77111" lon="3.68227">
        <ele>109</ele>
        <time>2015-12-13T13:48:52Z</time>
      </trkpt>
      <trkpt lat="50.77112" lon="3.68225">
        <ele>109</ele>
        <time>2015-12-13T13:48:53Z</time>
      </trkpt>
      <trkpt lat="50.77113" lon="3.68222">
        <ele>109</ele>
        <time>2015-12-13T13:48:54Z</time>
      </trkpt>
      <trkpt lat="50.77114" lon="3.68219">
        <ele>109</ele>
        <time>2015-12-13T13:48:55Z</time>
      </trkpt>
      <trkpt lat="50.77116" lon="3.68217">
        <ele>109</ele>
        <time>2015-12-13T13:48:56Z</time>
      </trkpt>
      <trkpt lat="50.77117" lon="3.68214">
        <ele>109</ele>
        <time>2015-12-13T13:48:57Z</time>
      </trkpt>
      <trkpt lat="50.77118" lon="3.68211">
        <ele>109</ele>
        <time>2015-12-13T13:48:58Z</time>
      </trkpt>
      <trkpt lat="50.77119" lon="3.68209">
        <ele>109</ele>
        <time>2015-12-13T13:48:59Z</time>
      </trkpt>
      <trkpt lat="50.7712" lon="3.68206">
        <ele>109</ele>
        <time>2015-12-13T13:49:00Z</time>
      </trkpt>
      <trkpt lat="50.77121" lon="3.68203">
        <ele>108.5</ele>
        <time>2015-12-13T13:49:01Z</time>
      </trkpt>
      <trkpt lat="50.77122" lon="3.682">
        <ele>108</ele>
        <time>2015-12-13T13:49:02Z</time>
      </trkpt>
      <trkpt lat="50.77124" lon="3.68197">
        <ele>108</ele>
        <time>2015-12-13T13:49:03Z</time>
      </trkpt>
      <trkpt lat="50.77125" lon="3.68193">
        <ele>108</ele>
        <time>2015-12-13T13:49:04Z</time>
      </trkpt>
      <trkpt lat="50.77126" lon="3.6819">
        <ele>108</ele>
        <time>2015-12-13T13:49:05Z</time>
      </trkpt>
      <trkpt lat="50.77127" lon="3.68186">
        <ele>108</ele>
        <time>2015-12-13T13:49:06Z</time>
      </trkpt>
      <trkpt lat="50.77128" lon="3.68183">
        <ele>108</ele>
        <time>2015-12-13T13:49:07Z</time>
      </trkpt>
      <trkpt lat="50.77129" lon="3.6818">
        <ele>108</ele>
        <time>2015-12-13T13:49:08Z</time>
      </trkpt>
      <trkpt lat="50.7713" lon="3.68177">
        <ele>108</ele>
        <time>2015-12-13T13:49:09Z</time>
      </trkpt>
      <trkpt lat="50.77131" lon="3.68175">
        <ele>108</ele>
        <time>2015-12-13T13:49:10Z</time>
      </trkpt>
      <trkpt lat="50.77133" lon="3.68172">
        <ele>107.3</ele>
        <time>2015-12-13T13:49:11Z</time>
      </trkpt>
      <trkpt lat="50.77134" lon="3.68169">
        <ele>107</ele>
        <time>2015-12-13T13:49:12Z</time>
      </trkpt>
      <trkpt lat="50.77136" lon="3.68167">
        <ele>107</ele>
        <time>2015-12-13T13:49:13Z</time>
      </trkpt>
      <trkpt lat="50.77137" lon="3.68164">
        <ele>107</ele>
        <time>2015-12-13T13:49:14Z</time>
      </trkpt>
      <trkpt lat="50.77138" lon="3.68161">
        <ele>107</ele>
        <time>2015-12-13T13:49:15Z</time>
      </trkpt>
      <trkpt lat="50.7714" lon="3.68157">
        <ele>107</ele>
        <time>2015-12-13T13:49:16Z</time>
      </trkpt>
      <trkpt lat="50.77141" lon="3.68154">
        <ele>107</ele>
        <time>2015-12-13T13:49:17Z</time>
      </trkpt>
      <trkpt lat="50.77143" lon="3.68151">
        <ele>107</ele>
        <time>2015-12-13T13:49:18Z</time>
      </trkpt>
      <trkpt lat="50.77144" lon="3.68147">
        <ele>107</ele>
        <time>2015-12-13T13:49:19Z</time>
      </trkpt>
      <trkpt lat="50.77145" lon="3.68144">
        <ele>107</ele>
        <time>2015-12-13T13:49:20Z</time>
      </trkpt>
      <trkpt lat="50.77146" lon="3.6814">
        <ele>106.5</ele>
        <time>2015-12-13T13:49:21Z</time>
      </trkpt>
      <trkpt lat="50.77147" lon="3.68137">
        <ele>104</ele>
        <time>2015-12-13T13:49:22Z</time>
      </trkpt>
      <trkpt lat="50.77148" lon="3.68133">
        <ele>104</ele>
        <time>2015-12-13T13:49:23Z</time>
      </trkpt>
      <trkpt lat="50.7715" lon="3.6813">
        <ele>104</ele>
        <time>2015-12-13T13:49:24Z</time>
      </trkpt>
      <trkpt lat="50.77151" lon="3.68126">
        <ele>104</ele>
        <time>2015-12-13T13:49:25Z</time>
      </trkpt>
      <trkpt lat="50.77151" lon="3.68122">
        <ele>103.3</ele>
        <time>2015-12-13T13:49:26Z</time>
      </trkpt>
      <trkpt lat="50.77152" lon="3.68119">
        <ele>103</ele>
        <time>2015-12-13T13:49:27Z</time>
      </trkpt>
      <trkpt lat="50.77153" lon="3.68115">
        <ele>103</ele>
        <time>2015-12-13T13:49:28Z</time>
      </trkpt>
      <trkpt lat="50.77154" lon="3.68112">
        <ele>103</ele>
        <time>2015-12-13T13:49:29Z</time>
      </trkpt>
      <trkpt lat="50.77154" lon="3.68108">
        <ele>103</ele>
        <time>2015-12-13T13:49:30Z</time>
      </trkpt>
      <trkpt lat="50.77154" lon="3.68105">
        <ele>102.3</ele>
        <time>2015-12-13T13:49:31Z</time>
      </trkpt>
      <trkpt lat="50.77154" lon="3.68101">
        <ele>102</ele>
        <time>2015-12-13T13:49:32Z</time>
      </trkpt>
      <trkpt lat="50.77155" lon="3.68098">
        <ele>102</ele>
        <time>2015-12-13T13:49:33Z</time>
      </trkpt>
      <trkpt lat="50.77155" lon="3.68094">
        <ele>102</ele>
        <time>2015-12-13T13:49:34Z</time>
      </trkpt>
      <trkpt lat="50.77155" lon="3.68091">
        <ele>102</ele>
        <time>2015-12-13T13:49:35Z</time>
      </trkpt>
      <trkpt lat="50.77154" lon="3.68087">
        <ele>101.3</ele>
        <time>2015-12-13T13:49:36Z</time>
      </trkpt>
      <trkpt lat="50.77153" lon="3.68084">
        <ele>101</ele>
        <time>2015-12-13T13:49:37Z</time>
      </trkpt>
      <trkpt lat="50.77152" lon="3.68081">
        <ele>101</ele>
        <time>2015-12-13T13:49:38Z</time>
      </trkpt>
      <trkpt lat="50.77151" lon="3.68078">
        <ele>101</ele>
        <time>2015-12-13T13:49:39Z</time>
      </trkpt>
      <trkpt lat="50.7715" lon="3.68074">
        <ele>101</ele>
        <time>2015-12-13T13:49:40Z</time>
      </trkpt>
      <trkpt lat="50.77148" lon="3.68071">
        <ele>101</ele>
        <time>2015-12-13T13:49:41Z</time>
      </trkpt>
      <trkpt lat="50.77147" lon="3.68067">
        <ele>101</ele>
        <time>2015-12-13T13:49:42Z</time>
      </trkpt>
      <trkpt lat="50.77146" lon="3.68064">
        <ele>101</ele>
        <time>2015-12-13T13:49:43Z</time>
      </trkpt>
      <trkpt lat="50.77145" lon="3.68061">
        <ele>101</ele>
        <time>2015-12-13T13:49:44Z</time>
      </trkpt>
      <trkpt lat="50.77145" lon="3.68057">
        <ele>101</ele>
        <time>2015-12-13T13:49:45Z</time>
      </trkpt>
      <trkpt lat="50.77144" lon="3.68053">
        <ele>101</ele>
        <time>2015-12-13T13:49:46Z</time>
      </trkpt>
      <trkpt lat="50.77144" lon="3.6805">
        <ele>101</ele>
        <time>2015-12-13T13:49:47Z</time>
      </trkpt>
      <trkpt lat="50.77144" lon="3.68046">
        <ele>101</ele>
        <time>2015-12-13T13:49:48Z</time>
      </trkpt>
      <trkpt lat="50.77145" lon="3.68042">
        <ele>101</ele>
        <time>2015-12-13T13:49:49Z</time>
      </trkpt>
      <trkpt lat="50.77147" lon="3.68038">
        <ele>101</ele>
        <time>2015-12-13T13:49:50Z</time>
      </trkpt>
      <trkpt lat="50.77148" lon="3.68036">
        <ele>100.3</ele>
        <time>2015-12-13T13:49:51Z</time>
      </trkpt>
      <trkpt lat="50.7715" lon="3.68034">
        <ele>100</ele>
        <time>2015-12-13T13:49:52Z</time>
      </trkpt>
      <trkpt lat="50.77152" lon="3.68032">
        <ele>100</ele>
        <time>2015-12-13T13:49:53Z</time>
      </trkpt>
      <trkpt lat="50.77154" lon="3.6803">
        <ele>100</ele>
        <time>2015-12-13T13:49:54Z</time>
      </trkpt>
      <trkpt lat="50.77157" lon="3.68029">
        <ele>100</ele>
        <time>2015-12-13T13:49:55Z</time>
      </trkpt>
      <trkpt lat="50.77159" lon="3.68029">
        <ele>100</ele>
        <time>2015-12-13T13:49:56Z</time>
      </trkpt>
      <trkpt lat="50.77161" lon="3.68028">
        <ele>100</ele>
        <time>2015-12-13T13:49:57Z</time>
      </trkpt>
      <trkpt lat="50.77163" lon="3.68027">
        <ele>100</ele>
        <time>2015-12-13T13:49:58Z</time>
      </trkpt>
      <trkpt lat="50.77165" lon="3.68027">
        <ele>100</ele>
        <time>2015-12-13T13:49:59Z</time>
      </trkpt>
      <trkpt lat="50.77168" lon="3.68026">
        <ele>100</ele>
        <time>2015-12-13T13:50:00Z</time>
      </trkpt>
      <trkpt lat="50.7717" lon="3.68026">
        <ele>100</ele>
        <time>2015-12-13T13:50:01Z</time>
      </trkpt>
      <trkpt lat="50.77174" lon="3.68028">
        <ele>100</ele>
        <time>2015-12-13T13:50:03Z</time>
      </trkpt>
      <trkpt lat="50.77176" lon="3.68029">
        <ele>100</ele>
        <time>2015-12-13T13:50:04Z</time>
      </trkpt>
      <trkpt lat="50.77178" lon="3.6803">
        <ele>100</ele>
        <time>2015-12-13T13:50:05Z</time>
      </trkpt>
      <trkpt lat="50.7718" lon="3.68031">
        <ele>100</ele>
        <time>2015-12-13T13:50:06Z</time>
      </trkpt>
      <trkpt lat="50.77182" lon="3.68032">
        <ele>100</ele>
        <time>2015-12-13T13:50:07Z</time>
      </trkpt>
      <trkpt lat="50.77184" lon="3.68033">
        <ele>100</ele>
        <time>2015-12-13T13:50:08Z</time>
      </trkpt>
      <trkpt lat="50.77186" lon="3.68034">
        <ele>100</ele>
        <time>2015-12-13T13:50:09Z</time>
      </trkpt>
      <trkpt lat="50.77189" lon="3.68035">
        <ele>100</ele>
        <time>2015-12-13T13:50:10Z</time>
      </trkpt>
      <trkpt lat="50.77191" lon="3.68037">
        <ele>100</ele>
        <time>2015-12-13T13:50:11Z</time>
      </trkpt>
      <trkpt lat="50.77193" lon="3.68038">
        <ele>100</ele>
        <time>2015-12-13T13:50:12Z</time>
      </trkpt>
      <trkpt lat="50.77195" lon="3.68039">
        <ele>100</ele>
        <time>2015-12-13T13:50:13Z</time>
      </trkpt>
      <trkpt lat="50.77197" lon="3.6804">
        <ele>100</ele>
        <time>2015-12-13T13:50:14Z</time>
      </trkpt>
      <trkpt lat="50.77199" lon="3.68041">
        <ele>100</ele>
        <time>2015-12-13T13:50:15Z</time>
      </trkpt>
      <trkpt lat="50.77201" lon="3.68042">
        <ele>100</ele>
        <time>2015-12-13T13:50:16Z</time>
      </trkpt>
      <trkpt lat="50.77202" lon="3.68043">
        <ele>100</ele>
        <time>2015-12-13T13:50:17Z</time>
      </trkpt>
      <trkpt lat="50.77205" lon="3.68043">
        <ele>100</ele>
        <time>2015-12-13T13:50:18Z</time>
      </trkpt>
      <trkpt lat="50.77207" lon="3.68044">
        <ele>100</ele>
        <time>2015-12-13T13:50:19Z</time>
      </trkpt>
      <trkpt lat="50.77209" lon="3.68045">
        <ele>100</ele>
        <time>2015-12-13T13:50:20Z</time>
      </trkpt>
      <trkpt lat="50.77211" lon="3.68046">
        <ele>100</ele>
        <time>2015-12-13T13:50:21Z</time>
      </trkpt>
      <trkpt lat="50.77213" lon="3.68047">
        <ele>100</ele>
        <time>2015-12-13T13:50:22Z</time>
      </trkpt>
      <trkpt lat="50.77215" lon="3.68048">
        <ele>100</ele>
        <time>2015-12-13T13:50:23Z</time>
      </trkpt>
      <trkpt lat="50.77217" lon="3.68049">
        <ele>100</ele>
        <time>2015-12-13T13:50:24Z</time>
      </trkpt>
      <trkpt lat="50.77219" lon="3.6805">
        <ele>100</ele>
        <time>2015-12-13T13:50:25Z</time>
      </trkpt>
      <trkpt lat="50.77222" lon="3.6805">
        <ele>100</ele>
        <time>2015-12-13T13:50:26Z</time>
      </trkpt>
      <trkpt lat="50.77224" lon="3.68051">
        <ele>100</ele>
        <time>2015-12-13T13:50:27Z</time>
      </trkpt>
      <trkpt lat="50.77226" lon="3.68052">
        <ele>100</ele>
        <time>2015-12-13T13:50:28Z</time>
      </trkpt>
      <trkpt lat="50.77229" lon="3.68053">
        <ele>100</ele>
        <time>2015-12-13T13:50:29Z</time>
      </trkpt>
      <trkpt lat="50.77231" lon="3.68054">
        <ele>100</ele>
        <time>2015-12-13T13:50:30Z</time>
      </trkpt>
      <trkpt lat="50.77233" lon="3.68055">
        <ele>100</ele>
        <time>2015-12-13T13:50:31Z</time>
      </trkpt>
      <trkpt lat="50.77235" lon="3.68056">
        <ele>100</ele>
        <time>2015-12-13T13:50:32Z</time>
      </trkpt>
      <trkpt lat="50.77238" lon="3.68057">
        <ele>100</ele>
        <time>2015-12-13T13:50:33Z</time>
      </trkpt>
      <trkpt lat="50.7724" lon="3.68059">
        <ele>100</ele>
        <time>2015-12-13T13:50:34Z</time>
      </trkpt>
      <trkpt lat="50.77243" lon="3.6806">
        <ele>100</ele>
        <time>2015-12-13T13:50:35Z</time>
      </trkpt>
      <trkpt lat="50.77246" lon="3.68061">
        <ele>100</ele>
        <time>2015-12-13T13:50:36Z</time>
      </trkpt>
      <trkpt lat="50.77248" lon="3.68062">
        <ele>100</ele>
        <time>2015-12-13T13:50:37Z</time>
      </trkpt>
      <trkpt lat="50.77251" lon="3.68063">
        <ele>100</ele>
        <time>2015-12-13T13:50:38Z</time>
      </trkpt>
      <trkpt lat="50.77253" lon="3.68064">
        <ele>100</ele>
        <time>2015-12-13T13:50:39Z</time>
      </trkpt>
      <trkpt lat="50.77256" lon="3.68064">
        <ele>100</ele>
        <time>2015-12-13T13:50:40Z</time>
      </trkpt>
      <trkpt lat="50.77259" lon="3.68065">
        <ele>100.7</ele>
        <time>2015-12-13T13:50:41Z</time>
      </trkpt>
      <trkpt lat="50.77261" lon="3.68066">
        <ele>101</ele>
        <time>2015-12-13T13:50:42Z</time>
      </trkpt>
      <trkpt lat="50.77264" lon="3.68067">
        <ele>101</ele>
        <time>2015-12-13T13:50:43Z</time>
      </trkpt>
      <trkpt lat="50.77267" lon="3.68068">
        <ele>101</ele>
        <time>2015-12-13T13:50:44Z</time>
      </trkpt>
      <trkpt lat="50.77269" lon="3.68068">
        <ele>101</ele>
        <time>2015-12-13T13:50:45Z</time>
      </trkpt>
      <trkpt lat="50.77271" lon="3.68069">
        <ele>101</ele>
        <time>2015-12-13T13:50:46Z</time>
      </trkpt>
      <trkpt lat="50.77273" lon="3.6807">
        <ele>101</ele>
        <time>2015-12-13T13:50:47Z</time>
      </trkpt>
      <trkpt lat="50.77275" lon="3.68071">
        <ele>101</ele>
        <time>2015-12-13T13:50:48Z</time>
      </trkpt>
      <trkpt lat="50.77277" lon="3.68071">
        <ele>101</ele>
        <time>2015-12-13T13:50:49Z</time>
      </trkpt>
      <trkpt lat="50.77279" lon="3.68072">
        <ele>101</ele>
        <time>2015-12-13T13:50:50Z</time>
      </trkpt>
      <trkpt lat="50.77282" lon="3.68073">
        <ele>101</ele>
        <time>2015-12-13T13:50:51Z</time>
      </trkpt>
      <trkpt lat="50.77285" lon="3.68073">
        <ele>101</ele>
        <time>2015-12-13T13:50:53Z</time>
      </trkpt>
      <trkpt lat="50.77288" lon="3.68074">
        <ele>101</ele>
        <time>2015-12-13T13:50:55Z</time>
      </trkpt>
      <trkpt lat="50.77291" lon="3.68076">
        <ele>101</ele>
        <time>2015-12-13T13:50:57Z</time>
      </trkpt>
      <trkpt lat="50.77295" lon="3.68076">
        <ele>101</ele>
        <time>2015-12-13T13:50:59Z</time>
      </trkpt>
      <trkpt lat="50.77298" lon="3.68076">
        <ele>101.7</ele>
        <time>2015-12-13T13:51:01Z</time>
      </trkpt>
      <trkpt lat="50.77301" lon="3.68077">
        <ele>102</ele>
        <time>2015-12-13T13:51:03Z</time>
      </trkpt>
      <trkpt lat="50.77304" lon="3.68078">
        <ele>102</ele>
        <time>2015-12-13T13:51:05Z</time>
      </trkpt>
      <trkpt lat="50.77308" lon="3.6808">
        <ele>102</ele>
        <time>2015-12-13T13:51:07Z</time>
      </trkpt>
      <trkpt lat="50.77311" lon="3.6808">
        <ele>102</ele>
        <time>2015-12-13T13:51:09Z</time>
      </trkpt>
      <trkpt lat="50.77314" lon="3.68081">
        <ele>102</ele>
        <time>2015-12-13T13:51:11Z</time>
      </trkpt>
      <trkpt lat="50.77317" lon="3.68082">
        <ele>102</ele>
        <time>2015-12-13T13:51:13Z</time>
      </trkpt>
      <trkpt lat="50.7732" lon="3.68083">
        <ele>102</ele>
        <time>2015-12-13T13:51:15Z</time>
      </trkpt>
      <trkpt lat="50.77324" lon="3.68084">
        <ele>102</ele>
        <time>2015-12-13T13:51:17Z</time>
      </trkpt>
      <trkpt lat="50.77327" lon="3.68085">
        <ele>102</ele>
        <time>2015-12-13T13:51:19Z</time>
      </trkpt>
      <trkpt lat="50.7733" lon="3.68085">
        <ele>101.3</ele>
        <time>2015-12-13T13:51:21Z</time>
      </trkpt>
      <trkpt lat="50.77334" lon="3.68085">
        <ele>101</ele>
        <time>2015-12-13T13:51:23Z</time>
      </trkpt>
      <trkpt lat="50.77337" lon="3.68084">
        <ele>101</ele>
        <time>2015-12-13T13:51:25Z</time>
      </trkpt>
      <trkpt lat="50.7734" lon="3.68084">
        <ele>101</ele>
        <time>2015-12-13T13:51:27Z</time>
      </trkpt>
      <trkpt lat="50.77344" lon="3.68083">
        <ele>101</ele>
        <time>2015-12-13T13:51:29Z</time>
      </trkpt>
      <trkpt lat="50.77345" lon="3.68083">
        <ele>101</ele>
        <time>2015-12-13T13:51:30Z</time>
      </trkpt>
      <trkpt lat="50.77348" lon="3.68082">
        <ele>102</ele>
        <time>2015-12-13T13:51:32Z</time>
      </trkpt>
      <trkpt lat="50.77351" lon="3.6808">
        <ele>102</ele>
        <time>2015-12-13T13:51:34Z</time>
      </trkpt>
      <trkpt lat="50.77354" lon="3.68078">
        <ele>102</ele>
        <time>2015-12-13T13:51:36Z</time>
      </trkpt>
      <trkpt lat="50.77356" lon="3.68076">
        <ele>102</ele>
        <time>2015-12-13T13:51:38Z</time>
      </trkpt>
      <trkpt lat="50.77359" lon="3.68074">
        <ele>102</ele>
        <time>2015-12-13T13:51:40Z</time>
      </trkpt>
      <trkpt lat="50.77363" lon="3.68072">
        <ele>102</ele>
        <time>2015-12-13T13:51:42Z</time>
      </trkpt>
      <trkpt lat="50.77366" lon="3.68071">
        <ele>102</ele>
        <time>2015-12-13T13:51:44Z</time>
      </trkpt>
      <trkpt lat="50.77369" lon="3.68069">
        <ele>102</ele>
        <time>2015-12-13T13:51:46Z</time>
      </trkpt>
      <trkpt lat="50.77372" lon="3.68067">
        <ele>102</ele>
        <time>2015-12-13T13:51:48Z</time>
      </trkpt>
      <trkpt lat="50.77375" lon="3.68064">
        <ele>102</ele>
        <time>2015-12-13T13:51:50Z</time>
      </trkpt>
      <trkpt lat="50.77377" lon="3.68062">
        <ele>102</ele>
        <time>2015-12-13T13:51:52Z</time>
      </trkpt>
      <trkpt lat="50.7738" lon="3.68059">
        <ele>102</ele>
        <time>2015-12-13T13:51:54Z</time>
      </trkpt>
      <trkpt lat="50.77383" lon="3.68057">
        <ele>102</ele>
        <time>2015-12-13T13:51:56Z</time>
      </trkpt>
      <trkpt lat="50.77386" lon="3.68055">
        <ele>102</ele>
        <time>2015-12-13T13:51:58Z</time>
      </trkpt>
      <trkpt lat="50.77389" lon="3.68053">
        <ele>102</ele>
        <time>2015-12-13T13:52:00Z</time>
      </trkpt>
      <trkpt lat="50.77391" lon="3.68051">
        <ele>101</ele>
        <time>2015-12-13T13:52:02Z</time>
      </trkpt>
      <trkpt lat="50.77394" lon="3.68049">
        <ele>101</ele>
        <time>2015-12-13T13:52:04Z</time>
      </trkpt>
      <trkpt lat="50.77397" lon="3.68046">
        <ele>101</ele>
        <time>2015-12-13T13:52:06Z</time>
      </trkpt>
      <trkpt lat="50.774" lon="3.68043">
        <ele>101</ele>
        <time>2015-12-13T13:52:08Z</time>
      </trkpt>
      <trkpt lat="50.77403" lon="3.6804">
        <ele>101</ele>
        <time>2015-12-13T13:52:10Z</time>
      </trkpt>
      <trkpt lat="50.77406" lon="3.68037">
        <ele>102</ele>
        <time>2015-12-13T13:52:12Z</time>
      </trkpt>
      <trkpt lat="50.77408" lon="3.68036">
        <ele>102</ele>
        <time>2015-12-13T13:52:13Z</time>
      </trkpt>
      <trkpt lat="50.77409" lon="3.68034">
        <ele>102</ele>
        <time>2015-12-13T13:52:14Z</time>
      </trkpt>
      <trkpt lat="50.77411" lon="3.6803">
        <ele>102</ele>
        <time>2015-12-13T13:52:16Z</time>
      </trkpt>
      <trkpt lat="50.77413" lon="3.68027">
        <ele>102</ele>
        <time>2015-12-13T13:52:18Z</time>
      </trkpt>
      <trkpt lat="50.77415" lon="3.68024">
        <ele>102</ele>
        <time>2015-12-13T13:52:20Z</time>
      </trkpt>
      <trkpt lat="50.77417" lon="3.6802">
        <ele>102</ele>
        <time>2015-12-13T13:52:22Z</time>
      </trkpt>
      <trkpt lat="50.7742" lon="3.68016">
        <ele>102</ele>
        <time>2015-12-13T13:52:24Z</time>
      </trkpt>
      <trkpt lat="50.77422" lon="3.68013">
        <ele>102</ele>
        <time>2015-12-13T13:52:26Z</time>
      </trkpt>
      <trkpt lat="50.77424" lon="3.6801">
        <ele>102</ele>
        <time>2015-12-13T13:52:28Z</time>
      </trkpt>
      <trkpt lat="50.77426" lon="3.68007">
        <ele>102</ele>
        <time>2015-12-13T13:52:30Z</time>
      </trkpt>
      <trkpt lat="50.77428" lon="3.68003">
        <ele>101</ele>
        <time>2015-12-13T13:52:32Z</time>
      </trkpt>
      <trkpt lat="50.7743" lon="3.68">
        <ele>101</ele>
        <time>2015-12-13T13:52:34Z</time>
      </trkpt>
      <trkpt lat="50.77432" lon="3.67996">
        <ele>101</ele>
        <time>2015-12-13T13:52:36Z</time>
      </trkpt>
      <trkpt lat="50.77434" lon="3.67992">
        <ele>101</ele>
        <time>2015-12-13T13:52:38Z</time>
      </trkpt>
      <trkpt lat="50.77435" lon="3.67989">
        <ele>101</ele>
        <time>2015-12-13T13:52:40Z</time>
      </trkpt>
      <trkpt lat="50.77437" lon="3.67985">
        <ele>102</ele>
        <time>2015-12-13T13:52:42Z</time>
      </trkpt>
      <trkpt lat="50.7744" lon="3.67981">
        <ele>102</ele>
        <time>2015-12-13T13:52:44Z</time>
      </trkpt>
      <trkpt lat="50.77442" lon="3.67977">
        <ele>102</ele>
        <time>2015-12-13T13:52:46Z</time>
      </trkpt>
      <trkpt lat="50.77445" lon="3.67974">
        <ele>102</ele>
        <time>2015-12-13T13:52:48Z</time>
      </trkpt>
      <trkpt lat="50.77448" lon="3.67971">
        <ele>102</ele>
        <time>2015-12-13T13:52:50Z</time>
      </trkpt>
      <trkpt lat="50.77451" lon="3.6797">
        <ele>102</ele>
        <time>2015-12-13T13:52:52Z</time>
      </trkpt>
      <trkpt lat="50.77449" lon="3.67969">
        <ele>102</ele>
        <time>2015-12-13T13:52:57Z</time>
      </trkpt>
      <trkpt lat="50.77446" lon="3.67968">
        <ele>102</ele>
        <time>2015-12-13T13:52:59Z</time>
      </trkpt>
      <trkpt lat="50.77443" lon="3.67966">
        <ele>102</ele>
        <time>2015-12-13T13:53:01Z</time>
      </trkpt>
      <trkpt lat="50.7744" lon="3.67964">
        <ele>102</ele>
        <time>2015-12-13T13:53:03Z</time>
      </trkpt>
      <trkpt lat="50.77437" lon="3.67962">
        <ele>102</ele>
        <time>2015-12-13T13:53:05Z</time>
      </trkpt>
      <trkpt lat="50.77434" lon="3.6796">
        <ele>102</ele>
        <time>2015-12-13T13:53:07Z</time>
      </trkpt>
      <trkpt lat="50.77431" lon="3.67958">
        <ele>102</ele>
        <time>2015-12-13T13:53:09Z</time>
      </trkpt>
      <trkpt lat="50.77429" lon="3.67955">
        <ele>102.7</ele>
        <time>2015-12-13T13:53:11Z</time>
      </trkpt>
      <trkpt lat="50.77426" lon="3.67953">
        <ele>103</ele>
        <time>2015-12-13T13:53:13Z</time>
      </trkpt>
      <trkpt lat="50.77423" lon="3.6795">
        <ele>103</ele>
        <time>2015-12-13T13:53:15Z</time>
      </trkpt>
      <trkpt lat="50.77421" lon="3.67948">
        <ele>103</ele>
        <time>2015-12-13T13:53:17Z</time>
      </trkpt>
      <trkpt lat="50.77418" lon="3.67945">
        <ele>103</ele>
        <time>2015-12-13T13:53:19Z</time>
      </trkpt>
      <trkpt lat="50.77415" lon="3.67943">
        <ele>103.7</ele>
        <time>2015-12-13T13:53:21Z</time>
      </trkpt>
      <trkpt lat="50.77413" lon="3.6794">
        <ele>104</ele>
        <time>2015-12-13T13:53:23Z</time>
      </trkpt>
      <trkpt lat="50.77411" lon="3.67938">
        <ele>104</ele>
        <time>2015-12-13T13:53:28Z</time>
      </trkpt>
      <trkpt lat="50.77409" lon="3.67936">
        <ele>104</ele>
        <time>2015-12-13T13:53:30Z</time>
      </trkpt>
      <trkpt lat="50.77406" lon="3.67934">
        <ele>104</ele>
        <time>2015-12-13T13:53:32Z</time>
      </trkpt>
      <trkpt lat="50.77403" lon="3.67932">
        <ele>104</ele>
        <time>2015-12-13T13:53:34Z</time>
      </trkpt>
      <trkpt lat="50.77401" lon="3.67929">
        <ele>104</ele>
        <time>2015-12-13T13:53:36Z</time>
      </trkpt>
      <trkpt lat="50.77398" lon="3.67927">
        <ele>104</ele>
        <time>2015-12-13T13:53:38Z</time>
      </trkpt>
      <trkpt lat="50.77396" lon="3.67925">
        <ele>104</ele>
        <time>2015-12-13T13:53:40Z</time>
      </trkpt>
      <trkpt lat="50.77394" lon="3.67923">
        <ele>104</ele>
        <time>2015-12-13T13:53:42Z</time>
      </trkpt>
      <trkpt lat="50.77391" lon="3.6792">
        <ele>104</ele>
        <time>2015-12-13T13:53:44Z</time>
      </trkpt>
      <trkpt lat="50.77389" lon="3.67917">
        <ele>104</ele>
        <time>2015-12-13T13:53:46Z</time>
      </trkpt>
      <trkpt lat="50.77387" lon="3.67915">
        <ele>104</ele>
        <time>2015-12-13T13:53:48Z</time>
      </trkpt>
      <trkpt lat="50.77384" lon="3.67913">
        <ele>104</ele>
        <time>2015-12-13T13:53:50Z</time>
      </trkpt>
      <trkpt lat="50.77381" lon="3.6791">
        <ele>104</ele>
        <time>2015-12-13T13:53:52Z</time>
      </trkpt>
      <trkpt lat="50.77379" lon="3.67907">
        <ele>104</ele>
        <time>2015-12-13T13:53:54Z</time>
      </trkpt>
      <trkpt lat="50.77377" lon="3.67905">
        <ele>104</ele>
        <time>2015-12-13T13:53:56Z</time>
      </trkpt>
      <trkpt lat="50.77374" lon="3.67902">
        <ele>104</ele>
        <time>2015-12-13T13:53:58Z</time>
      </trkpt>
      <trkpt lat="50.77372" lon="3.67899">
        <ele>104</ele>
        <time>2015-12-13T13:54:00Z</time>
      </trkpt>
      <trkpt lat="50.77369" lon="3.67896">
        <ele>105</ele>
        <time>2015-12-13T13:54:02Z</time>
      </trkpt>
      <trkpt lat="50.77367" lon="3.67894">
        <ele>105</ele>
        <time>2015-12-13T13:54:04Z</time>
      </trkpt>
      <trkpt lat="50.77364" lon="3.67891">
        <ele>105</ele>
        <time>2015-12-13T13:54:06Z</time>
      </trkpt>
      <trkpt lat="50.77362" lon="3.67889">
        <ele>105</ele>
        <time>2015-12-13T13:54:08Z</time>
      </trkpt>
      <trkpt lat="50.7736" lon="3.67888">
        <ele>105</ele>
        <time>2015-12-13T13:54:10Z</time>
      </trkpt>
      <trkpt lat="50.77357" lon="3.67885">
        <ele>105</ele>
        <time>2015-12-13T13:54:12Z</time>
      </trkpt>
      <trkpt lat="50.77355" lon="3.67882">
        <ele>105</ele>
        <time>2015-12-13T13:54:14Z</time>
      </trkpt>
      <trkpt lat="50.77352" lon="3.6788">
        <ele>105</ele>
        <time>2015-12-13T13:54:16Z</time>
      </trkpt>
      <trkpt lat="50.77349" lon="3.67877">
        <ele>105</ele>
        <time>2015-12-13T13:54:18Z</time>
      </trkpt>
      <trkpt lat="50.77346" lon="3.67875">
        <ele>105</ele>
        <time>2015-12-13T13:54:20Z</time>
      </trkpt>
      <trkpt lat="50.77343" lon="3.67873">
        <ele>106</ele>
        <time>2015-12-13T13:54:22Z</time>
      </trkpt>
      <trkpt lat="50.77341" lon="3.6787">
        <ele>106</ele>
        <time>2015-12-13T13:54:24Z</time>
      </trkpt>
      <trkpt lat="50.77339" lon="3.67867">
        <ele>106</ele>
        <time>2015-12-13T13:54:26Z</time>
      </trkpt>
      <trkpt lat="50.77336" lon="3.67864">
        <ele>106</ele>
        <time>2015-12-13T13:54:28Z</time>
      </trkpt>
      <trkpt lat="50.77334" lon="3.6786">
        <ele>106</ele>
        <time>2015-12-13T13:54:30Z</time>
      </trkpt>
      <trkpt lat="50.77332" lon="3.67857">
        <ele>108</ele>
        <time>2015-12-13T13:54:32Z</time>
      </trkpt>
      <trkpt lat="50.77331" lon="3.67853">
        <ele>108</ele>
        <time>2015-12-13T13:54:34Z</time>
      </trkpt>
      <trkpt lat="50.77329" lon="3.6785">
        <ele>108</ele>
        <time>2015-12-13T13:54:36Z</time>
      </trkpt>
      <trkpt lat="50.77327" lon="3.67847">
        <ele>108</ele>
        <time>2015-12-13T13:54:38Z</time>
      </trkpt>
      <trkpt lat="50.77325" lon="3.67843">
        <ele>108</ele>
        <time>2015-12-13T13:54:40Z</time>
      </trkpt>
      <trkpt lat="50.77323" lon="3.67839">
        <ele>108</ele>
        <time>2015-12-13T13:54:42Z</time>
      </trkpt>
      <trkpt lat="50.77322" lon="3.67834">
        <ele>108</ele>
        <time>2015-12-13T13:54:44Z</time>
      </trkpt>
      <trkpt lat="50.7732" lon="3.6783">
        <ele>108</ele>
        <time>2015-12-13T13:54:46Z</time>
      </trkpt>
      <trkpt lat="50.77319" lon="3.67827">
        <ele>108</ele>
        <time>2015-12-13T13:54:48Z</time>
      </trkpt>
      <trkpt lat="50.77317" lon="3.67822">
        <ele>108</ele>
        <time>2015-12-13T13:54:50Z</time>
      </trkpt>
      <trkpt lat="50.77315" lon="3.67818">
        <ele>108</ele>
        <time>2015-12-13T13:54:52Z</time>
      </trkpt>
      <trkpt lat="50.77314" lon="3.67814">
        <ele>108</ele>
        <time>2015-12-13T13:54:54Z</time>
      </trkpt>
      <trkpt lat="50.77314" lon="3.67811">
        <ele>108</ele>
        <time>2015-12-13T13:54:56Z</time>
      </trkpt>
      <trkpt lat="50.77312" lon="3.67806">
        <ele>108</ele>
        <time>2015-12-13T13:54:58Z</time>
      </trkpt>
      <trkpt lat="50.77311" lon="3.67802">
        <ele>108</ele>
        <time>2015-12-13T13:55:00Z</time>
      </trkpt>
      <trkpt lat="50.7731" lon="3.67798">
        <ele>108</ele>
        <time>2015-12-13T13:55:02Z</time>
      </trkpt>
      <trkpt lat="50.77308" lon="3.67794">
        <ele>108</ele>
        <time>2015-12-13T13:55:04Z</time>
      </trkpt>
      <trkpt lat="50.77306" lon="3.6779">
        <ele>108</ele>
        <time>2015-12-13T13:55:06Z</time>
      </trkpt>
      <trkpt lat="50.77305" lon="3.67786">
        <ele>108</ele>
        <time>2015-12-13T13:55:08Z</time>
      </trkpt>
      <trkpt lat="50.77303" lon="3.67782">
        <ele>108</ele>
        <time>2015-12-13T13:55:10Z</time>
      </trkpt>
      <trkpt lat="50.77301" lon="3.67778">
        <ele>109</ele>
        <time>2015-12-13T13:55:12Z</time>
      </trkpt>
      <trkpt lat="50.773" lon="3.67774">
        <ele>109</ele>
        <time>2015-12-13T13:55:14Z</time>
      </trkpt>
      <trkpt lat="50.77297" lon="3.6777">
        <ele>109</ele>
        <time>2015-12-13T13:55:16Z</time>
      </trkpt>
      <trkpt lat="50.77295" lon="3.67766">
        <ele>109</ele>
        <time>2015-12-13T13:55:18Z</time>
      </trkpt>
      <trkpt lat="50.77293" lon="3.67763">
        <ele>109</ele>
        <time>2015-12-13T13:55:20Z</time>
      </trkpt>
      <trkpt lat="50.77291" lon="3.6776">
        <ele>110</ele>
        <time>2015-12-13T13:55:22Z</time>
      </trkpt>
      <trkpt lat="50.77289" lon="3.67757">
        <ele>110</ele>
        <time>2015-12-13T13:55:24Z</time>
      </trkpt>
      <trkpt lat="50.77287" lon="3.67754">
        <ele>110</ele>
        <time>2015-12-13T13:55:26Z</time>
      </trkpt>
      <trkpt lat="50.77285" lon="3.67751">
        <ele>110</ele>
        <time>2015-12-13T13:55:28Z</time>
      </trkpt>
      <trkpt lat="50.77283" lon="3.67748">
        <ele>110</ele>
        <time>2015-12-13T13:55:30Z</time>
      </trkpt>
      <trkpt lat="50.77281" lon="3.67746">
        <ele>110</ele>
        <time>2015-12-13T13:55:34Z</time>
      </trkpt>
      <trkpt lat="50.77278" lon="3.67742">
        <ele>110</ele>
        <time>2015-12-13T13:55:36Z</time>
      </trkpt>
      <trkpt lat="50.77277" lon="3.6774">
        <ele>110</ele>
        <time>2015-12-13T13:55:37Z</time>
      </trkpt>
      <trkpt lat="50.77275" lon="3.67736">
        <ele>110</ele>
        <time>2015-12-13T13:55:39Z</time>
      </trkpt>
      <trkpt lat="50.77272" lon="3.67733">
        <ele>109.5</ele>
        <time>2015-12-13T13:55:41Z</time>
      </trkpt>
      <trkpt lat="50.77271" lon="3.67731">
        <ele>109</ele>
        <time>2015-12-13T13:55:42Z</time>
      </trkpt>
      <trkpt lat="50.77269" lon="3.67729">
        <ele>109</ele>
        <time>2015-12-13T13:55:43Z</time>
      </trkpt>
      <trkpt lat="50.77268" lon="3.67727">
        <ele>109</ele>
        <time>2015-12-13T13:55:44Z</time>
      </trkpt>
      <trkpt lat="50.77267" lon="3.67724">
        <ele>109</ele>
        <time>2015-12-13T13:55:45Z</time>
      </trkpt>
      <trkpt lat="50.77265" lon="3.67722">
        <ele>109</ele>
        <time>2015-12-13T13:55:47Z</time>
      </trkpt>
      <trkpt lat="50.77264" lon="3.67719">
        <ele>109</ele>
        <time>2015-12-13T13:55:49Z</time>
      </trkpt>
      <trkpt lat="50.77262" lon="3.67715">
        <ele>110.4</ele>
        <time>2015-12-13T13:55:51Z</time>
      </trkpt>
      <trkpt lat="50.7726" lon="3.67712">
        <ele>111</ele>
        <time>2015-12-13T13:55:55Z</time>
      </trkpt>
      <trkpt lat="50.77259" lon="3.67708">
        <ele>111</ele>
        <time>2015-12-13T13:55:57Z</time>
      </trkpt>
      <trkpt lat="50.7726" lon="3.67705">
        <ele>111</ele>
        <time>2015-12-13T13:55:59Z</time>
      </trkpt>
      <trkpt lat="50.77262" lon="3.67702">
        <ele>111.7</ele>
        <time>2015-12-13T13:56:01Z</time>
      </trkpt>
      <trkpt lat="50.77262" lon="3.67697">
        <ele>112</ele>
        <time>2015-12-13T13:56:03Z</time>
      </trkpt>
      <trkpt lat="50.77263" lon="3.67694">
        <ele>112</ele>
        <time>2015-12-13T13:56:05Z</time>
      </trkpt>
      <trkpt lat="50.77264" lon="3.67692">
        <ele>112</ele>
        <time>2015-12-13T13:56:13Z</time>
      </trkpt>
      <trkpt lat="50.77266" lon="3.67691">
        <ele>112</ele>
        <time>2015-12-13T13:56:16Z</time>
      </trkpt>
      <trkpt lat="50.77268" lon="3.67688">
        <ele>112</ele>
        <time>2015-12-13T13:56:18Z</time>
      </trkpt>
      <trkpt lat="50.77269" lon="3.67686">
        <ele>112</ele>
        <time>2015-12-13T13:56:20Z</time>
      </trkpt>
      <trkpt lat="50.7727" lon="3.67683">
        <ele>112</ele>
        <time>2015-12-13T13:56:22Z</time>
      </trkpt>
      <trkpt lat="50.7727" lon="3.67679">
        <ele>112</ele>
        <time>2015-12-13T13:56:25Z</time>
      </trkpt>
      <trkpt lat="50.77271" lon="3.67675">
        <ele>112</ele>
        <time>2015-12-13T13:56:27Z</time>
      </trkpt>
      <trkpt lat="50.7727" lon="3.67672">
        <ele>112</ele>
        <time>2015-12-13T13:56:30Z</time>
      </trkpt>
      <trkpt lat="50.77268" lon="3.67672">
        <ele>112</ele>
        <time>2015-12-13T13:56:32Z</time>
      </trkpt>
      <trkpt lat="50.77267" lon="3.67673">
        <ele>112</ele>
        <time>2015-12-13T13:56:36Z</time>
      </trkpt>
      <trkpt lat="50.77268" lon="3.67671">
        <ele>112</ele>
        <time>2015-12-13T13:56:41Z</time>
      </trkpt>
      <trkpt lat="50.77271" lon="3.67671">
        <ele>112</ele>
        <time>2015-12-13T13:56:43Z</time>
      </trkpt>
      <trkpt lat="50.77273" lon="3.6767">
        <ele>112</ele>
        <time>2015-12-13T13:56:45Z</time>
      </trkpt>
      <trkpt lat="50.77274" lon="3.67669">
        <ele>112</ele>
        <time>2015-12-13T13:56:47Z</time>
      </trkpt>
      <trkpt lat="50.77278" lon="3.67671">
        <ele>112</ele>
        <time>2015-12-13T13:56:53Z</time>
      </trkpt>
      <trkpt lat="50.7728" lon="3.67671">
        <ele>111</ele>
        <time>2015-12-13T13:57:03Z</time>
      </trkpt>
      <trkpt lat="50.7728" lon="3.67668">
        <ele>111</ele>
        <time>2015-12-13T13:57:05Z</time>
      </trkpt>
      <trkpt lat="50.77281" lon="3.67665">
        <ele>111</ele>
        <time>2015-12-13T13:57:07Z</time>
      </trkpt>
      <trkpt lat="50.77282" lon="3.67662">
        <ele>111</ele>
        <time>2015-12-13T13:57:09Z</time>
      </trkpt>
      <trkpt lat="50.77283" lon="3.67659">
        <ele>111</ele>
        <time>2015-12-13T13:57:11Z</time>
      </trkpt>
      <trkpt lat="50.77283" lon="3.67656">
        <ele>111</ele>
        <time>2015-12-13T13:57:13Z</time>
      </trkpt>
      <trkpt lat="50.77284" lon="3.67652">
        <ele>111</ele>
        <time>2015-12-13T13:57:19Z</time>
      </trkpt>
      <trkpt lat="50.77285" lon="3.67649">
        <ele>111</ele>
        <time>2015-12-13T13:57:21Z</time>
      </trkpt>
      <trkpt lat="50.77286" lon="3.67646">
        <ele>111</ele>
        <time>2015-12-13T13:57:23Z</time>
      </trkpt>
      <trkpt lat="50.77286" lon="3.67642">
        <ele>111</ele>
        <time>2015-12-13T13:57:25Z</time>
      </trkpt>
      <trkpt lat="50.77287" lon="3.67638">
        <ele>111</ele>
        <time>2015-12-13T13:57:27Z</time>
      </trkpt>
      <trkpt lat="50.77288" lon="3.67634">
        <ele>111</ele>
        <time>2015-12-13T13:57:29Z</time>
      </trkpt>
      <trkpt lat="50.77288" lon="3.67631">
        <ele>111</ele>
        <time>2015-12-13T13:57:31Z</time>
      </trkpt>
      <trkpt lat="50.77289" lon="3.67626">
        <ele>111</ele>
        <time>2015-12-13T13:57:33Z</time>
      </trkpt>
      <trkpt lat="50.7729" lon="3.67623">
        <ele>111</ele>
        <time>2015-12-13T13:57:35Z</time>
      </trkpt>
      <trkpt lat="50.77291" lon="3.6762">
        <ele>111</ele>
        <time>2015-12-13T13:57:37Z</time>
      </trkpt>
      <trkpt lat="50.77291" lon="3.67616">
        <ele>111</ele>
        <time>2015-12-13T13:57:39Z</time>
      </trkpt>
      <trkpt lat="50.77292" lon="3.67612">
        <ele>111.5</ele>
        <time>2015-12-13T13:57:41Z</time>
      </trkpt>
      <trkpt lat="50.77293" lon="3.67608">
        <ele>112</ele>
        <time>2015-12-13T13:57:43Z</time>
      </trkpt>
      <trkpt lat="50.77293" lon="3.67605">
        <ele>112</ele>
        <time>2015-12-13T13:57:45Z</time>
      </trkpt>
      <trkpt lat="50.77294" lon="3.67601">
        <ele>112</ele>
        <time>2015-12-13T13:57:47Z</time>
      </trkpt>
      <trkpt lat="50.77295" lon="3.67597">
        <ele>112</ele>
        <time>2015-12-13T13:57:49Z</time>
      </trkpt>
      <trkpt lat="50.77295" lon="3.67593">
        <ele>112.7</ele>
        <time>2015-12-13T13:57:51Z</time>
      </trkpt>
      <trkpt lat="50.77296" lon="3.6759">
        <ele>113</ele>
        <time>2015-12-13T13:57:53Z</time>
      </trkpt>
      <trkpt lat="50.77297" lon="3.67586">
        <ele>113</ele>
        <time>2015-12-13T13:57:55Z</time>
      </trkpt>
      <trkpt lat="50.77297" lon="3.67582">
        <ele>113</ele>
        <time>2015-12-13T13:57:57Z</time>
      </trkpt>
      <trkpt lat="50.77297" lon="3.67577">
        <ele>113</ele>
        <time>2015-12-13T13:57:59Z</time>
      </trkpt>
      <trkpt lat="50.77297" lon="3.67573">
        <ele>112.3</ele>
        <time>2015-12-13T13:58:01Z</time>
      </trkpt>
      <trkpt lat="50.77297" lon="3.67569">
        <ele>112</ele>
        <time>2015-12-13T13:58:03Z</time>
      </trkpt>
      <trkpt lat="50.77298" lon="3.67566">
        <ele>112</ele>
        <time>2015-12-13T13:58:05Z</time>
      </trkpt>
      <trkpt lat="50.77299" lon="3.67561">
        <ele>112</ele>
        <time>2015-12-13T13:58:07Z</time>
      </trkpt>
      <trkpt lat="50.77299" lon="3.67557">
        <ele>112</ele>
        <time>2015-12-13T13:58:09Z</time>
      </trkpt>
      <trkpt lat="50.77299" lon="3.67552">
        <ele>112</ele>
        <time>2015-12-13T13:58:11Z</time>
      </trkpt>
      <trkpt lat="50.773" lon="3.67548">
        <ele>112</ele>
        <time>2015-12-13T13:58:13Z</time>
      </trkpt>
      <trkpt lat="50.773" lon="3.67545">
        <ele>112</ele>
        <time>2015-12-13T13:58:15Z</time>
      </trkpt>
      <trkpt lat="50.773" lon="3.67542">
        <ele>112</ele>
        <time>2015-12-13T13:58:17Z</time>
      </trkpt>
      <trkpt lat="50.77301" lon="3.67537">
        <ele>112</ele>
        <time>2015-12-13T13:58:19Z</time>
      </trkpt>
      <trkpt lat="50.77302" lon="3.67534">
        <ele>112</ele>
        <time>2015-12-13T13:58:21Z</time>
      </trkpt>
      <trkpt lat="50.77303" lon="3.6753">
        <ele>112</ele>
        <time>2015-12-13T13:58:23Z</time>
      </trkpt>
      <trkpt lat="50.77303" lon="3.67526">
        <ele>112</ele>
        <time>2015-12-13T13:58:25Z</time>
      </trkpt>
      <trkpt lat="50.77303" lon="3.67521">
        <ele>112</ele>
        <time>2015-12-13T13:58:27Z</time>
      </trkpt>
      <trkpt lat="50.77303" lon="3.67517">
        <ele>112</ele>
        <time>2015-12-13T13:58:29Z</time>
      </trkpt>
      <trkpt lat="50.77303" lon="3.67513">
        <ele>112</ele>
        <time>2015-12-13T13:58:31Z</time>
      </trkpt>
      <trkpt lat="50.77304" lon="3.67508">
        <ele>112</ele>
        <time>2015-12-13T13:58:33Z</time>
      </trkpt>
      <trkpt lat="50.77304" lon="3.67504">
        <ele>112</ele>
        <time>2015-12-13T13:58:35Z</time>
      </trkpt>
      <trkpt lat="50.77304" lon="3.675">
        <ele>112</ele>
        <time>2015-12-13T13:58:37Z</time>
      </trkpt>
      <trkpt lat="50.77304" lon="3.67496">
        <ele>112</ele>
        <time>2015-12-13T13:58:39Z</time>
      </trkpt>
      <trkpt lat="50.77304" lon="3.67491">
        <ele>112.7</ele>
        <time>2015-12-13T13:58:41Z</time>
      </trkpt>
      <trkpt lat="50.77305" lon="3.67486">
        <ele>113</ele>
        <time>2015-12-13T13:58:43Z</time>
      </trkpt>
      <trkpt lat="50.77305" lon="3.67481">
        <ele>113</ele>
        <time>2015-12-13T13:58:45Z</time>
      </trkpt>
      <trkpt lat="50.77306" lon="3.67477">
        <ele>113</ele>
        <time>2015-12-13T13:58:47Z</time>
      </trkpt>
      <trkpt lat="50.77306" lon="3.67473">
        <ele>113</ele>
        <time>2015-12-13T13:58:49Z</time>
      </trkpt>
      <trkpt lat="50.77307" lon="3.67469">
        <ele>113</ele>
        <time>2015-12-13T13:58:51Z</time>
      </trkpt>
      <trkpt lat="50.77308" lon="3.67465">
        <ele>113</ele>
        <time>2015-12-13T13:58:53Z</time>
      </trkpt>
      <trkpt lat="50.77308" lon="3.6746">
        <ele>113</ele>
        <time>2015-12-13T13:58:55Z</time>
      </trkpt>
      <trkpt lat="50.77308" lon="3.67455">
        <ele>113</ele>
        <time>2015-12-13T13:58:57Z</time>
      </trkpt>
      <trkpt lat="50.77309" lon="3.6745">
        <ele>113</ele>
        <time>2015-12-13T13:58:59Z</time>
      </trkpt>
      <trkpt lat="50.77309" lon="3.67446">
        <ele>112.3</ele>
        <time>2015-12-13T13:59:01Z</time>
      </trkpt>
      <trkpt lat="50.7731" lon="3.67442">
        <ele>112</ele>
        <time>2015-12-13T13:59:03Z</time>
      </trkpt>
      <trkpt lat="50.77311" lon="3.67438">
        <ele>112</ele>
        <time>2015-12-13T13:59:05Z</time>
      </trkpt>
      <trkpt lat="50.77312" lon="3.67435">
        <ele>112</ele>
        <time>2015-12-13T13:59:07Z</time>
      </trkpt>
      <trkpt lat="50.77314" lon="3.67431">
        <ele>112</ele>
        <time>2015-12-13T13:59:09Z</time>
      </trkpt>
      <trkpt lat="50.77317" lon="3.67429">
        <ele>111.3</ele>
        <time>2015-12-13T13:59:11Z</time>
      </trkpt>
      <trkpt lat="50.77321" lon="3.67428">
        <ele>111</ele>
        <time>2015-12-13T13:59:13Z</time>
      </trkpt>
      <trkpt lat="50.77324" lon="3.67428">
        <ele>111</ele>
        <time>2015-12-13T13:59:15Z</time>
      </trkpt>
      <trkpt lat="50.77327" lon="3.67427">
        <ele>111</ele>
        <time>2015-12-13T13:59:17Z</time>
      </trkpt>
      <trkpt lat="50.7733" lon="3.67426">
        <ele>111</ele>
        <time>2015-12-13T13:59:19Z</time>
      </trkpt>
      <trkpt lat="50.77333" lon="3.67426">
        <ele>110.3</ele>
        <time>2015-12-13T13:59:21Z</time>
      </trkpt>
      <trkpt lat="50.77335" lon="3.67426">
        <ele>110</ele>
        <time>2015-12-13T13:59:23Z</time>
      </trkpt>
      <trkpt lat="50.77338" lon="3.67426">
        <ele>110</ele>
        <time>2015-12-13T13:59:25Z</time>
      </trkpt>
      <trkpt lat="50.77341" lon="3.67427">
        <ele>110</ele>
        <time>2015-12-13T13:59:27Z</time>
      </trkpt>
      <trkpt lat="50.77343" lon="3.67428">
        <ele>110</ele>
        <time>2015-12-13T13:59:29Z</time>
      </trkpt>
      <trkpt lat="50.77346" lon="3.67428">
        <ele>109.5</ele>
        <time>2015-12-13T13:59:31Z</time>
      </trkpt>
      <trkpt lat="50.77349" lon="3.67429">
        <ele>109</ele>
        <time>2015-12-13T13:59:33Z</time>
      </trkpt>
      <trkpt lat="50.77351" lon="3.6743">
        <ele>109</ele>
        <time>2015-12-13T13:59:34Z</time>
      </trkpt>
      <trkpt lat="50.77354" lon="3.67432">
        <ele>109</ele>
        <time>2015-12-13T13:59:36Z</time>
      </trkpt>
      <trkpt lat="50.77358" lon="3.67433">
        <ele>109</ele>
        <time>2015-12-13T13:59:38Z</time>
      </trkpt>
      <trkpt lat="50.77361" lon="3.67434">
        <ele>109</ele>
        <time>2015-12-13T13:59:40Z</time>
      </trkpt>
      <trkpt lat="50.77364" lon="3.67436">
        <ele>109</ele>
        <time>2015-12-13T13:59:42Z</time>
      </trkpt>
      <trkpt lat="50.77365" lon="3.67437">
        <ele>109</ele>
        <time>2015-12-13T13:59:43Z</time>
      </trkpt>
      <trkpt lat="50.77368" lon="3.67439">
        <ele>109</ele>
        <time>2015-12-13T13:59:44Z</time>
      </trkpt>
      <trkpt lat="50.77371" lon="3.67441">
        <ele>109</ele>
        <time>2015-12-13T13:59:46Z</time>
      </trkpt>
      <trkpt lat="50.77374" lon="3.67442">
        <ele>109</ele>
        <time>2015-12-13T13:59:48Z</time>
      </trkpt>
      <trkpt lat="50.77377" lon="3.67443">
        <ele>109</ele>
        <time>2015-12-13T13:59:50Z</time>
      </trkpt>
      <trkpt lat="50.7738" lon="3.67444">
        <ele>109</ele>
        <time>2015-12-13T13:59:52Z</time>
      </trkpt>
      <trkpt lat="50.77383" lon="3.67445">
        <ele>109</ele>
        <time>2015-12-13T13:59:54Z</time>
      </trkpt>
      <trkpt lat="50.77386" lon="3.67445">
        <ele>109</ele>
        <time>2015-12-13T13:59:56Z</time>
      </trkpt>
      <trkpt lat="50.77389" lon="3.67446">
        <ele>109</ele>
        <time>2015-12-13T13:59:58Z</time>
      </trkpt>
      <trkpt lat="50.77391" lon="3.67447">
        <ele>109</ele>
        <time>2015-12-13T13:59:59Z</time>
      </trkpt>
      <trkpt lat="50.77393" lon="3.67448">
        <ele>109</ele>
        <time>2015-12-13T14:00:00Z</time>
      </trkpt>
      <trkpt lat="50.77395" lon="3.67449">
        <ele>109</ele>
        <time>2015-12-13T14:00:01Z</time>
      </trkpt>
      <trkpt lat="50.77398" lon="3.6745">
        <ele>109</ele>
        <time>2015-12-13T14:00:02Z</time>
      </trkpt>
      <trkpt lat="50.774" lon="3.67451">
        <ele>108.3</ele>
        <time>2015-12-13T14:00:03Z</time>
      </trkpt>
      <trkpt lat="50.77403" lon="3.67452">
        <ele>108</ele>
        <time>2015-12-13T14:00:04Z</time>
      </trkpt>
      <trkpt lat="50.77405" lon="3.67452">
        <ele>108</ele>
        <time>2015-12-13T14:00:05Z</time>
      </trkpt>
      <trkpt lat="50.77407" lon="3.67453">
        <ele>108</ele>
        <time>2015-12-13T14:00:06Z</time>
      </trkpt>
      <trkpt lat="50.7741" lon="3.67453">
        <ele>108</ele>
        <time>2015-12-13T14:00:07Z</time>
      </trkpt>
      <trkpt lat="50.77412" lon="3.67454">
        <ele>108</ele>
        <time>2015-12-13T14:00:08Z</time>
      </trkpt>
      <trkpt lat="50.77414" lon="3.67455">
        <ele>108</ele>
        <time>2015-12-13T14:00:09Z</time>
      </trkpt>
      <trkpt lat="50.77416" lon="3.67455">
        <ele>108</ele>
        <time>2015-12-13T14:00:10Z</time>
      </trkpt>
      <trkpt lat="50.77419" lon="3.67456">
        <ele>108</ele>
        <time>2015-12-13T14:00:11Z</time>
      </trkpt>
      <trkpt lat="50.77421" lon="3.67456">
        <ele>108</ele>
        <time>2015-12-13T14:00:12Z</time>
      </trkpt>
      <trkpt lat="50.77423" lon="3.67457">
        <ele>108</ele>
        <time>2015-12-13T14:00:13Z</time>
      </trkpt>
      <trkpt lat="50.77425" lon="3.67457">
        <ele>108</ele>
        <time>2015-12-13T14:00:14Z</time>
      </trkpt>
      <trkpt lat="50.77427" lon="3.67457">
        <ele>108</ele>
        <time>2015-12-13T14:00:15Z</time>
      </trkpt>
      <trkpt lat="50.77429" lon="3.67458">
        <ele>108</ele>
        <time>2015-12-13T14:00:16Z</time>
      </trkpt>
      <trkpt lat="50.77432" lon="3.67458">
        <ele>108</ele>
        <time>2015-12-13T14:00:17Z</time>
      </trkpt>
      <trkpt lat="50.77435" lon="3.67458">
        <ele>108</ele>
        <time>2015-12-13T14:00:18Z</time>
      </trkpt>
      <trkpt lat="50.77437" lon="3.67459">
        <ele>108</ele>
        <time>2015-12-13T14:00:19Z</time>
      </trkpt>
      <trkpt lat="50.7744" lon="3.67459">
        <ele>108</ele>
        <time>2015-12-13T14:00:20Z</time>
      </trkpt>
      <trkpt lat="50.77443" lon="3.6746">
        <ele>108</ele>
        <time>2015-12-13T14:00:21Z</time>
      </trkpt>
      <trkpt lat="50.77445" lon="3.67462">
        <ele>108</ele>
        <time>2015-12-13T14:00:22Z</time>
      </trkpt>
      <trkpt lat="50.77448" lon="3.67463">
        <ele>108</ele>
        <time>2015-12-13T14:00:23Z</time>
      </trkpt>
      <trkpt lat="50.7745" lon="3.67464">
        <ele>108</ele>
        <time>2015-12-13T14:00:24Z</time>
      </trkpt>
      <trkpt lat="50.77452" lon="3.67465">
        <ele>108</ele>
        <time>2015-12-13T14:00:25Z</time>
      </trkpt>
      <trkpt lat="50.77455" lon="3.67467">
        <ele>108</ele>
        <time>2015-12-13T14:00:26Z</time>
      </trkpt>
      <trkpt lat="50.77457" lon="3.67468">
        <ele>108</ele>
        <time>2015-12-13T14:00:27Z</time>
      </trkpt>
      <trkpt lat="50.77459" lon="3.67469">
        <ele>108</ele>
        <time>2015-12-13T14:00:28Z</time>
      </trkpt>
      <trkpt lat="50.77461" lon="3.67471">
        <ele>108</ele>
        <time>2015-12-13T14:00:29Z</time>
      </trkpt>
      <trkpt lat="50.77463" lon="3.67472">
        <ele>108</ele>
        <time>2015-12-13T14:00:30Z</time>
      </trkpt>
      <trkpt lat="50.77465" lon="3.67474">
        <ele>108</ele>
        <time>2015-12-13T14:00:31Z</time>
      </trkpt>
      <trkpt lat="50.77467" lon="3.67476">
        <ele>108</ele>
        <time>2015-12-13T14:00:32Z</time>
      </trkpt>
      <trkpt lat="50.77469" lon="3.67476">
        <ele>108</ele>
        <time>2015-12-13T14:00:33Z</time>
      </trkpt>
      <trkpt lat="50.77471" lon="3.67477">
        <ele>108</ele>
        <time>2015-12-13T14:00:34Z</time>
      </trkpt>
      <trkpt lat="50.77473" lon="3.67478">
        <ele>108</ele>
        <time>2015-12-13T14:00:35Z</time>
      </trkpt>
      <trkpt lat="50.77475" lon="3.6748">
        <ele>108</ele>
        <time>2015-12-13T14:00:36Z</time>
      </trkpt>
      <trkpt lat="50.77478" lon="3.67482">
        <ele>108</ele>
        <time>2015-12-13T14:00:37Z</time>
      </trkpt>
      <trkpt lat="50.77481" lon="3.67484">
        <ele>108</ele>
        <time>2015-12-13T14:00:38Z</time>
      </trkpt>
      <trkpt lat="50.77483" lon="3.67486">
        <ele>108</ele>
        <time>2015-12-13T14:00:39Z</time>
      </trkpt>
      <trkpt lat="50.77486" lon="3.67488">
        <ele>108</ele>
        <time>2015-12-13T14:00:40Z</time>
      </trkpt>
      <trkpt lat="50.77488" lon="3.6749">
        <ele>108</ele>
        <time>2015-12-13T14:00:41Z</time>
      </trkpt>
      <trkpt lat="50.77491" lon="3.67491">
        <ele>108</ele>
        <time>2015-12-13T14:00:42Z</time>
      </trkpt>
      <trkpt lat="50.77494" lon="3.67493">
        <ele>108</ele>
        <time>2015-12-13T14:00:43Z</time>
      </trkpt>
      <trkpt lat="50.77497" lon="3.67495">
        <ele>108</ele>
        <time>2015-12-13T14:00:44Z</time>
      </trkpt>
      <trkpt lat="50.775" lon="3.67496">
        <ele>108</ele>
        <time>2015-12-13T14:00:45Z</time>
      </trkpt>
      <trkpt lat="50.77503" lon="3.67498">
        <ele>108</ele>
        <time>2015-12-13T14:00:46Z</time>
      </trkpt>
      <trkpt lat="50.77505" lon="3.675">
        <ele>108</ele>
        <time>2015-12-13T14:00:47Z</time>
      </trkpt>
      <trkpt lat="50.77508" lon="3.67502">
        <ele>108</ele>
        <time>2015-12-13T14:00:48Z</time>
      </trkpt>
      <trkpt lat="50.7751" lon="3.67504">
        <ele>108</ele>
        <time>2015-12-13T14:00:49Z</time>
      </trkpt>
      <trkpt lat="50.77513" lon="3.67505">
        <ele>108</ele>
        <time>2015-12-13T14:00:50Z</time>
      </trkpt>
      <trkpt lat="50.77516" lon="3.67507">
        <ele>108</ele>
        <time>2015-12-13T14:00:51Z</time>
      </trkpt>
      <trkpt lat="50.77518" lon="3.67508">
        <ele>108</ele>
        <time>2015-12-13T14:00:52Z</time>
      </trkpt>
      <trkpt lat="50.77521" lon="3.6751">
        <ele>107.3</ele>
        <time>2015-12-13T14:00:53Z</time>
      </trkpt>
      <trkpt lat="50.77523" lon="3.67512">
        <ele>107</ele>
        <time>2015-12-13T14:00:54Z</time>
      </trkpt>
      <trkpt lat="50.77526" lon="3.67513">
        <ele>107</ele>
        <time>2015-12-13T14:00:55Z</time>
      </trkpt>
      <trkpt lat="50.77528" lon="3.67515">
        <ele>107</ele>
        <time>2015-12-13T14:00:56Z</time>
      </trkpt>
      <trkpt lat="50.77531" lon="3.67517">
        <ele>107</ele>
        <time>2015-12-13T14:00:57Z</time>
      </trkpt>
      <trkpt lat="50.77533" lon="3.67518">
        <ele>107</ele>
        <time>2015-12-13T14:00:58Z</time>
      </trkpt>
      <trkpt lat="50.77536" lon="3.6752">
        <ele>107</ele>
        <time>2015-12-13T14:00:59Z</time>
      </trkpt>
      <trkpt lat="50.77538" lon="3.67521">
        <ele>107</ele>
        <time>2015-12-13T14:01:00Z</time>
      </trkpt>
      <trkpt lat="50.7754" lon="3.67523">
        <ele>107</ele>
        <time>2015-12-13T14:01:01Z</time>
      </trkpt>
      <trkpt lat="50.77543" lon="3.67524">
        <ele>107</ele>
        <time>2015-12-13T14:01:02Z</time>
      </trkpt>
      <trkpt lat="50.77545" lon="3.67526">
        <ele>107</ele>
        <time>2015-12-13T14:01:03Z</time>
      </trkpt>
      <trkpt lat="50.77547" lon="3.67527">
        <ele>107</ele>
        <time>2015-12-13T14:01:04Z</time>
      </trkpt>
      <trkpt lat="50.7755" lon="3.67529">
        <ele>107</ele>
        <time>2015-12-13T14:01:05Z</time>
      </trkpt>
      <trkpt lat="50.77552" lon="3.6753">
        <ele>107</ele>
        <time>2015-12-13T14:01:06Z</time>
      </trkpt>
      <trkpt lat="50.77554" lon="3.67531">
        <ele>107</ele>
        <time>2015-12-13T14:01:07Z</time>
      </trkpt>
      <trkpt lat="50.77556" lon="3.67532">
        <ele>107</ele>
        <time>2015-12-13T14:01:08Z</time>
      </trkpt>
      <trkpt lat="50.77558" lon="3.67533">
        <ele>107</ele>
        <time>2015-12-13T14:01:09Z</time>
      </trkpt>
      <trkpt lat="50.77561" lon="3.67534">
        <ele>107</ele>
        <time>2015-12-13T14:01:10Z</time>
      </trkpt>
      <trkpt lat="50.77563" lon="3.67535">
        <ele>107</ele>
        <time>2015-12-13T14:01:11Z</time>
      </trkpt>
      <trkpt lat="50.77565" lon="3.67536">
        <ele>107</ele>
        <time>2015-12-13T14:01:12Z</time>
      </trkpt>
      <trkpt lat="50.77568" lon="3.67538">
        <ele>107</ele>
        <time>2015-12-13T14:01:13Z</time>
      </trkpt>
      <trkpt lat="50.7757" lon="3.67539">
        <ele>107</ele>
        <time>2015-12-13T14:01:14Z</time>
      </trkpt>
      <trkpt lat="50.77572" lon="3.67541">
        <ele>107</ele>
        <time>2015-12-13T14:01:15Z</time>
      </trkpt>
      <trkpt lat="50.77574" lon="3.67543">
        <ele>107</ele>
        <time>2015-12-13T14:01:16Z</time>
      </trkpt>
      <trkpt lat="50.77577" lon="3.67544">
        <ele>107</ele>
        <time>2015-12-13T14:01:17Z</time>
      </trkpt>
      <trkpt lat="50.77579" lon="3.67546">
        <ele>107</ele>
        <time>2015-12-13T14:01:18Z</time>
      </trkpt>
      <trkpt lat="50.77581" lon="3.67548">
        <ele>107</ele>
        <time>2015-12-13T14:01:19Z</time>
      </trkpt>
      <trkpt lat="50.77583" lon="3.6755">
        <ele>107</ele>
        <time>2015-12-13T14:01:20Z</time>
      </trkpt>
      <trkpt lat="50.77585" lon="3.67552">
        <ele>106.3</ele>
        <time>2015-12-13T14:01:21Z</time>
      </trkpt>
      <trkpt lat="50.77587" lon="3.67553">
        <ele>106</ele>
        <time>2015-12-13T14:01:22Z</time>
      </trkpt>
      <trkpt lat="50.77589" lon="3.67555">
        <ele>106</ele>
        <time>2015-12-13T14:01:23Z</time>
      </trkpt>
      <trkpt lat="50.77591" lon="3.67557">
        <ele>106</ele>
        <time>2015-12-13T14:01:24Z</time>
      </trkpt>
      <trkpt lat="50.77593" lon="3.67558">
        <ele>106</ele>
        <time>2015-12-13T14:01:25Z</time>
      </trkpt>
      <trkpt lat="50.77595" lon="3.67559">
        <ele>106</ele>
        <time>2015-12-13T14:01:26Z</time>
      </trkpt>
      <trkpt lat="50.77597" lon="3.6756">
        <ele>106</ele>
        <time>2015-12-13T14:01:27Z</time>
      </trkpt>
      <trkpt lat="50.776" lon="3.67562">
        <ele>106</ele>
        <time>2015-12-13T14:01:28Z</time>
      </trkpt>
      <trkpt lat="50.77602" lon="3.67563">
        <ele>106</ele>
        <time>2015-12-13T14:01:29Z</time>
      </trkpt>
      <trkpt lat="50.77604" lon="3.67564">
        <ele>106</ele>
        <time>2015-12-13T14:01:30Z</time>
      </trkpt>
      <trkpt lat="50.77606" lon="3.67565">
        <ele>106</ele>
        <time>2015-12-13T14:01:31Z</time>
      </trkpt>
      <trkpt lat="50.77608" lon="3.67567">
        <ele>106</ele>
        <time>2015-12-13T14:01:32Z</time>
      </trkpt>
      <trkpt lat="50.77611" lon="3.67568">
        <ele>106</ele>
        <time>2015-12-13T14:01:33Z</time>
      </trkpt>
      <trkpt lat="50.77613" lon="3.6757">
        <ele>106</ele>
        <time>2015-12-13T14:01:34Z</time>
      </trkpt>
      <trkpt lat="50.77616" lon="3.67572">
        <ele>106</ele>
        <time>2015-12-13T14:01:35Z</time>
      </trkpt>
      <trkpt lat="50.77619" lon="3.67574">
        <ele>106</ele>
        <time>2015-12-13T14:01:36Z</time>
      </trkpt>
      <trkpt lat="50.77621" lon="3.67575">
        <ele>106</ele>
        <time>2015-12-13T14:01:37Z</time>
      </trkpt>
      <trkpt lat="50.77623" lon="3.67577">
        <ele>106</ele>
        <time>2015-12-13T14:01:38Z</time>
      </trkpt>
      <trkpt lat="50.77625" lon="3.67577">
        <ele>106</ele>
        <time>2015-12-13T14:01:39Z</time>
      </trkpt>
      <trkpt lat="50.77628" lon="3.67578">
        <ele>106</ele>
        <time>2015-12-13T14:01:40Z</time>
      </trkpt>
      <trkpt lat="50.7763" lon="3.67579">
        <ele>105.5</ele>
        <time>2015-12-13T14:01:41Z</time>
      </trkpt>
      <trkpt lat="50.77632" lon="3.67579">
        <ele>105</ele>
        <time>2015-12-13T14:01:42Z</time>
      </trkpt>
      <trkpt lat="50.77634" lon="3.6758">
        <ele>105</ele>
        <time>2015-12-13T14:01:43Z</time>
      </trkpt>
      <trkpt lat="50.77636" lon="3.6758">
        <ele>105</ele>
        <time>2015-12-13T14:01:44Z</time>
      </trkpt>
      <trkpt lat="50.77638" lon="3.67579">
        <ele>105</ele>
        <time>2015-12-13T14:01:45Z</time>
      </trkpt>
      <trkpt lat="50.7764" lon="3.67579">
        <ele>105</ele>
        <time>2015-12-13T14:01:46Z</time>
      </trkpt>
      <trkpt lat="50.77642" lon="3.67579">
        <ele>105</ele>
        <time>2015-12-13T14:01:47Z</time>
      </trkpt>
      <trkpt lat="50.77644" lon="3.67579">
        <ele>105</ele>
        <time>2015-12-13T14:01:48Z</time>
      </trkpt>
      <trkpt lat="50.77646" lon="3.67579">
        <ele>105</ele>
        <time>2015-12-13T14:01:49Z</time>
      </trkpt>
      <trkpt lat="50.77648" lon="3.67579">
        <ele>105</ele>
        <time>2015-12-13T14:01:50Z</time>
      </trkpt>
      <trkpt lat="50.7765" lon="3.6758">
        <ele>104.3</ele>
        <time>2015-12-13T14:01:51Z</time>
      </trkpt>
      <trkpt lat="50.77652" lon="3.6758">
        <ele>104</ele>
        <time>2015-12-13T14:01:52Z</time>
      </trkpt>
      <trkpt lat="50.77654" lon="3.6758">
        <ele>104</ele>
        <time>2015-12-13T14:01:53Z</time>
      </trkpt>
      <trkpt lat="50.77657" lon="3.67581">
        <ele>104</ele>
        <time>2015-12-13T14:01:54Z</time>
      </trkpt>
      <trkpt lat="50.77659" lon="3.67581">
        <ele>104</ele>
        <time>2015-12-13T14:01:55Z</time>
      </trkpt>
      <trkpt lat="50.77661" lon="3.67582">
        <ele>104</ele>
        <time>2015-12-13T14:01:56Z</time>
      </trkpt>
      <trkpt lat="50.77663" lon="3.67582">
        <ele>104</ele>
        <time>2015-12-13T14:01:57Z</time>
      </trkpt>
      <trkpt lat="50.77666" lon="3.67583">
        <ele>104</ele>
        <time>2015-12-13T14:01:58Z</time>
      </trkpt>
      <trkpt lat="50.77668" lon="3.67584">
        <ele>104</ele>
        <time>2015-12-13T14:01:59Z</time>
      </trkpt>
      <trkpt lat="50.7767" lon="3.67584">
        <ele>104</ele>
        <time>2015-12-13T14:02:00Z</time>
      </trkpt>
      <trkpt lat="50.77673" lon="3.67585">
        <ele>101.8</ele>
        <time>2015-12-13T14:02:01Z</time>
      </trkpt>
      <trkpt lat="50.77675" lon="3.67586">
        <ele>100</ele>
        <time>2015-12-13T14:02:02Z</time>
      </trkpt>
      <trkpt lat="50.77677" lon="3.67586">
        <ele>100</ele>
        <time>2015-12-13T14:02:03Z</time>
      </trkpt>
      <trkpt lat="50.77679" lon="3.67587">
        <ele>100</ele>
        <time>2015-12-13T14:02:04Z</time>
      </trkpt>
      <trkpt lat="50.77682" lon="3.67588">
        <ele>100</ele>
        <time>2015-12-13T14:02:06Z</time>
      </trkpt>
      <trkpt lat="50.77684" lon="3.67589">
        <ele>100</ele>
        <time>2015-12-13T14:02:08Z</time>
      </trkpt>
      <trkpt lat="50.77687" lon="3.6759">
        <ele>100</ele>
        <time>2015-12-13T14:02:10Z</time>
      </trkpt>
      <trkpt lat="50.77689" lon="3.6759">
        <ele>100</ele>
        <time>2015-12-13T14:02:12Z</time>
      </trkpt>
      <trkpt lat="50.7769" lon="3.67586">
        <ele>99</ele>
        <time>2015-12-13T14:02:26Z</time>
      </trkpt>
      <trkpt lat="50.77691" lon="3.67582">
        <ele>99</ele>
        <time>2015-12-13T14:02:27Z</time>
      </trkpt>
      <trkpt lat="50.77691" lon="3.67579">
        <ele>99</ele>
        <time>2015-12-13T14:02:28Z</time>
      </trkpt>
      <trkpt lat="50.77691" lon="3.67575">
        <ele>99</ele>
        <time>2015-12-13T14:02:30Z</time>
      </trkpt>
      <trkpt lat="50.77692" lon="3.67572">
        <ele>97</ele>
        <time>2015-12-13T14:02:38Z</time>
      </trkpt>
      <trkpt lat="50.77692" lon="3.67568">
        <ele>96</ele>
        <time>2015-12-13T14:02:42Z</time>
      </trkpt>
      <trkpt lat="50.77692" lon="3.67564">
        <ele>96</ele>
        <time>2015-12-13T14:02:44Z</time>
      </trkpt>
      <trkpt lat="50.77693" lon="3.6756">
        <ele>96</ele>
        <time>2015-12-13T14:02:46Z</time>
      </trkpt>
      <trkpt lat="50.77693" lon="3.67556">
        <ele>96</ele>
        <time>2015-12-13T14:02:48Z</time>
      </trkpt>
      <trkpt lat="50.77694" lon="3.67552">
        <ele>96</ele>
        <time>2015-12-13T14:02:50Z</time>
      </trkpt>
      <trkpt lat="50.77694" lon="3.67548">
        <ele>95</ele>
        <time>2015-12-13T14:02:52Z</time>
      </trkpt>
      <trkpt lat="50.77695" lon="3.67544">
        <ele>95</ele>
        <time>2015-12-13T14:02:54Z</time>
      </trkpt>
      <trkpt lat="50.77696" lon="3.67541">
        <ele>95</ele>
        <time>2015-12-13T14:02:56Z</time>
      </trkpt>
      <trkpt lat="50.77697" lon="3.67537">
        <ele>95</ele>
        <time>2015-12-13T14:02:58Z</time>
      </trkpt>
      <trkpt lat="50.77699" lon="3.67535">
        <ele>95</ele>
        <time>2015-12-13T14:03:00Z</time>
      </trkpt>
      <trkpt lat="50.77702" lon="3.67533">
        <ele>93</ele>
        <time>2015-12-13T14:03:02Z</time>
      </trkpt>
      <trkpt lat="50.77705" lon="3.67532">
        <ele>93</ele>
        <time>2015-12-13T14:03:04Z</time>
      </trkpt>
      <trkpt lat="50.77708" lon="3.67532">
        <ele>93</ele>
        <time>2015-12-13T14:03:06Z</time>
      </trkpt>
      <trkpt lat="50.7771" lon="3.67534">
        <ele>93</ele>
        <time>2015-12-13T14:03:08Z</time>
      </trkpt>
      <trkpt lat="50.77713" lon="3.67535">
        <ele>93</ele>
        <time>2015-12-13T14:03:10Z</time>
      </trkpt>
      <trkpt lat="50.77716" lon="3.67536">
        <ele>93</ele>
        <time>2015-12-13T14:03:12Z</time>
      </trkpt>
      <trkpt lat="50.77719" lon="3.67538">
        <ele>93</ele>
        <time>2015-12-13T14:03:14Z</time>
      </trkpt>
      <trkpt lat="50.77721" lon="3.67539">
        <ele>93</ele>
        <time>2015-12-13T14:03:16Z</time>
      </trkpt>
      <trkpt lat="50.77724" lon="3.6754">
        <ele>93</ele>
        <time>2015-12-13T14:03:18Z</time>
      </trkpt>
      <trkpt lat="50.77726" lon="3.67541">
        <ele>93</ele>
        <time>2015-12-13T14:03:20Z</time>
      </trkpt>
      <trkpt lat="50.7773" lon="3.67542">
        <ele>92</ele>
        <time>2015-12-13T14:03:22Z</time>
      </trkpt>
      <trkpt lat="50.77733" lon="3.67542">
        <ele>92</ele>
        <time>2015-12-13T14:03:24Z</time>
      </trkpt>
      <trkpt lat="50.77735" lon="3.67543">
        <ele>92</ele>
        <time>2015-12-13T14:03:26Z</time>
      </trkpt>
      <trkpt lat="50.77739" lon="3.67543">
        <ele>92</ele>
        <time>2015-12-13T14:03:28Z</time>
      </trkpt>
      <trkpt lat="50.77742" lon="3.67543">
        <ele>92</ele>
        <time>2015-12-13T14:03:30Z</time>
      </trkpt>
      <trkpt lat="50.77745" lon="3.67543">
        <ele>92</ele>
        <time>2015-12-13T14:03:32Z</time>
      </trkpt>
      <trkpt lat="50.77748" lon="3.67542">
        <ele>92</ele>
        <time>2015-12-13T14:03:34Z</time>
      </trkpt>
      <trkpt lat="50.77751" lon="3.67543">
        <ele>92</ele>
        <time>2015-12-13T14:03:36Z</time>
      </trkpt>
      <trkpt lat="50.77754" lon="3.67543">
        <ele>92</ele>
        <time>2015-12-13T14:03:38Z</time>
      </trkpt>
      <trkpt lat="50.77757" lon="3.67544">
        <ele>92</ele>
        <time>2015-12-13T14:03:40Z</time>
      </trkpt>
      <trkpt lat="50.7776" lon="3.67544">
        <ele>91</ele>
        <time>2015-12-13T14:03:42Z</time>
      </trkpt>
      <trkpt lat="50.77762" lon="3.67544">
        <ele>91</ele>
        <time>2015-12-13T14:03:44Z</time>
      </trkpt>
      <trkpt lat="50.77766" lon="3.67544">
        <ele>91</ele>
        <time>2015-12-13T14:03:46Z</time>
      </trkpt>
      <trkpt lat="50.77769" lon="3.67545">
        <ele>91</ele>
        <time>2015-12-13T14:03:48Z</time>
      </trkpt>
      <trkpt lat="50.77772" lon="3.67545">
        <ele>91</ele>
        <time>2015-12-13T14:03:50Z</time>
      </trkpt>
      <trkpt lat="50.77774" lon="3.67546">
        <ele>91</ele>
        <time>2015-12-13T14:03:52Z</time>
      </trkpt>
      <trkpt lat="50.77777" lon="3.67547">
        <ele>91</ele>
        <time>2015-12-13T14:03:54Z</time>
      </trkpt>
      <trkpt lat="50.77779" lon="3.67548">
        <ele>91</ele>
        <time>2015-12-13T14:03:56Z</time>
      </trkpt>
      <trkpt lat="50.77781" lon="3.67549">
        <ele>91</ele>
        <time>2015-12-13T14:03:57Z</time>
      </trkpt>
      <trkpt lat="50.77785" lon="3.6755">
        <ele>91</ele>
        <time>2015-12-13T14:03:59Z</time>
      </trkpt>
      <trkpt lat="50.77788" lon="3.67551">
        <ele>90.3</ele>
        <time>2015-12-13T14:04:01Z</time>
      </trkpt>
      <trkpt lat="50.77791" lon="3.67551">
        <ele>90</ele>
        <time>2015-12-13T14:04:03Z</time>
      </trkpt>
      <trkpt lat="50.77794" lon="3.6755">
        <ele>90</ele>
        <time>2015-12-13T14:04:05Z</time>
      </trkpt>
      <trkpt lat="50.77801" lon="3.67551">
        <ele>90</ele>
        <time>2015-12-13T14:04:09Z</time>
      </trkpt>
      <trkpt lat="50.77804" lon="3.67551">
        <ele>90</ele>
        <time>2015-12-13T14:04:11Z</time>
      </trkpt>
      <trkpt lat="50.77807" lon="3.67551">
        <ele>90</ele>
        <time>2015-12-13T14:04:13Z</time>
      </trkpt>
      <trkpt lat="50.7781" lon="3.6755">
        <ele>90</ele>
        <time>2015-12-13T14:04:15Z</time>
      </trkpt>
      <trkpt lat="50.77813" lon="3.67549">
        <ele>90</ele>
        <time>2015-12-13T14:04:17Z</time>
      </trkpt>
      <trkpt lat="50.77816" lon="3.67549">
        <ele>90</ele>
        <time>2015-12-13T14:04:19Z</time>
      </trkpt>
      <trkpt lat="50.77819" lon="3.67548">
        <ele>89.3</ele>
        <time>2015-12-13T14:04:21Z</time>
      </trkpt>
      <trkpt lat="50.77822" lon="3.67548">
        <ele>89</ele>
        <time>2015-12-13T14:04:23Z</time>
      </trkpt>
      <trkpt lat="50.77825" lon="3.67548">
        <ele>89</ele>
        <time>2015-12-13T14:04:25Z</time>
      </trkpt>
      <trkpt lat="50.77829" lon="3.67547">
        <ele>89</ele>
        <time>2015-12-13T14:04:27Z</time>
      </trkpt>
      <trkpt lat="50.77832" lon="3.67546">
        <ele>89</ele>
        <time>2015-12-13T14:04:29Z</time>
      </trkpt>
      <trkpt lat="50.77834" lon="3.67545">
        <ele>89</ele>
        <time>2015-12-13T14:04:30Z</time>
      </trkpt>
      <trkpt lat="50.77837" lon="3.67546">
        <ele>89</ele>
        <time>2015-12-13T14:04:32Z</time>
      </trkpt>
      <trkpt lat="50.77841" lon="3.67546">
        <ele>89</ele>
        <time>2015-12-13T14:04:34Z</time>
      </trkpt>
      <trkpt lat="50.77844" lon="3.67548">
        <ele>89</ele>
        <time>2015-12-13T14:04:36Z</time>
      </trkpt>
      <trkpt lat="50.77846" lon="3.67549">
        <ele>89</ele>
        <time>2015-12-13T14:04:37Z</time>
      </trkpt>
      <trkpt lat="50.77849" lon="3.67551">
        <ele>89</ele>
        <time>2015-12-13T14:04:39Z</time>
      </trkpt>
      <trkpt lat="50.77851" lon="3.67553">
        <ele>89</ele>
        <time>2015-12-13T14:04:40Z</time>
      </trkpt>
      <trkpt lat="50.77853" lon="3.67554">
        <ele>88.3</ele>
        <time>2015-12-13T14:04:41Z</time>
      </trkpt>
      <trkpt lat="50.77854" lon="3.67556">
        <ele>88</ele>
        <time>2015-12-13T14:04:42Z</time>
      </trkpt>
      <trkpt lat="50.77857" lon="3.67557">
        <ele>88</ele>
        <time>2015-12-13T14:04:43Z</time>
      </trkpt>
      <trkpt lat="50.77859" lon="3.67558">
        <ele>88</ele>
        <time>2015-12-13T14:04:44Z</time>
      </trkpt>
      <trkpt lat="50.77861" lon="3.6756">
        <ele>88</ele>
        <time>2015-12-13T14:04:45Z</time>
      </trkpt>
      <trkpt lat="50.77863" lon="3.67562">
        <ele>88</ele>
        <time>2015-12-13T14:04:46Z</time>
      </trkpt>
      <trkpt lat="50.77865" lon="3.67564">
        <ele>88</ele>
        <time>2015-12-13T14:04:47Z</time>
      </trkpt>
      <trkpt lat="50.77867" lon="3.67566">
        <ele>88</ele>
        <time>2015-12-13T14:04:48Z</time>
      </trkpt>
      <trkpt lat="50.77868" lon="3.67569">
        <ele>88</ele>
        <time>2015-12-13T14:04:49Z</time>
      </trkpt>
      <trkpt lat="50.7787" lon="3.67572">
        <ele>88</ele>
        <time>2015-12-13T14:04:50Z</time>
      </trkpt>
      <trkpt lat="50.77873" lon="3.67574">
        <ele>88.5</ele>
        <time>2015-12-13T14:04:51Z</time>
      </trkpt>
      <trkpt lat="50.77875" lon="3.67576">
        <ele>89</ele>
        <time>2015-12-13T14:04:52Z</time>
      </trkpt>
      <trkpt lat="50.77877" lon="3.67579">
        <ele>89</ele>
        <time>2015-12-13T14:04:53Z</time>
      </trkpt>
      <trkpt lat="50.77878" lon="3.67582">
        <ele>89</ele>
        <time>2015-12-13T14:04:54Z</time>
      </trkpt>
      <trkpt lat="50.7788" lon="3.67584">
        <ele>89</ele>
        <time>2015-12-13T14:04:55Z</time>
      </trkpt>
      <trkpt lat="50.77882" lon="3.67587">
        <ele>89</ele>
        <time>2015-12-13T14:04:56Z</time>
      </trkpt>
      <trkpt lat="50.77884" lon="3.67589">
        <ele>89</ele>
        <time>2015-12-13T14:04:57Z</time>
      </trkpt>
      <trkpt lat="50.77886" lon="3.67591">
        <ele>89</ele>
        <time>2015-12-13T14:04:58Z</time>
      </trkpt>
      <trkpt lat="50.77887" lon="3.67593">
        <ele>89</ele>
        <time>2015-12-13T14:04:59Z</time>
      </trkpt>
      <trkpt lat="50.77889" lon="3.67596">
        <ele>89</ele>
        <time>2015-12-13T14:05:00Z</time>
      </trkpt>
      <trkpt lat="50.77891" lon="3.67598">
        <ele>89</ele>
        <time>2015-12-13T14:05:01Z</time>
      </trkpt>
      <trkpt lat="50.77893" lon="3.676">
        <ele>89</ele>
        <time>2015-12-13T14:05:02Z</time>
      </trkpt>
      <trkpt lat="50.77895" lon="3.67603">
        <ele>89</ele>
        <time>2015-12-13T14:05:03Z</time>
      </trkpt>
      <trkpt lat="50.77897" lon="3.67605">
        <ele>89</ele>
        <time>2015-12-13T14:05:04Z</time>
      </trkpt>
      <trkpt lat="50.77899" lon="3.67607">
        <ele>89</ele>
        <time>2015-12-13T14:05:05Z</time>
      </trkpt>
      <trkpt lat="50.77901" lon="3.67609">
        <ele>89</ele>
        <time>2015-12-13T14:05:06Z</time>
      </trkpt>
      <trkpt lat="50.77903" lon="3.67612">
        <ele>89</ele>
        <time>2015-12-13T14:05:07Z</time>
      </trkpt>
      <trkpt lat="50.77905" lon="3.67614">
        <ele>89</ele>
        <time>2015-12-13T14:05:08Z</time>
      </trkpt>
      <trkpt lat="50.77907" lon="3.67616">
        <ele>89</ele>
        <time>2015-12-13T14:05:09Z</time>
      </trkpt>
      <trkpt lat="50.77908" lon="3.67618">
        <ele>89</ele>
        <time>2015-12-13T14:05:10Z</time>
      </trkpt>
      <trkpt lat="50.7791" lon="3.6762">
        <ele>89.5</ele>
        <time>2015-12-13T14:05:11Z</time>
      </trkpt>
      <trkpt lat="50.77912" lon="3.67622">
        <ele>90</ele>
        <time>2015-12-13T14:05:12Z</time>
      </trkpt>
      <trkpt lat="50.77915" lon="3.67624">
        <ele>90</ele>
        <time>2015-12-13T14:05:13Z</time>
      </trkpt>
      <trkpt lat="50.77917" lon="3.67626">
        <ele>90</ele>
        <time>2015-12-13T14:05:14Z</time>
      </trkpt>
      <trkpt lat="50.77918" lon="3.67628">
        <ele>90</ele>
        <time>2015-12-13T14:05:15Z</time>
      </trkpt>
      <trkpt lat="50.77921" lon="3.67631">
        <ele>90</ele>
        <time>2015-12-13T14:05:17Z</time>
      </trkpt>
      <trkpt lat="50.77922" lon="3.67632">
        <ele>90</ele>
        <time>2015-12-13T14:05:18Z</time>
      </trkpt>
      <trkpt lat="50.77925" lon="3.67635">
        <ele>90</ele>
        <time>2015-12-13T14:05:20Z</time>
      </trkpt>
      <trkpt lat="50.77927" lon="3.67638">
        <ele>90</ele>
        <time>2015-12-13T14:05:22Z</time>
      </trkpt>
      <trkpt lat="50.77929" lon="3.67641">
        <ele>90</ele>
        <time>2015-12-13T14:05:24Z</time>
      </trkpt>
      <trkpt lat="50.77931" lon="3.67643">
        <ele>90</ele>
        <time>2015-12-13T14:05:25Z</time>
      </trkpt>
      <trkpt lat="50.77934" lon="3.67646">
        <ele>90</ele>
        <time>2015-12-13T14:05:27Z</time>
      </trkpt>
      <trkpt lat="50.77935" lon="3.67648">
        <ele>90</ele>
        <time>2015-12-13T14:05:28Z</time>
      </trkpt>
      <trkpt lat="50.77937" lon="3.67651">
        <ele>90</ele>
        <time>2015-12-13T14:05:29Z</time>
      </trkpt>
      <trkpt lat="50.77939" lon="3.67653">
        <ele>90</ele>
        <time>2015-12-13T14:05:30Z</time>
      </trkpt>
      <trkpt lat="50.7794" lon="3.67656">
        <ele>90</ele>
        <time>2015-12-13T14:05:31Z</time>
      </trkpt>
      <trkpt lat="50.77942" lon="3.67659">
        <ele>90</ele>
        <time>2015-12-13T14:05:32Z</time>
      </trkpt>
      <trkpt lat="50.77943" lon="3.67662">
        <ele>90</ele>
        <time>2015-12-13T14:05:33Z</time>
      </trkpt>
      <trkpt lat="50.77945" lon="3.67664">
        <ele>90</ele>
        <time>2015-12-13T14:05:34Z</time>
      </trkpt>
      <trkpt lat="50.77946" lon="3.67666">
        <ele>90</ele>
        <time>2015-12-13T14:05:35Z</time>
      </trkpt>
      <trkpt lat="50.77948" lon="3.67668">
        <ele>90</ele>
        <time>2015-12-13T14:05:36Z</time>
      </trkpt>
      <trkpt lat="50.77949" lon="3.6767">
        <ele>90</ele>
        <time>2015-12-13T14:05:37Z</time>
      </trkpt>
      <trkpt lat="50.77951" lon="3.67672">
        <ele>90</ele>
        <time>2015-12-13T14:05:38Z</time>
      </trkpt>
      <trkpt lat="50.77952" lon="3.67675">
        <ele>90</ele>
        <time>2015-12-13T14:05:39Z</time>
      </trkpt>
      <trkpt lat="50.77954" lon="3.67677">
        <ele>90</ele>
        <time>2015-12-13T14:05:40Z</time>
      </trkpt>
      <trkpt lat="50.77955" lon="3.67679">
        <ele>90</ele>
        <time>2015-12-13T14:05:41Z</time>
      </trkpt>
      <trkpt lat="50.77957" lon="3.67681">
        <ele>90</ele>
        <time>2015-12-13T14:05:42Z</time>
      </trkpt>
      <trkpt lat="50.77959" lon="3.67683">
        <ele>90</ele>
        <time>2015-12-13T14:05:43Z</time>
      </trkpt>
      <trkpt lat="50.77961" lon="3.67685">
        <ele>90</ele>
        <time>2015-12-13T14:05:44Z</time>
      </trkpt>
      <trkpt lat="50.77962" lon="3.67688">
        <ele>90</ele>
        <time>2015-12-13T14:05:45Z</time>
      </trkpt>
      <trkpt lat="50.77963" lon="3.6769">
        <ele>90</ele>
        <time>2015-12-13T14:05:46Z</time>
      </trkpt>
      <trkpt lat="50.77966" lon="3.67694">
        <ele>90</ele>
        <time>2015-12-13T14:05:48Z</time>
      </trkpt>
      <trkpt lat="50.77967" lon="3.67697">
        <ele>90</ele>
        <time>2015-12-13T14:05:49Z</time>
      </trkpt>
      <trkpt lat="50.77968" lon="3.677">
        <ele>90</ele>
        <time>2015-12-13T14:05:50Z</time>
      </trkpt>
      <trkpt lat="50.7797" lon="3.67703">
        <ele>90</ele>
        <time>2015-12-13T14:05:51Z</time>
      </trkpt>
      <trkpt lat="50.77971" lon="3.67705">
        <ele>90</ele>
        <time>2015-12-13T14:05:52Z</time>
      </trkpt>
      <trkpt lat="50.77972" lon="3.67708">
        <ele>90</ele>
        <time>2015-12-13T14:05:53Z</time>
      </trkpt>
      <trkpt lat="50.77973" lon="3.67711">
        <ele>90</ele>
        <time>2015-12-13T14:05:54Z</time>
      </trkpt>
      <trkpt lat="50.77974" lon="3.67713">
        <ele>90</ele>
        <time>2015-12-13T14:05:55Z</time>
      </trkpt>
      <trkpt lat="50.77975" lon="3.67716">
        <ele>90</ele>
        <time>2015-12-13T14:05:56Z</time>
      </trkpt>
      <trkpt lat="50.77977" lon="3.67719">
        <ele>90</ele>
        <time>2015-12-13T14:05:57Z</time>
      </trkpt>
      <trkpt lat="50.77978" lon="3.67722">
        <ele>90</ele>
        <time>2015-12-13T14:05:58Z</time>
      </trkpt>
      <trkpt lat="50.7798" lon="3.67724">
        <ele>90</ele>
        <time>2015-12-13T14:05:59Z</time>
      </trkpt>
      <trkpt lat="50.77981" lon="3.67727">
        <ele>90</ele>
        <time>2015-12-13T14:06:00Z</time>
      </trkpt>
      <trkpt lat="50.77982" lon="3.6773">
        <ele>89.3</ele>
        <time>2015-12-13T14:06:01Z</time>
      </trkpt>
      <trkpt lat="50.77983" lon="3.67733">
        <ele>89</ele>
        <time>2015-12-13T14:06:02Z</time>
      </trkpt>
      <trkpt lat="50.77984" lon="3.67736">
        <ele>89</ele>
        <time>2015-12-13T14:06:03Z</time>
      </trkpt>
      <trkpt lat="50.77986" lon="3.67739">
        <ele>89</ele>
        <time>2015-12-13T14:06:04Z</time>
      </trkpt>
      <trkpt lat="50.77987" lon="3.67742">
        <ele>89</ele>
        <time>2015-12-13T14:06:05Z</time>
      </trkpt>
      <trkpt lat="50.77988" lon="3.67744">
        <ele>89</ele>
        <time>2015-12-13T14:06:06Z</time>
      </trkpt>
      <trkpt lat="50.77989" lon="3.67747">
        <ele>89</ele>
        <time>2015-12-13T14:06:07Z</time>
      </trkpt>
      <trkpt lat="50.7799" lon="3.6775">
        <ele>89</ele>
        <time>2015-12-13T14:06:08Z</time>
      </trkpt>
      <trkpt lat="50.77991" lon="3.67753">
        <ele>89</ele>
        <time>2015-12-13T14:06:09Z</time>
      </trkpt>
      <trkpt lat="50.77993" lon="3.67756">
        <ele>89</ele>
        <time>2015-12-13T14:06:10Z</time>
      </trkpt>
      <trkpt lat="50.77994" lon="3.67759">
        <ele>89.7</ele>
        <time>2015-12-13T14:06:11Z</time>
      </trkpt>
      <trkpt lat="50.77996" lon="3.67762">
        <ele>90</ele>
        <time>2015-12-13T14:06:12Z</time>
      </trkpt>
      <trkpt lat="50.77997" lon="3.67765">
        <ele>90</ele>
        <time>2015-12-13T14:06:13Z</time>
      </trkpt>
      <trkpt lat="50.77998" lon="3.67768">
        <ele>90</ele>
        <time>2015-12-13T14:06:14Z</time>
      </trkpt>
      <trkpt lat="50.77999" lon="3.67771">
        <ele>90</ele>
        <time>2015-12-13T14:06:15Z</time>
      </trkpt>
      <trkpt lat="50.78" lon="3.67774">
        <ele>90</ele>
        <time>2015-12-13T14:06:16Z</time>
      </trkpt>
      <trkpt lat="50.78001" lon="3.67777">
        <ele>90</ele>
        <time>2015-12-13T14:06:17Z</time>
      </trkpt>
      <trkpt lat="50.78002" lon="3.67781">
        <ele>90</ele>
        <time>2015-12-13T14:06:18Z</time>
      </trkpt>
      <trkpt lat="50.78003" lon="3.67784">
        <ele>90</ele>
        <time>2015-12-13T14:06:19Z</time>
      </trkpt>
      <trkpt lat="50.78004" lon="3.67786">
        <ele>90</ele>
        <time>2015-12-13T14:06:20Z</time>
      </trkpt>
      <trkpt lat="50.78005" lon="3.67789">
        <ele>90</ele>
        <time>2015-12-13T14:06:21Z</time>
      </trkpt>
      <trkpt lat="50.78006" lon="3.67792">
        <ele>90</ele>
        <time>2015-12-13T14:06:22Z</time>
      </trkpt>
      <trkpt lat="50.78007" lon="3.67796">
        <ele>90</ele>
        <time>2015-12-13T14:06:23Z</time>
      </trkpt>
      <trkpt lat="50.78008" lon="3.67799">
        <ele>90</ele>
        <time>2015-12-13T14:06:24Z</time>
      </trkpt>
      <trkpt lat="50.78009" lon="3.67802">
        <ele>90</ele>
        <time>2015-12-13T14:06:25Z</time>
      </trkpt>
      <trkpt lat="50.78009" lon="3.67806">
        <ele>90</ele>
        <time>2015-12-13T14:06:26Z</time>
      </trkpt>
      <trkpt lat="50.7801" lon="3.67809">
        <ele>90</ele>
        <time>2015-12-13T14:06:27Z</time>
      </trkpt>
      <trkpt lat="50.78011" lon="3.67812">
        <ele>90</ele>
        <time>2015-12-13T14:06:28Z</time>
      </trkpt>
      <trkpt lat="50.78012" lon="3.67815">
        <ele>90</ele>
        <time>2015-12-13T14:06:29Z</time>
      </trkpt>
      <trkpt lat="50.78013" lon="3.67819">
        <ele>90</ele>
        <time>2015-12-13T14:06:30Z</time>
      </trkpt>
      <trkpt lat="50.78014" lon="3.67822">
        <ele>89.3</ele>
        <time>2015-12-13T14:06:31Z</time>
      </trkpt>
      <trkpt lat="50.78015" lon="3.67825">
        <ele>89</ele>
        <time>2015-12-13T14:06:32Z</time>
      </trkpt>
      <trkpt lat="50.78016" lon="3.67828">
        <ele>89</ele>
        <time>2015-12-13T14:06:33Z</time>
      </trkpt>
      <trkpt lat="50.78017" lon="3.67831">
        <ele>89</ele>
        <time>2015-12-13T14:06:34Z</time>
      </trkpt>
      <trkpt lat="50.78018" lon="3.67835">
        <ele>89</ele>
        <time>2015-12-13T14:06:35Z</time>
      </trkpt>
      <trkpt lat="50.78019" lon="3.67838">
        <ele>89</ele>
        <time>2015-12-13T14:06:36Z</time>
      </trkpt>
      <trkpt lat="50.7802" lon="3.67841">
        <ele>89</ele>
        <time>2015-12-13T14:06:37Z</time>
      </trkpt>
      <trkpt lat="50.78021" lon="3.67845">
        <ele>89</ele>
        <time>2015-12-13T14:06:38Z</time>
      </trkpt>
      <trkpt lat="50.78023" lon="3.67848">
        <ele>89</ele>
        <time>2015-12-13T14:06:39Z</time>
      </trkpt>
      <trkpt lat="50.78024" lon="3.67852">
        <ele>89</ele>
        <time>2015-12-13T14:06:40Z</time>
      </trkpt>
      <trkpt lat="50.78025" lon="3.67855">
        <ele>89</ele>
        <time>2015-12-13T14:06:41Z</time>
      </trkpt>
      <trkpt lat="50.78026" lon="3.67858">
        <ele>89</ele>
        <time>2015-12-13T14:06:42Z</time>
      </trkpt>
      <trkpt lat="50.78028" lon="3.67862">
        <ele>89</ele>
        <time>2015-12-13T14:06:43Z</time>
      </trkpt>
      <trkpt lat="50.78029" lon="3.67865">
        <ele>89</ele>
        <time>2015-12-13T14:06:44Z</time>
      </trkpt>
      <trkpt lat="50.78031" lon="3.67868">
        <ele>89</ele>
        <time>2015-12-13T14:06:45Z</time>
      </trkpt>
      <trkpt lat="50.78033" lon="3.67871">
        <ele>89</ele>
        <time>2015-12-13T14:06:46Z</time>
      </trkpt>
      <trkpt lat="50.78034" lon="3.67874">
        <ele>89</ele>
        <time>2015-12-13T14:06:47Z</time>
      </trkpt>
      <trkpt lat="50.78035" lon="3.67877">
        <ele>89</ele>
        <time>2015-12-13T14:06:48Z</time>
      </trkpt>
      <trkpt lat="50.78037" lon="3.6788">
        <ele>89</ele>
        <time>2015-12-13T14:06:49Z</time>
      </trkpt>
      <trkpt lat="50.78039" lon="3.67882">
        <ele>89</ele>
        <time>2015-12-13T14:06:50Z</time>
      </trkpt>
      <trkpt lat="50.7804" lon="3.67885">
        <ele>88.3</ele>
        <time>2015-12-13T14:06:51Z</time>
      </trkpt>
      <trkpt lat="50.78042" lon="3.67888">
        <ele>88</ele>
        <time>2015-12-13T14:06:52Z</time>
      </trkpt>
      <trkpt lat="50.78043" lon="3.6789">
        <ele>88</ele>
        <time>2015-12-13T14:06:53Z</time>
      </trkpt>
      <trkpt lat="50.78045" lon="3.67893">
        <ele>88</ele>
        <time>2015-12-13T14:06:54Z</time>
      </trkpt>
      <trkpt lat="50.78047" lon="3.67895">
        <ele>88</ele>
        <time>2015-12-13T14:06:55Z</time>
      </trkpt>
      <trkpt lat="50.78048" lon="3.67898">
        <ele>88</ele>
        <time>2015-12-13T14:06:56Z</time>
      </trkpt>
      <trkpt lat="50.7805" lon="3.67901">
        <ele>88</ele>
        <time>2015-12-13T14:06:57Z</time>
      </trkpt>
      <trkpt lat="50.78052" lon="3.67903">
        <ele>88</ele>
        <time>2015-12-13T14:06:58Z</time>
      </trkpt>
      <trkpt lat="50.78053" lon="3.67906">
        <ele>88</ele>
        <time>2015-12-13T14:06:59Z</time>
      </trkpt>
      <trkpt lat="50.78055" lon="3.67909">
        <ele>88</ele>
        <time>2015-12-13T14:07:00Z</time>
      </trkpt>
      <trkpt lat="50.78057" lon="3.67911">
        <ele>86.6</ele>
        <time>2015-12-13T14:07:01Z</time>
      </trkpt>
      <trkpt lat="50.78059" lon="3.67915">
        <ele>86</ele>
        <time>2015-12-13T14:07:02Z</time>
      </trkpt>
      <trkpt lat="50.7806" lon="3.67918">
        <ele>86</ele>
        <time>2015-12-13T14:07:03Z</time>
      </trkpt>
      <trkpt lat="50.78062" lon="3.6792">
        <ele>86</ele>
        <time>2015-12-13T14:07:04Z</time>
      </trkpt>
      <trkpt lat="50.78064" lon="3.67923">
        <ele>86</ele>
        <time>2015-12-13T14:07:05Z</time>
      </trkpt>
      <trkpt lat="50.78066" lon="3.67926">
        <ele>86</ele>
        <time>2015-12-13T14:07:06Z</time>
      </trkpt>
      <trkpt lat="50.78068" lon="3.67929">
        <ele>86</ele>
        <time>2015-12-13T14:07:07Z</time>
      </trkpt>
      <trkpt lat="50.7807" lon="3.67931">
        <ele>86</ele>
        <time>2015-12-13T14:07:08Z</time>
      </trkpt>
      <trkpt lat="50.78073" lon="3.67934">
        <ele>86</ele>
        <time>2015-12-13T14:07:09Z</time>
      </trkpt>
      <trkpt lat="50.78075" lon="3.67936">
        <ele>86</ele>
        <time>2015-12-13T14:07:10Z</time>
      </trkpt>
      <trkpt lat="50.78077" lon="3.67938">
        <ele>84.6</ele>
        <time>2015-12-13T14:07:11Z</time>
      </trkpt>
      <trkpt lat="50.78079" lon="3.67941">
        <ele>84</ele>
        <time>2015-12-13T14:07:12Z</time>
      </trkpt>
      <trkpt lat="50.78081" lon="3.67943">
        <ele>84</ele>
        <time>2015-12-13T14:07:13Z</time>
      </trkpt>
      <trkpt lat="50.78083" lon="3.67946">
        <ele>84</ele>
        <time>2015-12-13T14:07:14Z</time>
      </trkpt>
      <trkpt lat="50.78084" lon="3.67949">
        <ele>84</ele>
        <time>2015-12-13T14:07:15Z</time>
      </trkpt>
      <trkpt lat="50.78086" lon="3.67952">
        <ele>84</ele>
        <time>2015-12-13T14:07:16Z</time>
      </trkpt>
      <trkpt lat="50.78087" lon="3.67956">
        <ele>84</ele>
        <time>2015-12-13T14:07:17Z</time>
      </trkpt>
      <trkpt lat="50.78089" lon="3.67959">
        <ele>84</ele>
        <time>2015-12-13T14:07:18Z</time>
      </trkpt>
      <trkpt lat="50.7809" lon="3.67962">
        <ele>84</ele>
        <time>2015-12-13T14:07:19Z</time>
      </trkpt>
      <trkpt lat="50.78092" lon="3.67965">
        <ele>84</ele>
        <time>2015-12-13T14:07:20Z</time>
      </trkpt>
      <trkpt lat="50.78093" lon="3.67968">
        <ele>83.3</ele>
        <time>2015-12-13T14:07:21Z</time>
      </trkpt>
      <trkpt lat="50.78094" lon="3.67971">
        <ele>83</ele>
        <time>2015-12-13T14:07:22Z</time>
      </trkpt>
      <trkpt lat="50.78097" lon="3.67974">
        <ele>83</ele>
        <time>2015-12-13T14:07:23Z</time>
      </trkpt>
      <trkpt lat="50.78099" lon="3.67976">
        <ele>83</ele>
        <time>2015-12-13T14:07:24Z</time>
      </trkpt>
      <trkpt lat="50.78101" lon="3.67977">
        <ele>83</ele>
        <time>2015-12-13T14:07:25Z</time>
      </trkpt>
      <trkpt lat="50.78103" lon="3.67977">
        <ele>83</ele>
        <time>2015-12-13T14:07:26Z</time>
      </trkpt>
      <trkpt lat="50.78106" lon="3.67978">
        <ele>83</ele>
        <time>2015-12-13T14:07:28Z</time>
      </trkpt>
      <trkpt lat="50.78108" lon="3.67978">
        <ele>83</ele>
        <time>2015-12-13T14:07:29Z</time>
      </trkpt>
      <trkpt lat="50.78112" lon="3.67977">
        <ele>82.3</ele>
        <time>2015-12-13T14:07:31Z</time>
      </trkpt>
      <trkpt lat="50.78115" lon="3.67976">
        <ele>82</ele>
        <time>2015-12-13T14:07:33Z</time>
      </trkpt>
      <trkpt lat="50.78118" lon="3.67975">
        <ele>82</ele>
        <time>2015-12-13T14:07:35Z</time>
      </trkpt>
      <trkpt lat="50.7812" lon="3.67975">
        <ele>82</ele>
        <time>2015-12-13T14:07:37Z</time>
      </trkpt>
      <trkpt lat="50.78123" lon="3.67974">
        <ele>82</ele>
        <time>2015-12-13T14:07:39Z</time>
      </trkpt>
      <trkpt lat="50.78126" lon="3.67974">
        <ele>81.3</ele>
        <time>2015-12-13T14:07:41Z</time>
      </trkpt>
      <trkpt lat="50.78129" lon="3.67974">
        <ele>81</ele>
        <time>2015-12-13T14:07:43Z</time>
      </trkpt>
      <trkpt lat="50.78132" lon="3.67973">
        <ele>81</ele>
        <time>2015-12-13T14:07:45Z</time>
      </trkpt>
      <trkpt lat="50.78135" lon="3.67973">
        <ele>81</ele>
        <time>2015-12-13T14:07:47Z</time>
      </trkpt>
      <trkpt lat="50.78139" lon="3.67973">
        <ele>81</ele>
        <time>2015-12-13T14:07:49Z</time>
      </trkpt>
      <trkpt lat="50.78142" lon="3.67973">
        <ele>81</ele>
        <time>2015-12-13T14:07:50Z</time>
      </trkpt>
      <trkpt lat="50.78144" lon="3.67973">
        <ele>80.3</ele>
        <time>2015-12-13T14:07:51Z</time>
      </trkpt>
      <trkpt lat="50.78147" lon="3.67974">
        <ele>80</ele>
        <time>2015-12-13T14:07:52Z</time>
      </trkpt>
      <trkpt lat="50.78149" lon="3.67974">
        <ele>80</ele>
        <time>2015-12-13T14:07:53Z</time>
      </trkpt>
      <trkpt lat="50.78151" lon="3.67974">
        <ele>80</ele>
        <time>2015-12-13T14:07:54Z</time>
      </trkpt>
      <trkpt lat="50.78154" lon="3.67974">
        <ele>80</ele>
        <time>2015-12-13T14:07:55Z</time>
      </trkpt>
      <trkpt lat="50.78156" lon="3.67974">
        <ele>80</ele>
        <time>2015-12-13T14:07:56Z</time>
      </trkpt>
      <trkpt lat="50.78158" lon="3.67974">
        <ele>80</ele>
        <time>2015-12-13T14:07:57Z</time>
      </trkpt>
      <trkpt lat="50.7816" lon="3.67974">
        <ele>80</ele>
        <time>2015-12-13T14:07:58Z</time>
      </trkpt>
      <trkpt lat="50.78162" lon="3.67975">
        <ele>80</ele>
        <time>2015-12-13T14:07:59Z</time>
      </trkpt>
      <trkpt lat="50.78165" lon="3.67975">
        <ele>80</ele>
        <time>2015-12-13T14:08:01Z</time>
      </trkpt>
      <trkpt lat="50.78168" lon="3.67974">
        <ele>78</ele>
        <time>2015-12-13T14:08:03Z</time>
      </trkpt>
      <trkpt lat="50.78171" lon="3.67974">
        <ele>78</ele>
        <time>2015-12-13T14:08:05Z</time>
      </trkpt>
      <trkpt lat="50.78174" lon="3.67975">
        <ele>78</ele>
        <time>2015-12-13T14:08:07Z</time>
      </trkpt>
      <trkpt lat="50.78177" lon="3.67975">
        <ele>78</ele>
        <time>2015-12-13T14:08:09Z</time>
      </trkpt>
      <trkpt lat="50.7818" lon="3.67975">
        <ele>78</ele>
        <time>2015-12-13T14:08:11Z</time>
      </trkpt>
      <trkpt lat="50.78184" lon="3.67975">
        <ele>78</ele>
        <time>2015-12-13T14:08:13Z</time>
      </trkpt>
      <trkpt lat="50.78186" lon="3.67976">
        <ele>78</ele>
        <time>2015-12-13T14:08:15Z</time>
      </trkpt>
      <trkpt lat="50.78189" lon="3.67976">
        <ele>78</ele>
        <time>2015-12-13T14:08:17Z</time>
      </trkpt>
      <trkpt lat="50.78192" lon="3.67976">
        <ele>78</ele>
        <time>2015-12-13T14:08:19Z</time>
      </trkpt>
      <trkpt lat="50.78195" lon="3.67977">
        <ele>78</ele>
        <time>2015-12-13T14:08:21Z</time>
      </trkpt>
      <trkpt lat="50.78198" lon="3.67978">
        <ele>78</ele>
        <time>2015-12-13T14:08:23Z</time>
      </trkpt>
      <trkpt lat="50.78201" lon="3.67979">
        <ele>78</ele>
        <time>2015-12-13T14:08:25Z</time>
      </trkpt>
      <trkpt lat="50.78203" lon="3.6798">
        <ele>78</ele>
        <time>2015-12-13T14:08:27Z</time>
      </trkpt>
      <trkpt lat="50.78206" lon="3.67981">
        <ele>78</ele>
        <time>2015-12-13T14:08:29Z</time>
      </trkpt>
      <trkpt lat="50.78209" lon="3.67983">
        <ele>78</ele>
        <time>2015-12-13T14:08:31Z</time>
      </trkpt>
      <trkpt lat="50.78211" lon="3.67984">
        <ele>76.6</ele>
        <time>2015-12-13T14:08:32Z</time>
      </trkpt>
      <trkpt lat="50.78214" lon="3.67986">
        <ele>76</ele>
        <time>2015-12-13T14:08:34Z</time>
      </trkpt>
      <trkpt lat="50.78216" lon="3.67989">
        <ele>76</ele>
        <time>2015-12-13T14:08:38Z</time>
      </trkpt>
      <trkpt lat="50.78218" lon="3.67992">
        <ele>76</ele>
        <time>2015-12-13T14:08:40Z</time>
      </trkpt>
      <trkpt lat="50.78219" lon="3.67995">
        <ele>76</ele>
        <time>2015-12-13T14:08:41Z</time>
      </trkpt>
      <trkpt lat="50.78221" lon="3.68">
        <ele>75</ele>
        <time>2015-12-13T14:08:43Z</time>
      </trkpt>
      <trkpt lat="50.78222" lon="3.68005">
        <ele>75</ele>
        <time>2015-12-13T14:08:45Z</time>
      </trkpt>
      <trkpt lat="50.78223" lon="3.6801">
        <ele>75</ele>
        <time>2015-12-13T14:08:47Z</time>
      </trkpt>
      <trkpt lat="50.78224" lon="3.68014">
        <ele>75</ele>
        <time>2015-12-13T14:08:49Z</time>
      </trkpt>
      <trkpt lat="50.78225" lon="3.68017">
        <ele>75</ele>
        <time>2015-12-13T14:08:50Z</time>
      </trkpt>
      <trkpt lat="50.78226" lon="3.68022">
        <ele>75.7</ele>
        <time>2015-12-13T14:08:52Z</time>
      </trkpt>
      <trkpt lat="50.78226" lon="3.68027">
        <ele>76</ele>
        <time>2015-12-13T14:08:54Z</time>
      </trkpt>
      <trkpt lat="50.78227" lon="3.68033">
        <ele>76</ele>
        <time>2015-12-13T14:08:56Z</time>
      </trkpt>
      <trkpt lat="50.78227" lon="3.68035">
        <ele>76</ele>
        <time>2015-12-13T14:08:57Z</time>
      </trkpt>
      <trkpt lat="50.78228" lon="3.68041">
        <ele>76</ele>
        <time>2015-12-13T14:08:59Z</time>
      </trkpt>
      <trkpt lat="50.78228" lon="3.68043">
        <ele>76</ele>
        <time>2015-12-13T14:09:00Z</time>
      </trkpt>
      <trkpt lat="50.78229" lon="3.68046">
        <ele>76</ele>
        <time>2015-12-13T14:09:01Z</time>
      </trkpt>
      <trkpt lat="50.7823" lon="3.68049">
        <ele>76</ele>
        <time>2015-12-13T14:09:02Z</time>
      </trkpt>
      <trkpt lat="50.7823" lon="3.68052">
        <ele>76</ele>
        <time>2015-12-13T14:09:03Z</time>
      </trkpt>
      <trkpt lat="50.78231" lon="3.68057">
        <ele>76</ele>
        <time>2015-12-13T14:09:05Z</time>
      </trkpt>
      <trkpt lat="50.78232" lon="3.68063">
        <ele>76</ele>
        <time>2015-12-13T14:09:07Z</time>
      </trkpt>
      <trkpt lat="50.78232" lon="3.68068">
        <ele>76</ele>
        <time>2015-12-13T14:09:09Z</time>
      </trkpt>
      <trkpt lat="50.78232" lon="3.68073">
        <ele>76</ele>
        <time>2015-12-13T14:09:11Z</time>
      </trkpt>
      <trkpt lat="50.78232" lon="3.68078">
        <ele>76</ele>
        <time>2015-12-13T14:09:13Z</time>
      </trkpt>
      <trkpt lat="50.78232" lon="3.68083">
        <ele>76</ele>
        <time>2015-12-13T14:09:15Z</time>
      </trkpt>
      <trkpt lat="50.78232" lon="3.68088">
        <ele>76</ele>
        <time>2015-12-13T14:09:17Z</time>
      </trkpt>
      <trkpt lat="50.78231" lon="3.68093">
        <ele>76</ele>
        <time>2015-12-13T14:09:19Z</time>
      </trkpt>
      <trkpt lat="50.78229" lon="3.68098">
        <ele>75.3</ele>
        <time>2015-12-13T14:09:21Z</time>
      </trkpt>
      <trkpt lat="50.78228" lon="3.68103">
        <ele>75</ele>
        <time>2015-12-13T14:09:23Z</time>
      </trkpt>
      <trkpt lat="50.78226" lon="3.68108">
        <ele>75</ele>
        <time>2015-12-13T14:09:25Z</time>
      </trkpt>
      <trkpt lat="50.78226" lon="3.6811">
        <ele>75</ele>
        <time>2015-12-13T14:09:26Z</time>
      </trkpt>
      <trkpt lat="50.78224" lon="3.68113">
        <ele>75</ele>
        <time>2015-12-13T14:09:27Z</time>
      </trkpt>
      <trkpt lat="50.78223" lon="3.68115">
        <ele>75</ele>
        <time>2015-12-13T14:09:28Z</time>
      </trkpt>
      <trkpt lat="50.78221" lon="3.68119">
        <ele>75</ele>
        <time>2015-12-13T14:09:30Z</time>
      </trkpt>
      <trkpt lat="50.78219" lon="3.68123">
        <ele>76</ele>
        <time>2015-12-13T14:09:32Z</time>
      </trkpt>
      <trkpt lat="50.78218" lon="3.68127">
        <ele>76</ele>
        <time>2015-12-13T14:09:34Z</time>
      </trkpt>
      <trkpt lat="50.78216" lon="3.68131">
        <ele>76</ele>
        <time>2015-12-13T14:09:36Z</time>
      </trkpt>
      <trkpt lat="50.78214" lon="3.68133">
        <ele>76</ele>
        <time>2015-12-13T14:09:37Z</time>
      </trkpt>
      <trkpt lat="50.78212" lon="3.68136">
        <ele>76</ele>
        <time>2015-12-13T14:09:38Z</time>
      </trkpt>
      <trkpt lat="50.7821" lon="3.68139">
        <ele>76</ele>
        <time>2015-12-13T14:09:39Z</time>
      </trkpt>
      <trkpt lat="50.78209" lon="3.68141">
        <ele>76</ele>
        <time>2015-12-13T14:09:40Z</time>
      </trkpt>
      <trkpt lat="50.78207" lon="3.68143">
        <ele>76</ele>
        <time>2015-12-13T14:09:41Z</time>
      </trkpt>
      <trkpt lat="50.78205" lon="3.68146">
        <ele>76</ele>
        <time>2015-12-13T14:09:42Z</time>
      </trkpt>
      <trkpt lat="50.78203" lon="3.68148">
        <ele>76</ele>
        <time>2015-12-13T14:09:43Z</time>
      </trkpt>
      <trkpt lat="50.78202" lon="3.6815">
        <ele>76</ele>
        <time>2015-12-13T14:09:44Z</time>
      </trkpt>
      <trkpt lat="50.782" lon="3.68153">
        <ele>76</ele>
        <time>2015-12-13T14:09:45Z</time>
      </trkpt>
      <trkpt lat="50.78198" lon="3.68155">
        <ele>76</ele>
        <time>2015-12-13T14:09:46Z</time>
      </trkpt>
      <trkpt lat="50.78195" lon="3.68157">
        <ele>76</ele>
        <time>2015-12-13T14:09:47Z</time>
      </trkpt>
      <trkpt lat="50.78194" lon="3.68159">
        <ele>76</ele>
        <time>2015-12-13T14:09:48Z</time>
      </trkpt>
      <trkpt lat="50.78191" lon="3.68161">
        <ele>76</ele>
        <time>2015-12-13T14:09:49Z</time>
      </trkpt>
      <trkpt lat="50.7819" lon="3.68163">
        <ele>76</ele>
        <time>2015-12-13T14:09:50Z</time>
      </trkpt>
      <trkpt lat="50.78188" lon="3.68165">
        <ele>76.7</ele>
        <time>2015-12-13T14:09:51Z</time>
      </trkpt>
      <trkpt lat="50.78186" lon="3.68167">
        <ele>77</ele>
        <time>2015-12-13T14:09:52Z</time>
      </trkpt>
      <trkpt lat="50.78184" lon="3.68168">
        <ele>76.3</ele>
        <time>2015-12-13T14:09:53Z</time>
      </trkpt>
      <trkpt lat="50.78182" lon="3.6817">
        <ele>76</ele>
        <time>2015-12-13T14:09:54Z</time>
      </trkpt>
      <trkpt lat="50.7818" lon="3.68172">
        <ele>76</ele>
        <time>2015-12-13T14:09:55Z</time>
      </trkpt>
      <trkpt lat="50.78178" lon="3.68175">
        <ele>76</ele>
        <time>2015-12-13T14:09:56Z</time>
      </trkpt>
      <trkpt lat="50.78176" lon="3.68177">
        <ele>76</ele>
        <time>2015-12-13T14:09:57Z</time>
      </trkpt>
      <trkpt lat="50.78174" lon="3.68179">
        <ele>76</ele>
        <time>2015-12-13T14:09:58Z</time>
      </trkpt>
      <trkpt lat="50.78172" lon="3.68181">
        <ele>76</ele>
        <time>2015-12-13T14:09:59Z</time>
      </trkpt>
      <trkpt lat="50.7817" lon="3.68183">
        <ele>76</ele>
        <time>2015-12-13T14:10:00Z</time>
      </trkpt>
      <trkpt lat="50.78168" lon="3.68185">
        <ele>77.4</ele>
        <time>2015-12-13T14:10:01Z</time>
      </trkpt>
      <trkpt lat="50.78166" lon="3.68187">
        <ele>78</ele>
        <time>2015-12-13T14:10:02Z</time>
      </trkpt>
      <trkpt lat="50.78164" lon="3.68189">
        <ele>78</ele>
        <time>2015-12-13T14:10:03Z</time>
      </trkpt>
      <trkpt lat="50.78162" lon="3.68191">
        <ele>78</ele>
        <time>2015-12-13T14:10:04Z</time>
      </trkpt>
      <trkpt lat="50.7816" lon="3.68193">
        <ele>78</ele>
        <time>2015-12-13T14:10:05Z</time>
      </trkpt>
      <trkpt lat="50.78158" lon="3.68195">
        <ele>78</ele>
        <time>2015-12-13T14:10:06Z</time>
      </trkpt>
      <trkpt lat="50.78156" lon="3.68197">
        <ele>78</ele>
        <time>2015-12-13T14:10:07Z</time>
      </trkpt>
      <trkpt lat="50.78155" lon="3.68198">
        <ele>78</ele>
        <time>2015-12-13T14:10:08Z</time>
      </trkpt>
      <trkpt lat="50.78153" lon="3.68201">
        <ele>78</ele>
        <time>2015-12-13T14:10:09Z</time>
      </trkpt>
      <trkpt lat="50.78151" lon="3.68202">
        <ele>78</ele>
        <time>2015-12-13T14:10:10Z</time>
      </trkpt>
      <trkpt lat="50.78149" lon="3.68204">
        <ele>78</ele>
        <time>2015-12-13T14:10:11Z</time>
      </trkpt>
      <trkpt lat="50.78147" lon="3.68206">
        <ele>78</ele>
        <time>2015-12-13T14:10:12Z</time>
      </trkpt>
      <trkpt lat="50.78145" lon="3.68209">
        <ele>78</ele>
        <time>2015-12-13T14:10:13Z</time>
      </trkpt>
      <trkpt lat="50.78143" lon="3.68211">
        <ele>78</ele>
        <time>2015-12-13T14:10:14Z</time>
      </trkpt>
      <trkpt lat="50.78141" lon="3.68214">
        <ele>78</ele>
        <time>2015-12-13T14:10:15Z</time>
      </trkpt>
      <trkpt lat="50.7814" lon="3.68216">
        <ele>78</ele>
        <time>2015-12-13T14:10:16Z</time>
      </trkpt>
      <trkpt lat="50.78138" lon="3.68219">
        <ele>78</ele>
        <time>2015-12-13T14:10:17Z</time>
      </trkpt>
      <trkpt lat="50.78136" lon="3.68221">
        <ele>78</ele>
        <time>2015-12-13T14:10:18Z</time>
      </trkpt>
      <trkpt lat="50.78135" lon="3.68224">
        <ele>78</ele>
        <time>2015-12-13T14:10:19Z</time>
      </trkpt>
      <trkpt lat="50.78133" lon="3.68227">
        <ele>78</ele>
        <time>2015-12-13T14:10:20Z</time>
      </trkpt>
      <trkpt lat="50.78131" lon="3.6823">
        <ele>78.5</ele>
        <time>2015-12-13T14:10:21Z</time>
      </trkpt>
      <trkpt lat="50.7813" lon="3.68232">
        <ele>79</ele>
        <time>2015-12-13T14:10:22Z</time>
      </trkpt>
      <trkpt lat="50.78128" lon="3.68235">
        <ele>79</ele>
        <time>2015-12-13T14:10:23Z</time>
      </trkpt>
      <trkpt lat="50.78126" lon="3.68238">
        <ele>79</ele>
        <time>2015-12-13T14:10:24Z</time>
      </trkpt>
      <trkpt lat="50.78125" lon="3.68241">
        <ele>79</ele>
        <time>2015-12-13T14:10:25Z</time>
      </trkpt>
      <trkpt lat="50.78123" lon="3.68243">
        <ele>79</ele>
        <time>2015-12-13T14:10:26Z</time>
      </trkpt>
      <trkpt lat="50.78121" lon="3.68245">
        <ele>79</ele>
        <time>2015-12-13T14:10:27Z</time>
      </trkpt>
      <trkpt lat="50.7812" lon="3.68248">
        <ele>79</ele>
        <time>2015-12-13T14:10:28Z</time>
      </trkpt>
      <trkpt lat="50.78118" lon="3.6825">
        <ele>79</ele>
        <time>2015-12-13T14:10:29Z</time>
      </trkpt>
      <trkpt lat="50.78117" lon="3.68252">
        <ele>79</ele>
        <time>2015-12-13T14:10:30Z</time>
      </trkpt>
      <trkpt lat="50.78115" lon="3.68255">
        <ele>79</ele>
        <time>2015-12-13T14:10:31Z</time>
      </trkpt>
      <trkpt lat="50.78114" lon="3.68257">
        <ele>79</ele>
        <time>2015-12-13T14:10:32Z</time>
      </trkpt>
      <trkpt lat="50.78111" lon="3.6826">
        <ele>79</ele>
        <time>2015-12-13T14:10:34Z</time>
      </trkpt>
      <trkpt lat="50.7811" lon="3.68262">
        <ele>79</ele>
        <time>2015-12-13T14:10:35Z</time>
      </trkpt>
      <trkpt lat="50.78108" lon="3.68264">
        <ele>79</ele>
        <time>2015-12-13T14:10:36Z</time>
      </trkpt>
      <trkpt lat="50.78107" lon="3.68266">
        <ele>79</ele>
        <time>2015-12-13T14:10:37Z</time>
      </trkpt>
      <trkpt lat="50.78106" lon="3.68269">
        <ele>79</ele>
        <time>2015-12-13T14:10:38Z</time>
      </trkpt>
      <trkpt lat="50.78104" lon="3.68271">
        <ele>79</ele>
        <time>2015-12-13T14:10:39Z</time>
      </trkpt>
      <trkpt lat="50.78102" lon="3.68274">
        <ele>79</ele>
        <time>2015-12-13T14:10:40Z</time>
      </trkpt>
      <trkpt lat="50.781" lon="3.68276">
        <ele>79.7</ele>
        <time>2015-12-13T14:10:41Z</time>
      </trkpt>
      <trkpt lat="50.78098" lon="3.68278">
        <ele>80</ele>
        <time>2015-12-13T14:10:42Z</time>
      </trkpt>
      <trkpt lat="50.78096" lon="3.6828">
        <ele>80</ele>
        <time>2015-12-13T14:10:43Z</time>
      </trkpt>
      <trkpt lat="50.78094" lon="3.68283">
        <ele>80</ele>
        <time>2015-12-13T14:10:44Z</time>
      </trkpt>
      <trkpt lat="50.78092" lon="3.68285">
        <ele>80</ele>
        <time>2015-12-13T14:10:45Z</time>
      </trkpt>
      <trkpt lat="50.78091" lon="3.68287">
        <ele>80</ele>
        <time>2015-12-13T14:10:46Z</time>
      </trkpt>
      <trkpt lat="50.78089" lon="3.68289">
        <ele>80</ele>
        <time>2015-12-13T14:10:47Z</time>
      </trkpt>
      <trkpt lat="50.78087" lon="3.68291">
        <ele>80</ele>
        <time>2015-12-13T14:10:48Z</time>
      </trkpt>
      <trkpt lat="50.78085" lon="3.68294">
        <ele>80</ele>
        <time>2015-12-13T14:10:49Z</time>
      </trkpt>
      <trkpt lat="50.78083" lon="3.68296">
        <ele>80</ele>
        <time>2015-12-13T14:10:50Z</time>
      </trkpt>
      <trkpt lat="50.78081" lon="3.68298">
        <ele>80.7</ele>
        <time>2015-12-13T14:10:51Z</time>
      </trkpt>
      <trkpt lat="50.78079" lon="3.683">
        <ele>81</ele>
        <time>2015-12-13T14:10:52Z</time>
      </trkpt>
      <trkpt lat="50.78077" lon="3.68302">
        <ele>81</ele>
        <time>2015-12-13T14:10:53Z</time>
      </trkpt>
      <trkpt lat="50.78075" lon="3.68304">
        <ele>81</ele>
        <time>2015-12-13T14:10:54Z</time>
      </trkpt>
      <trkpt lat="50.78073" lon="3.68306">
        <ele>81</ele>
        <time>2015-12-13T14:10:55Z</time>
      </trkpt>
      <trkpt lat="50.78072" lon="3.68308">
        <ele>81</ele>
        <time>2015-12-13T14:10:56Z</time>
      </trkpt>
      <trkpt lat="50.7807" lon="3.68309">
        <ele>81</ele>
        <time>2015-12-13T14:10:57Z</time>
      </trkpt>
      <trkpt lat="50.78068" lon="3.68312">
        <ele>81</ele>
        <time>2015-12-13T14:10:58Z</time>
      </trkpt>
      <trkpt lat="50.78066" lon="3.68314">
        <ele>81</ele>
        <time>2015-12-13T14:10:59Z</time>
      </trkpt>
      <trkpt lat="50.78064" lon="3.68315">
        <ele>81</ele>
        <time>2015-12-13T14:11:00Z</time>
      </trkpt>
      <trkpt lat="50.78063" lon="3.68317">
        <ele>80.3</ele>
        <time>2015-12-13T14:11:01Z</time>
      </trkpt>
      <trkpt lat="50.78061" lon="3.68319">
        <ele>80</ele>
        <time>2015-12-13T14:11:02Z</time>
      </trkpt>
      <trkpt lat="50.78059" lon="3.68321">
        <ele>80</ele>
        <time>2015-12-13T14:11:03Z</time>
      </trkpt>
      <trkpt lat="50.78057" lon="3.68324">
        <ele>80</ele>
        <time>2015-12-13T14:11:04Z</time>
      </trkpt>
      <trkpt lat="50.78055" lon="3.68326">
        <ele>80</ele>
        <time>2015-12-13T14:11:05Z</time>
      </trkpt>
      <trkpt lat="50.78053" lon="3.68328">
        <ele>80</ele>
        <time>2015-12-13T14:11:06Z</time>
      </trkpt>
      <trkpt lat="50.78051" lon="3.68331">
        <ele>80</ele>
        <time>2015-12-13T14:11:07Z</time>
      </trkpt>
      <trkpt lat="50.78049" lon="3.68333">
        <ele>80</ele>
        <time>2015-12-13T14:11:08Z</time>
      </trkpt>
      <trkpt lat="50.78047" lon="3.68334">
        <ele>80</ele>
        <time>2015-12-13T14:11:09Z</time>
      </trkpt>
      <trkpt lat="50.78045" lon="3.68336">
        <ele>80</ele>
        <time>2015-12-13T14:11:10Z</time>
      </trkpt>
      <trkpt lat="50.78043" lon="3.68338">
        <ele>80</ele>
        <time>2015-12-13T14:11:11Z</time>
      </trkpt>
      <trkpt lat="50.78041" lon="3.68341">
        <ele>80</ele>
        <time>2015-12-13T14:11:12Z</time>
      </trkpt>
      <trkpt lat="50.78039" lon="3.68343">
        <ele>80</ele>
        <time>2015-12-13T14:11:13Z</time>
      </trkpt>
      <trkpt lat="50.78037" lon="3.68346">
        <ele>80</ele>
        <time>2015-12-13T14:11:14Z</time>
      </trkpt>
      <trkpt lat="50.78035" lon="3.68348">
        <ele>80</ele>
        <time>2015-12-13T14:11:15Z</time>
      </trkpt>
      <trkpt lat="50.78033" lon="3.6835">
        <ele>80</ele>
        <time>2015-12-13T14:11:16Z</time>
      </trkpt>
      <trkpt lat="50.78031" lon="3.68353">
        <ele>80</ele>
        <time>2015-12-13T14:11:17Z</time>
      </trkpt>
      <trkpt lat="50.78029" lon="3.68355">
        <ele>80</ele>
        <time>2015-12-13T14:11:18Z</time>
      </trkpt>
      <trkpt lat="50.78028" lon="3.68358">
        <ele>80</ele>
        <time>2015-12-13T14:11:19Z</time>
      </trkpt>
      <trkpt lat="50.78026" lon="3.6836">
        <ele>80</ele>
        <time>2015-12-13T14:11:20Z</time>
      </trkpt>
      <trkpt lat="50.78024" lon="3.68362">
        <ele>80</ele>
        <time>2015-12-13T14:11:21Z</time>
      </trkpt>
      <trkpt lat="50.78022" lon="3.68365">
        <ele>80</ele>
        <time>2015-12-13T14:11:22Z</time>
      </trkpt>
      <trkpt lat="50.78019" lon="3.68367">
        <ele>80</ele>
        <time>2015-12-13T14:11:23Z</time>
      </trkpt>
      <trkpt lat="50.78018" lon="3.6837">
        <ele>80</ele>
        <time>2015-12-13T14:11:24Z</time>
      </trkpt>
      <trkpt lat="50.78016" lon="3.68372">
        <ele>80</ele>
        <time>2015-12-13T14:11:25Z</time>
      </trkpt>
      <trkpt lat="50.78014" lon="3.68375">
        <ele>80</ele>
        <time>2015-12-13T14:11:26Z</time>
      </trkpt>
      <trkpt lat="50.78012" lon="3.68377">
        <ele>80</ele>
        <time>2015-12-13T14:11:27Z</time>
      </trkpt>
      <trkpt lat="50.7801" lon="3.6838">
        <ele>80</ele>
        <time>2015-12-13T14:11:28Z</time>
      </trkpt>
      <trkpt lat="50.78008" lon="3.68382">
        <ele>80</ele>
        <time>2015-12-13T14:11:29Z</time>
      </trkpt>
      <trkpt lat="50.78006" lon="3.68384">
        <ele>80</ele>
        <time>2015-12-13T14:11:30Z</time>
      </trkpt>
      <trkpt lat="50.78005" lon="3.68387">
        <ele>80</ele>
        <time>2015-12-13T14:11:31Z</time>
      </trkpt>
      <trkpt lat="50.78003" lon="3.68389">
        <ele>80</ele>
        <time>2015-12-13T14:11:32Z</time>
      </trkpt>
      <trkpt lat="50.78001" lon="3.68391">
        <ele>80</ele>
        <time>2015-12-13T14:11:33Z</time>
      </trkpt>
      <trkpt lat="50.77999" lon="3.68393">
        <ele>80</ele>
        <time>2015-12-13T14:11:34Z</time>
      </trkpt>
      <trkpt lat="50.77997" lon="3.68394">
        <ele>80</ele>
        <time>2015-12-13T14:11:35Z</time>
      </trkpt>
      <trkpt lat="50.77995" lon="3.68396">
        <ele>80</ele>
        <time>2015-12-13T14:11:36Z</time>
      </trkpt>
      <trkpt lat="50.77993" lon="3.68398">
        <ele>80</ele>
        <time>2015-12-13T14:11:37Z</time>
      </trkpt>
      <trkpt lat="50.77991" lon="3.68399">
        <ele>80</ele>
        <time>2015-12-13T14:11:38Z</time>
      </trkpt>
      <trkpt lat="50.77988" lon="3.68401">
        <ele>80</ele>
        <time>2015-12-13T14:11:39Z</time>
      </trkpt>
      <trkpt lat="50.77986" lon="3.68402">
        <ele>80</ele>
        <time>2015-12-13T14:11:40Z</time>
      </trkpt>
      <trkpt lat="50.77984" lon="3.68404">
        <ele>80</ele>
        <time>2015-12-13T14:11:41Z</time>
      </trkpt>
      <trkpt lat="50.77982" lon="3.68406">
        <ele>80</ele>
        <time>2015-12-13T14:11:42Z</time>
      </trkpt>
      <trkpt lat="50.77979" lon="3.68407">
        <ele>80</ele>
        <time>2015-12-13T14:11:43Z</time>
      </trkpt>
      <trkpt lat="50.77977" lon="3.68409">
        <ele>80</ele>
        <time>2015-12-13T14:11:44Z</time>
      </trkpt>
      <trkpt lat="50.77975" lon="3.68411">
        <ele>80</ele>
        <time>2015-12-13T14:11:45Z</time>
      </trkpt>
      <trkpt lat="50.77972" lon="3.68412">
        <ele>80</ele>
        <time>2015-12-13T14:11:46Z</time>
      </trkpt>
      <trkpt lat="50.7797" lon="3.68414">
        <ele>80</ele>
        <time>2015-12-13T14:11:47Z</time>
      </trkpt>
      <trkpt lat="50.77968" lon="3.68416">
        <ele>80</ele>
        <time>2015-12-13T14:11:48Z</time>
      </trkpt>
      <trkpt lat="50.77966" lon="3.68417">
        <ele>80</ele>
        <time>2015-12-13T14:11:49Z</time>
      </trkpt>
      <trkpt lat="50.77963" lon="3.68419">
        <ele>80</ele>
        <time>2015-12-13T14:11:50Z</time>
      </trkpt>
      <trkpt lat="50.77961" lon="3.68421">
        <ele>80</ele>
        <time>2015-12-13T14:11:51Z</time>
      </trkpt>
      <trkpt lat="50.77959" lon="3.68422">
        <ele>80</ele>
        <time>2015-12-13T14:11:52Z</time>
      </trkpt>
      <trkpt lat="50.77957" lon="3.68424">
        <ele>80</ele>
        <time>2015-12-13T14:11:53Z</time>
      </trkpt>
      <trkpt lat="50.77955" lon="3.68425">
        <ele>80</ele>
        <time>2015-12-13T14:11:54Z</time>
      </trkpt>
      <trkpt lat="50.77953" lon="3.68426">
        <ele>80</ele>
        <time>2015-12-13T14:11:55Z</time>
      </trkpt>
      <trkpt lat="50.77951" lon="3.68428">
        <ele>80</ele>
        <time>2015-12-13T14:11:56Z</time>
      </trkpt>
      <trkpt lat="50.77949" lon="3.68429">
        <ele>80</ele>
        <time>2015-12-13T14:11:57Z</time>
      </trkpt>
      <trkpt lat="50.77946" lon="3.6843">
        <ele>80</ele>
        <time>2015-12-13T14:11:58Z</time>
      </trkpt>
      <trkpt lat="50.77944" lon="3.68431">
        <ele>80</ele>
        <time>2015-12-13T14:11:59Z</time>
      </trkpt>
      <trkpt lat="50.77942" lon="3.68433">
        <ele>80</ele>
        <time>2015-12-13T14:12:00Z</time>
      </trkpt>
      <trkpt lat="50.77939" lon="3.68434">
        <ele>80</ele>
        <time>2015-12-13T14:12:01Z</time>
      </trkpt>
      <trkpt lat="50.77937" lon="3.68436">
        <ele>80</ele>
        <time>2015-12-13T14:12:02Z</time>
      </trkpt>
      <trkpt lat="50.77935" lon="3.68437">
        <ele>80</ele>
        <time>2015-12-13T14:12:03Z</time>
      </trkpt>
      <trkpt lat="50.77933" lon="3.68439">
        <ele>80</ele>
        <time>2015-12-13T14:12:04Z</time>
      </trkpt>
      <trkpt lat="50.7793" lon="3.68441">
        <ele>80</ele>
        <time>2015-12-13T14:12:05Z</time>
      </trkpt>
      <trkpt lat="50.77928" lon="3.68442">
        <ele>80</ele>
        <time>2015-12-13T14:12:06Z</time>
      </trkpt>
      <trkpt lat="50.77926" lon="3.68444">
        <ele>80</ele>
        <time>2015-12-13T14:12:07Z</time>
      </trkpt>
      <trkpt lat="50.77924" lon="3.68445">
        <ele>80</ele>
        <time>2015-12-13T14:12:08Z</time>
      </trkpt>
      <trkpt lat="50.77921" lon="3.68447">
        <ele>80</ele>
        <time>2015-12-13T14:12:09Z</time>
      </trkpt>
      <trkpt lat="50.77919" lon="3.68448">
        <ele>80</ele>
        <time>2015-12-13T14:12:10Z</time>
      </trkpt>
      <trkpt lat="50.77917" lon="3.68449">
        <ele>80</ele>
        <time>2015-12-13T14:12:11Z</time>
      </trkpt>
      <trkpt lat="50.77914" lon="3.68451">
        <ele>80</ele>
        <time>2015-12-13T14:12:12Z</time>
      </trkpt>
      <trkpt lat="50.77912" lon="3.68452">
        <ele>80</ele>
        <time>2015-12-13T14:12:13Z</time>
      </trkpt>
      <trkpt lat="50.7791" lon="3.68453">
        <ele>80</ele>
        <time>2015-12-13T14:12:14Z</time>
      </trkpt>
      <trkpt lat="50.77908" lon="3.68454">
        <ele>80</ele>
        <time>2015-12-13T14:12:15Z</time>
      </trkpt>
      <trkpt lat="50.77905" lon="3.68456">
        <ele>80</ele>
        <time>2015-12-13T14:12:16Z</time>
      </trkpt>
      <trkpt lat="50.77903" lon="3.68457">
        <ele>80</ele>
        <time>2015-12-13T14:12:17Z</time>
      </trkpt>
      <trkpt lat="50.779" lon="3.68458">
        <ele>80</ele>
        <time>2015-12-13T14:12:18Z</time>
      </trkpt>
      <trkpt lat="50.77898" lon="3.6846">
        <ele>80</ele>
        <time>2015-12-13T14:12:19Z</time>
      </trkpt>
      <trkpt lat="50.77896" lon="3.68461">
        <ele>80</ele>
        <time>2015-12-13T14:12:20Z</time>
      </trkpt>
      <trkpt lat="50.77894" lon="3.68463">
        <ele>80</ele>
        <time>2015-12-13T14:12:21Z</time>
      </trkpt>
      <trkpt lat="50.77892" lon="3.68464">
        <ele>80</ele>
        <time>2015-12-13T14:12:22Z</time>
      </trkpt>
      <trkpt lat="50.7789" lon="3.68466">
        <ele>80</ele>
        <time>2015-12-13T14:12:23Z</time>
      </trkpt>
      <trkpt lat="50.77887" lon="3.68468">
        <ele>80</ele>
        <time>2015-12-13T14:12:24Z</time>
      </trkpt>
      <trkpt lat="50.77885" lon="3.68469">
        <ele>80</ele>
        <time>2015-12-13T14:12:25Z</time>
      </trkpt>
      <trkpt lat="50.77883" lon="3.68471">
        <ele>80</ele>
        <time>2015-12-13T14:12:26Z</time>
      </trkpt>
      <trkpt lat="50.7788" lon="3.68472">
        <ele>80</ele>
        <time>2015-12-13T14:12:27Z</time>
      </trkpt>
      <trkpt lat="50.77878" lon="3.68473">
        <ele>80</ele>
        <time>2015-12-13T14:12:28Z</time>
      </trkpt>
      <trkpt lat="50.77876" lon="3.68474">
        <ele>80</ele>
        <time>2015-12-13T14:12:29Z</time>
      </trkpt>
      <trkpt lat="50.77873" lon="3.68475">
        <ele>80</ele>
        <time>2015-12-13T14:12:30Z</time>
      </trkpt>
      <trkpt lat="50.77871" lon="3.68476">
        <ele>80</ele>
        <time>2015-12-13T14:12:31Z</time>
      </trkpt>
      <trkpt lat="50.77869" lon="3.68477">
        <ele>80</ele>
        <time>2015-12-13T14:12:32Z</time>
      </trkpt>
      <trkpt lat="50.77866" lon="3.68478">
        <ele>80</ele>
        <time>2015-12-13T14:12:33Z</time>
      </trkpt>
      <trkpt lat="50.77864" lon="3.68479">
        <ele>80</ele>
        <time>2015-12-13T14:12:34Z</time>
      </trkpt>
      <trkpt lat="50.77862" lon="3.68479">
        <ele>80</ele>
        <time>2015-12-13T14:12:35Z</time>
      </trkpt>
      <trkpt lat="50.77859" lon="3.6848">
        <ele>80</ele>
        <time>2015-12-13T14:12:36Z</time>
      </trkpt>
      <trkpt lat="50.77857" lon="3.68481">
        <ele>80</ele>
        <time>2015-12-13T14:12:37Z</time>
      </trkpt>
      <trkpt lat="50.77855" lon="3.68483">
        <ele>80</ele>
        <time>2015-12-13T14:12:38Z</time>
      </trkpt>
      <trkpt lat="50.77852" lon="3.68484">
        <ele>80</ele>
        <time>2015-12-13T14:12:39Z</time>
      </trkpt>
      <trkpt lat="50.7785" lon="3.68486">
        <ele>80</ele>
        <time>2015-12-13T14:12:40Z</time>
      </trkpt>
      <trkpt lat="50.77848" lon="3.68487">
        <ele>80</ele>
        <time>2015-12-13T14:12:41Z</time>
      </trkpt>
      <trkpt lat="50.77845" lon="3.68489">
        <ele>80</ele>
        <time>2015-12-13T14:12:42Z</time>
      </trkpt>
      <trkpt lat="50.77843" lon="3.68491">
        <ele>80</ele>
        <time>2015-12-13T14:12:43Z</time>
      </trkpt>
      <trkpt lat="50.77841" lon="3.68493">
        <ele>80</ele>
        <time>2015-12-13T14:12:44Z</time>
      </trkpt>
      <trkpt lat="50.7784" lon="3.68495">
        <ele>80</ele>
        <time>2015-12-13T14:12:45Z</time>
      </trkpt>
      <trkpt lat="50.77838" lon="3.68498">
        <ele>80</ele>
        <time>2015-12-13T14:12:46Z</time>
      </trkpt>
      <trkpt lat="50.77836" lon="3.68501">
        <ele>80</ele>
        <time>2015-12-13T14:12:47Z</time>
      </trkpt>
      <trkpt lat="50.77835" lon="3.68504">
        <ele>80</ele>
        <time>2015-12-13T14:12:48Z</time>
      </trkpt>
      <trkpt lat="50.77834" lon="3.68507">
        <ele>80</ele>
        <time>2015-12-13T14:12:49Z</time>
      </trkpt>
      <trkpt lat="50.77833" lon="3.68511">
        <ele>80</ele>
        <time>2015-12-13T14:12:50Z</time>
      </trkpt>
      <trkpt lat="50.77832" lon="3.68514">
        <ele>78</ele>
        <time>2015-12-13T14:12:51Z</time>
      </trkpt>
      <trkpt lat="50.77831" lon="3.68518">
        <ele>77</ele>
        <time>2015-12-13T14:12:52Z</time>
      </trkpt>
      <trkpt lat="50.7783" lon="3.68521">
        <ele>77</ele>
        <time>2015-12-13T14:12:53Z</time>
      </trkpt>
      <trkpt lat="50.7783" lon="3.68525">
        <ele>77</ele>
        <time>2015-12-13T14:12:54Z</time>
      </trkpt>
      <trkpt lat="50.77829" lon="3.68529">
        <ele>77</ele>
        <time>2015-12-13T14:12:55Z</time>
      </trkpt>
      <trkpt lat="50.77828" lon="3.68533">
        <ele>76.3</ele>
        <time>2015-12-13T14:12:56Z</time>
      </trkpt>
      <trkpt lat="50.77827" lon="3.68536">
        <ele>76</ele>
        <time>2015-12-13T14:12:57Z</time>
      </trkpt>
      <trkpt lat="50.77826" lon="3.6854">
        <ele>76</ele>
        <time>2015-12-13T14:12:58Z</time>
      </trkpt>
      <trkpt lat="50.77824" lon="3.68543">
        <ele>76</ele>
        <time>2015-12-13T14:12:59Z</time>
      </trkpt>
      <trkpt lat="50.77823" lon="3.68546">
        <ele>76</ele>
        <time>2015-12-13T14:13:00Z</time>
      </trkpt>
      <trkpt lat="50.77821" lon="3.6855">
        <ele>74.6</ele>
        <time>2015-12-13T14:13:01Z</time>
      </trkpt>
      <trkpt lat="50.77819" lon="3.68552">
        <ele>74</ele>
        <time>2015-12-13T14:13:02Z</time>
      </trkpt>
      <trkpt lat="50.77817" lon="3.68555">
        <ele>74</ele>
        <time>2015-12-13T14:13:03Z</time>
      </trkpt>
      <trkpt lat="50.77815" lon="3.68557">
        <ele>74</ele>
        <time>2015-12-13T14:13:04Z</time>
      </trkpt>
      <trkpt lat="50.77813" lon="3.68559">
        <ele>74</ele>
        <time>2015-12-13T14:13:05Z</time>
      </trkpt>
      <trkpt lat="50.77811" lon="3.68561">
        <ele>74</ele>
        <time>2015-12-13T14:13:06Z</time>
      </trkpt>
      <trkpt lat="50.77809" lon="3.68563">
        <ele>74</ele>
        <time>2015-12-13T14:13:07Z</time>
      </trkpt>
      <trkpt lat="50.77807" lon="3.68565">
        <ele>74</ele>
        <time>2015-12-13T14:13:08Z</time>
      </trkpt>
      <trkpt lat="50.77805" lon="3.68567">
        <ele>74</ele>
        <time>2015-12-13T14:13:09Z</time>
      </trkpt>
      <trkpt lat="50.77803" lon="3.68569">
        <ele>74</ele>
        <time>2015-12-13T14:13:10Z</time>
      </trkpt>
      <trkpt lat="50.77801" lon="3.68571">
        <ele>73.3</ele>
        <time>2015-12-13T14:13:11Z</time>
      </trkpt>
      <trkpt lat="50.77799" lon="3.68573">
        <ele>73</ele>
        <time>2015-12-13T14:13:12Z</time>
      </trkpt>
      <trkpt lat="50.77797" lon="3.68575">
        <ele>73</ele>
        <time>2015-12-13T14:13:13Z</time>
      </trkpt>
      <trkpt lat="50.77795" lon="3.68577">
        <ele>73</ele>
        <time>2015-12-13T14:13:14Z</time>
      </trkpt>
      <trkpt lat="50.77793" lon="3.68579">
        <ele>73</ele>
        <time>2015-12-13T14:13:15Z</time>
      </trkpt>
      <trkpt lat="50.7779" lon="3.68581">
        <ele>73</ele>
        <time>2015-12-13T14:13:16Z</time>
      </trkpt>
      <trkpt lat="50.77788" lon="3.68583">
        <ele>73</ele>
        <time>2015-12-13T14:13:17Z</time>
      </trkpt>
      <trkpt lat="50.77786" lon="3.68585">
        <ele>73</ele>
        <time>2015-12-13T14:13:18Z</time>
      </trkpt>
      <trkpt lat="50.77784" lon="3.68587">
        <ele>73</ele>
        <time>2015-12-13T14:13:19Z</time>
      </trkpt>
      <trkpt lat="50.77782" lon="3.6859">
        <ele>73</ele>
        <time>2015-12-13T14:13:20Z</time>
      </trkpt>
      <trkpt lat="50.7778" lon="3.68592">
        <ele>71.6</ele>
        <time>2015-12-13T14:13:21Z</time>
      </trkpt>
      <trkpt lat="50.77778" lon="3.68594">
        <ele>71</ele>
        <time>2015-12-13T14:13:22Z</time>
      </trkpt>
      <trkpt lat="50.77776" lon="3.68596">
        <ele>71</ele>
        <time>2015-12-13T14:13:23Z</time>
      </trkpt>
      <trkpt lat="50.77774" lon="3.68598">
        <ele>71</ele>
        <time>2015-12-13T14:13:24Z</time>
      </trkpt>
      <trkpt lat="50.77772" lon="3.686">
        <ele>71</ele>
        <time>2015-12-13T14:13:25Z</time>
      </trkpt>
      <trkpt lat="50.7777" lon="3.68602">
        <ele>71</ele>
        <time>2015-12-13T14:13:26Z</time>
      </trkpt>
      <trkpt lat="50.77769" lon="3.68604">
        <ele>71</ele>
        <time>2015-12-13T14:13:27Z</time>
      </trkpt>
      <trkpt lat="50.77767" lon="3.68606">
        <ele>71</ele>
        <time>2015-12-13T14:13:28Z</time>
      </trkpt>
      <trkpt lat="50.77765" lon="3.68607">
        <ele>71</ele>
        <time>2015-12-13T14:13:29Z</time>
      </trkpt>
      <trkpt lat="50.77763" lon="3.68609">
        <ele>71</ele>
        <time>2015-12-13T14:13:30Z</time>
      </trkpt>
      <trkpt lat="50.77761" lon="3.6861">
        <ele>69.9</ele>
        <time>2015-12-13T14:13:31Z</time>
      </trkpt>
      <trkpt lat="50.77759" lon="3.68612">
        <ele>69</ele>
        <time>2015-12-13T14:13:33Z</time>
      </trkpt>
      <trkpt lat="50.77755" lon="3.68615">
        <ele>69</ele>
        <time>2015-12-13T14:13:35Z</time>
      </trkpt>
      <trkpt lat="50.77754" lon="3.68617">
        <ele>68.3</ele>
        <time>2015-12-13T14:13:36Z</time>
      </trkpt>
      <trkpt lat="50.77752" lon="3.68619">
        <ele>68</ele>
        <time>2015-12-13T14:13:37Z</time>
      </trkpt>
      <trkpt lat="50.7775" lon="3.68621">
        <ele>68</ele>
        <time>2015-12-13T14:13:38Z</time>
      </trkpt>
      <trkpt lat="50.77748" lon="3.68623">
        <ele>68</ele>
        <time>2015-12-13T14:13:39Z</time>
      </trkpt>
      <trkpt lat="50.77746" lon="3.68625">
        <ele>68</ele>
        <time>2015-12-13T14:13:40Z</time>
      </trkpt>
      <trkpt lat="50.77744" lon="3.68628">
        <ele>68</ele>
        <time>2015-12-13T14:13:41Z</time>
      </trkpt>
      <trkpt lat="50.77741" lon="3.68631">
        <ele>68</ele>
        <time>2015-12-13T14:13:42Z</time>
      </trkpt>
      <trkpt lat="50.77739" lon="3.68634">
        <ele>68</ele>
        <time>2015-12-13T14:13:43Z</time>
      </trkpt>
      <trkpt lat="50.77737" lon="3.68636">
        <ele>68</ele>
        <time>2015-12-13T14:13:44Z</time>
      </trkpt>
      <trkpt lat="50.77735" lon="3.68639">
        <ele>68</ele>
        <time>2015-12-13T14:13:45Z</time>
      </trkpt>
      <trkpt lat="50.77734" lon="3.68641">
        <ele>68</ele>
        <time>2015-12-13T14:13:46Z</time>
      </trkpt>
      <trkpt lat="50.77732" lon="3.68643">
        <ele>68</ele>
        <time>2015-12-13T14:13:47Z</time>
      </trkpt>
      <trkpt lat="50.7773" lon="3.68644">
        <ele>68</ele>
        <time>2015-12-13T14:13:48Z</time>
      </trkpt>
      <trkpt lat="50.7772" lon="3.68651">
        <ele>67</ele>
        <time>2015-12-13T14:13:52Z</time>
      </trkpt>
      <trkpt lat="50.77717" lon="3.68652">
        <ele>67</ele>
        <time>2015-12-13T14:13:53Z</time>
      </trkpt>
      <trkpt lat="50.7771" lon="3.6866">
        <ele>67</ele>
        <time>2015-12-13T14:13:56Z</time>
      </trkpt>
      <trkpt lat="50.777" lon="3.6867">
        <ele>67</ele>
        <time>2015-12-13T14:14:00Z</time>
      </trkpt>
      <trkpt lat="50.77692" lon="3.6868">
        <ele>64</ele>
        <time>2015-12-13T14:14:04Z</time>
      </trkpt>
      <trkpt lat="50.77683" lon="3.68688">
        <ele>66</ele>
        <time>2015-12-13T14:14:08Z</time>
      </trkpt>
      <trkpt lat="50.77673" lon="3.68695">
        <ele>66</ele>
        <time>2015-12-13T14:14:12Z</time>
      </trkpt>
      <trkpt lat="50.77664" lon="3.68699">
        <ele>66</ele>
        <time>2015-12-13T14:14:16Z</time>
      </trkpt>
      <trkpt lat="50.77658" lon="3.68704">
        <ele>66</ele>
        <time>2015-12-13T14:14:19Z</time>
      </trkpt>
      <trkpt lat="50.77648" lon="3.68709">
        <ele>65</ele>
        <time>2015-12-13T14:14:24Z</time>
      </trkpt>
      <trkpt lat="50.77643" lon="3.68721">
        <ele>65</ele>
        <time>2015-12-13T14:14:31Z</time>
      </trkpt>
      <trkpt lat="50.77645" lon="3.68726">
        <ele>65</ele>
        <time>2015-12-13T14:14:34Z</time>
      </trkpt>
      <trkpt lat="50.77643" lon="3.68729">
        <ele>65</ele>
        <time>2015-12-13T14:14:36Z</time>
      </trkpt>
      <trkpt lat="50.77641" lon="3.68732">
        <ele>65</ele>
        <time>2015-12-13T14:14:38Z</time>
      </trkpt>
      <trkpt lat="50.77638" lon="3.68738">
        <ele>65</ele>
        <time>2015-12-13T14:14:42Z</time>
      </trkpt>
      <trkpt lat="50.77638" lon="3.68742">
        <ele>65</ele>
        <time>2015-12-13T14:14:44Z</time>
      </trkpt>
      <trkpt lat="50.77638" lon="3.68746">
        <ele>65</ele>
        <time>2015-12-13T14:14:46Z</time>
      </trkpt>
      <trkpt lat="50.77638" lon="3.6875">
        <ele>65</ele>
        <time>2015-12-13T14:14:48Z</time>
      </trkpt>
      <trkpt lat="50.77637" lon="3.68753">
        <ele>65</ele>
        <time>2015-12-13T14:14:50Z</time>
      </trkpt>
      <trkpt lat="50.77637" lon="3.68757">
        <ele>67</ele>
        <time>2015-12-13T14:14:52Z</time>
      </trkpt>
      <trkpt lat="50.77636" lon="3.68761">
        <ele>67</ele>
        <time>2015-12-13T14:14:54Z</time>
      </trkpt>
      <trkpt lat="50.77636" lon="3.68765">
        <ele>67</ele>
        <time>2015-12-13T14:14:56Z</time>
      </trkpt>
      <trkpt lat="50.77635" lon="3.68768">
        <ele>66</ele>
        <time>2015-12-13T14:14:59Z</time>
      </trkpt>
      <trkpt lat="50.77635" lon="3.68775">
        <ele>69</ele>
        <time>2015-12-13T14:15:03Z</time>
      </trkpt>
      <trkpt lat="50.77636" lon="3.68778">
        <ele>69</ele>
        <time>2015-12-13T14:15:05Z</time>
      </trkpt>
      <trkpt lat="50.77636" lon="3.68782">
        <ele>69.7</ele>
        <time>2015-12-13T14:15:07Z</time>
      </trkpt>
      <trkpt lat="50.77636" lon="3.68785">
        <ele>70</ele>
        <time>2015-12-13T14:15:09Z</time>
      </trkpt>
      <trkpt lat="50.77636" lon="3.68788">
        <ele>70</ele>
        <time>2015-12-13T14:15:11Z</time>
      </trkpt>
      <trkpt lat="50.77637" lon="3.68791">
        <ele>71</ele>
        <time>2015-12-13T14:15:13Z</time>
      </trkpt>
      <trkpt lat="50.77636" lon="3.68795">
        <ele>71</ele>
        <time>2015-12-13T14:15:15Z</time>
      </trkpt>
      <trkpt lat="50.77635" lon="3.68798">
        <ele>71</ele>
        <time>2015-12-13T14:15:18Z</time>
      </trkpt>
      <trkpt lat="50.77633" lon="3.68802">
        <ele>71</ele>
        <time>2015-12-13T14:15:20Z</time>
      </trkpt>
      <trkpt lat="50.77633" lon="3.68805">
        <ele>71</ele>
        <time>2015-12-13T14:15:22Z</time>
      </trkpt>
      <trkpt lat="50.77632" lon="3.68808">
        <ele>71</ele>
        <time>2015-12-13T14:15:24Z</time>
      </trkpt>
      <trkpt lat="50.77631" lon="3.68813">
        <ele>71</ele>
        <time>2015-12-13T14:15:26Z</time>
      </trkpt>
      <trkpt lat="50.77631" lon="3.68817">
        <ele>71</ele>
        <time>2015-12-13T14:15:28Z</time>
      </trkpt>
      <trkpt lat="50.77631" lon="3.68821">
        <ele>71</ele>
        <time>2015-12-13T14:15:30Z</time>
      </trkpt>
      <trkpt lat="50.77631" lon="3.68825">
        <ele>71.7</ele>
        <time>2015-12-13T14:15:32Z</time>
      </trkpt>
      <trkpt lat="50.7763" lon="3.68828">
        <ele>72</ele>
        <time>2015-12-13T14:15:34Z</time>
      </trkpt>
      <trkpt lat="50.7763" lon="3.68831">
        <ele>72</ele>
        <time>2015-12-13T14:15:36Z</time>
      </trkpt>
      <trkpt lat="50.77629" lon="3.68834">
        <ele>72</ele>
        <time>2015-12-13T14:15:38Z</time>
      </trkpt>
      <trkpt lat="50.77628" lon="3.68839">
        <ele>72</ele>
        <time>2015-12-13T14:15:40Z</time>
      </trkpt>
      <trkpt lat="50.77627" lon="3.68842">
        <ele>73.4</ele>
        <time>2015-12-13T14:15:42Z</time>
      </trkpt>
      <trkpt lat="50.77626" lon="3.68845">
        <ele>74</ele>
        <time>2015-12-13T14:15:44Z</time>
      </trkpt>
      <trkpt lat="50.77625" lon="3.68848">
        <ele>74</ele>
        <time>2015-12-13T14:15:46Z</time>
      </trkpt>
      <trkpt lat="50.77624" lon="3.68851">
        <ele>74</ele>
        <time>2015-12-13T14:15:48Z</time>
      </trkpt>
      <trkpt lat="50.77622" lon="3.68854">
        <ele>74</ele>
        <time>2015-12-13T14:15:50Z</time>
      </trkpt>
      <trkpt lat="50.77621" lon="3.68858">
        <ele>74</ele>
        <time>2015-12-13T14:15:52Z</time>
      </trkpt>
      <trkpt lat="50.7762" lon="3.68862">
        <ele>74</ele>
        <time>2015-12-13T14:15:54Z</time>
      </trkpt>
      <trkpt lat="50.77619" lon="3.68865">
        <ele>74</ele>
        <time>2015-12-13T14:15:56Z</time>
      </trkpt>
      <trkpt lat="50.77619" lon="3.68868">
        <ele>74</ele>
        <time>2015-12-13T14:15:58Z</time>
      </trkpt>
      <trkpt lat="50.77618" lon="3.68872">
        <ele>74.7</ele>
        <time>2015-12-13T14:16:01Z</time>
      </trkpt>
      <trkpt lat="50.77617" lon="3.68876">
        <ele>75</ele>
        <time>2015-12-13T14:16:03Z</time>
      </trkpt>
      <trkpt lat="50.77617" lon="3.6888">
        <ele>75</ele>
        <time>2015-12-13T14:16:05Z</time>
      </trkpt>
      <trkpt lat="50.77617" lon="3.68886">
        <ele>75</ele>
        <time>2015-12-13T14:16:07Z</time>
      </trkpt>
      <trkpt lat="50.77616" lon="3.68889">
        <ele>75</ele>
        <time>2015-12-13T14:16:09Z</time>
      </trkpt>
      <trkpt lat="50.77616" lon="3.68891">
        <ele>75</ele>
        <time>2015-12-13T14:16:10Z</time>
      </trkpt>
      <trkpt lat="50.77616" lon="3.68895">
        <ele>75.7</ele>
        <time>2015-12-13T14:16:11Z</time>
      </trkpt>
      <trkpt lat="50.77616" lon="3.689">
        <ele>76</ele>
        <time>2015-12-13T14:16:13Z</time>
      </trkpt>
      <trkpt lat="50.77617" lon="3.68904">
        <ele>76</ele>
        <time>2015-12-13T14:16:15Z</time>
      </trkpt>
      <trkpt lat="50.77617" lon="3.68908">
        <ele>78</ele>
        <time>2015-12-13T14:16:17Z</time>
      </trkpt>
      <trkpt lat="50.77617" lon="3.68912">
        <ele>78</ele>
        <time>2015-12-13T14:16:19Z</time>
      </trkpt>
      <trkpt lat="50.77618" lon="3.68915">
        <ele>78</ele>
        <time>2015-12-13T14:16:21Z</time>
      </trkpt>
      <trkpt lat="50.77617" lon="3.6892">
        <ele>78</ele>
        <time>2015-12-13T14:16:26Z</time>
      </trkpt>
      <trkpt lat="50.77616" lon="3.68924">
        <ele>78</ele>
        <time>2015-12-13T14:16:28Z</time>
      </trkpt>
      <trkpt lat="50.77615" lon="3.68929">
        <ele>78.7</ele>
        <time>2015-12-13T14:16:31Z</time>
      </trkpt>
      <trkpt lat="50.77614" lon="3.68931">
        <ele>79</ele>
        <time>2015-12-13T14:16:32Z</time>
      </trkpt>
      <trkpt lat="50.77613" lon="3.68934">
        <ele>79</ele>
        <time>2015-12-13T14:16:33Z</time>
      </trkpt>
      <trkpt lat="50.7761" lon="3.68944">
        <ele>79</ele>
        <time>2015-12-13T14:16:38Z</time>
      </trkpt>
      <trkpt lat="50.77611" lon="3.68945">
        <ele>79</ele>
        <time>2015-12-13T14:16:40Z</time>
      </trkpt>
      <trkpt lat="50.77611" lon="3.68946">
        <ele>81</ele>
        <time>2015-12-13T14:16:45Z</time>
      </trkpt>
      <trkpt lat="50.77612" lon="3.68947">
        <ele>81</ele>
        <time>2015-12-13T14:16:48Z</time>
      </trkpt>
      <trkpt lat="50.77612" lon="3.68948">
        <ele>84</ele>
        <time>2015-12-13T14:16:53Z</time>
      </trkpt>
      <trkpt lat="50.77613" lon="3.68949">
        <ele>84</ele>
        <time>2015-12-13T14:16:55Z</time>
      </trkpt>
      <trkpt lat="50.77613" lon="3.6895">
        <ele>84</ele>
        <time>2015-12-13T14:16:58Z</time>
      </trkpt>
      <trkpt lat="50.77614" lon="3.68951">
        <ele>85.4</ele>
        <time>2015-12-13T14:17:01Z</time>
      </trkpt>
      <trkpt lat="50.77615" lon="3.68952">
        <ele>86</ele>
        <time>2015-12-13T14:17:04Z</time>
      </trkpt>
      <trkpt lat="50.77615" lon="3.68953">
        <ele>88</ele>
        <time>2015-12-13T14:17:12Z</time>
      </trkpt>
      <trkpt lat="50.77616" lon="3.68954">
        <ele>88</ele>
        <time>2015-12-13T14:17:14Z</time>
      </trkpt>
      <trkpt lat="50.77616" lon="3.68955">
        <ele>88.7</ele>
        <time>2015-12-13T14:17:21Z</time>
      </trkpt>
      <trkpt lat="50.77617" lon="3.68956">
        <ele>89</ele>
        <time>2015-12-13T14:17:24Z</time>
      </trkpt>
      <trkpt lat="50.77617" lon="3.68957">
        <ele>91</ele>
        <time>2015-12-13T14:17:36Z</time>
      </trkpt>
      <trkpt lat="50.77618" lon="3.68958">
        <ele>91</ele>
        <time>2015-12-13T14:17:38Z</time>
      </trkpt>
      <trkpt lat="50.77618" lon="3.68959">
        <ele>92.3</ele>
        <time>2015-12-13T14:17:41Z</time>
      </trkpt>
      <trkpt lat="50.77619" lon="3.6896">
        <ele>93</ele>
        <time>2015-12-13T14:17:43Z</time>
      </trkpt>
      <trkpt lat="50.77619" lon="3.68961">
        <ele>93</ele>
        <time>2015-12-13T14:17:45Z</time>
      </trkpt>
      <trkpt lat="50.7762" lon="3.68962">
        <ele>94</ele>
        <time>2015-12-13T14:17:47Z</time>
      </trkpt>
      <trkpt lat="50.77621" lon="3.68963">
        <ele>94</ele>
        <time>2015-12-13T14:17:49Z</time>
      </trkpt>
      <trkpt lat="50.77621" lon="3.68964">
        <ele>94.5</ele>
        <time>2015-12-13T14:17:51Z</time>
      </trkpt>
      <trkpt lat="50.77622" lon="3.68965">
        <ele>95</ele>
        <time>2015-12-13T14:17:53Z</time>
      </trkpt>
      <trkpt lat="50.77622" lon="3.68966">
        <ele>95</ele>
        <time>2015-12-13T14:17:55Z</time>
      </trkpt>
      <trkpt lat="50.77623" lon="3.68967">
        <ele>96</ele>
        <time>2015-12-13T14:18:20Z</time>
      </trkpt>
      <trkpt lat="50.77623" lon="3.68968">
        <ele>97</ele>
        <time>2015-12-13T14:18:46Z</time>
      </trkpt>
      <trkpt lat="50.77624" lon="3.68969">
        <ele>97</ele>
        <time>2015-12-13T14:19:07Z</time>
      </trkpt>
      <trkpt lat="50.77624" lon="3.6897">
        <ele>97</ele>
        <time>2015-12-13T14:19:17Z</time>
      </trkpt>
      <trkpt lat="50.77625" lon="3.68971">
        <ele>99</ele>
        <time>2015-12-13T14:19:25Z</time>
      </trkpt>
      <trkpt lat="50.77626" lon="3.68972">
        <ele>99</ele>
        <time>2015-12-13T14:19:28Z</time>
      </trkpt>
      <trkpt lat="50.77626" lon="3.68973">
        <ele>97</ele>
        <time>2015-12-13T14:19:56Z</time>
      </trkpt>
      <trkpt lat="50.77627" lon="3.68974">
        <ele>96</ele>
        <time>2015-12-13T14:20:12Z</time>
      </trkpt>
      <trkpt lat="50.77627" lon="3.68975">
        <ele>96</ele>
        <time>2015-12-13T14:20:14Z</time>
      </trkpt>
      <trkpt lat="50.77628" lon="3.68976">
        <ele>96</ele>
        <time>2015-12-13T14:20:16Z</time>
      </trkpt>
      <trkpt lat="50.77628" lon="3.68977">
        <ele>95</ele>
        <time>2015-12-13T14:20:57Z</time>
      </trkpt>
      <trkpt lat="50.77629" lon="3.68978">
        <ele>96</ele>
        <time>2015-12-13T14:24:24Z</time>
      </trkpt>
      <trkpt lat="50.77629" lon="3.68979">
        <ele>96</ele>
        <time>2015-12-13T14:24:27Z</time>
      </trkpt>
      <trkpt lat="50.7763" lon="3.6898">
        <ele>95.3</ele>
        <time>2015-12-13T14:24:31Z</time>
      </trkpt>
      <trkpt lat="50.77631" lon="3.68981">
        <ele>96</ele>
        <time>2015-12-13T14:24:50Z</time>
      </trkpt>
      <trkpt lat="50.77631" lon="3.68982">
        <ele>94</ele>
        <time>2015-12-13T14:25:06Z</time>
      </trkpt>
      <trkpt lat="50.77632" lon="3.68983">
        <ele>94</ele>
        <time>2015-12-13T14:25:07Z</time>
      </trkpt>
      <trkpt lat="50.77633" lon="3.68985">
        <ele>94</ele>
        <time>2015-12-13T14:25:10Z</time>
      </trkpt>
      <trkpt lat="50.7763" lon="3.68978">
        <ele>93</ele>
        <time>2015-12-13T14:25:40Z</time>
      </trkpt>
      <trkpt lat="50.77629" lon="3.68974">
        <ele>89</ele>
        <time>2015-12-13T14:25:43Z</time>
      </trkpt>
      <trkpt lat="50.7763" lon="3.6897">
        <ele>89</ele>
        <time>2015-12-13T14:25:45Z</time>
      </trkpt>
      <trkpt lat="50.7763" lon="3.68966">
        <ele>88</ele>
        <time>2015-12-13T14:25:48Z</time>
      </trkpt>
      <trkpt lat="50.77631" lon="3.68962">
        <ele>88</ele>
        <time>2015-12-13T14:25:50Z</time>
      </trkpt>
      <trkpt lat="50.77631" lon="3.68958">
        <ele>87</ele>
        <time>2015-12-13T14:25:52Z</time>
      </trkpt>
      <trkpt lat="50.7763" lon="3.68955">
        <ele>87</ele>
        <time>2015-12-13T14:25:54Z</time>
      </trkpt>
      <trkpt lat="50.7763" lon="3.68951">
        <ele>85</ele>
        <time>2015-12-13T14:25:57Z</time>
      </trkpt>
      <trkpt lat="50.77631" lon="3.68947">
        <ele>85</ele>
        <time>2015-12-13T14:25:59Z</time>
      </trkpt>
      <trkpt lat="50.77633" lon="3.68943">
        <ele>84.3</ele>
        <time>2015-12-13T14:26:01Z</time>
      </trkpt>
      <trkpt lat="50.77635" lon="3.6894">
        <ele>84</ele>
        <time>2015-12-13T14:26:03Z</time>
      </trkpt>
      <trkpt lat="50.77637" lon="3.68938">
        <ele>84</ele>
        <time>2015-12-13T14:26:05Z</time>
      </trkpt>
      <trkpt lat="50.77638" lon="3.68935">
        <ele>84</ele>
        <time>2015-12-13T14:26:07Z</time>
      </trkpt>
      <trkpt lat="50.77641" lon="3.68933">
        <ele>84</ele>
        <time>2015-12-13T14:26:09Z</time>
      </trkpt>
      <trkpt lat="50.77643" lon="3.6893">
        <ele>83.3</ele>
        <time>2015-12-13T14:26:11Z</time>
      </trkpt>
      <trkpt lat="50.77646" lon="3.68931">
        <ele>83</ele>
        <time>2015-12-13T14:26:14Z</time>
      </trkpt>
      <trkpt lat="50.77649" lon="3.68932">
        <ele>83</ele>
        <time>2015-12-13T14:26:16Z</time>
      </trkpt>
      <trkpt lat="50.77651" lon="3.68932">
        <ele>83</ele>
        <time>2015-12-13T14:26:17Z</time>
      </trkpt>
      <trkpt lat="50.77653" lon="3.68931">
        <ele>83</ele>
        <time>2015-12-13T14:26:18Z</time>
      </trkpt>
      <trkpt lat="50.77656" lon="3.68933">
        <ele>83</ele>
        <time>2015-12-13T14:26:20Z</time>
      </trkpt>
      <trkpt lat="50.77658" lon="3.68934">
        <ele>83</ele>
        <time>2015-12-13T14:26:21Z</time>
      </trkpt>
      <trkpt lat="50.77662" lon="3.68937">
        <ele>83</ele>
        <time>2015-12-13T14:26:23Z</time>
      </trkpt>
      <trkpt lat="50.77664" lon="3.68938">
        <ele>83</ele>
        <time>2015-12-13T14:26:24Z</time>
      </trkpt>
      <trkpt lat="50.77667" lon="3.68937">
        <ele>83</ele>
        <time>2015-12-13T14:26:26Z</time>
      </trkpt>
      <trkpt lat="50.7767" lon="3.68937">
        <ele>83</ele>
        <time>2015-12-13T14:26:28Z</time>
      </trkpt>
      <trkpt lat="50.77672" lon="3.68936">
        <ele>83</ele>
        <time>2015-12-13T14:26:29Z</time>
      </trkpt>
      <trkpt lat="50.77675" lon="3.68935">
        <ele>83</ele>
        <time>2015-12-13T14:26:31Z</time>
      </trkpt>
      <trkpt lat="50.77677" lon="3.68933">
        <ele>84</ele>
        <time>2015-12-13T14:26:42Z</time>
      </trkpt>
      <trkpt lat="50.77678" lon="3.6893">
        <ele>84</ele>
        <time>2015-12-13T14:26:45Z</time>
      </trkpt>
      <trkpt lat="50.77679" lon="3.68927">
        <ele>84</ele>
        <time>2015-12-13T14:26:49Z</time>
      </trkpt>
      <trkpt lat="50.77679" lon="3.68923">
        <ele>84</ele>
        <time>2015-12-13T14:26:52Z</time>
      </trkpt>
      <trkpt lat="50.77681" lon="3.68915">
        <ele>83.5</ele>
        <time>2015-12-13T14:27:01Z</time>
      </trkpt>
      <trkpt lat="50.77684" lon="3.68913">
        <ele>83</ele>
        <time>2015-12-13T14:27:04Z</time>
      </trkpt>
      <trkpt lat="50.77687" lon="3.68912">
        <ele>83</ele>
        <time>2015-12-13T14:27:06Z</time>
      </trkpt>
      <trkpt lat="50.7769" lon="3.68913">
        <ele>83</ele>
        <time>2015-12-13T14:27:08Z</time>
      </trkpt>
      <trkpt lat="50.77692" lon="3.68915">
        <ele>83</ele>
        <time>2015-12-13T14:27:09Z</time>
      </trkpt>
      <trkpt lat="50.77693" lon="3.68916">
        <ele>83</ele>
        <time>2015-12-13T14:27:10Z</time>
      </trkpt>
      <trkpt lat="50.77695" lon="3.68917">
        <ele>84</ele>
        <time>2015-12-13T14:27:12Z</time>
      </trkpt>
      <trkpt lat="50.77698" lon="3.68918">
        <ele>84</ele>
        <time>2015-12-13T14:27:14Z</time>
      </trkpt>
      <trkpt lat="50.77701" lon="3.68919">
        <ele>84</ele>
        <time>2015-12-13T14:27:16Z</time>
      </trkpt>
      <trkpt lat="50.77704" lon="3.68919">
        <ele>84</ele>
        <time>2015-12-13T14:27:18Z</time>
      </trkpt>
      <trkpt lat="50.77706" lon="3.68919">
        <ele>84</ele>
        <time>2015-12-13T14:27:20Z</time>
      </trkpt>
      <trkpt lat="50.77708" lon="3.68921">
        <ele>84</ele>
        <time>2015-12-13T14:27:22Z</time>
      </trkpt>
      <trkpt lat="50.7771" lon="3.68923">
        <ele>84</ele>
        <time>2015-12-13T14:27:23Z</time>
      </trkpt>
      <trkpt lat="50.77711" lon="3.68926">
        <ele>84</ele>
        <time>2015-12-13T14:27:24Z</time>
      </trkpt>
      <trkpt lat="50.77713" lon="3.68929">
        <ele>84</ele>
        <time>2015-12-13T14:27:26Z</time>
      </trkpt>
      <trkpt lat="50.77715" lon="3.68931">
        <ele>84</ele>
        <time>2015-12-13T14:27:28Z</time>
      </trkpt>
      <trkpt lat="50.77717" lon="3.68934">
        <ele>84</ele>
        <time>2015-12-13T14:27:30Z</time>
      </trkpt>
      <trkpt lat="50.77719" lon="3.68937">
        <ele>84</ele>
        <time>2015-12-13T14:27:32Z</time>
      </trkpt>
      <trkpt lat="50.77721" lon="3.68937">
        <ele>84</ele>
        <time>2015-12-13T14:27:35Z</time>
      </trkpt>
      <trkpt lat="50.77723" lon="3.68937">
        <ele>84</ele>
        <time>2015-12-13T14:27:37Z</time>
      </trkpt>
      <trkpt lat="50.77726" lon="3.68939">
        <ele>84</ele>
        <time>2015-12-13T14:27:40Z</time>
      </trkpt>
      <trkpt lat="50.77729" lon="3.68941">
        <ele>85</ele>
        <time>2015-12-13T14:27:42Z</time>
      </trkpt>
      <trkpt lat="50.77731" lon="3.68941">
        <ele>85</ele>
        <time>2015-12-13T14:27:44Z</time>
      </trkpt>
      <trkpt lat="50.77734" lon="3.68942">
        <ele>85</ele>
        <time>2015-12-13T14:27:46Z</time>
      </trkpt>
      <trkpt lat="50.77736" lon="3.68943">
        <ele>85</ele>
        <time>2015-12-13T14:27:48Z</time>
      </trkpt>
      <trkpt lat="50.77738" lon="3.68943">
        <ele>85</ele>
        <time>2015-12-13T14:27:52Z</time>
      </trkpt>
      <trkpt lat="50.77741" lon="3.68944">
        <ele>85</ele>
        <time>2015-12-13T14:27:54Z</time>
      </trkpt>
      <trkpt lat="50.77743" lon="3.68943">
        <ele>85</ele>
        <time>2015-12-13T14:27:56Z</time>
      </trkpt>
      <trkpt lat="50.77746" lon="3.68941">
        <ele>85</ele>
        <time>2015-12-13T14:27:58Z</time>
      </trkpt>
      <trkpt lat="50.77748" lon="3.6894">
        <ele>85</ele>
        <time>2015-12-13T14:28:00Z</time>
      </trkpt>
      <trkpt lat="50.7775" lon="3.68938">
        <ele>84</ele>
        <time>2015-12-13T14:28:02Z</time>
      </trkpt>
      <trkpt lat="50.77752" lon="3.68937">
        <ele>84</ele>
        <time>2015-12-13T14:28:04Z</time>
      </trkpt>
      <trkpt lat="50.77755" lon="3.68935">
        <ele>84</ele>
        <time>2015-12-13T14:28:06Z</time>
      </trkpt>
      <trkpt lat="50.77757" lon="3.68933">
        <ele>84</ele>
        <time>2015-12-13T14:28:08Z</time>
      </trkpt>
      <trkpt lat="50.77758" lon="3.68933">
        <ele>84</ele>
        <time>2015-12-13T14:28:09Z</time>
      </trkpt>
      <trkpt lat="50.77761" lon="3.68933">
        <ele>84</ele>
        <time>2015-12-13T14:28:11Z</time>
      </trkpt>
      <trkpt lat="50.77764" lon="3.68933">
        <ele>84</ele>
        <time>2015-12-13T14:28:13Z</time>
      </trkpt>
      <trkpt lat="50.77766" lon="3.68934">
        <ele>84</ele>
        <time>2015-12-13T14:28:14Z</time>
      </trkpt>
      <trkpt lat="50.77768" lon="3.68935">
        <ele>84</ele>
        <time>2015-12-13T14:28:15Z</time>
      </trkpt>
      <trkpt lat="50.7777" lon="3.68936">
        <ele>84</ele>
        <time>2015-12-13T14:28:16Z</time>
      </trkpt>
      <trkpt lat="50.77772" lon="3.68937">
        <ele>84</ele>
        <time>2015-12-13T14:28:17Z</time>
      </trkpt>
      <trkpt lat="50.77774" lon="3.68939">
        <ele>84</ele>
        <time>2015-12-13T14:28:18Z</time>
      </trkpt>
      <trkpt lat="50.77776" lon="3.6894">
        <ele>84</ele>
        <time>2015-12-13T14:28:20Z</time>
      </trkpt>
      <trkpt lat="50.7778" lon="3.6894">
        <ele>83</ele>
        <time>2015-12-13T14:28:22Z</time>
      </trkpt>
      <trkpt lat="50.77782" lon="3.68941">
        <ele>83</ele>
        <time>2015-12-13T14:28:24Z</time>
      </trkpt>
      <trkpt lat="50.77784" lon="3.68943">
        <ele>83</ele>
        <time>2015-12-13T14:28:26Z</time>
      </trkpt>
      <trkpt lat="50.77787" lon="3.68946">
        <ele>83</ele>
        <time>2015-12-13T14:28:28Z</time>
      </trkpt>
      <trkpt lat="50.7779" lon="3.68948">
        <ele>83</ele>
        <time>2015-12-13T14:28:30Z</time>
      </trkpt>
      <trkpt lat="50.77791" lon="3.6895">
        <ele>84</ele>
        <time>2015-12-13T14:28:32Z</time>
      </trkpt>
      <trkpt lat="50.77793" lon="3.68954">
        <ele>84</ele>
        <time>2015-12-13T14:28:35Z</time>
      </trkpt>
      <trkpt lat="50.77797" lon="3.68956">
        <ele>84</ele>
        <time>2015-12-13T14:28:41Z</time>
      </trkpt>
      <trkpt lat="50.77799" lon="3.68957">
        <ele>84</ele>
        <time>2015-12-13T14:28:43Z</time>
      </trkpt>
      <trkpt lat="50.77801" lon="3.68959">
        <ele>84</ele>
        <time>2015-12-13T14:28:45Z</time>
      </trkpt>
      <trkpt lat="50.77803" lon="3.68959">
        <ele>84</ele>
        <time>2015-12-13T14:28:49Z</time>
      </trkpt>
      <trkpt lat="50.77805" lon="3.6896">
        <ele>84</ele>
        <time>2015-12-13T14:28:51Z</time>
      </trkpt>
      <trkpt lat="50.77808" lon="3.68962">
        <ele>84</ele>
        <time>2015-12-13T14:28:53Z</time>
      </trkpt>
      <trkpt lat="50.77811" lon="3.68963">
        <ele>84</ele>
        <time>2015-12-13T14:28:55Z</time>
      </trkpt>
      <trkpt lat="50.77813" lon="3.68964">
        <ele>84</ele>
        <time>2015-12-13T14:28:57Z</time>
      </trkpt>
      <trkpt lat="50.77815" lon="3.68965">
        <ele>84</ele>
        <time>2015-12-13T14:28:59Z</time>
      </trkpt>
      <trkpt lat="50.77817" lon="3.68967">
        <ele>83.3</ele>
        <time>2015-12-13T14:29:01Z</time>
      </trkpt>
      <trkpt lat="50.7782" lon="3.68967">
        <ele>83</ele>
        <time>2015-12-13T14:29:03Z</time>
      </trkpt>
      <trkpt lat="50.77821" lon="3.68969">
        <ele>83</ele>
        <time>2015-12-13T14:29:04Z</time>
      </trkpt>
      <trkpt lat="50.77823" lon="3.68971">
        <ele>83</ele>
        <time>2015-12-13T14:29:05Z</time>
      </trkpt>
      <trkpt lat="50.77825" lon="3.68973">
        <ele>83</ele>
        <time>2015-12-13T14:29:06Z</time>
      </trkpt>
      <trkpt lat="50.77827" lon="3.68973">
        <ele>83</ele>
        <time>2015-12-13T14:29:12Z</time>
      </trkpt>
      <trkpt lat="50.77829" lon="3.68973">
        <ele>83</ele>
        <time>2015-12-13T14:29:14Z</time>
      </trkpt>
      <trkpt lat="50.77832" lon="3.68973">
        <ele>83</ele>
        <time>2015-12-13T14:29:17Z</time>
      </trkpt>
      <trkpt lat="50.77834" lon="3.68972">
        <ele>83</ele>
        <time>2015-12-13T14:29:19Z</time>
      </trkpt>
      <trkpt lat="50.77836" lon="3.68971">
        <ele>83</ele>
        <time>2015-12-13T14:29:21Z</time>
      </trkpt>
      <trkpt lat="50.77837" lon="3.68968">
        <ele>83</ele>
        <time>2015-12-13T14:29:24Z</time>
      </trkpt>
      <trkpt lat="50.77836" lon="3.68966">
        <ele>83</ele>
        <time>2015-12-13T14:29:27Z</time>
      </trkpt>
      <trkpt lat="50.77835" lon="3.68955">
        <ele>82</ele>
        <time>2015-12-13T14:29:37Z</time>
      </trkpt>
      <trkpt lat="50.77836" lon="3.68951">
        <ele>82</ele>
        <time>2015-12-13T14:29:39Z</time>
      </trkpt>
      <trkpt lat="50.77835" lon="3.68946">
        <ele>79</ele>
        <time>2015-12-13T14:29:42Z</time>
      </trkpt>
      <trkpt lat="50.77836" lon="3.68941">
        <ele>79</ele>
        <time>2015-12-13T14:29:44Z</time>
      </trkpt>
      <trkpt lat="50.77838" lon="3.68938">
        <ele>79</ele>
        <time>2015-12-13T14:29:46Z</time>
      </trkpt>
      <trkpt lat="50.77841" lon="3.68936">
        <ele>79</ele>
        <time>2015-12-13T14:29:48Z</time>
      </trkpt>
      <trkpt lat="50.77843" lon="3.68935">
        <ele>79</ele>
        <time>2015-12-13T14:29:50Z</time>
      </trkpt>
      <trkpt lat="50.77846" lon="3.68939">
        <ele>79</ele>
        <time>2015-12-13T14:29:52Z</time>
      </trkpt>
      <trkpt lat="50.77847" lon="3.68941">
        <ele>79</ele>
        <time>2015-12-13T14:29:53Z</time>
      </trkpt>
      <trkpt lat="50.77849" lon="3.68943">
        <ele>79</ele>
        <time>2015-12-13T14:29:54Z</time>
      </trkpt>
      <trkpt lat="50.7785" lon="3.68945">
        <ele>79</ele>
        <time>2015-12-13T14:29:55Z</time>
      </trkpt>
      <trkpt lat="50.77853" lon="3.68948">
        <ele>79</ele>
        <time>2015-12-13T14:29:57Z</time>
      </trkpt>
      <trkpt lat="50.77856" lon="3.6895">
        <ele>79</ele>
        <time>2015-12-13T14:29:59Z</time>
      </trkpt>
      <trkpt lat="50.77859" lon="3.68952">
        <ele>79</ele>
        <time>2015-12-13T14:30:01Z</time>
      </trkpt>
      <trkpt lat="50.77861" lon="3.68954">
        <ele>79</ele>
        <time>2015-12-13T14:30:02Z</time>
      </trkpt>
      <trkpt lat="50.77862" lon="3.68956">
        <ele>79</ele>
        <time>2015-12-13T14:30:03Z</time>
      </trkpt>
      <trkpt lat="50.77865" lon="3.68958">
        <ele>79</ele>
        <time>2015-12-13T14:30:05Z</time>
      </trkpt>
      <trkpt lat="50.77866" lon="3.6896">
        <ele>79</ele>
        <time>2015-12-13T14:30:06Z</time>
      </trkpt>
      <trkpt lat="50.77869" lon="3.68962">
        <ele>79</ele>
        <time>2015-12-13T14:30:08Z</time>
      </trkpt>
      <trkpt lat="50.77871" lon="3.68963">
        <ele>79</ele>
        <time>2015-12-13T14:30:09Z</time>
      </trkpt>
      <trkpt lat="50.77873" lon="3.68964">
        <ele>79</ele>
        <time>2015-12-13T14:30:10Z</time>
      </trkpt>
      <trkpt lat="50.77875" lon="3.68965">
        <ele>79</ele>
        <time>2015-12-13T14:30:11Z</time>
      </trkpt>
      <trkpt lat="50.77877" lon="3.68966">
        <ele>79</ele>
        <time>2015-12-13T14:30:12Z</time>
      </trkpt>
      <trkpt lat="50.77879" lon="3.68967">
        <ele>79</ele>
        <time>2015-12-13T14:30:13Z</time>
      </trkpt>
      <trkpt lat="50.77882" lon="3.68968">
        <ele>79</ele>
        <time>2015-12-13T14:30:15Z</time>
      </trkpt>
      <trkpt lat="50.77885" lon="3.6897">
        <ele>79</ele>
        <time>2015-12-13T14:30:17Z</time>
      </trkpt>
      <trkpt lat="50.77889" lon="3.6897">
        <ele>79</ele>
        <time>2015-12-13T14:30:19Z</time>
      </trkpt>
      <trkpt lat="50.7789" lon="3.68971">
        <ele>79</ele>
        <time>2015-12-13T14:30:20Z</time>
      </trkpt>
      <trkpt lat="50.77892" lon="3.68972">
        <ele>79</ele>
        <time>2015-12-13T14:30:21Z</time>
      </trkpt>
      <trkpt lat="50.77894" lon="3.68972">
        <ele>79</ele>
        <time>2015-12-13T14:30:22Z</time>
      </trkpt>
      <trkpt lat="50.77898" lon="3.68973">
        <ele>79</ele>
        <time>2015-12-13T14:30:24Z</time>
      </trkpt>
      <trkpt lat="50.779" lon="3.68973">
        <ele>79</ele>
        <time>2015-12-13T14:30:25Z</time>
      </trkpt>
      <trkpt lat="50.77903" lon="3.68973">
        <ele>79</ele>
        <time>2015-12-13T14:30:26Z</time>
      </trkpt>
      <trkpt lat="50.77904" lon="3.68973">
        <ele>79</ele>
        <time>2015-12-13T14:30:27Z</time>
      </trkpt>
      <trkpt lat="50.77906" lon="3.68974">
        <ele>79</ele>
        <time>2015-12-13T14:30:28Z</time>
      </trkpt>
      <trkpt lat="50.77908" lon="3.68976">
        <ele>79</ele>
        <time>2015-12-13T14:30:29Z</time>
      </trkpt>
      <trkpt lat="50.7791" lon="3.68977">
        <ele>79</ele>
        <time>2015-12-13T14:30:30Z</time>
      </trkpt>
      <trkpt lat="50.77912" lon="3.68978">
        <ele>79</ele>
        <time>2015-12-13T14:30:31Z</time>
      </trkpt>
      <trkpt lat="50.77915" lon="3.68979">
        <ele>79</ele>
        <time>2015-12-13T14:30:32Z</time>
      </trkpt>
      <trkpt lat="50.77917" lon="3.6898">
        <ele>79</ele>
        <time>2015-12-13T14:30:33Z</time>
      </trkpt>
      <trkpt lat="50.7792" lon="3.6898">
        <ele>79</ele>
        <time>2015-12-13T14:30:34Z</time>
      </trkpt>
      <trkpt lat="50.77922" lon="3.68981">
        <ele>79</ele>
        <time>2015-12-13T14:30:35Z</time>
      </trkpt>
      <trkpt lat="50.77924" lon="3.68981">
        <ele>79</ele>
        <time>2015-12-13T14:30:36Z</time>
      </trkpt>
      <trkpt lat="50.77926" lon="3.68981">
        <ele>79</ele>
        <time>2015-12-13T14:30:37Z</time>
      </trkpt>
      <trkpt lat="50.77928" lon="3.6898">
        <ele>79</ele>
        <time>2015-12-13T14:30:38Z</time>
      </trkpt>
      <trkpt lat="50.77931" lon="3.6898">
        <ele>79</ele>
        <time>2015-12-13T14:30:39Z</time>
      </trkpt>
      <trkpt lat="50.77933" lon="3.6898">
        <ele>79</ele>
        <time>2015-12-13T14:30:40Z</time>
      </trkpt>
      <trkpt lat="50.77935" lon="3.6898">
        <ele>78.3</ele>
        <time>2015-12-13T14:30:41Z</time>
      </trkpt>
      <trkpt lat="50.77938" lon="3.68981">
        <ele>78</ele>
        <time>2015-12-13T14:30:42Z</time>
      </trkpt>
      <trkpt lat="50.7794" lon="3.68981">
        <ele>78</ele>
        <time>2015-12-13T14:30:43Z</time>
      </trkpt>
      <trkpt lat="50.77943" lon="3.68982">
        <ele>78</ele>
        <time>2015-12-13T14:30:44Z</time>
      </trkpt>
      <trkpt lat="50.77945" lon="3.68982">
        <ele>78</ele>
        <time>2015-12-13T14:30:45Z</time>
      </trkpt>
      <trkpt lat="50.77948" lon="3.68981">
        <ele>78</ele>
        <time>2015-12-13T14:30:47Z</time>
      </trkpt>
      <trkpt lat="50.7795" lon="3.68981">
        <ele>78</ele>
        <time>2015-12-13T14:30:48Z</time>
      </trkpt>
      <trkpt lat="50.77952" lon="3.68981">
        <ele>78</ele>
        <time>2015-12-13T14:30:49Z</time>
      </trkpt>
      <trkpt lat="50.77954" lon="3.68981">
        <ele>78</ele>
        <time>2015-12-13T14:30:50Z</time>
      </trkpt>
      <trkpt lat="50.77957" lon="3.6898">
        <ele>76.6</ele>
        <time>2015-12-13T14:30:51Z</time>
      </trkpt>
      <trkpt lat="50.77958" lon="3.68979">
        <ele>76</ele>
        <time>2015-12-13T14:30:52Z</time>
      </trkpt>
      <trkpt lat="50.77961" lon="3.68979">
        <ele>76</ele>
        <time>2015-12-13T14:30:53Z</time>
      </trkpt>
      <trkpt lat="50.77962" lon="3.68978">
        <ele>76</ele>
        <time>2015-12-13T14:30:54Z</time>
      </trkpt>
      <trkpt lat="50.77966" lon="3.68976">
        <ele>73.3</ele>
        <time>2015-12-13T14:30:56Z</time>
      </trkpt>
      <trkpt lat="50.77968" lon="3.68975">
        <ele>72</ele>
        <time>2015-12-13T14:30:57Z</time>
      </trkpt>
      <trkpt lat="50.7797" lon="3.68974">
        <ele>72.7</ele>
        <time>2015-12-13T14:30:58Z</time>
      </trkpt>
      <trkpt lat="50.77972" lon="3.68973">
        <ele>73</ele>
        <time>2015-12-13T14:30:59Z</time>
      </trkpt>
      <trkpt lat="50.77975" lon="3.68974">
        <ele>73</ele>
        <time>2015-12-13T14:31:00Z</time>
      </trkpt>
      <trkpt lat="50.77977" lon="3.68976">
        <ele>71.6</ele>
        <time>2015-12-13T14:31:01Z</time>
      </trkpt>
      <trkpt lat="50.7798" lon="3.68978">
        <ele>71</ele>
        <time>2015-12-13T14:31:02Z</time>
      </trkpt>
      <trkpt lat="50.77982" lon="3.6898">
        <ele>71</ele>
        <time>2015-12-13T14:31:03Z</time>
      </trkpt>
      <trkpt lat="50.77985" lon="3.68982">
        <ele>71</ele>
        <time>2015-12-13T14:31:04Z</time>
      </trkpt>
      <trkpt lat="50.77986" lon="3.68984">
        <ele>71</ele>
        <time>2015-12-13T14:31:05Z</time>
      </trkpt>
      <trkpt lat="50.77988" lon="3.68986">
        <ele>71</ele>
        <time>2015-12-13T14:31:06Z</time>
      </trkpt>
      <trkpt lat="50.7799" lon="3.68988">
        <ele>71</ele>
        <time>2015-12-13T14:31:07Z</time>
      </trkpt>
      <trkpt lat="50.77991" lon="3.6899">
        <ele>71</ele>
        <time>2015-12-13T14:31:08Z</time>
      </trkpt>
      <trkpt lat="50.77995" lon="3.68992">
        <ele>71</ele>
        <time>2015-12-13T14:31:10Z</time>
      </trkpt>
      <trkpt lat="50.77997" lon="3.68992">
        <ele>70.5</ele>
        <time>2015-12-13T14:31:11Z</time>
      </trkpt>
      <trkpt lat="50.77999" lon="3.68994">
        <ele>70</ele>
        <time>2015-12-13T14:31:12Z</time>
      </trkpt>
      <trkpt lat="50.78" lon="3.68994">
        <ele>70</ele>
        <time>2015-12-13T14:31:13Z</time>
      </trkpt>
      <trkpt lat="50.78002" lon="3.68995">
        <ele>70</ele>
        <time>2015-12-13T14:31:14Z</time>
      </trkpt>
      <trkpt lat="50.78005" lon="3.68998">
        <ele>70</ele>
        <time>2015-12-13T14:31:16Z</time>
      </trkpt>
      <trkpt lat="50.78006" lon="3.68999">
        <ele>70</ele>
        <time>2015-12-13T14:31:18Z</time>
      </trkpt>
      <trkpt lat="50.78009" lon="3.69001">
        <ele>70</ele>
        <time>2015-12-13T14:31:23Z</time>
      </trkpt>
      <trkpt lat="50.78011" lon="3.69004">
        <ele>70</ele>
        <time>2015-12-13T14:31:25Z</time>
      </trkpt>
      <trkpt lat="50.78013" lon="3.69006">
        <ele>70</ele>
        <time>2015-12-13T14:31:27Z</time>
      </trkpt>
      <trkpt lat="50.78015" lon="3.69007">
        <ele>70</ele>
        <time>2015-12-13T14:31:29Z</time>
      </trkpt>
      <trkpt lat="50.78018" lon="3.69007">
        <ele>69.3</ele>
        <time>2015-12-13T14:31:31Z</time>
      </trkpt>
      <trkpt lat="50.7802" lon="3.69007">
        <ele>69</ele>
        <time>2015-12-13T14:31:32Z</time>
      </trkpt>
      <trkpt lat="50.78024" lon="3.69007">
        <ele>69</ele>
        <time>2015-12-13T14:31:34Z</time>
      </trkpt>
      <trkpt lat="50.78026" lon="3.69006">
        <ele>69</ele>
        <time>2015-12-13T14:31:36Z</time>
      </trkpt>
      <trkpt lat="50.78029" lon="3.69006">
        <ele>69</ele>
        <time>2015-12-13T14:31:38Z</time>
      </trkpt>
      <trkpt lat="50.78032" lon="3.69004">
        <ele>69</ele>
        <time>2015-12-13T14:31:40Z</time>
      </trkpt>
      <trkpt lat="50.78036" lon="3.69001">
        <ele>67</ele>
        <time>2015-12-13T14:31:42Z</time>
      </trkpt>
      <trkpt lat="50.78038" lon="3.69">
        <ele>67</ele>
        <time>2015-12-13T14:31:43Z</time>
      </trkpt>
      <trkpt lat="50.7804" lon="3.68999">
        <ele>67</ele>
        <time>2015-12-13T14:31:44Z</time>
      </trkpt>
      <trkpt lat="50.78044" lon="3.68997">
        <ele>67</ele>
        <time>2015-12-13T14:31:46Z</time>
      </trkpt>
      <trkpt lat="50.78046" lon="3.68996">
        <ele>67</ele>
        <time>2015-12-13T14:31:47Z</time>
      </trkpt>
      <trkpt lat="50.78048" lon="3.68995">
        <ele>67</ele>
        <time>2015-12-13T14:31:48Z</time>
      </trkpt>
      <trkpt lat="50.7805" lon="3.68993">
        <ele>67</ele>
        <time>2015-12-13T14:31:49Z</time>
      </trkpt>
      <trkpt lat="50.78051" lon="3.68991">
        <ele>67</ele>
        <time>2015-12-13T14:31:50Z</time>
      </trkpt>
      <trkpt lat="50.78053" lon="3.6899">
        <ele>66.3</ele>
        <time>2015-12-13T14:31:51Z</time>
      </trkpt>
      <trkpt lat="50.78056" lon="3.68988">
        <ele>66</ele>
        <time>2015-12-13T14:31:52Z</time>
      </trkpt>
      <trkpt lat="50.78058" lon="3.68987">
        <ele>66</ele>
        <time>2015-12-13T14:31:53Z</time>
      </trkpt>
      <trkpt lat="50.7806" lon="3.68985">
        <ele>66</ele>
        <time>2015-12-13T14:31:54Z</time>
      </trkpt>
      <trkpt lat="50.78062" lon="3.68984">
        <ele>66</ele>
        <time>2015-12-13T14:31:55Z</time>
      </trkpt>
      <trkpt lat="50.78064" lon="3.68982">
        <ele>66</ele>
        <time>2015-12-13T14:31:56Z</time>
      </trkpt>
      <trkpt lat="50.78067" lon="3.6898">
        <ele>66</ele>
        <time>2015-12-13T14:31:57Z</time>
      </trkpt>
      <trkpt lat="50.78069" lon="3.68979">
        <ele>66</ele>
        <time>2015-12-13T14:31:58Z</time>
      </trkpt>
      <trkpt lat="50.78072" lon="3.68977">
        <ele>66</ele>
        <time>2015-12-13T14:31:59Z</time>
      </trkpt>
      <trkpt lat="50.78075" lon="3.68976">
        <ele>66</ele>
        <time>2015-12-13T14:32:00Z</time>
      </trkpt>
      <trkpt lat="50.78078" lon="3.68973">
        <ele>64</ele>
        <time>2015-12-13T14:32:01Z</time>
      </trkpt>
      <trkpt lat="50.7808" lon="3.68972">
        <ele>63</ele>
        <time>2015-12-13T14:32:02Z</time>
      </trkpt>
      <trkpt lat="50.78083" lon="3.68971">
        <ele>63</ele>
        <time>2015-12-13T14:32:03Z</time>
      </trkpt>
      <trkpt lat="50.78085" lon="3.68969">
        <ele>63</ele>
        <time>2015-12-13T14:32:04Z</time>
      </trkpt>
      <trkpt lat="50.78088" lon="3.68968">
        <ele>63</ele>
        <time>2015-12-13T14:32:05Z</time>
      </trkpt>
      <trkpt lat="50.7809" lon="3.68967">
        <ele>63.2</ele>
        <time>2015-12-13T14:32:06Z</time>
      </trkpt>
      <trkpt lat="50.78093" lon="3.68966">
        <ele>64</ele>
        <time>2015-12-13T14:32:07Z</time>
      </trkpt>
      <trkpt lat="50.78096" lon="3.68964">
        <ele>64</ele>
        <time>2015-12-13T14:32:08Z</time>
      </trkpt>
      <trkpt lat="50.78098" lon="3.68961">
        <ele>64</ele>
        <time>2015-12-13T14:32:09Z</time>
      </trkpt>
      <trkpt lat="50.78101" lon="3.68959">
        <ele>64</ele>
        <time>2015-12-13T14:32:10Z</time>
      </trkpt>
      <trkpt lat="50.78108" lon="3.68949">
        <ele>64</ele>
        <time>2015-12-13T14:32:13Z</time>
      </trkpt>
      <trkpt lat="50.78111" lon="3.68947">
        <ele>64</ele>
        <time>2015-12-13T14:32:14Z</time>
      </trkpt>
      <trkpt lat="50.78114" lon="3.68945">
        <ele>64</ele>
        <time>2015-12-13T14:32:15Z</time>
      </trkpt>
      <trkpt lat="50.78116" lon="3.68945">
        <ele>64</ele>
        <time>2015-12-13T14:32:16Z</time>
      </trkpt>
      <trkpt lat="50.78118" lon="3.68944">
        <ele>64</ele>
        <time>2015-12-13T14:32:17Z</time>
      </trkpt>
      <trkpt lat="50.7812" lon="3.68943">
        <ele>64</ele>
        <time>2015-12-13T14:32:18Z</time>
      </trkpt>
      <trkpt lat="50.78122" lon="3.68943">
        <ele>64</ele>
        <time>2015-12-13T14:32:19Z</time>
      </trkpt>
      <trkpt lat="50.78124" lon="3.68942">
        <ele>64</ele>
        <time>2015-12-13T14:32:20Z</time>
      </trkpt>
      <trkpt lat="50.78126" lon="3.68942">
        <ele>64.7</ele>
        <time>2015-12-13T14:32:21Z</time>
      </trkpt>
      <trkpt lat="50.78129" lon="3.68941">
        <ele>65</ele>
        <time>2015-12-13T14:32:22Z</time>
      </trkpt>
      <trkpt lat="50.78132" lon="3.6894">
        <ele>65</ele>
        <time>2015-12-13T14:32:23Z</time>
      </trkpt>
      <trkpt lat="50.78135" lon="3.68939">
        <ele>65</ele>
        <time>2015-12-13T14:32:24Z</time>
      </trkpt>
      <trkpt lat="50.78137" lon="3.68938">
        <ele>65</ele>
        <time>2015-12-13T14:32:25Z</time>
      </trkpt>
      <trkpt lat="50.78139" lon="3.68938">
        <ele>65</ele>
        <time>2015-12-13T14:32:26Z</time>
      </trkpt>
      <trkpt lat="50.78141" lon="3.68937">
        <ele>65</ele>
        <time>2015-12-13T14:32:27Z</time>
      </trkpt>
      <trkpt lat="50.78143" lon="3.68937">
        <ele>65</ele>
        <time>2015-12-13T14:32:28Z</time>
      </trkpt>
      <trkpt lat="50.78145" lon="3.68936">
        <ele>65</ele>
        <time>2015-12-13T14:32:29Z</time>
      </trkpt>
      <trkpt lat="50.78148" lon="3.68935">
        <ele>65.7</ele>
        <time>2015-12-13T14:32:31Z</time>
      </trkpt>
      <trkpt lat="50.7815" lon="3.68933">
        <ele>66</ele>
        <time>2015-12-13T14:32:32Z</time>
      </trkpt>
      <trkpt lat="50.78152" lon="3.68931">
        <ele>66</ele>
        <time>2015-12-13T14:32:33Z</time>
      </trkpt>
      <trkpt lat="50.78154" lon="3.6893">
        <ele>66</ele>
        <time>2015-12-13T14:32:34Z</time>
      </trkpt>
      <trkpt lat="50.78156" lon="3.68929">
        <ele>66</ele>
        <time>2015-12-13T14:32:35Z</time>
      </trkpt>
      <trkpt lat="50.78158" lon="3.68926">
        <ele>66</ele>
        <time>2015-12-13T14:32:36Z</time>
      </trkpt>
      <trkpt lat="50.7816" lon="3.68924">
        <ele>66</ele>
        <time>2015-12-13T14:32:37Z</time>
      </trkpt>
      <trkpt lat="50.78162" lon="3.68923">
        <ele>66</ele>
        <time>2015-12-13T14:32:38Z</time>
      </trkpt>
      <trkpt lat="50.78164" lon="3.68922">
        <ele>66</ele>
        <time>2015-12-13T14:32:39Z</time>
      </trkpt>
      <trkpt lat="50.78166" lon="3.68921">
        <ele>66</ele>
        <time>2015-12-13T14:32:40Z</time>
      </trkpt>
      <trkpt lat="50.78168" lon="3.6892">
        <ele>66</ele>
        <time>2015-12-13T14:32:41Z</time>
      </trkpt>
      <trkpt lat="50.78171" lon="3.68918">
        <ele>66</ele>
        <time>2015-12-13T14:32:43Z</time>
      </trkpt>
      <trkpt lat="50.78173" lon="3.68916">
        <ele>66</ele>
        <time>2015-12-13T14:32:44Z</time>
      </trkpt>
      <trkpt lat="50.78176" lon="3.68915">
        <ele>66</ele>
        <time>2015-12-13T14:32:45Z</time>
      </trkpt>
      <trkpt lat="50.78178" lon="3.68913">
        <ele>66</ele>
        <time>2015-12-13T14:32:46Z</time>
      </trkpt>
      <trkpt lat="50.7818" lon="3.68912">
        <ele>66</ele>
        <time>2015-12-13T14:32:47Z</time>
      </trkpt>
      <trkpt lat="50.78182" lon="3.68912">
        <ele>66</ele>
        <time>2015-12-13T14:32:48Z</time>
      </trkpt>
      <trkpt lat="50.78184" lon="3.68911">
        <ele>66</ele>
        <time>2015-12-13T14:32:49Z</time>
      </trkpt>
      <trkpt lat="50.78186" lon="3.6891">
        <ele>66</ele>
        <time>2015-12-13T14:32:50Z</time>
      </trkpt>
      <trkpt lat="50.78188" lon="3.68908">
        <ele>66</ele>
        <time>2015-12-13T14:32:51Z</time>
      </trkpt>
      <trkpt lat="50.78191" lon="3.68907">
        <ele>66</ele>
        <time>2015-12-13T14:32:52Z</time>
      </trkpt>
      <trkpt lat="50.78193" lon="3.68905">
        <ele>66</ele>
        <time>2015-12-13T14:32:53Z</time>
      </trkpt>
      <trkpt lat="50.78195" lon="3.68904">
        <ele>66</ele>
        <time>2015-12-13T14:32:54Z</time>
      </trkpt>
      <trkpt lat="50.78198" lon="3.68902">
        <ele>66</ele>
        <time>2015-12-13T14:32:55Z</time>
      </trkpt>
      <trkpt lat="50.782" lon="3.689">
        <ele>66</ele>
        <time>2015-12-13T14:32:56Z</time>
      </trkpt>
      <trkpt lat="50.78203" lon="3.68899">
        <ele>66</ele>
        <time>2015-12-13T14:32:57Z</time>
      </trkpt>
      <trkpt lat="50.78205" lon="3.68898">
        <ele>66</ele>
        <time>2015-12-13T14:32:58Z</time>
      </trkpt>
      <trkpt lat="50.78207" lon="3.68896">
        <ele>66</ele>
        <time>2015-12-13T14:32:59Z</time>
      </trkpt>
      <trkpt lat="50.7821" lon="3.68895">
        <ele>66</ele>
        <time>2015-12-13T14:33:00Z</time>
      </trkpt>
      <trkpt lat="50.78212" lon="3.68894">
        <ele>65.3</ele>
        <time>2015-12-13T14:33:01Z</time>
      </trkpt>
      <trkpt lat="50.78215" lon="3.68893">
        <ele>65</ele>
        <time>2015-12-13T14:33:02Z</time>
      </trkpt>
      <trkpt lat="50.78218" lon="3.68891">
        <ele>65</ele>
        <time>2015-12-13T14:33:03Z</time>
      </trkpt>
      <trkpt lat="50.7822" lon="3.6889">
        <ele>65</ele>
        <time>2015-12-13T14:33:04Z</time>
      </trkpt>
      <trkpt lat="50.78222" lon="3.68889">
        <ele>65</ele>
        <time>2015-12-13T14:33:05Z</time>
      </trkpt>
      <trkpt lat="50.78224" lon="3.68888">
        <ele>65</ele>
        <time>2015-12-13T14:33:06Z</time>
      </trkpt>
      <trkpt lat="50.78227" lon="3.68887">
        <ele>65</ele>
        <time>2015-12-13T14:33:07Z</time>
      </trkpt>
      <trkpt lat="50.78229" lon="3.68885">
        <ele>65</ele>
        <time>2015-12-13T14:33:08Z</time>
      </trkpt>
      <trkpt lat="50.78232" lon="3.68883">
        <ele>65</ele>
        <time>2015-12-13T14:33:09Z</time>
      </trkpt>
      <trkpt lat="50.78234" lon="3.68881">
        <ele>65</ele>
        <time>2015-12-13T14:33:10Z</time>
      </trkpt>
      <trkpt lat="50.78236" lon="3.6888">
        <ele>64.3</ele>
        <time>2015-12-13T14:33:11Z</time>
      </trkpt>
      <trkpt lat="50.78238" lon="3.68879">
        <ele>64</ele>
        <time>2015-12-13T14:33:12Z</time>
      </trkpt>
      <trkpt lat="50.78241" lon="3.68877">
        <ele>64</ele>
        <time>2015-12-13T14:33:13Z</time>
      </trkpt>
      <trkpt lat="50.78243" lon="3.68876">
        <ele>64</ele>
        <time>2015-12-13T14:33:14Z</time>
      </trkpt>
      <trkpt lat="50.78245" lon="3.68874">
        <ele>64</ele>
        <time>2015-12-13T14:33:15Z</time>
      </trkpt>
      <trkpt lat="50.78248" lon="3.68872">
        <ele>64</ele>
        <time>2015-12-13T14:33:16Z</time>
      </trkpt>
      <trkpt lat="50.7825" lon="3.68871">
        <ele>64</ele>
        <time>2015-12-13T14:33:17Z</time>
      </trkpt>
      <trkpt lat="50.78252" lon="3.6887">
        <ele>64</ele>
        <time>2015-12-13T14:33:18Z</time>
      </trkpt>
      <trkpt lat="50.78254" lon="3.68869">
        <ele>64</ele>
        <time>2015-12-13T14:33:19Z</time>
      </trkpt>
      <trkpt lat="50.78256" lon="3.68867">
        <ele>64</ele>
        <time>2015-12-13T14:33:20Z</time>
      </trkpt>
      <trkpt lat="50.78258" lon="3.68867">
        <ele>64</ele>
        <time>2015-12-13T14:33:21Z</time>
      </trkpt>
      <trkpt lat="50.7826" lon="3.68865">
        <ele>64</ele>
        <time>2015-12-13T14:33:22Z</time>
      </trkpt>
      <trkpt lat="50.78263" lon="3.68865">
        <ele>64</ele>
        <time>2015-12-13T14:33:23Z</time>
      </trkpt>
      <trkpt lat="50.78265" lon="3.68864">
        <ele>64</ele>
        <time>2015-12-13T14:33:24Z</time>
      </trkpt>
      <trkpt lat="50.78267" lon="3.68864">
        <ele>64</ele>
        <time>2015-12-13T14:33:25Z</time>
      </trkpt>
      <trkpt lat="50.78269" lon="3.68863">
        <ele>64</ele>
        <time>2015-12-13T14:33:26Z</time>
      </trkpt>
      <trkpt lat="50.78271" lon="3.68862">
        <ele>64</ele>
        <time>2015-12-13T14:33:27Z</time>
      </trkpt>
      <trkpt lat="50.78274" lon="3.68861">
        <ele>64</ele>
        <time>2015-12-13T14:33:28Z</time>
      </trkpt>
      <trkpt lat="50.78276" lon="3.6886">
        <ele>64</ele>
        <time>2015-12-13T14:33:29Z</time>
      </trkpt>
      <trkpt lat="50.78279" lon="3.68858">
        <ele>64</ele>
        <time>2015-12-13T14:33:30Z</time>
      </trkpt>
      <trkpt lat="50.78281" lon="3.68857">
        <ele>64</ele>
        <time>2015-12-13T14:33:31Z</time>
      </trkpt>
      <trkpt lat="50.78283" lon="3.68857">
        <ele>64</ele>
        <time>2015-12-13T14:33:32Z</time>
      </trkpt>
      <trkpt lat="50.78286" lon="3.68855">
        <ele>64</ele>
        <time>2015-12-13T14:33:33Z</time>
      </trkpt>
      <trkpt lat="50.78288" lon="3.68854">
        <ele>64</ele>
        <time>2015-12-13T14:33:34Z</time>
      </trkpt>
      <trkpt lat="50.7829" lon="3.68853">
        <ele>64</ele>
        <time>2015-12-13T14:33:35Z</time>
      </trkpt>
      <trkpt lat="50.78293" lon="3.68852">
        <ele>64</ele>
        <time>2015-12-13T14:33:36Z</time>
      </trkpt>
      <trkpt lat="50.78296" lon="3.68851">
        <ele>64</ele>
        <time>2015-12-13T14:33:37Z</time>
      </trkpt>
      <trkpt lat="50.78298" lon="3.6885">
        <ele>64</ele>
        <time>2015-12-13T14:33:38Z</time>
      </trkpt>
      <trkpt lat="50.78301" lon="3.68848">
        <ele>64</ele>
        <time>2015-12-13T14:33:39Z</time>
      </trkpt>
      <trkpt lat="50.78303" lon="3.68846">
        <ele>64</ele>
        <time>2015-12-13T14:33:40Z</time>
      </trkpt>
      <trkpt lat="50.78306" lon="3.68845">
        <ele>63.5</ele>
        <time>2015-12-13T14:33:41Z</time>
      </trkpt>
      <trkpt lat="50.78309" lon="3.68844">
        <ele>63</ele>
        <time>2015-12-13T14:33:42Z</time>
      </trkpt>
      <trkpt lat="50.78311" lon="3.68843">
        <ele>63</ele>
        <time>2015-12-13T14:33:43Z</time>
      </trkpt>
      <trkpt lat="50.78313" lon="3.68843">
        <ele>63</ele>
        <time>2015-12-13T14:33:44Z</time>
      </trkpt>
      <trkpt lat="50.78315" lon="3.68842">
        <ele>63</ele>
        <time>2015-12-13T14:33:45Z</time>
      </trkpt>
      <trkpt lat="50.78317" lon="3.68841">
        <ele>63</ele>
        <time>2015-12-13T14:33:46Z</time>
      </trkpt>
      <trkpt lat="50.7832" lon="3.6884">
        <ele>63</ele>
        <time>2015-12-13T14:33:47Z</time>
      </trkpt>
      <trkpt lat="50.78323" lon="3.68839">
        <ele>63</ele>
        <time>2015-12-13T14:33:48Z</time>
      </trkpt>
      <trkpt lat="50.78326" lon="3.68838">
        <ele>63</ele>
        <time>2015-12-13T14:33:49Z</time>
      </trkpt>
      <trkpt lat="50.78329" lon="3.68837">
        <ele>63</ele>
        <time>2015-12-13T14:33:50Z</time>
      </trkpt>
      <trkpt lat="50.78331" lon="3.68835">
        <ele>63</ele>
        <time>2015-12-13T14:33:51Z</time>
      </trkpt>
      <trkpt lat="50.78338" lon="3.68829">
        <ele>63</ele>
        <time>2015-12-13T14:33:54Z</time>
      </trkpt>
      <trkpt lat="50.7834" lon="3.68827">
        <ele>63</ele>
        <time>2015-12-13T14:33:55Z</time>
      </trkpt>
      <trkpt lat="50.78342" lon="3.68825">
        <ele>63</ele>
        <time>2015-12-13T14:33:56Z</time>
      </trkpt>
      <trkpt lat="50.78344" lon="3.68823">
        <ele>63</ele>
        <time>2015-12-13T14:33:57Z</time>
      </trkpt>
      <trkpt lat="50.78348" lon="3.68821">
        <ele>63</ele>
        <time>2015-12-13T14:33:58Z</time>
      </trkpt>
      <trkpt lat="50.78351" lon="3.68819">
        <ele>63</ele>
        <time>2015-12-13T14:33:59Z</time>
      </trkpt>
      <trkpt lat="50.78354" lon="3.68817">
        <ele>63</ele>
        <time>2015-12-13T14:34:00Z</time>
      </trkpt>
      <trkpt lat="50.78356" lon="3.68815">
        <ele>63</ele>
        <time>2015-12-13T14:34:01Z</time>
      </trkpt>
      <trkpt lat="50.78359" lon="3.68813">
        <ele>62.3</ele>
        <time>2015-12-13T14:34:02Z</time>
      </trkpt>
      <trkpt lat="50.78361" lon="3.68812">
        <ele>62</ele>
        <time>2015-12-13T14:34:03Z</time>
      </trkpt>
      <trkpt lat="50.78364" lon="3.6881">
        <ele>62</ele>
        <time>2015-12-13T14:34:04Z</time>
      </trkpt>
      <trkpt lat="50.78366" lon="3.68809">
        <ele>62</ele>
        <time>2015-12-13T14:34:05Z</time>
      </trkpt>
      <trkpt lat="50.78368" lon="3.68807">
        <ele>62</ele>
        <time>2015-12-13T14:34:06Z</time>
      </trkpt>
      <trkpt lat="50.78369" lon="3.68806">
        <ele>62</ele>
        <time>2015-12-13T14:34:07Z</time>
      </trkpt>
      <trkpt lat="50.78371" lon="3.68804">
        <ele>62</ele>
        <time>2015-12-13T14:34:08Z</time>
      </trkpt>
      <trkpt lat="50.78374" lon="3.68804">
        <ele>62</ele>
        <time>2015-12-13T14:34:09Z</time>
      </trkpt>
      <trkpt lat="50.78376" lon="3.68803">
        <ele>62</ele>
        <time>2015-12-13T14:34:10Z</time>
      </trkpt>
      <trkpt lat="50.78379" lon="3.68802">
        <ele>62</ele>
        <time>2015-12-13T14:34:11Z</time>
      </trkpt>
      <trkpt lat="50.78381" lon="3.68801">
        <ele>62</ele>
        <time>2015-12-13T14:34:12Z</time>
      </trkpt>
      <trkpt lat="50.78384" lon="3.688">
        <ele>62</ele>
        <time>2015-12-13T14:34:13Z</time>
      </trkpt>
      <trkpt lat="50.78386" lon="3.68799">
        <ele>62</ele>
        <time>2015-12-13T14:34:14Z</time>
      </trkpt>
      <trkpt lat="50.78389" lon="3.68798">
        <ele>62</ele>
        <time>2015-12-13T14:34:15Z</time>
      </trkpt>
      <trkpt lat="50.78392" lon="3.68797">
        <ele>62</ele>
        <time>2015-12-13T14:34:16Z</time>
      </trkpt>
      <trkpt lat="50.78394" lon="3.68796">
        <ele>62</ele>
        <time>2015-12-13T14:34:17Z</time>
      </trkpt>
      <trkpt lat="50.78396" lon="3.68796">
        <ele>62</ele>
        <time>2015-12-13T14:34:18Z</time>
      </trkpt>
      <trkpt lat="50.78399" lon="3.68795">
        <ele>62</ele>
        <time>2015-12-13T14:34:19Z</time>
      </trkpt>
      <trkpt lat="50.78401" lon="3.68793">
        <ele>62</ele>
        <time>2015-12-13T14:34:20Z</time>
      </trkpt>
      <trkpt lat="50.78403" lon="3.68792">
        <ele>62</ele>
        <time>2015-12-13T14:34:21Z</time>
      </trkpt>
      <trkpt lat="50.78405" lon="3.68792">
        <ele>62</ele>
        <time>2015-12-13T14:34:22Z</time>
      </trkpt>
      <trkpt lat="50.78408" lon="3.68791">
        <ele>62</ele>
        <time>2015-12-13T14:34:23Z</time>
      </trkpt>
      <trkpt lat="50.78411" lon="3.6879">
        <ele>62</ele>
        <time>2015-12-13T14:34:24Z</time>
      </trkpt>
      <trkpt lat="50.78414" lon="3.68789">
        <ele>62</ele>
        <time>2015-12-13T14:34:25Z</time>
      </trkpt>
      <trkpt lat="50.78417" lon="3.68789">
        <ele>62</ele>
        <time>2015-12-13T14:34:26Z</time>
      </trkpt>
      <trkpt lat="50.7842" lon="3.68788">
        <ele>62</ele>
        <time>2015-12-13T14:34:27Z</time>
      </trkpt>
      <trkpt lat="50.78423" lon="3.68787">
        <ele>62</ele>
        <time>2015-12-13T14:34:28Z</time>
      </trkpt>
      <trkpt lat="50.78426" lon="3.68786">
        <ele>62</ele>
        <time>2015-12-13T14:34:29Z</time>
      </trkpt>
      <trkpt lat="50.78429" lon="3.68785">
        <ele>62</ele>
        <time>2015-12-13T14:34:30Z</time>
      </trkpt>
      <trkpt lat="50.78431" lon="3.68784">
        <ele>62</ele>
        <time>2015-12-13T14:34:31Z</time>
      </trkpt>
      <trkpt lat="50.78434" lon="3.68783">
        <ele>60.6</ele>
        <time>2015-12-13T14:34:32Z</time>
      </trkpt>
      <trkpt lat="50.78437" lon="3.68783">
        <ele>60</ele>
        <time>2015-12-13T14:34:33Z</time>
      </trkpt>
      <trkpt lat="50.7844" lon="3.68782">
        <ele>60</ele>
        <time>2015-12-13T14:34:34Z</time>
      </trkpt>
      <trkpt lat="50.78442" lon="3.68781">
        <ele>60</ele>
        <time>2015-12-13T14:34:35Z</time>
      </trkpt>
      <trkpt lat="50.78445" lon="3.6878">
        <ele>60</ele>
        <time>2015-12-13T14:34:36Z</time>
      </trkpt>
      <trkpt lat="50.78447" lon="3.68779">
        <ele>59.5</ele>
        <time>2015-12-13T14:34:37Z</time>
      </trkpt>
      <trkpt lat="50.78449" lon="3.68778">
        <ele>59</ele>
        <time>2015-12-13T14:34:38Z</time>
      </trkpt>
      <trkpt lat="50.78451" lon="3.68777">
        <ele>59</ele>
        <time>2015-12-13T14:34:39Z</time>
      </trkpt>
      <trkpt lat="50.78453" lon="3.68775">
        <ele>59</ele>
        <time>2015-12-13T14:34:40Z</time>
      </trkpt>
      <trkpt lat="50.78455" lon="3.68774">
        <ele>59.7</ele>
        <time>2015-12-13T14:34:42Z</time>
      </trkpt>
      <trkpt lat="50.78457" lon="3.68771">
        <ele>60</ele>
        <time>2015-12-13T14:34:44Z</time>
      </trkpt>
      <trkpt lat="50.7846" lon="3.68768">
        <ele>60</ele>
        <time>2015-12-13T14:34:46Z</time>
      </trkpt>
      <trkpt lat="50.78462" lon="3.68767">
        <ele>60</ele>
        <time>2015-12-13T14:34:48Z</time>
      </trkpt>
      <trkpt lat="50.78464" lon="3.68765">
        <ele>60</ele>
        <time>2015-12-13T14:34:51Z</time>
      </trkpt>
      <trkpt lat="50.78467" lon="3.68766">
        <ele>60</ele>
        <time>2015-12-13T14:34:53Z</time>
      </trkpt>
      <trkpt lat="50.7847" lon="3.68767">
        <ele>60</ele>
        <time>2015-12-13T14:34:55Z</time>
      </trkpt>
      <trkpt lat="50.78473" lon="3.68767">
        <ele>60</ele>
        <time>2015-12-13T14:34:57Z</time>
      </trkpt>
      <trkpt lat="50.78476" lon="3.68766">
        <ele>60</ele>
        <time>2015-12-13T14:34:59Z</time>
      </trkpt>
      <trkpt lat="50.78479" lon="3.68765">
        <ele>60.7</ele>
        <time>2015-12-13T14:35:01Z</time>
      </trkpt>
      <trkpt lat="50.78482" lon="3.68764">
        <ele>61</ele>
        <time>2015-12-13T14:35:03Z</time>
      </trkpt>
      <trkpt lat="50.78484" lon="3.68764">
        <ele>61</ele>
        <time>2015-12-13T14:35:04Z</time>
      </trkpt>
      <trkpt lat="50.78487" lon="3.68763">
        <ele>61</ele>
        <time>2015-12-13T14:35:06Z</time>
      </trkpt>
      <trkpt lat="50.78489" lon="3.68762">
        <ele>61</ele>
        <time>2015-12-13T14:35:08Z</time>
      </trkpt>
      <trkpt lat="50.78492" lon="3.68761">
        <ele>61</ele>
        <time>2015-12-13T14:35:10Z</time>
      </trkpt>
      <trkpt lat="50.78494" lon="3.6876">
        <ele>63</ele>
        <time>2015-12-13T14:35:12Z</time>
      </trkpt>
      <trkpt lat="50.78496" lon="3.68759">
        <ele>63</ele>
        <time>2015-12-13T14:35:14Z</time>
      </trkpt>
      <trkpt lat="50.78499" lon="3.68758">
        <ele>63.5</ele>
        <time>2015-12-13T14:35:16Z</time>
      </trkpt>
      <trkpt lat="50.78501" lon="3.68757">
        <ele>64</ele>
        <time>2015-12-13T14:35:18Z</time>
      </trkpt>
      <trkpt lat="50.78504" lon="3.68756">
        <ele>64</ele>
        <time>2015-12-13T14:35:20Z</time>
      </trkpt>
      <trkpt lat="50.78506" lon="3.68755">
        <ele>65</ele>
        <time>2015-12-13T14:35:22Z</time>
      </trkpt>
      <trkpt lat="50.78508" lon="3.68754">
        <ele>65</ele>
        <time>2015-12-13T14:35:24Z</time>
      </trkpt>
      <trkpt lat="50.7851" lon="3.68753">
        <ele>65</ele>
        <time>2015-12-13T14:35:26Z</time>
      </trkpt>
      <trkpt lat="50.78512" lon="3.68752">
        <ele>65</ele>
        <time>2015-12-13T14:35:28Z</time>
      </trkpt>
      <trkpt lat="50.78515" lon="3.68751">
        <ele>65</ele>
        <time>2015-12-13T14:35:30Z</time>
      </trkpt>
      <trkpt lat="50.78517" lon="3.68751">
        <ele>67</ele>
        <time>2015-12-13T14:35:32Z</time>
      </trkpt>
      <trkpt lat="50.7852" lon="3.68751">
        <ele>67</ele>
        <time>2015-12-13T14:35:34Z</time>
      </trkpt>
      <trkpt lat="50.78522" lon="3.68751">
        <ele>67</ele>
        <time>2015-12-13T14:35:36Z</time>
      </trkpt>
      <trkpt lat="50.78525" lon="3.68751">
        <ele>67</ele>
        <time>2015-12-13T14:35:38Z</time>
      </trkpt>
      <trkpt lat="50.78528" lon="3.6875">
        <ele>67</ele>
        <time>2015-12-13T14:35:40Z</time>
      </trkpt>
      <trkpt lat="50.78531" lon="3.6875">
        <ele>68</ele>
        <time>2015-12-13T14:35:42Z</time>
      </trkpt>
      <trkpt lat="50.78534" lon="3.68751">
        <ele>68</ele>
        <time>2015-12-13T14:35:44Z</time>
      </trkpt>
      <trkpt lat="50.78536" lon="3.68751">
        <ele>68</ele>
        <time>2015-12-13T14:35:46Z</time>
      </trkpt>
      <trkpt lat="50.78539" lon="3.68752">
        <ele>68</ele>
        <time>2015-12-13T14:35:48Z</time>
      </trkpt>
      <trkpt lat="50.78542" lon="3.68752">
        <ele>68</ele>
        <time>2015-12-13T14:35:50Z</time>
      </trkpt>
      <trkpt lat="50.78545" lon="3.68753">
        <ele>69</ele>
        <time>2015-12-13T14:35:52Z</time>
      </trkpt>
      <trkpt lat="50.78548" lon="3.68754">
        <ele>69</ele>
        <time>2015-12-13T14:35:54Z</time>
      </trkpt>
      <trkpt lat="50.78551" lon="3.68755">
        <ele>69</ele>
        <time>2015-12-13T14:35:56Z</time>
      </trkpt>
      <trkpt lat="50.78554" lon="3.68757">
        <ele>69</ele>
        <time>2015-12-13T14:35:58Z</time>
      </trkpt>
      <trkpt lat="50.78556" lon="3.68758">
        <ele>69</ele>
        <time>2015-12-13T14:36:00Z</time>
      </trkpt>
      <trkpt lat="50.78558" lon="3.6876">
        <ele>70</ele>
        <time>2015-12-13T14:36:02Z</time>
      </trkpt>
      <trkpt lat="50.7856" lon="3.68762">
        <ele>70</ele>
        <time>2015-12-13T14:36:04Z</time>
      </trkpt>
      <trkpt lat="50.78562" lon="3.68764">
        <ele>70</ele>
        <time>2015-12-13T14:36:06Z</time>
      </trkpt>
      <trkpt lat="50.78564" lon="3.68767">
        <ele>70</ele>
        <time>2015-12-13T14:36:09Z</time>
      </trkpt>
      <trkpt lat="50.78566" lon="3.6877">
        <ele>70</ele>
        <time>2015-12-13T14:36:11Z</time>
      </trkpt>
      <trkpt lat="50.78568" lon="3.68772">
        <ele>70</ele>
        <time>2015-12-13T14:36:13Z</time>
      </trkpt>
      <trkpt lat="50.7857" lon="3.68775">
        <ele>70</ele>
        <time>2015-12-13T14:36:15Z</time>
      </trkpt>
      <trkpt lat="50.78572" lon="3.68777">
        <ele>70</ele>
        <time>2015-12-13T14:36:17Z</time>
      </trkpt>
      <trkpt lat="50.78574" lon="3.6878">
        <ele>70</ele>
        <time>2015-12-13T14:36:19Z</time>
      </trkpt>
      <trkpt lat="50.78577" lon="3.68783">
        <ele>71.4</ele>
        <time>2015-12-13T14:36:21Z</time>
      </trkpt>
      <trkpt lat="50.78579" lon="3.68786">
        <ele>72</ele>
        <time>2015-12-13T14:36:23Z</time>
      </trkpt>
      <trkpt lat="50.78582" lon="3.68789">
        <ele>72</ele>
        <time>2015-12-13T14:36:25Z</time>
      </trkpt>
      <trkpt lat="50.78584" lon="3.68791">
        <ele>72</ele>
        <time>2015-12-13T14:36:27Z</time>
      </trkpt>
      <trkpt lat="50.78586" lon="3.68793">
        <ele>72</ele>
        <time>2015-12-13T14:36:29Z</time>
      </trkpt>
      <trkpt lat="50.78588" lon="3.68796">
        <ele>72.5</ele>
        <time>2015-12-13T14:36:31Z</time>
      </trkpt>
      <trkpt lat="50.7859" lon="3.68799">
        <ele>73</ele>
        <time>2015-12-13T14:36:33Z</time>
      </trkpt>
      <trkpt lat="50.78592" lon="3.68802">
        <ele>73</ele>
        <time>2015-12-13T14:36:35Z</time>
      </trkpt>
      <trkpt lat="50.78594" lon="3.68804">
        <ele>73</ele>
        <time>2015-12-13T14:36:37Z</time>
      </trkpt>
      <trkpt lat="50.78596" lon="3.68806">
        <ele>73</ele>
        <time>2015-12-13T14:36:38Z</time>
      </trkpt>
      <trkpt lat="50.78597" lon="3.68809">
        <ele>73</ele>
        <time>2015-12-13T14:36:40Z</time>
      </trkpt>
      <trkpt lat="50.78599" lon="3.68813">
        <ele>73</ele>
        <time>2015-12-13T14:36:42Z</time>
      </trkpt>
      <trkpt lat="50.78601" lon="3.68818">
        <ele>73</ele>
        <time>2015-12-13T14:36:44Z</time>
      </trkpt>
      <trkpt lat="50.78602" lon="3.6882">
        <ele>73</ele>
        <time>2015-12-13T14:36:45Z</time>
      </trkpt>
      <trkpt lat="50.78604" lon="3.68824">
        <ele>73</ele>
        <time>2015-12-13T14:36:47Z</time>
      </trkpt>
      <trkpt lat="50.78605" lon="3.68826">
        <ele>73</ele>
        <time>2015-12-13T14:36:48Z</time>
      </trkpt>
      <trkpt lat="50.78606" lon="3.6883">
        <ele>73</ele>
        <time>2015-12-13T14:36:50Z</time>
      </trkpt>
      <trkpt lat="50.78607" lon="3.68834">
        <ele>75</ele>
        <time>2015-12-13T14:36:52Z</time>
      </trkpt>
      <trkpt lat="50.78608" lon="3.68838">
        <ele>75</ele>
        <time>2015-12-13T14:36:54Z</time>
      </trkpt>
      <trkpt lat="50.7861" lon="3.68841">
        <ele>75</ele>
        <time>2015-12-13T14:36:56Z</time>
      </trkpt>
      <trkpt lat="50.78611" lon="3.68845">
        <ele>75</ele>
        <time>2015-12-13T14:36:58Z</time>
      </trkpt>
      <trkpt lat="50.78613" lon="3.68848">
        <ele>75</ele>
        <time>2015-12-13T14:37:00Z</time>
      </trkpt>
      <trkpt lat="50.78615" lon="3.68851">
        <ele>77</ele>
        <time>2015-12-13T14:37:02Z</time>
      </trkpt>
      <trkpt lat="50.78617" lon="3.68854">
        <ele>77</ele>
        <time>2015-12-13T14:37:04Z</time>
      </trkpt>
      <trkpt lat="50.78619" lon="3.68857">
        <ele>77</ele>
        <time>2015-12-13T14:37:06Z</time>
      </trkpt>
      <trkpt lat="50.78621" lon="3.6886">
        <ele>77</ele>
        <time>2015-12-13T14:37:08Z</time>
      </trkpt>
      <trkpt lat="50.78622" lon="3.68863">
        <ele>77</ele>
        <time>2015-12-13T14:37:10Z</time>
      </trkpt>
      <trkpt lat="50.78624" lon="3.68867">
        <ele>78</ele>
        <time>2015-12-13T14:37:12Z</time>
      </trkpt>
      <trkpt lat="50.78625" lon="3.68869">
        <ele>78</ele>
        <time>2015-12-13T14:37:14Z</time>
      </trkpt>
      <trkpt lat="50.78627" lon="3.68872">
        <ele>78</ele>
        <time>2015-12-13T14:37:16Z</time>
      </trkpt>
      <trkpt lat="50.78628" lon="3.68875">
        <ele>78</ele>
        <time>2015-12-13T14:37:18Z</time>
      </trkpt>
      <trkpt lat="50.7863" lon="3.68878">
        <ele>78</ele>
        <time>2015-12-13T14:37:20Z</time>
      </trkpt>
      <trkpt lat="50.78632" lon="3.68881">
        <ele>80</ele>
        <time>2015-12-13T14:37:22Z</time>
      </trkpt>
      <trkpt lat="50.78634" lon="3.68884">
        <ele>80</ele>
        <time>2015-12-13T14:37:24Z</time>
      </trkpt>
      <trkpt lat="50.78635" lon="3.68888">
        <ele>80</ele>
        <time>2015-12-13T14:37:26Z</time>
      </trkpt>
      <trkpt lat="50.78637" lon="3.6889">
        <ele>80</ele>
        <time>2015-12-13T14:37:28Z</time>
      </trkpt>
      <trkpt lat="50.78639" lon="3.68893">
        <ele>80</ele>
        <time>2015-12-13T14:37:30Z</time>
      </trkpt>
      <trkpt lat="50.7864" lon="3.68897">
        <ele>80</ele>
        <time>2015-12-13T14:37:32Z</time>
      </trkpt>
      <trkpt lat="50.78642" lon="3.689">
        <ele>80</ele>
        <time>2015-12-13T14:37:34Z</time>
      </trkpt>
      <trkpt lat="50.78643" lon="3.68903">
        <ele>79</ele>
        <time>2015-12-13T14:37:36Z</time>
      </trkpt>
      <trkpt lat="50.78645" lon="3.68906">
        <ele>79</ele>
        <time>2015-12-13T14:37:38Z</time>
      </trkpt>
      <trkpt lat="50.78646" lon="3.68909">
        <ele>79</ele>
        <time>2015-12-13T14:37:40Z</time>
      </trkpt>
      <trkpt lat="50.78648" lon="3.68911">
        <ele>81</ele>
        <time>2015-12-13T14:37:42Z</time>
      </trkpt>
      <trkpt lat="50.7865" lon="3.68915">
        <ele>81</ele>
        <time>2015-12-13T14:37:44Z</time>
      </trkpt>
      <trkpt lat="50.78651" lon="3.68918">
        <ele>81</ele>
        <time>2015-12-13T14:37:46Z</time>
      </trkpt>
      <trkpt lat="50.78653" lon="3.68921">
        <ele>81</ele>
        <time>2015-12-13T14:37:48Z</time>
      </trkpt>
      <trkpt lat="50.78655" lon="3.68924">
        <ele>81</ele>
        <time>2015-12-13T14:37:50Z</time>
      </trkpt>
      <trkpt lat="50.78656" lon="3.68927">
        <ele>83</ele>
        <time>2015-12-13T14:37:52Z</time>
      </trkpt>
      <trkpt lat="50.78658" lon="3.68931">
        <ele>83</ele>
        <time>2015-12-13T14:37:54Z</time>
      </trkpt>
      <trkpt lat="50.78659" lon="3.68933">
        <ele>83</ele>
        <time>2015-12-13T14:37:56Z</time>
      </trkpt>
      <trkpt lat="50.78661" lon="3.68936">
        <ele>83</ele>
        <time>2015-12-13T14:37:58Z</time>
      </trkpt>
      <trkpt lat="50.78662" lon="3.68939">
        <ele>82</ele>
        <time>2015-12-13T14:38:00Z</time>
      </trkpt>
      <trkpt lat="50.78664" lon="3.68942">
        <ele>83</ele>
        <time>2015-12-13T14:38:02Z</time>
      </trkpt>
      <trkpt lat="50.78665" lon="3.68945">
        <ele>83</ele>
        <time>2015-12-13T14:38:04Z</time>
      </trkpt>
      <trkpt lat="50.78667" lon="3.68948">
        <ele>83</ele>
        <time>2015-12-13T14:38:06Z</time>
      </trkpt>
      <trkpt lat="50.78668" lon="3.68951">
        <ele>83</ele>
        <time>2015-12-13T14:38:08Z</time>
      </trkpt>
      <trkpt lat="50.7867" lon="3.68954">
        <ele>83</ele>
        <time>2015-12-13T14:38:10Z</time>
      </trkpt>
      <trkpt lat="50.78672" lon="3.68957">
        <ele>85</ele>
        <time>2015-12-13T14:38:12Z</time>
      </trkpt>
      <trkpt lat="50.78674" lon="3.6896">
        <ele>85</ele>
        <time>2015-12-13T14:38:14Z</time>
      </trkpt>
      <trkpt lat="50.78675" lon="3.68962">
        <ele>85</ele>
        <time>2015-12-13T14:38:16Z</time>
      </trkpt>
      <trkpt lat="50.78677" lon="3.68965">
        <ele>85</ele>
        <time>2015-12-13T14:38:18Z</time>
      </trkpt>
      <trkpt lat="50.78679" lon="3.68968">
        <ele>85</ele>
        <time>2015-12-13T14:38:20Z</time>
      </trkpt>
      <trkpt lat="50.7868" lon="3.68972">
        <ele>86</ele>
        <time>2015-12-13T14:38:22Z</time>
      </trkpt>
      <trkpt lat="50.78682" lon="3.68974">
        <ele>86</ele>
        <time>2015-12-13T14:38:24Z</time>
      </trkpt>
      <trkpt lat="50.78684" lon="3.68976">
        <ele>86</ele>
        <time>2015-12-13T14:38:26Z</time>
      </trkpt>
      <trkpt lat="50.78686" lon="3.68979">
        <ele>86</ele>
        <time>2015-12-13T14:38:28Z</time>
      </trkpt>
      <trkpt lat="50.78688" lon="3.68977">
        <ele>86</ele>
        <time>2015-12-13T14:38:30Z</time>
      </trkpt>
      <trkpt lat="50.7869" lon="3.68976">
        <ele>87.4</ele>
        <time>2015-12-13T14:38:31Z</time>
      </trkpt>
      <trkpt lat="50.78693" lon="3.68973">
        <ele>88</ele>
        <time>2015-12-13T14:38:33Z</time>
      </trkpt>
      <trkpt lat="50.78695" lon="3.68969">
        <ele>88</ele>
        <time>2015-12-13T14:38:35Z</time>
      </trkpt>
      <trkpt lat="50.78696" lon="3.68966">
        <ele>88</ele>
        <time>2015-12-13T14:38:36Z</time>
      </trkpt>
      <trkpt lat="50.78699" lon="3.68963">
        <ele>88</ele>
        <time>2015-12-13T14:38:38Z</time>
      </trkpt>
      <trkpt lat="50.78701" lon="3.6896">
        <ele>88</ele>
        <time>2015-12-13T14:38:40Z</time>
      </trkpt>
      <trkpt lat="50.78704" lon="3.68957">
        <ele>88</ele>
        <time>2015-12-13T14:38:42Z</time>
      </trkpt>
      <trkpt lat="50.78706" lon="3.68953">
        <ele>88</ele>
        <time>2015-12-13T14:38:44Z</time>
      </trkpt>
      <trkpt lat="50.78709" lon="3.68949">
        <ele>88</ele>
        <time>2015-12-13T14:38:46Z</time>
      </trkpt>
      <trkpt lat="50.78711" lon="3.68946">
        <ele>88</ele>
        <time>2015-12-13T14:38:48Z</time>
      </trkpt>
      <trkpt lat="50.78713" lon="3.68942">
        <ele>88</ele>
        <time>2015-12-13T14:38:50Z</time>
      </trkpt>
      <trkpt lat="50.78716" lon="3.68939">
        <ele>88</ele>
        <time>2015-12-13T14:38:52Z</time>
      </trkpt>
      <trkpt lat="50.78718" lon="3.68936">
        <ele>88</ele>
        <time>2015-12-13T14:38:54Z</time>
      </trkpt>
      <trkpt lat="50.7872" lon="3.68933">
        <ele>88</ele>
        <time>2015-12-13T14:38:56Z</time>
      </trkpt>
      <trkpt lat="50.78723" lon="3.68929">
        <ele>88</ele>
        <time>2015-12-13T14:38:58Z</time>
      </trkpt>
      <trkpt lat="50.78724" lon="3.68925">
        <ele>88</ele>
        <time>2015-12-13T14:39:00Z</time>
      </trkpt>
      <trkpt lat="50.78726" lon="3.68922">
        <ele>88</ele>
        <time>2015-12-13T14:39:02Z</time>
      </trkpt>
      <trkpt lat="50.78729" lon="3.68919">
        <ele>88</ele>
        <time>2015-12-13T14:39:04Z</time>
      </trkpt>
      <trkpt lat="50.78731" lon="3.68915">
        <ele>88</ele>
        <time>2015-12-13T14:39:06Z</time>
      </trkpt>
      <trkpt lat="50.78733" lon="3.68912">
        <ele>88</ele>
        <time>2015-12-13T14:39:08Z</time>
      </trkpt>
      <trkpt lat="50.78735" lon="3.68908">
        <ele>88</ele>
        <time>2015-12-13T14:39:10Z</time>
      </trkpt>
      <trkpt lat="50.78737" lon="3.68905">
        <ele>88</ele>
        <time>2015-12-13T14:39:12Z</time>
      </trkpt>
      <trkpt lat="50.7874" lon="3.68902">
        <ele>88</ele>
        <time>2015-12-13T14:39:14Z</time>
      </trkpt>
      <trkpt lat="50.78742" lon="3.68898">
        <ele>88</ele>
        <time>2015-12-13T14:39:16Z</time>
      </trkpt>
      <trkpt lat="50.78745" lon="3.68895">
        <ele>88</ele>
        <time>2015-12-13T14:39:18Z</time>
      </trkpt>
      <trkpt lat="50.78747" lon="3.68891">
        <ele>88</ele>
        <time>2015-12-13T14:39:20Z</time>
      </trkpt>
      <trkpt lat="50.7875" lon="3.68888">
        <ele>88</ele>
        <time>2015-12-13T14:39:22Z</time>
      </trkpt>
      <trkpt lat="50.78752" lon="3.68885">
        <ele>88</ele>
        <time>2015-12-13T14:39:24Z</time>
      </trkpt>
      <trkpt lat="50.78754" lon="3.68881">
        <ele>88</ele>
        <time>2015-12-13T14:39:30Z</time>
      </trkpt>
      <trkpt lat="50.78757" lon="3.68877">
        <ele>88</ele>
        <time>2015-12-13T14:39:34Z</time>
      </trkpt>
      <trkpt lat="50.78758" lon="3.68874">
        <ele>88</ele>
        <time>2015-12-13T14:39:35Z</time>
      </trkpt>
      <trkpt lat="50.7876" lon="3.68871">
        <ele>88</ele>
        <time>2015-12-13T14:39:36Z</time>
      </trkpt>
      <trkpt lat="50.78762" lon="3.68868">
        <ele>88</ele>
        <time>2015-12-13T14:39:37Z</time>
      </trkpt>
      <trkpt lat="50.78763" lon="3.68864">
        <ele>87.3</ele>
        <time>2015-12-13T14:39:38Z</time>
      </trkpt>
      <trkpt lat="50.78765" lon="3.68861">
        <ele>87</ele>
        <time>2015-12-13T14:39:39Z</time>
      </trkpt>
      <trkpt lat="50.78766" lon="3.68858">
        <ele>87</ele>
        <time>2015-12-13T14:39:40Z</time>
      </trkpt>
      <trkpt lat="50.78768" lon="3.68855">
        <ele>87</ele>
        <time>2015-12-13T14:39:41Z</time>
      </trkpt>
      <trkpt lat="50.78769" lon="3.68853">
        <ele>87</ele>
        <time>2015-12-13T14:39:42Z</time>
      </trkpt>
      <trkpt lat="50.78771" lon="3.6885">
        <ele>87</ele>
        <time>2015-12-13T14:39:43Z</time>
      </trkpt>
      <trkpt lat="50.78773" lon="3.68847">
        <ele>87</ele>
        <time>2015-12-13T14:39:44Z</time>
      </trkpt>
      <trkpt lat="50.78774" lon="3.68844">
        <ele>87</ele>
        <time>2015-12-13T14:39:45Z</time>
      </trkpt>
      <trkpt lat="50.78775" lon="3.68841">
        <ele>87</ele>
        <time>2015-12-13T14:39:46Z</time>
      </trkpt>
      <trkpt lat="50.78777" lon="3.68839">
        <ele>87</ele>
        <time>2015-12-13T14:39:47Z</time>
      </trkpt>
      <trkpt lat="50.78778" lon="3.68836">
        <ele>87</ele>
        <time>2015-12-13T14:39:48Z</time>
      </trkpt>
      <trkpt lat="50.78779" lon="3.68833">
        <ele>87</ele>
        <time>2015-12-13T14:39:49Z</time>
      </trkpt>
      <trkpt lat="50.7878" lon="3.6883">
        <ele>87</ele>
        <time>2015-12-13T14:39:50Z</time>
      </trkpt>
      <trkpt lat="50.78781" lon="3.68827">
        <ele>87</ele>
        <time>2015-12-13T14:39:51Z</time>
      </trkpt>
      <trkpt lat="50.78783" lon="3.68825">
        <ele>87</ele>
        <time>2015-12-13T14:39:52Z</time>
      </trkpt>
      <trkpt lat="50.78784" lon="3.68822">
        <ele>87</ele>
        <time>2015-12-13T14:39:53Z</time>
      </trkpt>
      <trkpt lat="50.78785" lon="3.68819">
        <ele>87</ele>
        <time>2015-12-13T14:39:54Z</time>
      </trkpt>
      <trkpt lat="50.78786" lon="3.68817">
        <ele>87</ele>
        <time>2015-12-13T14:39:55Z</time>
      </trkpt>
      <trkpt lat="50.78788" lon="3.68814">
        <ele>87</ele>
        <time>2015-12-13T14:39:56Z</time>
      </trkpt>
      <trkpt lat="50.78789" lon="3.68811">
        <ele>87</ele>
        <time>2015-12-13T14:39:57Z</time>
      </trkpt>
      <trkpt lat="50.78791" lon="3.68809">
        <ele>87</ele>
        <time>2015-12-13T14:39:58Z</time>
      </trkpt>
      <trkpt lat="50.78792" lon="3.68806">
        <ele>87</ele>
        <time>2015-12-13T14:39:59Z</time>
      </trkpt>
      <trkpt lat="50.78794" lon="3.68804">
        <ele>87</ele>
        <time>2015-12-13T14:40:00Z</time>
      </trkpt>
      <trkpt lat="50.78796" lon="3.68802">
        <ele>87</ele>
        <time>2015-12-13T14:40:01Z</time>
      </trkpt>
      <trkpt lat="50.78797" lon="3.688">
        <ele>87</ele>
        <time>2015-12-13T14:40:02Z</time>
      </trkpt>
      <trkpt lat="50.78799" lon="3.68798">
        <ele>87</ele>
        <time>2015-12-13T14:40:03Z</time>
      </trkpt>
      <trkpt lat="50.78801" lon="3.68794">
        <ele>87</ele>
        <time>2015-12-13T14:40:05Z</time>
      </trkpt>
      <trkpt lat="50.78803" lon="3.6879">
        <ele>87</ele>
        <time>2015-12-13T14:40:07Z</time>
      </trkpt>
      <trkpt lat="50.78805" lon="3.68787">
        <ele>87</ele>
        <time>2015-12-13T14:40:09Z</time>
      </trkpt>
      <trkpt lat="50.78807" lon="3.68784">
        <ele>88.4</ele>
        <time>2015-12-13T14:40:11Z</time>
      </trkpt>
      <trkpt lat="50.78809" lon="3.68781">
        <ele>89</ele>
        <time>2015-12-13T14:40:13Z</time>
      </trkpt>
      <trkpt lat="50.78811" lon="3.68777">
        <ele>89</ele>
        <time>2015-12-13T14:40:15Z</time>
      </trkpt>
      <trkpt lat="50.78813" lon="3.68773">
        <ele>89</ele>
        <time>2015-12-13T14:40:17Z</time>
      </trkpt>
      <trkpt lat="50.78815" lon="3.68769">
        <ele>89</ele>
        <time>2015-12-13T14:40:19Z</time>
      </trkpt>
      <trkpt lat="50.78818" lon="3.68766">
        <ele>88.3</ele>
        <time>2015-12-13T14:40:21Z</time>
      </trkpt>
      <trkpt lat="50.7882" lon="3.68763">
        <ele>88</ele>
        <time>2015-12-13T14:40:23Z</time>
      </trkpt>
      <trkpt lat="50.78822" lon="3.68761">
        <ele>88</ele>
        <time>2015-12-13T14:40:25Z</time>
      </trkpt>
      <trkpt lat="50.78825" lon="3.68759">
        <ele>88</ele>
        <time>2015-12-13T14:40:27Z</time>
      </trkpt>
      <trkpt lat="50.78827" lon="3.68756">
        <ele>88</ele>
        <time>2015-12-13T14:40:29Z</time>
      </trkpt>
      <trkpt lat="50.78831" lon="3.68754">
        <ele>87.3</ele>
        <time>2015-12-13T14:40:31Z</time>
      </trkpt>
      <trkpt lat="50.78834" lon="3.68753">
        <ele>87</ele>
        <time>2015-12-13T14:40:33Z</time>
      </trkpt>
      <trkpt lat="50.78837" lon="3.68751">
        <ele>87</ele>
        <time>2015-12-13T14:40:35Z</time>
      </trkpt>
      <trkpt lat="50.78839" lon="3.6875">
        <ele>87</ele>
        <time>2015-12-13T14:40:37Z</time>
      </trkpt>
      <trkpt lat="50.78842" lon="3.68748">
        <ele>87</ele>
        <time>2015-12-13T14:40:39Z</time>
      </trkpt>
      <trkpt lat="50.78845" lon="3.68746">
        <ele>87</ele>
        <time>2015-12-13T14:40:41Z</time>
      </trkpt>
      <trkpt lat="50.78847" lon="3.68744">
        <ele>87</ele>
        <time>2015-12-13T14:40:43Z</time>
      </trkpt>
      <trkpt lat="50.7885" lon="3.68743">
        <ele>87</ele>
        <time>2015-12-13T14:40:45Z</time>
      </trkpt>
      <trkpt lat="50.78853" lon="3.68743">
        <ele>87</ele>
        <time>2015-12-13T14:40:47Z</time>
      </trkpt>
      <trkpt lat="50.78855" lon="3.68744">
        <ele>86.3</ele>
        <time>2015-12-13T14:40:49Z</time>
      </trkpt>
      <trkpt lat="50.78856" lon="3.68747">
        <ele>86</ele>
        <time>2015-12-13T14:40:51Z</time>
      </trkpt>
      <trkpt lat="50.78857" lon="3.6875">
        <ele>86</ele>
        <time>2015-12-13T14:40:53Z</time>
      </trkpt>
      <trkpt lat="50.78858" lon="3.68753">
        <ele>86</ele>
        <time>2015-12-13T14:40:56Z</time>
      </trkpt>
      <trkpt lat="50.7886" lon="3.68757">
        <ele>85</ele>
        <time>2015-12-13T14:40:59Z</time>
      </trkpt>
      <trkpt lat="50.7886" lon="3.6876">
        <ele>86.4</ele>
        <time>2015-12-13T14:41:01Z</time>
      </trkpt>
      <trkpt lat="50.78862" lon="3.68763">
        <ele>87</ele>
        <time>2015-12-13T14:41:03Z</time>
      </trkpt>
      <trkpt lat="50.78864" lon="3.68767">
        <ele>87</ele>
        <time>2015-12-13T14:41:05Z</time>
      </trkpt>
      <trkpt lat="50.78866" lon="3.6877">
        <ele>87</ele>
        <time>2015-12-13T14:41:07Z</time>
      </trkpt>
      <trkpt lat="50.78867" lon="3.68773">
        <ele>87</ele>
        <time>2015-12-13T14:41:09Z</time>
      </trkpt>
      <trkpt lat="50.78868" lon="3.68777">
        <ele>89</ele>
        <time>2015-12-13T14:41:12Z</time>
      </trkpt>
      <trkpt lat="50.7887" lon="3.68779">
        <ele>89</ele>
        <time>2015-12-13T14:41:14Z</time>
      </trkpt>
      <trkpt lat="50.78871" lon="3.68782">
        <ele>89</ele>
        <time>2015-12-13T14:41:16Z</time>
      </trkpt>
      <trkpt lat="50.78873" lon="3.68785">
        <ele>89</ele>
        <time>2015-12-13T14:41:18Z</time>
      </trkpt>
      <trkpt lat="50.78874" lon="3.68788">
        <ele>89</ele>
        <time>2015-12-13T14:41:20Z</time>
      </trkpt>
      <trkpt lat="50.78876" lon="3.6879">
        <ele>90</ele>
        <time>2015-12-13T14:41:22Z</time>
      </trkpt>
      <trkpt lat="50.78878" lon="3.68791">
        <ele>90</ele>
        <time>2015-12-13T14:41:23Z</time>
      </trkpt>
      <trkpt lat="50.7888" lon="3.68792">
        <ele>90</ele>
        <time>2015-12-13T14:41:24Z</time>
      </trkpt>
      <trkpt lat="50.78882" lon="3.68796">
        <ele>90</ele>
        <time>2015-12-13T14:41:26Z</time>
      </trkpt>
      <trkpt lat="50.78883" lon="3.688">
        <ele>90</ele>
        <time>2015-12-13T14:41:28Z</time>
      </trkpt>
      <trkpt lat="50.78884" lon="3.68803">
        <ele>90</ele>
        <time>2015-12-13T14:41:30Z</time>
      </trkpt>
      <trkpt lat="50.78885" lon="3.68806">
        <ele>90</ele>
        <time>2015-12-13T14:41:32Z</time>
      </trkpt>
      <trkpt lat="50.78887" lon="3.68809">
        <ele>90</ele>
        <time>2015-12-13T14:41:34Z</time>
      </trkpt>
      <trkpt lat="50.78889" lon="3.68812">
        <ele>90</ele>
        <time>2015-12-13T14:41:36Z</time>
      </trkpt>
      <trkpt lat="50.7889" lon="3.68815">
        <ele>90</ele>
        <time>2015-12-13T14:41:38Z</time>
      </trkpt>
      <trkpt lat="50.78892" lon="3.68818">
        <ele>90</ele>
        <time>2015-12-13T14:41:40Z</time>
      </trkpt>
      <trkpt lat="50.78894" lon="3.68821">
        <ele>92</ele>
        <time>2015-12-13T14:41:42Z</time>
      </trkpt>
      <trkpt lat="50.78895" lon="3.68824">
        <ele>92</ele>
        <time>2015-12-13T14:41:44Z</time>
      </trkpt>
      <trkpt lat="50.78896" lon="3.68828">
        <ele>91.3</ele>
        <time>2015-12-13T14:41:46Z</time>
      </trkpt>
      <trkpt lat="50.78897" lon="3.68831">
        <ele>91</ele>
        <time>2015-12-13T14:41:48Z</time>
      </trkpt>
      <trkpt lat="50.78899" lon="3.68834">
        <ele>91</ele>
        <time>2015-12-13T14:41:50Z</time>
      </trkpt>
      <trkpt lat="50.789" lon="3.68838">
        <ele>91</ele>
        <time>2015-12-13T14:41:52Z</time>
      </trkpt>
      <trkpt lat="50.78902" lon="3.68841">
        <ele>91</ele>
        <time>2015-12-13T14:41:54Z</time>
      </trkpt>
      <trkpt lat="50.78903" lon="3.68845">
        <ele>91</ele>
        <time>2015-12-13T14:41:56Z</time>
      </trkpt>
      <trkpt lat="50.78905" lon="3.68848">
        <ele>91</ele>
        <time>2015-12-13T14:41:58Z</time>
      </trkpt>
      <trkpt lat="50.78906" lon="3.68852">
        <ele>91</ele>
        <time>2015-12-13T14:42:00Z</time>
      </trkpt>
      <trkpt lat="50.78906" lon="3.68856">
        <ele>92</ele>
        <time>2015-12-13T14:42:02Z</time>
      </trkpt>
      <trkpt lat="50.78904" lon="3.68858">
        <ele>92</ele>
        <time>2015-12-13T14:42:04Z</time>
      </trkpt>
      <trkpt lat="50.78902" lon="3.6886">
        <ele>92</ele>
        <time>2015-12-13T14:42:06Z</time>
      </trkpt>
      <trkpt lat="50.78901" lon="3.68863">
        <ele>92</ele>
        <time>2015-12-13T14:42:08Z</time>
      </trkpt>
      <trkpt lat="50.78899" lon="3.68865">
        <ele>92</ele>
        <time>2015-12-13T14:42:10Z</time>
      </trkpt>
      <trkpt lat="50.78897" lon="3.68868">
        <ele>93</ele>
        <time>2015-12-13T14:42:12Z</time>
      </trkpt>
      <trkpt lat="50.78895" lon="3.68871">
        <ele>93</ele>
        <time>2015-12-13T14:42:14Z</time>
      </trkpt>
      <trkpt lat="50.78894" lon="3.68874">
        <ele>93</ele>
        <time>2015-12-13T14:42:16Z</time>
      </trkpt>
      <trkpt lat="50.78892" lon="3.68876">
        <ele>93</ele>
        <time>2015-12-13T14:42:18Z</time>
      </trkpt>
      <trkpt lat="50.7889" lon="3.68879">
        <ele>93</ele>
        <time>2015-12-13T14:42:20Z</time>
      </trkpt>
      <trkpt lat="50.78888" lon="3.68882">
        <ele>93</ele>
        <time>2015-12-13T14:42:22Z</time>
      </trkpt>
      <trkpt lat="50.78887" lon="3.68885">
        <ele>93</ele>
        <time>2015-12-13T14:42:24Z</time>
      </trkpt>
      <trkpt lat="50.78886" lon="3.68887">
        <ele>93</ele>
        <time>2015-12-13T14:42:26Z</time>
      </trkpt>
      <trkpt lat="50.78884" lon="3.6889">
        <ele>93</ele>
        <time>2015-12-13T14:42:28Z</time>
      </trkpt>
      <trkpt lat="50.78882" lon="3.68893">
        <ele>93</ele>
        <time>2015-12-13T14:42:30Z</time>
      </trkpt>
      <trkpt lat="50.78881" lon="3.68896">
        <ele>93</ele>
        <time>2015-12-13T14:42:32Z</time>
      </trkpt>
      <trkpt lat="50.7888" lon="3.68899">
        <ele>93</ele>
        <time>2015-12-13T14:42:34Z</time>
      </trkpt>
      <trkpt lat="50.78878" lon="3.68902">
        <ele>93</ele>
        <time>2015-12-13T14:42:36Z</time>
      </trkpt>
      <trkpt lat="50.78876" lon="3.68904">
        <ele>93</ele>
        <time>2015-12-13T14:42:38Z</time>
      </trkpt>
      <trkpt lat="50.78873" lon="3.68907">
        <ele>93</ele>
        <time>2015-12-13T14:42:40Z</time>
      </trkpt>
      <trkpt lat="50.78871" lon="3.6891">
        <ele>94</ele>
        <time>2015-12-13T14:42:42Z</time>
      </trkpt>
      <trkpt lat="50.78869" lon="3.68913">
        <ele>94</ele>
        <time>2015-12-13T14:42:44Z</time>
      </trkpt>
      <trkpt lat="50.78866" lon="3.68917">
        <ele>94</ele>
        <time>2015-12-13T14:42:46Z</time>
      </trkpt>
      <trkpt lat="50.78864" lon="3.6892">
        <ele>94</ele>
        <time>2015-12-13T14:42:48Z</time>
      </trkpt>
      <trkpt lat="50.78861" lon="3.68923">
        <ele>94</ele>
        <time>2015-12-13T14:42:50Z</time>
      </trkpt>
      <trkpt lat="50.7886" lon="3.68925">
        <ele>94</ele>
        <time>2015-12-13T14:42:51Z</time>
      </trkpt>
      <trkpt lat="50.78858" lon="3.68927">
        <ele>94</ele>
        <time>2015-12-13T14:42:52Z</time>
      </trkpt>
      <trkpt lat="50.78857" lon="3.68929">
        <ele>94</ele>
        <time>2015-12-13T14:42:53Z</time>
      </trkpt>
      <trkpt lat="50.78854" lon="3.68931">
        <ele>94</ele>
        <time>2015-12-13T14:42:55Z</time>
      </trkpt>
      <trkpt lat="50.78851" lon="3.68934">
        <ele>94</ele>
        <time>2015-12-13T14:42:57Z</time>
      </trkpt>
      <trkpt lat="50.7885" lon="3.68937">
        <ele>94</ele>
        <time>2015-12-13T14:42:59Z</time>
      </trkpt>
      <trkpt lat="50.78848" lon="3.6894">
        <ele>94</ele>
        <time>2015-12-13T14:43:01Z</time>
      </trkpt>
      <trkpt lat="50.78848" lon="3.68945">
        <ele>94</ele>
        <time>2015-12-13T14:43:03Z</time>
      </trkpt>
      <trkpt lat="50.78849" lon="3.68949">
        <ele>94</ele>
        <time>2015-12-13T14:43:05Z</time>
      </trkpt>
      <trkpt lat="50.7885" lon="3.68953">
        <ele>94</ele>
        <time>2015-12-13T14:43:07Z</time>
      </trkpt>
      <trkpt lat="50.78851" lon="3.68958">
        <ele>94</ele>
        <time>2015-12-13T14:43:09Z</time>
      </trkpt>
      <trkpt lat="50.78852" lon="3.68962">
        <ele>94</ele>
        <time>2015-12-13T14:43:11Z</time>
      </trkpt>
      <trkpt lat="50.78853" lon="3.68966">
        <ele>94</ele>
        <time>2015-12-13T14:43:13Z</time>
      </trkpt>
      <trkpt lat="50.78855" lon="3.6897">
        <ele>94</ele>
        <time>2015-12-13T14:43:15Z</time>
      </trkpt>
      <trkpt lat="50.78857" lon="3.68974">
        <ele>94</ele>
        <time>2015-12-13T14:43:17Z</time>
      </trkpt>
      <trkpt lat="50.78858" lon="3.68978">
        <ele>94</ele>
        <time>2015-12-13T14:43:19Z</time>
      </trkpt>
      <trkpt lat="50.7886" lon="3.68981">
        <ele>94.7</ele>
        <time>2015-12-13T14:43:21Z</time>
      </trkpt>
      <trkpt lat="50.78861" lon="3.68985">
        <ele>95</ele>
        <time>2015-12-13T14:43:23Z</time>
      </trkpt>
      <trkpt lat="50.78863" lon="3.68988">
        <ele>95</ele>
        <time>2015-12-13T14:43:25Z</time>
      </trkpt>
      <trkpt lat="50.78865" lon="3.68992">
        <ele>95</ele>
        <time>2015-12-13T14:43:27Z</time>
      </trkpt>
      <trkpt lat="50.78867" lon="3.68995">
        <ele>95</ele>
        <time>2015-12-13T14:43:29Z</time>
      </trkpt>
      <trkpt lat="50.78869" lon="3.68999">
        <ele>95</ele>
        <time>2015-12-13T14:43:31Z</time>
      </trkpt>
      <trkpt lat="50.78871" lon="3.69003">
        <ele>95</ele>
        <time>2015-12-13T14:43:33Z</time>
      </trkpt>
      <trkpt lat="50.78872" lon="3.69007">
        <ele>95</ele>
        <time>2015-12-13T14:43:35Z</time>
      </trkpt>
      <trkpt lat="50.78874" lon="3.6901">
        <ele>95</ele>
        <time>2015-12-13T14:43:37Z</time>
      </trkpt>
      <trkpt lat="50.78876" lon="3.69012">
        <ele>95</ele>
        <time>2015-12-13T14:43:38Z</time>
      </trkpt>
      <trkpt lat="50.78878" lon="3.69016">
        <ele>95</ele>
        <time>2015-12-13T14:43:40Z</time>
      </trkpt>
      <trkpt lat="50.7888" lon="3.69019">
        <ele>95</ele>
        <time>2015-12-13T14:43:42Z</time>
      </trkpt>
      <trkpt lat="50.78882" lon="3.69022">
        <ele>95</ele>
        <time>2015-12-13T14:43:44Z</time>
      </trkpt>
      <trkpt lat="50.78884" lon="3.69026">
        <ele>95</ele>
        <time>2015-12-13T14:43:46Z</time>
      </trkpt>
      <trkpt lat="50.78886" lon="3.6903">
        <ele>95</ele>
        <time>2015-12-13T14:43:48Z</time>
      </trkpt>
      <trkpt lat="50.78888" lon="3.69033">
        <ele>95</ele>
        <time>2015-12-13T14:43:50Z</time>
      </trkpt>
      <trkpt lat="50.7889" lon="3.69036">
        <ele>95</ele>
        <time>2015-12-13T14:43:52Z</time>
      </trkpt>
      <trkpt lat="50.78892" lon="3.69039">
        <ele>95</ele>
        <time>2015-12-13T14:43:54Z</time>
      </trkpt>
      <trkpt lat="50.78894" lon="3.69043">
        <ele>95</ele>
        <time>2015-12-13T14:43:56Z</time>
      </trkpt>
      <trkpt lat="50.78896" lon="3.69046">
        <ele>95</ele>
        <time>2015-12-13T14:43:58Z</time>
      </trkpt>
      <trkpt lat="50.78898" lon="3.69049">
        <ele>95</ele>
        <time>2015-12-13T14:44:00Z</time>
      </trkpt>
      <trkpt lat="50.789" lon="3.69053">
        <ele>96</ele>
        <time>2015-12-13T14:44:02Z</time>
      </trkpt>
      <trkpt lat="50.78902" lon="3.69055">
        <ele>96</ele>
        <time>2015-12-13T14:44:04Z</time>
      </trkpt>
      <trkpt lat="50.78904" lon="3.69059">
        <ele>96</ele>
        <time>2015-12-13T14:44:06Z</time>
      </trkpt>
      <trkpt lat="50.78905" lon="3.69062">
        <ele>96</ele>
        <time>2015-12-13T14:44:08Z</time>
      </trkpt>
      <trkpt lat="50.78907" lon="3.69065">
        <ele>96</ele>
        <time>2015-12-13T14:44:10Z</time>
      </trkpt>
      <trkpt lat="50.78909" lon="3.69068">
        <ele>96</ele>
        <time>2015-12-13T14:44:12Z</time>
      </trkpt>
      <trkpt lat="50.78911" lon="3.69072">
        <ele>96</ele>
        <time>2015-12-13T14:44:14Z</time>
      </trkpt>
      <trkpt lat="50.78914" lon="3.69076">
        <ele>96</ele>
        <time>2015-12-13T14:44:16Z</time>
      </trkpt>
      <trkpt lat="50.78915" lon="3.69079">
        <ele>96</ele>
        <time>2015-12-13T14:44:17Z</time>
      </trkpt>
      <trkpt lat="50.78917" lon="3.69082">
        <ele>96</ele>
        <time>2015-12-13T14:44:18Z</time>
      </trkpt>
      <trkpt lat="50.78918" lon="3.69085">
        <ele>96</ele>
        <time>2015-12-13T14:44:19Z</time>
      </trkpt>
      <trkpt lat="50.7892" lon="3.69088">
        <ele>96</ele>
        <time>2015-12-13T14:44:20Z</time>
      </trkpt>
      <trkpt lat="50.78922" lon="3.6909">
        <ele>96</ele>
        <time>2015-12-13T14:44:21Z</time>
      </trkpt>
      <trkpt lat="50.78923" lon="3.69093">
        <ele>96</ele>
        <time>2015-12-13T14:44:22Z</time>
      </trkpt>
      <trkpt lat="50.78925" lon="3.69096">
        <ele>96</ele>
        <time>2015-12-13T14:44:23Z</time>
      </trkpt>
      <trkpt lat="50.78926" lon="3.69098">
        <ele>96</ele>
        <time>2015-12-13T14:44:24Z</time>
      </trkpt>
      <trkpt lat="50.78928" lon="3.69101">
        <ele>96</ele>
        <time>2015-12-13T14:44:25Z</time>
      </trkpt>
      <trkpt lat="50.78929" lon="3.69104">
        <ele>96</ele>
        <time>2015-12-13T14:44:26Z</time>
      </trkpt>
      <trkpt lat="50.78931" lon="3.69107">
        <ele>96</ele>
        <time>2015-12-13T14:44:27Z</time>
      </trkpt>
      <trkpt lat="50.78932" lon="3.69109">
        <ele>96</ele>
        <time>2015-12-13T14:44:28Z</time>
      </trkpt>
      <trkpt lat="50.78933" lon="3.69112">
        <ele>96</ele>
        <time>2015-12-13T14:44:29Z</time>
      </trkpt>
      <trkpt lat="50.78935" lon="3.69115">
        <ele>96</ele>
        <time>2015-12-13T14:44:30Z</time>
      </trkpt>
      <trkpt lat="50.78936" lon="3.69118">
        <ele>96.7</ele>
        <time>2015-12-13T14:44:31Z</time>
      </trkpt>
      <trkpt lat="50.78937" lon="3.69121">
        <ele>97</ele>
        <time>2015-12-13T14:44:32Z</time>
      </trkpt>
      <trkpt lat="50.78939" lon="3.69124">
        <ele>97</ele>
        <time>2015-12-13T14:44:33Z</time>
      </trkpt>
      <trkpt lat="50.7894" lon="3.69127">
        <ele>97</ele>
        <time>2015-12-13T14:44:34Z</time>
      </trkpt>
      <trkpt lat="50.78941" lon="3.69131">
        <ele>97</ele>
        <time>2015-12-13T14:44:35Z</time>
      </trkpt>
      <trkpt lat="50.78943" lon="3.69134">
        <ele>97</ele>
        <time>2015-12-13T14:44:36Z</time>
      </trkpt>
      <trkpt lat="50.78944" lon="3.69136">
        <ele>97</ele>
        <time>2015-12-13T14:44:37Z</time>
      </trkpt>
      <trkpt lat="50.78945" lon="3.6914">
        <ele>97</ele>
        <time>2015-12-13T14:44:38Z</time>
      </trkpt>
      <trkpt lat="50.78947" lon="3.69143">
        <ele>97</ele>
        <time>2015-12-13T14:44:39Z</time>
      </trkpt>
      <trkpt lat="50.78948" lon="3.69146">
        <ele>96.5</ele>
        <time>2015-12-13T14:44:40Z</time>
      </trkpt>
      <trkpt lat="50.78949" lon="3.69149">
        <ele>96</ele>
        <time>2015-12-13T14:44:41Z</time>
      </trkpt>
      <trkpt lat="50.7895" lon="3.69152">
        <ele>96</ele>
        <time>2015-12-13T14:44:42Z</time>
      </trkpt>
      <trkpt lat="50.78951" lon="3.69155">
        <ele>96</ele>
        <time>2015-12-13T14:44:43Z</time>
      </trkpt>
      <trkpt lat="50.78952" lon="3.69158">
        <ele>96</ele>
        <time>2015-12-13T14:44:44Z</time>
      </trkpt>
      <trkpt lat="50.78953" lon="3.69162">
        <ele>96</ele>
        <time>2015-12-13T14:44:45Z</time>
      </trkpt>
      <trkpt lat="50.78954" lon="3.69165">
        <ele>96</ele>
        <time>2015-12-13T14:44:46Z</time>
      </trkpt>
      <trkpt lat="50.78956" lon="3.69168">
        <ele>96</ele>
        <time>2015-12-13T14:44:47Z</time>
      </trkpt>
      <trkpt lat="50.78957" lon="3.69171">
        <ele>96</ele>
        <time>2015-12-13T14:44:48Z</time>
      </trkpt>
      <trkpt lat="50.78958" lon="3.69175">
        <ele>96</ele>
        <time>2015-12-13T14:44:49Z</time>
      </trkpt>
      <trkpt lat="50.7896" lon="3.69178">
        <ele>96</ele>
        <time>2015-12-13T14:44:50Z</time>
      </trkpt>
      <trkpt lat="50.78961" lon="3.69181">
        <ele>96.7</ele>
        <time>2015-12-13T14:44:51Z</time>
      </trkpt>
      <trkpt lat="50.78963" lon="3.69185">
        <ele>97</ele>
        <time>2015-12-13T14:44:52Z</time>
      </trkpt>
      <trkpt lat="50.78965" lon="3.69188">
        <ele>97</ele>
        <time>2015-12-13T14:44:53Z</time>
      </trkpt>
      <trkpt lat="50.78966" lon="3.69191">
        <ele>97</ele>
        <time>2015-12-13T14:44:54Z</time>
      </trkpt>
      <trkpt lat="50.78968" lon="3.69195">
        <ele>97</ele>
        <time>2015-12-13T14:44:55Z</time>
      </trkpt>
      <trkpt lat="50.78969" lon="3.69198">
        <ele>97</ele>
        <time>2015-12-13T14:44:56Z</time>
      </trkpt>
      <trkpt lat="50.7897" lon="3.69201">
        <ele>97</ele>
        <time>2015-12-13T14:44:57Z</time>
      </trkpt>
      <trkpt lat="50.78971" lon="3.69205">
        <ele>97</ele>
        <time>2015-12-13T14:44:58Z</time>
      </trkpt>
      <trkpt lat="50.78971" lon="3.69208">
        <ele>97</ele>
        <time>2015-12-13T14:44:59Z</time>
      </trkpt>
      <trkpt lat="50.78972" lon="3.69211">
        <ele>97</ele>
        <time>2015-12-13T14:45:00Z</time>
      </trkpt>
      <trkpt lat="50.78973" lon="3.69214">
        <ele>97</ele>
        <time>2015-12-13T14:45:01Z</time>
      </trkpt>
      <trkpt lat="50.78974" lon="3.69218">
        <ele>97.7</ele>
        <time>2015-12-13T14:45:02Z</time>
      </trkpt>
      <trkpt lat="50.78974" lon="3.69221">
        <ele>98</ele>
        <time>2015-12-13T14:45:03Z</time>
      </trkpt>
      <trkpt lat="50.78975" lon="3.69224">
        <ele>98</ele>
        <time>2015-12-13T14:45:04Z</time>
      </trkpt>
      <trkpt lat="50.78976" lon="3.69228">
        <ele>98</ele>
        <time>2015-12-13T14:45:05Z</time>
      </trkpt>
      <trkpt lat="50.78977" lon="3.69231">
        <ele>98</ele>
        <time>2015-12-13T14:45:06Z</time>
      </trkpt>
      <trkpt lat="50.78977" lon="3.69234">
        <ele>98</ele>
        <time>2015-12-13T14:45:07Z</time>
      </trkpt>
      <trkpt lat="50.78977" lon="3.69237">
        <ele>98</ele>
        <time>2015-12-13T14:45:08Z</time>
      </trkpt>
      <trkpt lat="50.78977" lon="3.6924">
        <ele>98</ele>
        <time>2015-12-13T14:45:09Z</time>
      </trkpt>
      <trkpt lat="50.78976" lon="3.69244">
        <ele>98</ele>
        <time>2015-12-13T14:45:10Z</time>
      </trkpt>
      <trkpt lat="50.78974" lon="3.69247">
        <ele>98</ele>
        <time>2015-12-13T14:45:11Z</time>
      </trkpt>
      <trkpt lat="50.78973" lon="3.6925">
        <ele>98</ele>
        <time>2015-12-13T14:45:12Z</time>
      </trkpt>
      <trkpt lat="50.78972" lon="3.69253">
        <ele>98</ele>
        <time>2015-12-13T14:45:13Z</time>
      </trkpt>
      <trkpt lat="50.78971" lon="3.69256">
        <ele>98</ele>
        <time>2015-12-13T14:45:14Z</time>
      </trkpt>
      <trkpt lat="50.78968" lon="3.6926">
        <ele>98</ele>
        <time>2015-12-13T14:45:16Z</time>
      </trkpt>
      <trkpt lat="50.78967" lon="3.69262">
        <ele>98</ele>
        <time>2015-12-13T14:45:17Z</time>
      </trkpt>
      <trkpt lat="50.78965" lon="3.69264">
        <ele>98</ele>
        <time>2015-12-13T14:45:18Z</time>
      </trkpt>
      <trkpt lat="50.78964" lon="3.69266">
        <ele>98</ele>
        <time>2015-12-13T14:45:19Z</time>
      </trkpt>
      <trkpt lat="50.78963" lon="3.69268">
        <ele>98</ele>
        <time>2015-12-13T14:45:20Z</time>
      </trkpt>
      <trkpt lat="50.7896" lon="3.69273">
        <ele>98</ele>
        <time>2015-12-13T14:45:22Z</time>
      </trkpt>
      <trkpt lat="50.78959" lon="3.69276">
        <ele>98</ele>
        <time>2015-12-13T14:45:23Z</time>
      </trkpt>
      <trkpt lat="50.78957" lon="3.69278">
        <ele>98</ele>
        <time>2015-12-13T14:45:24Z</time>
      </trkpt>
      <trkpt lat="50.78955" lon="3.69281">
        <ele>98</ele>
        <time>2015-12-13T14:45:25Z</time>
      </trkpt>
      <trkpt lat="50.78954" lon="3.69284">
        <ele>98</ele>
        <time>2015-12-13T14:45:26Z</time>
      </trkpt>
      <trkpt lat="50.78951" lon="3.69286">
        <ele>98</ele>
        <time>2015-12-13T14:45:27Z</time>
      </trkpt>
      <trkpt lat="50.78949" lon="3.69288">
        <ele>98</ele>
        <time>2015-12-13T14:45:28Z</time>
      </trkpt>
      <trkpt lat="50.78947" lon="3.6929">
        <ele>98</ele>
        <time>2015-12-13T14:45:29Z</time>
      </trkpt>
      <trkpt lat="50.78946" lon="3.69293">
        <ele>98</ele>
        <time>2015-12-13T14:45:30Z</time>
      </trkpt>
      <trkpt lat="50.78944" lon="3.69296">
        <ele>98</ele>
        <time>2015-12-13T14:45:31Z</time>
      </trkpt>
      <trkpt lat="50.78942" lon="3.69299">
        <ele>98</ele>
        <time>2015-12-13T14:45:32Z</time>
      </trkpt>
      <trkpt lat="50.7894" lon="3.69301">
        <ele>98</ele>
        <time>2015-12-13T14:45:33Z</time>
      </trkpt>
      <trkpt lat="50.78939" lon="3.69303">
        <ele>98</ele>
        <time>2015-12-13T14:45:34Z</time>
      </trkpt>
      <trkpt lat="50.78936" lon="3.69305">
        <ele>98</ele>
        <time>2015-12-13T14:45:35Z</time>
      </trkpt>
      <trkpt lat="50.78934" lon="3.69307">
        <ele>98</ele>
        <time>2015-12-13T14:45:36Z</time>
      </trkpt>
      <trkpt lat="50.78932" lon="3.6931">
        <ele>98</ele>
        <time>2015-12-13T14:45:37Z</time>
      </trkpt>
      <trkpt lat="50.7893" lon="3.69313">
        <ele>98</ele>
        <time>2015-12-13T14:45:38Z</time>
      </trkpt>
      <trkpt lat="50.78928" lon="3.69316">
        <ele>98</ele>
        <time>2015-12-13T14:45:39Z</time>
      </trkpt>
      <trkpt lat="50.78926" lon="3.69318">
        <ele>98</ele>
        <time>2015-12-13T14:45:40Z</time>
      </trkpt>
      <trkpt lat="50.78924" lon="3.69321">
        <ele>98</ele>
        <time>2015-12-13T14:45:41Z</time>
      </trkpt>
      <trkpt lat="50.78922" lon="3.69323">
        <ele>98</ele>
        <time>2015-12-13T14:45:42Z</time>
      </trkpt>
      <trkpt lat="50.78921" lon="3.69326">
        <ele>98</ele>
        <time>2015-12-13T14:45:43Z</time>
      </trkpt>
      <trkpt lat="50.78919" lon="3.69329">
        <ele>98</ele>
        <time>2015-12-13T14:45:44Z</time>
      </trkpt>
      <trkpt lat="50.78917" lon="3.69332">
        <ele>98</ele>
        <time>2015-12-13T14:45:45Z</time>
      </trkpt>
      <trkpt lat="50.78915" lon="3.69335">
        <ele>98</ele>
        <time>2015-12-13T14:45:46Z</time>
      </trkpt>
      <trkpt lat="50.78913" lon="3.69338">
        <ele>98</ele>
        <time>2015-12-13T14:45:47Z</time>
      </trkpt>
      <trkpt lat="50.78911" lon="3.6934">
        <ele>98</ele>
        <time>2015-12-13T14:45:48Z</time>
      </trkpt>
      <trkpt lat="50.78909" lon="3.69343">
        <ele>98</ele>
        <time>2015-12-13T14:45:49Z</time>
      </trkpt>
      <trkpt lat="50.78907" lon="3.69345">
        <ele>98</ele>
        <time>2015-12-13T14:45:50Z</time>
      </trkpt>
      <trkpt lat="50.78905" lon="3.69348">
        <ele>98</ele>
        <time>2015-12-13T14:45:51Z</time>
      </trkpt>
      <trkpt lat="50.78903" lon="3.6935">
        <ele>97.3</ele>
        <time>2015-12-13T14:45:52Z</time>
      </trkpt>
      <trkpt lat="50.78901" lon="3.69353">
        <ele>97</ele>
        <time>2015-12-13T14:45:53Z</time>
      </trkpt>
      <trkpt lat="50.78899" lon="3.69356">
        <ele>97</ele>
        <time>2015-12-13T14:45:54Z</time>
      </trkpt>
      <trkpt lat="50.78897" lon="3.69359">
        <ele>97</ele>
        <time>2015-12-13T14:45:55Z</time>
      </trkpt>
      <trkpt lat="50.78895" lon="3.69361">
        <ele>97</ele>
        <time>2015-12-13T14:45:56Z</time>
      </trkpt>
      <trkpt lat="50.78893" lon="3.69364">
        <ele>97</ele>
        <time>2015-12-13T14:45:57Z</time>
      </trkpt>
      <trkpt lat="50.78891" lon="3.69366">
        <ele>97</ele>
        <time>2015-12-13T14:45:58Z</time>
      </trkpt>
      <trkpt lat="50.78889" lon="3.69369">
        <ele>97</ele>
        <time>2015-12-13T14:45:59Z</time>
      </trkpt>
      <trkpt lat="50.78887" lon="3.69371">
        <ele>97</ele>
        <time>2015-12-13T14:46:00Z</time>
      </trkpt>
      <trkpt lat="50.78885" lon="3.69373">
        <ele>97</ele>
        <time>2015-12-13T14:46:01Z</time>
      </trkpt>
      <trkpt lat="50.78883" lon="3.69376">
        <ele>97</ele>
        <time>2015-12-13T14:46:02Z</time>
      </trkpt>
      <trkpt lat="50.78882" lon="3.69378">
        <ele>97</ele>
        <time>2015-12-13T14:46:03Z</time>
      </trkpt>
      <trkpt lat="50.7888" lon="3.69381">
        <ele>97</ele>
        <time>2015-12-13T14:46:04Z</time>
      </trkpt>
      <trkpt lat="50.78878" lon="3.69383">
        <ele>97</ele>
        <time>2015-12-13T14:46:05Z</time>
      </trkpt>
      <trkpt lat="50.78876" lon="3.69385">
        <ele>97</ele>
        <time>2015-12-13T14:46:06Z</time>
      </trkpt>
      <trkpt lat="50.78874" lon="3.69388">
        <ele>97</ele>
        <time>2015-12-13T14:46:07Z</time>
      </trkpt>
      <trkpt lat="50.78872" lon="3.69391">
        <ele>97</ele>
        <time>2015-12-13T14:46:08Z</time>
      </trkpt>
      <trkpt lat="50.7887" lon="3.69393">
        <ele>97</ele>
        <time>2015-12-13T14:46:09Z</time>
      </trkpt>
      <trkpt lat="50.78869" lon="3.69396">
        <ele>97</ele>
        <time>2015-12-13T14:46:10Z</time>
      </trkpt>
      <trkpt lat="50.78867" lon="3.69398">
        <ele>97</ele>
        <time>2015-12-13T14:46:11Z</time>
      </trkpt>
      <trkpt lat="50.78865" lon="3.69401">
        <ele>97</ele>
        <time>2015-12-13T14:46:12Z</time>
      </trkpt>
      <trkpt lat="50.78863" lon="3.69403">
        <ele>97</ele>
        <time>2015-12-13T14:46:13Z</time>
      </trkpt>
      <trkpt lat="50.78861" lon="3.69406">
        <ele>97</ele>
        <time>2015-12-13T14:46:14Z</time>
      </trkpt>
      <trkpt lat="50.78859" lon="3.69408">
        <ele>97</ele>
        <time>2015-12-13T14:46:15Z</time>
      </trkpt>
      <trkpt lat="50.78857" lon="3.69411">
        <ele>97</ele>
        <time>2015-12-13T14:46:16Z</time>
      </trkpt>
      <trkpt lat="50.78855" lon="3.69414">
        <ele>97</ele>
        <time>2015-12-13T14:46:17Z</time>
      </trkpt>
      <trkpt lat="50.78853" lon="3.69417">
        <ele>97</ele>
        <time>2015-12-13T14:46:18Z</time>
      </trkpt>
      <trkpt lat="50.78851" lon="3.6942">
        <ele>97</ele>
        <time>2015-12-13T14:46:19Z</time>
      </trkpt>
      <trkpt lat="50.78849" lon="3.69422">
        <ele>97</ele>
        <time>2015-12-13T14:46:20Z</time>
      </trkpt>
      <trkpt lat="50.78847" lon="3.69425">
        <ele>97</ele>
        <time>2015-12-13T14:46:21Z</time>
      </trkpt>
      <trkpt lat="50.78845" lon="3.69427">
        <ele>97</ele>
        <time>2015-12-13T14:46:22Z</time>
      </trkpt>
      <trkpt lat="50.78843" lon="3.6943">
        <ele>97</ele>
        <time>2015-12-13T14:46:23Z</time>
      </trkpt>
      <trkpt lat="50.78841" lon="3.69432">
        <ele>97</ele>
        <time>2015-12-13T14:46:24Z</time>
      </trkpt>
      <trkpt lat="50.78839" lon="3.69435">
        <ele>97</ele>
        <time>2015-12-13T14:46:25Z</time>
      </trkpt>
      <trkpt lat="50.78837" lon="3.69437">
        <ele>97</ele>
        <time>2015-12-13T14:46:26Z</time>
      </trkpt>
      <trkpt lat="50.78835" lon="3.6944">
        <ele>97</ele>
        <time>2015-12-13T14:46:27Z</time>
      </trkpt>
      <trkpt lat="50.78833" lon="3.69443">
        <ele>97</ele>
        <time>2015-12-13T14:46:28Z</time>
      </trkpt>
      <trkpt lat="50.78831" lon="3.69445">
        <ele>97</ele>
        <time>2015-12-13T14:46:29Z</time>
      </trkpt>
      <trkpt lat="50.78829" lon="3.69448">
        <ele>97</ele>
        <time>2015-12-13T14:46:30Z</time>
      </trkpt>
      <trkpt lat="50.78828" lon="3.6945">
        <ele>96.3</ele>
        <time>2015-12-13T14:46:31Z</time>
      </trkpt>
      <trkpt lat="50.78826" lon="3.69453">
        <ele>96</ele>
        <time>2015-12-13T14:46:32Z</time>
      </trkpt>
      <trkpt lat="50.78824" lon="3.69455">
        <ele>96</ele>
        <time>2015-12-13T14:46:33Z</time>
      </trkpt>
      <trkpt lat="50.78822" lon="3.69458">
        <ele>96</ele>
        <time>2015-12-13T14:46:34Z</time>
      </trkpt>
      <trkpt lat="50.7882" lon="3.6946">
        <ele>96</ele>
        <time>2015-12-13T14:46:35Z</time>
      </trkpt>
      <trkpt lat="50.78818" lon="3.69463">
        <ele>96</ele>
        <time>2015-12-13T14:46:36Z</time>
      </trkpt>
      <trkpt lat="50.78816" lon="3.69465">
        <ele>96</ele>
        <time>2015-12-13T14:46:37Z</time>
      </trkpt>
      <trkpt lat="50.78814" lon="3.69468">
        <ele>96</ele>
        <time>2015-12-13T14:46:38Z</time>
      </trkpt>
      <trkpt lat="50.78812" lon="3.6947">
        <ele>96</ele>
        <time>2015-12-13T14:46:39Z</time>
      </trkpt>
      <trkpt lat="50.7881" lon="3.69473">
        <ele>96</ele>
        <time>2015-12-13T14:46:40Z</time>
      </trkpt>
      <trkpt lat="50.78808" lon="3.69476">
        <ele>96</ele>
        <time>2015-12-13T14:46:41Z</time>
      </trkpt>
      <trkpt lat="50.78806" lon="3.69479">
        <ele>96</ele>
        <time>2015-12-13T14:46:42Z</time>
      </trkpt>
      <trkpt lat="50.78804" lon="3.69481">
        <ele>96</ele>
        <time>2015-12-13T14:46:43Z</time>
      </trkpt>
      <trkpt lat="50.78802" lon="3.69484">
        <ele>96</ele>
        <time>2015-12-13T14:46:44Z</time>
      </trkpt>
      <trkpt lat="50.788" lon="3.69487">
        <ele>96</ele>
        <time>2015-12-13T14:46:45Z</time>
      </trkpt>
      <trkpt lat="50.78799" lon="3.69489">
        <ele>96</ele>
        <time>2015-12-13T14:46:46Z</time>
      </trkpt>
      <trkpt lat="50.78797" lon="3.69491">
        <ele>96</ele>
        <time>2015-12-13T14:46:47Z</time>
      </trkpt>
      <trkpt lat="50.78795" lon="3.69493">
        <ele>96</ele>
        <time>2015-12-13T14:46:48Z</time>
      </trkpt>
      <trkpt lat="50.78793" lon="3.69496">
        <ele>96</ele>
        <time>2015-12-13T14:46:49Z</time>
      </trkpt>
      <trkpt lat="50.78791" lon="3.69499">
        <ele>96</ele>
        <time>2015-12-13T14:46:50Z</time>
      </trkpt>
      <trkpt lat="50.78789" lon="3.69502">
        <ele>97</ele>
        <time>2015-12-13T14:46:52Z</time>
      </trkpt>
      <trkpt lat="50.78788" lon="3.69503">
        <ele>96.3</ele>
        <time>2015-12-13T14:46:55Z</time>
      </trkpt>
      <trkpt lat="50.78786" lon="3.69505">
        <ele>96</ele>
        <time>2015-12-13T14:47:17Z</time>
      </trkpt>
      <trkpt lat="50.78785" lon="3.69507">
        <ele>96</ele>
        <time>2015-12-13T14:47:21Z</time>
      </trkpt>
      <trkpt lat="50.78784" lon="3.6951">
        <ele>96</ele>
        <time>2015-12-13T14:47:25Z</time>
      </trkpt>
      <trkpt lat="50.78784" lon="3.69513">
        <ele>96</ele>
        <time>2015-12-13T14:47:27Z</time>
      </trkpt>
      <trkpt lat="50.78782" lon="3.69515">
        <ele>96</ele>
        <time>2015-12-13T14:47:29Z</time>
      </trkpt>
      <trkpt lat="50.78781" lon="3.69518">
        <ele>96</ele>
        <time>2015-12-13T14:47:31Z</time>
      </trkpt>
      <trkpt lat="50.7878" lon="3.6952">
        <ele>96</ele>
        <time>2015-12-13T14:47:33Z</time>
      </trkpt>
      <trkpt lat="50.78779" lon="3.69523">
        <ele>96</ele>
        <time>2015-12-13T14:47:39Z</time>
      </trkpt>
      <trkpt lat="50.78778" lon="3.69526">
        <ele>95.3</ele>
        <time>2015-12-13T14:47:41Z</time>
      </trkpt>
      <trkpt lat="50.78776" lon="3.69528">
        <ele>95</ele>
        <time>2015-12-13T14:47:43Z</time>
      </trkpt>
      <trkpt lat="50.78775" lon="3.6953">
        <ele>95</ele>
        <time>2015-12-13T14:47:45Z</time>
      </trkpt>
      <trkpt lat="50.78773" lon="3.69533">
        <ele>95</ele>
        <time>2015-12-13T14:47:47Z</time>
      </trkpt>
      <trkpt lat="50.78771" lon="3.69535">
        <ele>95</ele>
        <time>2015-12-13T14:47:49Z</time>
      </trkpt>
      <trkpt lat="50.7877" lon="3.69539">
        <ele>96</ele>
        <time>2015-12-13T14:47:52Z</time>
      </trkpt>
      <trkpt lat="50.78768" lon="3.69541">
        <ele>96</ele>
        <time>2015-12-13T14:47:54Z</time>
      </trkpt>
      <trkpt lat="50.78766" lon="3.69544">
        <ele>96</ele>
        <time>2015-12-13T14:47:56Z</time>
      </trkpt>
      <trkpt lat="50.78764" lon="3.69546">
        <ele>96</ele>
        <time>2015-12-13T14:47:58Z</time>
      </trkpt>
      <trkpt lat="50.78762" lon="3.69548">
        <ele>96</ele>
        <time>2015-12-13T14:48:00Z</time>
      </trkpt>
      <trkpt lat="50.78761" lon="3.69551">
        <ele>96</ele>
        <time>2015-12-13T14:48:02Z</time>
      </trkpt>
      <trkpt lat="50.78759" lon="3.69554">
        <ele>96</ele>
        <time>2015-12-13T14:48:04Z</time>
      </trkpt>
      <trkpt lat="50.78757" lon="3.69557">
        <ele>96</ele>
        <time>2015-12-13T14:48:06Z</time>
      </trkpt>
      <trkpt lat="50.78755" lon="3.69559">
        <ele>96</ele>
        <time>2015-12-13T14:48:08Z</time>
      </trkpt>
      <trkpt lat="50.78753" lon="3.69562">
        <ele>96</ele>
        <time>2015-12-13T14:48:10Z</time>
      </trkpt>
      <trkpt lat="50.78751" lon="3.69564">
        <ele>96</ele>
        <time>2015-12-13T14:48:12Z</time>
      </trkpt>
      <trkpt lat="50.78749" lon="3.69568">
        <ele>96</ele>
        <time>2015-12-13T14:48:14Z</time>
      </trkpt>
      <trkpt lat="50.78747" lon="3.6957">
        <ele>96</ele>
        <time>2015-12-13T14:48:15Z</time>
      </trkpt>
      <trkpt lat="50.78746" lon="3.69572">
        <ele>96</ele>
        <time>2015-12-13T14:48:16Z</time>
      </trkpt>
      <trkpt lat="50.78744" lon="3.69574">
        <ele>96</ele>
        <time>2015-12-13T14:48:17Z</time>
      </trkpt>
      <trkpt lat="50.78742" lon="3.69577">
        <ele>96</ele>
        <time>2015-12-13T14:48:18Z</time>
      </trkpt>
      <trkpt lat="50.7874" lon="3.69579">
        <ele>96</ele>
        <time>2015-12-13T14:48:19Z</time>
      </trkpt>
      <trkpt lat="50.78739" lon="3.69581">
        <ele>96</ele>
        <time>2015-12-13T14:48:20Z</time>
      </trkpt>
      <trkpt lat="50.78737" lon="3.69583">
        <ele>96.7</ele>
        <time>2015-12-13T14:48:21Z</time>
      </trkpt>
      <trkpt lat="50.78735" lon="3.69585">
        <ele>97</ele>
        <time>2015-12-13T14:48:22Z</time>
      </trkpt>
      <trkpt lat="50.78734" lon="3.69587">
        <ele>97</ele>
        <time>2015-12-13T14:48:23Z</time>
      </trkpt>
      <trkpt lat="50.78731" lon="3.6959">
        <ele>97</ele>
        <time>2015-12-13T14:48:25Z</time>
      </trkpt>
      <trkpt lat="50.78729" lon="3.69592">
        <ele>97</ele>
        <time>2015-12-13T14:48:26Z</time>
      </trkpt>
      <trkpt lat="50.78728" lon="3.69594">
        <ele>97</ele>
        <time>2015-12-13T14:48:27Z</time>
      </trkpt>
      <trkpt lat="50.78727" lon="3.69597">
        <ele>97</ele>
        <time>2015-12-13T14:48:28Z</time>
      </trkpt>
      <trkpt lat="50.78725" lon="3.69599">
        <ele>97</ele>
        <time>2015-12-13T14:48:29Z</time>
      </trkpt>
      <trkpt lat="50.78724" lon="3.69602">
        <ele>97</ele>
        <time>2015-12-13T14:48:30Z</time>
      </trkpt>
      <trkpt lat="50.78722" lon="3.69605">
        <ele>97.7</ele>
        <time>2015-12-13T14:48:31Z</time>
      </trkpt>
      <trkpt lat="50.7872" lon="3.69607">
        <ele>98</ele>
        <time>2015-12-13T14:48:32Z</time>
      </trkpt>
      <trkpt lat="50.78718" lon="3.69609">
        <ele>98</ele>
        <time>2015-12-13T14:48:33Z</time>
      </trkpt>
      <trkpt lat="50.78717" lon="3.69612">
        <ele>98</ele>
        <time>2015-12-13T14:48:34Z</time>
      </trkpt>
      <trkpt lat="50.78715" lon="3.69614">
        <ele>98</ele>
        <time>2015-12-13T14:48:35Z</time>
      </trkpt>
      <trkpt lat="50.78713" lon="3.69617">
        <ele>98</ele>
        <time>2015-12-13T14:48:36Z</time>
      </trkpt>
      <trkpt lat="50.78712" lon="3.69619">
        <ele>98</ele>
        <time>2015-12-13T14:48:37Z</time>
      </trkpt>
      <trkpt lat="50.7871" lon="3.69622">
        <ele>98</ele>
        <time>2015-12-13T14:48:38Z</time>
      </trkpt>
      <trkpt lat="50.78708" lon="3.69624">
        <ele>98</ele>
        <time>2015-12-13T14:48:39Z</time>
      </trkpt>
      <trkpt lat="50.78707" lon="3.69627">
        <ele>98</ele>
        <time>2015-12-13T14:48:40Z</time>
      </trkpt>
      <trkpt lat="50.78705" lon="3.69629">
        <ele>98</ele>
        <time>2015-12-13T14:48:41Z</time>
      </trkpt>
      <trkpt lat="50.78704" lon="3.69631">
        <ele>98</ele>
        <time>2015-12-13T14:48:42Z</time>
      </trkpt>
      <trkpt lat="50.78702" lon="3.69634">
        <ele>98</ele>
        <time>2015-12-13T14:48:43Z</time>
      </trkpt>
      <trkpt lat="50.78701" lon="3.69636">
        <ele>98</ele>
        <time>2015-12-13T14:48:44Z</time>
      </trkpt>
      <trkpt lat="50.78699" lon="3.69639">
        <ele>98</ele>
        <time>2015-12-13T14:48:45Z</time>
      </trkpt>
      <trkpt lat="50.78697" lon="3.69641">
        <ele>98</ele>
        <time>2015-12-13T14:48:46Z</time>
      </trkpt>
      <trkpt lat="50.78695" lon="3.69643">
        <ele>98</ele>
        <time>2015-12-13T14:48:47Z</time>
      </trkpt>
      <trkpt lat="50.78694" lon="3.69645">
        <ele>98</ele>
        <time>2015-12-13T14:48:48Z</time>
      </trkpt>
      <trkpt lat="50.78692" lon="3.69648">
        <ele>98</ele>
        <time>2015-12-13T14:48:49Z</time>
      </trkpt>
      <trkpt lat="50.7869" lon="3.6965">
        <ele>98</ele>
        <time>2015-12-13T14:48:50Z</time>
      </trkpt>
      <trkpt lat="50.78688" lon="3.69652">
        <ele>99.3</ele>
        <time>2015-12-13T14:48:51Z</time>
      </trkpt>
      <trkpt lat="50.78687" lon="3.69655">
        <ele>100</ele>
        <time>2015-12-13T14:48:52Z</time>
      </trkpt>
      <trkpt lat="50.78685" lon="3.69657">
        <ele>100</ele>
        <time>2015-12-13T14:48:53Z</time>
      </trkpt>
      <trkpt lat="50.78683" lon="3.69659">
        <ele>100</ele>
        <time>2015-12-13T14:48:54Z</time>
      </trkpt>
      <trkpt lat="50.78681" lon="3.69662">
        <ele>100</ele>
        <time>2015-12-13T14:48:55Z</time>
      </trkpt>
      <trkpt lat="50.7868" lon="3.69664">
        <ele>100</ele>
        <time>2015-12-13T14:48:56Z</time>
      </trkpt>
      <trkpt lat="50.78678" lon="3.69667">
        <ele>100</ele>
        <time>2015-12-13T14:48:57Z</time>
      </trkpt>
      <trkpt lat="50.78676" lon="3.69669">
        <ele>100</ele>
        <time>2015-12-13T14:48:58Z</time>
      </trkpt>
      <trkpt lat="50.78675" lon="3.69671">
        <ele>100</ele>
        <time>2015-12-13T14:48:59Z</time>
      </trkpt>
      <trkpt lat="50.78673" lon="3.69674">
        <ele>100</ele>
        <time>2015-12-13T14:49:00Z</time>
      </trkpt>
      <trkpt lat="50.78671" lon="3.69676">
        <ele>100</ele>
        <time>2015-12-13T14:49:01Z</time>
      </trkpt>
      <trkpt lat="50.78669" lon="3.69678">
        <ele>100</ele>
        <time>2015-12-13T14:49:02Z</time>
      </trkpt>
      <trkpt lat="50.78667" lon="3.69681">
        <ele>100</ele>
        <time>2015-12-13T14:49:03Z</time>
      </trkpt>
      <trkpt lat="50.78666" lon="3.69683">
        <ele>100</ele>
        <time>2015-12-13T14:49:04Z</time>
      </trkpt>
      <trkpt lat="50.78664" lon="3.69686">
        <ele>100</ele>
        <time>2015-12-13T14:49:05Z</time>
      </trkpt>
      <trkpt lat="50.78662" lon="3.69688">
        <ele>100</ele>
        <time>2015-12-13T14:49:06Z</time>
      </trkpt>
      <trkpt lat="50.78661" lon="3.69691">
        <ele>100</ele>
        <time>2015-12-13T14:49:07Z</time>
      </trkpt>
      <trkpt lat="50.78659" lon="3.69693">
        <ele>100</ele>
        <time>2015-12-13T14:49:08Z</time>
      </trkpt>
      <trkpt lat="50.78657" lon="3.69695">
        <ele>100</ele>
        <time>2015-12-13T14:49:09Z</time>
      </trkpt>
      <trkpt lat="50.78655" lon="3.69697">
        <ele>100</ele>
        <time>2015-12-13T14:49:10Z</time>
      </trkpt>
      <trkpt lat="50.78654" lon="3.697">
        <ele>100</ele>
        <time>2015-12-13T14:49:11Z</time>
      </trkpt>
      <trkpt lat="50.78652" lon="3.69702">
        <ele>100</ele>
        <time>2015-12-13T14:49:12Z</time>
      </trkpt>
      <trkpt lat="50.7865" lon="3.69704">
        <ele>100</ele>
        <time>2015-12-13T14:49:13Z</time>
      </trkpt>
      <trkpt lat="50.78649" lon="3.69707">
        <ele>100</ele>
        <time>2015-12-13T14:49:14Z</time>
      </trkpt>
      <trkpt lat="50.78647" lon="3.69709">
        <ele>100</ele>
        <time>2015-12-13T14:49:15Z</time>
      </trkpt>
      <trkpt lat="50.78645" lon="3.69712">
        <ele>100</ele>
        <time>2015-12-13T14:49:16Z</time>
      </trkpt>
      <trkpt lat="50.78643" lon="3.69714">
        <ele>100</ele>
        <time>2015-12-13T14:49:17Z</time>
      </trkpt>
      <trkpt lat="50.78641" lon="3.69717">
        <ele>100</ele>
        <time>2015-12-13T14:49:18Z</time>
      </trkpt>
      <trkpt lat="50.7864" lon="3.69719">
        <ele>100</ele>
        <time>2015-12-13T14:49:19Z</time>
      </trkpt>
      <trkpt lat="50.78638" lon="3.69722">
        <ele>100</ele>
        <time>2015-12-13T14:49:20Z</time>
      </trkpt>
      <trkpt lat="50.78636" lon="3.69724">
        <ele>100.7</ele>
        <time>2015-12-13T14:49:21Z</time>
      </trkpt>
      <trkpt lat="50.78634" lon="3.69727">
        <ele>101</ele>
        <time>2015-12-13T14:49:22Z</time>
      </trkpt>
      <trkpt lat="50.78633" lon="3.6973">
        <ele>101</ele>
        <time>2015-12-13T14:49:23Z</time>
      </trkpt>
      <trkpt lat="50.78631" lon="3.69732">
        <ele>101</ele>
        <time>2015-12-13T14:49:24Z</time>
      </trkpt>
      <trkpt lat="50.78629" lon="3.69734">
        <ele>101</ele>
        <time>2015-12-13T14:49:25Z</time>
      </trkpt>
      <trkpt lat="50.78628" lon="3.69737">
        <ele>101</ele>
        <time>2015-12-13T14:49:26Z</time>
      </trkpt>
      <trkpt lat="50.78626" lon="3.69739">
        <ele>101</ele>
        <time>2015-12-13T14:49:27Z</time>
      </trkpt>
      <trkpt lat="50.78624" lon="3.69741">
        <ele>101</ele>
        <time>2015-12-13T14:49:28Z</time>
      </trkpt>
      <trkpt lat="50.78623" lon="3.69743">
        <ele>101</ele>
        <time>2015-12-13T14:49:29Z</time>
      </trkpt>
      <trkpt lat="50.7862" lon="3.69746">
        <ele>101</ele>
        <time>2015-12-13T14:49:33Z</time>
      </trkpt>
      <trkpt lat="50.78618" lon="3.69749">
        <ele>101</ele>
        <time>2015-12-13T14:49:34Z</time>
      </trkpt>
      <trkpt lat="50.78616" lon="3.69752">
        <ele>101</ele>
        <time>2015-12-13T14:49:35Z</time>
      </trkpt>
      <trkpt lat="50.78614" lon="3.69754">
        <ele>101</ele>
        <time>2015-12-13T14:49:36Z</time>
      </trkpt>
      <trkpt lat="50.78612" lon="3.69757">
        <ele>101</ele>
        <time>2015-12-13T14:49:37Z</time>
      </trkpt>
      <trkpt lat="50.7861" lon="3.6976">
        <ele>101</ele>
        <time>2015-12-13T14:49:38Z</time>
      </trkpt>
      <trkpt lat="50.78608" lon="3.69762">
        <ele>101</ele>
        <time>2015-12-13T14:49:39Z</time>
      </trkpt>
      <trkpt lat="50.78607" lon="3.69765">
        <ele>101</ele>
        <time>2015-12-13T14:49:40Z</time>
      </trkpt>
      <trkpt lat="50.78605" lon="3.69767">
        <ele>101</ele>
        <time>2015-12-13T14:49:41Z</time>
      </trkpt>
      <trkpt lat="50.78603" lon="3.6977">
        <ele>101</ele>
        <time>2015-12-13T14:49:42Z</time>
      </trkpt>
      <trkpt lat="50.78601" lon="3.69772">
        <ele>101</ele>
        <time>2015-12-13T14:49:43Z</time>
      </trkpt>
      <trkpt lat="50.78599" lon="3.69775">
        <ele>101</ele>
        <time>2015-12-13T14:49:44Z</time>
      </trkpt>
      <trkpt lat="50.78597" lon="3.69778">
        <ele>101</ele>
        <time>2015-12-13T14:49:45Z</time>
      </trkpt>
      <trkpt lat="50.78595" lon="3.6978">
        <ele>101</ele>
        <time>2015-12-13T14:49:46Z</time>
      </trkpt>
      <trkpt lat="50.78593" lon="3.69783">
        <ele>101</ele>
        <time>2015-12-13T14:49:47Z</time>
      </trkpt>
      <trkpt lat="50.78591" lon="3.69786">
        <ele>101</ele>
        <time>2015-12-13T14:49:48Z</time>
      </trkpt>
      <trkpt lat="50.78589" lon="3.69788">
        <ele>101</ele>
        <time>2015-12-13T14:49:49Z</time>
      </trkpt>
      <trkpt lat="50.78587" lon="3.69791">
        <ele>101</ele>
        <time>2015-12-13T14:49:50Z</time>
      </trkpt>
      <trkpt lat="50.78586" lon="3.69793">
        <ele>101</ele>
        <time>2015-12-13T14:49:51Z</time>
      </trkpt>
      <trkpt lat="50.78584" lon="3.69796">
        <ele>101</ele>
        <time>2015-12-13T14:49:52Z</time>
      </trkpt>
      <trkpt lat="50.78582" lon="3.69799">
        <ele>101</ele>
        <time>2015-12-13T14:49:53Z</time>
      </trkpt>
      <trkpt lat="50.7858" lon="3.69801">
        <ele>101</ele>
        <time>2015-12-13T14:49:54Z</time>
      </trkpt>
      <trkpt lat="50.78579" lon="3.69803">
        <ele>101</ele>
        <time>2015-12-13T14:49:55Z</time>
      </trkpt>
      <trkpt lat="50.78577" lon="3.69806">
        <ele>101</ele>
        <time>2015-12-13T14:49:56Z</time>
      </trkpt>
      <trkpt lat="50.78575" lon="3.69808">
        <ele>101</ele>
        <time>2015-12-13T14:49:57Z</time>
      </trkpt>
      <trkpt lat="50.78573" lon="3.69811">
        <ele>101</ele>
        <time>2015-12-13T14:49:58Z</time>
      </trkpt>
      <trkpt lat="50.78572" lon="3.69813">
        <ele>101</ele>
        <time>2015-12-13T14:49:59Z</time>
      </trkpt>
      <trkpt lat="50.7857" lon="3.69814">
        <ele>101</ele>
        <time>2015-12-13T14:50:00Z</time>
      </trkpt>
      <trkpt lat="50.78568" lon="3.69814">
        <ele>101</ele>
        <time>2015-12-13T14:50:01Z</time>
      </trkpt>
      <trkpt lat="50.78565" lon="3.69814">
        <ele>101</ele>
        <time>2015-12-13T14:50:02Z</time>
      </trkpt>
      <trkpt lat="50.78562" lon="3.69814">
        <ele>101</ele>
        <time>2015-12-13T14:50:03Z</time>
      </trkpt>
      <trkpt lat="50.7856" lon="3.69815">
        <ele>101</ele>
        <time>2015-12-13T14:50:04Z</time>
      </trkpt>
      <trkpt lat="50.78557" lon="3.69816">
        <ele>101</ele>
        <time>2015-12-13T14:50:05Z</time>
      </trkpt>
      <trkpt lat="50.78555" lon="3.69817">
        <ele>101</ele>
        <time>2015-12-13T14:50:06Z</time>
      </trkpt>
      <trkpt lat="50.78552" lon="3.69818">
        <ele>101</ele>
        <time>2015-12-13T14:50:07Z</time>
      </trkpt>
      <trkpt lat="50.7855" lon="3.69819">
        <ele>101</ele>
        <time>2015-12-13T14:50:08Z</time>
      </trkpt>
      <trkpt lat="50.78548" lon="3.6982">
        <ele>101</ele>
        <time>2015-12-13T14:50:09Z</time>
      </trkpt>
      <trkpt lat="50.78545" lon="3.69821">
        <ele>101</ele>
        <time>2015-12-13T14:50:10Z</time>
      </trkpt>
      <trkpt lat="50.78543" lon="3.69822">
        <ele>101</ele>
        <time>2015-12-13T14:50:11Z</time>
      </trkpt>
      <trkpt lat="50.78541" lon="3.69822">
        <ele>101</ele>
        <time>2015-12-13T14:50:12Z</time>
      </trkpt>
      <trkpt lat="50.78538" lon="3.69823">
        <ele>101</ele>
        <time>2015-12-13T14:50:13Z</time>
      </trkpt>
      <trkpt lat="50.78536" lon="3.69822">
        <ele>101</ele>
        <time>2015-12-13T14:50:17Z</time>
      </trkpt>
      <trkpt lat="50.78533" lon="3.69823">
        <ele>101</ele>
        <time>2015-12-13T14:50:19Z</time>
      </trkpt>
      <trkpt lat="50.78531" lon="3.69823">
        <ele>101.7</ele>
        <time>2015-12-13T14:50:21Z</time>
      </trkpt>
      <trkpt lat="50.78528" lon="3.69823">
        <ele>102</ele>
        <time>2015-12-13T14:50:23Z</time>
      </trkpt>
      <trkpt lat="50.78525" lon="3.69824">
        <ele>102</ele>
        <time>2015-12-13T14:50:25Z</time>
      </trkpt>
      <trkpt lat="50.78523" lon="3.69824">
        <ele>102</ele>
        <time>2015-12-13T14:50:27Z</time>
      </trkpt>
      <trkpt lat="50.7852" lon="3.69824">
        <ele>102</ele>
        <time>2015-12-13T14:50:29Z</time>
      </trkpt>
      <trkpt lat="50.78518" lon="3.69824">
        <ele>102</ele>
        <time>2015-12-13T14:50:30Z</time>
      </trkpt>
      <trkpt lat="50.78516" lon="3.69824">
        <ele>102</ele>
        <time>2015-12-13T14:50:31Z</time>
      </trkpt>
      <trkpt lat="50.78514" lon="3.69824">
        <ele>102</ele>
        <time>2015-12-13T14:50:32Z</time>
      </trkpt>
      <trkpt lat="50.78512" lon="3.69823">
        <ele>102</ele>
        <time>2015-12-13T14:50:33Z</time>
      </trkpt>
      <trkpt lat="50.78509" lon="3.69823">
        <ele>102</ele>
        <time>2015-12-13T14:50:34Z</time>
      </trkpt>
      <trkpt lat="50.78507" lon="3.69823">
        <ele>102</ele>
        <time>2015-12-13T14:50:35Z</time>
      </trkpt>
      <trkpt lat="50.78505" lon="3.69822">
        <ele>102</ele>
        <time>2015-12-13T14:50:36Z</time>
      </trkpt>
      <trkpt lat="50.78503" lon="3.69822">
        <ele>102</ele>
        <time>2015-12-13T14:50:37Z</time>
      </trkpt>
      <trkpt lat="50.785" lon="3.69821">
        <ele>102</ele>
        <time>2015-12-13T14:50:38Z</time>
      </trkpt>
      <trkpt lat="50.78498" lon="3.69821">
        <ele>102</ele>
        <time>2015-12-13T14:50:39Z</time>
      </trkpt>
      <trkpt lat="50.78495" lon="3.6982">
        <ele>102</ele>
        <time>2015-12-13T14:50:40Z</time>
      </trkpt>
      <trkpt lat="50.78493" lon="3.6982">
        <ele>102</ele>
        <time>2015-12-13T14:50:41Z</time>
      </trkpt>
      <trkpt lat="50.7849" lon="3.69819">
        <ele>102</ele>
        <time>2015-12-13T14:50:42Z</time>
      </trkpt>
      <trkpt lat="50.78488" lon="3.69819">
        <ele>102</ele>
        <time>2015-12-13T14:50:43Z</time>
      </trkpt>
      <trkpt lat="50.78486" lon="3.69819">
        <ele>102</ele>
        <time>2015-12-13T14:50:44Z</time>
      </trkpt>
      <trkpt lat="50.78483" lon="3.69819">
        <ele>102</ele>
        <time>2015-12-13T14:50:45Z</time>
      </trkpt>
      <trkpt lat="50.78481" lon="3.69818">
        <ele>102</ele>
        <time>2015-12-13T14:50:46Z</time>
      </trkpt>
      <trkpt lat="50.78479" lon="3.69818">
        <ele>102</ele>
        <time>2015-12-13T14:50:47Z</time>
      </trkpt>
      <trkpt lat="50.78476" lon="3.69818">
        <ele>102</ele>
        <time>2015-12-13T14:50:48Z</time>
      </trkpt>
      <trkpt lat="50.78474" lon="3.69818">
        <ele>102</ele>
        <time>2015-12-13T14:50:49Z</time>
      </trkpt>
      <trkpt lat="50.78471" lon="3.69818">
        <ele>102</ele>
        <time>2015-12-13T14:50:50Z</time>
      </trkpt>
      <trkpt lat="50.78469" lon="3.69818">
        <ele>102</ele>
        <time>2015-12-13T14:50:51Z</time>
      </trkpt>
      <trkpt lat="50.78467" lon="3.69817">
        <ele>102</ele>
        <time>2015-12-13T14:50:52Z</time>
      </trkpt>
      <trkpt lat="50.78464" lon="3.69817">
        <ele>102</ele>
        <time>2015-12-13T14:50:53Z</time>
      </trkpt>
      <trkpt lat="50.78462" lon="3.69817">
        <ele>102.7</ele>
        <time>2015-12-13T14:50:54Z</time>
      </trkpt>
      <trkpt lat="50.78459" lon="3.69817">
        <ele>103</ele>
        <time>2015-12-13T14:50:55Z</time>
      </trkpt>
      <trkpt lat="50.78457" lon="3.69817">
        <ele>103</ele>
        <time>2015-12-13T14:50:56Z</time>
      </trkpt>
      <trkpt lat="50.78454" lon="3.69817">
        <ele>103</ele>
        <time>2015-12-13T14:50:57Z</time>
      </trkpt>
      <trkpt lat="50.78452" lon="3.69817">
        <ele>103</ele>
        <time>2015-12-13T14:50:58Z</time>
      </trkpt>
      <trkpt lat="50.78449" lon="3.69817">
        <ele>103</ele>
        <time>2015-12-13T14:50:59Z</time>
      </trkpt>
      <trkpt lat="50.78447" lon="3.69817">
        <ele>103</ele>
        <time>2015-12-13T14:51:00Z</time>
      </trkpt>
      <trkpt lat="50.78445" lon="3.69817">
        <ele>103</ele>
        <time>2015-12-13T14:51:01Z</time>
      </trkpt>
      <trkpt lat="50.78442" lon="3.69817">
        <ele>103</ele>
        <time>2015-12-13T14:51:02Z</time>
      </trkpt>
      <trkpt lat="50.7844" lon="3.69818">
        <ele>103</ele>
        <time>2015-12-13T14:51:03Z</time>
      </trkpt>
      <trkpt lat="50.78437" lon="3.69818">
        <ele>103</ele>
        <time>2015-12-13T14:51:04Z</time>
      </trkpt>
      <trkpt lat="50.78435" lon="3.69818">
        <ele>103</ele>
        <time>2015-12-13T14:51:05Z</time>
      </trkpt>
      <trkpt lat="50.78432" lon="3.69818">
        <ele>103</ele>
        <time>2015-12-13T14:51:06Z</time>
      </trkpt>
      <trkpt lat="50.7843" lon="3.69819">
        <ele>103</ele>
        <time>2015-12-13T14:51:07Z</time>
      </trkpt>
      <trkpt lat="50.78428" lon="3.69819">
        <ele>103</ele>
        <time>2015-12-13T14:51:08Z</time>
      </trkpt>
      <trkpt lat="50.78425" lon="3.6982">
        <ele>103</ele>
        <time>2015-12-13T14:51:09Z</time>
      </trkpt>
      <trkpt lat="50.78423" lon="3.6982">
        <ele>103</ele>
        <time>2015-12-13T14:51:10Z</time>
      </trkpt>
      <trkpt lat="50.78421" lon="3.69821">
        <ele>103</ele>
        <time>2015-12-13T14:51:11Z</time>
      </trkpt>
      <trkpt lat="50.78419" lon="3.69821">
        <ele>103</ele>
        <time>2015-12-13T14:51:12Z</time>
      </trkpt>
      <trkpt lat="50.78416" lon="3.69822">
        <ele>103.7</ele>
        <time>2015-12-13T14:51:13Z</time>
      </trkpt>
      <trkpt lat="50.78414" lon="3.69822">
        <ele>104</ele>
        <time>2015-12-13T14:51:14Z</time>
      </trkpt>
      <trkpt lat="50.78411" lon="3.69823">
        <ele>104</ele>
        <time>2015-12-13T14:51:15Z</time>
      </trkpt>
      <trkpt lat="50.78409" lon="3.69823">
        <ele>104</ele>
        <time>2015-12-13T14:51:16Z</time>
      </trkpt>
      <trkpt lat="50.78407" lon="3.69824">
        <ele>104</ele>
        <time>2015-12-13T14:51:17Z</time>
      </trkpt>
      <trkpt lat="50.78404" lon="3.69824">
        <ele>104</ele>
        <time>2015-12-13T14:51:18Z</time>
      </trkpt>
      <trkpt lat="50.78402" lon="3.69824">
        <ele>104</ele>
        <time>2015-12-13T14:51:19Z</time>
      </trkpt>
      <trkpt lat="50.78399" lon="3.69825">
        <ele>104</ele>
        <time>2015-12-13T14:51:20Z</time>
      </trkpt>
      <trkpt lat="50.78397" lon="3.69825">
        <ele>103.3</ele>
        <time>2015-12-13T14:51:21Z</time>
      </trkpt>
      <trkpt lat="50.78394" lon="3.69825">
        <ele>103</ele>
        <time>2015-12-13T14:51:22Z</time>
      </trkpt>
      <trkpt lat="50.78392" lon="3.69825">
        <ele>103</ele>
        <time>2015-12-13T14:51:23Z</time>
      </trkpt>
      <trkpt lat="50.7839" lon="3.69825">
        <ele>103</ele>
        <time>2015-12-13T14:51:24Z</time>
      </trkpt>
      <trkpt lat="50.78387" lon="3.69826">
        <ele>103</ele>
        <time>2015-12-13T14:51:25Z</time>
      </trkpt>
      <trkpt lat="50.78385" lon="3.69826">
        <ele>103</ele>
        <time>2015-12-13T14:51:26Z</time>
      </trkpt>
      <trkpt lat="50.78383" lon="3.69826">
        <ele>103</ele>
        <time>2015-12-13T14:51:27Z</time>
      </trkpt>
      <trkpt lat="50.7838" lon="3.69826">
        <ele>103</ele>
        <time>2015-12-13T14:51:28Z</time>
      </trkpt>
      <trkpt lat="50.78378" lon="3.69826">
        <ele>103</ele>
        <time>2015-12-13T14:51:29Z</time>
      </trkpt>
      <trkpt lat="50.78376" lon="3.69827">
        <ele>103</ele>
        <time>2015-12-13T14:51:30Z</time>
      </trkpt>
      <trkpt lat="50.78374" lon="3.69827">
        <ele>102.3</ele>
        <time>2015-12-13T14:51:31Z</time>
      </trkpt>
      <trkpt lat="50.78371" lon="3.69827">
        <ele>102</ele>
        <time>2015-12-13T14:51:32Z</time>
      </trkpt>
      <trkpt lat="50.78369" lon="3.69828">
        <ele>102</ele>
        <time>2015-12-13T14:51:33Z</time>
      </trkpt>
      <trkpt lat="50.78367" lon="3.69828">
        <ele>102</ele>
        <time>2015-12-13T14:51:34Z</time>
      </trkpt>
      <trkpt lat="50.78364" lon="3.69829">
        <ele>102</ele>
        <time>2015-12-13T14:51:35Z</time>
      </trkpt>
      <trkpt lat="50.78362" lon="3.6983">
        <ele>102</ele>
        <time>2015-12-13T14:51:36Z</time>
      </trkpt>
      <trkpt lat="50.7836" lon="3.6983">
        <ele>102</ele>
        <time>2015-12-13T14:51:37Z</time>
      </trkpt>
      <trkpt lat="50.78357" lon="3.69831">
        <ele>102</ele>
        <time>2015-12-13T14:51:38Z</time>
      </trkpt>
      <trkpt lat="50.78355" lon="3.69832">
        <ele>102</ele>
        <time>2015-12-13T14:51:39Z</time>
      </trkpt>
      <trkpt lat="50.78353" lon="3.69833">
        <ele>102</ele>
        <time>2015-12-13T14:51:40Z</time>
      </trkpt>
      <trkpt lat="50.78351" lon="3.69833">
        <ele>102</ele>
        <time>2015-12-13T14:51:41Z</time>
      </trkpt>
      <trkpt lat="50.78348" lon="3.69833">
        <ele>102</ele>
        <time>2015-12-13T14:51:42Z</time>
      </trkpt>
      <trkpt lat="50.78346" lon="3.69834">
        <ele>102</ele>
        <time>2015-12-13T14:51:43Z</time>
      </trkpt>
      <trkpt lat="50.78344" lon="3.69834">
        <ele>102</ele>
        <time>2015-12-13T14:51:44Z</time>
      </trkpt>
      <trkpt lat="50.78342" lon="3.69835">
        <ele>102</ele>
        <time>2015-12-13T14:51:45Z</time>
      </trkpt>
      <trkpt lat="50.7834" lon="3.69835">
        <ele>102</ele>
        <time>2015-12-13T14:51:46Z</time>
      </trkpt>
      <trkpt lat="50.78337" lon="3.69836">
        <ele>102</ele>
        <time>2015-12-13T14:51:47Z</time>
      </trkpt>
      <trkpt lat="50.78335" lon="3.69836">
        <ele>102</ele>
        <time>2015-12-13T14:51:48Z</time>
      </trkpt>
      <trkpt lat="50.78333" lon="3.69837">
        <ele>102</ele>
        <time>2015-12-13T14:51:49Z</time>
      </trkpt>
      <trkpt lat="50.78331" lon="3.69837">
        <ele>102</ele>
        <time>2015-12-13T14:51:50Z</time>
      </trkpt>
      <trkpt lat="50.78328" lon="3.69837">
        <ele>102</ele>
        <time>2015-12-13T14:51:51Z</time>
      </trkpt>
      <trkpt lat="50.78326" lon="3.69837">
        <ele>102</ele>
        <time>2015-12-13T14:51:52Z</time>
      </trkpt>
      <trkpt lat="50.78324" lon="3.69837">
        <ele>102</ele>
        <time>2015-12-13T14:51:53Z</time>
      </trkpt>
      <trkpt lat="50.78321" lon="3.69837">
        <ele>102</ele>
        <time>2015-12-13T14:51:54Z</time>
      </trkpt>
      <trkpt lat="50.78319" lon="3.69837">
        <ele>102</ele>
        <time>2015-12-13T14:51:55Z</time>
      </trkpt>
      <trkpt lat="50.78317" lon="3.69837">
        <ele>102</ele>
        <time>2015-12-13T14:51:56Z</time>
      </trkpt>
      <trkpt lat="50.78314" lon="3.69837">
        <ele>102</ele>
        <time>2015-12-13T14:51:57Z</time>
      </trkpt>
      <trkpt lat="50.78312" lon="3.69837">
        <ele>102</ele>
        <time>2015-12-13T14:51:58Z</time>
      </trkpt>
      <trkpt lat="50.7831" lon="3.69836">
        <ele>102</ele>
        <time>2015-12-13T14:51:59Z</time>
      </trkpt>
      <trkpt lat="50.78308" lon="3.69836">
        <ele>102</ele>
        <time>2015-12-13T14:52:00Z</time>
      </trkpt>
      <trkpt lat="50.78305" lon="3.69835">
        <ele>101.3</ele>
        <time>2015-12-13T14:52:01Z</time>
      </trkpt>
      <trkpt lat="50.78303" lon="3.69835">
        <ele>101</ele>
        <time>2015-12-13T14:52:02Z</time>
      </trkpt>
      <trkpt lat="50.78301" lon="3.69834">
        <ele>101</ele>
        <time>2015-12-13T14:52:03Z</time>
      </trkpt>
      <trkpt lat="50.78299" lon="3.69834">
        <ele>101</ele>
        <time>2015-12-13T14:52:04Z</time>
      </trkpt>
      <trkpt lat="50.78296" lon="3.69833">
        <ele>101</ele>
        <time>2015-12-13T14:52:05Z</time>
      </trkpt>
      <trkpt lat="50.78294" lon="3.69833">
        <ele>101</ele>
        <time>2015-12-13T14:52:06Z</time>
      </trkpt>
      <trkpt lat="50.78291" lon="3.69833">
        <ele>101</ele>
        <time>2015-12-13T14:52:07Z</time>
      </trkpt>
      <trkpt lat="50.78289" lon="3.69833">
        <ele>101</ele>
        <time>2015-12-13T14:52:08Z</time>
      </trkpt>
      <trkpt lat="50.78286" lon="3.69834">
        <ele>101</ele>
        <time>2015-12-13T14:52:09Z</time>
      </trkpt>
      <trkpt lat="50.78284" lon="3.69834">
        <ele>101</ele>
        <time>2015-12-13T14:52:10Z</time>
      </trkpt>
      <trkpt lat="50.78281" lon="3.69833">
        <ele>100.3</ele>
        <time>2015-12-13T14:52:11Z</time>
      </trkpt>
      <trkpt lat="50.78279" lon="3.69833">
        <ele>100</ele>
        <time>2015-12-13T14:52:12Z</time>
      </trkpt>
      <trkpt lat="50.78277" lon="3.69833">
        <ele>100</ele>
        <time>2015-12-13T14:52:13Z</time>
      </trkpt>
      <trkpt lat="50.78275" lon="3.69833">
        <ele>100</ele>
        <time>2015-12-13T14:52:14Z</time>
      </trkpt>
      <trkpt lat="50.78273" lon="3.69835">
        <ele>100</ele>
        <time>2015-12-13T14:52:15Z</time>
      </trkpt>
      <trkpt lat="50.78271" lon="3.69838">
        <ele>100</ele>
        <time>2015-12-13T14:52:17Z</time>
      </trkpt>
      <trkpt lat="50.78269" lon="3.69842">
        <ele>100</ele>
        <time>2015-12-13T14:52:19Z</time>
      </trkpt>
      <trkpt lat="50.78267" lon="3.69846">
        <ele>99.5</ele>
        <time>2015-12-13T14:52:21Z</time>
      </trkpt>
      <trkpt lat="50.78265" lon="3.6985">
        <ele>99</ele>
        <time>2015-12-13T14:52:23Z</time>
      </trkpt>
      <trkpt lat="50.78263" lon="3.69853">
        <ele>99</ele>
        <time>2015-12-13T14:52:25Z</time>
      </trkpt>
      <trkpt lat="50.78261" lon="3.69856">
        <ele>99</ele>
        <time>2015-12-13T14:52:27Z</time>
      </trkpt>
      <trkpt lat="50.78259" lon="3.69859">
        <ele>99</ele>
        <time>2015-12-13T14:52:29Z</time>
      </trkpt>
      <trkpt lat="50.78256" lon="3.69862">
        <ele>99</ele>
        <time>2015-12-13T14:52:31Z</time>
      </trkpt>
      <trkpt lat="50.78254" lon="3.69865">
        <ele>99</ele>
        <time>2015-12-13T14:52:33Z</time>
      </trkpt>
      <trkpt lat="50.78252" lon="3.69868">
        <ele>99</ele>
        <time>2015-12-13T14:52:35Z</time>
      </trkpt>
      <trkpt lat="50.7825" lon="3.6987">
        <ele>99</ele>
        <time>2015-12-13T14:52:36Z</time>
      </trkpt>
      <trkpt lat="50.78248" lon="3.69872">
        <ele>99</ele>
        <time>2015-12-13T14:52:37Z</time>
      </trkpt>
      <trkpt lat="50.78247" lon="3.69875">
        <ele>99</ele>
        <time>2015-12-13T14:52:38Z</time>
      </trkpt>
      <trkpt lat="50.78245" lon="3.69877">
        <ele>99.7</ele>
        <time>2015-12-13T14:52:39Z</time>
      </trkpt>
      <trkpt lat="50.78243" lon="3.6988">
        <ele>100</ele>
        <time>2015-12-13T14:52:40Z</time>
      </trkpt>
      <trkpt lat="50.78241" lon="3.69883">
        <ele>99.5</ele>
        <time>2015-12-13T14:52:41Z</time>
      </trkpt>
      <trkpt lat="50.7824" lon="3.69885">
        <ele>99</ele>
        <time>2015-12-13T14:52:42Z</time>
      </trkpt>
      <trkpt lat="50.78238" lon="3.69888">
        <ele>99</ele>
        <time>2015-12-13T14:52:43Z</time>
      </trkpt>
      <trkpt lat="50.78236" lon="3.6989">
        <ele>99</ele>
        <time>2015-12-13T14:52:44Z</time>
      </trkpt>
      <trkpt lat="50.78235" lon="3.69893">
        <ele>99</ele>
        <time>2015-12-13T14:52:45Z</time>
      </trkpt>
      <trkpt lat="50.78233" lon="3.69895">
        <ele>99</ele>
        <time>2015-12-13T14:52:46Z</time>
      </trkpt>
      <trkpt lat="50.78231" lon="3.69898">
        <ele>99</ele>
        <time>2015-12-13T14:52:47Z</time>
      </trkpt>
      <trkpt lat="50.78229" lon="3.69901">
        <ele>99</ele>
        <time>2015-12-13T14:52:48Z</time>
      </trkpt>
      <trkpt lat="50.78228" lon="3.69903">
        <ele>99</ele>
        <time>2015-12-13T14:52:49Z</time>
      </trkpt>
      <trkpt lat="50.78226" lon="3.69906">
        <ele>99</ele>
        <time>2015-12-13T14:52:50Z</time>
      </trkpt>
      <trkpt lat="50.78224" lon="3.69909">
        <ele>98.3</ele>
        <time>2015-12-13T14:52:51Z</time>
      </trkpt>
      <trkpt lat="50.78222" lon="3.69911">
        <ele>98</ele>
        <time>2015-12-13T14:52:52Z</time>
      </trkpt>
      <trkpt lat="50.7822" lon="3.69914">
        <ele>98</ele>
        <time>2015-12-13T14:52:53Z</time>
      </trkpt>
      <trkpt lat="50.78218" lon="3.69917">
        <ele>98</ele>
        <time>2015-12-13T14:52:54Z</time>
      </trkpt>
      <trkpt lat="50.78217" lon="3.69919">
        <ele>98</ele>
        <time>2015-12-13T14:52:55Z</time>
      </trkpt>
      <trkpt lat="50.78215" lon="3.69922">
        <ele>98</ele>
        <time>2015-12-13T14:52:56Z</time>
      </trkpt>
      <trkpt lat="50.78213" lon="3.69924">
        <ele>98</ele>
        <time>2015-12-13T14:52:57Z</time>
      </trkpt>
      <trkpt lat="50.78211" lon="3.69927">
        <ele>98</ele>
        <time>2015-12-13T14:52:58Z</time>
      </trkpt>
      <trkpt lat="50.7821" lon="3.6993">
        <ele>98</ele>
        <time>2015-12-13T14:52:59Z</time>
      </trkpt>
      <trkpt lat="50.78208" lon="3.69932">
        <ele>98</ele>
        <time>2015-12-13T14:53:00Z</time>
      </trkpt>
      <trkpt lat="50.78206" lon="3.69935">
        <ele>98</ele>
        <time>2015-12-13T14:53:01Z</time>
      </trkpt>
      <trkpt lat="50.78205" lon="3.69937">
        <ele>96.6</ele>
        <time>2015-12-13T14:53:02Z</time>
      </trkpt>
      <trkpt lat="50.78203" lon="3.6994">
        <ele>96.7</ele>
        <time>2015-12-13T14:53:03Z</time>
      </trkpt>
      <trkpt lat="50.78201" lon="3.69943">
        <ele>97</ele>
        <time>2015-12-13T14:53:04Z</time>
      </trkpt>
      <trkpt lat="50.78199" lon="3.69946">
        <ele>97</ele>
        <time>2015-12-13T14:53:05Z</time>
      </trkpt>
      <trkpt lat="50.78197" lon="3.69949">
        <ele>97</ele>
        <time>2015-12-13T14:53:06Z</time>
      </trkpt>
      <trkpt lat="50.78195" lon="3.69951">
        <ele>97</ele>
        <time>2015-12-13T14:53:07Z</time>
      </trkpt>
      <trkpt lat="50.78193" lon="3.69954">
        <ele>97</ele>
        <time>2015-12-13T14:53:08Z</time>
      </trkpt>
      <trkpt lat="50.78191" lon="3.69957">
        <ele>97</ele>
        <time>2015-12-13T14:53:09Z</time>
      </trkpt>
      <trkpt lat="50.78189" lon="3.6996">
        <ele>97</ele>
        <time>2015-12-13T14:53:10Z</time>
      </trkpt>
      <trkpt lat="50.78188" lon="3.69962">
        <ele>97</ele>
        <time>2015-12-13T14:53:11Z</time>
      </trkpt>
      <trkpt lat="50.78186" lon="3.69965">
        <ele>97</ele>
        <time>2015-12-13T14:53:12Z</time>
      </trkpt>
      <trkpt lat="50.78184" lon="3.69968">
        <ele>97</ele>
        <time>2015-12-13T14:53:13Z</time>
      </trkpt>
      <trkpt lat="50.78183" lon="3.6997">
        <ele>97</ele>
        <time>2015-12-13T14:53:14Z</time>
      </trkpt>
      <trkpt lat="50.78181" lon="3.69973">
        <ele>97</ele>
        <time>2015-12-13T14:53:15Z</time>
      </trkpt>
      <trkpt lat="50.78179" lon="3.69976">
        <ele>97</ele>
        <time>2015-12-13T14:53:16Z</time>
      </trkpt>
      <trkpt lat="50.78178" lon="3.69978">
        <ele>97</ele>
        <time>2015-12-13T14:53:17Z</time>
      </trkpt>
      <trkpt lat="50.78176" lon="3.69981">
        <ele>97</ele>
        <time>2015-12-13T14:53:18Z</time>
      </trkpt>
      <trkpt lat="50.78174" lon="3.69983">
        <ele>97</ele>
        <time>2015-12-13T14:53:19Z</time>
      </trkpt>
      <trkpt lat="50.78172" lon="3.69986">
        <ele>97</ele>
        <time>2015-12-13T14:53:20Z</time>
      </trkpt>
      <trkpt lat="50.7817" lon="3.69989">
        <ele>97</ele>
        <time>2015-12-13T14:53:21Z</time>
      </trkpt>
      <trkpt lat="50.78169" lon="3.69991">
        <ele>97.7</ele>
        <time>2015-12-13T14:53:22Z</time>
      </trkpt>
      <trkpt lat="50.78167" lon="3.69994">
        <ele>98</ele>
        <time>2015-12-13T14:53:23Z</time>
      </trkpt>
      <trkpt lat="50.78165" lon="3.69997">
        <ele>98</ele>
        <time>2015-12-13T14:53:24Z</time>
      </trkpt>
      <trkpt lat="50.78163" lon="3.69999">
        <ele>98</ele>
        <time>2015-12-13T14:53:25Z</time>
      </trkpt>
      <trkpt lat="50.78161" lon="3.70002">
        <ele>98</ele>
        <time>2015-12-13T14:53:26Z</time>
      </trkpt>
      <trkpt lat="50.78159" lon="3.70005">
        <ele>98</ele>
        <time>2015-12-13T14:53:27Z</time>
      </trkpt>
      <trkpt lat="50.78157" lon="3.70008">
        <ele>98</ele>
        <time>2015-12-13T14:53:28Z</time>
      </trkpt>
      <trkpt lat="50.78155" lon="3.70011">
        <ele>98</ele>
        <time>2015-12-13T14:53:29Z</time>
      </trkpt>
      <trkpt lat="50.78153" lon="3.70014">
        <ele>98</ele>
        <time>2015-12-13T14:53:30Z</time>
      </trkpt>
      <trkpt lat="50.78152" lon="3.70017">
        <ele>98</ele>
        <time>2015-12-13T14:53:31Z</time>
      </trkpt>
      <trkpt lat="50.7815" lon="3.7002">
        <ele>98</ele>
        <time>2015-12-13T14:53:32Z</time>
      </trkpt>
      <trkpt lat="50.78148" lon="3.70022">
        <ele>98</ele>
        <time>2015-12-13T14:53:33Z</time>
      </trkpt>
      <trkpt lat="50.78146" lon="3.70025">
        <ele>98</ele>
        <time>2015-12-13T14:53:34Z</time>
      </trkpt>
      <trkpt lat="50.78144" lon="3.70028">
        <ele>98</ele>
        <time>2015-12-13T14:53:35Z</time>
      </trkpt>
      <trkpt lat="50.78142" lon="3.7003">
        <ele>98</ele>
        <time>2015-12-13T14:53:36Z</time>
      </trkpt>
      <trkpt lat="50.7814" lon="3.70033">
        <ele>98</ele>
        <time>2015-12-13T14:53:37Z</time>
      </trkpt>
      <trkpt lat="50.78139" lon="3.70036">
        <ele>98</ele>
        <time>2015-12-13T14:53:38Z</time>
      </trkpt>
      <trkpt lat="50.78137" lon="3.70039">
        <ele>98</ele>
        <time>2015-12-13T14:53:39Z</time>
      </trkpt>
      <trkpt lat="50.78135" lon="3.70042">
        <ele>98</ele>
        <time>2015-12-13T14:53:40Z</time>
      </trkpt>
      <trkpt lat="50.78133" lon="3.70045">
        <ele>98</ele>
        <time>2015-12-13T14:53:41Z</time>
      </trkpt>
      <trkpt lat="50.78131" lon="3.70048">
        <ele>98</ele>
        <time>2015-12-13T14:53:42Z</time>
      </trkpt>
      <trkpt lat="50.78129" lon="3.70051">
        <ele>98</ele>
        <time>2015-12-13T14:53:43Z</time>
      </trkpt>
      <trkpt lat="50.78128" lon="3.70053">
        <ele>98</ele>
        <time>2015-12-13T14:53:44Z</time>
      </trkpt>
      <trkpt lat="50.78126" lon="3.70056">
        <ele>98</ele>
        <time>2015-12-13T14:53:45Z</time>
      </trkpt>
      <trkpt lat="50.78124" lon="3.70059">
        <ele>98</ele>
        <time>2015-12-13T14:53:46Z</time>
      </trkpt>
      <trkpt lat="50.78122" lon="3.70062">
        <ele>98</ele>
        <time>2015-12-13T14:53:47Z</time>
      </trkpt>
      <trkpt lat="50.7812" lon="3.70065">
        <ele>98</ele>
        <time>2015-12-13T14:53:48Z</time>
      </trkpt>
      <trkpt lat="50.78118" lon="3.70068">
        <ele>98</ele>
        <time>2015-12-13T14:53:49Z</time>
      </trkpt>
      <trkpt lat="50.78116" lon="3.70071">
        <ele>98</ele>
        <time>2015-12-13T14:53:50Z</time>
      </trkpt>
      <trkpt lat="50.78114" lon="3.70073">
        <ele>98</ele>
        <time>2015-12-13T14:53:51Z</time>
      </trkpt>
      <trkpt lat="50.78112" lon="3.70076">
        <ele>97.3</ele>
        <time>2015-12-13T14:53:52Z</time>
      </trkpt>
      <trkpt lat="50.7811" lon="3.70079">
        <ele>97</ele>
        <time>2015-12-13T14:53:53Z</time>
      </trkpt>
      <trkpt lat="50.78108" lon="3.70082">
        <ele>97</ele>
        <time>2015-12-13T14:53:54Z</time>
      </trkpt>
      <trkpt lat="50.78106" lon="3.70085">
        <ele>97</ele>
        <time>2015-12-13T14:53:55Z</time>
      </trkpt>
      <trkpt lat="50.78105" lon="3.70087">
        <ele>97</ele>
        <time>2015-12-13T14:53:56Z</time>
      </trkpt>
      <trkpt lat="50.78103" lon="3.7009">
        <ele>97</ele>
        <time>2015-12-13T14:53:57Z</time>
      </trkpt>
      <trkpt lat="50.78101" lon="3.70093">
        <ele>97</ele>
        <time>2015-12-13T14:53:58Z</time>
      </trkpt>
      <trkpt lat="50.78099" lon="3.70096">
        <ele>97</ele>
        <time>2015-12-13T14:53:59Z</time>
      </trkpt>
      <trkpt lat="50.78097" lon="3.70099">
        <ele>97</ele>
        <time>2015-12-13T14:54:00Z</time>
      </trkpt>
      <trkpt lat="50.78095" lon="3.70102">
        <ele>95.6</ele>
        <time>2015-12-13T14:54:01Z</time>
      </trkpt>
      <trkpt lat="50.78093" lon="3.70105">
        <ele>95</ele>
        <time>2015-12-13T14:54:02Z</time>
      </trkpt>
      <trkpt lat="50.78091" lon="3.70108">
        <ele>95</ele>
        <time>2015-12-13T14:54:03Z</time>
      </trkpt>
      <trkpt lat="50.7809" lon="3.7011">
        <ele>95</ele>
        <time>2015-12-13T14:54:04Z</time>
      </trkpt>
      <trkpt lat="50.78088" lon="3.70113">
        <ele>95</ele>
        <time>2015-12-13T14:54:05Z</time>
      </trkpt>
      <trkpt lat="50.78086" lon="3.70116">
        <ele>95</ele>
        <time>2015-12-13T14:54:06Z</time>
      </trkpt>
      <trkpt lat="50.78084" lon="3.70118">
        <ele>95</ele>
        <time>2015-12-13T14:54:07Z</time>
      </trkpt>
      <trkpt lat="50.78083" lon="3.70121">
        <ele>95</ele>
        <time>2015-12-13T14:54:08Z</time>
      </trkpt>
      <trkpt lat="50.78081" lon="3.70124">
        <ele>95</ele>
        <time>2015-12-13T14:54:09Z</time>
      </trkpt>
      <trkpt lat="50.78079" lon="3.70126">
        <ele>95</ele>
        <time>2015-12-13T14:54:10Z</time>
      </trkpt>
      <trkpt lat="50.78077" lon="3.70129">
        <ele>94.3</ele>
        <time>2015-12-13T14:54:11Z</time>
      </trkpt>
      <trkpt lat="50.78075" lon="3.70132">
        <ele>94</ele>
        <time>2015-12-13T14:54:12Z</time>
      </trkpt>
      <trkpt lat="50.78073" lon="3.70134">
        <ele>94</ele>
        <time>2015-12-13T14:54:13Z</time>
      </trkpt>
      <trkpt lat="50.78071" lon="3.70137">
        <ele>94</ele>
        <time>2015-12-13T14:54:14Z</time>
      </trkpt>
      <trkpt lat="50.78069" lon="3.7014">
        <ele>94</ele>
        <time>2015-12-13T14:54:15Z</time>
      </trkpt>
      <trkpt lat="50.78067" lon="3.70143">
        <ele>93.8</ele>
        <time>2015-12-13T14:54:16Z</time>
      </trkpt>
      <trkpt lat="50.78065" lon="3.70146">
        <ele>93</ele>
        <time>2015-12-13T14:54:17Z</time>
      </trkpt>
      <trkpt lat="50.78063" lon="3.70148">
        <ele>93</ele>
        <time>2015-12-13T14:54:18Z</time>
      </trkpt>
      <trkpt lat="50.78061" lon="3.70151">
        <ele>93</ele>
        <time>2015-12-13T14:54:19Z</time>
      </trkpt>
      <trkpt lat="50.78059" lon="3.70154">
        <ele>93</ele>
        <time>2015-12-13T14:54:20Z</time>
      </trkpt>
      <trkpt lat="50.78058" lon="3.70157">
        <ele>92.3</ele>
        <time>2015-12-13T14:54:21Z</time>
      </trkpt>
      <trkpt lat="50.78056" lon="3.70159">
        <ele>92</ele>
        <time>2015-12-13T14:54:22Z</time>
      </trkpt>
      <trkpt lat="50.78054" lon="3.70162">
        <ele>92</ele>
        <time>2015-12-13T14:54:23Z</time>
      </trkpt>
      <trkpt lat="50.78052" lon="3.70165">
        <ele>92</ele>
        <time>2015-12-13T14:54:24Z</time>
      </trkpt>
      <trkpt lat="50.7805" lon="3.70168">
        <ele>92</ele>
        <time>2015-12-13T14:54:25Z</time>
      </trkpt>
      <trkpt lat="50.78048" lon="3.70171">
        <ele>92</ele>
        <time>2015-12-13T14:54:26Z</time>
      </trkpt>
      <trkpt lat="50.78046" lon="3.70173">
        <ele>92</ele>
        <time>2015-12-13T14:54:27Z</time>
      </trkpt>
      <trkpt lat="50.78044" lon="3.70176">
        <ele>92</ele>
        <time>2015-12-13T14:54:28Z</time>
      </trkpt>
      <trkpt lat="50.78043" lon="3.70179">
        <ele>92.7</ele>
        <time>2015-12-13T14:54:29Z</time>
      </trkpt>
      <trkpt lat="50.78041" lon="3.70182">
        <ele>93</ele>
        <time>2015-12-13T14:54:30Z</time>
      </trkpt>
      <trkpt lat="50.78039" lon="3.70185">
        <ele>92.3</ele>
        <time>2015-12-13T14:54:31Z</time>
      </trkpt>
      <trkpt lat="50.78037" lon="3.70188">
        <ele>92</ele>
        <time>2015-12-13T14:54:32Z</time>
      </trkpt>
      <trkpt lat="50.78035" lon="3.70191">
        <ele>92</ele>
        <time>2015-12-13T14:54:33Z</time>
      </trkpt>
      <trkpt lat="50.78033" lon="3.70194">
        <ele>92</ele>
        <time>2015-12-13T14:54:34Z</time>
      </trkpt>
      <trkpt lat="50.78031" lon="3.70196">
        <ele>92</ele>
        <time>2015-12-13T14:54:35Z</time>
      </trkpt>
      <trkpt lat="50.78029" lon="3.70199">
        <ele>92</ele>
        <time>2015-12-13T14:54:36Z</time>
      </trkpt>
      <trkpt lat="50.78027" lon="3.70202">
        <ele>92</ele>
        <time>2015-12-13T14:54:37Z</time>
      </trkpt>
      <trkpt lat="50.78025" lon="3.70205">
        <ele>92</ele>
        <time>2015-12-13T14:54:38Z</time>
      </trkpt>
      <trkpt lat="50.78023" lon="3.70207">
        <ele>92</ele>
        <time>2015-12-13T14:54:39Z</time>
      </trkpt>
      <trkpt lat="50.78021" lon="3.7021">
        <ele>92</ele>
        <time>2015-12-13T14:54:40Z</time>
      </trkpt>
      <trkpt lat="50.78019" lon="3.70213">
        <ele>92</ele>
        <time>2015-12-13T14:54:41Z</time>
      </trkpt>
      <trkpt lat="50.78017" lon="3.70216">
        <ele>92</ele>
        <time>2015-12-13T14:54:42Z</time>
      </trkpt>
      <trkpt lat="50.78016" lon="3.70219">
        <ele>92</ele>
        <time>2015-12-13T14:54:43Z</time>
      </trkpt>
      <trkpt lat="50.78014" lon="3.70221">
        <ele>92</ele>
        <time>2015-12-13T14:54:44Z</time>
      </trkpt>
      <trkpt lat="50.78012" lon="3.70224">
        <ele>92</ele>
        <time>2015-12-13T14:54:45Z</time>
      </trkpt>
      <trkpt lat="50.7801" lon="3.70227">
        <ele>92</ele>
        <time>2015-12-13T14:54:46Z</time>
      </trkpt>
      <trkpt lat="50.78008" lon="3.7023">
        <ele>92</ele>
        <time>2015-12-13T14:54:47Z</time>
      </trkpt>
      <trkpt lat="50.78006" lon="3.70232">
        <ele>92</ele>
        <time>2015-12-13T14:54:48Z</time>
      </trkpt>
      <trkpt lat="50.78004" lon="3.70235">
        <ele>92</ele>
        <time>2015-12-13T14:54:49Z</time>
      </trkpt>
      <trkpt lat="50.78002" lon="3.70237">
        <ele>92</ele>
        <time>2015-12-13T14:54:50Z</time>
      </trkpt>
      <trkpt lat="50.78" lon="3.7024">
        <ele>92</ele>
        <time>2015-12-13T14:54:51Z</time>
      </trkpt>
      <trkpt lat="50.77998" lon="3.70243">
        <ele>92</ele>
        <time>2015-12-13T14:54:52Z</time>
      </trkpt>
      <trkpt lat="50.77997" lon="3.70246">
        <ele>92</ele>
        <time>2015-12-13T14:54:53Z</time>
      </trkpt>
      <trkpt lat="50.77995" lon="3.70248">
        <ele>92</ele>
        <time>2015-12-13T14:54:54Z</time>
      </trkpt>
      <trkpt lat="50.77993" lon="3.70251">
        <ele>92</ele>
        <time>2015-12-13T14:54:55Z</time>
      </trkpt>
      <trkpt lat="50.77991" lon="3.70254">
        <ele>92</ele>
        <time>2015-12-13T14:54:56Z</time>
      </trkpt>
      <trkpt lat="50.77989" lon="3.70257">
        <ele>92</ele>
        <time>2015-12-13T14:54:57Z</time>
      </trkpt>
      <trkpt lat="50.77987" lon="3.7026">
        <ele>92</ele>
        <time>2015-12-13T14:54:58Z</time>
      </trkpt>
      <trkpt lat="50.77986" lon="3.70262">
        <ele>92</ele>
        <time>2015-12-13T14:54:59Z</time>
      </trkpt>
      <trkpt lat="50.77984" lon="3.70265">
        <ele>92</ele>
        <time>2015-12-13T14:55:00Z</time>
      </trkpt>
      <trkpt lat="50.77982" lon="3.70268">
        <ele>90.6</ele>
        <time>2015-12-13T14:55:01Z</time>
      </trkpt>
      <trkpt lat="50.7798" lon="3.7027">
        <ele>90</ele>
        <time>2015-12-13T14:55:02Z</time>
      </trkpt>
      <trkpt lat="50.77978" lon="3.70273">
        <ele>90</ele>
        <time>2015-12-13T14:55:03Z</time>
      </trkpt>
      <trkpt lat="50.77976" lon="3.70276">
        <ele>90</ele>
        <time>2015-12-13T14:55:04Z</time>
      </trkpt>
      <trkpt lat="50.77974" lon="3.70278">
        <ele>90</ele>
        <time>2015-12-13T14:55:05Z</time>
      </trkpt>
      <trkpt lat="50.77973" lon="3.7028">
        <ele>90</ele>
        <time>2015-12-13T14:55:06Z</time>
      </trkpt>
      <trkpt lat="50.77971" lon="3.70283">
        <ele>90</ele>
        <time>2015-12-13T14:55:07Z</time>
      </trkpt>
      <trkpt lat="50.77969" lon="3.70285">
        <ele>90</ele>
        <time>2015-12-13T14:55:08Z</time>
      </trkpt>
      <trkpt lat="50.77967" lon="3.70288">
        <ele>90</ele>
        <time>2015-12-13T14:55:09Z</time>
      </trkpt>
      <trkpt lat="50.77965" lon="3.7029">
        <ele>90</ele>
        <time>2015-12-13T14:55:10Z</time>
      </trkpt>
      <trkpt lat="50.77963" lon="3.70293">
        <ele>90</ele>
        <time>2015-12-13T14:55:11Z</time>
      </trkpt>
      <trkpt lat="50.77962" lon="3.70295">
        <ele>90</ele>
        <time>2015-12-13T14:55:12Z</time>
      </trkpt>
      <trkpt lat="50.7796" lon="3.70298">
        <ele>90</ele>
        <time>2015-12-13T14:55:13Z</time>
      </trkpt>
      <trkpt lat="50.77958" lon="3.70301">
        <ele>90</ele>
        <time>2015-12-13T14:55:14Z</time>
      </trkpt>
      <trkpt lat="50.77956" lon="3.70303">
        <ele>90</ele>
        <time>2015-12-13T14:55:15Z</time>
      </trkpt>
      <trkpt lat="50.77954" lon="3.70306">
        <ele>90</ele>
        <time>2015-12-13T14:55:16Z</time>
      </trkpt>
      <trkpt lat="50.77952" lon="3.70308">
        <ele>90</ele>
        <time>2015-12-13T14:55:17Z</time>
      </trkpt>
      <trkpt lat="50.77951" lon="3.70311">
        <ele>90</ele>
        <time>2015-12-13T14:55:18Z</time>
      </trkpt>
      <trkpt lat="50.77949" lon="3.70314">
        <ele>90</ele>
        <time>2015-12-13T14:55:19Z</time>
      </trkpt>
      <trkpt lat="50.77947" lon="3.70317">
        <ele>90</ele>
        <time>2015-12-13T14:55:20Z</time>
      </trkpt>
      <trkpt lat="50.77945" lon="3.7032">
        <ele>89.3</ele>
        <time>2015-12-13T14:55:21Z</time>
      </trkpt>
      <trkpt lat="50.77943" lon="3.70322">
        <ele>89</ele>
        <time>2015-12-13T14:55:22Z</time>
      </trkpt>
      <trkpt lat="50.77941" lon="3.70325">
        <ele>89</ele>
        <time>2015-12-13T14:55:23Z</time>
      </trkpt>
      <trkpt lat="50.77939" lon="3.70328">
        <ele>89</ele>
        <time>2015-12-13T14:55:24Z</time>
      </trkpt>
      <trkpt lat="50.77938" lon="3.70331">
        <ele>89</ele>
        <time>2015-12-13T14:55:25Z</time>
      </trkpt>
      <trkpt lat="50.77936" lon="3.70334">
        <ele>89</ele>
        <time>2015-12-13T14:55:26Z</time>
      </trkpt>
      <trkpt lat="50.77934" lon="3.70336">
        <ele>89</ele>
        <time>2015-12-13T14:55:27Z</time>
      </trkpt>
      <trkpt lat="50.77932" lon="3.70339">
        <ele>89</ele>
        <time>2015-12-13T14:55:28Z</time>
      </trkpt>
      <trkpt lat="50.7793" lon="3.70342">
        <ele>89</ele>
        <time>2015-12-13T14:55:29Z</time>
      </trkpt>
      <trkpt lat="50.77928" lon="3.70345">
        <ele>89</ele>
        <time>2015-12-13T14:55:30Z</time>
      </trkpt>
      <trkpt lat="50.77926" lon="3.70348">
        <ele>87.9</ele>
        <time>2015-12-13T14:55:31Z</time>
      </trkpt>
      <trkpt lat="50.77924" lon="3.70351">
        <ele>87</ele>
        <time>2015-12-13T14:55:32Z</time>
      </trkpt>
      <trkpt lat="50.77922" lon="3.70354">
        <ele>87</ele>
        <time>2015-12-13T14:55:33Z</time>
      </trkpt>
      <trkpt lat="50.7792" lon="3.70357">
        <ele>87</ele>
        <time>2015-12-13T14:55:34Z</time>
      </trkpt>
      <trkpt lat="50.77918" lon="3.7036">
        <ele>87</ele>
        <time>2015-12-13T14:55:35Z</time>
      </trkpt>
      <trkpt lat="50.77916" lon="3.70363">
        <ele>85.6</ele>
        <time>2015-12-13T14:55:36Z</time>
      </trkpt>
      <trkpt lat="50.77915" lon="3.70366">
        <ele>85</ele>
        <time>2015-12-13T14:55:37Z</time>
      </trkpt>
      <trkpt lat="50.77912" lon="3.70369">
        <ele>85</ele>
        <time>2015-12-13T14:55:38Z</time>
      </trkpt>
      <trkpt lat="50.7791" lon="3.70371">
        <ele>85</ele>
        <time>2015-12-13T14:55:39Z</time>
      </trkpt>
      <trkpt lat="50.77909" lon="3.70374">
        <ele>85</ele>
        <time>2015-12-13T14:55:40Z</time>
      </trkpt>
      <trkpt lat="50.77906" lon="3.70378">
        <ele>84</ele>
        <time>2015-12-13T14:55:42Z</time>
      </trkpt>
      <trkpt lat="50.77905" lon="3.70381">
        <ele>84</ele>
        <time>2015-12-13T14:55:43Z</time>
      </trkpt>
      <trkpt lat="50.77903" lon="3.70383">
        <ele>84</ele>
        <time>2015-12-13T14:55:44Z</time>
      </trkpt>
      <trkpt lat="50.77902" lon="3.70386">
        <ele>84</ele>
        <time>2015-12-13T14:55:45Z</time>
      </trkpt>
      <trkpt lat="50.77901" lon="3.70388">
        <ele>84</ele>
        <time>2015-12-13T14:55:46Z</time>
      </trkpt>
      <trkpt lat="50.77898" lon="3.70391">
        <ele>84</ele>
        <time>2015-12-13T14:55:48Z</time>
      </trkpt>
      <trkpt lat="50.77897" lon="3.70394">
        <ele>84</ele>
        <time>2015-12-13T14:55:50Z</time>
      </trkpt>
      <trkpt lat="50.77895" lon="3.70396">
        <ele>84</ele>
        <time>2015-12-13T14:55:51Z</time>
      </trkpt>
      <trkpt lat="50.77893" lon="3.70399">
        <ele>84</ele>
        <time>2015-12-13T14:55:53Z</time>
      </trkpt>
      <trkpt lat="50.77891" lon="3.70402">
        <ele>84</ele>
        <time>2015-12-13T14:55:55Z</time>
      </trkpt>
      <trkpt lat="50.77888" lon="3.70406">
        <ele>84</ele>
        <time>2015-12-13T14:55:57Z</time>
      </trkpt>
      <trkpt lat="50.77886" lon="3.70409">
        <ele>84</ele>
        <time>2015-12-13T14:55:59Z</time>
      </trkpt>
      <trkpt lat="50.77884" lon="3.70413">
        <ele>82.9</ele>
        <time>2015-12-13T14:56:01Z</time>
      </trkpt>
      <trkpt lat="50.77881" lon="3.70416">
        <ele>82</ele>
        <time>2015-12-13T14:56:03Z</time>
      </trkpt>
      <trkpt lat="50.77879" lon="3.70419">
        <ele>82</ele>
        <time>2015-12-13T14:56:05Z</time>
      </trkpt>
      <trkpt lat="50.77877" lon="3.70423">
        <ele>82</ele>
        <time>2015-12-13T14:56:07Z</time>
      </trkpt>
      <trkpt lat="50.77875" lon="3.70426">
        <ele>82</ele>
        <time>2015-12-13T14:56:09Z</time>
      </trkpt>
      <trkpt lat="50.77874" lon="3.70428">
        <ele>81.3</ele>
        <time>2015-12-13T14:56:11Z</time>
      </trkpt>
      <trkpt lat="50.77875" lon="3.70431">
        <ele>81</ele>
        <time>2015-12-13T14:56:13Z</time>
      </trkpt>
      <trkpt lat="50.77875" lon="3.70435">
        <ele>81</ele>
        <time>2015-12-13T14:56:15Z</time>
      </trkpt>
      <trkpt lat="50.77873" lon="3.70436">
        <ele>81</ele>
        <time>2015-12-13T14:56:17Z</time>
      </trkpt>
      <trkpt lat="50.77871" lon="3.70438">
        <ele>81</ele>
        <time>2015-12-13T14:56:20Z</time>
      </trkpt>
      <trkpt lat="50.77869" lon="3.70446">
        <ele>80</ele>
        <time>2015-12-13T14:56:33Z</time>
      </trkpt>
      <trkpt lat="50.77869" lon="3.70449">
        <ele>80</ele>
        <time>2015-12-13T14:56:38Z</time>
      </trkpt>
      <trkpt lat="50.7787" lon="3.70453">
        <ele>79.3</ele>
        <time>2015-12-13T14:56:41Z</time>
      </trkpt>
      <trkpt lat="50.7787" lon="3.70457">
        <ele>79</ele>
        <time>2015-12-13T14:56:43Z</time>
      </trkpt>
      <trkpt lat="50.77871" lon="3.7046">
        <ele>79</ele>
        <time>2015-12-13T14:56:45Z</time>
      </trkpt>
      <trkpt lat="50.77872" lon="3.70464">
        <ele>79</ele>
        <time>2015-12-13T14:56:47Z</time>
      </trkpt>
      <trkpt lat="50.77873" lon="3.70466">
        <ele>79</ele>
        <time>2015-12-13T14:56:49Z</time>
      </trkpt>
      <trkpt lat="50.77874" lon="3.7047">
        <ele>78</ele>
        <time>2015-12-13T14:56:52Z</time>
      </trkpt>
      <trkpt lat="50.77873" lon="3.70474">
        <ele>78</ele>
        <time>2015-12-13T14:56:54Z</time>
      </trkpt>
      <trkpt lat="50.7787" lon="3.70478">
        <ele>78</ele>
        <time>2015-12-13T14:56:56Z</time>
      </trkpt>
      <trkpt lat="50.77868" lon="3.70481">
        <ele>78</ele>
        <time>2015-12-13T14:56:58Z</time>
      </trkpt>
      <trkpt lat="50.77868" lon="3.70484">
        <ele>78</ele>
        <time>2015-12-13T14:57:00Z</time>
      </trkpt>
      <trkpt lat="50.77867" lon="3.70487">
        <ele>76</ele>
        <time>2015-12-13T14:57:02Z</time>
      </trkpt>
      <trkpt lat="50.77865" lon="3.70491">
        <ele>76</ele>
        <time>2015-12-13T14:57:04Z</time>
      </trkpt>
      <trkpt lat="50.77863" lon="3.70493">
        <ele>76</ele>
        <time>2015-12-13T14:57:06Z</time>
      </trkpt>
      <trkpt lat="50.77862" lon="3.70495">
        <ele>76</ele>
        <time>2015-12-13T14:57:08Z</time>
      </trkpt>
      <trkpt lat="50.77861" lon="3.70498">
        <ele>75.3</ele>
        <time>2015-12-13T14:57:11Z</time>
      </trkpt>
      <trkpt lat="50.7786" lon="3.70503">
        <ele>75</ele>
        <time>2015-12-13T14:57:14Z</time>
      </trkpt>
      <trkpt lat="50.77858" lon="3.70506">
        <ele>75</ele>
        <time>2015-12-13T14:57:16Z</time>
      </trkpt>
      <trkpt lat="50.77857" lon="3.7051">
        <ele>75</ele>
        <time>2015-12-13T14:57:19Z</time>
      </trkpt>
      <trkpt lat="50.77856" lon="3.70513">
        <ele>73</ele>
        <time>2015-12-13T14:57:21Z</time>
      </trkpt>
      <trkpt lat="50.77854" lon="3.70515">
        <ele>72</ele>
        <time>2015-12-13T14:57:22Z</time>
      </trkpt>
      <trkpt lat="50.77852" lon="3.70517">
        <ele>72</ele>
        <time>2015-12-13T14:57:23Z</time>
      </trkpt>
      <trkpt lat="50.77851" lon="3.70519">
        <ele>72</ele>
        <time>2015-12-13T14:57:24Z</time>
      </trkpt>
      <trkpt lat="50.7785" lon="3.70522">
        <ele>72</ele>
        <time>2015-12-13T14:57:26Z</time>
      </trkpt>
      <trkpt lat="50.77851" lon="3.70525">
        <ele>72</ele>
        <time>2015-12-13T14:57:29Z</time>
      </trkpt>
      <trkpt lat="50.77852" lon="3.70527">
        <ele>70.6</ele>
        <time>2015-12-13T14:57:31Z</time>
      </trkpt>
      <trkpt lat="50.77853" lon="3.70531">
        <ele>70</ele>
        <time>2015-12-13T14:57:33Z</time>
      </trkpt>
      <trkpt lat="50.77851" lon="3.70534">
        <ele>70</ele>
        <time>2015-12-13T14:57:35Z</time>
      </trkpt>
      <trkpt lat="50.77851" lon="3.70537">
        <ele>69</ele>
        <time>2015-12-13T14:57:37Z</time>
      </trkpt>
      <trkpt lat="50.77853" lon="3.70541">
        <ele>69</ele>
        <time>2015-12-13T14:57:40Z</time>
      </trkpt>
      <trkpt lat="50.77853" lon="3.70544">
        <ele>69</ele>
        <time>2015-12-13T14:57:42Z</time>
      </trkpt>
      <trkpt lat="50.7785" lon="3.7055">
        <ele>68.3</ele>
        <time>2015-12-13T14:57:51Z</time>
      </trkpt>
      <trkpt lat="50.77849" lon="3.70553">
        <ele>68</ele>
        <time>2015-12-13T14:57:54Z</time>
      </trkpt>
      <trkpt lat="50.77845" lon="3.70555">
        <ele>68</ele>
        <time>2015-12-13T14:58:02Z</time>
      </trkpt>
      <trkpt lat="50.77842" lon="3.70555">
        <ele>68</ele>
        <time>2015-12-13T14:58:05Z</time>
      </trkpt>
      <trkpt lat="50.77838" lon="3.70551">
        <ele>68</ele>
        <time>2015-12-13T14:58:09Z</time>
      </trkpt>
      <trkpt lat="50.77837" lon="3.70549">
        <ele>69</ele>
        <time>2015-12-13T14:58:12Z</time>
      </trkpt>
      <trkpt lat="50.77834" lon="3.70542">
        <ele>69</ele>
        <time>2015-12-13T14:58:29Z</time>
      </trkpt>
      <trkpt lat="50.77833" lon="3.70539">
        <ele>70</ele>
        <time>2015-12-13T14:58:32Z</time>
      </trkpt>
      <trkpt lat="50.77833" lon="3.70535">
        <ele>70</ele>
        <time>2015-12-13T14:58:35Z</time>
      </trkpt>
      <trkpt lat="50.77832" lon="3.70542">
        <ele>71</ele>
        <time>2015-12-13T14:58:47Z</time>
      </trkpt>
      <trkpt lat="50.77833" lon="3.70544">
        <ele>71</ele>
        <time>2015-12-13T14:58:50Z</time>
      </trkpt>
      <trkpt lat="50.77834" lon="3.70552">
        <ele>72</ele>
        <time>2015-12-13T14:58:59Z</time>
      </trkpt>
      <trkpt lat="50.77833" lon="3.70555">
        <ele>73</ele>
        <time>2015-12-13T14:59:02Z</time>
      </trkpt>
      <trkpt lat="50.77833" lon="3.70561">
        <ele>73</ele>
        <time>2015-12-13T14:59:08Z</time>
      </trkpt>
      <trkpt lat="50.77834" lon="3.70564">
        <ele>73</ele>
        <time>2015-12-13T14:59:10Z</time>
      </trkpt>
      <trkpt lat="50.77835" lon="3.70567">
        <ele>73</ele>
        <time>2015-12-13T14:59:12Z</time>
      </trkpt>
      <trkpt lat="50.77836" lon="3.7057">
        <ele>73</ele>
        <time>2015-12-13T14:59:14Z</time>
      </trkpt>
      <trkpt lat="50.77837" lon="3.70573">
        <ele>73</ele>
        <time>2015-12-13T14:59:16Z</time>
      </trkpt>
      <trkpt lat="50.77835" lon="3.70578">
        <ele>73</ele>
        <time>2015-12-13T14:59:19Z</time>
      </trkpt>
      <trkpt lat="50.77833" lon="3.7058">
        <ele>74.4</ele>
        <time>2015-12-13T14:59:21Z</time>
      </trkpt>
      <trkpt lat="50.77833" lon="3.70584">
        <ele>75</ele>
        <time>2015-12-13T14:59:23Z</time>
      </trkpt>
      <trkpt lat="50.77831" lon="3.70587">
        <ele>75</ele>
        <time>2015-12-13T14:59:25Z</time>
      </trkpt>
      <trkpt lat="50.77828" lon="3.70589">
        <ele>75</ele>
        <time>2015-12-13T14:59:27Z</time>
      </trkpt>
      <trkpt lat="50.77826" lon="3.70591">
        <ele>75</ele>
        <time>2015-12-13T14:59:29Z</time>
      </trkpt>
      <trkpt lat="50.77823" lon="3.70593">
        <ele>75</ele>
        <time>2015-12-13T14:59:31Z</time>
      </trkpt>
      <trkpt lat="50.77821" lon="3.70596">
        <ele>75</ele>
        <time>2015-12-13T14:59:33Z</time>
      </trkpt>
      <trkpt lat="50.77819" lon="3.70599">
        <ele>75</ele>
        <time>2015-12-13T14:59:36Z</time>
      </trkpt>
      <trkpt lat="50.77817" lon="3.70603">
        <ele>75</ele>
        <time>2015-12-13T14:59:38Z</time>
      </trkpt>
      <trkpt lat="50.77816" lon="3.70605">
        <ele>75</ele>
        <time>2015-12-13T14:59:40Z</time>
      </trkpt>
      <trkpt lat="50.77814" lon="3.70608">
        <ele>76</ele>
        <time>2015-12-13T14:59:42Z</time>
      </trkpt>
      <trkpt lat="50.77812" lon="3.70611">
        <ele>76</ele>
        <time>2015-12-13T14:59:45Z</time>
      </trkpt>
      <trkpt lat="50.77811" lon="3.70614">
        <ele>76</ele>
        <time>2015-12-13T14:59:46Z</time>
      </trkpt>
      <trkpt lat="50.7781" lon="3.70617">
        <ele>76</ele>
        <time>2015-12-13T14:59:47Z</time>
      </trkpt>
      <trkpt lat="50.77808" lon="3.70619">
        <ele>76</ele>
        <time>2015-12-13T14:59:49Z</time>
      </trkpt>
      <trkpt lat="50.77806" lon="3.70621">
        <ele>76.7</ele>
        <time>2015-12-13T14:59:51Z</time>
      </trkpt>
      <trkpt lat="50.77804" lon="3.70623">
        <ele>77</ele>
        <time>2015-12-13T14:59:53Z</time>
      </trkpt>
      <trkpt lat="50.77802" lon="3.70624">
        <ele>77</ele>
        <time>2015-12-13T14:59:55Z</time>
      </trkpt>
      <trkpt lat="50.778" lon="3.70628">
        <ele>77</ele>
        <time>2015-12-13T14:59:57Z</time>
      </trkpt>
      <trkpt lat="50.77799" lon="3.7063">
        <ele>77</ele>
        <time>2015-12-13T14:59:59Z</time>
      </trkpt>
      <trkpt lat="50.77797" lon="3.70634">
        <ele>77</ele>
        <time>2015-12-13T15:00:01Z</time>
      </trkpt>
      <trkpt lat="50.77796" lon="3.70636">
        <ele>77</ele>
        <time>2015-12-13T15:00:03Z</time>
      </trkpt>
      <trkpt lat="50.77794" lon="3.7064">
        <ele>77</ele>
        <time>2015-12-13T15:00:05Z</time>
      </trkpt>
      <trkpt lat="50.77792" lon="3.70642">
        <ele>77</ele>
        <time>2015-12-13T15:00:07Z</time>
      </trkpt>
      <trkpt lat="50.7779" lon="3.70645">
        <ele>77</ele>
        <time>2015-12-13T15:00:09Z</time>
      </trkpt>
      <trkpt lat="50.7779" lon="3.70648">
        <ele>77</ele>
        <time>2015-12-13T15:00:12Z</time>
      </trkpt>
      <trkpt lat="50.77788" lon="3.7065">
        <ele>77</ele>
        <time>2015-12-13T15:00:14Z</time>
      </trkpt>
      <trkpt lat="50.77786" lon="3.70653">
        <ele>77</ele>
        <time>2015-12-13T15:00:18Z</time>
      </trkpt>
      <trkpt lat="50.77784" lon="3.70655">
        <ele>77</ele>
        <time>2015-12-13T15:00:20Z</time>
      </trkpt>
      <trkpt lat="50.77782" lon="3.70657">
        <ele>79.7</ele>
        <time>2015-12-13T15:00:22Z</time>
      </trkpt>
      <trkpt lat="50.77777" lon="3.70661">
        <ele>81</ele>
        <time>2015-12-13T15:00:31Z</time>
      </trkpt>
      <trkpt lat="50.77775" lon="3.70664">
        <ele>82</ele>
        <time>2015-12-13T15:00:33Z</time>
      </trkpt>
      <trkpt lat="50.77772" lon="3.70667">
        <ele>82</ele>
        <time>2015-12-13T15:00:40Z</time>
      </trkpt>
      <trkpt lat="50.77771" lon="3.70669">
        <ele>84</ele>
        <time>2015-12-13T15:00:44Z</time>
      </trkpt>
      <trkpt lat="50.77769" lon="3.70673">
        <ele>84</ele>
        <time>2015-12-13T15:00:49Z</time>
      </trkpt>
      <trkpt lat="50.77767" lon="3.70675">
        <ele>84</ele>
        <time>2015-12-13T15:00:51Z</time>
      </trkpt>
      <trkpt lat="50.77768" lon="3.70659">
        <ele>85</ele>
        <time>2015-12-13T15:01:07Z</time>
      </trkpt>
      <trkpt lat="50.77772" lon="3.70662">
        <ele>85</ele>
        <time>2015-12-13T15:01:15Z</time>
      </trkpt>
      <trkpt lat="50.77771" lon="3.70664">
        <ele>85</ele>
        <time>2015-12-13T15:01:16Z</time>
      </trkpt>
      <trkpt lat="50.77768" lon="3.70668">
        <ele>85</ele>
        <time>2015-12-13T15:01:18Z</time>
      </trkpt>
      <trkpt lat="50.77764" lon="3.70674">
        <ele>85</ele>
        <time>2015-12-13T15:01:21Z</time>
      </trkpt>
      <trkpt lat="50.77762" lon="3.70676">
        <ele>85</ele>
        <time>2015-12-13T15:01:22Z</time>
      </trkpt>
      <trkpt lat="50.7776" lon="3.70679">
        <ele>85</ele>
        <time>2015-12-13T15:01:23Z</time>
      </trkpt>
      <trkpt lat="50.77758" lon="3.70682">
        <ele>85</ele>
        <time>2015-12-13T15:01:25Z</time>
      </trkpt>
      <trkpt lat="50.77756" lon="3.70685">
        <ele>85</ele>
        <time>2015-12-13T15:01:27Z</time>
      </trkpt>
      <trkpt lat="50.77754" lon="3.70687">
        <ele>85</ele>
        <time>2015-12-13T15:01:29Z</time>
      </trkpt>
      <trkpt lat="50.77752" lon="3.70689">
        <ele>85.7</ele>
        <time>2015-12-13T15:01:31Z</time>
      </trkpt>
      <trkpt lat="50.7775" lon="3.70691">
        <ele>86</ele>
        <time>2015-12-13T15:01:34Z</time>
      </trkpt>
      <trkpt lat="50.77746" lon="3.70697">
        <ele>86</ele>
        <time>2015-12-13T15:01:39Z</time>
      </trkpt>
      <trkpt lat="50.77745" lon="3.70699">
        <ele>86.7</ele>
        <time>2015-12-13T15:01:41Z</time>
      </trkpt>
      <trkpt lat="50.77745" lon="3.70707">
        <ele>87</ele>
        <time>2015-12-13T15:01:47Z</time>
      </trkpt>
      <trkpt lat="50.77745" lon="3.7071">
        <ele>87</ele>
        <time>2015-12-13T15:01:49Z</time>
      </trkpt>
      <trkpt lat="50.77744" lon="3.70715">
        <ele>88</ele>
        <time>2015-12-13T15:01:52Z</time>
      </trkpt>
      <trkpt lat="50.77742" lon="3.70718">
        <ele>88</ele>
        <time>2015-12-13T15:01:54Z</time>
      </trkpt>
      <trkpt lat="50.7774" lon="3.70721">
        <ele>88</ele>
        <time>2015-12-13T15:01:56Z</time>
      </trkpt>
      <trkpt lat="50.77738" lon="3.70722">
        <ele>88</ele>
        <time>2015-12-13T15:01:57Z</time>
      </trkpt>
      <trkpt lat="50.77736" lon="3.70725">
        <ele>88</ele>
        <time>2015-12-13T15:01:59Z</time>
      </trkpt>
      <trkpt lat="50.77735" lon="3.70727">
        <ele>88.7</ele>
        <time>2015-12-13T15:02:01Z</time>
      </trkpt>
      <trkpt lat="50.77733" lon="3.70731">
        <ele>89</ele>
        <time>2015-12-13T15:02:03Z</time>
      </trkpt>
      <trkpt lat="50.77729" lon="3.70736">
        <ele>89.5</ele>
        <time>2015-12-13T15:02:11Z</time>
      </trkpt>
      <trkpt lat="50.77727" lon="3.70738">
        <ele>90</ele>
        <time>2015-12-13T15:02:13Z</time>
      </trkpt>
      <trkpt lat="50.77718" lon="3.70744">
        <ele>90</ele>
        <time>2015-12-13T15:02:21Z</time>
      </trkpt>
      <trkpt lat="50.77716" lon="3.70747">
        <ele>90</ele>
        <time>2015-12-13T15:02:24Z</time>
      </trkpt>
      <trkpt lat="50.77715" lon="3.70756">
        <ele>90</ele>
        <time>2015-12-13T15:02:30Z</time>
      </trkpt>
      <trkpt lat="50.77713" lon="3.70758">
        <ele>91</ele>
        <time>2015-12-13T15:02:32Z</time>
      </trkpt>
      <trkpt lat="50.77712" lon="3.70761">
        <ele>91</ele>
        <time>2015-12-13T15:02:34Z</time>
      </trkpt>
      <trkpt lat="50.77712" lon="3.70764">
        <ele>91</ele>
        <time>2015-12-13T15:02:36Z</time>
      </trkpt>
      <trkpt lat="50.77711" lon="3.70768">
        <ele>91</ele>
        <time>2015-12-13T15:02:38Z</time>
      </trkpt>
      <trkpt lat="50.77711" lon="3.70772">
        <ele>91</ele>
        <time>2015-12-13T15:02:40Z</time>
      </trkpt>
      <trkpt lat="50.7771" lon="3.70775">
        <ele>91</ele>
        <time>2015-12-13T15:02:42Z</time>
      </trkpt>
      <trkpt lat="50.77709" lon="3.70779">
        <ele>91</ele>
        <time>2015-12-13T15:02:44Z</time>
      </trkpt>
      <trkpt lat="50.77708" lon="3.70782">
        <ele>91</ele>
        <time>2015-12-13T15:02:46Z</time>
      </trkpt>
      <trkpt lat="50.77708" lon="3.70786">
        <ele>91</ele>
        <time>2015-12-13T15:02:48Z</time>
      </trkpt>
      <trkpt lat="50.77705" lon="3.70792">
        <ele>90</ele>
        <time>2015-12-13T15:02:53Z</time>
      </trkpt>
      <trkpt lat="50.77703" lon="3.70795">
        <ele>90</ele>
        <time>2015-12-13T15:02:55Z</time>
      </trkpt>
      <trkpt lat="50.77701" lon="3.70797">
        <ele>90</ele>
        <time>2015-12-13T15:02:57Z</time>
      </trkpt>
      <trkpt lat="50.77701" lon="3.708">
        <ele>90</ele>
        <time>2015-12-13T15:02:59Z</time>
      </trkpt>
      <trkpt lat="50.777" lon="3.70803">
        <ele>90.7</ele>
        <time>2015-12-13T15:03:01Z</time>
      </trkpt>
      <trkpt lat="50.77698" lon="3.70806">
        <ele>91</ele>
        <time>2015-12-13T15:03:03Z</time>
      </trkpt>
      <trkpt lat="50.77696" lon="3.70808">
        <ele>91</ele>
        <time>2015-12-13T15:03:05Z</time>
      </trkpt>
      <trkpt lat="50.77694" lon="3.70812">
        <ele>91</ele>
        <time>2015-12-13T15:03:07Z</time>
      </trkpt>
      <trkpt lat="50.77694" lon="3.70816">
        <ele>91</ele>
        <time>2015-12-13T15:03:09Z</time>
      </trkpt>
      <trkpt lat="50.77693" lon="3.70821">
        <ele>91.7</ele>
        <time>2015-12-13T15:03:11Z</time>
      </trkpt>
      <trkpt lat="50.77694" lon="3.70824">
        <ele>92</ele>
        <time>2015-12-13T15:03:14Z</time>
      </trkpt>
      <trkpt lat="50.77693" lon="3.70827">
        <ele>92</ele>
        <time>2015-12-13T15:03:16Z</time>
      </trkpt>
      <trkpt lat="50.77694" lon="3.7083">
        <ele>92</ele>
        <time>2015-12-13T15:03:18Z</time>
      </trkpt>
      <trkpt lat="50.77694" lon="3.70833">
        <ele>92</ele>
        <time>2015-12-13T15:03:20Z</time>
      </trkpt>
      <trkpt lat="50.77693" lon="3.70838">
        <ele>92</ele>
        <time>2015-12-13T15:03:22Z</time>
      </trkpt>
      <trkpt lat="50.77692" lon="3.70842">
        <ele>92</ele>
        <time>2015-12-13T15:03:24Z</time>
      </trkpt>
      <trkpt lat="50.7769" lon="3.70843">
        <ele>92</ele>
        <time>2015-12-13T15:03:25Z</time>
      </trkpt>
      <trkpt lat="50.77687" lon="3.70843">
        <ele>92</ele>
        <time>2015-12-13T15:03:26Z</time>
      </trkpt>
      <trkpt lat="50.77685" lon="3.70843">
        <ele>92</ele>
        <time>2015-12-13T15:03:27Z</time>
      </trkpt>
      <trkpt lat="50.77682" lon="3.70843">
        <ele>92</ele>
        <time>2015-12-13T15:03:29Z</time>
      </trkpt>
      <trkpt lat="50.77679" lon="3.70842">
        <ele>92</ele>
        <time>2015-12-13T15:03:31Z</time>
      </trkpt>
      <trkpt lat="50.77677" lon="3.70841">
        <ele>92</ele>
        <time>2015-12-13T15:03:32Z</time>
      </trkpt>
      <trkpt lat="50.77675" lon="3.7084">
        <ele>92</ele>
        <time>2015-12-13T15:03:33Z</time>
      </trkpt>
      <trkpt lat="50.77672" lon="3.70839">
        <ele>92</ele>
        <time>2015-12-13T15:03:35Z</time>
      </trkpt>
      <trkpt lat="50.77669" lon="3.70839">
        <ele>92</ele>
        <time>2015-12-13T15:03:37Z</time>
      </trkpt>
      <trkpt lat="50.77666" lon="3.70839">
        <ele>92</ele>
        <time>2015-12-13T15:03:39Z</time>
      </trkpt>
      <trkpt lat="50.77665" lon="3.70839">
        <ele>92</ele>
        <time>2015-12-13T15:03:40Z</time>
      </trkpt>
      <trkpt lat="50.77663" lon="3.7084">
        <ele>92</ele>
        <time>2015-12-13T15:03:41Z</time>
      </trkpt>
      <trkpt lat="50.7766" lon="3.70839">
        <ele>92</ele>
        <time>2015-12-13T15:03:43Z</time>
      </trkpt>
      <trkpt lat="50.77658" lon="3.70839">
        <ele>92</ele>
        <time>2015-12-13T15:03:45Z</time>
      </trkpt>
      <trkpt lat="50.77655" lon="3.70838">
        <ele>92</ele>
        <time>2015-12-13T15:03:47Z</time>
      </trkpt>
      <trkpt lat="50.77652" lon="3.70838">
        <ele>92</ele>
        <time>2015-12-13T15:03:49Z</time>
      </trkpt>
      <trkpt lat="50.77649" lon="3.7084">
        <ele>92.7</ele>
        <time>2015-12-13T15:03:51Z</time>
      </trkpt>
      <trkpt lat="50.77647" lon="3.70838">
        <ele>93</ele>
        <time>2015-12-13T15:03:53Z</time>
      </trkpt>
      <trkpt lat="50.77645" lon="3.70837">
        <ele>93</ele>
        <time>2015-12-13T15:03:55Z</time>
      </trkpt>
      <trkpt lat="50.77643" lon="3.70836">
        <ele>93</ele>
        <time>2015-12-13T15:03:57Z</time>
      </trkpt>
      <trkpt lat="50.77641" lon="3.70835">
        <ele>93</ele>
        <time>2015-12-13T15:03:59Z</time>
      </trkpt>
      <trkpt lat="50.77639" lon="3.70839">
        <ele>94</ele>
        <time>2015-12-13T15:04:08Z</time>
      </trkpt>
      <trkpt lat="50.77638" lon="3.70845">
        <ele>94</ele>
        <time>2015-12-13T15:04:10Z</time>
      </trkpt>
      <trkpt lat="50.77637" lon="3.70848">
        <ele>94</ele>
        <time>2015-12-13T15:04:11Z</time>
      </trkpt>
      <trkpt lat="50.77636" lon="3.70851">
        <ele>94</ele>
        <time>2015-12-13T15:04:12Z</time>
      </trkpt>
      <trkpt lat="50.77635" lon="3.70854">
        <ele>94</ele>
        <time>2015-12-13T15:04:13Z</time>
      </trkpt>
      <trkpt lat="50.77635" lon="3.70859">
        <ele>94</ele>
        <time>2015-12-13T15:04:15Z</time>
      </trkpt>
      <trkpt lat="50.77634" lon="3.70863">
        <ele>94</ele>
        <time>2015-12-13T15:04:17Z</time>
      </trkpt>
      <trkpt lat="50.77634" lon="3.70867">
        <ele>94</ele>
        <time>2015-12-13T15:04:19Z</time>
      </trkpt>
      <trkpt lat="50.77634" lon="3.7087">
        <ele>94</ele>
        <time>2015-12-13T15:04:21Z</time>
      </trkpt>
      <trkpt lat="50.77632" lon="3.70872">
        <ele>94</ele>
        <time>2015-12-13T15:04:23Z</time>
      </trkpt>
      <trkpt lat="50.77631" lon="3.70876">
        <ele>94</ele>
        <time>2015-12-13T15:04:28Z</time>
      </trkpt>
      <trkpt lat="50.7763" lon="3.70879">
        <ele>94</ele>
        <time>2015-12-13T15:04:30Z</time>
      </trkpt>
      <trkpt lat="50.77628" lon="3.70883">
        <ele>95</ele>
        <time>2015-12-13T15:04:32Z</time>
      </trkpt>
      <trkpt lat="50.77626" lon="3.70886">
        <ele>95</ele>
        <time>2015-12-13T15:04:34Z</time>
      </trkpt>
      <trkpt lat="50.77624" lon="3.7089">
        <ele>95</ele>
        <time>2015-12-13T15:04:36Z</time>
      </trkpt>
      <trkpt lat="50.77622" lon="3.70894">
        <ele>95</ele>
        <time>2015-12-13T15:04:38Z</time>
      </trkpt>
      <trkpt lat="50.7762" lon="3.70898">
        <ele>95</ele>
        <time>2015-12-13T15:04:40Z</time>
      </trkpt>
      <trkpt lat="50.77619" lon="3.70902">
        <ele>96</ele>
        <time>2015-12-13T15:04:42Z</time>
      </trkpt>
      <trkpt lat="50.77618" lon="3.70906">
        <ele>96</ele>
        <time>2015-12-13T15:04:44Z</time>
      </trkpt>
      <trkpt lat="50.77617" lon="3.70909">
        <ele>96</ele>
        <time>2015-12-13T15:04:46Z</time>
      </trkpt>
      <trkpt lat="50.77615" lon="3.70913">
        <ele>96</ele>
        <time>2015-12-13T15:04:48Z</time>
      </trkpt>
      <trkpt lat="50.77614" lon="3.70917">
        <ele>96</ele>
        <time>2015-12-13T15:04:50Z</time>
      </trkpt>
      <trkpt lat="50.77612" lon="3.70919">
        <ele>97</ele>
        <time>2015-12-13T15:04:52Z</time>
      </trkpt>
      <trkpt lat="50.77611" lon="3.70923">
        <ele>97</ele>
        <time>2015-12-13T15:04:54Z</time>
      </trkpt>
      <trkpt lat="50.7761" lon="3.70926">
        <ele>97</ele>
        <time>2015-12-13T15:04:56Z</time>
      </trkpt>
      <trkpt lat="50.77609" lon="3.70929">
        <ele>97</ele>
        <time>2015-12-13T15:04:58Z</time>
      </trkpt>
      <trkpt lat="50.77608" lon="3.70932">
        <ele>97</ele>
        <time>2015-12-13T15:05:00Z</time>
      </trkpt>
      <trkpt lat="50.77603" lon="3.70934">
        <ele>98</ele>
        <time>2015-12-13T15:05:14Z</time>
      </trkpt>
      <trkpt lat="50.77601" lon="3.70934">
        <ele>98</ele>
        <time>2015-12-13T15:05:27Z</time>
      </trkpt>
      <trkpt lat="50.77599" lon="3.70938">
        <ele>98</ele>
        <time>2015-12-13T15:05:30Z</time>
      </trkpt>
      <trkpt lat="50.77597" lon="3.7094">
        <ele>99</ele>
        <time>2015-12-13T15:05:34Z</time>
      </trkpt>
      <trkpt lat="50.77596" lon="3.70942">
        <ele>99</ele>
        <time>2015-12-13T15:05:36Z</time>
      </trkpt>
      <trkpt lat="50.77595" lon="3.70944">
        <ele>99</ele>
        <time>2015-12-13T15:05:38Z</time>
      </trkpt>
      <trkpt lat="50.77596" lon="3.70941">
        <ele>99</ele>
        <time>2015-12-13T15:05:44Z</time>
      </trkpt>
      <trkpt lat="50.77597" lon="3.70938">
        <ele>99</ele>
        <time>2015-12-13T15:05:46Z</time>
      </trkpt>
      <trkpt lat="50.77598" lon="3.70934">
        <ele>99</ele>
        <time>2015-12-13T15:05:48Z</time>
      </trkpt>
      <trkpt lat="50.776" lon="3.70931">
        <ele>99</ele>
        <time>2015-12-13T15:05:50Z</time>
      </trkpt>
      <trkpt lat="50.77599" lon="3.70934">
        <ele>99</ele>
        <time>2015-12-13T15:06:40Z</time>
      </trkpt>
      <trkpt lat="50.77598" lon="3.70937">
        <ele>99</ele>
        <time>2015-12-13T15:06:43Z</time>
      </trkpt>
      <trkpt lat="50.77596" lon="3.7094">
        <ele>99</ele>
        <time>2015-12-13T15:06:49Z</time>
      </trkpt>
      <trkpt lat="50.77595" lon="3.70942">
        <ele>99</ele>
        <time>2015-12-13T15:06:51Z</time>
      </trkpt>
      <trkpt lat="50.77594" lon="3.70945">
        <ele>99</ele>
        <time>2015-12-13T15:06:54Z</time>
      </trkpt>
      <trkpt lat="50.7759" lon="3.70948">
        <ele>99</ele>
        <time>2015-12-13T15:06:59Z</time>
      </trkpt>
      <trkpt lat="50.77588" lon="3.70947">
        <ele>100</ele>
        <time>2015-12-13T15:07:02Z</time>
      </trkpt>
      <trkpt lat="50.77586" lon="3.70946">
        <ele>100</ele>
        <time>2015-12-13T15:07:04Z</time>
      </trkpt>
      <trkpt lat="50.77584" lon="3.70945">
        <ele>100</ele>
        <time>2015-12-13T15:07:06Z</time>
      </trkpt>
      <trkpt lat="50.77582" lon="3.70944">
        <ele>100</ele>
        <time>2015-12-13T15:07:08Z</time>
      </trkpt>
      <trkpt lat="50.77579" lon="3.70943">
        <ele>100</ele>
        <time>2015-12-13T15:07:11Z</time>
      </trkpt>
      <trkpt lat="50.77578" lon="3.70942">
        <ele>100</ele>
        <time>2015-12-13T15:07:13Z</time>
      </trkpt>
      <trkpt lat="50.77575" lon="3.70941">
        <ele>100</ele>
        <time>2015-12-13T15:07:15Z</time>
      </trkpt>
      <trkpt lat="50.77573" lon="3.70941">
        <ele>100</ele>
        <time>2015-12-13T15:07:17Z</time>
      </trkpt>
      <trkpt lat="50.77571" lon="3.7094">
        <ele>100</ele>
        <time>2015-12-13T15:07:20Z</time>
      </trkpt>
      <trkpt lat="50.77569" lon="3.70939">
        <ele>101</ele>
        <time>2015-12-13T15:07:22Z</time>
      </trkpt>
      <trkpt lat="50.77566" lon="3.70939">
        <ele>101</ele>
        <time>2015-12-13T15:07:24Z</time>
      </trkpt>
      <trkpt lat="50.77564" lon="3.70938">
        <ele>101</ele>
        <time>2015-12-13T15:07:26Z</time>
      </trkpt>
      <trkpt lat="50.77562" lon="3.70938">
        <ele>101</ele>
        <time>2015-12-13T15:07:29Z</time>
      </trkpt>
      <trkpt lat="50.7756" lon="3.70936">
        <ele>101.7</ele>
        <time>2015-12-13T15:07:31Z</time>
      </trkpt>
      <trkpt lat="50.77558" lon="3.70935">
        <ele>102</ele>
        <time>2015-12-13T15:07:34Z</time>
      </trkpt>
      <trkpt lat="50.77556" lon="3.70934">
        <ele>102</ele>
        <time>2015-12-13T15:07:36Z</time>
      </trkpt>
      <trkpt lat="50.77553" lon="3.70933">
        <ele>102</ele>
        <time>2015-12-13T15:07:38Z</time>
      </trkpt>
      <trkpt lat="50.77551" lon="3.70932">
        <ele>102</ele>
        <time>2015-12-13T15:07:40Z</time>
      </trkpt>
      <trkpt lat="50.7755" lon="3.70931">
        <ele>102</ele>
        <time>2015-12-13T15:07:42Z</time>
      </trkpt>
      <trkpt lat="50.77547" lon="3.7093">
        <ele>102</ele>
        <time>2015-12-13T15:07:44Z</time>
      </trkpt>
      <trkpt lat="50.77546" lon="3.70928">
        <ele>102</ele>
        <time>2015-12-13T15:07:46Z</time>
      </trkpt>
      <trkpt lat="50.77544" lon="3.70927">
        <ele>102</ele>
        <time>2015-12-13T15:07:48Z</time>
      </trkpt>
      <trkpt lat="50.77542" lon="3.70927">
        <ele>102</ele>
        <time>2015-12-13T15:07:50Z</time>
      </trkpt>
      <trkpt lat="50.7754" lon="3.70926">
        <ele>103</ele>
        <time>2015-12-13T15:07:52Z</time>
      </trkpt>
      <trkpt lat="50.77537" lon="3.70925">
        <ele>103</ele>
        <time>2015-12-13T15:07:54Z</time>
      </trkpt>
      <trkpt lat="50.77536" lon="3.70924">
        <ele>103</ele>
        <time>2015-12-13T15:07:56Z</time>
      </trkpt>
      <trkpt lat="50.77533" lon="3.70923">
        <ele>103</ele>
        <time>2015-12-13T15:07:58Z</time>
      </trkpt>
      <trkpt lat="50.77531" lon="3.70922">
        <ele>103</ele>
        <time>2015-12-13T15:08:00Z</time>
      </trkpt>
      <trkpt lat="50.77528" lon="3.7092">
        <ele>104.1</ele>
        <time>2015-12-13T15:08:02Z</time>
      </trkpt>
      <trkpt lat="50.77526" lon="3.7092">
        <ele>105</ele>
        <time>2015-12-13T15:08:04Z</time>
      </trkpt>
      <trkpt lat="50.77524" lon="3.70919">
        <ele>105</ele>
        <time>2015-12-13T15:08:06Z</time>
      </trkpt>
      <trkpt lat="50.77521" lon="3.70918">
        <ele>105</ele>
        <time>2015-12-13T15:08:08Z</time>
      </trkpt>
      <trkpt lat="50.7752" lon="3.70917">
        <ele>105</ele>
        <time>2015-12-13T15:08:10Z</time>
      </trkpt>
      <trkpt lat="50.77517" lon="3.70916">
        <ele>105.5</ele>
        <time>2015-12-13T15:08:12Z</time>
      </trkpt>
      <trkpt lat="50.77515" lon="3.70914">
        <ele>106</ele>
        <time>2015-12-13T15:08:14Z</time>
      </trkpt>
      <trkpt lat="50.77513" lon="3.70913">
        <ele>106</ele>
        <time>2015-12-13T15:08:16Z</time>
      </trkpt>
      <trkpt lat="50.77511" lon="3.70912">
        <ele>106</ele>
        <time>2015-12-13T15:08:18Z</time>
      </trkpt>
      <trkpt lat="50.77509" lon="3.70912">
        <ele>106</ele>
        <time>2015-12-13T15:08:20Z</time>
      </trkpt>
      <trkpt lat="50.77507" lon="3.70911">
        <ele>106</ele>
        <time>2015-12-13T15:08:22Z</time>
      </trkpt>
      <trkpt lat="50.77505" lon="3.70911">
        <ele>106</ele>
        <time>2015-12-13T15:08:24Z</time>
      </trkpt>
      <trkpt lat="50.77503" lon="3.7091">
        <ele>106</ele>
        <time>2015-12-13T15:08:26Z</time>
      </trkpt>
      <trkpt lat="50.775" lon="3.70909">
        <ele>106</ele>
        <time>2015-12-13T15:08:28Z</time>
      </trkpt>
      <trkpt lat="50.77498" lon="3.70907">
        <ele>106</ele>
        <time>2015-12-13T15:08:30Z</time>
      </trkpt>
      <trkpt lat="50.77496" lon="3.70906">
        <ele>106.7</ele>
        <time>2015-12-13T15:08:32Z</time>
      </trkpt>
      <trkpt lat="50.77494" lon="3.70905">
        <ele>107</ele>
        <time>2015-12-13T15:08:34Z</time>
      </trkpt>
      <trkpt lat="50.77492" lon="3.70903">
        <ele>107</ele>
        <time>2015-12-13T15:08:36Z</time>
      </trkpt>
      <trkpt lat="50.7749" lon="3.70903">
        <ele>107</ele>
        <time>2015-12-13T15:08:38Z</time>
      </trkpt>
      <trkpt lat="50.77488" lon="3.70902">
        <ele>107</ele>
        <time>2015-12-13T15:08:40Z</time>
      </trkpt>
      <trkpt lat="50.77485" lon="3.70901">
        <ele>107.7</ele>
        <time>2015-12-13T15:08:42Z</time>
      </trkpt>
      <trkpt lat="50.77483" lon="3.709">
        <ele>108</ele>
        <time>2015-12-13T15:08:44Z</time>
      </trkpt>
      <trkpt lat="50.77481" lon="3.709">
        <ele>108</ele>
        <time>2015-12-13T15:08:46Z</time>
      </trkpt>
      <trkpt lat="50.77479" lon="3.70899">
        <ele>108</ele>
        <time>2015-12-13T15:08:48Z</time>
      </trkpt>
      <trkpt lat="50.77477" lon="3.70897">
        <ele>108</ele>
        <time>2015-12-13T15:08:50Z</time>
      </trkpt>
      <trkpt lat="50.77474" lon="3.70895">
        <ele>108.7</ele>
        <time>2015-12-13T15:08:52Z</time>
      </trkpt>
      <trkpt lat="50.77472" lon="3.70894">
        <ele>109</ele>
        <time>2015-12-13T15:08:54Z</time>
      </trkpt>
      <trkpt lat="50.7747" lon="3.70892">
        <ele>109</ele>
        <time>2015-12-13T15:08:56Z</time>
      </trkpt>
      <trkpt lat="50.77467" lon="3.70891">
        <ele>109</ele>
        <time>2015-12-13T15:08:58Z</time>
      </trkpt>
      <trkpt lat="50.77465" lon="3.70889">
        <ele>109</ele>
        <time>2015-12-13T15:09:00Z</time>
      </trkpt>
      <trkpt lat="50.77462" lon="3.70888">
        <ele>110</ele>
        <time>2015-12-13T15:09:02Z</time>
      </trkpt>
      <trkpt lat="50.7746" lon="3.70888">
        <ele>110</ele>
        <time>2015-12-13T15:09:04Z</time>
      </trkpt>
      <trkpt lat="50.77457" lon="3.70887">
        <ele>110</ele>
        <time>2015-12-13T15:09:06Z</time>
      </trkpt>
      <trkpt lat="50.77455" lon="3.70885">
        <ele>110</ele>
        <time>2015-12-13T15:09:08Z</time>
      </trkpt>
      <trkpt lat="50.77452" lon="3.70883">
        <ele>110</ele>
        <time>2015-12-13T15:09:10Z</time>
      </trkpt>
      <trkpt lat="50.7745" lon="3.70882">
        <ele>110</ele>
        <time>2015-12-13T15:09:12Z</time>
      </trkpt>
      <trkpt lat="50.77448" lon="3.70882">
        <ele>110</ele>
        <time>2015-12-13T15:09:14Z</time>
      </trkpt>
      <trkpt lat="50.77446" lon="3.70881">
        <ele>110</ele>
        <time>2015-12-13T15:09:16Z</time>
      </trkpt>
      <trkpt lat="50.77443" lon="3.70879">
        <ele>110</ele>
        <time>2015-12-13T15:09:18Z</time>
      </trkpt>
      <trkpt lat="50.77441" lon="3.70879">
        <ele>110</ele>
        <time>2015-12-13T15:09:20Z</time>
      </trkpt>
      <trkpt lat="50.77439" lon="3.70878">
        <ele>111</ele>
        <time>2015-12-13T15:09:22Z</time>
      </trkpt>
      <trkpt lat="50.77437" lon="3.70877">
        <ele>111</ele>
        <time>2015-12-13T15:09:24Z</time>
      </trkpt>
      <trkpt lat="50.77435" lon="3.70876">
        <ele>111</ele>
        <time>2015-12-13T15:09:26Z</time>
      </trkpt>
      <trkpt lat="50.77433" lon="3.70874">
        <ele>111</ele>
        <time>2015-12-13T15:09:28Z</time>
      </trkpt>
      <trkpt lat="50.7743" lon="3.70874">
        <ele>111</ele>
        <time>2015-12-13T15:09:30Z</time>
      </trkpt>
      <trkpt lat="50.77428" lon="3.70875">
        <ele>111</ele>
        <time>2015-12-13T15:09:32Z</time>
      </trkpt>
      <trkpt lat="50.77427" lon="3.70877">
        <ele>111</ele>
        <time>2015-12-13T15:09:34Z</time>
      </trkpt>
      <trkpt lat="50.77426" lon="3.7088">
        <ele>111</ele>
        <time>2015-12-13T15:09:36Z</time>
      </trkpt>
      <trkpt lat="50.77426" lon="3.70884">
        <ele>111</ele>
        <time>2015-12-13T15:09:38Z</time>
      </trkpt>
      <trkpt lat="50.77427" lon="3.70888">
        <ele>111</ele>
        <time>2015-12-13T15:09:40Z</time>
      </trkpt>
      <trkpt lat="50.77427" lon="3.70893">
        <ele>110</ele>
        <time>2015-12-13T15:09:42Z</time>
      </trkpt>
      <trkpt lat="50.77428" lon="3.70898">
        <ele>110</ele>
        <time>2015-12-13T15:09:44Z</time>
      </trkpt>
      <trkpt lat="50.77427" lon="3.70902">
        <ele>110</ele>
        <time>2015-12-13T15:09:46Z</time>
      </trkpt>
      <trkpt lat="50.77425" lon="3.70906">
        <ele>110</ele>
        <time>2015-12-13T15:09:48Z</time>
      </trkpt>
      <trkpt lat="50.77423" lon="3.70909">
        <ele>110</ele>
        <time>2015-12-13T15:09:50Z</time>
      </trkpt>
      <trkpt lat="50.77421" lon="3.70912">
        <ele>110</ele>
        <time>2015-12-13T15:09:52Z</time>
      </trkpt>
      <trkpt lat="50.77419" lon="3.70914">
        <ele>110</ele>
        <time>2015-12-13T15:09:53Z</time>
      </trkpt>
      <trkpt lat="50.77417" lon="3.70916">
        <ele>110</ele>
        <time>2015-12-13T15:09:54Z</time>
      </trkpt>
      <trkpt lat="50.77415" lon="3.70917">
        <ele>110</ele>
        <time>2015-12-13T15:09:55Z</time>
      </trkpt>
      <trkpt lat="50.77413" lon="3.70918">
        <ele>110</ele>
        <time>2015-12-13T15:09:56Z</time>
      </trkpt>
      <trkpt lat="50.77411" lon="3.7092">
        <ele>110</ele>
        <time>2015-12-13T15:09:57Z</time>
      </trkpt>
      <trkpt lat="50.77409" lon="3.70921">
        <ele>110</ele>
        <time>2015-12-13T15:09:58Z</time>
      </trkpt>
      <trkpt lat="50.77407" lon="3.70921">
        <ele>110</ele>
        <time>2015-12-13T15:09:59Z</time>
      </trkpt>
      <trkpt lat="50.77404" lon="3.70922">
        <ele>110</ele>
        <time>2015-12-13T15:10:00Z</time>
      </trkpt>
      <trkpt lat="50.77402" lon="3.70923">
        <ele>108.6</ele>
        <time>2015-12-13T15:10:01Z</time>
      </trkpt>
      <trkpt lat="50.774" lon="3.70924">
        <ele>108</ele>
        <time>2015-12-13T15:10:02Z</time>
      </trkpt>
      <trkpt lat="50.77397" lon="3.70924">
        <ele>108</ele>
        <time>2015-12-13T15:10:03Z</time>
      </trkpt>
      <trkpt lat="50.77395" lon="3.70924">
        <ele>108</ele>
        <time>2015-12-13T15:10:04Z</time>
      </trkpt>
      <trkpt lat="50.77393" lon="3.70924">
        <ele>108</ele>
        <time>2015-12-13T15:10:05Z</time>
      </trkpt>
      <trkpt lat="50.7739" lon="3.70925">
        <ele>107.5</ele>
        <time>2015-12-13T15:10:06Z</time>
      </trkpt>
      <trkpt lat="50.77388" lon="3.70925">
        <ele>107</ele>
        <time>2015-12-13T15:10:07Z</time>
      </trkpt>
      <trkpt lat="50.77385" lon="3.70926">
        <ele>107</ele>
        <time>2015-12-13T15:10:08Z</time>
      </trkpt>
      <trkpt lat="50.77383" lon="3.70926">
        <ele>107</ele>
        <time>2015-12-13T15:10:09Z</time>
      </trkpt>
      <trkpt lat="50.7738" lon="3.70926">
        <ele>107</ele>
        <time>2015-12-13T15:10:10Z</time>
      </trkpt>
      <trkpt lat="50.77378" lon="3.70926">
        <ele>106.3</ele>
        <time>2015-12-13T15:10:11Z</time>
      </trkpt>
      <trkpt lat="50.77375" lon="3.70926">
        <ele>106</ele>
        <time>2015-12-13T15:10:12Z</time>
      </trkpt>
      <trkpt lat="50.77373" lon="3.70926">
        <ele>106</ele>
        <time>2015-12-13T15:10:13Z</time>
      </trkpt>
      <trkpt lat="50.7737" lon="3.70926">
        <ele>106</ele>
        <time>2015-12-13T15:10:14Z</time>
      </trkpt>
      <trkpt lat="50.77368" lon="3.70926">
        <ele>106</ele>
        <time>2015-12-13T15:10:15Z</time>
      </trkpt>
      <trkpt lat="50.77366" lon="3.70926">
        <ele>106</ele>
        <time>2015-12-13T15:10:16Z</time>
      </trkpt>
      <trkpt lat="50.77363" lon="3.70926">
        <ele>106</ele>
        <time>2015-12-13T15:10:17Z</time>
      </trkpt>
      <trkpt lat="50.77361" lon="3.70927">
        <ele>106</ele>
        <time>2015-12-13T15:10:18Z</time>
      </trkpt>
      <trkpt lat="50.77358" lon="3.70927">
        <ele>106</ele>
        <time>2015-12-13T15:10:19Z</time>
      </trkpt>
      <trkpt lat="50.77356" lon="3.70926">
        <ele>106</ele>
        <time>2015-12-13T15:10:20Z</time>
      </trkpt>
      <trkpt lat="50.77354" lon="3.70926">
        <ele>105.3</ele>
        <time>2015-12-13T15:10:21Z</time>
      </trkpt>
      <trkpt lat="50.77351" lon="3.70926">
        <ele>105</ele>
        <time>2015-12-13T15:10:22Z</time>
      </trkpt>
      <trkpt lat="50.77349" lon="3.70925">
        <ele>105</ele>
        <time>2015-12-13T15:10:23Z</time>
      </trkpt>
      <trkpt lat="50.77346" lon="3.70925">
        <ele>105</ele>
        <time>2015-12-13T15:10:24Z</time>
      </trkpt>
      <trkpt lat="50.77344" lon="3.70925">
        <ele>105</ele>
        <time>2015-12-13T15:10:25Z</time>
      </trkpt>
      <trkpt lat="50.77341" lon="3.70924">
        <ele>105</ele>
        <time>2015-12-13T15:10:26Z</time>
      </trkpt>
      <trkpt lat="50.77339" lon="3.70924">
        <ele>105</ele>
        <time>2015-12-13T15:10:27Z</time>
      </trkpt>
      <trkpt lat="50.77337" lon="3.70923">
        <ele>105</ele>
        <time>2015-12-13T15:10:28Z</time>
      </trkpt>
      <trkpt lat="50.77334" lon="3.70923">
        <ele>105</ele>
        <time>2015-12-13T15:10:29Z</time>
      </trkpt>
      <trkpt lat="50.77332" lon="3.70922">
        <ele>105</ele>
        <time>2015-12-13T15:10:30Z</time>
      </trkpt>
      <trkpt lat="50.77329" lon="3.70921">
        <ele>102.3</ele>
        <time>2015-12-13T15:10:31Z</time>
      </trkpt>
      <trkpt lat="50.77327" lon="3.70921">
        <ele>101</ele>
        <time>2015-12-13T15:10:32Z</time>
      </trkpt>
      <trkpt lat="50.77324" lon="3.7092">
        <ele>101.7</ele>
        <time>2015-12-13T15:10:33Z</time>
      </trkpt>
      <trkpt lat="50.77322" lon="3.70919">
        <ele>102</ele>
        <time>2015-12-13T15:10:34Z</time>
      </trkpt>
      <trkpt lat="50.77319" lon="3.70918">
        <ele>102</ele>
        <time>2015-12-13T15:10:35Z</time>
      </trkpt>
      <trkpt lat="50.77317" lon="3.70918">
        <ele>102</ele>
        <time>2015-12-13T15:10:36Z</time>
      </trkpt>
      <trkpt lat="50.77314" lon="3.70918">
        <ele>102</ele>
        <time>2015-12-13T15:10:37Z</time>
      </trkpt>
      <trkpt lat="50.77312" lon="3.70917">
        <ele>102</ele>
        <time>2015-12-13T15:10:38Z</time>
      </trkpt>
      <trkpt lat="50.77309" lon="3.70917">
        <ele>102</ele>
        <time>2015-12-13T15:10:39Z</time>
      </trkpt>
      <trkpt lat="50.77307" lon="3.70917">
        <ele>102</ele>
        <time>2015-12-13T15:10:40Z</time>
      </trkpt>
      <trkpt lat="50.77305" lon="3.70916">
        <ele>102</ele>
        <time>2015-12-13T15:10:41Z</time>
      </trkpt>
      <trkpt lat="50.77302" lon="3.70916">
        <ele>102</ele>
        <time>2015-12-13T15:10:42Z</time>
      </trkpt>
      <trkpt lat="50.773" lon="3.70916">
        <ele>102</ele>
        <time>2015-12-13T15:10:43Z</time>
      </trkpt>
      <trkpt lat="50.77298" lon="3.70916">
        <ele>102</ele>
        <time>2015-12-13T15:10:44Z</time>
      </trkpt>
      <trkpt lat="50.77296" lon="3.70916">
        <ele>102</ele>
        <time>2015-12-13T15:10:45Z</time>
      </trkpt>
      <trkpt lat="50.77293" lon="3.70917">
        <ele>102</ele>
        <time>2015-12-13T15:10:46Z</time>
      </trkpt>
      <trkpt lat="50.77291" lon="3.70918">
        <ele>102</ele>
        <time>2015-12-13T15:10:47Z</time>
      </trkpt>
      <trkpt lat="50.77289" lon="3.70919">
        <ele>102</ele>
        <time>2015-12-13T15:10:48Z</time>
      </trkpt>
      <trkpt lat="50.77287" lon="3.7092">
        <ele>102</ele>
        <time>2015-12-13T15:10:49Z</time>
      </trkpt>
      <trkpt lat="50.77285" lon="3.7092">
        <ele>102</ele>
        <time>2015-12-13T15:10:50Z</time>
      </trkpt>
      <trkpt lat="50.77283" lon="3.70921">
        <ele>101.3</ele>
        <time>2015-12-13T15:10:51Z</time>
      </trkpt>
      <trkpt lat="50.77281" lon="3.70921">
        <ele>101</ele>
        <time>2015-12-13T15:10:52Z</time>
      </trkpt>
      <trkpt lat="50.77279" lon="3.70922">
        <ele>101</ele>
        <time>2015-12-13T15:10:53Z</time>
      </trkpt>
      <trkpt lat="50.77277" lon="3.70923">
        <ele>101</ele>
        <time>2015-12-13T15:10:54Z</time>
      </trkpt>
      <trkpt lat="50.77275" lon="3.70924">
        <ele>101</ele>
        <time>2015-12-13T15:10:55Z</time>
      </trkpt>
      <trkpt lat="50.77272" lon="3.70925">
        <ele>101</ele>
        <time>2015-12-13T15:10:56Z</time>
      </trkpt>
      <trkpt lat="50.77271" lon="3.70926">
        <ele>101</ele>
        <time>2015-12-13T15:10:57Z</time>
      </trkpt>
      <trkpt lat="50.77269" lon="3.70927">
        <ele>101</ele>
        <time>2015-12-13T15:10:58Z</time>
      </trkpt>
      <trkpt lat="50.77267" lon="3.70928">
        <ele>101</ele>
        <time>2015-12-13T15:10:59Z</time>
      </trkpt>
      <trkpt lat="50.77265" lon="3.70929">
        <ele>101</ele>
        <time>2015-12-13T15:11:00Z</time>
      </trkpt>
      <trkpt lat="50.77263" lon="3.7093">
        <ele>101.7</ele>
        <time>2015-12-13T15:11:01Z</time>
      </trkpt>
      <trkpt lat="50.77261" lon="3.70931">
        <ele>102</ele>
        <time>2015-12-13T15:11:02Z</time>
      </trkpt>
      <trkpt lat="50.77259" lon="3.70932">
        <ele>102</ele>
        <time>2015-12-13T15:11:03Z</time>
      </trkpt>
      <trkpt lat="50.77257" lon="3.70933">
        <ele>102</ele>
        <time>2015-12-13T15:11:04Z</time>
      </trkpt>
      <trkpt lat="50.77255" lon="3.70934">
        <ele>102</ele>
        <time>2015-12-13T15:11:05Z</time>
      </trkpt>
      <trkpt lat="50.77253" lon="3.70935">
        <ele>102</ele>
        <time>2015-12-13T15:11:06Z</time>
      </trkpt>
      <trkpt lat="50.7725" lon="3.70937">
        <ele>102</ele>
        <time>2015-12-13T15:11:08Z</time>
      </trkpt>
      <trkpt lat="50.77248" lon="3.70938">
        <ele>102</ele>
        <time>2015-12-13T15:11:09Z</time>
      </trkpt>
      <trkpt lat="50.77246" lon="3.70939">
        <ele>102</ele>
        <time>2015-12-13T15:11:10Z</time>
      </trkpt>
      <trkpt lat="50.77242" lon="3.7094">
        <ele>103</ele>
        <time>2015-12-13T15:11:12Z</time>
      </trkpt>
      <trkpt lat="50.7724" lon="3.70941">
        <ele>103</ele>
        <time>2015-12-13T15:11:13Z</time>
      </trkpt>
      <trkpt lat="50.77238" lon="3.70941">
        <ele>103</ele>
        <time>2015-12-13T15:11:14Z</time>
      </trkpt>
      <trkpt lat="50.77236" lon="3.70942">
        <ele>103</ele>
        <time>2015-12-13T15:11:15Z</time>
      </trkpt>
      <trkpt lat="50.77235" lon="3.70943">
        <ele>103</ele>
        <time>2015-12-13T15:11:16Z</time>
      </trkpt>
      <trkpt lat="50.77233" lon="3.70944">
        <ele>103</ele>
        <time>2015-12-13T15:11:17Z</time>
      </trkpt>
      <trkpt lat="50.77231" lon="3.70944">
        <ele>103</ele>
        <time>2015-12-13T15:11:18Z</time>
      </trkpt>
      <trkpt lat="50.77229" lon="3.70946">
        <ele>103</ele>
        <time>2015-12-13T15:11:19Z</time>
      </trkpt>
      <trkpt lat="50.77227" lon="3.70947">
        <ele>103</ele>
        <time>2015-12-13T15:11:20Z</time>
      </trkpt>
      <trkpt lat="50.77225" lon="3.70948">
        <ele>103</ele>
        <time>2015-12-13T15:11:21Z</time>
      </trkpt>
      <trkpt lat="50.77224" lon="3.70951">
        <ele>103</ele>
        <time>2015-12-13T15:11:22Z</time>
      </trkpt>
      <trkpt lat="50.77223" lon="3.70954">
        <ele>103</ele>
        <time>2015-12-13T15:11:24Z</time>
      </trkpt>
      <trkpt lat="50.77223" lon="3.70957">
        <ele>103</ele>
        <time>2015-12-13T15:11:26Z</time>
      </trkpt>
      <trkpt lat="50.77222" lon="3.70961">
        <ele>103</ele>
        <time>2015-12-13T15:11:28Z</time>
      </trkpt>
      <trkpt lat="50.77221" lon="3.70965">
        <ele>103</ele>
        <time>2015-12-13T15:11:30Z</time>
      </trkpt>
      <trkpt lat="50.7722" lon="3.70969">
        <ele>103</ele>
        <time>2015-12-13T15:11:32Z</time>
      </trkpt>
      <trkpt lat="50.7722" lon="3.70974">
        <ele>103</ele>
        <time>2015-12-13T15:11:34Z</time>
      </trkpt>
      <trkpt lat="50.77219" lon="3.70979">
        <ele>103</ele>
        <time>2015-12-13T15:11:36Z</time>
      </trkpt>
      <trkpt lat="50.77218" lon="3.70983">
        <ele>103</ele>
        <time>2015-12-13T15:11:38Z</time>
      </trkpt>
      <trkpt lat="50.77217" lon="3.70989">
        <ele>103</ele>
        <time>2015-12-13T15:11:40Z</time>
      </trkpt>
      <trkpt lat="50.77216" lon="3.70991">
        <ele>103</ele>
        <time>2015-12-13T15:11:41Z</time>
      </trkpt>
      <trkpt lat="50.77215" lon="3.70994">
        <ele>103</ele>
        <time>2015-12-13T15:11:42Z</time>
      </trkpt>
      <trkpt lat="50.77214" lon="3.70997">
        <ele>103</ele>
        <time>2015-12-13T15:11:43Z</time>
      </trkpt>
      <trkpt lat="50.77213" lon="3.70999">
        <ele>103</ele>
        <time>2015-12-13T15:11:44Z</time>
      </trkpt>
      <trkpt lat="50.77211" lon="3.71002">
        <ele>103</ele>
        <time>2015-12-13T15:11:45Z</time>
      </trkpt>
      <trkpt lat="50.7721" lon="3.71004">
        <ele>103</ele>
        <time>2015-12-13T15:11:46Z</time>
      </trkpt>
      <trkpt lat="50.77208" lon="3.71006">
        <ele>103</ele>
        <time>2015-12-13T15:11:47Z</time>
      </trkpt>
      <trkpt lat="50.77207" lon="3.71009">
        <ele>103</ele>
        <time>2015-12-13T15:11:48Z</time>
      </trkpt>
      <trkpt lat="50.77205" lon="3.71011">
        <ele>103</ele>
        <time>2015-12-13T15:11:49Z</time>
      </trkpt>
      <trkpt lat="50.77204" lon="3.71013">
        <ele>103</ele>
        <time>2015-12-13T15:11:50Z</time>
      </trkpt>
      <trkpt lat="50.77202" lon="3.71015">
        <ele>101</ele>
        <time>2015-12-13T15:11:51Z</time>
      </trkpt>
      <trkpt lat="50.772" lon="3.71018">
        <ele>100</ele>
        <time>2015-12-13T15:11:52Z</time>
      </trkpt>
      <trkpt lat="50.77198" lon="3.7102">
        <ele>100</ele>
        <time>2015-12-13T15:11:53Z</time>
      </trkpt>
      <trkpt lat="50.77195" lon="3.71023">
        <ele>100</ele>
        <time>2015-12-13T15:11:54Z</time>
      </trkpt>
      <trkpt lat="50.77192" lon="3.71025">
        <ele>100</ele>
        <time>2015-12-13T15:11:55Z</time>
      </trkpt>
      <trkpt lat="50.7719" lon="3.71029">
        <ele>99.5</ele>
        <time>2015-12-13T15:11:56Z</time>
      </trkpt>
      <trkpt lat="50.77188" lon="3.71032">
        <ele>99</ele>
        <time>2015-12-13T15:11:57Z</time>
      </trkpt>
      <trkpt lat="50.77186" lon="3.71034">
        <ele>99</ele>
        <time>2015-12-13T15:11:58Z</time>
      </trkpt>
      <trkpt lat="50.77184" lon="3.71036">
        <ele>99.5</ele>
        <time>2015-12-13T15:11:59Z</time>
      </trkpt>
      <trkpt lat="50.77182" lon="3.71038">
        <ele>100</ele>
        <time>2015-12-13T15:12:00Z</time>
      </trkpt>
      <trkpt lat="50.7718" lon="3.7104">
        <ele>100</ele>
        <time>2015-12-13T15:12:01Z</time>
      </trkpt>
      <trkpt lat="50.77178" lon="3.71042">
        <ele>99.3</ele>
        <time>2015-12-13T15:12:02Z</time>
      </trkpt>
      <trkpt lat="50.77176" lon="3.71043">
        <ele>99</ele>
        <time>2015-12-13T15:12:03Z</time>
      </trkpt>
      <trkpt lat="50.77174" lon="3.71045">
        <ele>99</ele>
        <time>2015-12-13T15:12:04Z</time>
      </trkpt>
      <trkpt lat="50.77166" lon="3.7105">
        <ele>99</ele>
        <time>2015-12-13T15:12:07Z</time>
      </trkpt>
      <trkpt lat="50.7716" lon="3.71052">
        <ele>99</ele>
        <time>2015-12-13T15:12:09Z</time>
      </trkpt>
      <trkpt lat="50.77157" lon="3.71053">
        <ele>99</ele>
        <time>2015-12-13T15:12:10Z</time>
      </trkpt>
      <trkpt lat="50.77154" lon="3.71054">
        <ele>99</ele>
        <time>2015-12-13T15:12:11Z</time>
      </trkpt>
      <trkpt lat="50.77151" lon="3.71056">
        <ele>97.6</ele>
        <time>2015-12-13T15:12:12Z</time>
      </trkpt>
      <trkpt lat="50.77148" lon="3.71055">
        <ele>97</ele>
        <time>2015-12-13T15:12:13Z</time>
      </trkpt>
      <trkpt lat="50.77145" lon="3.71054">
        <ele>97</ele>
        <time>2015-12-13T15:12:14Z</time>
      </trkpt>
      <trkpt lat="50.77143" lon="3.71052">
        <ele>97</ele>
        <time>2015-12-13T15:12:15Z</time>
      </trkpt>
      <trkpt lat="50.7714" lon="3.71051">
        <ele>97</ele>
        <time>2015-12-13T15:12:16Z</time>
      </trkpt>
      <trkpt lat="50.77137" lon="3.7105">
        <ele>97</ele>
        <time>2015-12-13T15:12:17Z</time>
      </trkpt>
      <trkpt lat="50.77134" lon="3.71049">
        <ele>97</ele>
        <time>2015-12-13T15:12:18Z</time>
      </trkpt>
      <trkpt lat="50.77131" lon="3.71048">
        <ele>97</ele>
        <time>2015-12-13T15:12:19Z</time>
      </trkpt>
      <trkpt lat="50.77128" lon="3.71046">
        <ele>97</ele>
        <time>2015-12-13T15:12:20Z</time>
      </trkpt>
      <trkpt lat="50.77126" lon="3.71045">
        <ele>97</ele>
        <time>2015-12-13T15:12:21Z</time>
      </trkpt>
      <trkpt lat="50.77123" lon="3.71044">
        <ele>96.3</ele>
        <time>2015-12-13T15:12:22Z</time>
      </trkpt>
      <trkpt lat="50.77121" lon="3.71043">
        <ele>96</ele>
        <time>2015-12-13T15:12:23Z</time>
      </trkpt>
      <trkpt lat="50.77119" lon="3.71043">
        <ele>96</ele>
        <time>2015-12-13T15:12:24Z</time>
      </trkpt>
      <trkpt lat="50.77116" lon="3.71043">
        <ele>96</ele>
        <time>2015-12-13T15:12:25Z</time>
      </trkpt>
      <trkpt lat="50.77114" lon="3.71043">
        <ele>96</ele>
        <time>2015-12-13T15:12:26Z</time>
      </trkpt>
      <trkpt lat="50.77112" lon="3.71045">
        <ele>96</ele>
        <time>2015-12-13T15:12:27Z</time>
      </trkpt>
      <trkpt lat="50.7711" lon="3.71046">
        <ele>96</ele>
        <time>2015-12-13T15:12:28Z</time>
      </trkpt>
      <trkpt lat="50.77107" lon="3.71047">
        <ele>96</ele>
        <time>2015-12-13T15:12:29Z</time>
      </trkpt>
      <trkpt lat="50.77105" lon="3.71048">
        <ele>96</ele>
        <time>2015-12-13T15:12:30Z</time>
      </trkpt>
      <trkpt lat="50.77101" lon="3.71052">
        <ele>94.6</ele>
        <time>2015-12-13T15:12:32Z</time>
      </trkpt>
      <trkpt lat="50.77099" lon="3.71053">
        <ele>94</ele>
        <time>2015-12-13T15:12:33Z</time>
      </trkpt>
      <trkpt lat="50.77096" lon="3.71055">
        <ele>94</ele>
        <time>2015-12-13T15:12:34Z</time>
      </trkpt>
      <trkpt lat="50.77093" lon="3.71056">
        <ele>94</ele>
        <time>2015-12-13T15:12:35Z</time>
      </trkpt>
      <trkpt lat="50.77091" lon="3.71057">
        <ele>94</ele>
        <time>2015-12-13T15:12:36Z</time>
      </trkpt>
      <trkpt lat="50.77089" lon="3.71059">
        <ele>92.9</ele>
        <time>2015-12-13T15:12:37Z</time>
      </trkpt>
      <trkpt lat="50.77086" lon="3.7106">
        <ele>92</ele>
        <time>2015-12-13T15:12:38Z</time>
      </trkpt>
      <trkpt lat="50.77084" lon="3.71061">
        <ele>92</ele>
        <time>2015-12-13T15:12:39Z</time>
      </trkpt>
      <trkpt lat="50.77082" lon="3.71063">
        <ele>92</ele>
        <time>2015-12-13T15:12:40Z</time>
      </trkpt>
      <trkpt lat="50.7708" lon="3.71064">
        <ele>92</ele>
        <time>2015-12-13T15:12:41Z</time>
      </trkpt>
      <trkpt lat="50.77078" lon="3.71065">
        <ele>91.3</ele>
        <time>2015-12-13T15:12:42Z</time>
      </trkpt>
      <trkpt lat="50.77076" lon="3.71066">
        <ele>91</ele>
        <time>2015-12-13T15:12:43Z</time>
      </trkpt>
      <trkpt lat="50.77073" lon="3.71067">
        <ele>91</ele>
        <time>2015-12-13T15:12:44Z</time>
      </trkpt>
      <trkpt lat="50.77071" lon="3.71068">
        <ele>91</ele>
        <time>2015-12-13T15:12:46Z</time>
      </trkpt>
      <trkpt lat="50.77069" lon="3.7107">
        <ele>91</ele>
        <time>2015-12-13T15:12:47Z</time>
      </trkpt>
      <trkpt lat="50.77067" lon="3.7107">
        <ele>91</ele>
        <time>2015-12-13T15:12:49Z</time>
      </trkpt>
      <trkpt lat="50.77065" lon="3.71069">
        <ele>91</ele>
        <time>2015-12-13T15:12:51Z</time>
      </trkpt>
      <trkpt lat="50.77063" lon="3.71069">
        <ele>91.7</ele>
        <time>2015-12-13T15:12:52Z</time>
      </trkpt>
      <trkpt lat="50.77061" lon="3.71069">
        <ele>92</ele>
        <time>2015-12-13T15:12:53Z</time>
      </trkpt>
      <trkpt lat="50.77059" lon="3.7107">
        <ele>92</ele>
        <time>2015-12-13T15:12:54Z</time>
      </trkpt>
      <trkpt lat="50.77056" lon="3.71071">
        <ele>92</ele>
        <time>2015-12-13T15:12:56Z</time>
      </trkpt>
      <trkpt lat="50.77054" lon="3.71071">
        <ele>92</ele>
        <time>2015-12-13T15:12:58Z</time>
      </trkpt>
      <trkpt lat="50.77052" lon="3.71072">
        <ele>92</ele>
        <time>2015-12-13T15:13:00Z</time>
      </trkpt>
      <trkpt lat="50.7705" lon="3.71073">
        <ele>93</ele>
        <time>2015-12-13T15:13:02Z</time>
      </trkpt>
      <trkpt lat="50.77047" lon="3.71073">
        <ele>93</ele>
        <time>2015-12-13T15:13:04Z</time>
      </trkpt>
      <trkpt lat="50.77044" lon="3.71073">
        <ele>93</ele>
        <time>2015-12-13T15:13:06Z</time>
      </trkpt>
      <trkpt lat="50.77041" lon="3.71073">
        <ele>93</ele>
        <time>2015-12-13T15:13:08Z</time>
      </trkpt>
      <trkpt lat="50.77038" lon="3.71072">
        <ele>93</ele>
        <time>2015-12-13T15:13:10Z</time>
      </trkpt>
      <trkpt lat="50.77035" lon="3.7107">
        <ele>94</ele>
        <time>2015-12-13T15:13:12Z</time>
      </trkpt>
      <trkpt lat="50.77033" lon="3.71068">
        <ele>94</ele>
        <time>2015-12-13T15:13:14Z</time>
      </trkpt>
      <trkpt lat="50.77031" lon="3.71066">
        <ele>95.1</ele>
        <time>2015-12-13T15:13:16Z</time>
      </trkpt>
      <trkpt lat="50.77029" lon="3.71064">
        <ele>96</ele>
        <time>2015-12-13T15:13:18Z</time>
      </trkpt>
      <trkpt lat="50.77027" lon="3.71061">
        <ele>96</ele>
        <time>2015-12-13T15:13:20Z</time>
      </trkpt>
      <trkpt lat="50.77026" lon="3.71056">
        <ele>96</ele>
        <time>2015-12-13T15:13:22Z</time>
      </trkpt>
      <trkpt lat="50.77024" lon="3.71054">
        <ele>96</ele>
        <time>2015-12-13T15:13:24Z</time>
      </trkpt>
      <trkpt lat="50.77023" lon="3.71051">
        <ele>96</ele>
        <time>2015-12-13T15:13:26Z</time>
      </trkpt>
      <trkpt lat="50.77021" lon="3.71048">
        <ele>96</ele>
        <time>2015-12-13T15:13:28Z</time>
      </trkpt>
      <trkpt lat="50.77019" lon="3.71043">
        <ele>96</ele>
        <time>2015-12-13T15:13:30Z</time>
      </trkpt>
      <trkpt lat="50.77017" lon="3.71038">
        <ele>97</ele>
        <time>2015-12-13T15:13:32Z</time>
      </trkpt>
      <trkpt lat="50.77016" lon="3.71036">
        <ele>97</ele>
        <time>2015-12-13T15:13:33Z</time>
      </trkpt>
      <trkpt lat="50.77015" lon="3.71034">
        <ele>97</ele>
        <time>2015-12-13T15:13:34Z</time>
      </trkpt>
      <trkpt lat="50.77011" lon="3.71021">
        <ele>97</ele>
        <time>2015-12-13T15:13:39Z</time>
      </trkpt>
      <trkpt lat="50.77008" lon="3.71015">
        <ele>97</ele>
        <time>2015-12-13T15:13:41Z</time>
      </trkpt>
      <trkpt lat="50.77007" lon="3.71013">
        <ele>97</ele>
        <time>2015-12-13T15:13:42Z</time>
      </trkpt>
      <trkpt lat="50.77006" lon="3.7101">
        <ele>97</ele>
        <time>2015-12-13T15:13:43Z</time>
      </trkpt>
      <trkpt lat="50.77005" lon="3.71005">
        <ele>97</ele>
        <time>2015-12-13T15:13:45Z</time>
      </trkpt>
      <trkpt lat="50.77004" lon="3.71001">
        <ele>97</ele>
        <time>2015-12-13T15:13:47Z</time>
      </trkpt>
      <trkpt lat="50.77004" lon="3.70996">
        <ele>97</ele>
        <time>2015-12-13T15:13:49Z</time>
      </trkpt>
      <trkpt lat="50.77004" lon="3.70992">
        <ele>97.7</ele>
        <time>2015-12-13T15:13:51Z</time>
      </trkpt>
      <trkpt lat="50.77004" lon="3.70987">
        <ele>98</ele>
        <time>2015-12-13T15:13:53Z</time>
      </trkpt>
      <trkpt lat="50.77004" lon="3.70983">
        <ele>98</ele>
        <time>2015-12-13T15:13:55Z</time>
      </trkpt>
      <trkpt lat="50.77004" lon="3.70979">
        <ele>98</ele>
        <time>2015-12-13T15:13:57Z</time>
      </trkpt>
      <trkpt lat="50.77003" lon="3.70976">
        <ele>98</ele>
        <time>2015-12-13T15:13:59Z</time>
      </trkpt>
      <trkpt lat="50.77001" lon="3.70973">
        <ele>99</ele>
        <time>2015-12-13T15:14:04Z</time>
      </trkpt>
      <trkpt lat="50.77" lon="3.70971">
        <ele>99</ele>
        <time>2015-12-13T15:14:06Z</time>
      </trkpt>
      <trkpt lat="50.76999" lon="3.70967">
        <ele>99</ele>
        <time>2015-12-13T15:14:09Z</time>
      </trkpt>
      <trkpt lat="50.76997" lon="3.70964">
        <ele>99.7</ele>
        <time>2015-12-13T15:14:11Z</time>
      </trkpt>
      <trkpt lat="50.76996" lon="3.70961">
        <ele>100</ele>
        <time>2015-12-13T15:14:13Z</time>
      </trkpt>
      <trkpt lat="50.76994" lon="3.70959">
        <ele>100</ele>
        <time>2015-12-13T15:14:15Z</time>
      </trkpt>
      <trkpt lat="50.76992" lon="3.70955">
        <ele>100</ele>
        <time>2015-12-13T15:14:17Z</time>
      </trkpt>
      <trkpt lat="50.76991" lon="3.70952">
        <ele>100</ele>
        <time>2015-12-13T15:14:19Z</time>
      </trkpt>
      <trkpt lat="50.76989" lon="3.70949">
        <ele>100.7</ele>
        <time>2015-12-13T15:14:21Z</time>
      </trkpt>
      <trkpt lat="50.76989" lon="3.70945">
        <ele>101</ele>
        <time>2015-12-13T15:14:23Z</time>
      </trkpt>
      <trkpt lat="50.76988" lon="3.70943">
        <ele>101</ele>
        <time>2015-12-13T15:14:24Z</time>
      </trkpt>
      <trkpt lat="50.76987" lon="3.7094">
        <ele>101</ele>
        <time>2015-12-13T15:14:25Z</time>
      </trkpt>
      <trkpt lat="50.76986" lon="3.70937">
        <ele>101</ele>
        <time>2015-12-13T15:14:26Z</time>
      </trkpt>
      <trkpt lat="50.76985" lon="3.70935">
        <ele>101</ele>
        <time>2015-12-13T15:14:27Z</time>
      </trkpt>
      <trkpt lat="50.76982" lon="3.70931">
        <ele>101</ele>
        <time>2015-12-13T15:14:29Z</time>
      </trkpt>
      <trkpt lat="50.7698" lon="3.70929">
        <ele>101.5</ele>
        <time>2015-12-13T15:14:31Z</time>
      </trkpt>
      <trkpt lat="50.76978" lon="3.70926">
        <ele>102</ele>
        <time>2015-12-13T15:14:33Z</time>
      </trkpt>
      <trkpt lat="50.76976" lon="3.70923">
        <ele>102</ele>
        <time>2015-12-13T15:14:35Z</time>
      </trkpt>
      <trkpt lat="50.76974" lon="3.70922">
        <ele>102</ele>
        <time>2015-12-13T15:14:36Z</time>
      </trkpt>
      <trkpt lat="50.76972" lon="3.7092">
        <ele>102</ele>
        <time>2015-12-13T15:14:38Z</time>
      </trkpt>
      <trkpt lat="50.76969" lon="3.70916">
        <ele>102</ele>
        <time>2015-12-13T15:14:40Z</time>
      </trkpt>
      <trkpt lat="50.76966" lon="3.70914">
        <ele>102</ele>
        <time>2015-12-13T15:14:42Z</time>
      </trkpt>
      <trkpt lat="50.76964" lon="3.70912">
        <ele>102</ele>
        <time>2015-12-13T15:14:44Z</time>
      </trkpt>
      <trkpt lat="50.76962" lon="3.7091">
        <ele>102</ele>
        <time>2015-12-13T15:14:46Z</time>
      </trkpt>
      <trkpt lat="50.76959" lon="3.70908">
        <ele>102</ele>
        <time>2015-12-13T15:14:48Z</time>
      </trkpt>
      <trkpt lat="50.76956" lon="3.70905">
        <ele>102</ele>
        <time>2015-12-13T15:14:50Z</time>
      </trkpt>
      <trkpt lat="50.76954" lon="3.70903">
        <ele>102</ele>
        <time>2015-12-13T15:14:52Z</time>
      </trkpt>
      <trkpt lat="50.76951" lon="3.70901">
        <ele>102</ele>
        <time>2015-12-13T15:14:54Z</time>
      </trkpt>
      <trkpt lat="50.76949" lon="3.70899">
        <ele>102</ele>
        <time>2015-12-13T15:14:56Z</time>
      </trkpt>
      <trkpt lat="50.76946" lon="3.70898">
        <ele>102</ele>
        <time>2015-12-13T15:14:58Z</time>
      </trkpt>
      <trkpt lat="50.76943" lon="3.70896">
        <ele>102</ele>
        <time>2015-12-13T15:15:00Z</time>
      </trkpt>
      <trkpt lat="50.76941" lon="3.70895">
        <ele>102</ele>
        <time>2015-12-13T15:15:01Z</time>
      </trkpt>
      <trkpt lat="50.76937" lon="3.70893">
        <ele>102</ele>
        <time>2015-12-13T15:15:03Z</time>
      </trkpt>
      <trkpt lat="50.76936" lon="3.70893">
        <ele>102</ele>
        <time>2015-12-13T15:15:04Z</time>
      </trkpt>
      <trkpt lat="50.76933" lon="3.70891">
        <ele>102</ele>
        <time>2015-12-13T15:15:06Z</time>
      </trkpt>
      <trkpt lat="50.7693" lon="3.7089">
        <ele>102</ele>
        <time>2015-12-13T15:15:08Z</time>
      </trkpt>
      <trkpt lat="50.76927" lon="3.7089">
        <ele>102</ele>
        <time>2015-12-13T15:15:10Z</time>
      </trkpt>
      <trkpt lat="50.76924" lon="3.7089">
        <ele>102</ele>
        <time>2015-12-13T15:15:12Z</time>
      </trkpt>
      <trkpt lat="50.76922" lon="3.7089">
        <ele>102</ele>
        <time>2015-12-13T15:15:14Z</time>
      </trkpt>
      <trkpt lat="50.7692" lon="3.7089">
        <ele>102</ele>
        <time>2015-12-13T15:15:16Z</time>
      </trkpt>
      <trkpt lat="50.76917" lon="3.7089">
        <ele>102</ele>
        <time>2015-12-13T15:15:18Z</time>
      </trkpt>
      <trkpt lat="50.76915" lon="3.70893">
        <ele>102</ele>
        <time>2015-12-13T15:15:20Z</time>
      </trkpt>
      <trkpt lat="50.76914" lon="3.70895">
        <ele>102</ele>
        <time>2015-12-13T15:15:22Z</time>
      </trkpt>
      <trkpt lat="50.76906" lon="3.70904">
        <ele>102</ele>
        <time>2015-12-13T15:15:29Z</time>
      </trkpt>
      <trkpt lat="50.76903" lon="3.70906">
        <ele>102.7</ele>
        <time>2015-12-13T15:15:32Z</time>
      </trkpt>
      <trkpt lat="50.769" lon="3.70908">
        <ele>103</ele>
        <time>2015-12-13T15:15:34Z</time>
      </trkpt>
      <trkpt lat="50.76897" lon="3.7091">
        <ele>103</ele>
        <time>2015-12-13T15:15:36Z</time>
      </trkpt>
      <trkpt lat="50.76895" lon="3.70911">
        <ele>103</ele>
        <time>2015-12-13T15:15:38Z</time>
      </trkpt>
      <trkpt lat="50.76893" lon="3.70913">
        <ele>103</ele>
        <time>2015-12-13T15:15:41Z</time>
      </trkpt>
      <trkpt lat="50.76891" lon="3.70915">
        <ele>103</ele>
        <time>2015-12-13T15:15:43Z</time>
      </trkpt>
      <trkpt lat="50.76888" lon="3.70916">
        <ele>103</ele>
        <time>2015-12-13T15:15:45Z</time>
      </trkpt>
      <trkpt lat="50.76885" lon="3.70919">
        <ele>103</ele>
        <time>2015-12-13T15:15:47Z</time>
      </trkpt>
      <trkpt lat="50.76883" lon="3.7092">
        <ele>103</ele>
        <time>2015-12-13T15:15:49Z</time>
      </trkpt>
      <trkpt lat="50.76881" lon="3.70921">
        <ele>103</ele>
        <time>2015-12-13T15:15:51Z</time>
      </trkpt>
      <trkpt lat="50.7688" lon="3.70922">
        <ele>105</ele>
        <time>2015-12-13T15:15:53Z</time>
      </trkpt>
      <trkpt lat="50.76878" lon="3.70924">
        <ele>105</ele>
        <time>2015-12-13T15:15:55Z</time>
      </trkpt>
      <trkpt lat="50.76876" lon="3.70926">
        <ele>105</ele>
        <time>2015-12-13T15:15:57Z</time>
      </trkpt>
      <trkpt lat="50.76873" lon="3.70927">
        <ele>105</ele>
        <time>2015-12-13T15:15:59Z</time>
      </trkpt>
      <trkpt lat="50.76871" lon="3.70929">
        <ele>106.4</ele>
        <time>2015-12-13T15:16:01Z</time>
      </trkpt>
      <trkpt lat="50.76867" lon="3.70933">
        <ele>107</ele>
        <time>2015-12-13T15:16:03Z</time>
      </trkpt>
      <trkpt lat="50.76865" lon="3.70936">
        <ele>107</ele>
        <time>2015-12-13T15:16:05Z</time>
      </trkpt>
      <trkpt lat="50.76863" lon="3.70938">
        <ele>107</ele>
        <time>2015-12-13T15:16:07Z</time>
      </trkpt>
      <trkpt lat="50.7686" lon="3.7094">
        <ele>107</ele>
        <time>2015-12-13T15:16:09Z</time>
      </trkpt>
      <trkpt lat="50.76858" lon="3.70942">
        <ele>107.7</ele>
        <time>2015-12-13T15:16:11Z</time>
      </trkpt>
      <trkpt lat="50.76856" lon="3.70944">
        <ele>108</ele>
        <time>2015-12-13T15:16:13Z</time>
      </trkpt>
      <trkpt lat="50.76854" lon="3.70946">
        <ele>108</ele>
        <time>2015-12-13T15:16:16Z</time>
      </trkpt>
      <trkpt lat="50.76851" lon="3.70946">
        <ele>108</ele>
        <time>2015-12-13T15:16:18Z</time>
      </trkpt>
      <trkpt lat="50.76848" lon="3.70947">
        <ele>108</ele>
        <time>2015-12-13T15:16:20Z</time>
      </trkpt>
      <trkpt lat="50.76845" lon="3.70947">
        <ele>109</ele>
        <time>2015-12-13T15:16:22Z</time>
      </trkpt>
      <trkpt lat="50.76843" lon="3.70948">
        <ele>109</ele>
        <time>2015-12-13T15:16:24Z</time>
      </trkpt>
      <trkpt lat="50.76841" lon="3.7095">
        <ele>109</ele>
        <time>2015-12-13T15:16:26Z</time>
      </trkpt>
      <trkpt lat="50.76837" lon="3.70952">
        <ele>109</ele>
        <time>2015-12-13T15:16:28Z</time>
      </trkpt>
      <trkpt lat="50.76834" lon="3.70953">
        <ele>109</ele>
        <time>2015-12-13T15:16:30Z</time>
      </trkpt>
      <trkpt lat="50.76831" lon="3.70954">
        <ele>111</ele>
        <time>2015-12-13T15:16:32Z</time>
      </trkpt>
      <trkpt lat="50.76829" lon="3.70956">
        <ele>111</ele>
        <time>2015-12-13T15:16:34Z</time>
      </trkpt>
      <trkpt lat="50.76827" lon="3.70957">
        <ele>111</ele>
        <time>2015-12-13T15:16:36Z</time>
      </trkpt>
      <trkpt lat="50.76824" lon="3.70957">
        <ele>111</ele>
        <time>2015-12-13T15:16:38Z</time>
      </trkpt>
      <trkpt lat="50.76822" lon="3.70958">
        <ele>111</ele>
        <time>2015-12-13T15:16:40Z</time>
      </trkpt>
      <trkpt lat="50.7682" lon="3.7096">
        <ele>112</ele>
        <time>2015-12-13T15:16:42Z</time>
      </trkpt>
      <trkpt lat="50.76817" lon="3.70962">
        <ele>112</ele>
        <time>2015-12-13T15:16:44Z</time>
      </trkpt>
      <trkpt lat="50.76815" lon="3.70963">
        <ele>112</ele>
        <time>2015-12-13T15:16:46Z</time>
      </trkpt>
      <trkpt lat="50.76813" lon="3.70965">
        <ele>112</ele>
        <time>2015-12-13T15:16:48Z</time>
      </trkpt>
      <trkpt lat="50.7681" lon="3.70966">
        <ele>112</ele>
        <time>2015-12-13T15:16:50Z</time>
      </trkpt>
      <trkpt lat="50.76808" lon="3.70969">
        <ele>113</ele>
        <time>2015-12-13T15:16:52Z</time>
      </trkpt>
      <trkpt lat="50.76806" lon="3.70971">
        <ele>113</ele>
        <time>2015-12-13T15:16:54Z</time>
      </trkpt>
      <trkpt lat="50.76804" lon="3.70973">
        <ele>113</ele>
        <time>2015-12-13T15:16:56Z</time>
      </trkpt>
      <trkpt lat="50.76802" lon="3.70975">
        <ele>113</ele>
        <time>2015-12-13T15:16:58Z</time>
      </trkpt>
      <trkpt lat="50.768" lon="3.70978">
        <ele>113</ele>
        <time>2015-12-13T15:17:00Z</time>
      </trkpt>
      <trkpt lat="50.76798" lon="3.70979">
        <ele>113</ele>
        <time>2015-12-13T15:17:02Z</time>
      </trkpt>
      <trkpt lat="50.76796" lon="3.70981">
        <ele>113</ele>
        <time>2015-12-13T15:17:04Z</time>
      </trkpt>
      <trkpt lat="50.76795" lon="3.70982">
        <ele>113</ele>
        <time>2015-12-13T15:17:06Z</time>
      </trkpt>
      <trkpt lat="50.76793" lon="3.70984">
        <ele>113</ele>
        <time>2015-12-13T15:17:08Z</time>
      </trkpt>
      <trkpt lat="50.7679" lon="3.70985">
        <ele>113</ele>
        <time>2015-12-13T15:17:10Z</time>
      </trkpt>
      <trkpt lat="50.76788" lon="3.70988">
        <ele>118</ele>
        <time>2015-12-13T15:17:12Z</time>
      </trkpt>
      <trkpt lat="50.76785" lon="3.7099">
        <ele>118</ele>
        <time>2015-12-13T15:17:14Z</time>
      </trkpt>
      <trkpt lat="50.76783" lon="3.70991">
        <ele>119.4</ele>
        <time>2015-12-13T15:17:16Z</time>
      </trkpt>
      <trkpt lat="50.7678" lon="3.70992">
        <ele>120</ele>
        <time>2015-12-13T15:17:18Z</time>
      </trkpt>
      <trkpt lat="50.76778" lon="3.70994">
        <ele>120</ele>
        <time>2015-12-13T15:17:20Z</time>
      </trkpt>
      <trkpt lat="50.76775" lon="3.70995">
        <ele>121</ele>
        <time>2015-12-13T15:17:22Z</time>
      </trkpt>
      <trkpt lat="50.76772" lon="3.70996">
        <ele>121</ele>
        <time>2015-12-13T15:17:24Z</time>
      </trkpt>
      <trkpt lat="50.76769" lon="3.70996">
        <ele>121</ele>
        <time>2015-12-13T15:17:26Z</time>
      </trkpt>
      <trkpt lat="50.76767" lon="3.70996">
        <ele>121</ele>
        <time>2015-12-13T15:17:28Z</time>
      </trkpt>
      <trkpt lat="50.76765" lon="3.70995">
        <ele>121</ele>
        <time>2015-12-13T15:17:30Z</time>
      </trkpt>
      <trkpt lat="50.76763" lon="3.70995">
        <ele>121</ele>
        <time>2015-12-13T15:17:33Z</time>
      </trkpt>
      <trkpt lat="50.76761" lon="3.70994">
        <ele>121</ele>
        <time>2015-12-13T15:17:35Z</time>
      </trkpt>
      <trkpt lat="50.76758" lon="3.70992">
        <ele>121</ele>
        <time>2015-12-13T15:17:37Z</time>
      </trkpt>
      <trkpt lat="50.76756" lon="3.70991">
        <ele>121</ele>
        <time>2015-12-13T15:17:39Z</time>
      </trkpt>
      <trkpt lat="50.76753" lon="3.70989">
        <ele>121.5</ele>
        <time>2015-12-13T15:17:41Z</time>
      </trkpt>
      <trkpt lat="50.76751" lon="3.70985">
        <ele>122</ele>
        <time>2015-12-13T15:17:43Z</time>
      </trkpt>
      <trkpt lat="50.76749" lon="3.70981">
        <ele>122</ele>
        <time>2015-12-13T15:17:45Z</time>
      </trkpt>
      <trkpt lat="50.76748" lon="3.70978">
        <ele>122</ele>
        <time>2015-12-13T15:17:47Z</time>
      </trkpt>
      <trkpt lat="50.76746" lon="3.70974">
        <ele>122</ele>
        <time>2015-12-13T15:17:49Z</time>
      </trkpt>
      <trkpt lat="50.76745" lon="3.7097">
        <ele>122.7</ele>
        <time>2015-12-13T15:17:51Z</time>
      </trkpt>
      <trkpt lat="50.76743" lon="3.70967">
        <ele>123</ele>
        <time>2015-12-13T15:17:53Z</time>
      </trkpt>
      <trkpt lat="50.76741" lon="3.70965">
        <ele>123</ele>
        <time>2015-12-13T15:17:55Z</time>
      </trkpt>
      <trkpt lat="50.7674" lon="3.70963">
        <ele>123</ele>
        <time>2015-12-13T15:17:59Z</time>
      </trkpt>
      <trkpt lat="50.76737" lon="3.7096">
        <ele>124</ele>
        <time>2015-12-13T15:18:13Z</time>
      </trkpt>
      <trkpt lat="50.76735" lon="3.70958">
        <ele>124</ele>
        <time>2015-12-13T15:18:15Z</time>
      </trkpt>
      <trkpt lat="50.76733" lon="3.70956">
        <ele>124</ele>
        <time>2015-12-13T15:18:17Z</time>
      </trkpt>
      <trkpt lat="50.7673" lon="3.70957">
        <ele>124</ele>
        <time>2015-12-13T15:18:19Z</time>
      </trkpt>
      <trkpt lat="50.76728" lon="3.70957">
        <ele>124</ele>
        <time>2015-12-13T15:18:21Z</time>
      </trkpt>
      <trkpt lat="50.76726" lon="3.70956">
        <ele>124</ele>
        <time>2015-12-13T15:18:23Z</time>
      </trkpt>
      <trkpt lat="50.76723" lon="3.70954">
        <ele>124</ele>
        <time>2015-12-13T15:18:25Z</time>
      </trkpt>
      <trkpt lat="50.7672" lon="3.70951">
        <ele>124</ele>
        <time>2015-12-13T15:18:27Z</time>
      </trkpt>
      <trkpt lat="50.76718" lon="3.70949">
        <ele>124</ele>
        <time>2015-12-13T15:18:29Z</time>
      </trkpt>
      <trkpt lat="50.76716" lon="3.70946">
        <ele>123.3</ele>
        <time>2015-12-13T15:18:31Z</time>
      </trkpt>
      <trkpt lat="50.76713" lon="3.70943">
        <ele>123</ele>
        <time>2015-12-13T15:18:33Z</time>
      </trkpt>
      <trkpt lat="50.76711" lon="3.70941">
        <ele>123</ele>
        <time>2015-12-13T15:18:36Z</time>
      </trkpt>
      <trkpt lat="50.76709" lon="3.70938">
        <ele>123</ele>
        <time>2015-12-13T15:18:38Z</time>
      </trkpt>
      <trkpt lat="50.76707" lon="3.70935">
        <ele>123</ele>
        <time>2015-12-13T15:18:40Z</time>
      </trkpt>
      <trkpt lat="50.76705" lon="3.70931">
        <ele>122</ele>
        <time>2015-12-13T15:18:42Z</time>
      </trkpt>
      <trkpt lat="50.76702" lon="3.70929">
        <ele>122</ele>
        <time>2015-12-13T15:18:44Z</time>
      </trkpt>
      <trkpt lat="50.76699" lon="3.70927">
        <ele>122</ele>
        <time>2015-12-13T15:18:46Z</time>
      </trkpt>
      <trkpt lat="50.76696" lon="3.70924">
        <ele>122</ele>
        <time>2015-12-13T15:18:48Z</time>
      </trkpt>
      <trkpt lat="50.76695" lon="3.70921">
        <ele>122</ele>
        <time>2015-12-13T15:18:49Z</time>
      </trkpt>
      <trkpt lat="50.76693" lon="3.70919">
        <ele>122</ele>
        <time>2015-12-13T15:18:50Z</time>
      </trkpt>
      <trkpt lat="50.76692" lon="3.70916">
        <ele>121.3</ele>
        <time>2015-12-13T15:18:51Z</time>
      </trkpt>
      <trkpt lat="50.7669" lon="3.70914">
        <ele>121</ele>
        <time>2015-12-13T15:18:52Z</time>
      </trkpt>
      <trkpt lat="50.76688" lon="3.70911">
        <ele>121</ele>
        <time>2015-12-13T15:18:53Z</time>
      </trkpt>
      <trkpt lat="50.76687" lon="3.70909">
        <ele>121</ele>
        <time>2015-12-13T15:18:54Z</time>
      </trkpt>
      <trkpt lat="50.76685" lon="3.70906">
        <ele>121</ele>
        <time>2015-12-13T15:18:55Z</time>
      </trkpt>
      <trkpt lat="50.76684" lon="3.70903">
        <ele>121</ele>
        <time>2015-12-13T15:18:56Z</time>
      </trkpt>
      <trkpt lat="50.76682" lon="3.70901">
        <ele>121</ele>
        <time>2015-12-13T15:18:57Z</time>
      </trkpt>
      <trkpt lat="50.7668" lon="3.70899">
        <ele>121</ele>
        <time>2015-12-13T15:18:58Z</time>
      </trkpt>
      <trkpt lat="50.76678" lon="3.70896">
        <ele>121</ele>
        <time>2015-12-13T15:18:59Z</time>
      </trkpt>
      <trkpt lat="50.76676" lon="3.70894">
        <ele>121</ele>
        <time>2015-12-13T15:19:00Z</time>
      </trkpt>
      <trkpt lat="50.76675" lon="3.70891">
        <ele>120.3</ele>
        <time>2015-12-13T15:19:01Z</time>
      </trkpt>
      <trkpt lat="50.76673" lon="3.70889">
        <ele>120</ele>
        <time>2015-12-13T15:19:02Z</time>
      </trkpt>
      <trkpt lat="50.76672" lon="3.70885">
        <ele>120</ele>
        <time>2015-12-13T15:19:03Z</time>
      </trkpt>
      <trkpt lat="50.76671" lon="3.70883">
        <ele>120</ele>
        <time>2015-12-13T15:19:04Z</time>
      </trkpt>
      <trkpt lat="50.76669" lon="3.7088">
        <ele>120</ele>
        <time>2015-12-13T15:19:05Z</time>
      </trkpt>
      <trkpt lat="50.76667" lon="3.70879">
        <ele>120</ele>
        <time>2015-12-13T15:19:06Z</time>
      </trkpt>
      <trkpt lat="50.76665" lon="3.70877">
        <ele>120</ele>
        <time>2015-12-13T15:19:07Z</time>
      </trkpt>
      <trkpt lat="50.76663" lon="3.70875">
        <ele>120</ele>
        <time>2015-12-13T15:19:08Z</time>
      </trkpt>
      <trkpt lat="50.76661" lon="3.70873">
        <ele>120</ele>
        <time>2015-12-13T15:19:09Z</time>
      </trkpt>
      <trkpt lat="50.76659" lon="3.70872">
        <ele>120</ele>
        <time>2015-12-13T15:19:10Z</time>
      </trkpt>
      <trkpt lat="50.76657" lon="3.70871">
        <ele>120</ele>
        <time>2015-12-13T15:19:11Z</time>
      </trkpt>
      <trkpt lat="50.76655" lon="3.7087">
        <ele>120</ele>
        <time>2015-12-13T15:19:12Z</time>
      </trkpt>
      <trkpt lat="50.76653" lon="3.70869">
        <ele>120</ele>
        <time>2015-12-13T15:19:13Z</time>
      </trkpt>
      <trkpt lat="50.76651" lon="3.70868">
        <ele>120</ele>
        <time>2015-12-13T15:19:14Z</time>
      </trkpt>
      <trkpt lat="50.76649" lon="3.70867">
        <ele>120</ele>
        <time>2015-12-13T15:19:15Z</time>
      </trkpt>
      <trkpt lat="50.76647" lon="3.70866">
        <ele>120</ele>
        <time>2015-12-13T15:19:16Z</time>
      </trkpt>
      <trkpt lat="50.76645" lon="3.70864">
        <ele>120</ele>
        <time>2015-12-13T15:19:17Z</time>
      </trkpt>
      <trkpt lat="50.76643" lon="3.70863">
        <ele>120</ele>
        <time>2015-12-13T15:19:18Z</time>
      </trkpt>
      <trkpt lat="50.76641" lon="3.70863">
        <ele>120</ele>
        <time>2015-12-13T15:19:19Z</time>
      </trkpt>
      <trkpt lat="50.76639" lon="3.70862">
        <ele>120</ele>
        <time>2015-12-13T15:19:20Z</time>
      </trkpt>
      <trkpt lat="50.76637" lon="3.70861">
        <ele>120</ele>
        <time>2015-12-13T15:19:21Z</time>
      </trkpt>
      <trkpt lat="50.76635" lon="3.70859">
        <ele>120</ele>
        <time>2015-12-13T15:19:22Z</time>
      </trkpt>
      <trkpt lat="50.76632" lon="3.70857">
        <ele>120</ele>
        <time>2015-12-13T15:19:24Z</time>
      </trkpt>
      <trkpt lat="50.7663" lon="3.70855">
        <ele>120</ele>
        <time>2015-12-13T15:19:25Z</time>
      </trkpt>
      <trkpt lat="50.76626" lon="3.70854">
        <ele>120</ele>
        <time>2015-12-13T15:19:27Z</time>
      </trkpt>
      <trkpt lat="50.76624" lon="3.70853">
        <ele>120</ele>
        <time>2015-12-13T15:19:28Z</time>
      </trkpt>
      <trkpt lat="50.76622" lon="3.70853">
        <ele>120</ele>
        <time>2015-12-13T15:19:29Z</time>
      </trkpt>
      <trkpt lat="50.7662" lon="3.70852">
        <ele>120</ele>
        <time>2015-12-13T15:19:30Z</time>
      </trkpt>
      <trkpt lat="50.76618" lon="3.70851">
        <ele>120.7</ele>
        <time>2015-12-13T15:19:31Z</time>
      </trkpt>
      <trkpt lat="50.76616" lon="3.7085">
        <ele>121</ele>
        <time>2015-12-13T15:19:32Z</time>
      </trkpt>
      <trkpt lat="50.76614" lon="3.70849">
        <ele>121</ele>
        <time>2015-12-13T15:19:33Z</time>
      </trkpt>
      <trkpt lat="50.76612" lon="3.70849">
        <ele>121</ele>
        <time>2015-12-13T15:19:34Z</time>
      </trkpt>
      <trkpt lat="50.7661" lon="3.70848">
        <ele>121</ele>
        <time>2015-12-13T15:19:35Z</time>
      </trkpt>
      <trkpt lat="50.76608" lon="3.70848">
        <ele>121</ele>
        <time>2015-12-13T15:19:36Z</time>
      </trkpt>
      <trkpt lat="50.76606" lon="3.70847">
        <ele>121</ele>
        <time>2015-12-13T15:19:37Z</time>
      </trkpt>
      <trkpt lat="50.76604" lon="3.70847">
        <ele>121</ele>
        <time>2015-12-13T15:19:38Z</time>
      </trkpt>
      <trkpt lat="50.76602" lon="3.70846">
        <ele>121</ele>
        <time>2015-12-13T15:19:39Z</time>
      </trkpt>
      <trkpt lat="50.76599" lon="3.70845">
        <ele>121</ele>
        <time>2015-12-13T15:19:40Z</time>
      </trkpt>
      <trkpt lat="50.76597" lon="3.70844">
        <ele>122.4</ele>
        <time>2015-12-13T15:19:41Z</time>
      </trkpt>
      <trkpt lat="50.76595" lon="3.70843">
        <ele>123</ele>
        <time>2015-12-13T15:19:42Z</time>
      </trkpt>
      <trkpt lat="50.76593" lon="3.70842">
        <ele>123</ele>
        <time>2015-12-13T15:19:43Z</time>
      </trkpt>
      <trkpt lat="50.7659" lon="3.70841">
        <ele>123</ele>
        <time>2015-12-13T15:19:44Z</time>
      </trkpt>
      <trkpt lat="50.76588" lon="3.7084">
        <ele>123</ele>
        <time>2015-12-13T15:19:45Z</time>
      </trkpt>
      <trkpt lat="50.76586" lon="3.70839">
        <ele>123</ele>
        <time>2015-12-13T15:19:46Z</time>
      </trkpt>
      <trkpt lat="50.76584" lon="3.70837">
        <ele>123</ele>
        <time>2015-12-13T15:19:47Z</time>
      </trkpt>
      <trkpt lat="50.76583" lon="3.70836">
        <ele>123</ele>
        <time>2015-12-13T15:19:48Z</time>
      </trkpt>
      <trkpt lat="50.76581" lon="3.70833">
        <ele>123</ele>
        <time>2015-12-13T15:19:49Z</time>
      </trkpt>
      <trkpt lat="50.76579" lon="3.70832">
        <ele>123</ele>
        <time>2015-12-13T15:19:50Z</time>
      </trkpt>
      <trkpt lat="50.76578" lon="3.70829">
        <ele>123.7</ele>
        <time>2015-12-13T15:19:51Z</time>
      </trkpt>
      <trkpt lat="50.76576" lon="3.70827">
        <ele>124</ele>
        <time>2015-12-13T15:19:52Z</time>
      </trkpt>
      <trkpt lat="50.76573" lon="3.70825">
        <ele>124</ele>
        <time>2015-12-13T15:19:53Z</time>
      </trkpt>
      <trkpt lat="50.76571" lon="3.70824">
        <ele>124</ele>
        <time>2015-12-13T15:19:54Z</time>
      </trkpt>
      <trkpt lat="50.76569" lon="3.70823">
        <ele>124</ele>
        <time>2015-12-13T15:19:55Z</time>
      </trkpt>
      <trkpt lat="50.76567" lon="3.70819">
        <ele>124</ele>
        <time>2015-12-13T15:19:57Z</time>
      </trkpt>
      <trkpt lat="50.76566" lon="3.70816">
        <ele>124</ele>
        <time>2015-12-13T15:19:58Z</time>
      </trkpt>
      <trkpt lat="50.76564" lon="3.70812">
        <ele>124</ele>
        <time>2015-12-13T15:20:00Z</time>
      </trkpt>
      <trkpt lat="50.76563" lon="3.70807">
        <ele>124</ele>
        <time>2015-12-13T15:20:02Z</time>
      </trkpt>
      <trkpt lat="50.76562" lon="3.70801">
        <ele>124</ele>
        <time>2015-12-13T15:20:04Z</time>
      </trkpt>
      <trkpt lat="50.76561" lon="3.70798">
        <ele>124</ele>
        <time>2015-12-13T15:20:05Z</time>
      </trkpt>
      <trkpt lat="50.76561" lon="3.70796">
        <ele>124</ele>
        <time>2015-12-13T15:20:06Z</time>
      </trkpt>
      <trkpt lat="50.7656" lon="3.70791">
        <ele>124</ele>
        <time>2015-12-13T15:20:08Z</time>
      </trkpt>
      <trkpt lat="50.76559" lon="3.70786">
        <ele>124</ele>
        <time>2015-12-13T15:20:10Z</time>
      </trkpt>
      <trkpt lat="50.76558" lon="3.70782">
        <ele>124</ele>
        <time>2015-12-13T15:20:12Z</time>
      </trkpt>
      <trkpt lat="50.76557" lon="3.70778">
        <ele>124</ele>
        <time>2015-12-13T15:20:14Z</time>
      </trkpt>
      <trkpt lat="50.76556" lon="3.70773">
        <ele>124</ele>
        <time>2015-12-13T15:20:16Z</time>
      </trkpt>
      <trkpt lat="50.76555" lon="3.70768">
        <ele>124</ele>
        <time>2015-12-13T15:20:18Z</time>
      </trkpt>
      <trkpt lat="50.76554" lon="3.70764">
        <ele>124</ele>
        <time>2015-12-13T15:20:20Z</time>
      </trkpt>
      <trkpt lat="50.76555" lon="3.7076">
        <ele>124</ele>
        <time>2015-12-13T15:20:23Z</time>
      </trkpt>
      <trkpt lat="50.76554" lon="3.70757">
        <ele>124</ele>
        <time>2015-12-13T15:20:25Z</time>
      </trkpt>
      <trkpt lat="50.76553" lon="3.70753">
        <ele>124</ele>
        <time>2015-12-13T15:20:27Z</time>
      </trkpt>
      <trkpt lat="50.76552" lon="3.7075">
        <ele>124</ele>
        <time>2015-12-13T15:20:29Z</time>
      </trkpt>
      <trkpt lat="50.76551" lon="3.70746">
        <ele>124</ele>
        <time>2015-12-13T15:20:31Z</time>
      </trkpt>
      <trkpt lat="50.7655" lon="3.70741">
        <ele>124</ele>
        <time>2015-12-13T15:20:33Z</time>
      </trkpt>
      <trkpt lat="50.76549" lon="3.70737">
        <ele>124</ele>
        <time>2015-12-13T15:20:35Z</time>
      </trkpt>
      <trkpt lat="50.76549" lon="3.70732">
        <ele>124</ele>
        <time>2015-12-13T15:20:37Z</time>
      </trkpt>
      <trkpt lat="50.76548" lon="3.70728">
        <ele>124</ele>
        <time>2015-12-13T15:20:39Z</time>
      </trkpt>
      <trkpt lat="50.76547" lon="3.70723">
        <ele>124</ele>
        <time>2015-12-13T15:20:41Z</time>
      </trkpt>
      <trkpt lat="50.76547" lon="3.70719">
        <ele>124</ele>
        <time>2015-12-13T15:20:43Z</time>
      </trkpt>
      <trkpt lat="50.76546" lon="3.70714">
        <ele>124</ele>
        <time>2015-12-13T15:20:45Z</time>
      </trkpt>
      <trkpt lat="50.76546" lon="3.70709">
        <ele>124</ele>
        <time>2015-12-13T15:20:47Z</time>
      </trkpt>
      <trkpt lat="50.76546" lon="3.70704">
        <ele>124</ele>
        <time>2015-12-13T15:20:49Z</time>
      </trkpt>
      <trkpt lat="50.76545" lon="3.707">
        <ele>124</ele>
        <time>2015-12-13T15:20:51Z</time>
      </trkpt>
      <trkpt lat="50.76545" lon="3.70695">
        <ele>124</ele>
        <time>2015-12-13T15:20:53Z</time>
      </trkpt>
      <trkpt lat="50.76545" lon="3.70691">
        <ele>124</ele>
        <time>2015-12-13T15:20:55Z</time>
      </trkpt>
      <trkpt lat="50.76545" lon="3.70689">
        <ele>124</ele>
        <time>2015-12-13T15:20:56Z</time>
      </trkpt>
      <trkpt lat="50.76545" lon="3.70686">
        <ele>124</ele>
        <time>2015-12-13T15:20:57Z</time>
      </trkpt>
      <trkpt lat="50.76546" lon="3.70681">
        <ele>124</ele>
        <time>2015-12-13T15:20:59Z</time>
      </trkpt>
      <trkpt lat="50.76545" lon="3.70678">
        <ele>124</ele>
        <time>2015-12-13T15:21:00Z</time>
      </trkpt>
      <trkpt lat="50.76544" lon="3.70671">
        <ele>124</ele>
        <time>2015-12-13T15:21:02Z</time>
      </trkpt>
      <trkpt lat="50.76544" lon="3.70668">
        <ele>124</ele>
        <time>2015-12-13T15:21:03Z</time>
      </trkpt>
      <trkpt lat="50.76543" lon="3.70665">
        <ele>124</ele>
        <time>2015-12-13T15:21:04Z</time>
      </trkpt>
      <trkpt lat="50.76542" lon="3.70662">
        <ele>124</ele>
        <time>2015-12-13T15:21:05Z</time>
      </trkpt>
      <trkpt lat="50.76541" lon="3.70659">
        <ele>124</ele>
        <time>2015-12-13T15:21:06Z</time>
      </trkpt>
      <trkpt lat="50.76539" lon="3.70656">
        <ele>124</ele>
        <time>2015-12-13T15:21:07Z</time>
      </trkpt>
      <trkpt lat="50.76538" lon="3.70653">
        <ele>124</ele>
        <time>2015-12-13T15:21:08Z</time>
      </trkpt>
      <trkpt lat="50.76537" lon="3.70651">
        <ele>124</ele>
        <time>2015-12-13T15:21:09Z</time>
      </trkpt>
      <trkpt lat="50.76536" lon="3.70648">
        <ele>124</ele>
        <time>2015-12-13T15:21:10Z</time>
      </trkpt>
      <trkpt lat="50.76535" lon="3.70643">
        <ele>125</ele>
        <time>2015-12-13T15:21:12Z</time>
      </trkpt>
      <trkpt lat="50.76535" lon="3.70638">
        <ele>125</ele>
        <time>2015-12-13T15:21:14Z</time>
      </trkpt>
      <trkpt lat="50.76535" lon="3.70634">
        <ele>125</ele>
        <time>2015-12-13T15:21:16Z</time>
      </trkpt>
      <trkpt lat="50.76535" lon="3.70629">
        <ele>125</ele>
        <time>2015-12-13T15:21:18Z</time>
      </trkpt>
      <trkpt lat="50.76534" lon="3.70625">
        <ele>125</ele>
        <time>2015-12-13T15:21:20Z</time>
      </trkpt>
      <trkpt lat="50.76534" lon="3.7062">
        <ele>127</ele>
        <time>2015-12-13T15:21:22Z</time>
      </trkpt>
      <trkpt lat="50.76533" lon="3.70615">
        <ele>127</ele>
        <time>2015-12-13T15:21:24Z</time>
      </trkpt>
      <trkpt lat="50.76532" lon="3.70611">
        <ele>127</ele>
        <time>2015-12-13T15:21:26Z</time>
      </trkpt>
      <trkpt lat="50.76531" lon="3.70606">
        <ele>127</ele>
        <time>2015-12-13T15:21:28Z</time>
      </trkpt>
      <trkpt lat="50.7653" lon="3.70602">
        <ele>127</ele>
        <time>2015-12-13T15:21:30Z</time>
      </trkpt>
      <trkpt lat="50.76529" lon="3.70598">
        <ele>128</ele>
        <time>2015-12-13T15:21:32Z</time>
      </trkpt>
      <trkpt lat="50.76528" lon="3.70593">
        <ele>128</ele>
        <time>2015-12-13T15:21:34Z</time>
      </trkpt>
      <trkpt lat="50.76526" lon="3.70589">
        <ele>128</ele>
        <time>2015-12-13T15:21:36Z</time>
      </trkpt>
      <trkpt lat="50.76523" lon="3.70584">
        <ele>128</ele>
        <time>2015-12-13T15:21:38Z</time>
      </trkpt>
      <trkpt lat="50.76522" lon="3.70581">
        <ele>128</ele>
        <time>2015-12-13T15:21:39Z</time>
      </trkpt>
      <trkpt lat="50.76521" lon="3.70579">
        <ele>128</ele>
        <time>2015-12-13T15:21:40Z</time>
      </trkpt>
      <trkpt lat="50.76519" lon="3.70576">
        <ele>128</ele>
        <time>2015-12-13T15:21:41Z</time>
      </trkpt>
      <trkpt lat="50.76517" lon="3.70573">
        <ele>128</ele>
        <time>2015-12-13T15:21:43Z</time>
      </trkpt>
      <trkpt lat="50.76515" lon="3.7057">
        <ele>128</ele>
        <time>2015-12-13T15:21:45Z</time>
      </trkpt>
      <trkpt lat="50.76513" lon="3.70567">
        <ele>128</ele>
        <time>2015-12-13T15:21:47Z</time>
      </trkpt>
      <trkpt lat="50.76511" lon="3.70563">
        <ele>128</ele>
        <time>2015-12-13T15:21:49Z</time>
      </trkpt>
      <trkpt lat="50.76509" lon="3.70561">
        <ele>128.7</ele>
        <time>2015-12-13T15:21:51Z</time>
      </trkpt>
      <trkpt lat="50.76506" lon="3.70558">
        <ele>129</ele>
        <time>2015-12-13T15:21:53Z</time>
      </trkpt>
      <trkpt lat="50.76504" lon="3.70555">
        <ele>129</ele>
        <time>2015-12-13T15:21:55Z</time>
      </trkpt>
      <trkpt lat="50.76502" lon="3.70553">
        <ele>129</ele>
        <time>2015-12-13T15:21:57Z</time>
      </trkpt>
      <trkpt lat="50.765" lon="3.7055">
        <ele>129</ele>
        <time>2015-12-13T15:21:59Z</time>
      </trkpt>
      <trkpt lat="50.76497" lon="3.70547">
        <ele>129</ele>
        <time>2015-12-13T15:22:01Z</time>
      </trkpt>
      <trkpt lat="50.76495" lon="3.70545">
        <ele>129</ele>
        <time>2015-12-13T15:22:03Z</time>
      </trkpt>
      <trkpt lat="50.76493" lon="3.70542">
        <ele>129</ele>
        <time>2015-12-13T15:22:05Z</time>
      </trkpt>
      <trkpt lat="50.7649" lon="3.7054">
        <ele>129</ele>
        <time>2015-12-13T15:22:07Z</time>
      </trkpt>
      <trkpt lat="50.76488" lon="3.70537">
        <ele>129</ele>
        <time>2015-12-13T15:22:09Z</time>
      </trkpt>
      <trkpt lat="50.76486" lon="3.70534">
        <ele>129</ele>
        <time>2015-12-13T15:22:11Z</time>
      </trkpt>
      <trkpt lat="50.76483" lon="3.70532">
        <ele>129</ele>
        <time>2015-12-13T15:22:13Z</time>
      </trkpt>
      <trkpt lat="50.76481" lon="3.7053">
        <ele>129</ele>
        <time>2015-12-13T15:22:15Z</time>
      </trkpt>
      <trkpt lat="50.76478" lon="3.70527">
        <ele>129</ele>
        <time>2015-12-13T15:22:17Z</time>
      </trkpt>
      <trkpt lat="50.76476" lon="3.70524">
        <ele>129</ele>
        <time>2015-12-13T15:22:19Z</time>
      </trkpt>
      <trkpt lat="50.76474" lon="3.70521">
        <ele>129</ele>
        <time>2015-12-13T15:22:21Z</time>
      </trkpt>
      <trkpt lat="50.76471" lon="3.70519">
        <ele>129</ele>
        <time>2015-12-13T15:22:23Z</time>
      </trkpt>
      <trkpt lat="50.76469" lon="3.70516">
        <ele>129</ele>
        <time>2015-12-13T15:22:25Z</time>
      </trkpt>
      <trkpt lat="50.76467" lon="3.70513">
        <ele>129</ele>
        <time>2015-12-13T15:22:27Z</time>
      </trkpt>
      <trkpt lat="50.76464" lon="3.7051">
        <ele>129</ele>
        <time>2015-12-13T15:22:29Z</time>
      </trkpt>
      <trkpt lat="50.76462" lon="3.70508">
        <ele>129</ele>
        <time>2015-12-13T15:22:31Z</time>
      </trkpt>
      <trkpt lat="50.76459" lon="3.70505">
        <ele>129</ele>
        <time>2015-12-13T15:22:33Z</time>
      </trkpt>
      <trkpt lat="50.76457" lon="3.70503">
        <ele>129</ele>
        <time>2015-12-13T15:22:35Z</time>
      </trkpt>
      <trkpt lat="50.76455" lon="3.70501">
        <ele>129</ele>
        <time>2015-12-13T15:22:37Z</time>
      </trkpt>
      <trkpt lat="50.76452" lon="3.70498">
        <ele>129</ele>
        <time>2015-12-13T15:22:39Z</time>
      </trkpt>
      <trkpt lat="50.7645" lon="3.70495">
        <ele>129.7</ele>
        <time>2015-12-13T15:22:41Z</time>
      </trkpt>
      <trkpt lat="50.76448" lon="3.70492">
        <ele>130</ele>
        <time>2015-12-13T15:22:43Z</time>
      </trkpt>
      <trkpt lat="50.76445" lon="3.70489">
        <ele>130</ele>
        <time>2015-12-13T15:22:45Z</time>
      </trkpt>
      <trkpt lat="50.76443" lon="3.70487">
        <ele>130</ele>
        <time>2015-12-13T15:22:46Z</time>
      </trkpt>
      <trkpt lat="50.76442" lon="3.70485">
        <ele>130</ele>
        <time>2015-12-13T15:22:47Z</time>
      </trkpt>
      <trkpt lat="50.7644" lon="3.70483">
        <ele>130</ele>
        <time>2015-12-13T15:22:48Z</time>
      </trkpt>
      <trkpt lat="50.76438" lon="3.70481">
        <ele>130</ele>
        <time>2015-12-13T15:22:49Z</time>
      </trkpt>
      <trkpt lat="50.76437" lon="3.70478">
        <ele>130</ele>
        <time>2015-12-13T15:22:50Z</time>
      </trkpt>
      <trkpt lat="50.76435" lon="3.70476">
        <ele>130</ele>
        <time>2015-12-13T15:22:51Z</time>
      </trkpt>
      <trkpt lat="50.76433" lon="3.70474">
        <ele>130</ele>
        <time>2015-12-13T15:22:52Z</time>
      </trkpt>
      <trkpt lat="50.76431" lon="3.70471">
        <ele>130</ele>
        <time>2015-12-13T15:22:53Z</time>
      </trkpt>
      <trkpt lat="50.76429" lon="3.70469">
        <ele>130</ele>
        <time>2015-12-13T15:22:54Z</time>
      </trkpt>
      <trkpt lat="50.76428" lon="3.70466">
        <ele>130</ele>
        <time>2015-12-13T15:22:55Z</time>
      </trkpt>
      <trkpt lat="50.76426" lon="3.70464">
        <ele>130</ele>
        <time>2015-12-13T15:22:56Z</time>
      </trkpt>
      <trkpt lat="50.76424" lon="3.70461">
        <ele>130</ele>
        <time>2015-12-13T15:22:57Z</time>
      </trkpt>
      <trkpt lat="50.76423" lon="3.70458">
        <ele>130</ele>
        <time>2015-12-13T15:22:58Z</time>
      </trkpt>
      <trkpt lat="50.76421" lon="3.70456">
        <ele>130</ele>
        <time>2015-12-13T15:22:59Z</time>
      </trkpt>
      <trkpt lat="50.76419" lon="3.70453">
        <ele>130</ele>
        <time>2015-12-13T15:23:00Z</time>
      </trkpt>
      <trkpt lat="50.76418" lon="3.70451">
        <ele>129.3</ele>
        <time>2015-12-13T15:23:01Z</time>
      </trkpt>
      <trkpt lat="50.76416" lon="3.70448">
        <ele>129</ele>
        <time>2015-12-13T15:23:02Z</time>
      </trkpt>
      <trkpt lat="50.76414" lon="3.70445">
        <ele>129</ele>
        <time>2015-12-13T15:23:03Z</time>
      </trkpt>
      <trkpt lat="50.76412" lon="3.70442">
        <ele>129</ele>
        <time>2015-12-13T15:23:04Z</time>
      </trkpt>
      <trkpt lat="50.76411" lon="3.7044">
        <ele>129</ele>
        <time>2015-12-13T15:23:05Z</time>
      </trkpt>
      <trkpt lat="50.76409" lon="3.70437">
        <ele>129</ele>
        <time>2015-12-13T15:23:06Z</time>
      </trkpt>
      <trkpt lat="50.76407" lon="3.70434">
        <ele>129</ele>
        <time>2015-12-13T15:23:07Z</time>
      </trkpt>
      <trkpt lat="50.76406" lon="3.70432">
        <ele>129</ele>
        <time>2015-12-13T15:23:08Z</time>
      </trkpt>
      <trkpt lat="50.76404" lon="3.70429">
        <ele>129</ele>
        <time>2015-12-13T15:23:09Z</time>
      </trkpt>
      <trkpt lat="50.76403" lon="3.70427">
        <ele>129</ele>
        <time>2015-12-13T15:23:10Z</time>
      </trkpt>
      <trkpt lat="50.76401" lon="3.70424">
        <ele>130.4</ele>
        <time>2015-12-13T15:23:11Z</time>
      </trkpt>
      <trkpt lat="50.76399" lon="3.70422">
        <ele>131</ele>
        <time>2015-12-13T15:23:12Z</time>
      </trkpt>
      <trkpt lat="50.76397" lon="3.70419">
        <ele>131</ele>
        <time>2015-12-13T15:23:13Z</time>
      </trkpt>
      <trkpt lat="50.76396" lon="3.70416">
        <ele>131</ele>
        <time>2015-12-13T15:23:14Z</time>
      </trkpt>
      <trkpt lat="50.76394" lon="3.70414">
        <ele>131</ele>
        <time>2015-12-13T15:23:15Z</time>
      </trkpt>
      <trkpt lat="50.76392" lon="3.70411">
        <ele>131</ele>
        <time>2015-12-13T15:23:16Z</time>
      </trkpt>
      <trkpt lat="50.7639" lon="3.70408">
        <ele>131</ele>
        <time>2015-12-13T15:23:17Z</time>
      </trkpt>
      <trkpt lat="50.76389" lon="3.70406">
        <ele>131</ele>
        <time>2015-12-13T15:23:18Z</time>
      </trkpt>
      <trkpt lat="50.76387" lon="3.70403">
        <ele>131</ele>
        <time>2015-12-13T15:23:19Z</time>
      </trkpt>
      <trkpt lat="50.76385" lon="3.70401">
        <ele>131</ele>
        <time>2015-12-13T15:23:20Z</time>
      </trkpt>
      <trkpt lat="50.76384" lon="3.70398">
        <ele>131</ele>
        <time>2015-12-13T15:23:21Z</time>
      </trkpt>
      <trkpt lat="50.76383" lon="3.70395">
        <ele>131</ele>
        <time>2015-12-13T15:23:22Z</time>
      </trkpt>
      <trkpt lat="50.76381" lon="3.70393">
        <ele>131</ele>
        <time>2015-12-13T15:23:23Z</time>
      </trkpt>
      <trkpt lat="50.7638" lon="3.7039">
        <ele>131</ele>
        <time>2015-12-13T15:23:24Z</time>
      </trkpt>
      <trkpt lat="50.76378" lon="3.70387">
        <ele>131</ele>
        <time>2015-12-13T15:23:25Z</time>
      </trkpt>
      <trkpt lat="50.76376" lon="3.70384">
        <ele>131</ele>
        <time>2015-12-13T15:23:26Z</time>
      </trkpt>
      <trkpt lat="50.76375" lon="3.70381">
        <ele>131</ele>
        <time>2015-12-13T15:23:27Z</time>
      </trkpt>
      <trkpt lat="50.76374" lon="3.70378">
        <ele>131</ele>
        <time>2015-12-13T15:23:28Z</time>
      </trkpt>
      <trkpt lat="50.76373" lon="3.70375">
        <ele>131</ele>
        <time>2015-12-13T15:23:29Z</time>
      </trkpt>
      <trkpt lat="50.76372" lon="3.70373">
        <ele>131</ele>
        <time>2015-12-13T15:23:30Z</time>
      </trkpt>
      <trkpt lat="50.76371" lon="3.7037">
        <ele>131.7</ele>
        <time>2015-12-13T15:23:31Z</time>
      </trkpt>
      <trkpt lat="50.7637" lon="3.70367">
        <ele>132</ele>
        <time>2015-12-13T15:23:32Z</time>
      </trkpt>
      <trkpt lat="50.76369" lon="3.70362">
        <ele>132</ele>
        <time>2015-12-13T15:23:34Z</time>
      </trkpt>
      <trkpt lat="50.76367" lon="3.70358">
        <ele>132</ele>
        <time>2015-12-13T15:23:36Z</time>
      </trkpt>
      <trkpt lat="50.76366" lon="3.70354">
        <ele>132</ele>
        <time>2015-12-13T15:23:38Z</time>
      </trkpt>
      <trkpt lat="50.76365" lon="3.7035">
        <ele>132</ele>
        <time>2015-12-13T15:23:40Z</time>
      </trkpt>
      <trkpt lat="50.76364" lon="3.70346">
        <ele>132</ele>
        <time>2015-12-13T15:23:42Z</time>
      </trkpt>
      <trkpt lat="50.76363" lon="3.70342">
        <ele>132</ele>
        <time>2015-12-13T15:23:44Z</time>
      </trkpt>
      <trkpt lat="50.76362" lon="3.70338">
        <ele>132</ele>
        <time>2015-12-13T15:23:46Z</time>
      </trkpt>
      <trkpt lat="50.76361" lon="3.70334">
        <ele>132</ele>
        <time>2015-12-13T15:23:48Z</time>
      </trkpt>
      <trkpt lat="50.7636" lon="3.70331">
        <ele>132</ele>
        <time>2015-12-13T15:23:50Z</time>
      </trkpt>
      <trkpt lat="50.76359" lon="3.70327">
        <ele>134</ele>
        <time>2015-12-13T15:23:52Z</time>
      </trkpt>
      <trkpt lat="50.76359" lon="3.70323">
        <ele>134</ele>
        <time>2015-12-13T15:23:54Z</time>
      </trkpt>
      <trkpt lat="50.76358" lon="3.7032">
        <ele>134</ele>
        <time>2015-12-13T15:23:56Z</time>
      </trkpt>
      <trkpt lat="50.76358" lon="3.70316">
        <ele>134</ele>
        <time>2015-12-13T15:23:58Z</time>
      </trkpt>
      <trkpt lat="50.76357" lon="3.70313">
        <ele>134</ele>
        <time>2015-12-13T15:24:00Z</time>
      </trkpt>
      <trkpt lat="50.76357" lon="3.70309">
        <ele>136</ele>
        <time>2015-12-13T15:24:02Z</time>
      </trkpt>
      <trkpt lat="50.76356" lon="3.70306">
        <ele>136</ele>
        <time>2015-12-13T15:24:04Z</time>
      </trkpt>
      <trkpt lat="50.76356" lon="3.70302">
        <ele>136</ele>
        <time>2015-12-13T15:24:06Z</time>
      </trkpt>
      <trkpt lat="50.76355" lon="3.70299">
        <ele>136</ele>
        <time>2015-12-13T15:24:08Z</time>
      </trkpt>
      <trkpt lat="50.76355" lon="3.70295">
        <ele>136</ele>
        <time>2015-12-13T15:24:10Z</time>
      </trkpt>
      <trkpt lat="50.76354" lon="3.70291">
        <ele>137</ele>
        <time>2015-12-13T15:24:12Z</time>
      </trkpt>
      <trkpt lat="50.76354" lon="3.70288">
        <ele>137</ele>
        <time>2015-12-13T15:24:14Z</time>
      </trkpt>
      <trkpt lat="50.76354" lon="3.70283">
        <ele>137</ele>
        <time>2015-12-13T15:24:16Z</time>
      </trkpt>
      <trkpt lat="50.76354" lon="3.70279">
        <ele>137</ele>
        <time>2015-12-13T15:24:18Z</time>
      </trkpt>
      <trkpt lat="50.76353" lon="3.70275">
        <ele>137</ele>
        <time>2015-12-13T15:24:20Z</time>
      </trkpt>
      <trkpt lat="50.76353" lon="3.70272">
        <ele>139</ele>
        <time>2015-12-13T15:24:22Z</time>
      </trkpt>
      <trkpt lat="50.76353" lon="3.70269">
        <ele>139</ele>
        <time>2015-12-13T15:24:24Z</time>
      </trkpt>
      <trkpt lat="50.76354" lon="3.70265">
        <ele>139</ele>
        <time>2015-12-13T15:24:27Z</time>
      </trkpt>
      <trkpt lat="50.76354" lon="3.70261">
        <ele>139</ele>
        <time>2015-12-13T15:24:29Z</time>
      </trkpt>
      <trkpt lat="50.76354" lon="3.70257">
        <ele>140.4</ele>
        <time>2015-12-13T15:24:31Z</time>
      </trkpt>
      <trkpt lat="50.76355" lon="3.70253">
        <ele>140.3</ele>
        <time>2015-12-13T15:24:33Z</time>
      </trkpt>
      <trkpt lat="50.76356" lon="3.70249">
        <ele>140</ele>
        <time>2015-12-13T15:24:35Z</time>
      </trkpt>
      <trkpt lat="50.76357" lon="3.70245">
        <ele>140</ele>
        <time>2015-12-13T15:24:37Z</time>
      </trkpt>
      <trkpt lat="50.76358" lon="3.70241">
        <ele>140</ele>
        <time>2015-12-13T15:24:39Z</time>
      </trkpt>
      <trkpt lat="50.76359" lon="3.70238">
        <ele>140.7</ele>
        <time>2015-12-13T15:24:41Z</time>
      </trkpt>
      <trkpt lat="50.7636" lon="3.70234">
        <ele>141</ele>
        <time>2015-12-13T15:24:43Z</time>
      </trkpt>
      <trkpt lat="50.76362" lon="3.7023">
        <ele>141</ele>
        <time>2015-12-13T15:24:45Z</time>
      </trkpt>
      <trkpt lat="50.76364" lon="3.70227">
        <ele>141</ele>
        <time>2015-12-13T15:24:47Z</time>
      </trkpt>
      <trkpt lat="50.76365" lon="3.70224">
        <ele>141</ele>
        <time>2015-12-13T15:24:49Z</time>
      </trkpt>
      <trkpt lat="50.76367" lon="3.70221">
        <ele>141.7</ele>
        <time>2015-12-13T15:24:51Z</time>
      </trkpt>
      <trkpt lat="50.76369" lon="3.70218">
        <ele>142</ele>
        <time>2015-12-13T15:24:53Z</time>
      </trkpt>
      <trkpt lat="50.76371" lon="3.70215">
        <ele>142</ele>
        <time>2015-12-13T15:24:55Z</time>
      </trkpt>
      <trkpt lat="50.76373" lon="3.70212">
        <ele>142</ele>
        <time>2015-12-13T15:24:57Z</time>
      </trkpt>
      <trkpt lat="50.76374" lon="3.70209">
        <ele>142</ele>
        <time>2015-12-13T15:24:59Z</time>
      </trkpt>
      <trkpt lat="50.76376" lon="3.70207">
        <ele>142.7</ele>
        <time>2015-12-13T15:25:01Z</time>
      </trkpt>
      <trkpt lat="50.76378" lon="3.70204">
        <ele>143</ele>
        <time>2015-12-13T15:25:03Z</time>
      </trkpt>
      <trkpt lat="50.7638" lon="3.70201">
        <ele>143</ele>
        <time>2015-12-13T15:25:05Z</time>
      </trkpt>
      <trkpt lat="50.76381" lon="3.70199">
        <ele>143</ele>
        <time>2015-12-13T15:25:07Z</time>
      </trkpt>
      <trkpt lat="50.76383" lon="3.70196">
        <ele>143</ele>
        <time>2015-12-13T15:25:09Z</time>
      </trkpt>
      <trkpt lat="50.76384" lon="3.70194">
        <ele>143.7</ele>
        <time>2015-12-13T15:25:11Z</time>
      </trkpt>
      <trkpt lat="50.76386" lon="3.70191">
        <ele>144</ele>
        <time>2015-12-13T15:25:13Z</time>
      </trkpt>
      <trkpt lat="50.76388" lon="3.70188">
        <ele>144</ele>
        <time>2015-12-13T15:25:15Z</time>
      </trkpt>
      <trkpt lat="50.7639" lon="3.70186">
        <ele>144</ele>
        <time>2015-12-13T15:25:16Z</time>
      </trkpt>
      <trkpt lat="50.76392" lon="3.70183">
        <ele>144</ele>
        <time>2015-12-13T15:25:18Z</time>
      </trkpt>
      <trkpt lat="50.76393" lon="3.7018">
        <ele>144</ele>
        <time>2015-12-13T15:25:20Z</time>
      </trkpt>
      <trkpt lat="50.76395" lon="3.70178">
        <ele>145</ele>
        <time>2015-12-13T15:25:22Z</time>
      </trkpt>
      <trkpt lat="50.76397" lon="3.70175">
        <ele>145</ele>
        <time>2015-12-13T15:25:24Z</time>
      </trkpt>
      <trkpt lat="50.76399" lon="3.70173">
        <ele>145</ele>
        <time>2015-12-13T15:25:26Z</time>
      </trkpt>
      <trkpt lat="50.76401" lon="3.70171">
        <ele>145</ele>
        <time>2015-12-13T15:25:28Z</time>
      </trkpt>
      <trkpt lat="50.76404" lon="3.70169">
        <ele>145</ele>
        <time>2015-12-13T15:25:30Z</time>
      </trkpt>
      <trkpt lat="50.76405" lon="3.70166">
        <ele>146</ele>
        <time>2015-12-13T15:25:32Z</time>
      </trkpt>
      <trkpt lat="50.76407" lon="3.70163">
        <ele>146</ele>
        <time>2015-12-13T15:25:34Z</time>
      </trkpt>
      <trkpt lat="50.76409" lon="3.7016">
        <ele>146</ele>
        <time>2015-12-13T15:25:36Z</time>
      </trkpt>
      <trkpt lat="50.7641" lon="3.70156">
        <ele>146</ele>
        <time>2015-12-13T15:25:38Z</time>
      </trkpt>
      <trkpt lat="50.76409" lon="3.70151">
        <ele>146</ele>
        <time>2015-12-13T15:25:40Z</time>
      </trkpt>
      <trkpt lat="50.76409" lon="3.70148">
        <ele>148</ele>
        <time>2015-12-13T15:25:42Z</time>
      </trkpt>
      <trkpt lat="50.76408" lon="3.70145">
        <ele>148</ele>
        <time>2015-12-13T15:25:44Z</time>
      </trkpt>
      <trkpt lat="50.76406" lon="3.70142">
        <ele>148</ele>
        <time>2015-12-13T15:25:46Z</time>
      </trkpt>
      <trkpt lat="50.76404" lon="3.7014">
        <ele>147</ele>
        <time>2015-12-13T15:25:48Z</time>
      </trkpt>
      <trkpt lat="50.76402" lon="3.70137">
        <ele>147</ele>
        <time>2015-12-13T15:25:50Z</time>
      </trkpt>
      <trkpt lat="50.764" lon="3.70134">
        <ele>147</ele>
        <time>2015-12-13T15:25:52Z</time>
      </trkpt>
      <trkpt lat="50.76398" lon="3.70131">
        <ele>147</ele>
        <time>2015-12-13T15:25:54Z</time>
      </trkpt>
      <trkpt lat="50.76397" lon="3.70129">
        <ele>147</ele>
        <time>2015-12-13T15:25:56Z</time>
      </trkpt>
      <trkpt lat="50.76395" lon="3.70127">
        <ele>147</ele>
        <time>2015-12-13T15:25:58Z</time>
      </trkpt>
      <trkpt lat="50.76394" lon="3.70125">
        <ele>147</ele>
        <time>2015-12-13T15:26:00Z</time>
      </trkpt>
      <trkpt lat="50.76393" lon="3.70123">
        <ele>149</ele>
        <time>2015-12-13T15:26:02Z</time>
      </trkpt>
      <trkpt lat="50.76391" lon="3.7012">
        <ele>149</ele>
        <time>2015-12-13T15:26:04Z</time>
      </trkpt>
      <trkpt lat="50.7639" lon="3.70116">
        <ele>149</ele>
        <time>2015-12-13T15:26:06Z</time>
      </trkpt>
      <trkpt lat="50.76389" lon="3.70113">
        <ele>149</ele>
        <time>2015-12-13T15:26:08Z</time>
      </trkpt>
      <trkpt lat="50.76388" lon="3.7011">
        <ele>149</ele>
        <time>2015-12-13T15:26:10Z</time>
      </trkpt>
      <trkpt lat="50.76386" lon="3.70106">
        <ele>151</ele>
        <time>2015-12-13T15:26:13Z</time>
      </trkpt>
      <trkpt lat="50.76385" lon="3.70103">
        <ele>151</ele>
        <time>2015-12-13T15:26:15Z</time>
      </trkpt>
      <trkpt lat="50.76383" lon="3.701">
        <ele>151</ele>
        <time>2015-12-13T15:26:17Z</time>
      </trkpt>
      <trkpt lat="50.76381" lon="3.70097">
        <ele>151</ele>
        <time>2015-12-13T15:26:19Z</time>
      </trkpt>
      <trkpt lat="50.76378" lon="3.70094">
        <ele>151</ele>
        <time>2015-12-13T15:26:21Z</time>
      </trkpt>
      <trkpt lat="50.76375" lon="3.70092">
        <ele>151</ele>
        <time>2015-12-13T15:26:23Z</time>
      </trkpt>
      <trkpt lat="50.76372" lon="3.70091">
        <ele>151</ele>
        <time>2015-12-13T15:26:25Z</time>
      </trkpt>
      <trkpt lat="50.7637" lon="3.7009">
        <ele>151</ele>
        <time>2015-12-13T15:26:27Z</time>
      </trkpt>
      <trkpt lat="50.76368" lon="3.70088">
        <ele>151</ele>
        <time>2015-12-13T15:26:29Z</time>
      </trkpt>
      <trkpt lat="50.76366" lon="3.70086">
        <ele>150.3</ele>
        <time>2015-12-13T15:26:31Z</time>
      </trkpt>
      <trkpt lat="50.76364" lon="3.70084">
        <ele>150</ele>
        <time>2015-12-13T15:26:33Z</time>
      </trkpt>
      <trkpt lat="50.76362" lon="3.70082">
        <ele>150</ele>
        <time>2015-12-13T15:26:35Z</time>
      </trkpt>
      <trkpt lat="50.7636" lon="3.7008">
        <ele>150</ele>
        <time>2015-12-13T15:26:37Z</time>
      </trkpt>
      <trkpt lat="50.76357" lon="3.70077">
        <ele>150</ele>
        <time>2015-12-13T15:26:39Z</time>
      </trkpt>
      <trkpt lat="50.76355" lon="3.70075">
        <ele>150</ele>
        <time>2015-12-13T15:26:41Z</time>
      </trkpt>
      <trkpt lat="50.76353" lon="3.70073">
        <ele>150</ele>
        <time>2015-12-13T15:26:43Z</time>
      </trkpt>
      <trkpt lat="50.76351" lon="3.70071">
        <ele>150</ele>
        <time>2015-12-13T15:26:45Z</time>
      </trkpt>
      <trkpt lat="50.76348" lon="3.70069">
        <ele>150</ele>
        <time>2015-12-13T15:26:47Z</time>
      </trkpt>
      <trkpt lat="50.76346" lon="3.70067">
        <ele>150</ele>
        <time>2015-12-13T15:26:49Z</time>
      </trkpt>
      <trkpt lat="50.76343" lon="3.70066">
        <ele>150</ele>
        <time>2015-12-13T15:26:51Z</time>
      </trkpt>
      <trkpt lat="50.7634" lon="3.70064">
        <ele>150</ele>
        <time>2015-12-13T15:26:53Z</time>
      </trkpt>
      <trkpt lat="50.76338" lon="3.70061">
        <ele>150</ele>
        <time>2015-12-13T15:26:55Z</time>
      </trkpt>
      <trkpt lat="50.76335" lon="3.70059">
        <ele>150</ele>
        <time>2015-12-13T15:26:57Z</time>
      </trkpt>
      <trkpt lat="50.76333" lon="3.70057">
        <ele>150</ele>
        <time>2015-12-13T15:26:59Z</time>
      </trkpt>
      <trkpt lat="50.7633" lon="3.70055">
        <ele>150</ele>
        <time>2015-12-13T15:27:01Z</time>
      </trkpt>
      <trkpt lat="50.76328" lon="3.70054">
        <ele>150</ele>
        <time>2015-12-13T15:27:03Z</time>
      </trkpt>
      <trkpt lat="50.76325" lon="3.70053">
        <ele>150</ele>
        <time>2015-12-13T15:27:05Z</time>
      </trkpt>
      <trkpt lat="50.76322" lon="3.70052">
        <ele>150</ele>
        <time>2015-12-13T15:27:07Z</time>
      </trkpt>
      <trkpt lat="50.7632" lon="3.7005">
        <ele>150</ele>
        <time>2015-12-13T15:27:09Z</time>
      </trkpt>
      <trkpt lat="50.76319" lon="3.70046">
        <ele>150</ele>
        <time>2015-12-13T15:27:11Z</time>
      </trkpt>
      <trkpt lat="50.76319" lon="3.70041">
        <ele>150</ele>
        <time>2015-12-13T15:27:13Z</time>
      </trkpt>
      <trkpt lat="50.76319" lon="3.70037">
        <ele>150</ele>
        <time>2015-12-13T15:27:15Z</time>
      </trkpt>
      <trkpt lat="50.76318" lon="3.70032">
        <ele>150</ele>
        <time>2015-12-13T15:27:17Z</time>
      </trkpt>
      <trkpt lat="50.76318" lon="3.70026">
        <ele>150</ele>
        <time>2015-12-13T15:27:19Z</time>
      </trkpt>
      <trkpt lat="50.76317" lon="3.70021">
        <ele>150</ele>
        <time>2015-12-13T15:27:21Z</time>
      </trkpt>
      <trkpt lat="50.76317" lon="3.70017">
        <ele>150</ele>
        <time>2015-12-13T15:27:23Z</time>
      </trkpt>
      <trkpt lat="50.76317" lon="3.70013">
        <ele>150</ele>
        <time>2015-12-13T15:27:25Z</time>
      </trkpt>
      <trkpt lat="50.76316" lon="3.70008">
        <ele>150</ele>
        <time>2015-12-13T15:27:27Z</time>
      </trkpt>
      <trkpt lat="50.76316" lon="3.70003">
        <ele>150</ele>
        <time>2015-12-13T15:27:29Z</time>
      </trkpt>
      <trkpt lat="50.76316" lon="3.69998">
        <ele>150</ele>
        <time>2015-12-13T15:27:31Z</time>
      </trkpt>
      <trkpt lat="50.76315" lon="3.69993">
        <ele>150</ele>
        <time>2015-12-13T15:27:33Z</time>
      </trkpt>
      <trkpt lat="50.76315" lon="3.6999">
        <ele>150</ele>
        <time>2015-12-13T15:27:35Z</time>
      </trkpt>
      <trkpt lat="50.76315" lon="3.69986">
        <ele>150</ele>
        <time>2015-12-13T15:27:37Z</time>
      </trkpt>
      <trkpt lat="50.76315" lon="3.69982">
        <ele>150</ele>
        <time>2015-12-13T15:27:39Z</time>
      </trkpt>
      <trkpt lat="50.76315" lon="3.69978">
        <ele>150</ele>
        <time>2015-12-13T15:27:41Z</time>
      </trkpt>
      <trkpt lat="50.76315" lon="3.69973">
        <ele>150</ele>
        <time>2015-12-13T15:27:43Z</time>
      </trkpt>
      <trkpt lat="50.76314" lon="3.69969">
        <ele>150</ele>
        <time>2015-12-13T15:27:45Z</time>
      </trkpt>
      <trkpt lat="50.76314" lon="3.69965">
        <ele>150</ele>
        <time>2015-12-13T15:27:47Z</time>
      </trkpt>
      <trkpt lat="50.76313" lon="3.69961">
        <ele>150</ele>
        <time>2015-12-13T15:27:49Z</time>
      </trkpt>
      <trkpt lat="50.76313" lon="3.69958">
        <ele>150</ele>
        <time>2015-12-13T15:27:51Z</time>
      </trkpt>
      <trkpt lat="50.76313" lon="3.69954">
        <ele>150</ele>
        <time>2015-12-13T15:27:53Z</time>
      </trkpt>
      <trkpt lat="50.76312" lon="3.69949">
        <ele>150</ele>
        <time>2015-12-13T15:27:55Z</time>
      </trkpt>
      <trkpt lat="50.76311" lon="3.69946">
        <ele>150</ele>
        <time>2015-12-13T15:27:57Z</time>
      </trkpt>
      <trkpt lat="50.7631" lon="3.69943">
        <ele>150</ele>
        <time>2015-12-13T15:27:59Z</time>
      </trkpt>
      <trkpt lat="50.7631" lon="3.69939">
        <ele>150</ele>
        <time>2015-12-13T15:28:01Z</time>
      </trkpt>
      <trkpt lat="50.7631" lon="3.69934">
        <ele>150</ele>
        <time>2015-12-13T15:28:03Z</time>
      </trkpt>
      <trkpt lat="50.7631" lon="3.6993">
        <ele>150</ele>
        <time>2015-12-13T15:28:05Z</time>
      </trkpt>
      <trkpt lat="50.7631" lon="3.69927">
        <ele>150</ele>
        <time>2015-12-13T15:28:07Z</time>
      </trkpt>
      <trkpt lat="50.76309" lon="3.69924">
        <ele>150</ele>
        <time>2015-12-13T15:28:09Z</time>
      </trkpt>
      <trkpt lat="50.76309" lon="3.6992">
        <ele>150</ele>
        <time>2015-12-13T15:28:11Z</time>
      </trkpt>
      <trkpt lat="50.76308" lon="3.69915">
        <ele>150</ele>
        <time>2015-12-13T15:28:13Z</time>
      </trkpt>
      <trkpt lat="50.76308" lon="3.69909">
        <ele>150</ele>
        <time>2015-12-13T15:28:15Z</time>
      </trkpt>
      <trkpt lat="50.76308" lon="3.69905">
        <ele>150</ele>
        <time>2015-12-13T15:28:17Z</time>
      </trkpt>
      <trkpt lat="50.76307" lon="3.69901">
        <ele>150</ele>
        <time>2015-12-13T15:28:19Z</time>
      </trkpt>
      <trkpt lat="50.76307" lon="3.69897">
        <ele>150</ele>
        <time>2015-12-13T15:28:22Z</time>
      </trkpt>
      <trkpt lat="50.76305" lon="3.69895">
        <ele>150</ele>
        <time>2015-12-13T15:28:24Z</time>
      </trkpt>
      <trkpt lat="50.76304" lon="3.69891">
        <ele>150</ele>
        <time>2015-12-13T15:28:26Z</time>
      </trkpt>
      <trkpt lat="50.76302" lon="3.69887">
        <ele>150</ele>
        <time>2015-12-13T15:28:28Z</time>
      </trkpt>
      <trkpt lat="50.763" lon="3.69884">
        <ele>150</ele>
        <time>2015-12-13T15:28:30Z</time>
      </trkpt>
      <trkpt lat="50.76298" lon="3.6988">
        <ele>150</ele>
        <time>2015-12-13T15:28:32Z</time>
      </trkpt>
      <trkpt lat="50.76296" lon="3.69878">
        <ele>150</ele>
        <time>2015-12-13T15:28:34Z</time>
      </trkpt>
      <trkpt lat="50.76294" lon="3.69875">
        <ele>150</ele>
        <time>2015-12-13T15:28:36Z</time>
      </trkpt>
      <trkpt lat="50.76293" lon="3.69871">
        <ele>150</ele>
        <time>2015-12-13T15:28:38Z</time>
      </trkpt>
      <trkpt lat="50.76292" lon="3.69866">
        <ele>150</ele>
        <time>2015-12-13T15:28:40Z</time>
      </trkpt>
      <trkpt lat="50.76292" lon="3.69862">
        <ele>150</ele>
        <time>2015-12-13T15:28:42Z</time>
      </trkpt>
      <trkpt lat="50.76292" lon="3.69858">
        <ele>150</ele>
        <time>2015-12-13T15:28:44Z</time>
      </trkpt>
      <trkpt lat="50.76291" lon="3.69853">
        <ele>150</ele>
        <time>2015-12-13T15:28:46Z</time>
      </trkpt>
      <trkpt lat="50.76291" lon="3.69849">
        <ele>150</ele>
        <time>2015-12-13T15:28:48Z</time>
      </trkpt>
      <trkpt lat="50.7629" lon="3.69845">
        <ele>150</ele>
        <time>2015-12-13T15:28:50Z</time>
      </trkpt>
      <trkpt lat="50.76288" lon="3.69842">
        <ele>151</ele>
        <time>2015-12-13T15:28:52Z</time>
      </trkpt>
      <trkpt lat="50.76287" lon="3.69839">
        <ele>151</ele>
        <time>2015-12-13T15:28:54Z</time>
      </trkpt>
      <trkpt lat="50.76285" lon="3.69836">
        <ele>151</ele>
        <time>2015-12-13T15:28:56Z</time>
      </trkpt>
      <trkpt lat="50.76284" lon="3.69831">
        <ele>151</ele>
        <time>2015-12-13T15:28:58Z</time>
      </trkpt>
      <trkpt lat="50.76283" lon="3.69827">
        <ele>151</ele>
        <time>2015-12-13T15:29:00Z</time>
      </trkpt>
      <trkpt lat="50.76282" lon="3.69822">
        <ele>151</ele>
        <time>2015-12-13T15:29:02Z</time>
      </trkpt>
      <trkpt lat="50.76282" lon="3.69818">
        <ele>151</ele>
        <time>2015-12-13T15:29:04Z</time>
      </trkpt>
      <trkpt lat="50.76282" lon="3.69814">
        <ele>151</ele>
        <time>2015-12-13T15:29:06Z</time>
      </trkpt>
      <trkpt lat="50.76282" lon="3.6981">
        <ele>151</ele>
        <time>2015-12-13T15:29:08Z</time>
      </trkpt>
      <trkpt lat="50.76283" lon="3.69805">
        <ele>150</ele>
        <time>2015-12-13T15:29:14Z</time>
      </trkpt>
      <trkpt lat="50.76284" lon="3.69802">
        <ele>150</ele>
        <time>2015-12-13T15:29:16Z</time>
      </trkpt>
      <trkpt lat="50.76285" lon="3.69799">
        <ele>150</ele>
        <time>2015-12-13T15:29:18Z</time>
      </trkpt>
      <trkpt lat="50.76286" lon="3.69796">
        <ele>150</ele>
        <time>2015-12-13T15:29:20Z</time>
      </trkpt>
      <trkpt lat="50.76286" lon="3.69793">
        <ele>150</ele>
        <time>2015-12-13T15:29:22Z</time>
      </trkpt>
      <trkpt lat="50.76286" lon="3.6979">
        <ele>150</ele>
        <time>2015-12-13T15:29:24Z</time>
      </trkpt>
      <trkpt lat="50.76284" lon="3.6979">
        <ele>150</ele>
        <time>2015-12-13T15:29:30Z</time>
      </trkpt>
      <trkpt lat="50.76282" lon="3.69789">
        <ele>149</ele>
        <time>2015-12-13T15:29:33Z</time>
      </trkpt>
      <trkpt lat="50.76279" lon="3.6979">
        <ele>149</ele>
        <time>2015-12-13T15:29:35Z</time>
      </trkpt>
      <trkpt lat="50.76276" lon="3.6979">
        <ele>149</ele>
        <time>2015-12-13T15:29:37Z</time>
      </trkpt>
      <trkpt lat="50.76272" lon="3.69791">
        <ele>149</ele>
        <time>2015-12-13T15:29:39Z</time>
      </trkpt>
      <trkpt lat="50.7627" lon="3.69791">
        <ele>149</ele>
        <time>2015-12-13T15:29:40Z</time>
      </trkpt>
      <trkpt lat="50.76268" lon="3.69791">
        <ele>147</ele>
        <time>2015-12-13T15:29:41Z</time>
      </trkpt>
      <trkpt lat="50.76266" lon="3.6979">
        <ele>146</ele>
        <time>2015-12-13T15:29:42Z</time>
      </trkpt>
      <trkpt lat="50.76264" lon="3.6979">
        <ele>146</ele>
        <time>2015-12-13T15:29:43Z</time>
      </trkpt>
      <trkpt lat="50.76262" lon="3.6979">
        <ele>146</ele>
        <time>2015-12-13T15:29:44Z</time>
      </trkpt>
      <trkpt lat="50.76259" lon="3.6979">
        <ele>144.6</ele>
        <time>2015-12-13T15:29:46Z</time>
      </trkpt>
      <trkpt lat="50.76257" lon="3.6979">
        <ele>144</ele>
        <time>2015-12-13T15:29:47Z</time>
      </trkpt>
      <trkpt lat="50.76253" lon="3.69789">
        <ele>144</ele>
        <time>2015-12-13T15:29:49Z</time>
      </trkpt>
      <trkpt lat="50.7625" lon="3.69787">
        <ele>143.3</ele>
        <time>2015-12-13T15:29:51Z</time>
      </trkpt>
      <trkpt lat="50.76247" lon="3.69787">
        <ele>143</ele>
        <time>2015-12-13T15:29:53Z</time>
      </trkpt>
      <trkpt lat="50.76245" lon="3.69789">
        <ele>143</ele>
        <time>2015-12-13T15:29:55Z</time>
      </trkpt>
      <trkpt lat="50.76243" lon="3.69791">
        <ele>141</ele>
        <time>2015-12-13T15:29:57Z</time>
      </trkpt>
      <trkpt lat="50.76241" lon="3.69792">
        <ele>141</ele>
        <time>2015-12-13T15:29:59Z</time>
      </trkpt>
      <trkpt lat="50.76239" lon="3.69792">
        <ele>139.7</ele>
        <time>2015-12-13T15:30:01Z</time>
      </trkpt>
      <trkpt lat="50.76237" lon="3.69794">
        <ele>139</ele>
        <time>2015-12-13T15:30:03Z</time>
      </trkpt>
      <trkpt lat="50.76234" lon="3.69797">
        <ele>139</ele>
        <time>2015-12-13T15:30:05Z</time>
      </trkpt>
      <trkpt lat="50.76231" lon="3.69799">
        <ele>138</ele>
        <time>2015-12-13T15:30:07Z</time>
      </trkpt>
      <trkpt lat="50.7623" lon="3.69801">
        <ele>138</ele>
        <time>2015-12-13T15:30:08Z</time>
      </trkpt>
      <trkpt lat="50.76227" lon="3.69803">
        <ele>138</ele>
        <time>2015-12-13T15:30:10Z</time>
      </trkpt>
      <trkpt lat="50.76226" lon="3.69805">
        <ele>136</ele>
        <time>2015-12-13T15:30:11Z</time>
      </trkpt>
      <trkpt lat="50.76224" lon="3.69807">
        <ele>135</ele>
        <time>2015-12-13T15:30:12Z</time>
      </trkpt>
      <trkpt lat="50.76222" lon="3.6981">
        <ele>135</ele>
        <time>2015-12-13T15:30:14Z</time>
      </trkpt>
      <trkpt lat="50.76219" lon="3.69813">
        <ele>134.3</ele>
        <time>2015-12-13T15:30:16Z</time>
      </trkpt>
      <trkpt lat="50.76216" lon="3.69815">
        <ele>134</ele>
        <time>2015-12-13T15:30:18Z</time>
      </trkpt>
      <trkpt lat="50.76214" lon="3.69816">
        <ele>134</ele>
        <time>2015-12-13T15:30:19Z</time>
      </trkpt>
      <trkpt lat="50.76212" lon="3.69818">
        <ele>134</ele>
        <time>2015-12-13T15:30:20Z</time>
      </trkpt>
      <trkpt lat="50.76208" lon="3.6982">
        <ele>133</ele>
        <time>2015-12-13T15:30:22Z</time>
      </trkpt>
      <trkpt lat="50.76205" lon="3.69821">
        <ele>133</ele>
        <time>2015-12-13T15:30:24Z</time>
      </trkpt>
      <trkpt lat="50.76203" lon="3.69822">
        <ele>133</ele>
        <time>2015-12-13T15:30:25Z</time>
      </trkpt>
      <trkpt lat="50.76201" lon="3.69823">
        <ele>133</ele>
        <time>2015-12-13T15:30:26Z</time>
      </trkpt>
      <trkpt lat="50.76198" lon="3.69823">
        <ele>133</ele>
        <time>2015-12-13T15:30:27Z</time>
      </trkpt>
      <trkpt lat="50.76196" lon="3.69823">
        <ele>133</ele>
        <time>2015-12-13T15:30:28Z</time>
      </trkpt>
      <trkpt lat="50.76185" lon="3.69822">
        <ele>131</ele>
        <time>2015-12-13T15:30:32Z</time>
      </trkpt>
      <trkpt lat="50.76174" lon="3.69817">
        <ele>129.6</ele>
        <time>2015-12-13T15:30:36Z</time>
      </trkpt>
      <trkpt lat="50.76164" lon="3.69812">
        <ele>129</ele>
        <time>2015-12-13T15:30:40Z</time>
      </trkpt>
      <trkpt lat="50.76162" lon="3.6981">
        <ele>128.5</ele>
        <time>2015-12-13T15:30:41Z</time>
      </trkpt>
      <trkpt lat="50.76161" lon="3.69809">
        <ele>128</ele>
        <time>2015-12-13T15:30:42Z</time>
      </trkpt>
      <trkpt lat="50.76159" lon="3.69807">
        <ele>128</ele>
        <time>2015-12-13T15:30:43Z</time>
      </trkpt>
      <trkpt lat="50.76157" lon="3.69805">
        <ele>128</ele>
        <time>2015-12-13T15:30:44Z</time>
      </trkpt>
      <trkpt lat="50.76155" lon="3.69803">
        <ele>128</ele>
        <time>2015-12-13T15:30:45Z</time>
      </trkpt>
      <trkpt lat="50.7615" lon="3.69798">
        <ele>127</ele>
        <time>2015-12-13T15:30:48Z</time>
      </trkpt>
      <trkpt lat="50.76149" lon="3.69797">
        <ele>127</ele>
        <time>2015-12-13T15:30:49Z</time>
      </trkpt>
      <trkpt lat="50.76145" lon="3.69795">
        <ele>127</ele>
        <time>2015-12-13T15:30:51Z</time>
      </trkpt>
      <trkpt lat="50.76143" lon="3.69794">
        <ele>127</ele>
        <time>2015-12-13T15:30:52Z</time>
      </trkpt>
      <trkpt lat="50.76141" lon="3.69794">
        <ele>127</ele>
        <time>2015-12-13T15:30:53Z</time>
      </trkpt>
      <trkpt lat="50.76138" lon="3.69793">
        <ele>127</ele>
        <time>2015-12-13T15:30:54Z</time>
      </trkpt>
      <trkpt lat="50.76136" lon="3.69792">
        <ele>127</ele>
        <time>2015-12-13T15:30:55Z</time>
      </trkpt>
      <trkpt lat="50.76133" lon="3.69791">
        <ele>127</ele>
        <time>2015-12-13T15:30:56Z</time>
      </trkpt>
      <trkpt lat="50.76131" lon="3.6979">
        <ele>127</ele>
        <time>2015-12-13T15:30:57Z</time>
      </trkpt>
      <trkpt lat="50.76129" lon="3.69789">
        <ele>127</ele>
        <time>2015-12-13T15:30:58Z</time>
      </trkpt>
      <trkpt lat="50.76128" lon="3.69788">
        <ele>127</ele>
        <time>2015-12-13T15:30:59Z</time>
      </trkpt>
      <trkpt lat="50.76126" lon="3.69786">
        <ele>127</ele>
        <time>2015-12-13T15:31:00Z</time>
      </trkpt>
      <trkpt lat="50.76124" lon="3.69785">
        <ele>127</ele>
        <time>2015-12-13T15:31:01Z</time>
      </trkpt>
      <trkpt lat="50.76122" lon="3.69783">
        <ele>123</ele>
        <time>2015-12-13T15:31:03Z</time>
      </trkpt>
      <trkpt lat="50.7612" lon="3.6978">
        <ele>123</ele>
        <time>2015-12-13T15:31:05Z</time>
      </trkpt>
      <trkpt lat="50.76117" lon="3.69777">
        <ele>123</ele>
        <time>2015-12-13T15:31:07Z</time>
      </trkpt>
      <trkpt lat="50.76115" lon="3.69776">
        <ele>123</ele>
        <time>2015-12-13T15:31:08Z</time>
      </trkpt>
      <trkpt lat="50.76112" lon="3.69776">
        <ele>123</ele>
        <time>2015-12-13T15:31:09Z</time>
      </trkpt>
      <trkpt lat="50.76109" lon="3.69776">
        <ele>123</ele>
        <time>2015-12-13T15:31:10Z</time>
      </trkpt>
      <trkpt lat="50.76106" lon="3.69775">
        <ele>123</ele>
        <time>2015-12-13T15:31:11Z</time>
      </trkpt>
      <trkpt lat="50.76104" lon="3.69774">
        <ele>122.3</ele>
        <time>2015-12-13T15:31:12Z</time>
      </trkpt>
      <trkpt lat="50.76101" lon="3.69774">
        <ele>122</ele>
        <time>2015-12-13T15:31:13Z</time>
      </trkpt>
      <trkpt lat="50.76098" lon="3.69773">
        <ele>122</ele>
        <time>2015-12-13T15:31:14Z</time>
      </trkpt>
      <trkpt lat="50.76096" lon="3.69772">
        <ele>122</ele>
        <time>2015-12-13T15:31:15Z</time>
      </trkpt>
      <trkpt lat="50.76093" lon="3.69771">
        <ele>122</ele>
        <time>2015-12-13T15:31:16Z</time>
      </trkpt>
      <trkpt lat="50.76091" lon="3.69771">
        <ele>122</ele>
        <time>2015-12-13T15:31:17Z</time>
      </trkpt>
      <trkpt lat="50.76088" lon="3.6977">
        <ele>122</ele>
        <time>2015-12-13T15:31:18Z</time>
      </trkpt>
      <trkpt lat="50.76086" lon="3.69769">
        <ele>122</ele>
        <time>2015-12-13T15:31:19Z</time>
      </trkpt>
      <trkpt lat="50.76084" lon="3.69768">
        <ele>122</ele>
        <time>2015-12-13T15:31:20Z</time>
      </trkpt>
      <trkpt lat="50.76081" lon="3.69768">
        <ele>122</ele>
        <time>2015-12-13T15:31:21Z</time>
      </trkpt>
      <trkpt lat="50.76079" lon="3.69768">
        <ele>120.6</ele>
        <time>2015-12-13T15:31:22Z</time>
      </trkpt>
      <trkpt lat="50.76076" lon="3.69767">
        <ele>120</ele>
        <time>2015-12-13T15:31:24Z</time>
      </trkpt>
      <trkpt lat="50.76074" lon="3.69767">
        <ele>120</ele>
        <time>2015-12-13T15:31:25Z</time>
      </trkpt>
      <trkpt lat="50.76071" lon="3.69765">
        <ele>120</ele>
        <time>2015-12-13T15:31:27Z</time>
      </trkpt>
      <trkpt lat="50.76069" lon="3.69764">
        <ele>120</ele>
        <time>2015-12-13T15:31:28Z</time>
      </trkpt>
      <trkpt lat="50.76067" lon="3.69763">
        <ele>120</ele>
        <time>2015-12-13T15:31:29Z</time>
      </trkpt>
      <trkpt lat="50.76065" lon="3.69763">
        <ele>120</ele>
        <time>2015-12-13T15:31:30Z</time>
      </trkpt>
      <trkpt lat="50.76063" lon="3.69762">
        <ele>120</ele>
        <time>2015-12-13T15:31:31Z</time>
      </trkpt>
      <trkpt lat="50.7606" lon="3.69761">
        <ele>119.5</ele>
        <time>2015-12-13T15:31:32Z</time>
      </trkpt>
      <trkpt lat="50.76058" lon="3.69759">
        <ele>119</ele>
        <time>2015-12-13T15:31:33Z</time>
      </trkpt>
      <trkpt lat="50.76056" lon="3.69758">
        <ele>119</ele>
        <time>2015-12-13T15:31:34Z</time>
      </trkpt>
      <trkpt lat="50.76053" lon="3.69757">
        <ele>119</ele>
        <time>2015-12-13T15:31:35Z</time>
      </trkpt>
      <trkpt lat="50.76051" lon="3.69756">
        <ele>119</ele>
        <time>2015-12-13T15:31:36Z</time>
      </trkpt>
      <trkpt lat="50.76049" lon="3.69755">
        <ele>119</ele>
        <time>2015-12-13T15:31:37Z</time>
      </trkpt>
      <trkpt lat="50.76047" lon="3.69756">
        <ele>119</ele>
        <time>2015-12-13T15:31:38Z</time>
      </trkpt>
      <trkpt lat="50.76042" lon="3.69755">
        <ele>119</ele>
        <time>2015-12-13T15:31:40Z</time>
      </trkpt>
      <trkpt lat="50.7604" lon="3.69753">
        <ele>119</ele>
        <time>2015-12-13T15:31:41Z</time>
      </trkpt>
      <trkpt lat="50.76037" lon="3.69752">
        <ele>118.3</ele>
        <time>2015-12-13T15:31:42Z</time>
      </trkpt>
      <trkpt lat="50.76034" lon="3.69751">
        <ele>118</ele>
        <time>2015-12-13T15:31:43Z</time>
      </trkpt>
      <trkpt lat="50.76031" lon="3.6975">
        <ele>118</ele>
        <time>2015-12-13T15:31:44Z</time>
      </trkpt>
      <trkpt lat="50.76028" lon="3.69749">
        <ele>118</ele>
        <time>2015-12-13T15:31:45Z</time>
      </trkpt>
      <trkpt lat="50.76026" lon="3.69748">
        <ele>118</ele>
        <time>2015-12-13T15:31:46Z</time>
      </trkpt>
      <trkpt lat="50.76023" lon="3.69748">
        <ele>118</ele>
        <time>2015-12-13T15:31:47Z</time>
      </trkpt>
      <trkpt lat="50.76022" lon="3.69748">
        <ele>118</ele>
        <time>2015-12-13T15:31:48Z</time>
      </trkpt>
      <trkpt lat="50.76019" lon="3.69748">
        <ele>118</ele>
        <time>2015-12-13T15:31:49Z</time>
      </trkpt>
      <trkpt lat="50.76017" lon="3.69747">
        <ele>118</ele>
        <time>2015-12-13T15:31:50Z</time>
      </trkpt>
      <trkpt lat="50.76015" lon="3.69746">
        <ele>118</ele>
        <time>2015-12-13T15:31:51Z</time>
      </trkpt>
      <trkpt lat="50.76012" lon="3.69747">
        <ele>114.7</ele>
        <time>2015-12-13T15:31:52Z</time>
      </trkpt>
      <trkpt lat="50.76009" lon="3.69748">
        <ele>112</ele>
        <time>2015-12-13T15:31:53Z</time>
      </trkpt>
      <trkpt lat="50.76006" lon="3.69748">
        <ele>112</ele>
        <time>2015-12-13T15:31:54Z</time>
      </trkpt>
      <trkpt lat="50.76005" lon="3.69749">
        <ele>112</ele>
        <time>2015-12-13T15:31:55Z</time>
      </trkpt>
      <trkpt lat="50.76001" lon="3.69748">
        <ele>111.5</ele>
        <time>2015-12-13T15:31:57Z</time>
      </trkpt>
      <trkpt lat="50.75998" lon="3.69748">
        <ele>111</ele>
        <time>2015-12-13T15:31:58Z</time>
      </trkpt>
      <trkpt lat="50.75995" lon="3.69748">
        <ele>111</ele>
        <time>2015-12-13T15:31:59Z</time>
      </trkpt>
      <trkpt lat="50.75993" lon="3.69748">
        <ele>111</ele>
        <time>2015-12-13T15:32:00Z</time>
      </trkpt>
      <trkpt lat="50.75991" lon="3.69749">
        <ele>111</ele>
        <time>2015-12-13T15:32:01Z</time>
      </trkpt>
      <trkpt lat="50.75989" lon="3.69748">
        <ele>111</ele>
        <time>2015-12-13T15:32:02Z</time>
      </trkpt>
      <trkpt lat="50.75987" lon="3.69749">
        <ele>111</ele>
        <time>2015-12-13T15:32:03Z</time>
      </trkpt>
      <trkpt lat="50.75985" lon="3.69749">
        <ele>111</ele>
        <time>2015-12-13T15:32:04Z</time>
      </trkpt>
      <trkpt lat="50.75983" lon="3.69748">
        <ele>111</ele>
        <time>2015-12-13T15:32:05Z</time>
      </trkpt>
      <trkpt lat="50.75981" lon="3.69749">
        <ele>111</ele>
        <time>2015-12-13T15:32:06Z</time>
      </trkpt>
      <trkpt lat="50.75979" lon="3.69749">
        <ele>111</ele>
        <time>2015-12-13T15:32:07Z</time>
      </trkpt>
      <trkpt lat="50.75975" lon="3.69749">
        <ele>111</ele>
        <time>2015-12-13T15:32:09Z</time>
      </trkpt>
      <trkpt lat="50.75972" lon="3.69749">
        <ele>111</ele>
        <time>2015-12-13T15:32:11Z</time>
      </trkpt>
      <trkpt lat="50.7597" lon="3.69749">
        <ele>109.6</ele>
        <time>2015-12-13T15:32:12Z</time>
      </trkpt>
      <trkpt lat="50.75966" lon="3.6975">
        <ele>109</ele>
        <time>2015-12-13T15:32:14Z</time>
      </trkpt>
      <trkpt lat="50.75964" lon="3.6975">
        <ele>109</ele>
        <time>2015-12-13T15:32:15Z</time>
      </trkpt>
      <trkpt lat="50.75962" lon="3.69751">
        <ele>109</ele>
        <time>2015-12-13T15:32:16Z</time>
      </trkpt>
      <trkpt lat="50.75959" lon="3.69752">
        <ele>109</ele>
        <time>2015-12-13T15:32:17Z</time>
      </trkpt>
      <trkpt lat="50.75957" lon="3.69752">
        <ele>109</ele>
        <time>2015-12-13T15:32:18Z</time>
      </trkpt>
      <trkpt lat="50.75955" lon="3.69753">
        <ele>109</ele>
        <time>2015-12-13T15:32:19Z</time>
      </trkpt>
      <trkpt lat="50.75953" lon="3.69753">
        <ele>109</ele>
        <time>2015-12-13T15:32:20Z</time>
      </trkpt>
      <trkpt lat="50.7595" lon="3.69754">
        <ele>109</ele>
        <time>2015-12-13T15:32:21Z</time>
      </trkpt>
      <trkpt lat="50.75948" lon="3.69754">
        <ele>107.6</ele>
        <time>2015-12-13T15:32:22Z</time>
      </trkpt>
      <trkpt lat="50.75945" lon="3.69755">
        <ele>107</ele>
        <time>2015-12-13T15:32:23Z</time>
      </trkpt>
      <trkpt lat="50.75942" lon="3.69755">
        <ele>107</ele>
        <time>2015-12-13T15:32:24Z</time>
      </trkpt>
      <trkpt lat="50.75941" lon="3.69754">
        <ele>107</ele>
        <time>2015-12-13T15:32:25Z</time>
      </trkpt>
      <trkpt lat="50.75937" lon="3.69753">
        <ele>107</ele>
        <time>2015-12-13T15:32:27Z</time>
      </trkpt>
      <trkpt lat="50.75933" lon="3.69753">
        <ele>107</ele>
        <time>2015-12-13T15:32:29Z</time>
      </trkpt>
      <trkpt lat="50.75931" lon="3.69754">
        <ele>107.7</ele>
        <time>2015-12-13T15:32:30Z</time>
      </trkpt>
      <trkpt lat="50.75928" lon="3.69754">
        <ele>108</ele>
        <time>2015-12-13T15:32:31Z</time>
      </trkpt>
      <trkpt lat="50.75925" lon="3.69754">
        <ele>107.3</ele>
        <time>2015-12-13T15:32:32Z</time>
      </trkpt>
      <trkpt lat="50.75922" lon="3.69754">
        <ele>107</ele>
        <time>2015-12-13T15:32:33Z</time>
      </trkpt>
      <trkpt lat="50.7592" lon="3.69754">
        <ele>107</ele>
        <time>2015-12-13T15:32:34Z</time>
      </trkpt>
      <trkpt lat="50.75918" lon="3.69754">
        <ele>107</ele>
        <time>2015-12-13T15:32:35Z</time>
      </trkpt>
      <trkpt lat="50.75915" lon="3.69755">
        <ele>107</ele>
        <time>2015-12-13T15:32:37Z</time>
      </trkpt>
      <trkpt lat="50.75912" lon="3.69756">
        <ele>107</ele>
        <time>2015-12-13T15:32:39Z</time>
      </trkpt>
      <trkpt lat="50.7591" lon="3.69755">
        <ele>107</ele>
        <time>2015-12-13T15:32:40Z</time>
      </trkpt>
      <trkpt lat="50.75908" lon="3.69754">
        <ele>107</ele>
        <time>2015-12-13T15:32:41Z</time>
      </trkpt>
      <trkpt lat="50.75905" lon="3.69753">
        <ele>106.3</ele>
        <time>2015-12-13T15:32:42Z</time>
      </trkpt>
      <trkpt lat="50.75903" lon="3.69751">
        <ele>106</ele>
        <time>2015-12-13T15:32:43Z</time>
      </trkpt>
      <trkpt lat="50.75902" lon="3.69749">
        <ele>106</ele>
        <time>2015-12-13T15:32:44Z</time>
      </trkpt>
      <trkpt lat="50.759" lon="3.69747">
        <ele>106</ele>
        <time>2015-12-13T15:32:45Z</time>
      </trkpt>
      <trkpt lat="50.75898" lon="3.69744">
        <ele>106</ele>
        <time>2015-12-13T15:32:47Z</time>
      </trkpt>
      <trkpt lat="50.75895" lon="3.6974">
        <ele>106</ele>
        <time>2015-12-13T15:32:49Z</time>
      </trkpt>
      <trkpt lat="50.75893" lon="3.69737">
        <ele>106</ele>
        <time>2015-12-13T15:32:51Z</time>
      </trkpt>
      <trkpt lat="50.7589" lon="3.69736">
        <ele>105</ele>
        <time>2015-12-13T15:32:57Z</time>
      </trkpt>
      <trkpt lat="50.75887" lon="3.69735">
        <ele>105</ele>
        <time>2015-12-13T15:32:59Z</time>
      </trkpt>
      <trkpt lat="50.75885" lon="3.69733">
        <ele>105</ele>
        <time>2015-12-13T15:33:02Z</time>
      </trkpt>
      <trkpt lat="50.75883" lon="3.69728">
        <ele>105</ele>
        <time>2015-12-13T15:33:06Z</time>
      </trkpt>
      <trkpt lat="50.75882" lon="3.69725">
        <ele>105</ele>
        <time>2015-12-13T15:33:08Z</time>
      </trkpt>
      <trkpt lat="50.75881" lon="3.69722">
        <ele>105</ele>
        <time>2015-12-13T15:33:10Z</time>
      </trkpt>
      <trkpt lat="50.75879" lon="3.6972">
        <ele>105</ele>
        <time>2015-12-13T15:33:12Z</time>
      </trkpt>
      <trkpt lat="50.75877" lon="3.69717">
        <ele>105</ele>
        <time>2015-12-13T15:33:14Z</time>
      </trkpt>
      <trkpt lat="50.75876" lon="3.69713">
        <ele>105</ele>
        <time>2015-12-13T15:33:16Z</time>
      </trkpt>
      <trkpt lat="50.75874" lon="3.6971">
        <ele>105</ele>
        <time>2015-12-13T15:33:18Z</time>
      </trkpt>
      <trkpt lat="50.75872" lon="3.69708">
        <ele>105</ele>
        <time>2015-12-13T15:33:20Z</time>
      </trkpt>
      <trkpt lat="50.7587" lon="3.69706">
        <ele>105</ele>
        <time>2015-12-13T15:33:22Z</time>
      </trkpt>
      <trkpt lat="50.75869" lon="3.69704">
        <ele>105</ele>
        <time>2015-12-13T15:33:25Z</time>
      </trkpt>
      <trkpt lat="50.75867" lon="3.69701">
        <ele>105</ele>
        <time>2015-12-13T15:33:29Z</time>
      </trkpt>
      <trkpt lat="50.75865" lon="3.69698">
        <ele>105</ele>
        <time>2015-12-13T15:33:31Z</time>
      </trkpt>
      <trkpt lat="50.75864" lon="3.69694">
        <ele>105</ele>
        <time>2015-12-13T15:33:36Z</time>
      </trkpt>
      <trkpt lat="50.75861" lon="3.69693">
        <ele>105</ele>
        <time>2015-12-13T15:33:38Z</time>
      </trkpt>
      <trkpt lat="50.75859" lon="3.69691">
        <ele>105</ele>
        <time>2015-12-13T15:33:40Z</time>
      </trkpt>
      <trkpt lat="50.75857" lon="3.69689">
        <ele>105</ele>
        <time>2015-12-13T15:33:42Z</time>
      </trkpt>
      <trkpt lat="50.75856" lon="3.69686">
        <ele>105</ele>
        <time>2015-12-13T15:33:44Z</time>
      </trkpt>
      <trkpt lat="50.75853" lon="3.69684">
        <ele>105</ele>
        <time>2015-12-13T15:33:46Z</time>
      </trkpt>
      <trkpt lat="50.75851" lon="3.69681">
        <ele>105</ele>
        <time>2015-12-13T15:33:48Z</time>
      </trkpt>
      <trkpt lat="50.75849" lon="3.69677">
        <ele>105</ele>
        <time>2015-12-13T15:33:50Z</time>
      </trkpt>
      <trkpt lat="50.75847" lon="3.69675">
        <ele>105</ele>
        <time>2015-12-13T15:33:52Z</time>
      </trkpt>
      <trkpt lat="50.75845" lon="3.69672">
        <ele>105</ele>
        <time>2015-12-13T15:33:54Z</time>
      </trkpt>
      <trkpt lat="50.75842" lon="3.6967">
        <ele>105</ele>
        <time>2015-12-13T15:33:56Z</time>
      </trkpt>
      <trkpt lat="50.75839" lon="3.69668">
        <ele>105</ele>
        <time>2015-12-13T15:33:58Z</time>
      </trkpt>
      <trkpt lat="50.75836" lon="3.69666">
        <ele>105</ele>
        <time>2015-12-13T15:34:00Z</time>
      </trkpt>
      <trkpt lat="50.75834" lon="3.69664">
        <ele>107</ele>
        <time>2015-12-13T15:34:02Z</time>
      </trkpt>
      <trkpt lat="50.75831" lon="3.69663">
        <ele>107</ele>
        <time>2015-12-13T15:34:04Z</time>
      </trkpt>
      <trkpt lat="50.75828" lon="3.69661">
        <ele>107</ele>
        <time>2015-12-13T15:34:06Z</time>
      </trkpt>
      <trkpt lat="50.75825" lon="3.6966">
        <ele>107</ele>
        <time>2015-12-13T15:34:08Z</time>
      </trkpt>
      <trkpt lat="50.75822" lon="3.69659">
        <ele>107</ele>
        <time>2015-12-13T15:34:10Z</time>
      </trkpt>
      <trkpt lat="50.7582" lon="3.69657">
        <ele>107</ele>
        <time>2015-12-13T15:34:12Z</time>
      </trkpt>
      <trkpt lat="50.75817" lon="3.69657">
        <ele>107</ele>
        <time>2015-12-13T15:34:14Z</time>
      </trkpt>
      <trkpt lat="50.75814" lon="3.69657">
        <ele>107</ele>
        <time>2015-12-13T15:34:16Z</time>
      </trkpt>
      <trkpt lat="50.75812" lon="3.69658">
        <ele>107</ele>
        <time>2015-12-13T15:34:18Z</time>
      </trkpt>
      <trkpt lat="50.75809" lon="3.6966">
        <ele>107</ele>
        <time>2015-12-13T15:34:20Z</time>
      </trkpt>
      <trkpt lat="50.75805" lon="3.6966">
        <ele>106</ele>
        <time>2015-12-13T15:34:22Z</time>
      </trkpt>
      <trkpt lat="50.75803" lon="3.6966">
        <ele>106</ele>
        <time>2015-12-13T15:34:24Z</time>
      </trkpt>
      <trkpt lat="50.758" lon="3.6966">
        <ele>106</ele>
        <time>2015-12-13T15:34:26Z</time>
      </trkpt>
      <trkpt lat="50.75797" lon="3.6966">
        <ele>106</ele>
        <time>2015-12-13T15:34:28Z</time>
      </trkpt>
      <trkpt lat="50.75793" lon="3.69661">
        <ele>106</ele>
        <time>2015-12-13T15:34:30Z</time>
      </trkpt>
      <trkpt lat="50.75791" lon="3.69661">
        <ele>106</ele>
        <time>2015-12-13T15:34:31Z</time>
      </trkpt>
      <trkpt lat="50.75789" lon="3.69661">
        <ele>106</ele>
        <time>2015-12-13T15:34:32Z</time>
      </trkpt>
      <trkpt lat="50.75785" lon="3.6966">
        <ele>107</ele>
        <time>2015-12-13T15:34:34Z</time>
      </trkpt>
      <trkpt lat="50.75783" lon="3.6966">
        <ele>107</ele>
        <time>2015-12-13T15:34:35Z</time>
      </trkpt>
      <trkpt lat="50.7578" lon="3.6966">
        <ele>107</ele>
        <time>2015-12-13T15:34:36Z</time>
      </trkpt>
      <trkpt lat="50.75778" lon="3.69659">
        <ele>107</ele>
        <time>2015-12-13T15:34:37Z</time>
      </trkpt>
      <trkpt lat="50.75776" lon="3.69659">
        <ele>107</ele>
        <time>2015-12-13T15:34:38Z</time>
      </trkpt>
      <trkpt lat="50.75774" lon="3.69659">
        <ele>107</ele>
        <time>2015-12-13T15:34:39Z</time>
      </trkpt>
      <trkpt lat="50.75771" lon="3.69659">
        <ele>107</ele>
        <time>2015-12-13T15:34:40Z</time>
      </trkpt>
      <trkpt lat="50.75769" lon="3.69659">
        <ele>105</ele>
        <time>2015-12-13T15:34:41Z</time>
      </trkpt>
      <trkpt lat="50.75766" lon="3.69658">
        <ele>104</ele>
        <time>2015-12-13T15:34:42Z</time>
      </trkpt>
      <trkpt lat="50.75764" lon="3.69657">
        <ele>104</ele>
        <time>2015-12-13T15:34:43Z</time>
      </trkpt>
      <trkpt lat="50.7576" lon="3.69657">
        <ele>104</ele>
        <time>2015-12-13T15:34:45Z</time>
      </trkpt>
      <trkpt lat="50.75758" lon="3.69656">
        <ele>103.3</ele>
        <time>2015-12-13T15:34:46Z</time>
      </trkpt>
      <trkpt lat="50.75755" lon="3.69656">
        <ele>103</ele>
        <time>2015-12-13T15:34:48Z</time>
      </trkpt>
      <trkpt lat="50.75751" lon="3.69655">
        <ele>103</ele>
        <time>2015-12-13T15:34:50Z</time>
      </trkpt>
      <trkpt lat="50.75749" lon="3.69654">
        <ele>103</ele>
        <time>2015-12-13T15:34:52Z</time>
      </trkpt>
      <trkpt lat="50.75746" lon="3.69654">
        <ele>103</ele>
        <time>2015-12-13T15:34:54Z</time>
      </trkpt>
      <trkpt lat="50.75743" lon="3.69653">
        <ele>103</ele>
        <time>2015-12-13T15:34:56Z</time>
      </trkpt>
      <trkpt lat="50.7574" lon="3.69652">
        <ele>104</ele>
        <time>2015-12-13T15:34:58Z</time>
      </trkpt>
      <trkpt lat="50.75737" lon="3.69651">
        <ele>104</ele>
        <time>2015-12-13T15:35:00Z</time>
      </trkpt>
      <trkpt lat="50.75734" lon="3.69651">
        <ele>102</ele>
        <time>2015-12-13T15:35:02Z</time>
      </trkpt>
      <trkpt lat="50.75731" lon="3.6965">
        <ele>102</ele>
        <time>2015-12-13T15:35:04Z</time>
      </trkpt>
      <trkpt lat="50.75729" lon="3.69649">
        <ele>102</ele>
        <time>2015-12-13T15:35:06Z</time>
      </trkpt>
      <trkpt lat="50.75726" lon="3.69649">
        <ele>102</ele>
        <time>2015-12-13T15:35:08Z</time>
      </trkpt>
      <trkpt lat="50.75726" lon="3.69653">
        <ele>102</ele>
        <time>2015-12-13T15:35:12Z</time>
      </trkpt>
      <trkpt lat="50.75727" lon="3.69657">
        <ele>102</ele>
        <time>2015-12-13T15:35:15Z</time>
      </trkpt>
      <trkpt lat="50.75728" lon="3.69661">
        <ele>102</ele>
        <time>2015-12-13T15:35:17Z</time>
      </trkpt>
      <trkpt lat="50.75729" lon="3.69664">
        <ele>102</ele>
        <time>2015-12-13T15:35:19Z</time>
      </trkpt>
      <trkpt lat="50.75731" lon="3.69665">
        <ele>101</ele>
        <time>2015-12-13T15:35:22Z</time>
      </trkpt>
      <trkpt lat="50.75736" lon="3.69668">
        <ele>101</ele>
        <time>2015-12-13T15:35:35Z</time>
      </trkpt>
      <trkpt lat="50.75734" lon="3.69673">
        <ele>101</ele>
        <time>2015-12-13T15:36:00Z</time>
      </trkpt>
      <trkpt lat="50.75731" lon="3.69673">
        <ele>102</ele>
        <time>2015-12-13T15:36:09Z</time>
      </trkpt>
      <trkpt lat="50.75733" lon="3.69675">
        <ele>102</ele>
        <time>2015-12-13T15:36:11Z</time>
      </trkpt>
      <trkpt lat="50.75735" lon="3.69677">
        <ele>102</ele>
        <time>2015-12-13T15:36:13Z</time>
      </trkpt>
      <trkpt lat="50.75737" lon="3.69679">
        <ele>102</ele>
        <time>2015-12-13T15:36:15Z</time>
      </trkpt>
      <trkpt lat="50.75738" lon="3.69681">
        <ele>102</ele>
        <time>2015-12-13T15:36:17Z</time>
      </trkpt>
      <trkpt lat="50.7574" lon="3.69683">
        <ele>102</ele>
        <time>2015-12-13T15:36:19Z</time>
      </trkpt>
      <trkpt lat="50.75741" lon="3.69685">
        <ele>102</ele>
        <time>2015-12-13T15:36:20Z</time>
      </trkpt>
      <trkpt lat="50.75743" lon="3.69689">
        <ele>101</ele>
        <time>2015-12-13T15:36:22Z</time>
      </trkpt>
      <trkpt lat="50.75744" lon="3.69692">
        <ele>101</ele>
        <time>2015-12-13T15:36:23Z</time>
      </trkpt>
      <trkpt lat="50.75745" lon="3.69694">
        <ele>101</ele>
        <time>2015-12-13T15:36:24Z</time>
      </trkpt>
      <trkpt lat="50.75746" lon="3.69698">
        <ele>101</ele>
        <time>2015-12-13T15:36:25Z</time>
      </trkpt>
      <trkpt lat="50.75747" lon="3.697">
        <ele>101</ele>
        <time>2015-12-13T15:36:26Z</time>
      </trkpt>
      <trkpt lat="50.75749" lon="3.69706">
        <ele>101</ele>
        <time>2015-12-13T15:36:28Z</time>
      </trkpt>
      <trkpt lat="50.7575" lon="3.69708">
        <ele>101</ele>
        <time>2015-12-13T15:36:29Z</time>
      </trkpt>
      <trkpt lat="50.75751" lon="3.69711">
        <ele>101</ele>
        <time>2015-12-13T15:36:30Z</time>
      </trkpt>
      <trkpt lat="50.75753" lon="3.69714">
        <ele>101.7</ele>
        <time>2015-12-13T15:36:31Z</time>
      </trkpt>
      <trkpt lat="50.75754" lon="3.69717">
        <ele>102</ele>
        <time>2015-12-13T15:36:32Z</time>
      </trkpt>
      <trkpt lat="50.75755" lon="3.69721">
        <ele>102</ele>
        <time>2015-12-13T15:36:33Z</time>
      </trkpt>
      <trkpt lat="50.75756" lon="3.69723">
        <ele>102</ele>
        <time>2015-12-13T15:36:34Z</time>
      </trkpt>
      <trkpt lat="50.75757" lon="3.69726">
        <ele>102</ele>
        <time>2015-12-13T15:36:35Z</time>
      </trkpt>
      <trkpt lat="50.75758" lon="3.69729">
        <ele>102</ele>
        <time>2015-12-13T15:36:36Z</time>
      </trkpt>
      <trkpt lat="50.7576" lon="3.69732">
        <ele>102</ele>
        <time>2015-12-13T15:36:37Z</time>
      </trkpt>
      <trkpt lat="50.75762" lon="3.69734">
        <ele>102</ele>
        <time>2015-12-13T15:36:38Z</time>
      </trkpt>
      <trkpt lat="50.75764" lon="3.69737">
        <ele>102</ele>
        <time>2015-12-13T15:36:39Z</time>
      </trkpt>
      <trkpt lat="50.75769" lon="3.69741">
        <ele>102</ele>
        <time>2015-12-13T15:36:41Z</time>
      </trkpt>
      <trkpt lat="50.75771" lon="3.69742">
        <ele>102</ele>
        <time>2015-12-13T15:36:42Z</time>
      </trkpt>
      <trkpt lat="50.75774" lon="3.69744">
        <ele>102</ele>
        <time>2015-12-13T15:36:44Z</time>
      </trkpt>
      <trkpt lat="50.75776" lon="3.69745">
        <ele>102</ele>
        <time>2015-12-13T15:36:45Z</time>
      </trkpt>
      <trkpt lat="50.75778" lon="3.69746">
        <ele>102</ele>
        <time>2015-12-13T15:36:47Z</time>
      </trkpt>
      <trkpt lat="50.7578" lon="3.69747">
        <ele>102</ele>
        <time>2015-12-13T15:36:49Z</time>
      </trkpt>
      <trkpt lat="50.75783" lon="3.6975">
        <ele>102</ele>
        <time>2015-12-13T15:36:51Z</time>
      </trkpt>
      <trkpt lat="50.75785" lon="3.69752">
        <ele>102</ele>
        <time>2015-12-13T15:36:53Z</time>
      </trkpt>
      <trkpt lat="50.75786" lon="3.69754">
        <ele>102</ele>
        <time>2015-12-13T15:36:55Z</time>
      </trkpt>
      <trkpt lat="50.75789" lon="3.69762">
        <ele>101.5</ele>
        <time>2015-12-13T15:37:01Z</time>
      </trkpt>
      <trkpt lat="50.75789" lon="3.69766">
        <ele>101</ele>
        <time>2015-12-13T15:37:03Z</time>
      </trkpt>
      <trkpt lat="50.75791" lon="3.6977">
        <ele>101</ele>
        <time>2015-12-13T15:37:05Z</time>
      </trkpt>
      <trkpt lat="50.75791" lon="3.69774">
        <ele>101</ele>
        <time>2015-12-13T15:37:07Z</time>
      </trkpt>
      <trkpt lat="50.75792" lon="3.69778">
        <ele>101</ele>
        <time>2015-12-13T15:37:09Z</time>
      </trkpt>
      <trkpt lat="50.75792" lon="3.69782">
        <ele>101</ele>
        <time>2015-12-13T15:37:11Z</time>
      </trkpt>
      <trkpt lat="50.75793" lon="3.69787">
        <ele>101</ele>
        <time>2015-12-13T15:37:13Z</time>
      </trkpt>
      <trkpt lat="50.75794" lon="3.69791">
        <ele>101</ele>
        <time>2015-12-13T15:37:15Z</time>
      </trkpt>
      <trkpt lat="50.75794" lon="3.69794">
        <ele>101</ele>
        <time>2015-12-13T15:37:17Z</time>
      </trkpt>
      <trkpt lat="50.75793" lon="3.69799">
        <ele>101</ele>
        <time>2015-12-13T15:37:19Z</time>
      </trkpt>
      <trkpt lat="50.75794" lon="3.69803">
        <ele>99.6</ele>
        <time>2015-12-13T15:37:21Z</time>
      </trkpt>
      <trkpt lat="50.75793" lon="3.69807">
        <ele>99</ele>
        <time>2015-12-13T15:37:23Z</time>
      </trkpt>
      <trkpt lat="50.75793" lon="3.69811">
        <ele>99</ele>
        <time>2015-12-13T15:37:25Z</time>
      </trkpt>
      <trkpt lat="50.75792" lon="3.69814">
        <ele>98</ele>
        <time>2015-12-13T15:37:28Z</time>
      </trkpt>
      <trkpt lat="50.75791" lon="3.69821">
        <ele>98</ele>
        <time>2015-12-13T15:37:34Z</time>
      </trkpt>
      <trkpt lat="50.75789" lon="3.69824">
        <ele>98</ele>
        <time>2015-12-13T15:37:36Z</time>
      </trkpt>
      <trkpt lat="50.75787" lon="3.69825">
        <ele>98</ele>
        <time>2015-12-13T15:37:38Z</time>
      </trkpt>
      <trkpt lat="50.75785" lon="3.69828">
        <ele>97.3</ele>
        <time>2015-12-13T15:37:41Z</time>
      </trkpt>
      <trkpt lat="50.75782" lon="3.69829">
        <ele>97</ele>
        <time>2015-12-13T15:37:43Z</time>
      </trkpt>
      <trkpt lat="50.7578" lon="3.69838">
        <ele>97</ele>
        <time>2015-12-13T15:37:50Z</time>
      </trkpt>
      <trkpt lat="50.75779" lon="3.69841">
        <ele>96</ele>
        <time>2015-12-13T15:37:52Z</time>
      </trkpt>
      <trkpt lat="50.75777" lon="3.69846">
        <ele>96</ele>
        <time>2015-12-13T15:37:54Z</time>
      </trkpt>
      <trkpt lat="50.75777" lon="3.6985">
        <ele>96</ele>
        <time>2015-12-13T15:37:57Z</time>
      </trkpt>
      <trkpt lat="50.75777" lon="3.69853">
        <ele>94.6</ele>
        <time>2015-12-13T15:38:01Z</time>
      </trkpt>
      <trkpt lat="50.75776" lon="3.69856">
        <ele>94</ele>
        <time>2015-12-13T15:38:03Z</time>
      </trkpt>
      <trkpt lat="50.75776" lon="3.6986">
        <ele>94</ele>
        <time>2015-12-13T15:38:05Z</time>
      </trkpt>
      <trkpt lat="50.75776" lon="3.69863">
        <ele>94</ele>
        <time>2015-12-13T15:38:07Z</time>
      </trkpt>
      <trkpt lat="50.75775" lon="3.69866">
        <ele>94</ele>
        <time>2015-12-13T15:38:09Z</time>
      </trkpt>
      <trkpt lat="50.75774" lon="3.6987">
        <ele>93.3</ele>
        <time>2015-12-13T15:38:11Z</time>
      </trkpt>
      <trkpt lat="50.75773" lon="3.69874">
        <ele>93</ele>
        <time>2015-12-13T15:38:13Z</time>
      </trkpt>
      <trkpt lat="50.75771" lon="3.69878">
        <ele>93</ele>
        <time>2015-12-13T15:38:15Z</time>
      </trkpt>
      <trkpt lat="50.75772" lon="3.69881">
        <ele>93</ele>
        <time>2015-12-13T15:38:17Z</time>
      </trkpt>
      <trkpt lat="50.75771" lon="3.69885">
        <ele>93</ele>
        <time>2015-12-13T15:38:19Z</time>
      </trkpt>
      <trkpt lat="50.75771" lon="3.69889">
        <ele>91.6</ele>
        <time>2015-12-13T15:38:21Z</time>
      </trkpt>
      <trkpt lat="50.75771" lon="3.69892">
        <ele>91</ele>
        <time>2015-12-13T15:38:23Z</time>
      </trkpt>
      <trkpt lat="50.75771" lon="3.69896">
        <ele>91</ele>
        <time>2015-12-13T15:38:25Z</time>
      </trkpt>
      <trkpt lat="50.75771" lon="3.69899">
        <ele>91</ele>
        <time>2015-12-13T15:38:27Z</time>
      </trkpt>
      <trkpt lat="50.75771" lon="3.69903">
        <ele>91</ele>
        <time>2015-12-13T15:38:29Z</time>
      </trkpt>
      <trkpt lat="50.7577" lon="3.69907">
        <ele>90.3</ele>
        <time>2015-12-13T15:38:31Z</time>
      </trkpt>
      <trkpt lat="50.7577" lon="3.69912">
        <ele>90</ele>
        <time>2015-12-13T15:38:33Z</time>
      </trkpt>
      <trkpt lat="50.7577" lon="3.69916">
        <ele>90</ele>
        <time>2015-12-13T15:38:35Z</time>
      </trkpt>
      <trkpt lat="50.75769" lon="3.6992">
        <ele>90</ele>
        <time>2015-12-13T15:38:37Z</time>
      </trkpt>
      <trkpt lat="50.75768" lon="3.69924">
        <ele>90</ele>
        <time>2015-12-13T15:38:39Z</time>
      </trkpt>
      <trkpt lat="50.75768" lon="3.69928">
        <ele>89.3</ele>
        <time>2015-12-13T15:38:41Z</time>
      </trkpt>
      <trkpt lat="50.75767" lon="3.69932">
        <ele>89</ele>
        <time>2015-12-13T15:38:43Z</time>
      </trkpt>
      <trkpt lat="50.75766" lon="3.69936">
        <ele>89</ele>
        <time>2015-12-13T15:38:45Z</time>
      </trkpt>
      <trkpt lat="50.75767" lon="3.69941">
        <ele>89</ele>
        <time>2015-12-13T15:38:47Z</time>
      </trkpt>
      <trkpt lat="50.75766" lon="3.69946">
        <ele>89</ele>
        <time>2015-12-13T15:38:49Z</time>
      </trkpt>
      <trkpt lat="50.75765" lon="3.6995">
        <ele>87.6</ele>
        <time>2015-12-13T15:38:51Z</time>
      </trkpt>
      <trkpt lat="50.75764" lon="3.69955">
        <ele>87</ele>
        <time>2015-12-13T15:38:53Z</time>
      </trkpt>
      <trkpt lat="50.75763" lon="3.69958">
        <ele>87</ele>
        <time>2015-12-13T15:38:54Z</time>
      </trkpt>
      <trkpt lat="50.75761" lon="3.69963">
        <ele>87</ele>
        <time>2015-12-13T15:38:56Z</time>
      </trkpt>
      <trkpt lat="50.75761" lon="3.69966">
        <ele>87</ele>
        <time>2015-12-13T15:38:57Z</time>
      </trkpt>
      <trkpt lat="50.7576" lon="3.69971">
        <ele>87</ele>
        <time>2015-12-13T15:38:59Z</time>
      </trkpt>
      <trkpt lat="50.75759" lon="3.69976">
        <ele>85</ele>
        <time>2015-12-13T15:39:01Z</time>
      </trkpt>
      <trkpt lat="50.75758" lon="3.69978">
        <ele>84</ele>
        <time>2015-12-13T15:39:02Z</time>
      </trkpt>
      <trkpt lat="50.75757" lon="3.69989">
        <ele>83</ele>
        <time>2015-12-13T15:39:09Z</time>
      </trkpt>
      <trkpt lat="50.75756" lon="3.69992">
        <ele>82.3</ele>
        <time>2015-12-13T15:39:11Z</time>
      </trkpt>
      <trkpt lat="50.75756" lon="3.69997">
        <ele>82</ele>
        <time>2015-12-13T15:39:13Z</time>
      </trkpt>
      <trkpt lat="50.75755" lon="3.7">
        <ele>82</ele>
        <time>2015-12-13T15:39:14Z</time>
      </trkpt>
      <trkpt lat="50.75755" lon="3.70003">
        <ele>82</ele>
        <time>2015-12-13T15:39:15Z</time>
      </trkpt>
      <trkpt lat="50.75754" lon="3.70006">
        <ele>82</ele>
        <time>2015-12-13T15:39:16Z</time>
      </trkpt>
      <trkpt lat="50.75755" lon="3.70009">
        <ele>82</ele>
        <time>2015-12-13T15:39:17Z</time>
      </trkpt>
      <trkpt lat="50.75754" lon="3.70013">
        <ele>82</ele>
        <time>2015-12-13T15:39:18Z</time>
      </trkpt>
      <trkpt lat="50.75754" lon="3.70016">
        <ele>82</ele>
        <time>2015-12-13T15:39:19Z</time>
      </trkpt>
      <trkpt lat="50.75753" lon="3.70019">
        <ele>82</ele>
        <time>2015-12-13T15:39:20Z</time>
      </trkpt>
      <trkpt lat="50.75752" lon="3.70024">
        <ele>80</ele>
        <time>2015-12-13T15:39:22Z</time>
      </trkpt>
      <trkpt lat="50.75752" lon="3.70028">
        <ele>80</ele>
        <time>2015-12-13T15:39:24Z</time>
      </trkpt>
      <trkpt lat="50.75752" lon="3.70033">
        <ele>80</ele>
        <time>2015-12-13T15:39:26Z</time>
      </trkpt>
      <trkpt lat="50.75751" lon="3.70037">
        <ele>80</ele>
        <time>2015-12-13T15:39:28Z</time>
      </trkpt>
      <trkpt lat="50.75751" lon="3.70041">
        <ele>80</ele>
        <time>2015-12-13T15:39:30Z</time>
      </trkpt>
      <trkpt lat="50.7575" lon="3.70045">
        <ele>80</ele>
        <time>2015-12-13T15:39:33Z</time>
      </trkpt>
      <trkpt lat="50.75749" lon="3.70049">
        <ele>80</ele>
        <time>2015-12-13T15:39:35Z</time>
      </trkpt>
      <trkpt lat="50.75748" lon="3.70054">
        <ele>80</ele>
        <time>2015-12-13T15:39:37Z</time>
      </trkpt>
      <trkpt lat="50.75745" lon="3.70061">
        <ele>80</ele>
        <time>2015-12-13T15:39:40Z</time>
      </trkpt>
      <trkpt lat="50.75746" lon="3.70064">
        <ele>78</ele>
        <time>2015-12-13T15:39:41Z</time>
      </trkpt>
      <trkpt lat="50.75746" lon="3.70068">
        <ele>77</ele>
        <time>2015-12-13T15:39:43Z</time>
      </trkpt>
      <trkpt lat="50.75745" lon="3.70072">
        <ele>77</ele>
        <time>2015-12-13T15:39:45Z</time>
      </trkpt>
      <trkpt lat="50.75746" lon="3.70075">
        <ele>76</ele>
        <time>2015-12-13T15:39:47Z</time>
      </trkpt>
      <trkpt lat="50.75746" lon="3.70079">
        <ele>76</ele>
        <time>2015-12-13T15:39:49Z</time>
      </trkpt>
      <trkpt lat="50.75745" lon="3.70082">
        <ele>75.5</ele>
        <time>2015-12-13T15:39:51Z</time>
      </trkpt>
      <trkpt lat="50.75743" lon="3.70086">
        <ele>75</ele>
        <time>2015-12-13T15:39:53Z</time>
      </trkpt>
      <trkpt lat="50.75741" lon="3.70088">
        <ele>75</ele>
        <time>2015-12-13T15:39:55Z</time>
      </trkpt>
      <trkpt lat="50.75739" lon="3.70093">
        <ele>74</ele>
        <time>2015-12-13T15:39:57Z</time>
      </trkpt>
      <trkpt lat="50.75738" lon="3.70098">
        <ele>74</ele>
        <time>2015-12-13T15:39:59Z</time>
      </trkpt>
      <trkpt lat="50.75737" lon="3.70101">
        <ele>72.9</ele>
        <time>2015-12-13T15:40:01Z</time>
      </trkpt>
      <trkpt lat="50.75736" lon="3.70104">
        <ele>72</ele>
        <time>2015-12-13T15:40:03Z</time>
      </trkpt>
      <trkpt lat="50.75734" lon="3.70108">
        <ele>72</ele>
        <time>2015-12-13T15:40:05Z</time>
      </trkpt>
      <trkpt lat="50.75733" lon="3.70111">
        <ele>72</ele>
        <time>2015-12-13T15:40:07Z</time>
      </trkpt>
      <trkpt lat="50.75731" lon="3.70112">
        <ele>72</ele>
        <time>2015-12-13T15:40:09Z</time>
      </trkpt>
      <trkpt lat="50.75732" lon="3.70116">
        <ele>71</ele>
        <time>2015-12-13T15:40:12Z</time>
      </trkpt>
      <trkpt lat="50.75734" lon="3.7012">
        <ele>71</ele>
        <time>2015-12-13T15:40:14Z</time>
      </trkpt>
      <trkpt lat="50.75734" lon="3.70124">
        <ele>71</ele>
        <time>2015-12-13T15:40:16Z</time>
      </trkpt>
      <trkpt lat="50.75736" lon="3.70127">
        <ele>71</ele>
        <time>2015-12-13T15:40:19Z</time>
      </trkpt>
      <trkpt lat="50.75736" lon="3.70131">
        <ele>68</ele>
        <time>2015-12-13T15:40:22Z</time>
      </trkpt>
      <trkpt lat="50.75738" lon="3.70138">
        <ele>67.3</ele>
        <time>2015-12-13T15:40:26Z</time>
      </trkpt>
      <trkpt lat="50.75738" lon="3.70142">
        <ele>67</ele>
        <time>2015-12-13T15:40:28Z</time>
      </trkpt>
      <trkpt lat="50.75739" lon="3.70146">
        <ele>67</ele>
        <time>2015-12-13T15:40:30Z</time>
      </trkpt>
      <trkpt lat="50.75742" lon="3.70152">
        <ele>67</ele>
        <time>2015-12-13T15:40:33Z</time>
      </trkpt>
      <trkpt lat="50.75743" lon="3.70157">
        <ele>67</ele>
        <time>2015-12-13T15:40:36Z</time>
      </trkpt>
      <trkpt lat="50.75744" lon="3.70159">
        <ele>67</ele>
        <time>2015-12-13T15:40:40Z</time>
      </trkpt>
      <trkpt lat="50.75745" lon="3.70163">
        <ele>68</ele>
        <time>2015-12-13T15:40:43Z</time>
      </trkpt>
      <trkpt lat="50.75747" lon="3.70167">
        <ele>68</ele>
        <time>2015-12-13T15:40:45Z</time>
      </trkpt>
      <trkpt lat="50.75748" lon="3.70169">
        <ele>68</ele>
        <time>2015-12-13T15:40:47Z</time>
      </trkpt>
      <trkpt lat="50.75749" lon="3.70173">
        <ele>68</ele>
        <time>2015-12-13T15:40:49Z</time>
      </trkpt>
      <trkpt lat="50.75751" lon="3.70176">
        <ele>68.7</ele>
        <time>2015-12-13T15:40:51Z</time>
      </trkpt>
      <trkpt lat="50.75752" lon="3.7018">
        <ele>69</ele>
        <time>2015-12-13T15:40:53Z</time>
      </trkpt>
      <trkpt lat="50.75753" lon="3.70184">
        <ele>69</ele>
        <time>2015-12-13T15:40:55Z</time>
      </trkpt>
      <trkpt lat="50.75754" lon="3.70188">
        <ele>69</ele>
        <time>2015-12-13T15:40:57Z</time>
      </trkpt>
      <trkpt lat="50.75754" lon="3.70191">
        <ele>69</ele>
        <time>2015-12-13T15:40:59Z</time>
      </trkpt>
      <trkpt lat="50.75754" lon="3.70195">
        <ele>70.4</ele>
        <time>2015-12-13T15:41:01Z</time>
      </trkpt>
      <trkpt lat="50.75755" lon="3.70197">
        <ele>71</ele>
        <time>2015-12-13T15:41:03Z</time>
      </trkpt>
      <trkpt lat="50.75757" lon="3.70199">
        <ele>71</ele>
        <time>2015-12-13T15:41:05Z</time>
      </trkpt>
      <trkpt lat="50.75759" lon="3.70203">
        <ele>71</ele>
        <time>2015-12-13T15:41:07Z</time>
      </trkpt>
      <trkpt lat="50.75761" lon="3.70206">
        <ele>71</ele>
        <time>2015-12-13T15:41:09Z</time>
      </trkpt>
      <trkpt lat="50.75761" lon="3.70209">
        <ele>71.7</ele>
        <time>2015-12-13T15:41:11Z</time>
      </trkpt>
      <trkpt lat="50.75763" lon="3.70212">
        <ele>72</ele>
        <time>2015-12-13T15:41:13Z</time>
      </trkpt>
      <trkpt lat="50.75765" lon="3.70214">
        <ele>72</ele>
        <time>2015-12-13T15:41:15Z</time>
      </trkpt>
      <trkpt lat="50.75768" lon="3.70217">
        <ele>72</ele>
        <time>2015-12-13T15:41:19Z</time>
      </trkpt>
      <trkpt lat="50.75771" lon="3.70219">
        <ele>72.7</ele>
        <time>2015-12-13T15:41:21Z</time>
      </trkpt>
      <trkpt lat="50.75773" lon="3.70221">
        <ele>73</ele>
        <time>2015-12-13T15:41:23Z</time>
      </trkpt>
      <trkpt lat="50.75775" lon="3.70222">
        <ele>73</ele>
        <time>2015-12-13T15:41:25Z</time>
      </trkpt>
      <trkpt lat="50.75778" lon="3.70222">
        <ele>73</ele>
        <time>2015-12-13T15:41:29Z</time>
      </trkpt>
      <trkpt lat="50.75781" lon="3.70224">
        <ele>74.1</ele>
        <time>2015-12-13T15:41:31Z</time>
      </trkpt>
      <trkpt lat="50.75785" lon="3.70226">
        <ele>75</ele>
        <time>2015-12-13T15:41:37Z</time>
      </trkpt>
      <trkpt lat="50.75787" lon="3.70227">
        <ele>75</ele>
        <time>2015-12-13T15:41:39Z</time>
      </trkpt>
      <trkpt lat="50.75789" lon="3.70228">
        <ele>76</ele>
        <time>2015-12-13T15:41:43Z</time>
      </trkpt>
      <trkpt lat="50.75794" lon="3.70226">
        <ele>76</ele>
        <time>2015-12-13T15:41:47Z</time>
      </trkpt>
      <trkpt lat="50.75796" lon="3.70225">
        <ele>76</ele>
        <time>2015-12-13T15:41:49Z</time>
      </trkpt>
      <trkpt lat="50.75799" lon="3.70228">
        <ele>78</ele>
        <time>2015-12-13T15:41:53Z</time>
      </trkpt>
      <trkpt lat="50.75802" lon="3.70228">
        <ele>78</ele>
        <time>2015-12-13T15:41:55Z</time>
      </trkpt>
      <trkpt lat="50.75804" lon="3.7023">
        <ele>78</ele>
        <time>2015-12-13T15:41:57Z</time>
      </trkpt>
      <trkpt lat="50.75806" lon="3.7023">
        <ele>78</ele>
        <time>2015-12-13T15:41:59Z</time>
      </trkpt>
      <trkpt lat="50.75808" lon="3.70231">
        <ele>78.7</ele>
        <time>2015-12-13T15:42:01Z</time>
      </trkpt>
      <trkpt lat="50.75811" lon="3.70234">
        <ele>79</ele>
        <time>2015-12-13T15:42:03Z</time>
      </trkpt>
      <trkpt lat="50.75815" lon="3.70236">
        <ele>79</ele>
        <time>2015-12-13T15:42:05Z</time>
      </trkpt>
      <trkpt lat="50.75817" lon="3.70239">
        <ele>79</ele>
        <time>2015-12-13T15:42:07Z</time>
      </trkpt>
      <trkpt lat="50.75819" lon="3.7024">
        <ele>79</ele>
        <time>2015-12-13T15:42:09Z</time>
      </trkpt>
      <trkpt lat="50.75822" lon="3.70242">
        <ele>79.7</ele>
        <time>2015-12-13T15:42:11Z</time>
      </trkpt>
      <trkpt lat="50.75824" lon="3.70244">
        <ele>80</ele>
        <time>2015-12-13T15:42:13Z</time>
      </trkpt>
      <trkpt lat="50.75827" lon="3.70246">
        <ele>80</ele>
        <time>2015-12-13T15:42:15Z</time>
      </trkpt>
      <trkpt lat="50.75829" lon="3.70247">
        <ele>80</ele>
        <time>2015-12-13T15:42:18Z</time>
      </trkpt>
      <trkpt lat="50.75833" lon="3.70247">
        <ele>80.7</ele>
        <time>2015-12-13T15:42:21Z</time>
      </trkpt>
      <trkpt lat="50.75835" lon="3.70247">
        <ele>81</ele>
        <time>2015-12-13T15:42:23Z</time>
      </trkpt>
      <trkpt lat="50.75837" lon="3.70248">
        <ele>81</ele>
        <time>2015-12-13T15:42:25Z</time>
      </trkpt>
      <trkpt lat="50.7584" lon="3.7025">
        <ele>81</ele>
        <time>2015-12-13T15:42:27Z</time>
      </trkpt>
      <trkpt lat="50.75842" lon="3.70251">
        <ele>81</ele>
        <time>2015-12-13T15:42:29Z</time>
      </trkpt>
      <trkpt lat="50.75844" lon="3.70252">
        <ele>82.4</ele>
        <time>2015-12-13T15:42:31Z</time>
      </trkpt>
      <trkpt lat="50.75847" lon="3.70253">
        <ele>83</ele>
        <time>2015-12-13T15:42:33Z</time>
      </trkpt>
      <trkpt lat="50.75849" lon="3.70254">
        <ele>83</ele>
        <time>2015-12-13T15:42:35Z</time>
      </trkpt>
      <trkpt lat="50.75852" lon="3.70256">
        <ele>83</ele>
        <time>2015-12-13T15:42:37Z</time>
      </trkpt>
      <trkpt lat="50.75854" lon="3.70256">
        <ele>83</ele>
        <time>2015-12-13T15:42:39Z</time>
      </trkpt>
      <trkpt lat="50.75857" lon="3.70257">
        <ele>83.7</ele>
        <time>2015-12-13T15:42:41Z</time>
      </trkpt>
      <trkpt lat="50.75859" lon="3.70258">
        <ele>84</ele>
        <time>2015-12-13T15:42:43Z</time>
      </trkpt>
      <trkpt lat="50.75861" lon="3.70259">
        <ele>84</ele>
        <time>2015-12-13T15:42:45Z</time>
      </trkpt>
      <trkpt lat="50.75864" lon="3.70259">
        <ele>84</ele>
        <time>2015-12-13T15:42:47Z</time>
      </trkpt>
      <trkpt lat="50.75867" lon="3.70261">
        <ele>84</ele>
        <time>2015-12-13T15:42:49Z</time>
      </trkpt>
      <trkpt lat="50.75869" lon="3.70262">
        <ele>84.7</ele>
        <time>2015-12-13T15:42:51Z</time>
      </trkpt>
      <trkpt lat="50.75871" lon="3.70264">
        <ele>85</ele>
        <time>2015-12-13T15:42:52Z</time>
      </trkpt>
      <trkpt lat="50.75875" lon="3.70267">
        <ele>85</ele>
        <time>2015-12-13T15:42:55Z</time>
      </trkpt>
      <trkpt lat="50.75878" lon="3.70267">
        <ele>85</ele>
        <time>2015-12-13T15:42:57Z</time>
      </trkpt>
      <trkpt lat="50.75882" lon="3.70271">
        <ele>85</ele>
        <time>2015-12-13T15:43:00Z</time>
      </trkpt>
      <trkpt lat="50.75884" lon="3.70275">
        <ele>87</ele>
        <time>2015-12-13T15:43:02Z</time>
      </trkpt>
      <trkpt lat="50.75886" lon="3.70277">
        <ele>87</ele>
        <time>2015-12-13T15:43:03Z</time>
      </trkpt>
      <trkpt lat="50.7589" lon="3.70279">
        <ele>87</ele>
        <time>2015-12-13T15:43:05Z</time>
      </trkpt>
      <trkpt lat="50.75892" lon="3.70282">
        <ele>87</ele>
        <time>2015-12-13T15:43:07Z</time>
      </trkpt>
      <trkpt lat="50.75892" lon="3.70286">
        <ele>87</ele>
        <time>2015-12-13T15:43:09Z</time>
      </trkpt>
      <trkpt lat="50.75893" lon="3.70291">
        <ele>87</ele>
        <time>2015-12-13T15:43:11Z</time>
      </trkpt>
      <trkpt lat="50.75894" lon="3.70295">
        <ele>87</ele>
        <time>2015-12-13T15:43:13Z</time>
      </trkpt>
      <trkpt lat="50.75895" lon="3.70299">
        <ele>87</ele>
        <time>2015-12-13T15:43:15Z</time>
      </trkpt>
      <trkpt lat="50.75896" lon="3.70303">
        <ele>87</ele>
        <time>2015-12-13T15:43:17Z</time>
      </trkpt>
      <trkpt lat="50.75898" lon="3.70306">
        <ele>87</ele>
        <time>2015-12-13T15:43:19Z</time>
      </trkpt>
      <trkpt lat="50.75897" lon="3.70309">
        <ele>87</ele>
        <time>2015-12-13T15:43:29Z</time>
      </trkpt>
      <trkpt lat="50.75899" lon="3.70311">
        <ele>88</ele>
        <time>2015-12-13T15:43:32Z</time>
      </trkpt>
      <trkpt lat="50.75901" lon="3.70312">
        <ele>88</ele>
        <time>2015-12-13T15:43:34Z</time>
      </trkpt>
      <trkpt lat="50.75904" lon="3.70313">
        <ele>88</ele>
        <time>2015-12-13T15:43:37Z</time>
      </trkpt>
      <trkpt lat="50.75905" lon="3.70315">
        <ele>88</ele>
        <time>2015-12-13T15:43:39Z</time>
      </trkpt>
      <trkpt lat="50.75908" lon="3.70312">
        <ele>88</ele>
        <time>2015-12-13T15:43:43Z</time>
      </trkpt>
      <trkpt lat="50.7591" lon="3.70311">
        <ele>88</ele>
        <time>2015-12-13T15:43:45Z</time>
      </trkpt>
      <trkpt lat="50.75912" lon="3.7031">
        <ele>88</ele>
        <time>2015-12-13T15:43:47Z</time>
      </trkpt>
      <trkpt lat="50.75915" lon="3.70312">
        <ele>88</ele>
        <time>2015-12-13T15:43:49Z</time>
      </trkpt>
      <trkpt lat="50.75917" lon="3.70313">
        <ele>89.4</ele>
        <time>2015-12-13T15:43:51Z</time>
      </trkpt>
      <trkpt lat="50.75919" lon="3.70316">
        <ele>90</ele>
        <time>2015-12-13T15:43:53Z</time>
      </trkpt>
      <trkpt lat="50.75921" lon="3.70317">
        <ele>90</ele>
        <time>2015-12-13T15:43:55Z</time>
      </trkpt>
      <trkpt lat="50.75923" lon="3.70318">
        <ele>90</ele>
        <time>2015-12-13T15:43:57Z</time>
      </trkpt>
      <trkpt lat="50.75925" lon="3.70319">
        <ele>90</ele>
        <time>2015-12-13T15:43:59Z</time>
      </trkpt>
      <trkpt lat="50.75928" lon="3.70319">
        <ele>90</ele>
        <time>2015-12-13T15:44:01Z</time>
      </trkpt>
      <trkpt lat="50.7593" lon="3.7032">
        <ele>90</ele>
        <time>2015-12-13T15:44:03Z</time>
      </trkpt>
      <trkpt lat="50.75933" lon="3.7032">
        <ele>90</ele>
        <time>2015-12-13T15:44:05Z</time>
      </trkpt>
      <trkpt lat="50.75935" lon="3.70318">
        <ele>90</ele>
        <time>2015-12-13T15:44:08Z</time>
      </trkpt>
      <trkpt lat="50.75938" lon="3.7032">
        <ele>90.7</ele>
        <time>2015-12-13T15:44:11Z</time>
      </trkpt>
      <trkpt lat="50.75941" lon="3.70322">
        <ele>91</ele>
        <time>2015-12-13T15:44:13Z</time>
      </trkpt>
      <trkpt lat="50.75943" lon="3.70323">
        <ele>91</ele>
        <time>2015-12-13T15:44:15Z</time>
      </trkpt>
      <trkpt lat="50.75945" lon="3.70324">
        <ele>91</ele>
        <time>2015-12-13T15:44:17Z</time>
      </trkpt>
      <trkpt lat="50.75948" lon="3.70324">
        <ele>91</ele>
        <time>2015-12-13T15:44:19Z</time>
      </trkpt>
      <trkpt lat="50.7595" lon="3.70323">
        <ele>91</ele>
        <time>2015-12-13T15:44:21Z</time>
      </trkpt>
      <trkpt lat="50.75953" lon="3.70323">
        <ele>91</ele>
        <time>2015-12-13T15:44:23Z</time>
      </trkpt>
      <trkpt lat="50.75955" lon="3.70325">
        <ele>91</ele>
        <time>2015-12-13T15:44:25Z</time>
      </trkpt>
      <trkpt lat="50.75958" lon="3.70327">
        <ele>91</ele>
        <time>2015-12-13T15:44:27Z</time>
      </trkpt>
      <trkpt lat="50.7596" lon="3.70328">
        <ele>91</ele>
        <time>2015-12-13T15:44:28Z</time>
      </trkpt>
      <trkpt lat="50.75963" lon="3.70329">
        <ele>91</ele>
        <time>2015-12-13T15:44:30Z</time>
      </trkpt>
      <trkpt lat="50.75965" lon="3.70333">
        <ele>93</ele>
        <time>2015-12-13T15:44:32Z</time>
      </trkpt>
      <trkpt lat="50.75966" lon="3.70337">
        <ele>93</ele>
        <time>2015-12-13T15:44:34Z</time>
      </trkpt>
      <trkpt lat="50.75968" lon="3.7034">
        <ele>93</ele>
        <time>2015-12-13T15:44:36Z</time>
      </trkpt>
      <trkpt lat="50.7597" lon="3.70341">
        <ele>93</ele>
        <time>2015-12-13T15:44:39Z</time>
      </trkpt>
      <trkpt lat="50.75973" lon="3.7034">
        <ele>93</ele>
        <time>2015-12-13T15:44:42Z</time>
      </trkpt>
      <trkpt lat="50.75974" lon="3.70336">
        <ele>93</ele>
        <time>2015-12-13T15:44:45Z</time>
      </trkpt>
      <trkpt lat="50.75976" lon="3.70333">
        <ele>93</ele>
        <time>2015-12-13T15:44:48Z</time>
      </trkpt>
      <trkpt lat="50.75978" lon="3.70331">
        <ele>93</ele>
        <time>2015-12-13T15:44:50Z</time>
      </trkpt>
      <trkpt lat="50.75979" lon="3.70334">
        <ele>95</ele>
        <time>2015-12-13T15:44:53Z</time>
      </trkpt>
      <trkpt lat="50.75981" lon="3.70337">
        <ele>95</ele>
        <time>2015-12-13T15:44:56Z</time>
      </trkpt>
      <trkpt lat="50.75984" lon="3.70337">
        <ele>95</ele>
        <time>2015-12-13T15:44:58Z</time>
      </trkpt>
      <trkpt lat="50.75986" lon="3.70336">
        <ele>95</ele>
        <time>2015-12-13T15:45:01Z</time>
      </trkpt>
      <trkpt lat="50.75988" lon="3.70335">
        <ele>95</ele>
        <time>2015-12-13T15:45:03Z</time>
      </trkpt>
      <trkpt lat="50.75991" lon="3.70335">
        <ele>95</ele>
        <time>2015-12-13T15:45:05Z</time>
      </trkpt>
      <trkpt lat="50.75993" lon="3.70334">
        <ele>95</ele>
        <time>2015-12-13T15:45:07Z</time>
      </trkpt>
      <trkpt lat="50.75995" lon="3.70333">
        <ele>95</ele>
        <time>2015-12-13T15:45:09Z</time>
      </trkpt>
      <trkpt lat="50.75997" lon="3.70331">
        <ele>95</ele>
        <time>2015-12-13T15:45:11Z</time>
      </trkpt>
      <trkpt lat="50.75999" lon="3.70329">
        <ele>95</ele>
        <time>2015-12-13T15:45:13Z</time>
      </trkpt>
      <trkpt lat="50.76001" lon="3.70328">
        <ele>95</ele>
        <time>2015-12-13T15:45:15Z</time>
      </trkpt>
      <trkpt lat="50.76003" lon="3.70326">
        <ele>95</ele>
        <time>2015-12-13T15:45:17Z</time>
      </trkpt>
      <trkpt lat="50.76004" lon="3.70324">
        <ele>95</ele>
        <time>2015-12-13T15:45:19Z</time>
      </trkpt>
      <trkpt lat="50.76006" lon="3.7032">
        <ele>96</ele>
        <time>2015-12-13T15:45:22Z</time>
      </trkpt>
      <trkpt lat="50.76007" lon="3.70318">
        <ele>96</ele>
        <time>2015-12-13T15:45:24Z</time>
      </trkpt>
      <trkpt lat="50.76009" lon="3.70316">
        <ele>96</ele>
        <time>2015-12-13T15:45:26Z</time>
      </trkpt>
      <trkpt lat="50.76011" lon="3.70314">
        <ele>96</ele>
        <time>2015-12-13T15:45:28Z</time>
      </trkpt>
      <trkpt lat="50.76013" lon="3.70313">
        <ele>96</ele>
        <time>2015-12-13T15:45:30Z</time>
      </trkpt>
      <trkpt lat="50.76015" lon="3.70311">
        <ele>98</ele>
        <time>2015-12-13T15:45:32Z</time>
      </trkpt>
      <trkpt lat="50.76017" lon="3.70309">
        <ele>98</ele>
        <time>2015-12-13T15:45:34Z</time>
      </trkpt>
      <trkpt lat="50.76019" lon="3.70307">
        <ele>98</ele>
        <time>2015-12-13T15:45:36Z</time>
      </trkpt>
      <trkpt lat="50.7602" lon="3.70304">
        <ele>98</ele>
        <time>2015-12-13T15:45:39Z</time>
      </trkpt>
      <trkpt lat="50.76022" lon="3.70303">
        <ele>98</ele>
        <time>2015-12-13T15:45:41Z</time>
      </trkpt>
      <trkpt lat="50.76024" lon="3.70301">
        <ele>98</ele>
        <time>2015-12-13T15:45:43Z</time>
      </trkpt>
      <trkpt lat="50.76026" lon="3.70299">
        <ele>98</ele>
        <time>2015-12-13T15:45:45Z</time>
      </trkpt>
      <trkpt lat="50.76028" lon="3.70297">
        <ele>98</ele>
        <time>2015-12-13T15:45:46Z</time>
      </trkpt>
      <trkpt lat="50.7603" lon="3.70295">
        <ele>98</ele>
        <time>2015-12-13T15:45:48Z</time>
      </trkpt>
      <trkpt lat="50.76033" lon="3.70293">
        <ele>98</ele>
        <time>2015-12-13T15:45:50Z</time>
      </trkpt>
      <trkpt lat="50.76034" lon="3.7029">
        <ele>98</ele>
        <time>2015-12-13T15:45:52Z</time>
      </trkpt>
      <trkpt lat="50.76036" lon="3.70287">
        <ele>98</ele>
        <time>2015-12-13T15:45:54Z</time>
      </trkpt>
      <trkpt lat="50.76038" lon="3.70285">
        <ele>98</ele>
        <time>2015-12-13T15:45:56Z</time>
      </trkpt>
      <trkpt lat="50.7604" lon="3.70282">
        <ele>98</ele>
        <time>2015-12-13T15:45:58Z</time>
      </trkpt>
      <trkpt lat="50.76041" lon="3.7028">
        <ele>98</ele>
        <time>2015-12-13T15:46:00Z</time>
      </trkpt>
      <trkpt lat="50.76042" lon="3.70277">
        <ele>99</ele>
        <time>2015-12-13T15:46:02Z</time>
      </trkpt>
      <trkpt lat="50.76043" lon="3.70275">
        <ele>99</ele>
        <time>2015-12-13T15:46:04Z</time>
      </trkpt>
      <trkpt lat="50.76045" lon="3.70273">
        <ele>99</ele>
        <time>2015-12-13T15:46:06Z</time>
      </trkpt>
      <trkpt lat="50.76048" lon="3.70273">
        <ele>99</ele>
        <time>2015-12-13T15:46:09Z</time>
      </trkpt>
      <trkpt lat="50.7605" lon="3.70274">
        <ele>99.5</ele>
        <time>2015-12-13T15:46:11Z</time>
      </trkpt>
      <trkpt lat="50.76052" lon="3.70275">
        <ele>100</ele>
        <time>2015-12-13T15:46:13Z</time>
      </trkpt>
      <trkpt lat="50.76054" lon="3.70274">
        <ele>100</ele>
        <time>2015-12-13T15:46:15Z</time>
      </trkpt>
      <trkpt lat="50.76057" lon="3.70273">
        <ele>100</ele>
        <time>2015-12-13T15:46:17Z</time>
      </trkpt>
      <trkpt lat="50.7606" lon="3.70274">
        <ele>100</ele>
        <time>2015-12-13T15:46:19Z</time>
      </trkpt>
      <trkpt lat="50.76062" lon="3.70275">
        <ele>100</ele>
        <time>2015-12-13T15:46:21Z</time>
      </trkpt>
      <trkpt lat="50.76065" lon="3.70275">
        <ele>100</ele>
        <time>2015-12-13T15:46:24Z</time>
      </trkpt>
      <trkpt lat="50.76071" lon="3.70277">
        <ele>100</ele>
        <time>2015-12-13T15:46:28Z</time>
      </trkpt>
      <trkpt lat="50.76076" lon="3.70284">
        <ele>99</ele>
        <time>2015-12-13T15:46:36Z</time>
      </trkpt>
      <trkpt lat="50.76078" lon="3.70285">
        <ele>99</ele>
        <time>2015-12-13T15:46:37Z</time>
      </trkpt>
      <trkpt lat="50.7608" lon="3.70286">
        <ele>99</ele>
        <time>2015-12-13T15:46:39Z</time>
      </trkpt>
      <trkpt lat="50.76085" lon="3.70287">
        <ele>100</ele>
        <time>2015-12-13T15:46:43Z</time>
      </trkpt>
      <trkpt lat="50.76087" lon="3.70285">
        <ele>100</ele>
        <time>2015-12-13T15:46:46Z</time>
      </trkpt>
      <trkpt lat="50.76089" lon="3.70288">
        <ele>100</ele>
        <time>2015-12-13T15:46:49Z</time>
      </trkpt>
      <trkpt lat="50.7609" lon="3.7029">
        <ele>100</ele>
        <time>2015-12-13T15:46:52Z</time>
      </trkpt>
      <trkpt lat="50.76093" lon="3.70292">
        <ele>100</ele>
        <time>2015-12-13T15:46:55Z</time>
      </trkpt>
      <trkpt lat="50.76095" lon="3.70293">
        <ele>100</ele>
        <time>2015-12-13T15:46:58Z</time>
      </trkpt>
      <trkpt lat="50.76098" lon="3.70294">
        <ele>98</ele>
        <time>2015-12-13T15:47:01Z</time>
      </trkpt>
      <trkpt lat="50.761" lon="3.70296">
        <ele>97</ele>
        <time>2015-12-13T15:47:03Z</time>
      </trkpt>
      <trkpt lat="50.76102" lon="3.70298">
        <ele>97</ele>
        <time>2015-12-13T15:47:05Z</time>
      </trkpt>
      <trkpt lat="50.76104" lon="3.70302">
        <ele>97</ele>
        <time>2015-12-13T15:47:07Z</time>
      </trkpt>
      <trkpt lat="50.76105" lon="3.70305">
        <ele>97</ele>
        <time>2015-12-13T15:47:09Z</time>
      </trkpt>
      <trkpt lat="50.76105" lon="3.7031">
        <ele>97</ele>
        <time>2015-12-13T15:47:11Z</time>
      </trkpt>
      <trkpt lat="50.76105" lon="3.70314">
        <ele>97.7</ele>
        <time>2015-12-13T15:47:13Z</time>
      </trkpt>
      <trkpt lat="50.76105" lon="3.70318">
        <ele>98</ele>
        <time>2015-12-13T15:47:15Z</time>
      </trkpt>
      <trkpt lat="50.76104" lon="3.70322">
        <ele>98</ele>
        <time>2015-12-13T15:47:17Z</time>
      </trkpt>
      <trkpt lat="50.76103" lon="3.70325">
        <ele>98</ele>
        <time>2015-12-13T15:47:20Z</time>
      </trkpt>
      <trkpt lat="50.76101" lon="3.70328">
        <ele>97</ele>
        <time>2015-12-13T15:47:22Z</time>
      </trkpt>
      <trkpt lat="50.761" lon="3.70331">
        <ele>97</ele>
        <time>2015-12-13T15:47:25Z</time>
      </trkpt>
      <trkpt lat="50.76101" lon="3.70334">
        <ele>97</ele>
        <time>2015-12-13T15:47:27Z</time>
      </trkpt>
      <trkpt lat="50.76101" lon="3.70338">
        <ele>97</ele>
        <time>2015-12-13T15:47:29Z</time>
      </trkpt>
      <trkpt lat="50.761" lon="3.70341">
        <ele>95</ele>
        <time>2015-12-13T15:47:32Z</time>
      </trkpt>
      <trkpt lat="50.76101" lon="3.70345">
        <ele>95</ele>
        <time>2015-12-13T15:47:36Z</time>
      </trkpt>
      <trkpt lat="50.76101" lon="3.70348">
        <ele>95</ele>
        <time>2015-12-13T15:47:38Z</time>
      </trkpt>
      <trkpt lat="50.76101" lon="3.70351">
        <ele>95</ele>
        <time>2015-12-13T15:47:40Z</time>
      </trkpt>
      <trkpt lat="50.76096" lon="3.70355">
        <ele>94</ele>
        <time>2015-12-13T15:47:46Z</time>
      </trkpt>
      <trkpt lat="50.76095" lon="3.70358">
        <ele>93.3</ele>
        <time>2015-12-13T15:47:51Z</time>
      </trkpt>
      <trkpt lat="50.76094" lon="3.70361">
        <ele>93</ele>
        <time>2015-12-13T15:47:54Z</time>
      </trkpt>
      <trkpt lat="50.76091" lon="3.70368">
        <ele>93</ele>
        <time>2015-12-13T15:47:59Z</time>
      </trkpt>
      <trkpt lat="50.7609" lon="3.70371">
        <ele>93</ele>
        <time>2015-12-13T15:48:01Z</time>
      </trkpt>
      <trkpt lat="50.7609" lon="3.70375">
        <ele>93</ele>
        <time>2015-12-13T15:48:03Z</time>
      </trkpt>
      <trkpt lat="50.76088" lon="3.70377">
        <ele>93</ele>
        <time>2015-12-13T15:48:05Z</time>
      </trkpt>
      <trkpt lat="50.76087" lon="3.7038">
        <ele>93</ele>
        <time>2015-12-13T15:48:07Z</time>
      </trkpt>
      <trkpt lat="50.76085" lon="3.70382">
        <ele>93</ele>
        <time>2015-12-13T15:48:09Z</time>
      </trkpt>
      <trkpt lat="50.76082" lon="3.70388">
        <ele>92</ele>
        <time>2015-12-13T15:48:15Z</time>
      </trkpt>
      <trkpt lat="50.76083" lon="3.70396">
        <ele>89</ele>
        <time>2015-12-13T15:48:32Z</time>
      </trkpt>
      <trkpt lat="50.76083" lon="3.704">
        <ele>89</ele>
        <time>2015-12-13T15:48:35Z</time>
      </trkpt>
      <trkpt lat="50.76083" lon="3.70404">
        <ele>88</ele>
        <time>2015-12-13T15:48:37Z</time>
      </trkpt>
      <trkpt lat="50.76083" lon="3.70408">
        <ele>88</ele>
        <time>2015-12-13T15:48:39Z</time>
      </trkpt>
      <trkpt lat="50.76084" lon="3.70412">
        <ele>87.3</ele>
        <time>2015-12-13T15:48:41Z</time>
      </trkpt>
      <trkpt lat="50.76085" lon="3.70416">
        <ele>87</ele>
        <time>2015-12-13T15:48:43Z</time>
      </trkpt>
      <trkpt lat="50.76085" lon="3.70421">
        <ele>87</ele>
        <time>2015-12-13T15:48:45Z</time>
      </trkpt>
      <trkpt lat="50.76085" lon="3.70425">
        <ele>87</ele>
        <time>2015-12-13T15:48:47Z</time>
      </trkpt>
      <trkpt lat="50.76085" lon="3.70429">
        <ele>87</ele>
        <time>2015-12-13T15:48:49Z</time>
      </trkpt>
      <trkpt lat="50.76085" lon="3.70434">
        <ele>86.3</ele>
        <time>2015-12-13T15:48:51Z</time>
      </trkpt>
      <trkpt lat="50.76085" lon="3.70438">
        <ele>86</ele>
        <time>2015-12-13T15:48:53Z</time>
      </trkpt>
      <trkpt lat="50.76085" lon="3.70442">
        <ele>86</ele>
        <time>2015-12-13T15:48:55Z</time>
      </trkpt>
      <trkpt lat="50.76085" lon="3.70447">
        <ele>86</ele>
        <time>2015-12-13T15:48:57Z</time>
      </trkpt>
      <trkpt lat="50.76084" lon="3.70451">
        <ele>86</ele>
        <time>2015-12-13T15:48:59Z</time>
      </trkpt>
      <trkpt lat="50.76084" lon="3.70454">
        <ele>85.3</ele>
        <time>2015-12-13T15:49:01Z</time>
      </trkpt>
      <trkpt lat="50.76084" lon="3.70457">
        <ele>85</ele>
        <time>2015-12-13T15:49:04Z</time>
      </trkpt>
      <trkpt lat="50.76085" lon="3.70461">
        <ele>85</ele>
        <time>2015-12-13T15:49:06Z</time>
      </trkpt>
      <trkpt lat="50.76085" lon="3.70465">
        <ele>85</ele>
        <time>2015-12-13T15:49:08Z</time>
      </trkpt>
      <trkpt lat="50.76085" lon="3.70469">
        <ele>83.6</ele>
        <time>2015-12-13T15:49:11Z</time>
      </trkpt>
      <trkpt lat="50.76086" lon="3.70472">
        <ele>83</ele>
        <time>2015-12-13T15:49:13Z</time>
      </trkpt>
      <trkpt lat="50.76086" lon="3.70475">
        <ele>83</ele>
        <time>2015-12-13T15:49:15Z</time>
      </trkpt>
      <trkpt lat="50.76087" lon="3.70479">
        <ele>83</ele>
        <time>2015-12-13T15:49:17Z</time>
      </trkpt>
      <trkpt lat="50.76087" lon="3.70483">
        <ele>83</ele>
        <time>2015-12-13T15:49:19Z</time>
      </trkpt>
      <trkpt lat="50.76087" lon="3.70487">
        <ele>82.5</ele>
        <time>2015-12-13T15:49:21Z</time>
      </trkpt>
      <trkpt lat="50.76086" lon="3.7049">
        <ele>82</ele>
        <time>2015-12-13T15:49:23Z</time>
      </trkpt>
      <trkpt lat="50.76085" lon="3.70501">
        <ele>81.3</ele>
        <time>2015-12-13T15:49:31Z</time>
      </trkpt>
      <trkpt lat="50.76086" lon="3.70505">
        <ele>81</ele>
        <time>2015-12-13T15:49:33Z</time>
      </trkpt>
      <trkpt lat="50.76086" lon="3.70509">
        <ele>81</ele>
        <time>2015-12-13T15:49:35Z</time>
      </trkpt>
      <trkpt lat="50.76085" lon="3.70512">
        <ele>81</ele>
        <time>2015-12-13T15:49:37Z</time>
      </trkpt>
      <trkpt lat="50.76084" lon="3.70515">
        <ele>81</ele>
        <time>2015-12-13T15:49:39Z</time>
      </trkpt>
      <trkpt lat="50.76085" lon="3.70519">
        <ele>81.5</ele>
        <time>2015-12-13T15:49:41Z</time>
      </trkpt>
      <trkpt lat="50.76085" lon="3.70521">
        <ele>82</ele>
        <time>2015-12-13T15:49:43Z</time>
      </trkpt>
      <trkpt lat="50.76085" lon="3.70525">
        <ele>82</ele>
        <time>2015-12-13T15:49:45Z</time>
      </trkpt>
      <trkpt lat="50.76085" lon="3.70528">
        <ele>82</ele>
        <time>2015-12-13T15:49:47Z</time>
      </trkpt>
      <trkpt lat="50.76085" lon="3.70531">
        <ele>82</ele>
        <time>2015-12-13T15:49:50Z</time>
      </trkpt>
      <trkpt lat="50.76087" lon="3.70534">
        <ele>82</ele>
        <time>2015-12-13T15:49:52Z</time>
      </trkpt>
      <trkpt lat="50.76088" lon="3.70538">
        <ele>82</ele>
        <time>2015-12-13T15:49:54Z</time>
      </trkpt>
      <trkpt lat="50.7609" lon="3.7054">
        <ele>82</ele>
        <time>2015-12-13T15:49:58Z</time>
      </trkpt>
      <trkpt lat="50.7609" lon="3.70545">
        <ele>82</ele>
        <time>2015-12-13T15:50:00Z</time>
      </trkpt>
      <trkpt lat="50.76091" lon="3.70548">
        <ele>82</ele>
        <time>2015-12-13T15:50:01Z</time>
      </trkpt>
      <trkpt lat="50.76092" lon="3.70551">
        <ele>81</ele>
        <time>2015-12-13T15:50:03Z</time>
      </trkpt>
      <trkpt lat="50.76093" lon="3.70553">
        <ele>81</ele>
        <time>2015-12-13T15:50:06Z</time>
      </trkpt>
      <trkpt lat="50.76095" lon="3.70558">
        <ele>81</ele>
        <time>2015-12-13T15:50:11Z</time>
      </trkpt>
      <trkpt lat="50.76096" lon="3.7056">
        <ele>80.3</ele>
        <time>2015-12-13T15:50:12Z</time>
      </trkpt>
      <trkpt lat="50.76096" lon="3.70563">
        <ele>80</ele>
        <time>2015-12-13T15:50:13Z</time>
      </trkpt>
      <trkpt lat="50.76098" lon="3.70567">
        <ele>80</ele>
        <time>2015-12-13T15:50:15Z</time>
      </trkpt>
      <trkpt lat="50.761" lon="3.7057">
        <ele>80</ele>
        <time>2015-12-13T15:50:17Z</time>
      </trkpt>
      <trkpt lat="50.76104" lon="3.70575">
        <ele>78</ele>
        <time>2015-12-13T15:50:23Z</time>
      </trkpt>
      <trkpt lat="50.76105" lon="3.70578">
        <ele>78</ele>
        <time>2015-12-13T15:50:24Z</time>
      </trkpt>
      <trkpt lat="50.76105" lon="3.70582">
        <ele>78</ele>
        <time>2015-12-13T15:50:26Z</time>
      </trkpt>
      <trkpt lat="50.76106" lon="3.70586">
        <ele>77</ele>
        <time>2015-12-13T15:50:28Z</time>
      </trkpt>
      <trkpt lat="50.76107" lon="3.7059">
        <ele>77</ele>
        <time>2015-12-13T15:50:30Z</time>
      </trkpt>
      <trkpt lat="50.76107" lon="3.70594">
        <ele>77</ele>
        <time>2015-12-13T15:50:31Z</time>
      </trkpt>
      <trkpt lat="50.76107" lon="3.70599">
        <ele>76</ele>
        <time>2015-12-13T15:50:33Z</time>
      </trkpt>
      <trkpt lat="50.76105" lon="3.70602">
        <ele>76</ele>
        <time>2015-12-13T15:50:35Z</time>
      </trkpt>
      <trkpt lat="50.76105" lon="3.70607">
        <ele>76</ele>
        <time>2015-12-13T15:50:37Z</time>
      </trkpt>
      <trkpt lat="50.76106" lon="3.70612">
        <ele>76</ele>
        <time>2015-12-13T15:50:39Z</time>
      </trkpt>
      <trkpt lat="50.76106" lon="3.70617">
        <ele>76</ele>
        <time>2015-12-13T15:50:41Z</time>
      </trkpt>
      <trkpt lat="50.76107" lon="3.70621">
        <ele>75</ele>
        <time>2015-12-13T15:50:43Z</time>
      </trkpt>
      <trkpt lat="50.76108" lon="3.70624">
        <ele>75</ele>
        <time>2015-12-13T15:50:45Z</time>
      </trkpt>
      <trkpt lat="50.76109" lon="3.70628">
        <ele>75</ele>
        <time>2015-12-13T15:50:48Z</time>
      </trkpt>
      <trkpt lat="50.76111" lon="3.7063">
        <ele>75</ele>
        <time>2015-12-13T15:50:51Z</time>
      </trkpt>
      <trkpt lat="50.76112" lon="3.70635">
        <ele>74</ele>
        <time>2015-12-13T15:50:53Z</time>
      </trkpt>
      <trkpt lat="50.76112" lon="3.70641">
        <ele>74</ele>
        <time>2015-12-13T15:50:55Z</time>
      </trkpt>
      <trkpt lat="50.76111" lon="3.70645">
        <ele>74</ele>
        <time>2015-12-13T15:50:57Z</time>
      </trkpt>
      <trkpt lat="50.76109" lon="3.70648">
        <ele>74</ele>
        <time>2015-12-13T15:50:59Z</time>
      </trkpt>
      <trkpt lat="50.76108" lon="3.70651">
        <ele>72.6</ele>
        <time>2015-12-13T15:51:01Z</time>
      </trkpt>
      <trkpt lat="50.76106" lon="3.70653">
        <ele>72</ele>
        <time>2015-12-13T15:51:03Z</time>
      </trkpt>
      <trkpt lat="50.76102" lon="3.70653">
        <ele>72</ele>
        <time>2015-12-13T15:51:05Z</time>
      </trkpt>
      <trkpt lat="50.76098" lon="3.70657">
        <ele>72</ele>
        <time>2015-12-13T15:51:07Z</time>
      </trkpt>
      <trkpt lat="50.76096" lon="3.70661">
        <ele>74</ele>
        <time>2015-12-13T15:51:12Z</time>
      </trkpt>
      <trkpt lat="50.76095" lon="3.70664">
        <ele>74</ele>
        <time>2015-12-13T15:51:14Z</time>
      </trkpt>
      <trkpt lat="50.76093" lon="3.70667">
        <ele>74</ele>
        <time>2015-12-13T15:51:17Z</time>
      </trkpt>
      <trkpt lat="50.76092" lon="3.70671">
        <ele>74</ele>
        <time>2015-12-13T15:51:19Z</time>
      </trkpt>
      <trkpt lat="50.7609" lon="3.70674">
        <ele>74</ele>
        <time>2015-12-13T15:51:23Z</time>
      </trkpt>
      <trkpt lat="50.76088" lon="3.70677">
        <ele>74</ele>
        <time>2015-12-13T15:51:24Z</time>
      </trkpt>
      <trkpt lat="50.7609" lon="3.7068">
        <ele>74</ele>
        <time>2015-12-13T15:51:26Z</time>
      </trkpt>
      <trkpt lat="50.76091" lon="3.70682">
        <ele>74</ele>
        <time>2015-12-13T15:51:28Z</time>
      </trkpt>
      <trkpt lat="50.76092" lon="3.70684">
        <ele>72.6</ele>
        <time>2015-12-13T15:51:31Z</time>
      </trkpt>
      <trkpt lat="50.76092" lon="3.70687">
        <ele>72</ele>
        <time>2015-12-13T15:51:34Z</time>
      </trkpt>
      <trkpt lat="50.76091" lon="3.7069">
        <ele>72</ele>
        <time>2015-12-13T15:51:36Z</time>
      </trkpt>
      <trkpt lat="50.7609" lon="3.70694">
        <ele>72</ele>
        <time>2015-12-13T15:51:39Z</time>
      </trkpt>
      <trkpt lat="50.76089" lon="3.70697">
        <ele>71.3</ele>
        <time>2015-12-13T15:51:41Z</time>
      </trkpt>
      <trkpt lat="50.76088" lon="3.70701">
        <ele>71</ele>
        <time>2015-12-13T15:51:43Z</time>
      </trkpt>
      <trkpt lat="50.76086" lon="3.70704">
        <ele>71</ele>
        <time>2015-12-13T15:51:45Z</time>
      </trkpt>
      <trkpt lat="50.76085" lon="3.70707">
        <ele>71</ele>
        <time>2015-12-13T15:51:47Z</time>
      </trkpt>
      <trkpt lat="50.76084" lon="3.7071">
        <ele>71</ele>
        <time>2015-12-13T15:51:49Z</time>
      </trkpt>
      <trkpt lat="50.76083" lon="3.70713">
        <ele>70.3</ele>
        <time>2015-12-13T15:51:51Z</time>
      </trkpt>
      <trkpt lat="50.7608" lon="3.70718">
        <ele>69.3</ele>
        <time>2015-12-13T15:52:01Z</time>
      </trkpt>
      <trkpt lat="50.76079" lon="3.70722">
        <ele>69</ele>
        <time>2015-12-13T15:52:10Z</time>
      </trkpt>
      <trkpt lat="50.76078" lon="3.70726">
        <ele>69</ele>
        <time>2015-12-13T15:52:12Z</time>
      </trkpt>
      <trkpt lat="50.76076" lon="3.7073">
        <ele>69</ele>
        <time>2015-12-13T15:52:14Z</time>
      </trkpt>
      <trkpt lat="50.76076" lon="3.70734">
        <ele>69</ele>
        <time>2015-12-13T15:52:17Z</time>
      </trkpt>
      <trkpt lat="50.76076" lon="3.70741">
        <ele>67</ele>
        <time>2015-12-13T15:52:22Z</time>
      </trkpt>
      <trkpt lat="50.76076" lon="3.70744">
        <ele>67</ele>
        <time>2015-12-13T15:52:25Z</time>
      </trkpt>
      <trkpt lat="50.76075" lon="3.70748">
        <ele>67</ele>
        <time>2015-12-13T15:52:28Z</time>
      </trkpt>
      <trkpt lat="50.76074" lon="3.70752">
        <ele>67</ele>
        <time>2015-12-13T15:52:30Z</time>
      </trkpt>
      <trkpt lat="50.76073" lon="3.70755">
        <ele>65.9</ele>
        <time>2015-12-13T15:52:31Z</time>
      </trkpt>
      <trkpt lat="50.76072" lon="3.70759">
        <ele>65</ele>
        <time>2015-12-13T15:52:33Z</time>
      </trkpt>
      <trkpt lat="50.7607" lon="3.70762">
        <ele>65</ele>
        <time>2015-12-13T15:52:35Z</time>
      </trkpt>
      <trkpt lat="50.76069" lon="3.70764">
        <ele>63</ele>
        <time>2015-12-13T15:52:37Z</time>
      </trkpt>
      <trkpt lat="50.76069" lon="3.70768">
        <ele>63</ele>
        <time>2015-12-13T15:52:40Z</time>
      </trkpt>
      <trkpt lat="50.76067" lon="3.70772">
        <ele>63</ele>
        <time>2015-12-13T15:52:43Z</time>
      </trkpt>
      <trkpt lat="50.76067" lon="3.70775">
        <ele>62.3</ele>
        <time>2015-12-13T15:52:46Z</time>
      </trkpt>
      <trkpt lat="50.76067" lon="3.70778">
        <ele>62</ele>
        <time>2015-12-13T15:52:48Z</time>
      </trkpt>
      <trkpt lat="50.76065" lon="3.70785">
        <ele>62</ele>
        <time>2015-12-13T15:52:59Z</time>
      </trkpt>
      <trkpt lat="50.76063" lon="3.70789">
        <ele>60</ele>
        <time>2015-12-13T15:53:02Z</time>
      </trkpt>
      <trkpt lat="50.76061" lon="3.70792">
        <ele>60</ele>
        <time>2015-12-13T15:53:04Z</time>
      </trkpt>
      <trkpt lat="50.76059" lon="3.70795">
        <ele>60</ele>
        <time>2015-12-13T15:53:06Z</time>
      </trkpt>
      <trkpt lat="50.76057" lon="3.70797">
        <ele>60</ele>
        <time>2015-12-13T15:53:08Z</time>
      </trkpt>
      <trkpt lat="50.76053" lon="3.70798">
        <ele>60</ele>
        <time>2015-12-13T15:53:11Z</time>
      </trkpt>
      <trkpt lat="50.76051" lon="3.70798">
        <ele>60</ele>
        <time>2015-12-13T15:53:13Z</time>
      </trkpt>
      <trkpt lat="50.76048" lon="3.70798">
        <ele>60</ele>
        <time>2015-12-13T15:53:15Z</time>
      </trkpt>
      <trkpt lat="50.76046" lon="3.708">
        <ele>60</ele>
        <time>2015-12-13T15:53:17Z</time>
      </trkpt>
      <trkpt lat="50.76043" lon="3.70801">
        <ele>60</ele>
        <time>2015-12-13T15:53:20Z</time>
      </trkpt>
      <trkpt lat="50.76041" lon="3.70802">
        <ele>61</ele>
        <time>2015-12-13T15:53:22Z</time>
      </trkpt>
      <trkpt lat="50.76038" lon="3.70801">
        <ele>61</ele>
        <time>2015-12-13T15:53:25Z</time>
      </trkpt>
      <trkpt lat="50.76036" lon="3.708">
        <ele>61</ele>
        <time>2015-12-13T15:53:28Z</time>
      </trkpt>
      <trkpt lat="50.76035" lon="3.70799">
        <ele>62.4</ele>
        <time>2015-12-13T15:53:31Z</time>
      </trkpt>
      <trkpt lat="50.76033" lon="3.70796">
        <ele>63</ele>
        <time>2015-12-13T15:53:34Z</time>
      </trkpt>
      <trkpt lat="50.76031" lon="3.70796">
        <ele>63</ele>
        <time>2015-12-13T15:53:37Z</time>
      </trkpt>
      <trkpt lat="50.76029" lon="3.70795">
        <ele>63</ele>
        <time>2015-12-13T15:53:40Z</time>
      </trkpt>
      <trkpt lat="50.76028" lon="3.70788">
        <ele>64</ele>
        <time>2015-12-13T15:53:51Z</time>
      </trkpt>
      <trkpt lat="50.76026" lon="3.70788">
        <ele>65</ele>
        <time>2015-12-13T15:53:54Z</time>
      </trkpt>
      <trkpt lat="50.76023" lon="3.7079">
        <ele>65</ele>
        <time>2015-12-13T15:53:57Z</time>
      </trkpt>
      <trkpt lat="50.76021" lon="3.70791">
        <ele>65</ele>
        <time>2015-12-13T15:53:59Z</time>
      </trkpt>
      <trkpt lat="50.76019" lon="3.70793">
        <ele>65</ele>
        <time>2015-12-13T15:54:01Z</time>
      </trkpt>
      <trkpt lat="50.76016" lon="3.70794">
        <ele>65</ele>
        <time>2015-12-13T15:54:03Z</time>
      </trkpt>
      <trkpt lat="50.76013" lon="3.70796">
        <ele>65</ele>
        <time>2015-12-13T15:54:05Z</time>
      </trkpt>
      <trkpt lat="50.76011" lon="3.70797">
        <ele>65</ele>
        <time>2015-12-13T15:54:07Z</time>
      </trkpt>
      <trkpt lat="50.76008" lon="3.70798">
        <ele>65</ele>
        <time>2015-12-13T15:54:09Z</time>
      </trkpt>
      <trkpt lat="50.76006" lon="3.70799">
        <ele>65</ele>
        <time>2015-12-13T15:54:11Z</time>
      </trkpt>
      <trkpt lat="50.76003" lon="3.708">
        <ele>65</ele>
        <time>2015-12-13T15:54:13Z</time>
      </trkpt>
      <trkpt lat="50.76" lon="3.70801">
        <ele>65</ele>
        <time>2015-12-13T15:54:15Z</time>
      </trkpt>
      <trkpt lat="50.75998" lon="3.70802">
        <ele>66</ele>
        <time>2015-12-13T15:54:17Z</time>
      </trkpt>
      <trkpt lat="50.75995" lon="3.70802">
        <ele>66</ele>
        <time>2015-12-13T15:54:19Z</time>
      </trkpt>
      <trkpt lat="50.75993" lon="3.70802">
        <ele>65.3</ele>
        <time>2015-12-13T15:54:21Z</time>
      </trkpt>
      <trkpt lat="50.7599" lon="3.70803">
        <ele>65</ele>
        <time>2015-12-13T15:54:23Z</time>
      </trkpt>
      <trkpt lat="50.75988" lon="3.70804">
        <ele>65</ele>
        <time>2015-12-13T15:54:25Z</time>
      </trkpt>
      <trkpt lat="50.75985" lon="3.70805">
        <ele>65</ele>
        <time>2015-12-13T15:54:27Z</time>
      </trkpt>
      <trkpt lat="50.75983" lon="3.70806">
        <ele>65</ele>
        <time>2015-12-13T15:54:29Z</time>
      </trkpt>
      <trkpt lat="50.7598" lon="3.70807">
        <ele>63.6</ele>
        <time>2015-12-13T15:54:31Z</time>
      </trkpt>
      <trkpt lat="50.75977" lon="3.70809">
        <ele>63</ele>
        <time>2015-12-13T15:54:33Z</time>
      </trkpt>
      <trkpt lat="50.75974" lon="3.7081">
        <ele>63</ele>
        <time>2015-12-13T15:54:36Z</time>
      </trkpt>
      <trkpt lat="50.75972" lon="3.70811">
        <ele>63</ele>
        <time>2015-12-13T15:54:38Z</time>
      </trkpt>
      <trkpt lat="50.75969" lon="3.70812">
        <ele>63</ele>
        <time>2015-12-13T15:54:40Z</time>
      </trkpt>
      <trkpt lat="50.75967" lon="3.70813">
        <ele>63</ele>
        <time>2015-12-13T15:54:41Z</time>
      </trkpt>
      <trkpt lat="50.75965" lon="3.70814">
        <ele>63</ele>
        <time>2015-12-13T15:54:42Z</time>
      </trkpt>
      <trkpt lat="50.75962" lon="3.70818">
        <ele>63</ele>
        <time>2015-12-13T15:54:44Z</time>
      </trkpt>
      <trkpt lat="50.75959" lon="3.70821">
        <ele>63</ele>
        <time>2015-12-13T15:54:46Z</time>
      </trkpt>
      <trkpt lat="50.75957" lon="3.70823">
        <ele>63</ele>
        <time>2015-12-13T15:54:47Z</time>
      </trkpt>
      <trkpt lat="50.75955" lon="3.70824">
        <ele>63</ele>
        <time>2015-12-13T15:54:48Z</time>
      </trkpt>
      <trkpt lat="50.75952" lon="3.70827">
        <ele>63</ele>
        <time>2015-12-13T15:54:50Z</time>
      </trkpt>
      <trkpt lat="50.7595" lon="3.7083">
        <ele>61</ele>
        <time>2015-12-13T15:54:52Z</time>
      </trkpt>
      <trkpt lat="50.75948" lon="3.70834">
        <ele>61</ele>
        <time>2015-12-13T15:54:54Z</time>
      </trkpt>
      <trkpt lat="50.75947" lon="3.70836">
        <ele>61</ele>
        <time>2015-12-13T15:54:56Z</time>
      </trkpt>
      <trkpt lat="50.75945" lon="3.70838">
        <ele>61</ele>
        <time>2015-12-13T15:54:58Z</time>
      </trkpt>
      <trkpt lat="50.75943" lon="3.7084">
        <ele>61</ele>
        <time>2015-12-13T15:55:00Z</time>
      </trkpt>
      <trkpt lat="50.75941" lon="3.7084">
        <ele>59</ele>
        <time>2015-12-13T15:55:02Z</time>
      </trkpt>
      <trkpt lat="50.75938" lon="3.7084">
        <ele>60</ele>
        <time>2015-12-13T15:55:04Z</time>
      </trkpt>
      <trkpt lat="50.75935" lon="3.7084">
        <ele>60</ele>
        <time>2015-12-13T15:55:06Z</time>
      </trkpt>
      <trkpt lat="50.75933" lon="3.7084">
        <ele>60</ele>
        <time>2015-12-13T15:55:07Z</time>
      </trkpt>
      <trkpt lat="50.75931" lon="3.7084">
        <ele>60</ele>
        <time>2015-12-13T15:55:09Z</time>
      </trkpt>
      <trkpt lat="50.75928" lon="3.70841">
        <ele>60</ele>
        <time>2015-12-13T15:55:11Z</time>
      </trkpt>
      <trkpt lat="50.75926" lon="3.7084">
        <ele>60</ele>
        <time>2015-12-13T15:55:13Z</time>
      </trkpt>
      <trkpt lat="50.75923" lon="3.7084">
        <ele>60</ele>
        <time>2015-12-13T15:55:15Z</time>
      </trkpt>
      <trkpt lat="50.7592" lon="3.70839">
        <ele>60</ele>
        <time>2015-12-13T15:55:17Z</time>
      </trkpt>
      <trkpt lat="50.75918" lon="3.70839">
        <ele>60</ele>
        <time>2015-12-13T15:55:19Z</time>
      </trkpt>
      <trkpt lat="50.75917" lon="3.70837">
        <ele>60.5</ele>
        <time>2015-12-13T15:55:22Z</time>
      </trkpt>
      <trkpt lat="50.75915" lon="3.70836">
        <ele>61</ele>
        <time>2015-12-13T15:55:27Z</time>
      </trkpt>
      <trkpt lat="50.75913" lon="3.70836">
        <ele>61</ele>
        <time>2015-12-13T15:55:29Z</time>
      </trkpt>
      <trkpt lat="50.7591" lon="3.70836">
        <ele>60</ele>
        <time>2015-12-13T15:55:32Z</time>
      </trkpt>
      <trkpt lat="50.75908" lon="3.70835">
        <ele>60</ele>
        <time>2015-12-13T15:55:34Z</time>
      </trkpt>
      <trkpt lat="50.75907" lon="3.70831">
        <ele>59</ele>
        <time>2015-12-13T15:55:43Z</time>
      </trkpt>
      <trkpt lat="50.75906" lon="3.70828">
        <ele>59</ele>
        <time>2015-12-13T15:55:46Z</time>
      </trkpt>
      <trkpt lat="50.75903" lon="3.70828">
        <ele>59</ele>
        <time>2015-12-13T15:55:50Z</time>
      </trkpt>
      <trkpt lat="50.75902" lon="3.70831">
        <ele>59</ele>
        <time>2015-12-13T15:55:53Z</time>
      </trkpt>
      <trkpt lat="50.75902" lon="3.70835">
        <ele>59</ele>
        <time>2015-12-13T15:55:57Z</time>
      </trkpt>
      <trkpt lat="50.75902" lon="3.70839">
        <ele>59</ele>
        <time>2015-12-13T15:56:00Z</time>
      </trkpt>
      <trkpt lat="50.75902" lon="3.70842">
        <ele>58</ele>
        <time>2015-12-13T15:56:02Z</time>
      </trkpt>
      <trkpt lat="50.75902" lon="3.70845">
        <ele>58</ele>
        <time>2015-12-13T15:56:04Z</time>
      </trkpt>
      <trkpt lat="50.75903" lon="3.70849">
        <ele>58</ele>
        <time>2015-12-13T15:56:06Z</time>
      </trkpt>
      <trkpt lat="50.75904" lon="3.70853">
        <ele>58</ele>
        <time>2015-12-13T15:56:08Z</time>
      </trkpt>
      <trkpt lat="50.75905" lon="3.70856">
        <ele>58</ele>
        <time>2015-12-13T15:56:10Z</time>
      </trkpt>
      <trkpt lat="50.75905" lon="3.7086">
        <ele>57</ele>
        <time>2015-12-13T15:56:12Z</time>
      </trkpt>
      <trkpt lat="50.75906" lon="3.70863">
        <ele>57</ele>
        <time>2015-12-13T15:56:14Z</time>
      </trkpt>
      <trkpt lat="50.75906" lon="3.70866">
        <ele>57</ele>
        <time>2015-12-13T15:56:16Z</time>
      </trkpt>
      <trkpt lat="50.75907" lon="3.70869">
        <ele>57</ele>
        <time>2015-12-13T15:56:18Z</time>
      </trkpt>
      <trkpt lat="50.75908" lon="3.70872">
        <ele>57</ele>
        <time>2015-12-13T15:56:20Z</time>
      </trkpt>
      <trkpt lat="50.75909" lon="3.70876">
        <ele>57</ele>
        <time>2015-12-13T15:56:22Z</time>
      </trkpt>
      <trkpt lat="50.7591" lon="3.7088">
        <ele>57</ele>
        <time>2015-12-13T15:56:24Z</time>
      </trkpt>
      <trkpt lat="50.7591" lon="3.70884">
        <ele>57</ele>
        <time>2015-12-13T15:56:26Z</time>
      </trkpt>
      <trkpt lat="50.7591" lon="3.70888">
        <ele>57</ele>
        <time>2015-12-13T15:56:28Z</time>
      </trkpt>
      <trkpt lat="50.7591" lon="3.70892">
        <ele>57</ele>
        <time>2015-12-13T15:56:30Z</time>
      </trkpt>
      <trkpt lat="50.7591" lon="3.70896">
        <ele>56</ele>
        <time>2015-12-13T15:56:32Z</time>
      </trkpt>
      <trkpt lat="50.7591" lon="3.709">
        <ele>56</ele>
        <time>2015-12-13T15:56:34Z</time>
      </trkpt>
      <trkpt lat="50.75909" lon="3.70904">
        <ele>56</ele>
        <time>2015-12-13T15:56:36Z</time>
      </trkpt>
      <trkpt lat="50.75909" lon="3.70907">
        <ele>56</ele>
        <time>2015-12-13T15:56:39Z</time>
      </trkpt>
      <trkpt lat="50.7591" lon="3.70911">
        <ele>56</ele>
        <time>2015-12-13T15:56:42Z</time>
      </trkpt>
      <trkpt lat="50.75909" lon="3.70914">
        <ele>56</ele>
        <time>2015-12-13T15:56:45Z</time>
      </trkpt>
      <trkpt lat="50.75908" lon="3.70919">
        <ele>56</ele>
        <time>2015-12-13T15:56:48Z</time>
      </trkpt>
      <trkpt lat="50.75907" lon="3.70922">
        <ele>56</ele>
        <time>2015-12-13T15:56:50Z</time>
      </trkpt>
      <trkpt lat="50.75906" lon="3.70925">
        <ele>56</ele>
        <time>2015-12-13T15:56:52Z</time>
      </trkpt>
      <trkpt lat="50.75905" lon="3.70929">
        <ele>56</ele>
        <time>2015-12-13T15:56:54Z</time>
      </trkpt>
      <trkpt lat="50.75905" lon="3.70934">
        <ele>56</ele>
        <time>2015-12-13T15:56:56Z</time>
      </trkpt>
      <trkpt lat="50.75905" lon="3.70939">
        <ele>56</ele>
        <time>2015-12-13T15:56:58Z</time>
      </trkpt>
      <trkpt lat="50.75905" lon="3.70942">
        <ele>56</ele>
        <time>2015-12-13T15:57:00Z</time>
      </trkpt>
      <trkpt lat="50.75905" lon="3.70946">
        <ele>56</ele>
        <time>2015-12-13T15:57:02Z</time>
      </trkpt>
      <trkpt lat="50.75904" lon="3.7095">
        <ele>56</ele>
        <time>2015-12-13T15:57:04Z</time>
      </trkpt>
      <trkpt lat="50.75904" lon="3.70954">
        <ele>56</ele>
        <time>2015-12-13T15:57:07Z</time>
      </trkpt>
      <trkpt lat="50.75903" lon="3.70959">
        <ele>56</ele>
        <time>2015-12-13T15:57:09Z</time>
      </trkpt>
      <trkpt lat="50.75902" lon="3.70962">
        <ele>56</ele>
        <time>2015-12-13T15:57:11Z</time>
      </trkpt>
      <trkpt lat="50.75902" lon="3.70966">
        <ele>56</ele>
        <time>2015-12-13T15:57:13Z</time>
      </trkpt>
      <trkpt lat="50.75902" lon="3.7097">
        <ele>56</ele>
        <time>2015-12-13T15:57:15Z</time>
      </trkpt>
      <trkpt lat="50.75902" lon="3.70974">
        <ele>56</ele>
        <time>2015-12-13T15:57:17Z</time>
      </trkpt>
      <trkpt lat="50.75902" lon="3.70978">
        <ele>56</ele>
        <time>2015-12-13T15:57:19Z</time>
      </trkpt>
      <trkpt lat="50.75902" lon="3.70982">
        <ele>56</ele>
        <time>2015-12-13T15:57:21Z</time>
      </trkpt>
      <trkpt lat="50.75902" lon="3.70987">
        <ele>56</ele>
        <time>2015-12-13T15:57:23Z</time>
      </trkpt>
      <trkpt lat="50.75902" lon="3.70989">
        <ele>56</ele>
        <time>2015-12-13T15:57:25Z</time>
      </trkpt>
      <trkpt lat="50.75901" lon="3.70993">
        <ele>56</ele>
        <time>2015-12-13T15:57:27Z</time>
      </trkpt>
      <trkpt lat="50.75901" lon="3.70996">
        <ele>56</ele>
        <time>2015-12-13T15:57:29Z</time>
      </trkpt>
      <trkpt lat="50.75901" lon="3.71">
        <ele>58</ele>
        <time>2015-12-13T15:57:32Z</time>
      </trkpt>
      <trkpt lat="50.759" lon="3.71003">
        <ele>58</ele>
        <time>2015-12-13T15:57:35Z</time>
      </trkpt>
      <trkpt lat="50.75898" lon="3.71003">
        <ele>58</ele>
        <time>2015-12-13T15:57:38Z</time>
      </trkpt>
      <trkpt lat="50.75896" lon="3.71004">
        <ele>59</ele>
        <time>2015-12-13T15:57:47Z</time>
      </trkpt>
      <trkpt lat="50.75894" lon="3.71006">
        <ele>59</ele>
        <time>2015-12-13T15:57:49Z</time>
      </trkpt>
      <trkpt lat="50.75892" lon="3.71008">
        <ele>58.3</ele>
        <time>2015-12-13T15:57:51Z</time>
      </trkpt>
      <trkpt lat="50.75889" lon="3.71011">
        <ele>58</ele>
        <time>2015-12-13T15:57:53Z</time>
      </trkpt>
      <trkpt lat="50.75887" lon="3.71013">
        <ele>58</ele>
        <time>2015-12-13T15:57:55Z</time>
      </trkpt>
      <trkpt lat="50.75885" lon="3.71015">
        <ele>58</ele>
        <time>2015-12-13T15:57:57Z</time>
      </trkpt>
      <trkpt lat="50.75883" lon="3.71017">
        <ele>58</ele>
        <time>2015-12-13T15:57:59Z</time>
      </trkpt>
      <trkpt lat="50.75881" lon="3.71018">
        <ele>56.9</ele>
        <time>2015-12-13T15:58:01Z</time>
      </trkpt>
      <trkpt lat="50.75879" lon="3.7102">
        <ele>56</ele>
        <time>2015-12-13T15:58:03Z</time>
      </trkpt>
      <trkpt lat="50.75877" lon="3.7102">
        <ele>56</ele>
        <time>2015-12-13T15:58:06Z</time>
      </trkpt>
      <trkpt lat="50.75874" lon="3.71023">
        <ele>56</ele>
        <time>2015-12-13T15:58:08Z</time>
      </trkpt>
      <trkpt lat="50.75871" lon="3.71026">
        <ele>56</ele>
        <time>2015-12-13T15:58:10Z</time>
      </trkpt>
      <trkpt lat="50.75869" lon="3.71028">
        <ele>56</ele>
        <time>2015-12-13T15:58:12Z</time>
      </trkpt>
      <trkpt lat="50.75867" lon="3.7103">
        <ele>56</ele>
        <time>2015-12-13T15:58:14Z</time>
      </trkpt>
      <trkpt lat="50.75864" lon="3.71031">
        <ele>56</ele>
        <time>2015-12-13T15:58:16Z</time>
      </trkpt>
      <trkpt lat="50.75862" lon="3.71033">
        <ele>56</ele>
        <time>2015-12-13T15:58:18Z</time>
      </trkpt>
      <trkpt lat="50.75859" lon="3.71035">
        <ele>56</ele>
        <time>2015-12-13T15:58:20Z</time>
      </trkpt>
      <trkpt lat="50.75857" lon="3.71036">
        <ele>56</ele>
        <time>2015-12-13T15:58:22Z</time>
      </trkpt>
      <trkpt lat="50.75854" lon="3.71038">
        <ele>56</ele>
        <time>2015-12-13T15:58:24Z</time>
      </trkpt>
      <trkpt lat="50.75852" lon="3.71039">
        <ele>56</ele>
        <time>2015-12-13T15:58:26Z</time>
      </trkpt>
      <trkpt lat="50.75849" lon="3.7104">
        <ele>56</ele>
        <time>2015-12-13T15:58:28Z</time>
      </trkpt>
      <trkpt lat="50.75846" lon="3.71042">
        <ele>56</ele>
        <time>2015-12-13T15:58:30Z</time>
      </trkpt>
      <trkpt lat="50.75844" lon="3.71043">
        <ele>55</ele>
        <time>2015-12-13T15:58:32Z</time>
      </trkpt>
      <trkpt lat="50.75842" lon="3.71045">
        <ele>55</ele>
        <time>2015-12-13T15:58:34Z</time>
      </trkpt>
      <trkpt lat="50.75839" lon="3.71046">
        <ele>55</ele>
        <time>2015-12-13T15:58:36Z</time>
      </trkpt>
      <trkpt lat="50.75836" lon="3.71048">
        <ele>55</ele>
        <time>2015-12-13T15:58:38Z</time>
      </trkpt>
      <trkpt lat="50.75833" lon="3.7105">
        <ele>55</ele>
        <time>2015-12-13T15:58:40Z</time>
      </trkpt>
      <trkpt lat="50.7583" lon="3.71052">
        <ele>54</ele>
        <time>2015-12-13T15:58:42Z</time>
      </trkpt>
      <trkpt lat="50.75828" lon="3.71054">
        <ele>54</ele>
        <time>2015-12-13T15:58:44Z</time>
      </trkpt>
      <trkpt lat="50.75825" lon="3.71056">
        <ele>54</ele>
        <time>2015-12-13T15:58:46Z</time>
      </trkpt>
      <trkpt lat="50.75823" lon="3.71058">
        <ele>54</ele>
        <time>2015-12-13T15:58:48Z</time>
      </trkpt>
      <trkpt lat="50.7582" lon="3.71059">
        <ele>54</ele>
        <time>2015-12-13T15:58:50Z</time>
      </trkpt>
      <trkpt lat="50.75818" lon="3.71061">
        <ele>53</ele>
        <time>2015-12-13T15:58:52Z</time>
      </trkpt>
      <trkpt lat="50.75815" lon="3.71063">
        <ele>53</ele>
        <time>2015-12-13T15:58:54Z</time>
      </trkpt>
      <trkpt lat="50.75813" lon="3.71065">
        <ele>53</ele>
        <time>2015-12-13T15:58:56Z</time>
      </trkpt>
      <trkpt lat="50.75811" lon="3.71067">
        <ele>53</ele>
        <time>2015-12-13T15:58:58Z</time>
      </trkpt>
      <trkpt lat="50.7581" lon="3.71069">
        <ele>53</ele>
        <time>2015-12-13T15:59:00Z</time>
      </trkpt>
      <trkpt lat="50.75807" lon="3.71073">
        <ele>52</ele>
        <time>2015-12-13T15:59:02Z</time>
      </trkpt>
      <trkpt lat="50.75805" lon="3.71074">
        <ele>52</ele>
        <time>2015-12-13T15:59:03Z</time>
      </trkpt>
      <trkpt lat="50.75803" lon="3.71077">
        <ele>52</ele>
        <time>2015-12-13T15:59:05Z</time>
      </trkpt>
      <trkpt lat="50.75801" lon="3.71081">
        <ele>52</ele>
        <time>2015-12-13T15:59:07Z</time>
      </trkpt>
      <trkpt lat="50.758" lon="3.71084">
        <ele>52</ele>
        <time>2015-12-13T15:59:09Z</time>
      </trkpt>
      <trkpt lat="50.75799" lon="3.71087">
        <ele>52</ele>
        <time>2015-12-13T15:59:11Z</time>
      </trkpt>
      <trkpt lat="50.75797" lon="3.71091">
        <ele>52</ele>
        <time>2015-12-13T15:59:13Z</time>
      </trkpt>
      <trkpt lat="50.75796" lon="3.71094">
        <ele>52</ele>
        <time>2015-12-13T15:59:15Z</time>
      </trkpt>
      <trkpt lat="50.75795" lon="3.71097">
        <ele>52</ele>
        <time>2015-12-13T15:59:17Z</time>
      </trkpt>
      <trkpt lat="50.75794" lon="3.71101">
        <ele>52</ele>
        <time>2015-12-13T15:59:19Z</time>
      </trkpt>
      <trkpt lat="50.75793" lon="3.71104">
        <ele>52</ele>
        <time>2015-12-13T15:59:21Z</time>
      </trkpt>
      <trkpt lat="50.75791" lon="3.71107">
        <ele>52</ele>
        <time>2015-12-13T15:59:23Z</time>
      </trkpt>
      <trkpt lat="50.75787" lon="3.71112">
        <ele>51</ele>
        <time>2015-12-13T15:59:48Z</time>
      </trkpt>
      <trkpt lat="50.75786" lon="3.71114">
        <ele>52</ele>
        <time>2015-12-13T16:00:03Z</time>
      </trkpt>
      <trkpt lat="50.75785" lon="3.71118">
        <ele>52</ele>
        <time>2015-12-13T16:00:06Z</time>
      </trkpt>
      <trkpt lat="50.75784" lon="3.71121">
        <ele>52</ele>
        <time>2015-12-13T16:00:08Z</time>
      </trkpt>
      <trkpt lat="50.75783" lon="3.71124">
        <ele>52</ele>
        <time>2015-12-13T16:00:10Z</time>
      </trkpt>
      <trkpt lat="50.75782" lon="3.71128">
        <ele>52</ele>
        <time>2015-12-13T16:00:12Z</time>
      </trkpt>
      <trkpt lat="50.7578" lon="3.71131">
        <ele>52</ele>
        <time>2015-12-13T16:00:14Z</time>
      </trkpt>
      <trkpt lat="50.75779" lon="3.71135">
        <ele>52</ele>
        <time>2015-12-13T16:00:16Z</time>
      </trkpt>
      <trkpt lat="50.75778" lon="3.71137">
        <ele>52</ele>
        <time>2015-12-13T16:00:18Z</time>
      </trkpt>
      <trkpt lat="50.75776" lon="3.7114">
        <ele>52</ele>
        <time>2015-12-13T16:00:20Z</time>
      </trkpt>
      <trkpt lat="50.75775" lon="3.71143">
        <ele>51.3</ele>
        <time>2015-12-13T16:00:22Z</time>
      </trkpt>
      <trkpt lat="50.75774" lon="3.71146">
        <ele>51</ele>
        <time>2015-12-13T16:00:24Z</time>
      </trkpt>
      <trkpt lat="50.75773" lon="3.71149">
        <ele>51</ele>
        <time>2015-12-13T16:00:26Z</time>
      </trkpt>
      <trkpt lat="50.75772" lon="3.71152">
        <ele>51</ele>
        <time>2015-12-13T16:00:28Z</time>
      </trkpt>
      <trkpt lat="50.7577" lon="3.71155">
        <ele>51</ele>
        <time>2015-12-13T16:00:30Z</time>
      </trkpt>
      <trkpt lat="50.75769" lon="3.71159">
        <ele>50.3</ele>
        <time>2015-12-13T16:00:32Z</time>
      </trkpt>
      <trkpt lat="50.75767" lon="3.71162">
        <ele>50</ele>
        <time>2015-12-13T16:00:34Z</time>
      </trkpt>
      <trkpt lat="50.75766" lon="3.71166">
        <ele>50</ele>
        <time>2015-12-13T16:00:36Z</time>
      </trkpt>
      <trkpt lat="50.75765" lon="3.71169">
        <ele>50</ele>
        <time>2015-12-13T16:00:38Z</time>
      </trkpt>
      <trkpt lat="50.75764" lon="3.71172">
        <ele>50</ele>
        <time>2015-12-13T16:00:40Z</time>
      </trkpt>
      <trkpt lat="50.75762" lon="3.71176">
        <ele>50</ele>
        <time>2015-12-13T16:00:42Z</time>
      </trkpt>
      <trkpt lat="50.7576" lon="3.71179">
        <ele>50</ele>
        <time>2015-12-13T16:00:44Z</time>
      </trkpt>
      <trkpt lat="50.75759" lon="3.71181">
        <ele>50</ele>
        <time>2015-12-13T16:00:46Z</time>
      </trkpt>
      <trkpt lat="50.75758" lon="3.71184">
        <ele>50</ele>
        <time>2015-12-13T16:00:48Z</time>
      </trkpt>
      <trkpt lat="50.75756" lon="3.71188">
        <ele>50</ele>
        <time>2015-12-13T16:00:50Z</time>
      </trkpt>
      <trkpt lat="50.75755" lon="3.71191">
        <ele>50</ele>
        <time>2015-12-13T16:00:52Z</time>
      </trkpt>
      <trkpt lat="50.75753" lon="3.71194">
        <ele>50</ele>
        <time>2015-12-13T16:00:54Z</time>
      </trkpt>
      <trkpt lat="50.75752" lon="3.71197">
        <ele>50</ele>
        <time>2015-12-13T16:00:56Z</time>
      </trkpt>
      <trkpt lat="50.75751" lon="3.712">
        <ele>50</ele>
        <time>2015-12-13T16:00:58Z</time>
      </trkpt>
      <trkpt lat="50.7575" lon="3.71203">
        <ele>50</ele>
        <time>2015-12-13T16:01:00Z</time>
      </trkpt>
      <trkpt lat="50.75748" lon="3.71206">
        <ele>50</ele>
        <time>2015-12-13T16:01:02Z</time>
      </trkpt>
      <trkpt lat="50.75747" lon="3.71208">
        <ele>50</ele>
        <time>2015-12-13T16:01:04Z</time>
      </trkpt>
      <trkpt lat="50.75746" lon="3.71211">
        <ele>50</ele>
        <time>2015-12-13T16:01:06Z</time>
      </trkpt>
      <trkpt lat="50.75744" lon="3.71214">
        <ele>50</ele>
        <time>2015-12-13T16:01:08Z</time>
      </trkpt>
      <trkpt lat="50.75743" lon="3.71218">
        <ele>50</ele>
        <time>2015-12-13T16:01:10Z</time>
      </trkpt>
      <trkpt lat="50.75742" lon="3.71221">
        <ele>50</ele>
        <time>2015-12-13T16:01:12Z</time>
      </trkpt>
      <trkpt lat="50.75741" lon="3.71225">
        <ele>50</ele>
        <time>2015-12-13T16:01:14Z</time>
      </trkpt>
      <trkpt lat="50.75739" lon="3.71228">
        <ele>50</ele>
        <time>2015-12-13T16:01:16Z</time>
      </trkpt>
      <trkpt lat="50.75737" lon="3.71232">
        <ele>50</ele>
        <time>2015-12-13T16:01:18Z</time>
      </trkpt>
      <trkpt lat="50.75736" lon="3.71235">
        <ele>50</ele>
        <time>2015-12-13T16:01:20Z</time>
      </trkpt>
      <trkpt lat="50.75735" lon="3.71238">
        <ele>50</ele>
        <time>2015-12-13T16:01:22Z</time>
      </trkpt>
      <trkpt lat="50.75734" lon="3.71242">
        <ele>50</ele>
        <time>2015-12-13T16:01:24Z</time>
      </trkpt>
      <trkpt lat="50.75732" lon="3.71245">
        <ele>50</ele>
        <time>2015-12-13T16:01:26Z</time>
      </trkpt>
      <trkpt lat="50.7573" lon="3.71249">
        <ele>50</ele>
        <time>2015-12-13T16:01:28Z</time>
      </trkpt>
      <trkpt lat="50.75729" lon="3.71253">
        <ele>50</ele>
        <time>2015-12-13T16:01:30Z</time>
      </trkpt>
      <trkpt lat="50.75728" lon="3.71257">
        <ele>49</ele>
        <time>2015-12-13T16:01:32Z</time>
      </trkpt>
      <trkpt lat="50.75727" lon="3.7126">
        <ele>49</ele>
        <time>2015-12-13T16:01:34Z</time>
      </trkpt>
      <trkpt lat="50.75725" lon="3.71263">
        <ele>49</ele>
        <time>2015-12-13T16:01:36Z</time>
      </trkpt>
      <trkpt lat="50.75723" lon="3.71267">
        <ele>49</ele>
        <time>2015-12-13T16:01:38Z</time>
      </trkpt>
      <trkpt lat="50.75722" lon="3.7127">
        <ele>49</ele>
        <time>2015-12-13T16:01:40Z</time>
      </trkpt>
      <trkpt lat="50.75721" lon="3.71274">
        <ele>49</ele>
        <time>2015-12-13T16:01:42Z</time>
      </trkpt>
      <trkpt lat="50.7572" lon="3.71276">
        <ele>49</ele>
        <time>2015-12-13T16:01:44Z</time>
      </trkpt>
      <trkpt lat="50.75719" lon="3.7128">
        <ele>49</ele>
        <time>2015-12-13T16:01:46Z</time>
      </trkpt>
      <trkpt lat="50.75717" lon="3.71284">
        <ele>49</ele>
        <time>2015-12-13T16:01:48Z</time>
      </trkpt>
      <trkpt lat="50.75715" lon="3.71286">
        <ele>49</ele>
        <time>2015-12-13T16:01:49Z</time>
      </trkpt>
      <trkpt lat="50.75714" lon="3.71291">
        <ele>48.5</ele>
        <time>2015-12-13T16:01:51Z</time>
      </trkpt>
      <trkpt lat="50.75713" lon="3.71294">
        <ele>48</ele>
        <time>2015-12-13T16:01:52Z</time>
      </trkpt>
      <trkpt lat="50.75712" lon="3.71296">
        <ele>48</ele>
        <time>2015-12-13T16:01:53Z</time>
      </trkpt>
      <trkpt lat="50.7571" lon="3.71301">
        <ele>48</ele>
        <time>2015-12-13T16:01:55Z</time>
      </trkpt>
      <trkpt lat="50.75709" lon="3.71304">
        <ele>48</ele>
        <time>2015-12-13T16:01:56Z</time>
      </trkpt>
      <trkpt lat="50.75708" lon="3.71307">
        <ele>48</ele>
        <time>2015-12-13T16:01:57Z</time>
      </trkpt>
      <trkpt lat="50.75707" lon="3.7131">
        <ele>48</ele>
        <time>2015-12-13T16:01:58Z</time>
      </trkpt>
      <trkpt lat="50.75706" lon="3.71313">
        <ele>48</ele>
        <time>2015-12-13T16:01:59Z</time>
      </trkpt>
      <trkpt lat="50.75705" lon="3.71315">
        <ele>48</ele>
        <time>2015-12-13T16:02:00Z</time>
      </trkpt>
      <trkpt lat="50.75704" lon="3.71318">
        <ele>48</ele>
        <time>2015-12-13T16:02:01Z</time>
      </trkpt>
      <trkpt lat="50.75703" lon="3.71321">
        <ele>48</ele>
        <time>2015-12-13T16:02:02Z</time>
      </trkpt>
      <trkpt lat="50.75702" lon="3.71324">
        <ele>48</ele>
        <time>2015-12-13T16:02:03Z</time>
      </trkpt>
      <trkpt lat="50.75701" lon="3.71327">
        <ele>48</ele>
        <time>2015-12-13T16:02:04Z</time>
      </trkpt>
      <trkpt lat="50.75699" lon="3.71331">
        <ele>48</ele>
        <time>2015-12-13T16:02:05Z</time>
      </trkpt>
      <trkpt lat="50.75698" lon="3.71334">
        <ele>48</ele>
        <time>2015-12-13T16:02:06Z</time>
      </trkpt>
      <trkpt lat="50.75697" lon="3.71337">
        <ele>48</ele>
        <time>2015-12-13T16:02:07Z</time>
      </trkpt>
      <trkpt lat="50.75696" lon="3.7134">
        <ele>48</ele>
        <time>2015-12-13T16:02:08Z</time>
      </trkpt>
      <trkpt lat="50.75694" lon="3.71344">
        <ele>48</ele>
        <time>2015-12-13T16:02:09Z</time>
      </trkpt>
      <trkpt lat="50.75693" lon="3.71347">
        <ele>48</ele>
        <time>2015-12-13T16:02:10Z</time>
      </trkpt>
      <trkpt lat="50.75692" lon="3.7135">
        <ele>48</ele>
        <time>2015-12-13T16:02:11Z</time>
      </trkpt>
      <trkpt lat="50.7569" lon="3.71353">
        <ele>48</ele>
        <time>2015-12-13T16:02:12Z</time>
      </trkpt>
      <trkpt lat="50.75689" lon="3.71357">
        <ele>48</ele>
        <time>2015-12-13T16:02:13Z</time>
      </trkpt>
      <trkpt lat="50.75688" lon="3.7136">
        <ele>48</ele>
        <time>2015-12-13T16:02:14Z</time>
      </trkpt>
      <trkpt lat="50.75686" lon="3.71363">
        <ele>48</ele>
        <time>2015-12-13T16:02:15Z</time>
      </trkpt>
      <trkpt lat="50.75684" lon="3.71366">
        <ele>48</ele>
        <time>2015-12-13T16:02:16Z</time>
      </trkpt>
      <trkpt lat="50.75683" lon="3.71369">
        <ele>48</ele>
        <time>2015-12-13T16:02:17Z</time>
      </trkpt>
      <trkpt lat="50.75682" lon="3.71372">
        <ele>48</ele>
        <time>2015-12-13T16:02:18Z</time>
      </trkpt>
      <trkpt lat="50.7568" lon="3.71375">
        <ele>48</ele>
        <time>2015-12-13T16:02:19Z</time>
      </trkpt>
      <trkpt lat="50.75679" lon="3.71378">
        <ele>48</ele>
        <time>2015-12-13T16:02:20Z</time>
      </trkpt>
      <trkpt lat="50.75677" lon="3.71381">
        <ele>48</ele>
        <time>2015-12-13T16:02:21Z</time>
      </trkpt>
      <trkpt lat="50.75675" lon="3.71384">
        <ele>48</ele>
        <time>2015-12-13T16:02:22Z</time>
      </trkpt>
      <trkpt lat="50.75674" lon="3.71388">
        <ele>48</ele>
        <time>2015-12-13T16:02:23Z</time>
      </trkpt>
      <trkpt lat="50.75673" lon="3.71391">
        <ele>48</ele>
        <time>2015-12-13T16:02:24Z</time>
      </trkpt>
      <trkpt lat="50.75672" lon="3.71394">
        <ele>48</ele>
        <time>2015-12-13T16:02:25Z</time>
      </trkpt>
      <trkpt lat="50.75671" lon="3.71397">
        <ele>48</ele>
        <time>2015-12-13T16:02:26Z</time>
      </trkpt>
      <trkpt lat="50.75669" lon="3.714">
        <ele>48</ele>
        <time>2015-12-13T16:02:27Z</time>
      </trkpt>
      <trkpt lat="50.75667" lon="3.71403">
        <ele>48</ele>
        <time>2015-12-13T16:02:28Z</time>
      </trkpt>
      <trkpt lat="50.75666" lon="3.71406">
        <ele>48</ele>
        <time>2015-12-13T16:02:29Z</time>
      </trkpt>
      <trkpt lat="50.75664" lon="3.7141">
        <ele>48</ele>
        <time>2015-12-13T16:02:30Z</time>
      </trkpt>
      <trkpt lat="50.75663" lon="3.71413">
        <ele>48</ele>
        <time>2015-12-13T16:02:31Z</time>
      </trkpt>
      <trkpt lat="50.75662" lon="3.71416">
        <ele>48</ele>
        <time>2015-12-13T16:02:32Z</time>
      </trkpt>
      <trkpt lat="50.75661" lon="3.71419">
        <ele>48</ele>
        <time>2015-12-13T16:02:33Z</time>
      </trkpt>
      <trkpt lat="50.7566" lon="3.71422">
        <ele>48</ele>
        <time>2015-12-13T16:02:34Z</time>
      </trkpt>
      <trkpt lat="50.75658" lon="3.71425">
        <ele>48</ele>
        <time>2015-12-13T16:02:35Z</time>
      </trkpt>
      <trkpt lat="50.75657" lon="3.71428">
        <ele>48</ele>
        <time>2015-12-13T16:02:36Z</time>
      </trkpt>
      <trkpt lat="50.75655" lon="3.71431">
        <ele>48</ele>
        <time>2015-12-13T16:02:37Z</time>
      </trkpt>
      <trkpt lat="50.75654" lon="3.71434">
        <ele>48</ele>
        <time>2015-12-13T16:02:38Z</time>
      </trkpt>
      <trkpt lat="50.75652" lon="3.71437">
        <ele>48</ele>
        <time>2015-12-13T16:02:39Z</time>
      </trkpt>
      <trkpt lat="50.75651" lon="3.7144">
        <ele>48</ele>
        <time>2015-12-13T16:02:40Z</time>
      </trkpt>
      <trkpt lat="50.75649" lon="3.71443">
        <ele>48</ele>
        <time>2015-12-13T16:02:41Z</time>
      </trkpt>
      <trkpt lat="50.75648" lon="3.71447">
        <ele>48</ele>
        <time>2015-12-13T16:02:42Z</time>
      </trkpt>
      <trkpt lat="50.75647" lon="3.7145">
        <ele>48</ele>
        <time>2015-12-13T16:02:43Z</time>
      </trkpt>
      <trkpt lat="50.75645" lon="3.71453">
        <ele>48</ele>
        <time>2015-12-13T16:02:44Z</time>
      </trkpt>
      <trkpt lat="50.75644" lon="3.71456">
        <ele>48</ele>
        <time>2015-12-13T16:02:45Z</time>
      </trkpt>
      <trkpt lat="50.75643" lon="3.71459">
        <ele>48</ele>
        <time>2015-12-13T16:02:46Z</time>
      </trkpt>
      <trkpt lat="50.75642" lon="3.71462">
        <ele>48</ele>
        <time>2015-12-13T16:02:47Z</time>
      </trkpt>
      <trkpt lat="50.7564" lon="3.71465">
        <ele>48</ele>
        <time>2015-12-13T16:02:48Z</time>
      </trkpt>
      <trkpt lat="50.75639" lon="3.71468">
        <ele>48</ele>
        <time>2015-12-13T16:02:49Z</time>
      </trkpt>
      <trkpt lat="50.75637" lon="3.71471">
        <ele>48</ele>
        <time>2015-12-13T16:02:50Z</time>
      </trkpt>
      <trkpt lat="50.75635" lon="3.71475">
        <ele>48</ele>
        <time>2015-12-13T16:02:51Z</time>
      </trkpt>
      <trkpt lat="50.75633" lon="3.71478">
        <ele>48</ele>
        <time>2015-12-13T16:02:52Z</time>
      </trkpt>
      <trkpt lat="50.75631" lon="3.7148">
        <ele>48</ele>
        <time>2015-12-13T16:02:53Z</time>
      </trkpt>
      <trkpt lat="50.7563" lon="3.71483">
        <ele>48</ele>
        <time>2015-12-13T16:02:54Z</time>
      </trkpt>
      <trkpt lat="50.75628" lon="3.71486">
        <ele>48</ele>
        <time>2015-12-13T16:02:55Z</time>
      </trkpt>
      <trkpt lat="50.75626" lon="3.71488">
        <ele>48</ele>
        <time>2015-12-13T16:02:56Z</time>
      </trkpt>
      <trkpt lat="50.75624" lon="3.71491">
        <ele>48</ele>
        <time>2015-12-13T16:02:57Z</time>
      </trkpt>
      <trkpt lat="50.75622" lon="3.71494">
        <ele>48</ele>
        <time>2015-12-13T16:02:58Z</time>
      </trkpt>
      <trkpt lat="50.7562" lon="3.71496">
        <ele>48</ele>
        <time>2015-12-13T16:02:59Z</time>
      </trkpt>
      <trkpt lat="50.75619" lon="3.71499">
        <ele>48</ele>
        <time>2015-12-13T16:03:00Z</time>
      </trkpt>
      <trkpt lat="50.75617" lon="3.71501">
        <ele>48</ele>
        <time>2015-12-13T16:03:01Z</time>
      </trkpt>
      <trkpt lat="50.75615" lon="3.71504">
        <ele>48</ele>
        <time>2015-12-13T16:03:02Z</time>
      </trkpt>
      <trkpt lat="50.75613" lon="3.71506">
        <ele>48</ele>
        <time>2015-12-13T16:03:03Z</time>
      </trkpt>
      <trkpt lat="50.75611" lon="3.71508">
        <ele>48</ele>
        <time>2015-12-13T16:03:04Z</time>
      </trkpt>
      <trkpt lat="50.75609" lon="3.7151">
        <ele>48</ele>
        <time>2015-12-13T16:03:05Z</time>
      </trkpt>
      <trkpt lat="50.75608" lon="3.71513">
        <ele>48</ele>
        <time>2015-12-13T16:03:06Z</time>
      </trkpt>
      <trkpt lat="50.75606" lon="3.71515">
        <ele>48</ele>
        <time>2015-12-13T16:03:07Z</time>
      </trkpt>
      <trkpt lat="50.75605" lon="3.71517">
        <ele>48</ele>
        <time>2015-12-13T16:03:08Z</time>
      </trkpt>
      <trkpt lat="50.75603" lon="3.7152">
        <ele>48</ele>
        <time>2015-12-13T16:03:09Z</time>
      </trkpt>
      <trkpt lat="50.75601" lon="3.71522">
        <ele>48</ele>
        <time>2015-12-13T16:03:10Z</time>
      </trkpt>
      <trkpt lat="50.75599" lon="3.71525">
        <ele>48</ele>
        <time>2015-12-13T16:03:11Z</time>
      </trkpt>
      <trkpt lat="50.75597" lon="3.71527">
        <ele>48</ele>
        <time>2015-12-13T16:03:12Z</time>
      </trkpt>
      <trkpt lat="50.75595" lon="3.71529">
        <ele>48</ele>
        <time>2015-12-13T16:03:13Z</time>
      </trkpt>
      <trkpt lat="50.75593" lon="3.71532">
        <ele>48</ele>
        <time>2015-12-13T16:03:14Z</time>
      </trkpt>
      <trkpt lat="50.75592" lon="3.71534">
        <ele>48</ele>
        <time>2015-12-13T16:03:15Z</time>
      </trkpt>
      <trkpt lat="50.75589" lon="3.71537">
        <ele>48</ele>
        <time>2015-12-13T16:03:16Z</time>
      </trkpt>
      <trkpt lat="50.75587" lon="3.71539">
        <ele>48</ele>
        <time>2015-12-13T16:03:17Z</time>
      </trkpt>
      <trkpt lat="50.75585" lon="3.71541">
        <ele>48</ele>
        <time>2015-12-13T16:03:18Z</time>
      </trkpt>
      <trkpt lat="50.75583" lon="3.71544">
        <ele>48</ele>
        <time>2015-12-13T16:03:19Z</time>
      </trkpt>
      <trkpt lat="50.75582" lon="3.71546">
        <ele>48</ele>
        <time>2015-12-13T16:03:20Z</time>
      </trkpt>
      <trkpt lat="50.7558" lon="3.71549">
        <ele>48.7</ele>
        <time>2015-12-13T16:03:21Z</time>
      </trkpt>
      <trkpt lat="50.75578" lon="3.71551">
        <ele>49</ele>
        <time>2015-12-13T16:03:22Z</time>
      </trkpt>
      <trkpt lat="50.75576" lon="3.71553">
        <ele>49</ele>
        <time>2015-12-13T16:03:23Z</time>
      </trkpt>
      <trkpt lat="50.75574" lon="3.71555">
        <ele>49</ele>
        <time>2015-12-13T16:03:24Z</time>
      </trkpt>
      <trkpt lat="50.75572" lon="3.71558">
        <ele>49</ele>
        <time>2015-12-13T16:03:25Z</time>
      </trkpt>
      <trkpt lat="50.75571" lon="3.7156">
        <ele>49</ele>
        <time>2015-12-13T16:03:26Z</time>
      </trkpt>
      <trkpt lat="50.75569" lon="3.71562">
        <ele>49</ele>
        <time>2015-12-13T16:03:27Z</time>
      </trkpt>
      <trkpt lat="50.75568" lon="3.71565">
        <ele>49</ele>
        <time>2015-12-13T16:03:28Z</time>
      </trkpt>
      <trkpt lat="50.75566" lon="3.71567">
        <ele>49</ele>
        <time>2015-12-13T16:03:29Z</time>
      </trkpt>
      <trkpt lat="50.75564" lon="3.71569">
        <ele>49</ele>
        <time>2015-12-13T16:03:30Z</time>
      </trkpt>
      <trkpt lat="50.75562" lon="3.71572">
        <ele>49</ele>
        <time>2015-12-13T16:03:31Z</time>
      </trkpt>
      <trkpt lat="50.75561" lon="3.71574">
        <ele>49</ele>
        <time>2015-12-13T16:03:32Z</time>
      </trkpt>
      <trkpt lat="50.75559" lon="3.71577">
        <ele>49</ele>
        <time>2015-12-13T16:03:33Z</time>
      </trkpt>
      <trkpt lat="50.75557" lon="3.71579">
        <ele>49</ele>
        <time>2015-12-13T16:03:34Z</time>
      </trkpt>
      <trkpt lat="50.75555" lon="3.71581">
        <ele>49</ele>
        <time>2015-12-13T16:03:35Z</time>
      </trkpt>
      <trkpt lat="50.75554" lon="3.71584">
        <ele>49</ele>
        <time>2015-12-13T16:03:36Z</time>
      </trkpt>
      <trkpt lat="50.75552" lon="3.71586">
        <ele>49</ele>
        <time>2015-12-13T16:03:37Z</time>
      </trkpt>
      <trkpt lat="50.7555" lon="3.71588">
        <ele>49</ele>
        <time>2015-12-13T16:03:38Z</time>
      </trkpt>
      <trkpt lat="50.75549" lon="3.71591">
        <ele>49</ele>
        <time>2015-12-13T16:03:39Z</time>
      </trkpt>
      <trkpt lat="50.75547" lon="3.71593">
        <ele>49</ele>
        <time>2015-12-13T16:03:40Z</time>
      </trkpt>
      <trkpt lat="50.75545" lon="3.71595">
        <ele>49</ele>
        <time>2015-12-13T16:03:41Z</time>
      </trkpt>
      <trkpt lat="50.75544" lon="3.71598">
        <ele>49</ele>
        <time>2015-12-13T16:03:42Z</time>
      </trkpt>
      <trkpt lat="50.75542" lon="3.716">
        <ele>49</ele>
        <time>2015-12-13T16:03:43Z</time>
      </trkpt>
      <trkpt lat="50.7554" lon="3.71602">
        <ele>49</ele>
        <time>2015-12-13T16:03:44Z</time>
      </trkpt>
      <trkpt lat="50.75538" lon="3.71605">
        <ele>49</ele>
        <time>2015-12-13T16:03:45Z</time>
      </trkpt>
      <trkpt lat="50.75536" lon="3.71607">
        <ele>49</ele>
        <time>2015-12-13T16:03:46Z</time>
      </trkpt>
      <trkpt lat="50.75534" lon="3.7161">
        <ele>49</ele>
        <time>2015-12-13T16:03:47Z</time>
      </trkpt>
      <trkpt lat="50.75532" lon="3.71613">
        <ele>49</ele>
        <time>2015-12-13T16:03:48Z</time>
      </trkpt>
      <trkpt lat="50.7553" lon="3.71615">
        <ele>49</ele>
        <time>2015-12-13T16:03:49Z</time>
      </trkpt>
      <trkpt lat="50.75529" lon="3.71617">
        <ele>49</ele>
        <time>2015-12-13T16:03:50Z</time>
      </trkpt>
      <trkpt lat="50.75527" lon="3.7162">
        <ele>49</ele>
        <time>2015-12-13T16:03:51Z</time>
      </trkpt>
      <trkpt lat="50.75525" lon="3.71622">
        <ele>49</ele>
        <time>2015-12-13T16:03:52Z</time>
      </trkpt>
      <trkpt lat="50.75523" lon="3.71624">
        <ele>49</ele>
        <time>2015-12-13T16:03:53Z</time>
      </trkpt>
      <trkpt lat="50.75521" lon="3.71626">
        <ele>49</ele>
        <time>2015-12-13T16:03:54Z</time>
      </trkpt>
      <trkpt lat="50.7552" lon="3.71629">
        <ele>49</ele>
        <time>2015-12-13T16:03:55Z</time>
      </trkpt>
      <trkpt lat="50.75518" lon="3.71631">
        <ele>49</ele>
        <time>2015-12-13T16:03:56Z</time>
      </trkpt>
      <trkpt lat="50.75516" lon="3.71633">
        <ele>49</ele>
        <time>2015-12-13T16:03:57Z</time>
      </trkpt>
      <trkpt lat="50.75514" lon="3.71636">
        <ele>49</ele>
        <time>2015-12-13T16:03:58Z</time>
      </trkpt>
      <trkpt lat="50.75512" lon="3.71638">
        <ele>49</ele>
        <time>2015-12-13T16:03:59Z</time>
      </trkpt>
      <trkpt lat="50.75511" lon="3.7164">
        <ele>49</ele>
        <time>2015-12-13T16:04:00Z</time>
      </trkpt>
      <trkpt lat="50.75509" lon="3.71643">
        <ele>49.7</ele>
        <time>2015-12-13T16:04:01Z</time>
      </trkpt>
      <trkpt lat="50.75507" lon="3.71645">
        <ele>50</ele>
        <time>2015-12-13T16:04:02Z</time>
      </trkpt>
      <trkpt lat="50.75505" lon="3.71648">
        <ele>50</ele>
        <time>2015-12-13T16:04:03Z</time>
      </trkpt>
      <trkpt lat="50.75503" lon="3.7165">
        <ele>50</ele>
        <time>2015-12-13T16:04:04Z</time>
      </trkpt>
      <trkpt lat="50.75502" lon="3.71652">
        <ele>50</ele>
        <time>2015-12-13T16:04:05Z</time>
      </trkpt>
      <trkpt lat="50.755" lon="3.71654">
        <ele>50</ele>
        <time>2015-12-13T16:04:06Z</time>
      </trkpt>
      <trkpt lat="50.75499" lon="3.71657">
        <ele>50</ele>
        <time>2015-12-13T16:04:07Z</time>
      </trkpt>
      <trkpt lat="50.75497" lon="3.71659">
        <ele>50</ele>
        <time>2015-12-13T16:04:08Z</time>
      </trkpt>
      <trkpt lat="50.75495" lon="3.71661">
        <ele>50</ele>
        <time>2015-12-13T16:04:09Z</time>
      </trkpt>
      <trkpt lat="50.75493" lon="3.71664">
        <ele>50</ele>
        <time>2015-12-13T16:04:10Z</time>
      </trkpt>
      <trkpt lat="50.75492" lon="3.71666">
        <ele>50</ele>
        <time>2015-12-13T16:04:11Z</time>
      </trkpt>
      <trkpt lat="50.7549" lon="3.71668">
        <ele>50</ele>
        <time>2015-12-13T16:04:12Z</time>
      </trkpt>
      <trkpt lat="50.75488" lon="3.7167">
        <ele>50</ele>
        <time>2015-12-13T16:04:13Z</time>
      </trkpt>
      <trkpt lat="50.75486" lon="3.71673">
        <ele>50</ele>
        <time>2015-12-13T16:04:14Z</time>
      </trkpt>
      <trkpt lat="50.75485" lon="3.71675">
        <ele>50</ele>
        <time>2015-12-13T16:04:15Z</time>
      </trkpt>
      <trkpt lat="50.75483" lon="3.71678">
        <ele>50</ele>
        <time>2015-12-13T16:04:16Z</time>
      </trkpt>
      <trkpt lat="50.75481" lon="3.7168">
        <ele>50</ele>
        <time>2015-12-13T16:04:17Z</time>
      </trkpt>
      <trkpt lat="50.75479" lon="3.71683">
        <ele>50</ele>
        <time>2015-12-13T16:04:18Z</time>
      </trkpt>
      <trkpt lat="50.75478" lon="3.71685">
        <ele>50</ele>
        <time>2015-12-13T16:04:19Z</time>
      </trkpt>
      <trkpt lat="50.75476" lon="3.71688">
        <ele>50</ele>
        <time>2015-12-13T16:04:20Z</time>
      </trkpt>
      <trkpt lat="50.75474" lon="3.7169">
        <ele>48.9</ele>
        <time>2015-12-13T16:04:21Z</time>
      </trkpt>
      <trkpt lat="50.75472" lon="3.71693">
        <ele>48</ele>
        <time>2015-12-13T16:04:22Z</time>
      </trkpt>
      <trkpt lat="50.75471" lon="3.71695">
        <ele>48</ele>
        <time>2015-12-13T16:04:23Z</time>
      </trkpt>
      <trkpt lat="50.75469" lon="3.71698">
        <ele>48</ele>
        <time>2015-12-13T16:04:24Z</time>
      </trkpt>
      <trkpt lat="50.75467" lon="3.717">
        <ele>48</ele>
        <time>2015-12-13T16:04:25Z</time>
      </trkpt>
      <trkpt lat="50.75465" lon="3.71703">
        <ele>48</ele>
        <time>2015-12-13T16:04:26Z</time>
      </trkpt>
      <trkpt lat="50.75464" lon="3.71705">
        <ele>48</ele>
        <time>2015-12-13T16:04:27Z</time>
      </trkpt>
      <trkpt lat="50.75462" lon="3.71708">
        <ele>48</ele>
        <time>2015-12-13T16:04:28Z</time>
      </trkpt>
      <trkpt lat="50.75459" lon="3.71711">
        <ele>48</ele>
        <time>2015-12-13T16:04:29Z</time>
      </trkpt>
      <trkpt lat="50.75457" lon="3.71713">
        <ele>48</ele>
        <time>2015-12-13T16:04:30Z</time>
      </trkpt>
      <trkpt lat="50.75456" lon="3.71715">
        <ele>47.3</ele>
        <time>2015-12-13T16:04:31Z</time>
      </trkpt>
      <trkpt lat="50.75454" lon="3.71718">
        <ele>47</ele>
        <time>2015-12-13T16:04:32Z</time>
      </trkpt>
      <trkpt lat="50.75452" lon="3.7172">
        <ele>47</ele>
        <time>2015-12-13T16:04:33Z</time>
      </trkpt>
      <trkpt lat="50.7545" lon="3.71723">
        <ele>47</ele>
        <time>2015-12-13T16:04:34Z</time>
      </trkpt>
      <trkpt lat="50.75448" lon="3.71725">
        <ele>47</ele>
        <time>2015-12-13T16:04:35Z</time>
      </trkpt>
      <trkpt lat="50.75447" lon="3.71728">
        <ele>47</ele>
        <time>2015-12-13T16:04:36Z</time>
      </trkpt>
      <trkpt lat="50.75445" lon="3.7173">
        <ele>47</ele>
        <time>2015-12-13T16:04:37Z</time>
      </trkpt>
      <trkpt lat="50.75443" lon="3.71733">
        <ele>47</ele>
        <time>2015-12-13T16:04:38Z</time>
      </trkpt>
      <trkpt lat="50.75441" lon="3.71735">
        <ele>47</ele>
        <time>2015-12-13T16:04:39Z</time>
      </trkpt>
      <trkpt lat="50.75439" lon="3.71738">
        <ele>47</ele>
        <time>2015-12-13T16:04:40Z</time>
      </trkpt>
      <trkpt lat="50.75437" lon="3.7174">
        <ele>46.5</ele>
        <time>2015-12-13T16:04:41Z</time>
      </trkpt>
      <trkpt lat="50.75435" lon="3.71743">
        <ele>46</ele>
        <time>2015-12-13T16:04:42Z</time>
      </trkpt>
      <trkpt lat="50.75433" lon="3.71745">
        <ele>46</ele>
        <time>2015-12-13T16:04:43Z</time>
      </trkpt>
      <trkpt lat="50.75432" lon="3.71748">
        <ele>46</ele>
        <time>2015-12-13T16:04:44Z</time>
      </trkpt>
      <trkpt lat="50.7543" lon="3.7175">
        <ele>46</ele>
        <time>2015-12-13T16:04:45Z</time>
      </trkpt>
      <trkpt lat="50.75427" lon="3.71753">
        <ele>46</ele>
        <time>2015-12-13T16:04:46Z</time>
      </trkpt>
      <trkpt lat="50.75426" lon="3.71756">
        <ele>46</ele>
        <time>2015-12-13T16:04:47Z</time>
      </trkpt>
      <trkpt lat="50.75423" lon="3.71759">
        <ele>46</ele>
        <time>2015-12-13T16:04:48Z</time>
      </trkpt>
      <trkpt lat="50.75421" lon="3.71761">
        <ele>46</ele>
        <time>2015-12-13T16:04:49Z</time>
      </trkpt>
      <trkpt lat="50.75419" lon="3.71764">
        <ele>46</ele>
        <time>2015-12-13T16:04:50Z</time>
      </trkpt>
      <trkpt lat="50.75417" lon="3.71766">
        <ele>45.3</ele>
        <time>2015-12-13T16:04:51Z</time>
      </trkpt>
      <trkpt lat="50.75416" lon="3.71768">
        <ele>45</ele>
        <time>2015-12-13T16:04:52Z</time>
      </trkpt>
      <trkpt lat="50.75414" lon="3.71771">
        <ele>45</ele>
        <time>2015-12-13T16:04:53Z</time>
      </trkpt>
      <trkpt lat="50.75412" lon="3.71773">
        <ele>45</ele>
        <time>2015-12-13T16:04:54Z</time>
      </trkpt>
      <trkpt lat="50.7541" lon="3.71776">
        <ele>45</ele>
        <time>2015-12-13T16:04:55Z</time>
      </trkpt>
      <trkpt lat="50.75408" lon="3.71779">
        <ele>45</ele>
        <time>2015-12-13T16:04:56Z</time>
      </trkpt>
      <trkpt lat="50.75405" lon="3.71781">
        <ele>45</ele>
        <time>2015-12-13T16:04:57Z</time>
      </trkpt>
      <trkpt lat="50.75403" lon="3.71784">
        <ele>45</ele>
        <time>2015-12-13T16:04:58Z</time>
      </trkpt>
      <trkpt lat="50.75401" lon="3.71786">
        <ele>45</ele>
        <time>2015-12-13T16:04:59Z</time>
      </trkpt>
      <trkpt lat="50.75399" lon="3.71788">
        <ele>45</ele>
        <time>2015-12-13T16:05:00Z</time>
      </trkpt>
      <trkpt lat="50.75397" lon="3.71791">
        <ele>44.5</ele>
        <time>2015-12-13T16:05:01Z</time>
      </trkpt>
      <trkpt lat="50.75395" lon="3.71793">
        <ele>44</ele>
        <time>2015-12-13T16:05:02Z</time>
      </trkpt>
      <trkpt lat="50.75393" lon="3.71796">
        <ele>44</ele>
        <time>2015-12-13T16:05:03Z</time>
      </trkpt>
      <trkpt lat="50.75391" lon="3.71798">
        <ele>44</ele>
        <time>2015-12-13T16:05:04Z</time>
      </trkpt>
      <trkpt lat="50.7539" lon="3.718">
        <ele>44</ele>
        <time>2015-12-13T16:05:05Z</time>
      </trkpt>
      <trkpt lat="50.75388" lon="3.71803">
        <ele>44</ele>
        <time>2015-12-13T16:05:06Z</time>
      </trkpt>
      <trkpt lat="50.75386" lon="3.71808">
        <ele>44</ele>
        <time>2015-12-13T16:05:08Z</time>
      </trkpt>
      <trkpt lat="50.75384" lon="3.7181">
        <ele>44</ele>
        <time>2015-12-13T16:05:09Z</time>
      </trkpt>
      <trkpt lat="50.75382" lon="3.71813">
        <ele>44</ele>
        <time>2015-12-13T16:05:10Z</time>
      </trkpt>
      <trkpt lat="50.7538" lon="3.71815">
        <ele>44</ele>
        <time>2015-12-13T16:05:11Z</time>
      </trkpt>
      <trkpt lat="50.75378" lon="3.71818">
        <ele>44</ele>
        <time>2015-12-13T16:05:12Z</time>
      </trkpt>
      <trkpt lat="50.75376" lon="3.71821">
        <ele>44</ele>
        <time>2015-12-13T16:05:13Z</time>
      </trkpt>
      <trkpt lat="50.75374" lon="3.71823">
        <ele>44</ele>
        <time>2015-12-13T16:05:14Z</time>
      </trkpt>
      <trkpt lat="50.75372" lon="3.71826">
        <ele>44</ele>
        <time>2015-12-13T16:05:15Z</time>
      </trkpt>
      <trkpt lat="50.75369" lon="3.71829">
        <ele>44</ele>
        <time>2015-12-13T16:05:16Z</time>
      </trkpt>
      <trkpt lat="50.75367" lon="3.71831">
        <ele>44</ele>
        <time>2015-12-13T16:05:17Z</time>
      </trkpt>
      <trkpt lat="50.75366" lon="3.71834">
        <ele>44</ele>
        <time>2015-12-13T16:05:18Z</time>
      </trkpt>
      <trkpt lat="50.75364" lon="3.71836">
        <ele>44</ele>
        <time>2015-12-13T16:05:19Z</time>
      </trkpt>
      <trkpt lat="50.75362" lon="3.71839">
        <ele>44</ele>
        <time>2015-12-13T16:05:20Z</time>
      </trkpt>
      <trkpt lat="50.7536" lon="3.71841">
        <ele>43.5</ele>
        <time>2015-12-13T16:05:21Z</time>
      </trkpt>
      <trkpt lat="50.75358" lon="3.71844">
        <ele>43</ele>
        <time>2015-12-13T16:05:22Z</time>
      </trkpt>
      <trkpt lat="50.75357" lon="3.71846">
        <ele>43</ele>
        <time>2015-12-13T16:05:23Z</time>
      </trkpt>
      <trkpt lat="50.75355" lon="3.71849">
        <ele>43</ele>
        <time>2015-12-13T16:05:24Z</time>
      </trkpt>
      <trkpt lat="50.75353" lon="3.71851">
        <ele>43</ele>
        <time>2015-12-13T16:05:25Z</time>
      </trkpt>
      <trkpt lat="50.75351" lon="3.71853">
        <ele>43</ele>
        <time>2015-12-13T16:05:26Z</time>
      </trkpt>
      <trkpt lat="50.75349" lon="3.71856">
        <ele>43</ele>
        <time>2015-12-13T16:05:27Z</time>
      </trkpt>
      <trkpt lat="50.75347" lon="3.71859">
        <ele>43</ele>
        <time>2015-12-13T16:05:28Z</time>
      </trkpt>
      <trkpt lat="50.75345" lon="3.71861">
        <ele>43</ele>
        <time>2015-12-13T16:05:29Z</time>
      </trkpt>
      <trkpt lat="50.75343" lon="3.71864">
        <ele>43</ele>
        <time>2015-12-13T16:05:30Z</time>
      </trkpt>
      <trkpt lat="50.75342" lon="3.71866">
        <ele>43</ele>
        <time>2015-12-13T16:05:31Z</time>
      </trkpt>
      <trkpt lat="50.7534" lon="3.71868">
        <ele>43</ele>
        <time>2015-12-13T16:05:32Z</time>
      </trkpt>
      <trkpt lat="50.75338" lon="3.7187">
        <ele>43</ele>
        <time>2015-12-13T16:05:33Z</time>
      </trkpt>
      <trkpt lat="50.75336" lon="3.71872">
        <ele>43</ele>
        <time>2015-12-13T16:05:34Z</time>
      </trkpt>
      <trkpt lat="50.75334" lon="3.71875">
        <ele>43</ele>
        <time>2015-12-13T16:05:35Z</time>
      </trkpt>
      <trkpt lat="50.75333" lon="3.71877">
        <ele>43</ele>
        <time>2015-12-13T16:05:36Z</time>
      </trkpt>
      <trkpt lat="50.75331" lon="3.7188">
        <ele>43</ele>
        <time>2015-12-13T16:05:37Z</time>
      </trkpt>
      <trkpt lat="50.75329" lon="3.71882">
        <ele>43</ele>
        <time>2015-12-13T16:05:38Z</time>
      </trkpt>
      <trkpt lat="50.75327" lon="3.71885">
        <ele>43</ele>
        <time>2015-12-13T16:05:39Z</time>
      </trkpt>
      <trkpt lat="50.75326" lon="3.71887">
        <ele>43</ele>
        <time>2015-12-13T16:05:40Z</time>
      </trkpt>
      <trkpt lat="50.75324" lon="3.7189">
        <ele>42.5</ele>
        <time>2015-12-13T16:05:41Z</time>
      </trkpt>
      <trkpt lat="50.75322" lon="3.71892">
        <ele>42</ele>
        <time>2015-12-13T16:05:42Z</time>
      </trkpt>
      <trkpt lat="50.7532" lon="3.71894">
        <ele>42</ele>
        <time>2015-12-13T16:05:43Z</time>
      </trkpt>
      <trkpt lat="50.75319" lon="3.71897">
        <ele>42</ele>
        <time>2015-12-13T16:05:44Z</time>
      </trkpt>
      <trkpt lat="50.75317" lon="3.71899">
        <ele>42</ele>
        <time>2015-12-13T16:05:45Z</time>
      </trkpt>
      <trkpt lat="50.75315" lon="3.71902">
        <ele>42</ele>
        <time>2015-12-13T16:05:46Z</time>
      </trkpt>
      <trkpt lat="50.75313" lon="3.71904">
        <ele>42</ele>
        <time>2015-12-13T16:05:47Z</time>
      </trkpt>
      <trkpt lat="50.75312" lon="3.71906">
        <ele>42</ele>
        <time>2015-12-13T16:05:48Z</time>
      </trkpt>
      <trkpt lat="50.7531" lon="3.71909">
        <ele>42</ele>
        <time>2015-12-13T16:05:49Z</time>
      </trkpt>
      <trkpt lat="50.75308" lon="3.71912">
        <ele>42</ele>
        <time>2015-12-13T16:05:50Z</time>
      </trkpt>
      <trkpt lat="50.75307" lon="3.71915">
        <ele>42</ele>
        <time>2015-12-13T16:05:51Z</time>
      </trkpt>
      <trkpt lat="50.75305" lon="3.71917">
        <ele>42</ele>
        <time>2015-12-13T16:05:52Z</time>
      </trkpt>
      <trkpt lat="50.75303" lon="3.71919">
        <ele>42</ele>
        <time>2015-12-13T16:05:53Z</time>
      </trkpt>
      <trkpt lat="50.75301" lon="3.71922">
        <ele>42</ele>
        <time>2015-12-13T16:05:54Z</time>
      </trkpt>
      <trkpt lat="50.753" lon="3.71925">
        <ele>42</ele>
        <time>2015-12-13T16:05:55Z</time>
      </trkpt>
      <trkpt lat="50.75298" lon="3.71928">
        <ele>42</ele>
        <time>2015-12-13T16:05:56Z</time>
      </trkpt>
      <trkpt lat="50.75296" lon="3.7193">
        <ele>42</ele>
        <time>2015-12-13T16:05:57Z</time>
      </trkpt>
      <trkpt lat="50.75295" lon="3.71933">
        <ele>42</ele>
        <time>2015-12-13T16:05:58Z</time>
      </trkpt>
      <trkpt lat="50.75293" lon="3.71935">
        <ele>42</ele>
        <time>2015-12-13T16:05:59Z</time>
      </trkpt>
      <trkpt lat="50.75292" lon="3.71938">
        <ele>42</ele>
        <time>2015-12-13T16:06:00Z</time>
      </trkpt>
      <trkpt lat="50.7529" lon="3.7194">
        <ele>42</ele>
        <time>2015-12-13T16:06:01Z</time>
      </trkpt>
      <trkpt lat="50.75288" lon="3.71943">
        <ele>42</ele>
        <time>2015-12-13T16:06:02Z</time>
      </trkpt>
      <trkpt lat="50.75287" lon="3.71946">
        <ele>42</ele>
        <time>2015-12-13T16:06:03Z</time>
      </trkpt>
      <trkpt lat="50.75285" lon="3.71948">
        <ele>42</ele>
        <time>2015-12-13T16:06:04Z</time>
      </trkpt>
      <trkpt lat="50.75283" lon="3.71951">
        <ele>42</ele>
        <time>2015-12-13T16:06:05Z</time>
      </trkpt>
      <trkpt lat="50.75281" lon="3.71954">
        <ele>42</ele>
        <time>2015-12-13T16:06:06Z</time>
      </trkpt>
      <trkpt lat="50.75279" lon="3.71957">
        <ele>42</ele>
        <time>2015-12-13T16:06:07Z</time>
      </trkpt>
      <trkpt lat="50.75278" lon="3.7196">
        <ele>42</ele>
        <time>2015-12-13T16:06:08Z</time>
      </trkpt>
      <trkpt lat="50.75276" lon="3.71962">
        <ele>42</ele>
        <time>2015-12-13T16:06:09Z</time>
      </trkpt>
      <trkpt lat="50.75274" lon="3.71965">
        <ele>42</ele>
        <time>2015-12-13T16:06:10Z</time>
      </trkpt>
      <trkpt lat="50.75272" lon="3.71968">
        <ele>42</ele>
        <time>2015-12-13T16:06:11Z</time>
      </trkpt>
      <trkpt lat="50.75271" lon="3.7197">
        <ele>42</ele>
        <time>2015-12-13T16:06:12Z</time>
      </trkpt>
      <trkpt lat="50.75269" lon="3.71973">
        <ele>42</ele>
        <time>2015-12-13T16:06:13Z</time>
      </trkpt>
      <trkpt lat="50.75267" lon="3.71976">
        <ele>42</ele>
        <time>2015-12-13T16:06:14Z</time>
      </trkpt>
      <trkpt lat="50.75265" lon="3.71979">
        <ele>42</ele>
        <time>2015-12-13T16:06:15Z</time>
      </trkpt>
      <trkpt lat="50.75263" lon="3.71982">
        <ele>42</ele>
        <time>2015-12-13T16:06:16Z</time>
      </trkpt>
      <trkpt lat="50.75262" lon="3.71984">
        <ele>42</ele>
        <time>2015-12-13T16:06:17Z</time>
      </trkpt>
      <trkpt lat="50.7526" lon="3.71987">
        <ele>42</ele>
        <time>2015-12-13T16:06:18Z</time>
      </trkpt>
      <trkpt lat="50.75258" lon="3.7199">
        <ele>42</ele>
        <time>2015-12-13T16:06:19Z</time>
      </trkpt>
      <trkpt lat="50.75256" lon="3.71993">
        <ele>42</ele>
        <time>2015-12-13T16:06:20Z</time>
      </trkpt>
      <trkpt lat="50.75255" lon="3.71995">
        <ele>41.3</ele>
        <time>2015-12-13T16:06:21Z</time>
      </trkpt>
      <trkpt lat="50.75253" lon="3.71998">
        <ele>41</ele>
        <time>2015-12-13T16:06:22Z</time>
      </trkpt>
      <trkpt lat="50.75251" lon="3.72001">
        <ele>41</ele>
        <time>2015-12-13T16:06:23Z</time>
      </trkpt>
      <trkpt lat="50.7525" lon="3.72004">
        <ele>41</ele>
        <time>2015-12-13T16:06:24Z</time>
      </trkpt>
      <trkpt lat="50.75248" lon="3.72006">
        <ele>41</ele>
        <time>2015-12-13T16:06:25Z</time>
      </trkpt>
      <trkpt lat="50.75247" lon="3.72009">
        <ele>41</ele>
        <time>2015-12-13T16:06:26Z</time>
      </trkpt>
      <trkpt lat="50.75245" lon="3.72012">
        <ele>41</ele>
        <time>2015-12-13T16:06:27Z</time>
      </trkpt>
      <trkpt lat="50.75243" lon="3.72014">
        <ele>41</ele>
        <time>2015-12-13T16:06:28Z</time>
      </trkpt>
      <trkpt lat="50.75241" lon="3.72017">
        <ele>41</ele>
        <time>2015-12-13T16:06:29Z</time>
      </trkpt>
      <trkpt lat="50.7524" lon="3.7202">
        <ele>41</ele>
        <time>2015-12-13T16:06:30Z</time>
      </trkpt>
      <trkpt lat="50.75238" lon="3.72022">
        <ele>40.3</ele>
        <time>2015-12-13T16:06:31Z</time>
      </trkpt>
      <trkpt lat="50.75236" lon="3.72025">
        <ele>40</ele>
        <time>2015-12-13T16:06:32Z</time>
      </trkpt>
      <trkpt lat="50.75235" lon="3.72028">
        <ele>40</ele>
        <time>2015-12-13T16:06:33Z</time>
      </trkpt>
      <trkpt lat="50.75233" lon="3.72031">
        <ele>40</ele>
        <time>2015-12-13T16:06:34Z</time>
      </trkpt>
      <trkpt lat="50.75231" lon="3.72033">
        <ele>40</ele>
        <time>2015-12-13T16:06:35Z</time>
      </trkpt>
      <trkpt lat="50.7523" lon="3.72036">
        <ele>40</ele>
        <time>2015-12-13T16:06:36Z</time>
      </trkpt>
      <trkpt lat="50.75228" lon="3.72039">
        <ele>40</ele>
        <time>2015-12-13T16:06:37Z</time>
      </trkpt>
      <trkpt lat="50.75226" lon="3.72042">
        <ele>40</ele>
        <time>2015-12-13T16:06:38Z</time>
      </trkpt>
      <trkpt lat="50.75224" lon="3.72045">
        <ele>40</ele>
        <time>2015-12-13T16:06:39Z</time>
      </trkpt>
      <trkpt lat="50.75222" lon="3.72048">
        <ele>40</ele>
        <time>2015-12-13T16:06:40Z</time>
      </trkpt>
      <trkpt lat="50.7522" lon="3.72051">
        <ele>40</ele>
        <time>2015-12-13T16:06:41Z</time>
      </trkpt>
      <trkpt lat="50.75219" lon="3.72054">
        <ele>40</ele>
        <time>2015-12-13T16:06:42Z</time>
      </trkpt>
      <trkpt lat="50.75217" lon="3.72056">
        <ele>40</ele>
        <time>2015-12-13T16:06:43Z</time>
      </trkpt>
      <trkpt lat="50.75215" lon="3.72059">
        <ele>40</ele>
        <time>2015-12-13T16:06:44Z</time>
      </trkpt>
      <trkpt lat="50.75213" lon="3.72061">
        <ele>40</ele>
        <time>2015-12-13T16:06:45Z</time>
      </trkpt>
      <trkpt lat="50.75212" lon="3.72064">
        <ele>40</ele>
        <time>2015-12-13T16:06:46Z</time>
      </trkpt>
      <trkpt lat="50.7521" lon="3.72067">
        <ele>40</ele>
        <time>2015-12-13T16:06:47Z</time>
      </trkpt>
      <trkpt lat="50.75209" lon="3.7207">
        <ele>40</ele>
        <time>2015-12-13T16:06:48Z</time>
      </trkpt>
      <trkpt lat="50.75207" lon="3.72073">
        <ele>40</ele>
        <time>2015-12-13T16:06:49Z</time>
      </trkpt>
      <trkpt lat="50.75205" lon="3.72076">
        <ele>40</ele>
        <time>2015-12-13T16:06:50Z</time>
      </trkpt>
      <trkpt lat="50.75203" lon="3.72078">
        <ele>40</ele>
        <time>2015-12-13T16:06:51Z</time>
      </trkpt>
      <trkpt lat="50.75202" lon="3.72081">
        <ele>40</ele>
        <time>2015-12-13T16:06:52Z</time>
      </trkpt>
      <trkpt lat="50.752" lon="3.72084">
        <ele>40</ele>
        <time>2015-12-13T16:06:53Z</time>
      </trkpt>
      <trkpt lat="50.75198" lon="3.72087">
        <ele>40</ele>
        <time>2015-12-13T16:06:54Z</time>
      </trkpt>
      <trkpt lat="50.75196" lon="3.7209">
        <ele>40</ele>
        <time>2015-12-13T16:06:55Z</time>
      </trkpt>
      <trkpt lat="50.75194" lon="3.72093">
        <ele>40</ele>
        <time>2015-12-13T16:06:56Z</time>
      </trkpt>
      <trkpt lat="50.75192" lon="3.72096">
        <ele>40</ele>
        <time>2015-12-13T16:06:57Z</time>
      </trkpt>
      <trkpt lat="50.7519" lon="3.72098">
        <ele>40</ele>
        <time>2015-12-13T16:06:58Z</time>
      </trkpt>
      <trkpt lat="50.75189" lon="3.72101">
        <ele>40</ele>
        <time>2015-12-13T16:06:59Z</time>
      </trkpt>
      <trkpt lat="50.75187" lon="3.72104">
        <ele>40</ele>
        <time>2015-12-13T16:07:00Z</time>
      </trkpt>
      <trkpt lat="50.75185" lon="3.72107">
        <ele>38.6</ele>
        <time>2015-12-13T16:07:01Z</time>
      </trkpt>
      <trkpt lat="50.75183" lon="3.7211">
        <ele>38</ele>
        <time>2015-12-13T16:07:02Z</time>
      </trkpt>
      <trkpt lat="50.75181" lon="3.72112">
        <ele>38</ele>
        <time>2015-12-13T16:07:03Z</time>
      </trkpt>
      <trkpt lat="50.7518" lon="3.72115">
        <ele>38</ele>
        <time>2015-12-13T16:07:04Z</time>
      </trkpt>
      <trkpt lat="50.75178" lon="3.72118">
        <ele>38</ele>
        <time>2015-12-13T16:07:05Z</time>
      </trkpt>
      <trkpt lat="50.75176" lon="3.72121">
        <ele>38</ele>
        <time>2015-12-13T16:07:06Z</time>
      </trkpt>
      <trkpt lat="50.75174" lon="3.72124">
        <ele>38</ele>
        <time>2015-12-13T16:07:07Z</time>
      </trkpt>
      <trkpt lat="50.75173" lon="3.72127">
        <ele>38</ele>
        <time>2015-12-13T16:07:08Z</time>
      </trkpt>
      <trkpt lat="50.75171" lon="3.7213">
        <ele>38</ele>
        <time>2015-12-13T16:07:09Z</time>
      </trkpt>
      <trkpt lat="50.75169" lon="3.72133">
        <ele>38</ele>
        <time>2015-12-13T16:07:10Z</time>
      </trkpt>
      <trkpt lat="50.75167" lon="3.72136">
        <ele>38</ele>
        <time>2015-12-13T16:07:11Z</time>
      </trkpt>
      <trkpt lat="50.75166" lon="3.72139">
        <ele>38</ele>
        <time>2015-12-13T16:07:12Z</time>
      </trkpt>
      <trkpt lat="50.75164" lon="3.72142">
        <ele>38</ele>
        <time>2015-12-13T16:07:13Z</time>
      </trkpt>
      <trkpt lat="50.75162" lon="3.72144">
        <ele>38</ele>
        <time>2015-12-13T16:07:14Z</time>
      </trkpt>
      <trkpt lat="50.75161" lon="3.72147">
        <ele>38</ele>
        <time>2015-12-13T16:07:15Z</time>
      </trkpt>
      <trkpt lat="50.75159" lon="3.7215">
        <ele>38</ele>
        <time>2015-12-13T16:07:16Z</time>
      </trkpt>
      <trkpt lat="50.75158" lon="3.72153">
        <ele>38</ele>
        <time>2015-12-13T16:07:17Z</time>
      </trkpt>
      <trkpt lat="50.75156" lon="3.72156">
        <ele>38</ele>
        <time>2015-12-13T16:07:18Z</time>
      </trkpt>
      <trkpt lat="50.75154" lon="3.72159">
        <ele>38</ele>
        <time>2015-12-13T16:07:19Z</time>
      </trkpt>
      <trkpt lat="50.75153" lon="3.72161">
        <ele>38</ele>
        <time>2015-12-13T16:07:20Z</time>
      </trkpt>
      <trkpt lat="50.75151" lon="3.72164">
        <ele>38</ele>
        <time>2015-12-13T16:07:21Z</time>
      </trkpt>
      <trkpt lat="50.75149" lon="3.72167">
        <ele>38</ele>
        <time>2015-12-13T16:07:22Z</time>
      </trkpt>
      <trkpt lat="50.75148" lon="3.72169">
        <ele>38</ele>
        <time>2015-12-13T16:07:23Z</time>
      </trkpt>
      <trkpt lat="50.75146" lon="3.72172">
        <ele>38</ele>
        <time>2015-12-13T16:07:24Z</time>
      </trkpt>
      <trkpt lat="50.75144" lon="3.72174">
        <ele>38</ele>
        <time>2015-12-13T16:07:25Z</time>
      </trkpt>
      <trkpt lat="50.75142" lon="3.72177">
        <ele>38</ele>
        <time>2015-12-13T16:07:26Z</time>
      </trkpt>
      <trkpt lat="50.7514" lon="3.7218">
        <ele>38</ele>
        <time>2015-12-13T16:07:27Z</time>
      </trkpt>
      <trkpt lat="50.75138" lon="3.72183">
        <ele>38</ele>
        <time>2015-12-13T16:07:28Z</time>
      </trkpt>
      <trkpt lat="50.75137" lon="3.72186">
        <ele>38</ele>
        <time>2015-12-13T16:07:29Z</time>
      </trkpt>
      <trkpt lat="50.75135" lon="3.72188">
        <ele>38</ele>
        <time>2015-12-13T16:07:30Z</time>
      </trkpt>
      <trkpt lat="50.75133" lon="3.72191">
        <ele>38</ele>
        <time>2015-12-13T16:07:31Z</time>
      </trkpt>
      <trkpt lat="50.75131" lon="3.72193">
        <ele>38</ele>
        <time>2015-12-13T16:07:32Z</time>
      </trkpt>
      <trkpt lat="50.7513" lon="3.72196">
        <ele>38</ele>
        <time>2015-12-13T16:07:33Z</time>
      </trkpt>
      <trkpt lat="50.75128" lon="3.72199">
        <ele>38</ele>
        <time>2015-12-13T16:07:34Z</time>
      </trkpt>
      <trkpt lat="50.75127" lon="3.72201">
        <ele>38</ele>
        <time>2015-12-13T16:07:35Z</time>
      </trkpt>
      <trkpt lat="50.75124" lon="3.72204">
        <ele>38</ele>
        <time>2015-12-13T16:07:36Z</time>
      </trkpt>
      <trkpt lat="50.75123" lon="3.72207">
        <ele>38</ele>
        <time>2015-12-13T16:07:37Z</time>
      </trkpt>
      <trkpt lat="50.75121" lon="3.7221">
        <ele>38</ele>
        <time>2015-12-13T16:07:38Z</time>
      </trkpt>
      <trkpt lat="50.75119" lon="3.72212">
        <ele>38</ele>
        <time>2015-12-13T16:07:39Z</time>
      </trkpt>
      <trkpt lat="50.75117" lon="3.72215">
        <ele>38</ele>
        <time>2015-12-13T16:07:40Z</time>
      </trkpt>
      <trkpt lat="50.75116" lon="3.72217">
        <ele>38</ele>
        <time>2015-12-13T16:07:41Z</time>
      </trkpt>
      <trkpt lat="50.75114" lon="3.7222">
        <ele>38</ele>
        <time>2015-12-13T16:07:42Z</time>
      </trkpt>
      <trkpt lat="50.75112" lon="3.72223">
        <ele>38</ele>
        <time>2015-12-13T16:07:43Z</time>
      </trkpt>
      <trkpt lat="50.7511" lon="3.72226">
        <ele>38</ele>
        <time>2015-12-13T16:07:44Z</time>
      </trkpt>
      <trkpt lat="50.75109" lon="3.72229">
        <ele>38</ele>
        <time>2015-12-13T16:07:45Z</time>
      </trkpt>
      <trkpt lat="50.75107" lon="3.72232">
        <ele>38</ele>
        <time>2015-12-13T16:07:46Z</time>
      </trkpt>
      <trkpt lat="50.75105" lon="3.72235">
        <ele>38</ele>
        <time>2015-12-13T16:07:47Z</time>
      </trkpt>
      <trkpt lat="50.75104" lon="3.72237">
        <ele>38</ele>
        <time>2015-12-13T16:07:48Z</time>
      </trkpt>
      <trkpt lat="50.75102" lon="3.72239">
        <ele>38</ele>
        <time>2015-12-13T16:07:49Z</time>
      </trkpt>
      <trkpt lat="50.75101" lon="3.72242">
        <ele>38</ele>
        <time>2015-12-13T16:07:50Z</time>
      </trkpt>
      <trkpt lat="50.75099" lon="3.72244">
        <ele>37.3</ele>
        <time>2015-12-13T16:07:51Z</time>
      </trkpt>
      <trkpt lat="50.75098" lon="3.72247">
        <ele>37</ele>
        <time>2015-12-13T16:07:52Z</time>
      </trkpt>
      <trkpt lat="50.75096" lon="3.7225">
        <ele>37</ele>
        <time>2015-12-13T16:07:53Z</time>
      </trkpt>
      <trkpt lat="50.75094" lon="3.72253">
        <ele>37</ele>
        <time>2015-12-13T16:07:54Z</time>
      </trkpt>
      <trkpt lat="50.75093" lon="3.72256">
        <ele>37</ele>
        <time>2015-12-13T16:07:55Z</time>
      </trkpt>
      <trkpt lat="50.75092" lon="3.72259">
        <ele>37</ele>
        <time>2015-12-13T16:07:56Z</time>
      </trkpt>
      <trkpt lat="50.7509" lon="3.72262">
        <ele>37</ele>
        <time>2015-12-13T16:07:57Z</time>
      </trkpt>
      <trkpt lat="50.75088" lon="3.72264">
        <ele>37</ele>
        <time>2015-12-13T16:07:58Z</time>
      </trkpt>
      <trkpt lat="50.75087" lon="3.72267">
        <ele>37</ele>
        <time>2015-12-13T16:07:59Z</time>
      </trkpt>
      <trkpt lat="50.75085" lon="3.72269">
        <ele>37</ele>
        <time>2015-12-13T16:08:00Z</time>
      </trkpt>
      <trkpt lat="50.75083" lon="3.72272">
        <ele>37</ele>
        <time>2015-12-13T16:08:01Z</time>
      </trkpt>
      <trkpt lat="50.75081" lon="3.72275">
        <ele>37</ele>
        <time>2015-12-13T16:08:02Z</time>
      </trkpt>
      <trkpt lat="50.75079" lon="3.72277">
        <ele>37</ele>
        <time>2015-12-13T16:08:03Z</time>
      </trkpt>
      <trkpt lat="50.75077" lon="3.7228">
        <ele>37</ele>
        <time>2015-12-13T16:08:04Z</time>
      </trkpt>
      <trkpt lat="50.75075" lon="3.72283">
        <ele>37</ele>
        <time>2015-12-13T16:08:05Z</time>
      </trkpt>
      <trkpt lat="50.75073" lon="3.72285">
        <ele>37</ele>
        <time>2015-12-13T16:08:06Z</time>
      </trkpt>
      <trkpt lat="50.75071" lon="3.72288">
        <ele>37</ele>
        <time>2015-12-13T16:08:07Z</time>
      </trkpt>
      <trkpt lat="50.75069" lon="3.72291">
        <ele>37</ele>
        <time>2015-12-13T16:08:08Z</time>
      </trkpt>
      <trkpt lat="50.75066" lon="3.72293">
        <ele>37</ele>
        <time>2015-12-13T16:08:09Z</time>
      </trkpt>
      <trkpt lat="50.75064" lon="3.72295">
        <ele>37</ele>
        <time>2015-12-13T16:08:10Z</time>
      </trkpt>
      <trkpt lat="50.75063" lon="3.72298">
        <ele>37</ele>
        <time>2015-12-13T16:08:11Z</time>
      </trkpt>
      <trkpt lat="50.75061" lon="3.723">
        <ele>37</ele>
        <time>2015-12-13T16:08:12Z</time>
      </trkpt>
      <trkpt lat="50.75059" lon="3.72303">
        <ele>37</ele>
        <time>2015-12-13T16:08:13Z</time>
      </trkpt>
      <trkpt lat="50.75057" lon="3.72305">
        <ele>37</ele>
        <time>2015-12-13T16:08:14Z</time>
      </trkpt>
      <trkpt lat="50.75054" lon="3.72307">
        <ele>37</ele>
        <time>2015-12-13T16:08:15Z</time>
      </trkpt>
      <trkpt lat="50.75052" lon="3.72309">
        <ele>37</ele>
        <time>2015-12-13T16:08:16Z</time>
      </trkpt>
      <trkpt lat="50.7505" lon="3.72312">
        <ele>37</ele>
        <time>2015-12-13T16:08:17Z</time>
      </trkpt>
      <trkpt lat="50.75048" lon="3.72314">
        <ele>37</ele>
        <time>2015-12-13T16:08:18Z</time>
      </trkpt>
      <trkpt lat="50.75046" lon="3.72317">
        <ele>37</ele>
        <time>2015-12-13T16:08:19Z</time>
      </trkpt>
      <trkpt lat="50.75044" lon="3.72319">
        <ele>37</ele>
        <time>2015-12-13T16:08:20Z</time>
      </trkpt>
      <trkpt lat="50.75042" lon="3.72322">
        <ele>37</ele>
        <time>2015-12-13T16:08:21Z</time>
      </trkpt>
      <trkpt lat="50.75041" lon="3.72324">
        <ele>36.6</ele>
        <time>2015-12-13T16:08:22Z</time>
      </trkpt>
      <trkpt lat="50.75039" lon="3.72327">
        <ele>36</ele>
        <time>2015-12-13T16:08:23Z</time>
      </trkpt>
      <trkpt lat="50.75037" lon="3.7233">
        <ele>36</ele>
        <time>2015-12-13T16:08:24Z</time>
      </trkpt>
      <trkpt lat="50.75035" lon="3.72332">
        <ele>36</ele>
        <time>2015-12-13T16:08:25Z</time>
      </trkpt>
      <trkpt lat="50.75034" lon="3.72335">
        <ele>36</ele>
        <time>2015-12-13T16:08:26Z</time>
      </trkpt>
      <trkpt lat="50.75033" lon="3.72337">
        <ele>36</ele>
        <time>2015-12-13T16:08:27Z</time>
      </trkpt>
      <trkpt lat="50.75031" lon="3.7234">
        <ele>36</ele>
        <time>2015-12-13T16:08:28Z</time>
      </trkpt>
      <trkpt lat="50.7503" lon="3.72343">
        <ele>36</ele>
        <time>2015-12-13T16:08:29Z</time>
      </trkpt>
      <trkpt lat="50.75028" lon="3.72345">
        <ele>36</ele>
        <time>2015-12-13T16:08:30Z</time>
      </trkpt>
      <trkpt lat="50.75027" lon="3.72348">
        <ele>36</ele>
        <time>2015-12-13T16:08:31Z</time>
      </trkpt>
      <trkpt lat="50.75026" lon="3.72351">
        <ele>36</ele>
        <time>2015-12-13T16:08:32Z</time>
      </trkpt>
      <trkpt lat="50.75025" lon="3.72353">
        <ele>36</ele>
        <time>2015-12-13T16:08:33Z</time>
      </trkpt>
      <trkpt lat="50.75023" lon="3.72356">
        <ele>36</ele>
        <time>2015-12-13T16:08:34Z</time>
      </trkpt>
      <trkpt lat="50.75021" lon="3.72359">
        <ele>36</ele>
        <time>2015-12-13T16:08:35Z</time>
      </trkpt>
      <trkpt lat="50.7502" lon="3.72362">
        <ele>36</ele>
        <time>2015-12-13T16:08:36Z</time>
      </trkpt>
      <trkpt lat="50.75018" lon="3.72365">
        <ele>36</ele>
        <time>2015-12-13T16:08:37Z</time>
      </trkpt>
      <trkpt lat="50.75016" lon="3.72368">
        <ele>36</ele>
        <time>2015-12-13T16:08:38Z</time>
      </trkpt>
      <trkpt lat="50.75015" lon="3.7237">
        <ele>36</ele>
        <time>2015-12-13T16:08:39Z</time>
      </trkpt>
      <trkpt lat="50.75013" lon="3.72373">
        <ele>36</ele>
        <time>2015-12-13T16:08:40Z</time>
      </trkpt>
      <trkpt lat="50.75012" lon="3.72376">
        <ele>36</ele>
        <time>2015-12-13T16:08:41Z</time>
      </trkpt>
      <trkpt lat="50.7501" lon="3.72379">
        <ele>36</ele>
        <time>2015-12-13T16:08:42Z</time>
      </trkpt>
      <trkpt lat="50.75008" lon="3.72381">
        <ele>36</ele>
        <time>2015-12-13T16:08:43Z</time>
      </trkpt>
      <trkpt lat="50.75007" lon="3.72384">
        <ele>36</ele>
        <time>2015-12-13T16:08:44Z</time>
      </trkpt>
      <trkpt lat="50.75005" lon="3.72387">
        <ele>36</ele>
        <time>2015-12-13T16:08:45Z</time>
      </trkpt>
      <trkpt lat="50.75004" lon="3.7239">
        <ele>36</ele>
        <time>2015-12-13T16:08:46Z</time>
      </trkpt>
      <trkpt lat="50.75003" lon="3.72392">
        <ele>36</ele>
        <time>2015-12-13T16:08:47Z</time>
      </trkpt>
      <trkpt lat="50.75001" lon="3.72395">
        <ele>36</ele>
        <time>2015-12-13T16:08:48Z</time>
      </trkpt>
      <trkpt lat="50.75" lon="3.72398">
        <ele>36</ele>
        <time>2015-12-13T16:08:49Z</time>
      </trkpt>
      <trkpt lat="50.74999" lon="3.724">
        <ele>36</ele>
        <time>2015-12-13T16:08:50Z</time>
      </trkpt>
      <trkpt lat="50.74997" lon="3.72403">
        <ele>36</ele>
        <time>2015-12-13T16:08:51Z</time>
      </trkpt>
      <trkpt lat="50.74996" lon="3.72405">
        <ele>36</ele>
        <time>2015-12-13T16:08:52Z</time>
      </trkpt>
      <trkpt lat="50.74994" lon="3.72408">
        <ele>36</ele>
        <time>2015-12-13T16:08:53Z</time>
      </trkpt>
      <trkpt lat="50.74993" lon="3.72411">
        <ele>36</ele>
        <time>2015-12-13T16:08:54Z</time>
      </trkpt>
      <trkpt lat="50.74992" lon="3.72413">
        <ele>36</ele>
        <time>2015-12-13T16:08:55Z</time>
      </trkpt>
      <trkpt lat="50.7499" lon="3.72416">
        <ele>36</ele>
        <time>2015-12-13T16:08:56Z</time>
      </trkpt>
      <trkpt lat="50.74989" lon="3.72418">
        <ele>36</ele>
        <time>2015-12-13T16:08:57Z</time>
      </trkpt>
      <trkpt lat="50.74988" lon="3.7242">
        <ele>36</ele>
        <time>2015-12-13T16:08:58Z</time>
      </trkpt>
      <trkpt lat="50.74986" lon="3.72423">
        <ele>36</ele>
        <time>2015-12-13T16:08:59Z</time>
      </trkpt>
      <trkpt lat="50.74985" lon="3.72426">
        <ele>36</ele>
        <time>2015-12-13T16:09:00Z</time>
      </trkpt>
      <trkpt lat="50.74983" lon="3.72429">
        <ele>36</ele>
        <time>2015-12-13T16:09:01Z</time>
      </trkpt>
      <trkpt lat="50.74982" lon="3.72431">
        <ele>35.3</ele>
        <time>2015-12-13T16:09:02Z</time>
      </trkpt>
      <trkpt lat="50.7498" lon="3.72435">
        <ele>35</ele>
        <time>2015-12-13T16:09:03Z</time>
      </trkpt>
      <trkpt lat="50.74979" lon="3.72438">
        <ele>35</ele>
        <time>2015-12-13T16:09:04Z</time>
      </trkpt>
      <trkpt lat="50.74977" lon="3.72441">
        <ele>35</ele>
        <time>2015-12-13T16:09:05Z</time>
      </trkpt>
      <trkpt lat="50.74976" lon="3.72443">
        <ele>35</ele>
        <time>2015-12-13T16:09:06Z</time>
      </trkpt>
      <trkpt lat="50.74974" lon="3.72446">
        <ele>35</ele>
        <time>2015-12-13T16:09:07Z</time>
      </trkpt>
      <trkpt lat="50.74973" lon="3.72449">
        <ele>35</ele>
        <time>2015-12-13T16:09:08Z</time>
      </trkpt>
      <trkpt lat="50.74971" lon="3.72451">
        <ele>35</ele>
        <time>2015-12-13T16:09:09Z</time>
      </trkpt>
      <trkpt lat="50.7497" lon="3.72454">
        <ele>35</ele>
        <time>2015-12-13T16:09:10Z</time>
      </trkpt>
      <trkpt lat="50.74968" lon="3.72457">
        <ele>35</ele>
        <time>2015-12-13T16:09:11Z</time>
      </trkpt>
      <trkpt lat="50.74967" lon="3.7246">
        <ele>35</ele>
        <time>2015-12-13T16:09:12Z</time>
      </trkpt>
      <trkpt lat="50.74966" lon="3.72463">
        <ele>35</ele>
        <time>2015-12-13T16:09:13Z</time>
      </trkpt>
      <trkpt lat="50.74964" lon="3.72466">
        <ele>35</ele>
        <time>2015-12-13T16:09:14Z</time>
      </trkpt>
      <trkpt lat="50.74962" lon="3.72469">
        <ele>35</ele>
        <time>2015-12-13T16:09:15Z</time>
      </trkpt>
      <trkpt lat="50.74961" lon="3.72472">
        <ele>35</ele>
        <time>2015-12-13T16:09:16Z</time>
      </trkpt>
      <trkpt lat="50.74958" lon="3.72475">
        <ele>35</ele>
        <time>2015-12-13T16:09:18Z</time>
      </trkpt>
      <trkpt lat="50.74955" lon="3.72478">
        <ele>35</ele>
        <time>2015-12-13T16:09:20Z</time>
      </trkpt>
      <trkpt lat="50.74953" lon="3.72481">
        <ele>35.7</ele>
        <time>2015-12-13T16:09:22Z</time>
      </trkpt>
      <trkpt lat="50.74952" lon="3.72484">
        <ele>36</ele>
        <time>2015-12-13T16:09:24Z</time>
      </trkpt>
      <trkpt lat="50.7495" lon="3.72486">
        <ele>36</ele>
        <time>2015-12-13T16:09:26Z</time>
      </trkpt>
      <trkpt lat="50.74948" lon="3.72488">
        <ele>36</ele>
        <time>2015-12-13T16:09:27Z</time>
      </trkpt>
      <trkpt lat="50.74945" lon="3.7249">
        <ele>36</ele>
        <time>2015-12-13T16:09:29Z</time>
      </trkpt>
      <trkpt lat="50.74942" lon="3.72491">
        <ele>36</ele>
        <time>2015-12-13T16:09:31Z</time>
      </trkpt>
      <trkpt lat="50.7494" lon="3.72492">
        <ele>36</ele>
        <time>2015-12-13T16:09:32Z</time>
      </trkpt>
      <trkpt lat="50.74936" lon="3.72492">
        <ele>36</ele>
        <time>2015-12-13T16:09:34Z</time>
      </trkpt>
      <trkpt lat="50.74935" lon="3.72492">
        <ele>36</ele>
        <time>2015-12-13T16:09:35Z</time>
      </trkpt>
      <trkpt lat="50.74933" lon="3.72492">
        <ele>36</ele>
        <time>2015-12-13T16:09:36Z</time>
      </trkpt>
      <trkpt lat="50.7493" lon="3.72491">
        <ele>36</ele>
        <time>2015-12-13T16:09:38Z</time>
      </trkpt>
      <trkpt lat="50.74927" lon="3.72491">
        <ele>36</ele>
        <time>2015-12-13T16:09:40Z</time>
      </trkpt>
      <trkpt lat="50.74924" lon="3.7249">
        <ele>35.3</ele>
        <time>2015-12-13T16:09:42Z</time>
      </trkpt>
      <trkpt lat="50.74921" lon="3.7249">
        <ele>35</ele>
        <time>2015-12-13T16:09:44Z</time>
      </trkpt>
      <trkpt lat="50.74918" lon="3.72489">
        <ele>35</ele>
        <time>2015-12-13T16:09:46Z</time>
      </trkpt>
      <trkpt lat="50.74914" lon="3.72488">
        <ele>35</ele>
        <time>2015-12-13T16:09:48Z</time>
      </trkpt>
      <trkpt lat="50.74911" lon="3.72488">
        <ele>35</ele>
        <time>2015-12-13T16:09:50Z</time>
      </trkpt>
      <trkpt lat="50.74909" lon="3.72487">
        <ele>35</ele>
        <time>2015-12-13T16:09:52Z</time>
      </trkpt>
      <trkpt lat="50.74906" lon="3.72487">
        <ele>35</ele>
        <time>2015-12-13T16:09:54Z</time>
      </trkpt>
      <trkpt lat="50.74903" lon="3.72486">
        <ele>35</ele>
        <time>2015-12-13T16:09:56Z</time>
      </trkpt>
      <trkpt lat="50.749" lon="3.72486">
        <ele>35</ele>
        <time>2015-12-13T16:09:58Z</time>
      </trkpt>
      <trkpt lat="50.74897" lon="3.72486">
        <ele>35</ele>
        <time>2015-12-13T16:10:00Z</time>
      </trkpt>
      <trkpt lat="50.74895" lon="3.72486">
        <ele>35</ele>
        <time>2015-12-13T16:10:02Z</time>
      </trkpt>
      <trkpt lat="50.74892" lon="3.72485">
        <ele>35</ele>
        <time>2015-12-13T16:10:04Z</time>
      </trkpt>
      <trkpt lat="50.7489" lon="3.72485">
        <ele>35</ele>
        <time>2015-12-13T16:10:06Z</time>
      </trkpt>
      <trkpt lat="50.74887" lon="3.72485">
        <ele>35</ele>
        <time>2015-12-13T16:10:08Z</time>
      </trkpt>
      <trkpt lat="50.74884" lon="3.72485">
        <ele>35</ele>
        <time>2015-12-13T16:10:10Z</time>
      </trkpt>
      <trkpt lat="50.74881" lon="3.72485">
        <ele>36</ele>
        <time>2015-12-13T16:10:12Z</time>
      </trkpt>
      <trkpt lat="50.74878" lon="3.72485">
        <ele>36</ele>
        <time>2015-12-13T16:10:14Z</time>
      </trkpt>
      <trkpt lat="50.74876" lon="3.72486">
        <ele>36</ele>
        <time>2015-12-13T16:10:16Z</time>
      </trkpt>
      <trkpt lat="50.74873" lon="3.72486">
        <ele>36</ele>
        <time>2015-12-13T16:10:18Z</time>
      </trkpt>
      <trkpt lat="50.7487" lon="3.72485">
        <ele>36</ele>
        <time>2015-12-13T16:10:20Z</time>
      </trkpt>
      <trkpt lat="50.74868" lon="3.72484">
        <ele>36</ele>
        <time>2015-12-13T16:10:22Z</time>
      </trkpt>
      <trkpt lat="50.74865" lon="3.72484">
        <ele>36</ele>
        <time>2015-12-13T16:10:24Z</time>
      </trkpt>
      <trkpt lat="50.74861" lon="3.72483">
        <ele>36</ele>
        <time>2015-12-13T16:10:26Z</time>
      </trkpt>
      <trkpt lat="50.74858" lon="3.72482">
        <ele>36</ele>
        <time>2015-12-13T16:10:28Z</time>
      </trkpt>
      <trkpt lat="50.74856" lon="3.72481">
        <ele>36</ele>
        <time>2015-12-13T16:10:30Z</time>
      </trkpt>
      <trkpt lat="50.74853" lon="3.7248">
        <ele>36</ele>
        <time>2015-12-13T16:10:32Z</time>
      </trkpt>
      <trkpt lat="50.7485" lon="3.72479">
        <ele>36</ele>
        <time>2015-12-13T16:10:34Z</time>
      </trkpt>
      <trkpt lat="50.74848" lon="3.72477">
        <ele>36</ele>
        <time>2015-12-13T16:10:36Z</time>
      </trkpt>
      <trkpt lat="50.74845" lon="3.72475">
        <ele>36</ele>
        <time>2015-12-13T16:10:38Z</time>
      </trkpt>
      <trkpt lat="50.74843" lon="3.72473">
        <ele>36</ele>
        <time>2015-12-13T16:10:40Z</time>
      </trkpt>
      <trkpt lat="50.7484" lon="3.72471">
        <ele>37</ele>
        <time>2015-12-13T16:10:42Z</time>
      </trkpt>
      <trkpt lat="50.74838" lon="3.72469">
        <ele>37</ele>
        <time>2015-12-13T16:10:44Z</time>
      </trkpt>
      <trkpt lat="50.74836" lon="3.72467">
        <ele>37</ele>
        <time>2015-12-13T16:10:46Z</time>
      </trkpt>
      <trkpt lat="50.74834" lon="3.72465">
        <ele>37</ele>
        <time>2015-12-13T16:10:48Z</time>
      </trkpt>
      <trkpt lat="50.74832" lon="3.72463">
        <ele>37</ele>
        <time>2015-12-13T16:10:50Z</time>
      </trkpt>
      <trkpt lat="50.7483" lon="3.72461">
        <ele>37</ele>
        <time>2015-12-13T16:10:52Z</time>
      </trkpt>
      <trkpt lat="50.74828" lon="3.72458">
        <ele>37</ele>
        <time>2015-12-13T16:10:54Z</time>
      </trkpt>
      <trkpt lat="50.74825" lon="3.72454">
        <ele>37</ele>
        <time>2015-12-13T16:10:56Z</time>
      </trkpt>
      <trkpt lat="50.74823" lon="3.72452">
        <ele>37</ele>
        <time>2015-12-13T16:10:58Z</time>
      </trkpt>
      <trkpt lat="50.74821" lon="3.72449">
        <ele>37</ele>
        <time>2015-12-13T16:11:00Z</time>
      </trkpt>
      <trkpt lat="50.74818" lon="3.72447">
        <ele>38</ele>
        <time>2015-12-13T16:11:02Z</time>
      </trkpt>
      <trkpt lat="50.74816" lon="3.72445">
        <ele>38</ele>
        <time>2015-12-13T16:11:04Z</time>
      </trkpt>
      <trkpt lat="50.74814" lon="3.72443">
        <ele>38</ele>
        <time>2015-12-13T16:11:06Z</time>
      </trkpt>
      <trkpt lat="50.74812" lon="3.7244">
        <ele>38</ele>
        <time>2015-12-13T16:11:08Z</time>
      </trkpt>
      <trkpt lat="50.74809" lon="3.72438">
        <ele>38</ele>
        <time>2015-12-13T16:11:10Z</time>
      </trkpt>
      <trkpt lat="50.74807" lon="3.72436">
        <ele>38</ele>
        <time>2015-12-13T16:11:12Z</time>
      </trkpt>
      <trkpt lat="50.74805" lon="3.72433">
        <ele>38</ele>
        <time>2015-12-13T16:11:14Z</time>
      </trkpt>
      <trkpt lat="50.74804" lon="3.7243">
        <ele>38</ele>
        <time>2015-12-13T16:11:16Z</time>
      </trkpt>
      <trkpt lat="50.74802" lon="3.72426">
        <ele>38</ele>
        <time>2015-12-13T16:11:18Z</time>
      </trkpt>
      <trkpt lat="50.74799" lon="3.72424">
        <ele>38</ele>
        <time>2015-12-13T16:11:20Z</time>
      </trkpt>
      <trkpt lat="50.74797" lon="3.72422">
        <ele>39</ele>
        <time>2015-12-13T16:11:22Z</time>
      </trkpt>
      <trkpt lat="50.74795" lon="3.7242">
        <ele>39</ele>
        <time>2015-12-13T16:11:24Z</time>
      </trkpt>
      <trkpt lat="50.74793" lon="3.72417">
        <ele>39</ele>
        <time>2015-12-13T16:11:26Z</time>
      </trkpt>
      <trkpt lat="50.74792" lon="3.72415">
        <ele>39</ele>
        <time>2015-12-13T16:11:28Z</time>
      </trkpt>
      <trkpt lat="50.74789" lon="3.72413">
        <ele>39</ele>
        <time>2015-12-13T16:11:30Z</time>
      </trkpt>
      <trkpt lat="50.74787" lon="3.7241">
        <ele>40</ele>
        <time>2015-12-13T16:11:32Z</time>
      </trkpt>
      <trkpt lat="50.74785" lon="3.72408">
        <ele>40</ele>
        <time>2015-12-13T16:11:34Z</time>
      </trkpt>
      <trkpt lat="50.74783" lon="3.72406">
        <ele>40</ele>
        <time>2015-12-13T16:11:36Z</time>
      </trkpt>
      <trkpt lat="50.7478" lon="3.72404">
        <ele>40</ele>
        <time>2015-12-13T16:11:38Z</time>
      </trkpt>
      <trkpt lat="50.74778" lon="3.72402">
        <ele>40</ele>
        <time>2015-12-13T16:11:40Z</time>
      </trkpt>
      <trkpt lat="50.74775" lon="3.724">
        <ele>41</ele>
        <time>2015-12-13T16:11:42Z</time>
      </trkpt>
      <trkpt lat="50.74773" lon="3.72398">
        <ele>41</ele>
        <time>2015-12-13T16:11:44Z</time>
      </trkpt>
      <trkpt lat="50.74771" lon="3.72396">
        <ele>41</ele>
        <time>2015-12-13T16:11:46Z</time>
      </trkpt>
      <trkpt lat="50.74769" lon="3.72393">
        <ele>41</ele>
        <time>2015-12-13T16:11:48Z</time>
      </trkpt>
      <trkpt lat="50.74767" lon="3.72391">
        <ele>41</ele>
        <time>2015-12-13T16:11:50Z</time>
      </trkpt>
      <trkpt lat="50.74764" lon="3.72389">
        <ele>41</ele>
        <time>2015-12-13T16:11:52Z</time>
      </trkpt>
      <trkpt lat="50.74762" lon="3.72387">
        <ele>41</ele>
        <time>2015-12-13T16:11:54Z</time>
      </trkpt>
      <trkpt lat="50.7476" lon="3.72386">
        <ele>41</ele>
        <time>2015-12-13T16:11:56Z</time>
      </trkpt>
      <trkpt lat="50.74758" lon="3.72384">
        <ele>41</ele>
        <time>2015-12-13T16:11:58Z</time>
      </trkpt>
      <trkpt lat="50.74755" lon="3.72382">
        <ele>41</ele>
        <time>2015-12-13T16:12:00Z</time>
      </trkpt>
      <trkpt lat="50.74753" lon="3.72381">
        <ele>42</ele>
        <time>2015-12-13T16:12:02Z</time>
      </trkpt>
      <trkpt lat="50.74751" lon="3.72379">
        <ele>42</ele>
        <time>2015-12-13T16:12:04Z</time>
      </trkpt>
      <trkpt lat="50.74748" lon="3.72377">
        <ele>42</ele>
        <time>2015-12-13T16:12:06Z</time>
      </trkpt>
      <trkpt lat="50.74746" lon="3.72376">
        <ele>42</ele>
        <time>2015-12-13T16:12:08Z</time>
      </trkpt>
      <trkpt lat="50.74744" lon="3.72374">
        <ele>42</ele>
        <time>2015-12-13T16:12:10Z</time>
      </trkpt>
      <trkpt lat="50.74741" lon="3.72374">
        <ele>42</ele>
        <time>2015-12-13T16:12:12Z</time>
      </trkpt>
      <trkpt lat="50.74738" lon="3.72374">
        <ele>42</ele>
        <time>2015-12-13T16:12:14Z</time>
      </trkpt>
      <trkpt lat="50.74736" lon="3.72373">
        <ele>42</ele>
        <time>2015-12-13T16:12:16Z</time>
      </trkpt>
      <trkpt lat="50.74734" lon="3.72372">
        <ele>42</ele>
        <time>2015-12-13T16:12:18Z</time>
      </trkpt>
      <trkpt lat="50.74731" lon="3.72372">
        <ele>42</ele>
        <time>2015-12-13T16:12:20Z</time>
      </trkpt>
      <trkpt lat="50.74729" lon="3.72372">
        <ele>42</ele>
        <time>2015-12-13T16:12:21Z</time>
      </trkpt>
      <trkpt lat="50.74726" lon="3.72373">
        <ele>42</ele>
        <time>2015-12-13T16:12:23Z</time>
      </trkpt>
      <trkpt lat="50.74724" lon="3.72374">
        <ele>42</ele>
        <time>2015-12-13T16:12:25Z</time>
      </trkpt>
      <trkpt lat="50.74721" lon="3.72374">
        <ele>42</ele>
        <time>2015-12-13T16:12:27Z</time>
      </trkpt>
      <trkpt lat="50.74718" lon="3.72374">
        <ele>42</ele>
        <time>2015-12-13T16:12:29Z</time>
      </trkpt>
      <trkpt lat="50.74715" lon="3.72374">
        <ele>43.4</ele>
        <time>2015-12-13T16:12:31Z</time>
      </trkpt>
      <trkpt lat="50.74713" lon="3.72375">
        <ele>44</ele>
        <time>2015-12-13T16:12:33Z</time>
      </trkpt>
      <trkpt lat="50.74711" lon="3.72375">
        <ele>44</ele>
        <time>2015-12-13T16:12:35Z</time>
      </trkpt>
      <trkpt lat="50.74709" lon="3.72375">
        <ele>44</ele>
        <time>2015-12-13T16:12:37Z</time>
      </trkpt>
      <trkpt lat="50.74706" lon="3.72376">
        <ele>44</ele>
        <time>2015-12-13T16:12:39Z</time>
      </trkpt>
      <trkpt lat="50.74704" lon="3.72376">
        <ele>44</ele>
        <time>2015-12-13T16:12:41Z</time>
      </trkpt>
      <trkpt lat="50.74701" lon="3.72377">
        <ele>44</ele>
        <time>2015-12-13T16:12:43Z</time>
      </trkpt>
      <trkpt lat="50.74699" lon="3.72379">
        <ele>44</ele>
        <time>2015-12-13T16:12:45Z</time>
      </trkpt>
      <trkpt lat="50.74696" lon="3.7238">
        <ele>44</ele>
        <time>2015-12-13T16:12:47Z</time>
      </trkpt>
      <trkpt lat="50.74693" lon="3.72382">
        <ele>44</ele>
        <time>2015-12-13T16:12:49Z</time>
      </trkpt>
      <trkpt lat="50.74692" lon="3.72385">
        <ele>44</ele>
        <time>2015-12-13T16:12:51Z</time>
      </trkpt>
      <trkpt lat="50.74691" lon="3.72389">
        <ele>44</ele>
        <time>2015-12-13T16:12:53Z</time>
      </trkpt>
      <trkpt lat="50.7469" lon="3.72392">
        <ele>44</ele>
        <time>2015-12-13T16:12:55Z</time>
      </trkpt>
      <trkpt lat="50.74689" lon="3.72396">
        <ele>44</ele>
        <time>2015-12-13T16:12:57Z</time>
      </trkpt>
      <trkpt lat="50.74688" lon="3.724">
        <ele>44</ele>
        <time>2015-12-13T16:12:59Z</time>
      </trkpt>
      <trkpt lat="50.74687" lon="3.72405">
        <ele>43.3</ele>
        <time>2015-12-13T16:13:01Z</time>
      </trkpt>
      <trkpt lat="50.74687" lon="3.72409">
        <ele>43</ele>
        <time>2015-12-13T16:13:03Z</time>
      </trkpt>
      <trkpt lat="50.74686" lon="3.72413">
        <ele>43</ele>
        <time>2015-12-13T16:13:05Z</time>
      </trkpt>
      <trkpt lat="50.74685" lon="3.72417">
        <ele>43</ele>
        <time>2015-12-13T16:13:07Z</time>
      </trkpt>
      <trkpt lat="50.74684" lon="3.72421">
        <ele>43</ele>
        <time>2015-12-13T16:13:09Z</time>
      </trkpt>
      <trkpt lat="50.74683" lon="3.72426">
        <ele>43.7</ele>
        <time>2015-12-13T16:13:11Z</time>
      </trkpt>
      <trkpt lat="50.74682" lon="3.7243">
        <ele>44</ele>
        <time>2015-12-13T16:13:13Z</time>
      </trkpt>
      <trkpt lat="50.74682" lon="3.72434">
        <ele>44</ele>
        <time>2015-12-13T16:13:15Z</time>
      </trkpt>
      <trkpt lat="50.74681" lon="3.72439">
        <ele>44</ele>
        <time>2015-12-13T16:13:17Z</time>
      </trkpt>
      <trkpt lat="50.7468" lon="3.72443">
        <ele>44</ele>
        <time>2015-12-13T16:13:19Z</time>
      </trkpt>
      <trkpt lat="50.74679" lon="3.72446">
        <ele>44</ele>
        <time>2015-12-13T16:13:20Z</time>
      </trkpt>
      <trkpt lat="50.74678" lon="3.72449">
        <ele>44</ele>
        <time>2015-12-13T16:13:21Z</time>
      </trkpt>
      <trkpt lat="50.74677" lon="3.72452">
        <ele>44</ele>
        <time>2015-12-13T16:13:22Z</time>
      </trkpt>
      <trkpt lat="50.74676" lon="3.72455">
        <ele>44</ele>
        <time>2015-12-13T16:13:23Z</time>
      </trkpt>
      <trkpt lat="50.74675" lon="3.72458">
        <ele>44</ele>
        <time>2015-12-13T16:13:24Z</time>
      </trkpt>
      <trkpt lat="50.74675" lon="3.72462">
        <ele>44</ele>
        <time>2015-12-13T16:13:25Z</time>
      </trkpt>
      <trkpt lat="50.74674" lon="3.72465">
        <ele>44</ele>
        <time>2015-12-13T16:13:26Z</time>
      </trkpt>
      <trkpt lat="50.74673" lon="3.72468">
        <ele>44</ele>
        <time>2015-12-13T16:13:27Z</time>
      </trkpt>
      <trkpt lat="50.74672" lon="3.72471">
        <ele>44</ele>
        <time>2015-12-13T16:13:28Z</time>
      </trkpt>
      <trkpt lat="50.74671" lon="3.72474">
        <ele>44</ele>
        <time>2015-12-13T16:13:29Z</time>
      </trkpt>
      <trkpt lat="50.74671" lon="3.72477">
        <ele>44</ele>
        <time>2015-12-13T16:13:30Z</time>
      </trkpt>
      <trkpt lat="50.7467" lon="3.7248">
        <ele>44</ele>
        <time>2015-12-13T16:13:31Z</time>
      </trkpt>
      <trkpt lat="50.74669" lon="3.72484">
        <ele>44</ele>
        <time>2015-12-13T16:13:32Z</time>
      </trkpt>
      <trkpt lat="50.74669" lon="3.72487">
        <ele>44</ele>
        <time>2015-12-13T16:13:33Z</time>
      </trkpt>
      <trkpt lat="50.74668" lon="3.72491">
        <ele>44</ele>
        <time>2015-12-13T16:13:34Z</time>
      </trkpt>
      <trkpt lat="50.74667" lon="3.72494">
        <ele>44</ele>
        <time>2015-12-13T16:13:35Z</time>
      </trkpt>
      <trkpt lat="50.74667" lon="3.72497">
        <ele>44</ele>
        <time>2015-12-13T16:13:36Z</time>
      </trkpt>
      <trkpt lat="50.74666" lon="3.72501">
        <ele>44</ele>
        <time>2015-12-13T16:13:37Z</time>
      </trkpt>
      <trkpt lat="50.74665" lon="3.72504">
        <ele>44</ele>
        <time>2015-12-13T16:13:38Z</time>
      </trkpt>
      <trkpt lat="50.74664" lon="3.72508">
        <ele>44</ele>
        <time>2015-12-13T16:13:39Z</time>
      </trkpt>
      <trkpt lat="50.74663" lon="3.72511">
        <ele>44</ele>
        <time>2015-12-13T16:13:40Z</time>
      </trkpt>
      <trkpt lat="50.74663" lon="3.72515">
        <ele>43.5</ele>
        <time>2015-12-13T16:13:41Z</time>
      </trkpt>
      <trkpt lat="50.74662" lon="3.72519">
        <ele>43</ele>
        <time>2015-12-13T16:13:42Z</time>
      </trkpt>
      <trkpt lat="50.74661" lon="3.72522">
        <ele>43</ele>
        <time>2015-12-13T16:13:43Z</time>
      </trkpt>
      <trkpt lat="50.74661" lon="3.72526">
        <ele>43</ele>
        <time>2015-12-13T16:13:44Z</time>
      </trkpt>
      <trkpt lat="50.7466" lon="3.7253">
        <ele>43</ele>
        <time>2015-12-13T16:13:45Z</time>
      </trkpt>
      <trkpt lat="50.74659" lon="3.72533">
        <ele>43</ele>
        <time>2015-12-13T16:13:46Z</time>
      </trkpt>
      <trkpt lat="50.74658" lon="3.72537">
        <ele>43</ele>
        <time>2015-12-13T16:13:47Z</time>
      </trkpt>
      <trkpt lat="50.74657" lon="3.72541">
        <ele>43</ele>
        <time>2015-12-13T16:13:48Z</time>
      </trkpt>
      <trkpt lat="50.74657" lon="3.72545">
        <ele>43</ele>
        <time>2015-12-13T16:13:49Z</time>
      </trkpt>
      <trkpt lat="50.74656" lon="3.72548">
        <ele>43</ele>
        <time>2015-12-13T16:13:50Z</time>
      </trkpt>
      <trkpt lat="50.74655" lon="3.72552">
        <ele>42.3</ele>
        <time>2015-12-13T16:13:51Z</time>
      </trkpt>
      <trkpt lat="50.74654" lon="3.72556">
        <ele>42</ele>
        <time>2015-12-13T16:13:52Z</time>
      </trkpt>
      <trkpt lat="50.74653" lon="3.72559">
        <ele>42</ele>
        <time>2015-12-13T16:13:53Z</time>
      </trkpt>
      <trkpt lat="50.74652" lon="3.72563">
        <ele>42</ele>
        <time>2015-12-13T16:13:54Z</time>
      </trkpt>
      <trkpt lat="50.74651" lon="3.72567">
        <ele>42</ele>
        <time>2015-12-13T16:13:55Z</time>
      </trkpt>
      <trkpt lat="50.7465" lon="3.7257">
        <ele>42</ele>
        <time>2015-12-13T16:13:56Z</time>
      </trkpt>
      <trkpt lat="50.74649" lon="3.72574">
        <ele>42</ele>
        <time>2015-12-13T16:13:57Z</time>
      </trkpt>
      <trkpt lat="50.74648" lon="3.72578">
        <ele>42</ele>
        <time>2015-12-13T16:13:58Z</time>
      </trkpt>
      <trkpt lat="50.74647" lon="3.72582">
        <ele>42</ele>
        <time>2015-12-13T16:13:59Z</time>
      </trkpt>
      <trkpt lat="50.74647" lon="3.72585">
        <ele>42</ele>
        <time>2015-12-13T16:14:00Z</time>
      </trkpt>
      <trkpt lat="50.74646" lon="3.72588">
        <ele>42</ele>
        <time>2015-12-13T16:14:01Z</time>
      </trkpt>
      <trkpt lat="50.74645" lon="3.72592">
        <ele>42</ele>
        <time>2015-12-13T16:14:02Z</time>
      </trkpt>
      <trkpt lat="50.74644" lon="3.72594">
        <ele>42</ele>
        <time>2015-12-13T16:14:03Z</time>
      </trkpt>
      <trkpt lat="50.74643" lon="3.72597">
        <ele>42</ele>
        <time>2015-12-13T16:14:04Z</time>
      </trkpt>
      <trkpt lat="50.74642" lon="3.726">
        <ele>42</ele>
        <time>2015-12-13T16:14:05Z</time>
      </trkpt>
      <trkpt lat="50.74642" lon="3.72603">
        <ele>42</ele>
        <time>2015-12-13T16:14:06Z</time>
      </trkpt>
      <trkpt lat="50.74641" lon="3.72607">
        <ele>42</ele>
        <time>2015-12-13T16:14:07Z</time>
      </trkpt>
      <trkpt lat="50.7464" lon="3.7261">
        <ele>42</ele>
        <time>2015-12-13T16:14:08Z</time>
      </trkpt>
      <trkpt lat="50.7464" lon="3.72613">
        <ele>42</ele>
        <time>2015-12-13T16:14:09Z</time>
      </trkpt>
      <trkpt lat="50.74639" lon="3.72616">
        <ele>42</ele>
        <time>2015-12-13T16:14:10Z</time>
      </trkpt>
      <trkpt lat="50.74639" lon="3.72619">
        <ele>42</ele>
        <time>2015-12-13T16:14:11Z</time>
      </trkpt>
      <trkpt lat="50.74638" lon="3.72622">
        <ele>42</ele>
        <time>2015-12-13T16:14:12Z</time>
      </trkpt>
      <trkpt lat="50.74637" lon="3.72626">
        <ele>42</ele>
        <time>2015-12-13T16:14:13Z</time>
      </trkpt>
      <trkpt lat="50.74636" lon="3.7263">
        <ele>42</ele>
        <time>2015-12-13T16:14:14Z</time>
      </trkpt>
      <trkpt lat="50.74636" lon="3.72633">
        <ele>42</ele>
        <time>2015-12-13T16:14:15Z</time>
      </trkpt>
      <trkpt lat="50.74635" lon="3.72637">
        <ele>42</ele>
        <time>2015-12-13T16:14:16Z</time>
      </trkpt>
      <trkpt lat="50.74634" lon="3.7264">
        <ele>42</ele>
        <time>2015-12-13T16:14:17Z</time>
      </trkpt>
      <trkpt lat="50.74633" lon="3.72644">
        <ele>42</ele>
        <time>2015-12-13T16:14:18Z</time>
      </trkpt>
      <trkpt lat="50.74632" lon="3.72648">
        <ele>42</ele>
        <time>2015-12-13T16:14:19Z</time>
      </trkpt>
      <trkpt lat="50.74632" lon="3.72652">
        <ele>42</ele>
        <time>2015-12-13T16:14:20Z</time>
      </trkpt>
      <trkpt lat="50.74631" lon="3.72656">
        <ele>42</ele>
        <time>2015-12-13T16:14:21Z</time>
      </trkpt>
      <trkpt lat="50.7463" lon="3.7266">
        <ele>42</ele>
        <time>2015-12-13T16:14:22Z</time>
      </trkpt>
      <trkpt lat="50.74629" lon="3.72664">
        <ele>42</ele>
        <time>2015-12-13T16:14:23Z</time>
      </trkpt>
      <trkpt lat="50.74628" lon="3.72667">
        <ele>42</ele>
        <time>2015-12-13T16:14:24Z</time>
      </trkpt>
      <trkpt lat="50.74627" lon="3.72671">
        <ele>42</ele>
        <time>2015-12-13T16:14:25Z</time>
      </trkpt>
      <trkpt lat="50.74626" lon="3.72675">
        <ele>42</ele>
        <time>2015-12-13T16:14:26Z</time>
      </trkpt>
      <trkpt lat="50.74625" lon="3.72678">
        <ele>42</ele>
        <time>2015-12-13T16:14:27Z</time>
      </trkpt>
      <trkpt lat="50.74624" lon="3.72682">
        <ele>42</ele>
        <time>2015-12-13T16:14:28Z</time>
      </trkpt>
      <trkpt lat="50.74622" lon="3.72686">
        <ele>42</ele>
        <time>2015-12-13T16:14:29Z</time>
      </trkpt>
      <trkpt lat="50.74622" lon="3.72689">
        <ele>42</ele>
        <time>2015-12-13T16:14:30Z</time>
      </trkpt>
      <trkpt lat="50.74621" lon="3.72693">
        <ele>42</ele>
        <time>2015-12-13T16:14:31Z</time>
      </trkpt>
      <trkpt lat="50.7462" lon="3.72697">
        <ele>42</ele>
        <time>2015-12-13T16:14:32Z</time>
      </trkpt>
      <trkpt lat="50.7462" lon="3.727">
        <ele>42</ele>
        <time>2015-12-13T16:14:33Z</time>
      </trkpt>
      <trkpt lat="50.74619" lon="3.72704">
        <ele>42</ele>
        <time>2015-12-13T16:14:34Z</time>
      </trkpt>
      <trkpt lat="50.74618" lon="3.72708">
        <ele>42</ele>
        <time>2015-12-13T16:14:35Z</time>
      </trkpt>
      <trkpt lat="50.74617" lon="3.72712">
        <ele>42</ele>
        <time>2015-12-13T16:14:36Z</time>
      </trkpt>
      <trkpt lat="50.74616" lon="3.72715">
        <ele>42</ele>
        <time>2015-12-13T16:14:37Z</time>
      </trkpt>
      <trkpt lat="50.74615" lon="3.72719">
        <ele>42</ele>
        <time>2015-12-13T16:14:38Z</time>
      </trkpt>
      <trkpt lat="50.74615" lon="3.72723">
        <ele>42</ele>
        <time>2015-12-13T16:14:39Z</time>
      </trkpt>
      <trkpt lat="50.74614" lon="3.72726">
        <ele>42</ele>
        <time>2015-12-13T16:14:40Z</time>
      </trkpt>
      <trkpt lat="50.74613" lon="3.7273">
        <ele>41.5</ele>
        <time>2015-12-13T16:14:41Z</time>
      </trkpt>
      <trkpt lat="50.74612" lon="3.72733">
        <ele>41</ele>
        <time>2015-12-13T16:14:42Z</time>
      </trkpt>
      <trkpt lat="50.74611" lon="3.72736">
        <ele>41</ele>
        <time>2015-12-13T16:14:43Z</time>
      </trkpt>
      <trkpt lat="50.74611" lon="3.7274">
        <ele>41</ele>
        <time>2015-12-13T16:14:44Z</time>
      </trkpt>
      <trkpt lat="50.7461" lon="3.72743">
        <ele>41</ele>
        <time>2015-12-13T16:14:45Z</time>
      </trkpt>
      <trkpt lat="50.74609" lon="3.72746">
        <ele>41</ele>
        <time>2015-12-13T16:14:46Z</time>
      </trkpt>
      <trkpt lat="50.74609" lon="3.7275">
        <ele>41</ele>
        <time>2015-12-13T16:14:47Z</time>
      </trkpt>
      <trkpt lat="50.74608" lon="3.72753">
        <ele>41</ele>
        <time>2015-12-13T16:14:48Z</time>
      </trkpt>
      <trkpt lat="50.74607" lon="3.72757">
        <ele>41</ele>
        <time>2015-12-13T16:14:49Z</time>
      </trkpt>
      <trkpt lat="50.74606" lon="3.72761">
        <ele>41</ele>
        <time>2015-12-13T16:14:50Z</time>
      </trkpt>
      <trkpt lat="50.74605" lon="3.72765">
        <ele>40.3</ele>
        <time>2015-12-13T16:14:51Z</time>
      </trkpt>
      <trkpt lat="50.74604" lon="3.72768">
        <ele>40</ele>
        <time>2015-12-13T16:14:52Z</time>
      </trkpt>
      <trkpt lat="50.74603" lon="3.72772">
        <ele>40</ele>
        <time>2015-12-13T16:14:53Z</time>
      </trkpt>
      <trkpt lat="50.74602" lon="3.72776">
        <ele>40</ele>
        <time>2015-12-13T16:14:54Z</time>
      </trkpt>
      <trkpt lat="50.74601" lon="3.7278">
        <ele>40</ele>
        <time>2015-12-13T16:14:55Z</time>
      </trkpt>
      <trkpt lat="50.746" lon="3.72784">
        <ele>40</ele>
        <time>2015-12-13T16:14:56Z</time>
      </trkpt>
      <trkpt lat="50.74599" lon="3.72788">
        <ele>40</ele>
        <time>2015-12-13T16:14:57Z</time>
      </trkpt>
      <trkpt lat="50.74598" lon="3.72792">
        <ele>40</ele>
        <time>2015-12-13T16:14:58Z</time>
      </trkpt>
      <trkpt lat="50.74597" lon="3.72795">
        <ele>40</ele>
        <time>2015-12-13T16:14:59Z</time>
      </trkpt>
      <trkpt lat="50.74596" lon="3.72799">
        <ele>40</ele>
        <time>2015-12-13T16:15:00Z</time>
      </trkpt>
      <trkpt lat="50.74595" lon="3.72802">
        <ele>39.7</ele>
        <time>2015-12-13T16:15:01Z</time>
      </trkpt>
      <trkpt lat="50.74594" lon="3.72806">
        <ele>39</ele>
        <time>2015-12-13T16:15:02Z</time>
      </trkpt>
      <trkpt lat="50.74593" lon="3.72809">
        <ele>39</ele>
        <time>2015-12-13T16:15:03Z</time>
      </trkpt>
      <trkpt lat="50.74592" lon="3.72813">
        <ele>39</ele>
        <time>2015-12-13T16:15:04Z</time>
      </trkpt>
      <trkpt lat="50.74592" lon="3.72817">
        <ele>39</ele>
        <time>2015-12-13T16:15:05Z</time>
      </trkpt>
      <trkpt lat="50.74591" lon="3.72821">
        <ele>39</ele>
        <time>2015-12-13T16:15:06Z</time>
      </trkpt>
      <trkpt lat="50.7459" lon="3.72825">
        <ele>39</ele>
        <time>2015-12-13T16:15:07Z</time>
      </trkpt>
      <trkpt lat="50.74589" lon="3.72828">
        <ele>39</ele>
        <time>2015-12-13T16:15:08Z</time>
      </trkpt>
      <trkpt lat="50.74588" lon="3.72832">
        <ele>39</ele>
        <time>2015-12-13T16:15:09Z</time>
      </trkpt>
      <trkpt lat="50.74587" lon="3.72835">
        <ele>39</ele>
        <time>2015-12-13T16:15:10Z</time>
      </trkpt>
      <trkpt lat="50.74586" lon="3.72839">
        <ele>39</ele>
        <time>2015-12-13T16:15:11Z</time>
      </trkpt>
      <trkpt lat="50.74586" lon="3.72842">
        <ele>39</ele>
        <time>2015-12-13T16:15:12Z</time>
      </trkpt>
      <trkpt lat="50.74585" lon="3.72846">
        <ele>39</ele>
        <time>2015-12-13T16:15:13Z</time>
      </trkpt>
      <trkpt lat="50.74584" lon="3.72849">
        <ele>39</ele>
        <time>2015-12-13T16:15:14Z</time>
      </trkpt>
      <trkpt lat="50.74583" lon="3.72853">
        <ele>39</ele>
        <time>2015-12-13T16:15:15Z</time>
      </trkpt>
      <trkpt lat="50.74582" lon="3.72857">
        <ele>39</ele>
        <time>2015-12-13T16:15:16Z</time>
      </trkpt>
      <trkpt lat="50.74581" lon="3.7286">
        <ele>39</ele>
        <time>2015-12-13T16:15:17Z</time>
      </trkpt>
      <trkpt lat="50.7458" lon="3.72864">
        <ele>39</ele>
        <time>2015-12-13T16:15:18Z</time>
      </trkpt>
      <trkpt lat="50.7458" lon="3.72868">
        <ele>39</ele>
        <time>2015-12-13T16:15:19Z</time>
      </trkpt>
      <trkpt lat="50.74579" lon="3.72872">
        <ele>39</ele>
        <time>2015-12-13T16:15:20Z</time>
      </trkpt>
      <trkpt lat="50.74578" lon="3.72876">
        <ele>39</ele>
        <time>2015-12-13T16:15:21Z</time>
      </trkpt>
      <trkpt lat="50.74576" lon="3.7288">
        <ele>39</ele>
        <time>2015-12-13T16:15:22Z</time>
      </trkpt>
      <trkpt lat="50.74575" lon="3.72883">
        <ele>39</ele>
        <time>2015-12-13T16:15:23Z</time>
      </trkpt>
      <trkpt lat="50.74574" lon="3.72887">
        <ele>39</ele>
        <time>2015-12-13T16:15:24Z</time>
      </trkpt>
      <trkpt lat="50.74573" lon="3.72891">
        <ele>39</ele>
        <time>2015-12-13T16:15:25Z</time>
      </trkpt>
      <trkpt lat="50.74572" lon="3.72894">
        <ele>39</ele>
        <time>2015-12-13T16:15:26Z</time>
      </trkpt>
      <trkpt lat="50.74572" lon="3.72898">
        <ele>39</ele>
        <time>2015-12-13T16:15:27Z</time>
      </trkpt>
      <trkpt lat="50.74571" lon="3.72901">
        <ele>39</ele>
        <time>2015-12-13T16:15:28Z</time>
      </trkpt>
      <trkpt lat="50.7457" lon="3.72905">
        <ele>39</ele>
        <time>2015-12-13T16:15:29Z</time>
      </trkpt>
      <trkpt lat="50.74569" lon="3.72908">
        <ele>39</ele>
        <time>2015-12-13T16:15:30Z</time>
      </trkpt>
      <trkpt lat="50.74569" lon="3.72911">
        <ele>38.3</ele>
        <time>2015-12-13T16:15:31Z</time>
      </trkpt>
      <trkpt lat="50.74568" lon="3.72915">
        <ele>38</ele>
        <time>2015-12-13T16:15:32Z</time>
      </trkpt>
      <trkpt lat="50.74567" lon="3.72918">
        <ele>38</ele>
        <time>2015-12-13T16:15:33Z</time>
      </trkpt>
      <trkpt lat="50.74566" lon="3.72922">
        <ele>38</ele>
        <time>2015-12-13T16:15:34Z</time>
      </trkpt>
      <trkpt lat="50.74566" lon="3.72926">
        <ele>38</ele>
        <time>2015-12-13T16:15:35Z</time>
      </trkpt>
      <trkpt lat="50.74565" lon="3.7293">
        <ele>38</ele>
        <time>2015-12-13T16:15:36Z</time>
      </trkpt>
      <trkpt lat="50.74564" lon="3.72933">
        <ele>38</ele>
        <time>2015-12-13T16:15:37Z</time>
      </trkpt>
      <trkpt lat="50.74563" lon="3.72937">
        <ele>38</ele>
        <time>2015-12-13T16:15:38Z</time>
      </trkpt>
      <trkpt lat="50.74562" lon="3.72941">
        <ele>38</ele>
        <time>2015-12-13T16:15:39Z</time>
      </trkpt>
      <trkpt lat="50.74561" lon="3.72944">
        <ele>38</ele>
        <time>2015-12-13T16:15:40Z</time>
      </trkpt>
      <trkpt lat="50.7456" lon="3.72948">
        <ele>38</ele>
        <time>2015-12-13T16:15:41Z</time>
      </trkpt>
      <trkpt lat="50.74559" lon="3.72952">
        <ele>38</ele>
        <time>2015-12-13T16:15:42Z</time>
      </trkpt>
      <trkpt lat="50.74559" lon="3.72955">
        <ele>38</ele>
        <time>2015-12-13T16:15:43Z</time>
      </trkpt>
      <trkpt lat="50.74558" lon="3.72959">
        <ele>38</ele>
        <time>2015-12-13T16:15:44Z</time>
      </trkpt>
      <trkpt lat="50.74557" lon="3.72963">
        <ele>38</ele>
        <time>2015-12-13T16:15:45Z</time>
      </trkpt>
      <trkpt lat="50.74556" lon="3.72967">
        <ele>38</ele>
        <time>2015-12-13T16:15:46Z</time>
      </trkpt>
      <trkpt lat="50.74555" lon="3.72971">
        <ele>38</ele>
        <time>2015-12-13T16:15:47Z</time>
      </trkpt>
      <trkpt lat="50.74555" lon="3.72975">
        <ele>38</ele>
        <time>2015-12-13T16:15:48Z</time>
      </trkpt>
      <trkpt lat="50.74553" lon="3.72978">
        <ele>38</ele>
        <time>2015-12-13T16:15:49Z</time>
      </trkpt>
      <trkpt lat="50.74552" lon="3.72982">
        <ele>38</ele>
        <time>2015-12-13T16:15:50Z</time>
      </trkpt>
      <trkpt lat="50.74551" lon="3.72985">
        <ele>38</ele>
        <time>2015-12-13T16:15:51Z</time>
      </trkpt>
      <trkpt lat="50.7455" lon="3.72989">
        <ele>38</ele>
        <time>2015-12-13T16:15:52Z</time>
      </trkpt>
      <trkpt lat="50.74549" lon="3.72993">
        <ele>38</ele>
        <time>2015-12-13T16:15:53Z</time>
      </trkpt>
      <trkpt lat="50.74548" lon="3.72997">
        <ele>38</ele>
        <time>2015-12-13T16:15:54Z</time>
      </trkpt>
      <trkpt lat="50.74548" lon="3.73">
        <ele>38</ele>
        <time>2015-12-13T16:15:55Z</time>
      </trkpt>
      <trkpt lat="50.74547" lon="3.73004">
        <ele>38</ele>
        <time>2015-12-13T16:15:56Z</time>
      </trkpt>
      <trkpt lat="50.74546" lon="3.73007">
        <ele>38</ele>
        <time>2015-12-13T16:15:57Z</time>
      </trkpt>
      <trkpt lat="50.74545" lon="3.73011">
        <ele>38</ele>
        <time>2015-12-13T16:15:58Z</time>
      </trkpt>
      <trkpt lat="50.74544" lon="3.73014">
        <ele>38</ele>
        <time>2015-12-13T16:15:59Z</time>
      </trkpt>
      <trkpt lat="50.74544" lon="3.73017">
        <ele>38</ele>
        <time>2015-12-13T16:16:00Z</time>
      </trkpt>
      <trkpt lat="50.74543" lon="3.73021">
        <ele>38</ele>
        <time>2015-12-13T16:16:01Z</time>
      </trkpt>
      <trkpt lat="50.74542" lon="3.73025">
        <ele>38</ele>
        <time>2015-12-13T16:16:02Z</time>
      </trkpt>
      <trkpt lat="50.74542" lon="3.73028">
        <ele>38</ele>
        <time>2015-12-13T16:16:03Z</time>
      </trkpt>
      <trkpt lat="50.74541" lon="3.73032">
        <ele>38</ele>
        <time>2015-12-13T16:16:04Z</time>
      </trkpt>
      <trkpt lat="50.7454" lon="3.73036">
        <ele>38</ele>
        <time>2015-12-13T16:16:05Z</time>
      </trkpt>
      <trkpt lat="50.74539" lon="3.73039">
        <ele>38</ele>
        <time>2015-12-13T16:16:06Z</time>
      </trkpt>
      <trkpt lat="50.74538" lon="3.73042">
        <ele>38</ele>
        <time>2015-12-13T16:16:07Z</time>
      </trkpt>
      <trkpt lat="50.74537" lon="3.73046">
        <ele>38</ele>
        <time>2015-12-13T16:16:08Z</time>
      </trkpt>
      <trkpt lat="50.74536" lon="3.73049">
        <ele>38</ele>
        <time>2015-12-13T16:16:09Z</time>
      </trkpt>
      <trkpt lat="50.74535" lon="3.73053">
        <ele>38</ele>
        <time>2015-12-13T16:16:10Z</time>
      </trkpt>
      <trkpt lat="50.74534" lon="3.73056">
        <ele>38</ele>
        <time>2015-12-13T16:16:11Z</time>
      </trkpt>
      <trkpt lat="50.74533" lon="3.73059">
        <ele>38</ele>
        <time>2015-12-13T16:16:12Z</time>
      </trkpt>
      <trkpt lat="50.74532" lon="3.73063">
        <ele>38</ele>
        <time>2015-12-13T16:16:13Z</time>
      </trkpt>
      <trkpt lat="50.74531" lon="3.73066">
        <ele>38</ele>
        <time>2015-12-13T16:16:14Z</time>
      </trkpt>
      <trkpt lat="50.7453" lon="3.7307">
        <ele>38</ele>
        <time>2015-12-13T16:16:15Z</time>
      </trkpt>
      <trkpt lat="50.74529" lon="3.73073">
        <ele>38</ele>
        <time>2015-12-13T16:16:16Z</time>
      </trkpt>
      <trkpt lat="50.74528" lon="3.73076">
        <ele>38</ele>
        <time>2015-12-13T16:16:17Z</time>
      </trkpt>
      <trkpt lat="50.74527" lon="3.7308">
        <ele>38</ele>
        <time>2015-12-13T16:16:18Z</time>
      </trkpt>
      <trkpt lat="50.74527" lon="3.73083">
        <ele>38</ele>
        <time>2015-12-13T16:16:19Z</time>
      </trkpt>
      <trkpt lat="50.74526" lon="3.73086">
        <ele>38</ele>
        <time>2015-12-13T16:16:20Z</time>
      </trkpt>
      <trkpt lat="50.74526" lon="3.73089">
        <ele>38</ele>
        <time>2015-12-13T16:16:21Z</time>
      </trkpt>
      <trkpt lat="50.74525" lon="3.73092">
        <ele>38</ele>
        <time>2015-12-13T16:16:22Z</time>
      </trkpt>
      <trkpt lat="50.74524" lon="3.73095">
        <ele>38</ele>
        <time>2015-12-13T16:16:23Z</time>
      </trkpt>
      <trkpt lat="50.74524" lon="3.73099">
        <ele>38</ele>
        <time>2015-12-13T16:16:24Z</time>
      </trkpt>
      <trkpt lat="50.74523" lon="3.73102">
        <ele>38</ele>
        <time>2015-12-13T16:16:25Z</time>
      </trkpt>
      <trkpt lat="50.74522" lon="3.73106">
        <ele>38</ele>
        <time>2015-12-13T16:16:26Z</time>
      </trkpt>
      <trkpt lat="50.7452" lon="3.7311">
        <ele>38</ele>
        <time>2015-12-13T16:16:27Z</time>
      </trkpt>
      <trkpt lat="50.7452" lon="3.73113">
        <ele>38</ele>
        <time>2015-12-13T16:16:28Z</time>
      </trkpt>
      <trkpt lat="50.74519" lon="3.73116">
        <ele>38</ele>
        <time>2015-12-13T16:16:29Z</time>
      </trkpt>
      <trkpt lat="50.74518" lon="3.73119">
        <ele>38</ele>
        <time>2015-12-13T16:16:30Z</time>
      </trkpt>
      <trkpt lat="50.74517" lon="3.73122">
        <ele>37.3</ele>
        <time>2015-12-13T16:16:31Z</time>
      </trkpt>
      <trkpt lat="50.74516" lon="3.73126">
        <ele>37</ele>
        <time>2015-12-13T16:16:32Z</time>
      </trkpt>
      <trkpt lat="50.74515" lon="3.7313">
        <ele>37</ele>
        <time>2015-12-13T16:16:33Z</time>
      </trkpt>
      <trkpt lat="50.74514" lon="3.73134">
        <ele>37</ele>
        <time>2015-12-13T16:16:34Z</time>
      </trkpt>
      <trkpt lat="50.74513" lon="3.73138">
        <ele>37</ele>
        <time>2015-12-13T16:16:35Z</time>
      </trkpt>
      <trkpt lat="50.74512" lon="3.73142">
        <ele>37</ele>
        <time>2015-12-13T16:16:36Z</time>
      </trkpt>
      <trkpt lat="50.74511" lon="3.73145">
        <ele>37</ele>
        <time>2015-12-13T16:16:37Z</time>
      </trkpt>
      <trkpt lat="50.74511" lon="3.73149">
        <ele>37</ele>
        <time>2015-12-13T16:16:38Z</time>
      </trkpt>
      <trkpt lat="50.7451" lon="3.73153">
        <ele>37</ele>
        <time>2015-12-13T16:16:39Z</time>
      </trkpt>
      <trkpt lat="50.74509" lon="3.73157">
        <ele>37</ele>
        <time>2015-12-13T16:16:40Z</time>
      </trkpt>
      <trkpt lat="50.74509" lon="3.7316">
        <ele>37</ele>
        <time>2015-12-13T16:16:41Z</time>
      </trkpt>
      <trkpt lat="50.74508" lon="3.73164">
        <ele>37</ele>
        <time>2015-12-13T16:16:42Z</time>
      </trkpt>
      <trkpt lat="50.74507" lon="3.73167">
        <ele>37</ele>
        <time>2015-12-13T16:16:43Z</time>
      </trkpt>
      <trkpt lat="50.74507" lon="3.73171">
        <ele>37</ele>
        <time>2015-12-13T16:16:44Z</time>
      </trkpt>
      <trkpt lat="50.74506" lon="3.73174">
        <ele>37</ele>
        <time>2015-12-13T16:16:45Z</time>
      </trkpt>
      <trkpt lat="50.74505" lon="3.73177">
        <ele>37</ele>
        <time>2015-12-13T16:16:46Z</time>
      </trkpt>
      <trkpt lat="50.74504" lon="3.73181">
        <ele>37</ele>
        <time>2015-12-13T16:16:47Z</time>
      </trkpt>
      <trkpt lat="50.74503" lon="3.73184">
        <ele>37</ele>
        <time>2015-12-13T16:16:48Z</time>
      </trkpt>
      <trkpt lat="50.74502" lon="3.73188">
        <ele>37</ele>
        <time>2015-12-13T16:16:49Z</time>
      </trkpt>
      <trkpt lat="50.74501" lon="3.73192">
        <ele>37</ele>
        <time>2015-12-13T16:16:50Z</time>
      </trkpt>
      <trkpt lat="50.745" lon="3.73195">
        <ele>36.3</ele>
        <time>2015-12-13T16:16:51Z</time>
      </trkpt>
      <trkpt lat="50.74499" lon="3.73199">
        <ele>36</ele>
        <time>2015-12-13T16:16:52Z</time>
      </trkpt>
      <trkpt lat="50.74499" lon="3.73202">
        <ele>36</ele>
        <time>2015-12-13T16:16:53Z</time>
      </trkpt>
      <trkpt lat="50.74498" lon="3.73206">
        <ele>36</ele>
        <time>2015-12-13T16:16:54Z</time>
      </trkpt>
      <trkpt lat="50.74497" lon="3.73209">
        <ele>36</ele>
        <time>2015-12-13T16:16:55Z</time>
      </trkpt>
      <trkpt lat="50.74496" lon="3.73213">
        <ele>36</ele>
        <time>2015-12-13T16:16:56Z</time>
      </trkpt>
      <trkpt lat="50.74495" lon="3.73216">
        <ele>36</ele>
        <time>2015-12-13T16:16:57Z</time>
      </trkpt>
      <trkpt lat="50.74495" lon="3.73219">
        <ele>36</ele>
        <time>2015-12-13T16:16:58Z</time>
      </trkpt>
      <trkpt lat="50.74494" lon="3.73222">
        <ele>36</ele>
        <time>2015-12-13T16:16:59Z</time>
      </trkpt>
      <trkpt lat="50.74493" lon="3.73226">
        <ele>36</ele>
        <time>2015-12-13T16:17:00Z</time>
      </trkpt>
      <trkpt lat="50.74492" lon="3.73229">
        <ele>36</ele>
        <time>2015-12-13T16:17:01Z</time>
      </trkpt>
      <trkpt lat="50.74492" lon="3.73232">
        <ele>36</ele>
        <time>2015-12-13T16:17:02Z</time>
      </trkpt>
      <trkpt lat="50.74491" lon="3.73236">
        <ele>36</ele>
        <time>2015-12-13T16:17:03Z</time>
      </trkpt>
      <trkpt lat="50.74491" lon="3.73239">
        <ele>36</ele>
        <time>2015-12-13T16:17:04Z</time>
      </trkpt>
      <trkpt lat="50.7449" lon="3.73243">
        <ele>36</ele>
        <time>2015-12-13T16:17:05Z</time>
      </trkpt>
      <trkpt lat="50.74489" lon="3.73246">
        <ele>36</ele>
        <time>2015-12-13T16:17:06Z</time>
      </trkpt>
      <trkpt lat="50.74488" lon="3.7325">
        <ele>36</ele>
        <time>2015-12-13T16:17:07Z</time>
      </trkpt>
      <trkpt lat="50.74487" lon="3.73253">
        <ele>36</ele>
        <time>2015-12-13T16:17:08Z</time>
      </trkpt>
      <trkpt lat="50.74486" lon="3.73257">
        <ele>36</ele>
        <time>2015-12-13T16:17:09Z</time>
      </trkpt>
      <trkpt lat="50.74485" lon="3.7326">
        <ele>36</ele>
        <time>2015-12-13T16:17:10Z</time>
      </trkpt>
      <trkpt lat="50.74484" lon="3.73264">
        <ele>36</ele>
        <time>2015-12-13T16:17:11Z</time>
      </trkpt>
      <trkpt lat="50.74484" lon="3.73267">
        <ele>36</ele>
        <time>2015-12-13T16:17:12Z</time>
      </trkpt>
      <trkpt lat="50.74483" lon="3.73271">
        <ele>36</ele>
        <time>2015-12-13T16:17:13Z</time>
      </trkpt>
      <trkpt lat="50.74482" lon="3.73274">
        <ele>36</ele>
        <time>2015-12-13T16:17:14Z</time>
      </trkpt>
      <trkpt lat="50.74481" lon="3.73278">
        <ele>36</ele>
        <time>2015-12-13T16:17:15Z</time>
      </trkpt>
      <trkpt lat="50.7448" lon="3.73281">
        <ele>36</ele>
        <time>2015-12-13T16:17:16Z</time>
      </trkpt>
      <trkpt lat="50.74479" lon="3.73285">
        <ele>36</ele>
        <time>2015-12-13T16:17:17Z</time>
      </trkpt>
      <trkpt lat="50.74478" lon="3.73289">
        <ele>36</ele>
        <time>2015-12-13T16:17:18Z</time>
      </trkpt>
      <trkpt lat="50.74477" lon="3.73292">
        <ele>36</ele>
        <time>2015-12-13T16:17:19Z</time>
      </trkpt>
      <trkpt lat="50.74476" lon="3.73296">
        <ele>36</ele>
        <time>2015-12-13T16:17:20Z</time>
      </trkpt>
      <trkpt lat="50.74475" lon="3.73299">
        <ele>36</ele>
        <time>2015-12-13T16:17:21Z</time>
      </trkpt>
      <trkpt lat="50.74474" lon="3.73302">
        <ele>36</ele>
        <time>2015-12-13T16:17:22Z</time>
      </trkpt>
      <trkpt lat="50.74474" lon="3.73306">
        <ele>36</ele>
        <time>2015-12-13T16:17:23Z</time>
      </trkpt>
      <trkpt lat="50.74473" lon="3.73309">
        <ele>36</ele>
        <time>2015-12-13T16:17:24Z</time>
      </trkpt>
      <trkpt lat="50.74473" lon="3.73312">
        <ele>36</ele>
        <time>2015-12-13T16:17:25Z</time>
      </trkpt>
      <trkpt lat="50.74472" lon="3.73315">
        <ele>36</ele>
        <time>2015-12-13T16:17:26Z</time>
      </trkpt>
      <trkpt lat="50.74471" lon="3.73319">
        <ele>36</ele>
        <time>2015-12-13T16:17:27Z</time>
      </trkpt>
      <trkpt lat="50.7447" lon="3.73322">
        <ele>36</ele>
        <time>2015-12-13T16:17:28Z</time>
      </trkpt>
      <trkpt lat="50.74469" lon="3.73326">
        <ele>36</ele>
        <time>2015-12-13T16:17:29Z</time>
      </trkpt>
      <trkpt lat="50.74468" lon="3.73329">
        <ele>36</ele>
        <time>2015-12-13T16:17:30Z</time>
      </trkpt>
      <trkpt lat="50.74467" lon="3.73333">
        <ele>36</ele>
        <time>2015-12-13T16:17:31Z</time>
      </trkpt>
      <trkpt lat="50.74466" lon="3.73336">
        <ele>36</ele>
        <time>2015-12-13T16:17:32Z</time>
      </trkpt>
      <trkpt lat="50.74465" lon="3.7334">
        <ele>36</ele>
        <time>2015-12-13T16:17:33Z</time>
      </trkpt>
      <trkpt lat="50.74465" lon="3.73343">
        <ele>36</ele>
        <time>2015-12-13T16:17:34Z</time>
      </trkpt>
      <trkpt lat="50.74464" lon="3.73347">
        <ele>36</ele>
        <time>2015-12-13T16:17:35Z</time>
      </trkpt>
      <trkpt lat="50.74463" lon="3.7335">
        <ele>36</ele>
        <time>2015-12-13T16:17:36Z</time>
      </trkpt>
      <trkpt lat="50.74463" lon="3.73353">
        <ele>36</ele>
        <time>2015-12-13T16:17:37Z</time>
      </trkpt>
      <trkpt lat="50.74462" lon="3.73357">
        <ele>36</ele>
        <time>2015-12-13T16:17:38Z</time>
      </trkpt>
      <trkpt lat="50.74461" lon="3.73361">
        <ele>36</ele>
        <time>2015-12-13T16:17:39Z</time>
      </trkpt>
      <trkpt lat="50.7446" lon="3.73364">
        <ele>36</ele>
        <time>2015-12-13T16:17:40Z</time>
      </trkpt>
      <trkpt lat="50.74459" lon="3.73368">
        <ele>36</ele>
        <time>2015-12-13T16:17:41Z</time>
      </trkpt>
      <trkpt lat="50.74458" lon="3.73371">
        <ele>36</ele>
        <time>2015-12-13T16:17:42Z</time>
      </trkpt>
      <trkpt lat="50.74457" lon="3.73374">
        <ele>36</ele>
        <time>2015-12-13T16:17:43Z</time>
      </trkpt>
      <trkpt lat="50.74456" lon="3.73378">
        <ele>36</ele>
        <time>2015-12-13T16:17:44Z</time>
      </trkpt>
      <trkpt lat="50.74456" lon="3.73381">
        <ele>36</ele>
        <time>2015-12-13T16:17:45Z</time>
      </trkpt>
      <trkpt lat="50.74455" lon="3.73385">
        <ele>36</ele>
        <time>2015-12-13T16:17:46Z</time>
      </trkpt>
      <trkpt lat="50.74454" lon="3.73388">
        <ele>36</ele>
        <time>2015-12-13T16:17:47Z</time>
      </trkpt>
      <trkpt lat="50.74453" lon="3.73391">
        <ele>36</ele>
        <time>2015-12-13T16:17:48Z</time>
      </trkpt>
      <trkpt lat="50.74452" lon="3.73394">
        <ele>36</ele>
        <time>2015-12-13T16:17:49Z</time>
      </trkpt>
      <trkpt lat="50.7445" lon="3.73397">
        <ele>36</ele>
        <time>2015-12-13T16:17:50Z</time>
      </trkpt>
      <trkpt lat="50.74449" lon="3.734">
        <ele>36</ele>
        <time>2015-12-13T16:17:51Z</time>
      </trkpt>
      <trkpt lat="50.74448" lon="3.73403">
        <ele>36</ele>
        <time>2015-12-13T16:17:52Z</time>
      </trkpt>
      <trkpt lat="50.74447" lon="3.73407">
        <ele>36</ele>
        <time>2015-12-13T16:17:53Z</time>
      </trkpt>
      <trkpt lat="50.74446" lon="3.73411">
        <ele>36</ele>
        <time>2015-12-13T16:17:54Z</time>
      </trkpt>
      <trkpt lat="50.74446" lon="3.73414">
        <ele>36</ele>
        <time>2015-12-13T16:17:55Z</time>
      </trkpt>
      <trkpt lat="50.74445" lon="3.73418">
        <ele>36</ele>
        <time>2015-12-13T16:17:56Z</time>
      </trkpt>
      <trkpt lat="50.74444" lon="3.73421">
        <ele>36</ele>
        <time>2015-12-13T16:17:57Z</time>
      </trkpt>
      <trkpt lat="50.74443" lon="3.73424">
        <ele>36</ele>
        <time>2015-12-13T16:17:58Z</time>
      </trkpt>
      <trkpt lat="50.74442" lon="3.73427">
        <ele>36</ele>
        <time>2015-12-13T16:17:59Z</time>
      </trkpt>
      <trkpt lat="50.74442" lon="3.73431">
        <ele>36</ele>
        <time>2015-12-13T16:18:00Z</time>
      </trkpt>
      <trkpt lat="50.74441" lon="3.73434">
        <ele>35.3</ele>
        <time>2015-12-13T16:18:01Z</time>
      </trkpt>
      <trkpt lat="50.7444" lon="3.73437">
        <ele>35</ele>
        <time>2015-12-13T16:18:02Z</time>
      </trkpt>
      <trkpt lat="50.74439" lon="3.73441">
        <ele>35</ele>
        <time>2015-12-13T16:18:03Z</time>
      </trkpt>
      <trkpt lat="50.74438" lon="3.73444">
        <ele>35</ele>
        <time>2015-12-13T16:18:04Z</time>
      </trkpt>
      <trkpt lat="50.74438" lon="3.73447">
        <ele>35</ele>
        <time>2015-12-13T16:18:05Z</time>
      </trkpt>
      <trkpt lat="50.74437" lon="3.73451">
        <ele>35</ele>
        <time>2015-12-13T16:18:06Z</time>
      </trkpt>
      <trkpt lat="50.74436" lon="3.73454">
        <ele>35</ele>
        <time>2015-12-13T16:18:07Z</time>
      </trkpt>
      <trkpt lat="50.74435" lon="3.73458">
        <ele>35</ele>
        <time>2015-12-13T16:18:08Z</time>
      </trkpt>
      <trkpt lat="50.74434" lon="3.73461">
        <ele>35</ele>
        <time>2015-12-13T16:18:09Z</time>
      </trkpt>
      <trkpt lat="50.74433" lon="3.73464">
        <ele>35</ele>
        <time>2015-12-13T16:18:10Z</time>
      </trkpt>
      <trkpt lat="50.74432" lon="3.73468">
        <ele>35</ele>
        <time>2015-12-13T16:18:11Z</time>
      </trkpt>
      <trkpt lat="50.74431" lon="3.73471">
        <ele>35</ele>
        <time>2015-12-13T16:18:12Z</time>
      </trkpt>
      <trkpt lat="50.7443" lon="3.73474">
        <ele>35</ele>
        <time>2015-12-13T16:18:13Z</time>
      </trkpt>
      <trkpt lat="50.74428" lon="3.73478">
        <ele>35</ele>
        <time>2015-12-13T16:18:14Z</time>
      </trkpt>
      <trkpt lat="50.74428" lon="3.73481">
        <ele>35</ele>
        <time>2015-12-13T16:18:15Z</time>
      </trkpt>
      <trkpt lat="50.74427" lon="3.73484">
        <ele>35</ele>
        <time>2015-12-13T16:18:16Z</time>
      </trkpt>
      <trkpt lat="50.74426" lon="3.73488">
        <ele>35</ele>
        <time>2015-12-13T16:18:17Z</time>
      </trkpt>
      <trkpt lat="50.74426" lon="3.73491">
        <ele>35</ele>
        <time>2015-12-13T16:18:18Z</time>
      </trkpt>
      <trkpt lat="50.74425" lon="3.73494">
        <ele>35</ele>
        <time>2015-12-13T16:18:19Z</time>
      </trkpt>
      <trkpt lat="50.74425" lon="3.73498">
        <ele>35</ele>
        <time>2015-12-13T16:18:20Z</time>
      </trkpt>
      <trkpt lat="50.74424" lon="3.73502">
        <ele>35</ele>
        <time>2015-12-13T16:18:21Z</time>
      </trkpt>
      <trkpt lat="50.74424" lon="3.73505">
        <ele>35</ele>
        <time>2015-12-13T16:18:22Z</time>
      </trkpt>
      <trkpt lat="50.74424" lon="3.73509">
        <ele>35</ele>
        <time>2015-12-13T16:18:23Z</time>
      </trkpt>
      <trkpt lat="50.74423" lon="3.73513">
        <ele>35</ele>
        <time>2015-12-13T16:18:24Z</time>
      </trkpt>
      <trkpt lat="50.74422" lon="3.73517">
        <ele>35</ele>
        <time>2015-12-13T16:18:25Z</time>
      </trkpt>
      <trkpt lat="50.74421" lon="3.7352">
        <ele>35</ele>
        <time>2015-12-13T16:18:26Z</time>
      </trkpt>
      <trkpt lat="50.74421" lon="3.73524">
        <ele>35</ele>
        <time>2015-12-13T16:18:27Z</time>
      </trkpt>
      <trkpt lat="50.7442" lon="3.73527">
        <ele>35</ele>
        <time>2015-12-13T16:18:28Z</time>
      </trkpt>
      <trkpt lat="50.74419" lon="3.73531">
        <ele>35</ele>
        <time>2015-12-13T16:18:29Z</time>
      </trkpt>
      <trkpt lat="50.74419" lon="3.73534">
        <ele>35</ele>
        <time>2015-12-13T16:18:30Z</time>
      </trkpt>
      <trkpt lat="50.74418" lon="3.73538">
        <ele>35</ele>
        <time>2015-12-13T16:18:31Z</time>
      </trkpt>
      <trkpt lat="50.74417" lon="3.73541">
        <ele>35</ele>
        <time>2015-12-13T16:18:32Z</time>
      </trkpt>
      <trkpt lat="50.74416" lon="3.73545">
        <ele>35</ele>
        <time>2015-12-13T16:18:33Z</time>
      </trkpt>
      <trkpt lat="50.74415" lon="3.73548">
        <ele>35</ele>
        <time>2015-12-13T16:18:34Z</time>
      </trkpt>
      <trkpt lat="50.74414" lon="3.73552">
        <ele>35</ele>
        <time>2015-12-13T16:18:35Z</time>
      </trkpt>
      <trkpt lat="50.74413" lon="3.73555">
        <ele>35</ele>
        <time>2015-12-13T16:18:36Z</time>
      </trkpt>
      <trkpt lat="50.74412" lon="3.73558">
        <ele>35</ele>
        <time>2015-12-13T16:18:37Z</time>
      </trkpt>
      <trkpt lat="50.74411" lon="3.73561">
        <ele>35</ele>
        <time>2015-12-13T16:18:38Z</time>
      </trkpt>
      <trkpt lat="50.7441" lon="3.73564">
        <ele>35</ele>
        <time>2015-12-13T16:18:39Z</time>
      </trkpt>
      <trkpt lat="50.7441" lon="3.73568">
        <ele>35</ele>
        <time>2015-12-13T16:18:40Z</time>
      </trkpt>
      <trkpt lat="50.74409" lon="3.73571">
        <ele>34.3</ele>
        <time>2015-12-13T16:18:41Z</time>
      </trkpt>
      <trkpt lat="50.74408" lon="3.73575">
        <ele>34</ele>
        <time>2015-12-13T16:18:42Z</time>
      </trkpt>
      <trkpt lat="50.74407" lon="3.73578">
        <ele>34</ele>
        <time>2015-12-13T16:18:43Z</time>
      </trkpt>
      <trkpt lat="50.74406" lon="3.73581">
        <ele>34</ele>
        <time>2015-12-13T16:18:44Z</time>
      </trkpt>
      <trkpt lat="50.74405" lon="3.73584">
        <ele>34</ele>
        <time>2015-12-13T16:18:45Z</time>
      </trkpt>
      <trkpt lat="50.74404" lon="3.73588">
        <ele>34</ele>
        <time>2015-12-13T16:18:46Z</time>
      </trkpt>
      <trkpt lat="50.74403" lon="3.73591">
        <ele>34</ele>
        <time>2015-12-13T16:18:47Z</time>
      </trkpt>
      <trkpt lat="50.74402" lon="3.73595">
        <ele>34</ele>
        <time>2015-12-13T16:18:48Z</time>
      </trkpt>
      <trkpt lat="50.74401" lon="3.73598">
        <ele>34</ele>
        <time>2015-12-13T16:18:49Z</time>
      </trkpt>
      <trkpt lat="50.744" lon="3.73602">
        <ele>34</ele>
        <time>2015-12-13T16:18:50Z</time>
      </trkpt>
      <trkpt lat="50.74399" lon="3.73605">
        <ele>34</ele>
        <time>2015-12-13T16:18:51Z</time>
      </trkpt>
      <trkpt lat="50.74398" lon="3.73608">
        <ele>34</ele>
        <time>2015-12-13T16:18:52Z</time>
      </trkpt>
      <trkpt lat="50.74397" lon="3.73612">
        <ele>34</ele>
        <time>2015-12-13T16:18:53Z</time>
      </trkpt>
      <trkpt lat="50.74396" lon="3.73616">
        <ele>34</ele>
        <time>2015-12-13T16:18:54Z</time>
      </trkpt>
      <trkpt lat="50.74395" lon="3.73619">
        <ele>34</ele>
        <time>2015-12-13T16:18:55Z</time>
      </trkpt>
      <trkpt lat="50.74394" lon="3.73623">
        <ele>34</ele>
        <time>2015-12-13T16:18:56Z</time>
      </trkpt>
      <trkpt lat="50.74394" lon="3.73626">
        <ele>34</ele>
        <time>2015-12-13T16:18:57Z</time>
      </trkpt>
      <trkpt lat="50.74393" lon="3.73629">
        <ele>34</ele>
        <time>2015-12-13T16:18:58Z</time>
      </trkpt>
      <trkpt lat="50.74392" lon="3.73633">
        <ele>34</ele>
        <time>2015-12-13T16:18:59Z</time>
      </trkpt>
      <trkpt lat="50.74391" lon="3.73636">
        <ele>34</ele>
        <time>2015-12-13T16:19:00Z</time>
      </trkpt>
      <trkpt lat="50.7439" lon="3.73639">
        <ele>34</ele>
        <time>2015-12-13T16:19:01Z</time>
      </trkpt>
      <trkpt lat="50.74389" lon="3.73643">
        <ele>34</ele>
        <time>2015-12-13T16:19:02Z</time>
      </trkpt>
      <trkpt lat="50.74389" lon="3.73646">
        <ele>34</ele>
        <time>2015-12-13T16:19:03Z</time>
      </trkpt>
      <trkpt lat="50.74388" lon="3.7365">
        <ele>34</ele>
        <time>2015-12-13T16:19:04Z</time>
      </trkpt>
      <trkpt lat="50.74388" lon="3.73653">
        <ele>34</ele>
        <time>2015-12-13T16:19:05Z</time>
      </trkpt>
      <trkpt lat="50.74387" lon="3.73657">
        <ele>34</ele>
        <time>2015-12-13T16:19:06Z</time>
      </trkpt>
      <trkpt lat="50.74387" lon="3.73661">
        <ele>34</ele>
        <time>2015-12-13T16:19:07Z</time>
      </trkpt>
      <trkpt lat="50.74386" lon="3.73664">
        <ele>34</ele>
        <time>2015-12-13T16:19:08Z</time>
      </trkpt>
      <trkpt lat="50.74385" lon="3.73667">
        <ele>34</ele>
        <time>2015-12-13T16:19:09Z</time>
      </trkpt>
      <trkpt lat="50.74384" lon="3.73671">
        <ele>34</ele>
        <time>2015-12-13T16:19:10Z</time>
      </trkpt>
      <trkpt lat="50.74384" lon="3.73674">
        <ele>34</ele>
        <time>2015-12-13T16:19:11Z</time>
      </trkpt>
      <trkpt lat="50.74383" lon="3.73677">
        <ele>34</ele>
        <time>2015-12-13T16:19:12Z</time>
      </trkpt>
      <trkpt lat="50.74383" lon="3.73681">
        <ele>34</ele>
        <time>2015-12-13T16:19:13Z</time>
      </trkpt>
      <trkpt lat="50.74382" lon="3.73684">
        <ele>34</ele>
        <time>2015-12-13T16:19:14Z</time>
      </trkpt>
      <trkpt lat="50.74382" lon="3.73688">
        <ele>34</ele>
        <time>2015-12-13T16:19:15Z</time>
      </trkpt>
      <trkpt lat="50.74381" lon="3.73691">
        <ele>34</ele>
        <time>2015-12-13T16:19:16Z</time>
      </trkpt>
      <trkpt lat="50.7438" lon="3.73695">
        <ele>34</ele>
        <time>2015-12-13T16:19:17Z</time>
      </trkpt>
      <trkpt lat="50.74379" lon="3.73698">
        <ele>34</ele>
        <time>2015-12-13T16:19:18Z</time>
      </trkpt>
      <trkpt lat="50.74379" lon="3.73702">
        <ele>34</ele>
        <time>2015-12-13T16:19:19Z</time>
      </trkpt>
      <trkpt lat="50.74378" lon="3.73705">
        <ele>34</ele>
        <time>2015-12-13T16:19:20Z</time>
      </trkpt>
      <trkpt lat="50.74377" lon="3.73709">
        <ele>34</ele>
        <time>2015-12-13T16:19:21Z</time>
      </trkpt>
      <trkpt lat="50.74376" lon="3.73712">
        <ele>34</ele>
        <time>2015-12-13T16:19:22Z</time>
      </trkpt>
      <trkpt lat="50.74375" lon="3.73716">
        <ele>34</ele>
        <time>2015-12-13T16:19:23Z</time>
      </trkpt>
      <trkpt lat="50.74374" lon="3.73719">
        <ele>34</ele>
        <time>2015-12-13T16:19:24Z</time>
      </trkpt>
      <trkpt lat="50.74373" lon="3.73723">
        <ele>34</ele>
        <time>2015-12-13T16:19:25Z</time>
      </trkpt>
      <trkpt lat="50.7437" lon="3.73729">
        <ele>34</ele>
        <time>2015-12-13T16:19:27Z</time>
      </trkpt>
      <trkpt lat="50.74369" lon="3.73733">
        <ele>34</ele>
        <time>2015-12-13T16:19:28Z</time>
      </trkpt>
      <trkpt lat="50.74368" lon="3.73736">
        <ele>34</ele>
        <time>2015-12-13T16:19:29Z</time>
      </trkpt>
      <trkpt lat="50.74367" lon="3.7374">
        <ele>34</ele>
        <time>2015-12-13T16:19:30Z</time>
      </trkpt>
      <trkpt lat="50.74366" lon="3.73744">
        <ele>34</ele>
        <time>2015-12-13T16:19:31Z</time>
      </trkpt>
      <trkpt lat="50.74365" lon="3.73747">
        <ele>34</ele>
        <time>2015-12-13T16:19:32Z</time>
      </trkpt>
      <trkpt lat="50.74364" lon="3.73751">
        <ele>34</ele>
        <time>2015-12-13T16:19:33Z</time>
      </trkpt>
      <trkpt lat="50.74363" lon="3.73754">
        <ele>34</ele>
        <time>2015-12-13T16:19:34Z</time>
      </trkpt>
      <trkpt lat="50.74362" lon="3.73758">
        <ele>34</ele>
        <time>2015-12-13T16:19:35Z</time>
      </trkpt>
      <trkpt lat="50.74361" lon="3.73761">
        <ele>34</ele>
        <time>2015-12-13T16:19:36Z</time>
      </trkpt>
      <trkpt lat="50.7436" lon="3.73765">
        <ele>34</ele>
        <time>2015-12-13T16:19:37Z</time>
      </trkpt>
      <trkpt lat="50.74359" lon="3.73768">
        <ele>34</ele>
        <time>2015-12-13T16:19:38Z</time>
      </trkpt>
      <trkpt lat="50.74358" lon="3.73771">
        <ele>34</ele>
        <time>2015-12-13T16:19:39Z</time>
      </trkpt>
      <trkpt lat="50.74358" lon="3.73774">
        <ele>34</ele>
        <time>2015-12-13T16:19:40Z</time>
      </trkpt>
      <trkpt lat="50.74357" lon="3.73777">
        <ele>34</ele>
        <time>2015-12-13T16:19:41Z</time>
      </trkpt>
      <trkpt lat="50.74355" lon="3.7378">
        <ele>34</ele>
        <time>2015-12-13T16:19:42Z</time>
      </trkpt>
      <trkpt lat="50.74352" lon="3.73782">
        <ele>34</ele>
        <time>2015-12-13T16:19:43Z</time>
      </trkpt>
      <trkpt lat="50.7435" lon="3.73783">
        <ele>34</ele>
        <time>2015-12-13T16:19:44Z</time>
      </trkpt>
      <trkpt lat="50.74348" lon="3.73784">
        <ele>34</ele>
        <time>2015-12-13T16:19:45Z</time>
      </trkpt>
      <trkpt lat="50.74344" lon="3.73785">
        <ele>34</ele>
        <time>2015-12-13T16:19:47Z</time>
      </trkpt>
      <trkpt lat="50.74343" lon="3.73786">
        <ele>34</ele>
        <time>2015-12-13T16:19:48Z</time>
      </trkpt>
      <trkpt lat="50.7434" lon="3.73786">
        <ele>34</ele>
        <time>2015-12-13T16:19:50Z</time>
      </trkpt>
      <trkpt lat="50.74337" lon="3.73785">
        <ele>34</ele>
        <time>2015-12-13T16:19:52Z</time>
      </trkpt>
      <trkpt lat="50.74335" lon="3.73783">
        <ele>34</ele>
        <time>2015-12-13T16:19:54Z</time>
      </trkpt>
      <trkpt lat="50.74333" lon="3.73781">
        <ele>34</ele>
        <time>2015-12-13T16:19:56Z</time>
      </trkpt>
      <trkpt lat="50.7433" lon="3.73779">
        <ele>34</ele>
        <time>2015-12-13T16:19:58Z</time>
      </trkpt>
      <trkpt lat="50.74328" lon="3.73778">
        <ele>34</ele>
        <time>2015-12-13T16:20:00Z</time>
      </trkpt>
      <trkpt lat="50.74326" lon="3.73777">
        <ele>34.7</ele>
        <time>2015-12-13T16:20:01Z</time>
      </trkpt>
      <trkpt lat="50.74324" lon="3.73776">
        <ele>35</ele>
        <time>2015-12-13T16:20:02Z</time>
      </trkpt>
      <trkpt lat="50.74322" lon="3.73774">
        <ele>35</ele>
        <time>2015-12-13T16:20:03Z</time>
      </trkpt>
      <trkpt lat="50.7432" lon="3.73773">
        <ele>35</ele>
        <time>2015-12-13T16:20:04Z</time>
      </trkpt>
      <trkpt lat="50.74319" lon="3.73771">
        <ele>35</ele>
        <time>2015-12-13T16:20:05Z</time>
      </trkpt>
      <trkpt lat="50.74317" lon="3.7377">
        <ele>35</ele>
        <time>2015-12-13T16:20:06Z</time>
      </trkpt>
      <trkpt lat="50.74315" lon="3.73769">
        <ele>35</ele>
        <time>2015-12-13T16:20:07Z</time>
      </trkpt>
      <trkpt lat="50.74312" lon="3.73768">
        <ele>35</ele>
        <time>2015-12-13T16:20:08Z</time>
      </trkpt>
      <trkpt lat="50.7431" lon="3.73767">
        <ele>35</ele>
        <time>2015-12-13T16:20:09Z</time>
      </trkpt>
      <trkpt lat="50.74307" lon="3.73766">
        <ele>35</ele>
        <time>2015-12-13T16:20:10Z</time>
      </trkpt>
      <trkpt lat="50.74304" lon="3.73766">
        <ele>35</ele>
        <time>2015-12-13T16:20:11Z</time>
      </trkpt>
      <trkpt lat="50.74302" lon="3.73765">
        <ele>35</ele>
        <time>2015-12-13T16:20:12Z</time>
      </trkpt>
      <trkpt lat="50.743" lon="3.73765">
        <ele>35</ele>
        <time>2015-12-13T16:20:13Z</time>
      </trkpt>
      <trkpt lat="50.74298" lon="3.73765">
        <ele>35</ele>
        <time>2015-12-13T16:20:14Z</time>
      </trkpt>
      <trkpt lat="50.74296" lon="3.73766">
        <ele>35</ele>
        <time>2015-12-13T16:20:16Z</time>
      </trkpt>
      <trkpt lat="50.74293" lon="3.73767">
        <ele>35</ele>
        <time>2015-12-13T16:20:18Z</time>
      </trkpt>
      <trkpt lat="50.7429" lon="3.73767">
        <ele>35</ele>
        <time>2015-12-13T16:20:20Z</time>
      </trkpt>
      <trkpt lat="50.74287" lon="3.73767">
        <ele>37</ele>
        <time>2015-12-13T16:20:22Z</time>
      </trkpt>
      <trkpt lat="50.74285" lon="3.73768">
        <ele>37</ele>
        <time>2015-12-13T16:20:23Z</time>
      </trkpt>
      <trkpt lat="50.74283" lon="3.73768">
        <ele>37</ele>
        <time>2015-12-13T16:20:24Z</time>
      </trkpt>
      <trkpt lat="50.74281" lon="3.73768">
        <ele>37</ele>
        <time>2015-12-13T16:20:25Z</time>
      </trkpt>
      <trkpt lat="50.74279" lon="3.73768">
        <ele>37</ele>
        <time>2015-12-13T16:20:26Z</time>
      </trkpt>
      <trkpt lat="50.74276" lon="3.7377">
        <ele>37</ele>
        <time>2015-12-13T16:20:27Z</time>
      </trkpt>
      <trkpt lat="50.74274" lon="3.7377">
        <ele>37</ele>
        <time>2015-12-13T16:20:28Z</time>
      </trkpt>
      <trkpt lat="50.74272" lon="3.7377">
        <ele>37</ele>
        <time>2015-12-13T16:20:29Z</time>
      </trkpt>
      <trkpt lat="50.7427" lon="3.73771">
        <ele>37</ele>
        <time>2015-12-13T16:20:30Z</time>
      </trkpt>
      <trkpt lat="50.74267" lon="3.73771">
        <ele>37.7</ele>
        <time>2015-12-13T16:20:31Z</time>
      </trkpt>
      <trkpt lat="50.74265" lon="3.73772">
        <ele>38</ele>
        <time>2015-12-13T16:20:32Z</time>
      </trkpt>
      <trkpt lat="50.74262" lon="3.73773">
        <ele>38</ele>
        <time>2015-12-13T16:20:33Z</time>
      </trkpt>
      <trkpt lat="50.74259" lon="3.73774">
        <ele>38</ele>
        <time>2015-12-13T16:20:34Z</time>
      </trkpt>
      <trkpt lat="50.74256" lon="3.73774">
        <ele>38</ele>
        <time>2015-12-13T16:20:35Z</time>
      </trkpt>
      <trkpt lat="50.74252" lon="3.73775">
        <ele>38</ele>
        <time>2015-12-13T16:20:36Z</time>
      </trkpt>
      <trkpt lat="50.74249" lon="3.73775">
        <ele>38</ele>
        <time>2015-12-13T16:20:37Z</time>
      </trkpt>
      <trkpt lat="50.74246" lon="3.73776">
        <ele>38</ele>
        <time>2015-12-13T16:20:38Z</time>
      </trkpt>
      <trkpt lat="50.74244" lon="3.73776">
        <ele>38</ele>
        <time>2015-12-13T16:20:39Z</time>
      </trkpt>
      <trkpt lat="50.74241" lon="3.73777">
        <ele>38</ele>
        <time>2015-12-13T16:20:40Z</time>
      </trkpt>
      <trkpt lat="50.74239" lon="3.73777">
        <ele>38.7</ele>
        <time>2015-12-13T16:20:41Z</time>
      </trkpt>
      <trkpt lat="50.74237" lon="3.73777">
        <ele>39</ele>
        <time>2015-12-13T16:20:42Z</time>
      </trkpt>
      <trkpt lat="50.74234" lon="3.73777">
        <ele>39</ele>
        <time>2015-12-13T16:20:43Z</time>
      </trkpt>
      <trkpt lat="50.74232" lon="3.73778">
        <ele>39</ele>
        <time>2015-12-13T16:20:44Z</time>
      </trkpt>
      <trkpt lat="50.7423" lon="3.73778">
        <ele>39</ele>
        <time>2015-12-13T16:20:45Z</time>
      </trkpt>
      <trkpt lat="50.74227" lon="3.73778">
        <ele>39</ele>
        <time>2015-12-13T16:20:46Z</time>
      </trkpt>
      <trkpt lat="50.74225" lon="3.73778">
        <ele>39</ele>
        <time>2015-12-13T16:20:47Z</time>
      </trkpt>
      <trkpt lat="50.74223" lon="3.73778">
        <ele>39</ele>
        <time>2015-12-13T16:20:48Z</time>
      </trkpt>
      <trkpt lat="50.7422" lon="3.73778">
        <ele>39</ele>
        <time>2015-12-13T16:20:49Z</time>
      </trkpt>
      <trkpt lat="50.74218" lon="3.73778">
        <ele>39</ele>
        <time>2015-12-13T16:20:50Z</time>
      </trkpt>
      <trkpt lat="50.74216" lon="3.73779">
        <ele>41</ele>
        <time>2015-12-13T16:20:51Z</time>
      </trkpt>
      <trkpt lat="50.74213" lon="3.73779">
        <ele>42</ele>
        <time>2015-12-13T16:20:52Z</time>
      </trkpt>
      <trkpt lat="50.74211" lon="3.73779">
        <ele>42</ele>
        <time>2015-12-13T16:20:53Z</time>
      </trkpt>
      <trkpt lat="50.74209" lon="3.73779">
        <ele>42</ele>
        <time>2015-12-13T16:20:54Z</time>
      </trkpt>
      <trkpt lat="50.74206" lon="3.73779">
        <ele>42</ele>
        <time>2015-12-13T16:20:55Z</time>
      </trkpt>
      <trkpt lat="50.74204" lon="3.7378">
        <ele>42</ele>
        <time>2015-12-13T16:20:56Z</time>
      </trkpt>
      <trkpt lat="50.74201" lon="3.7378">
        <ele>42</ele>
        <time>2015-12-13T16:20:57Z</time>
      </trkpt>
      <trkpt lat="50.74199" lon="3.7378">
        <ele>42</ele>
        <time>2015-12-13T16:20:58Z</time>
      </trkpt>
      <trkpt lat="50.74197" lon="3.7378">
        <ele>42</ele>
        <time>2015-12-13T16:20:59Z</time>
      </trkpt>
      <trkpt lat="50.74195" lon="3.7378">
        <ele>42</ele>
        <time>2015-12-13T16:21:00Z</time>
      </trkpt>
      <trkpt lat="50.74192" lon="3.7378">
        <ele>41.5</ele>
        <time>2015-12-13T16:21:01Z</time>
      </trkpt>
      <trkpt lat="50.7419" lon="3.7378">
        <ele>41</ele>
        <time>2015-12-13T16:21:02Z</time>
      </trkpt>
      <trkpt lat="50.74187" lon="3.73779">
        <ele>41</ele>
        <time>2015-12-13T16:21:03Z</time>
      </trkpt>
      <trkpt lat="50.74185" lon="3.73779">
        <ele>41</ele>
        <time>2015-12-13T16:21:04Z</time>
      </trkpt>
      <trkpt lat="50.74182" lon="3.73779">
        <ele>41</ele>
        <time>2015-12-13T16:21:05Z</time>
      </trkpt>
      <trkpt lat="50.74179" lon="3.7378">
        <ele>41</ele>
        <time>2015-12-13T16:21:06Z</time>
      </trkpt>
      <trkpt lat="50.74177" lon="3.7378">
        <ele>41</ele>
        <time>2015-12-13T16:21:07Z</time>
      </trkpt>
      <trkpt lat="50.74174" lon="3.7378">
        <ele>41</ele>
        <time>2015-12-13T16:21:08Z</time>
      </trkpt>
      <trkpt lat="50.74172" lon="3.73781">
        <ele>41</ele>
        <time>2015-12-13T16:21:09Z</time>
      </trkpt>
      <trkpt lat="50.74169" lon="3.73781">
        <ele>41</ele>
        <time>2015-12-13T16:21:10Z</time>
      </trkpt>
      <trkpt lat="50.74167" lon="3.73781">
        <ele>41.7</ele>
        <time>2015-12-13T16:21:11Z</time>
      </trkpt>
      <trkpt lat="50.74165" lon="3.73781">
        <ele>42</ele>
        <time>2015-12-13T16:21:12Z</time>
      </trkpt>
      <trkpt lat="50.74163" lon="3.73781">
        <ele>42</ele>
        <time>2015-12-13T16:21:13Z</time>
      </trkpt>
      <trkpt lat="50.74161" lon="3.73781">
        <ele>42</ele>
        <time>2015-12-13T16:21:14Z</time>
      </trkpt>
      <trkpt lat="50.74159" lon="3.7378">
        <ele>42</ele>
        <time>2015-12-13T16:21:15Z</time>
      </trkpt>
      <trkpt lat="50.74157" lon="3.7378">
        <ele>42</ele>
        <time>2015-12-13T16:21:16Z</time>
      </trkpt>
      <trkpt lat="50.74155" lon="3.7378">
        <ele>42</ele>
        <time>2015-12-13T16:21:18Z</time>
      </trkpt>
      <trkpt lat="50.74154" lon="3.73783">
        <ele>42.5</ele>
        <time>2015-12-13T16:21:21Z</time>
      </trkpt>
      <trkpt lat="50.74153" lon="3.73786">
        <ele>43</ele>
        <time>2015-12-13T16:21:22Z</time>
      </trkpt>
      <trkpt lat="50.74152" lon="3.73789">
        <ele>43</ele>
        <time>2015-12-13T16:21:23Z</time>
      </trkpt>
      <trkpt lat="50.74151" lon="3.73792">
        <ele>43</ele>
        <time>2015-12-13T16:21:24Z</time>
      </trkpt>
      <trkpt lat="50.7415" lon="3.73795">
        <ele>43</ele>
        <time>2015-12-13T16:21:25Z</time>
      </trkpt>
      <trkpt lat="50.74148" lon="3.73798">
        <ele>43</ele>
        <time>2015-12-13T16:21:26Z</time>
      </trkpt>
      <trkpt lat="50.74146" lon="3.73812">
        <ele>42.3</ele>
        <time>2015-12-13T16:21:31Z</time>
      </trkpt>
      <trkpt lat="50.7414" lon="3.73826">
        <ele>42</ele>
        <time>2015-12-13T16:21:35Z</time>
      </trkpt>
      <trkpt lat="50.74134" lon="3.7384">
        <ele>42</ele>
        <time>2015-12-13T16:21:39Z</time>
      </trkpt>
      <trkpt lat="50.74131" lon="3.73847">
        <ele>42</ele>
        <time>2015-12-13T16:21:41Z</time>
      </trkpt>
      <trkpt lat="50.74128" lon="3.73853">
        <ele>42</ele>
        <time>2015-12-13T16:21:43Z</time>
      </trkpt>
      <trkpt lat="50.74126" lon="3.73857">
        <ele>42</ele>
        <time>2015-12-13T16:21:44Z</time>
      </trkpt>
      <trkpt lat="50.74125" lon="3.7386">
        <ele>42</ele>
        <time>2015-12-13T16:21:45Z</time>
      </trkpt>
      <trkpt lat="50.74123" lon="3.73863">
        <ele>42</ele>
        <time>2015-12-13T16:21:46Z</time>
      </trkpt>
      <trkpt lat="50.74122" lon="3.73866">
        <ele>42</ele>
        <time>2015-12-13T16:21:47Z</time>
      </trkpt>
      <trkpt lat="50.7412" lon="3.7387">
        <ele>42</ele>
        <time>2015-12-13T16:21:48Z</time>
      </trkpt>
      <trkpt lat="50.74118" lon="3.73873">
        <ele>42</ele>
        <time>2015-12-13T16:21:49Z</time>
      </trkpt>
      <trkpt lat="50.74116" lon="3.73877">
        <ele>42</ele>
        <time>2015-12-13T16:21:50Z</time>
      </trkpt>
      <trkpt lat="50.74114" lon="3.7388">
        <ele>41.3</ele>
        <time>2015-12-13T16:21:51Z</time>
      </trkpt>
      <trkpt lat="50.74113" lon="3.73882">
        <ele>41</ele>
        <time>2015-12-13T16:21:52Z</time>
      </trkpt>
      <trkpt lat="50.74111" lon="3.73885">
        <ele>41</ele>
        <time>2015-12-13T16:21:53Z</time>
      </trkpt>
      <trkpt lat="50.74109" lon="3.73888">
        <ele>41</ele>
        <time>2015-12-13T16:21:54Z</time>
      </trkpt>
      <trkpt lat="50.74107" lon="3.73891">
        <ele>41</ele>
        <time>2015-12-13T16:21:55Z</time>
      </trkpt>
      <trkpt lat="50.74106" lon="3.73894">
        <ele>41</ele>
        <time>2015-12-13T16:21:56Z</time>
      </trkpt>
      <trkpt lat="50.74104" lon="3.73898">
        <ele>41</ele>
        <time>2015-12-13T16:21:57Z</time>
      </trkpt>
      <trkpt lat="50.74097" lon="3.73911">
        <ele>40.3</ele>
        <time>2015-12-13T16:22:01Z</time>
      </trkpt>
      <trkpt lat="50.7409" lon="3.73924">
        <ele>40</ele>
        <time>2015-12-13T16:22:05Z</time>
      </trkpt>
      <trkpt lat="50.7409" lon="3.73938">
        <ele>39.3</ele>
        <time>2015-12-13T16:22:11Z</time>
      </trkpt>
      <trkpt lat="50.74099" lon="3.73949">
        <ele>39</ele>
        <time>2015-12-13T16:22:16Z</time>
      </trkpt>
      <trkpt lat="50.74103" lon="3.73965">
        <ele>38.3</ele>
        <time>2015-12-13T16:22:21Z</time>
      </trkpt>
      <trkpt lat="50.74102" lon="3.73981">
        <ele>38</ele>
        <time>2015-12-13T16:22:25Z</time>
      </trkpt>
      <trkpt lat="50.74102" lon="3.73985">
        <ele>38</ele>
        <time>2015-12-13T16:22:26Z</time>
      </trkpt>
      <trkpt lat="50.74102" lon="3.73988">
        <ele>38</ele>
        <time>2015-12-13T16:22:27Z</time>
      </trkpt>
      <trkpt lat="50.74101" lon="3.73992">
        <ele>38</ele>
        <time>2015-12-13T16:22:28Z</time>
      </trkpt>
      <trkpt lat="50.74101" lon="3.73995">
        <ele>38</ele>
        <time>2015-12-13T16:22:29Z</time>
      </trkpt>
      <trkpt lat="50.741" lon="3.73998">
        <ele>38</ele>
        <time>2015-12-13T16:22:30Z</time>
      </trkpt>
      <trkpt lat="50.74098" lon="3.73998">
        <ele>38</ele>
        <time>2015-12-13T16:22:32Z</time>
      </trkpt>
      <trkpt lat="50.74095" lon="3.73995">
        <ele>38</ele>
        <time>2015-12-13T16:22:34Z</time>
      </trkpt>
      <trkpt lat="50.74093" lon="3.73993">
        <ele>38</ele>
        <time>2015-12-13T16:22:35Z</time>
      </trkpt>
      <trkpt lat="50.74091" lon="3.73991">
        <ele>38</ele>
        <time>2015-12-13T16:22:36Z</time>
      </trkpt>
      <trkpt lat="50.74089" lon="3.73989">
        <ele>38</ele>
        <time>2015-12-13T16:22:37Z</time>
      </trkpt>
      <trkpt lat="50.74086" lon="3.73988">
        <ele>38</ele>
        <time>2015-12-13T16:22:38Z</time>
      </trkpt>
      <trkpt lat="50.74084" lon="3.73986">
        <ele>38</ele>
        <time>2015-12-13T16:22:39Z</time>
      </trkpt>
      <trkpt lat="50.74083" lon="3.73985">
        <ele>38</ele>
        <time>2015-12-13T16:22:40Z</time>
      </trkpt>
      <trkpt lat="50.74081" lon="3.73983">
        <ele>38</ele>
        <time>2015-12-13T16:22:41Z</time>
      </trkpt>
      <trkpt lat="50.74079" lon="3.73981">
        <ele>38</ele>
        <time>2015-12-13T16:22:42Z</time>
      </trkpt>
      <trkpt lat="50.74077" lon="3.73979">
        <ele>38</ele>
        <time>2015-12-13T16:22:43Z</time>
      </trkpt>
      <trkpt lat="50.74075" lon="3.73977">
        <ele>38</ele>
        <time>2015-12-13T16:22:44Z</time>
      </trkpt>
      <trkpt lat="50.74074" lon="3.73975">
        <ele>38</ele>
        <time>2015-12-13T16:22:45Z</time>
      </trkpt>
      <trkpt lat="50.74072" lon="3.73973">
        <ele>38</ele>
        <time>2015-12-13T16:22:46Z</time>
      </trkpt>
      <trkpt lat="50.7407" lon="3.73971">
        <ele>38</ele>
        <time>2015-12-13T16:22:47Z</time>
      </trkpt>
      <trkpt lat="50.74069" lon="3.73969">
        <ele>38</ele>
        <time>2015-12-13T16:22:48Z</time>
      </trkpt>
      <trkpt lat="50.74067" lon="3.73966">
        <ele>38</ele>
        <time>2015-12-13T16:22:49Z</time>
      </trkpt>
      <trkpt lat="50.74065" lon="3.73964">
        <ele>38</ele>
        <time>2015-12-13T16:22:50Z</time>
      </trkpt>
      <trkpt lat="50.74063" lon="3.73962">
        <ele>38</ele>
        <time>2015-12-13T16:22:51Z</time>
      </trkpt>
      <trkpt lat="50.74061" lon="3.73961">
        <ele>38</ele>
        <time>2015-12-13T16:22:52Z</time>
      </trkpt>
      <trkpt lat="50.7406" lon="3.73959">
        <ele>38</ele>
        <time>2015-12-13T16:22:53Z</time>
      </trkpt>
      <trkpt lat="50.74058" lon="3.73957">
        <ele>38</ele>
        <time>2015-12-13T16:22:54Z</time>
      </trkpt>
      <trkpt lat="50.74055" lon="3.73956">
        <ele>38</ele>
        <time>2015-12-13T16:22:56Z</time>
      </trkpt>
      <trkpt lat="50.74052" lon="3.73954">
        <ele>38</ele>
        <time>2015-12-13T16:22:58Z</time>
      </trkpt>
      <trkpt lat="50.7405" lon="3.73952">
        <ele>38</ele>
        <time>2015-12-13T16:22:59Z</time>
      </trkpt>
      <trkpt lat="50.74048" lon="3.7395">
        <ele>38</ele>
        <time>2015-12-13T16:23:00Z</time>
      </trkpt>
      <trkpt lat="50.74046" lon="3.73948">
        <ele>38</ele>
        <time>2015-12-13T16:23:01Z</time>
      </trkpt>
      <trkpt lat="50.74044" lon="3.73945">
        <ele>38</ele>
        <time>2015-12-13T16:23:02Z</time>
      </trkpt>
      <trkpt lat="50.74041" lon="3.73943">
        <ele>38</ele>
        <time>2015-12-13T16:23:03Z</time>
      </trkpt>
      <trkpt lat="50.74039" lon="3.7394">
        <ele>38</ele>
        <time>2015-12-13T16:23:04Z</time>
      </trkpt>
      <trkpt lat="50.74036" lon="3.73938">
        <ele>38</ele>
        <time>2015-12-13T16:23:05Z</time>
      </trkpt>
      <trkpt lat="50.74033" lon="3.73935">
        <ele>38</ele>
        <time>2015-12-13T16:23:06Z</time>
      </trkpt>
      <trkpt lat="50.74032" lon="3.73933">
        <ele>38</ele>
        <time>2015-12-13T16:23:07Z</time>
      </trkpt>
      <trkpt lat="50.7403" lon="3.73931">
        <ele>38</ele>
        <time>2015-12-13T16:23:08Z</time>
      </trkpt>
      <trkpt lat="50.74028" lon="3.73927">
        <ele>38</ele>
        <time>2015-12-13T16:23:10Z</time>
      </trkpt>
      <trkpt lat="50.74025" lon="3.73924">
        <ele>38</ele>
        <time>2015-12-13T16:23:12Z</time>
      </trkpt>
      <trkpt lat="50.74023" lon="3.73923">
        <ele>38</ele>
        <time>2015-12-13T16:23:13Z</time>
      </trkpt>
      <trkpt lat="50.7402" lon="3.7392">
        <ele>38</ele>
        <time>2015-12-13T16:23:14Z</time>
      </trkpt>
      <trkpt lat="50.74017" lon="3.73919">
        <ele>38</ele>
        <time>2015-12-13T16:23:15Z</time>
      </trkpt>
      <trkpt lat="50.74014" lon="3.73916">
        <ele>38</ele>
        <time>2015-12-13T16:23:16Z</time>
      </trkpt>
      <trkpt lat="50.74011" lon="3.73914">
        <ele>38</ele>
        <time>2015-12-13T16:23:17Z</time>
      </trkpt>
      <trkpt lat="50.74009" lon="3.73913">
        <ele>38</ele>
        <time>2015-12-13T16:23:18Z</time>
      </trkpt>
      <trkpt lat="50.74007" lon="3.73911">
        <ele>38</ele>
        <time>2015-12-13T16:23:19Z</time>
      </trkpt>
      <trkpt lat="50.74005" lon="3.73909">
        <ele>38</ele>
        <time>2015-12-13T16:23:20Z</time>
      </trkpt>
      <trkpt lat="50.74001" lon="3.73907">
        <ele>38</ele>
        <time>2015-12-13T16:23:22Z</time>
      </trkpt>
      <trkpt lat="50.73999" lon="3.73905">
        <ele>38</ele>
        <time>2015-12-13T16:23:23Z</time>
      </trkpt>
      <trkpt lat="50.73997" lon="3.73903">
        <ele>38</ele>
        <time>2015-12-13T16:23:24Z</time>
      </trkpt>
      <trkpt lat="50.73996" lon="3.739">
        <ele>38</ele>
        <time>2015-12-13T16:23:25Z</time>
      </trkpt>
      <trkpt lat="50.73995" lon="3.73897">
        <ele>38</ele>
        <time>2015-12-13T16:23:26Z</time>
      </trkpt>
      <trkpt lat="50.73995" lon="3.73893">
        <ele>38</ele>
        <time>2015-12-13T16:23:27Z</time>
      </trkpt>
      <trkpt lat="50.73994" lon="3.73889">
        <ele>38</ele>
        <time>2015-12-13T16:23:28Z</time>
      </trkpt>
      <trkpt lat="50.73994" lon="3.73886">
        <ele>38</ele>
        <time>2015-12-13T16:23:29Z</time>
      </trkpt>
      <trkpt lat="50.73993" lon="3.73882">
        <ele>38</ele>
        <time>2015-12-13T16:23:30Z</time>
      </trkpt>
      <trkpt lat="50.73992" lon="3.73879">
        <ele>38</ele>
        <time>2015-12-13T16:23:31Z</time>
      </trkpt>
      <trkpt lat="50.73991" lon="3.73876">
        <ele>38</ele>
        <time>2015-12-13T16:23:32Z</time>
      </trkpt>
      <trkpt lat="50.7399" lon="3.73872">
        <ele>38</ele>
        <time>2015-12-13T16:23:33Z</time>
      </trkpt>
      <trkpt lat="50.73989" lon="3.73868">
        <ele>38</ele>
        <time>2015-12-13T16:23:34Z</time>
      </trkpt>
      <trkpt lat="50.73988" lon="3.73865">
        <ele>38</ele>
        <time>2015-12-13T16:23:35Z</time>
      </trkpt>
      <trkpt lat="50.73987" lon="3.73862">
        <ele>38</ele>
        <time>2015-12-13T16:23:36Z</time>
      </trkpt>
      <trkpt lat="50.73986" lon="3.73858">
        <ele>38</ele>
        <time>2015-12-13T16:23:37Z</time>
      </trkpt>
      <trkpt lat="50.73985" lon="3.73854">
        <ele>38</ele>
        <time>2015-12-13T16:23:38Z</time>
      </trkpt>
      <trkpt lat="50.73985" lon="3.73851">
        <ele>38</ele>
        <time>2015-12-13T16:23:39Z</time>
      </trkpt>
      <trkpt lat="50.73984" lon="3.73847">
        <ele>38</ele>
        <time>2015-12-13T16:23:40Z</time>
      </trkpt>
      <trkpt lat="50.73983" lon="3.73843">
        <ele>38</ele>
        <time>2015-12-13T16:23:41Z</time>
      </trkpt>
      <trkpt lat="50.73982" lon="3.7384">
        <ele>38</ele>
        <time>2015-12-13T16:23:42Z</time>
      </trkpt>
      <trkpt lat="50.7398" lon="3.73837">
        <ele>38</ele>
        <time>2015-12-13T16:23:43Z</time>
      </trkpt>
      <trkpt lat="50.73979" lon="3.73833">
        <ele>38</ele>
        <time>2015-12-13T16:23:44Z</time>
      </trkpt>
      <trkpt lat="50.73978" lon="3.7383">
        <ele>38</ele>
        <time>2015-12-13T16:23:45Z</time>
      </trkpt>
      <trkpt lat="50.73977" lon="3.73827">
        <ele>38</ele>
        <time>2015-12-13T16:23:46Z</time>
      </trkpt>
      <trkpt lat="50.73976" lon="3.73824">
        <ele>38</ele>
        <time>2015-12-13T16:23:47Z</time>
      </trkpt>
      <trkpt lat="50.73975" lon="3.7382">
        <ele>38</ele>
        <time>2015-12-13T16:23:48Z</time>
      </trkpt>
      <trkpt lat="50.73974" lon="3.73817">
        <ele>38</ele>
        <time>2015-12-13T16:23:49Z</time>
      </trkpt>
      <trkpt lat="50.73973" lon="3.73813">
        <ele>38</ele>
        <time>2015-12-13T16:23:50Z</time>
      </trkpt>
      <trkpt lat="50.73972" lon="3.7381">
        <ele>38.7</ele>
        <time>2015-12-13T16:23:51Z</time>
      </trkpt>
      <trkpt lat="50.73972" lon="3.73807">
        <ele>39</ele>
        <time>2015-12-13T16:23:52Z</time>
      </trkpt>
      <trkpt lat="50.73971" lon="3.73803">
        <ele>39</ele>
        <time>2015-12-13T16:23:53Z</time>
      </trkpt>
      <trkpt lat="50.7397" lon="3.738">
        <ele>39</ele>
        <time>2015-12-13T16:23:54Z</time>
      </trkpt>
      <trkpt lat="50.73968" lon="3.73797">
        <ele>39</ele>
        <time>2015-12-13T16:23:55Z</time>
      </trkpt>
      <trkpt lat="50.73963" lon="3.73784">
        <ele>39</ele>
        <time>2015-12-13T16:23:59Z</time>
      </trkpt>
      <trkpt lat="50.73962" lon="3.7378">
        <ele>39</ele>
        <time>2015-12-13T16:24:00Z</time>
      </trkpt>
      <trkpt lat="50.73957" lon="3.73775">
        <ele>38</ele>
        <time>2015-12-13T16:24:03Z</time>
      </trkpt>
      <trkpt lat="50.73954" lon="3.73775">
        <ele>38</ele>
        <time>2015-12-13T16:24:05Z</time>
      </trkpt>
      <trkpt lat="50.73952" lon="3.73776">
        <ele>38</ele>
        <time>2015-12-13T16:24:07Z</time>
      </trkpt>
      <trkpt lat="50.73949" lon="3.73777">
        <ele>38</ele>
        <time>2015-12-13T16:24:08Z</time>
      </trkpt>
      <trkpt lat="50.73948" lon="3.73777">
        <ele>38</ele>
        <time>2015-12-13T16:24:09Z</time>
      </trkpt>
      <trkpt lat="50.73946" lon="3.73778">
        <ele>38</ele>
        <time>2015-12-13T16:24:10Z</time>
      </trkpt>
      <trkpt lat="50.73944" lon="3.73779">
        <ele>37.5</ele>
        <time>2015-12-13T16:24:11Z</time>
      </trkpt>
      <trkpt lat="50.73941" lon="3.7378">
        <ele>37</ele>
        <time>2015-12-13T16:24:13Z</time>
      </trkpt>
      <trkpt lat="50.73938" lon="3.73781">
        <ele>37</ele>
        <time>2015-12-13T16:24:15Z</time>
      </trkpt>
      <trkpt lat="50.73935" lon="3.73781">
        <ele>37</ele>
        <time>2015-12-13T16:24:17Z</time>
      </trkpt>
      <trkpt lat="50.73933" lon="3.73782">
        <ele>37</ele>
        <time>2015-12-13T16:24:18Z</time>
      </trkpt>
      <trkpt lat="50.73923" lon="3.73783">
        <ele>36</ele>
        <time>2015-12-13T16:24:24Z</time>
      </trkpt>
      <trkpt lat="50.73913" lon="3.73788">
        <ele>36</ele>
        <time>2015-12-13T16:24:30Z</time>
      </trkpt>
      <trkpt lat="50.73905" lon="3.73795">
        <ele>35</ele>
        <time>2015-12-13T16:24:36Z</time>
      </trkpt>
      <trkpt lat="50.73902" lon="3.73796">
        <ele>35</ele>
        <time>2015-12-13T16:24:39Z</time>
      </trkpt>
      <trkpt lat="50.73893" lon="3.738">
        <ele>34</ele>
        <time>2015-12-13T16:24:47Z</time>
      </trkpt>
      <trkpt lat="50.73892" lon="3.73804">
        <ele>34</ele>
        <time>2015-12-13T16:24:50Z</time>
      </trkpt>
      <trkpt lat="50.73891" lon="3.73807">
        <ele>34</ele>
        <time>2015-12-13T16:24:52Z</time>
      </trkpt>
      <trkpt lat="50.7389" lon="3.73809">
        <ele>34</ele>
        <time>2015-12-13T16:24:54Z</time>
      </trkpt>
      <trkpt lat="50.73888" lon="3.73811">
        <ele>34</ele>
        <time>2015-12-13T16:24:56Z</time>
      </trkpt>
      <trkpt lat="50.73885" lon="3.73814">
        <ele>34</ele>
        <time>2015-12-13T16:24:59Z</time>
      </trkpt>
      <trkpt lat="50.73877" lon="3.7382">
        <ele>33</ele>
        <time>2015-12-13T16:25:07Z</time>
      </trkpt>
      <trkpt lat="50.73875" lon="3.73822">
        <ele>33</ele>
        <time>2015-12-13T16:25:09Z</time>
      </trkpt>
      <trkpt lat="50.73873" lon="3.73823">
        <ele>33</ele>
        <time>2015-12-13T16:25:10Z</time>
      </trkpt>
      <trkpt lat="50.73871" lon="3.73824">
        <ele>33</ele>
        <time>2015-12-13T16:25:11Z</time>
      </trkpt>
      <trkpt lat="50.73861" lon="3.73828">
        <ele>33</ele>
        <time>2015-12-13T16:25:15Z</time>
      </trkpt>
      <trkpt lat="50.73852" lon="3.73834">
        <ele>33</ele>
        <time>2015-12-13T16:25:20Z</time>
      </trkpt>
      <trkpt lat="50.73852" lon="3.7384">
        <ele>32</ele>
        <time>2015-12-13T16:25:23Z</time>
      </trkpt>
      <trkpt lat="50.73855" lon="3.73856">
        <ele>32</ele>
        <time>2015-12-13T16:25:27Z</time>
      </trkpt>
      <trkpt lat="50.73858" lon="3.73872">
        <ele>31.3</ele>
        <time>2015-12-13T16:25:31Z</time>
      </trkpt>
      <trkpt lat="50.7386" lon="3.73884">
        <ele>31</ele>
        <time>2015-12-13T16:25:34Z</time>
      </trkpt>
      <trkpt lat="50.73861" lon="3.73892">
        <ele>31</ele>
        <time>2015-12-13T16:25:36Z</time>
      </trkpt>
      <trkpt lat="50.73861" lon="3.73895">
        <ele>31</ele>
        <time>2015-12-13T16:25:37Z</time>
      </trkpt>
      <trkpt lat="50.73862" lon="3.73899">
        <ele>31</ele>
        <time>2015-12-13T16:25:38Z</time>
      </trkpt>
      <trkpt lat="50.73863" lon="3.73902">
        <ele>31</ele>
        <time>2015-12-13T16:25:39Z</time>
      </trkpt>
      <trkpt lat="50.73864" lon="3.73906">
        <ele>31</ele>
        <time>2015-12-13T16:25:40Z</time>
      </trkpt>
      <trkpt lat="50.73865" lon="3.73909">
        <ele>31</ele>
        <time>2015-12-13T16:25:41Z</time>
      </trkpt>
      <trkpt lat="50.73868" lon="3.73919">
        <ele>31</ele>
        <time>2015-12-13T16:25:44Z</time>
      </trkpt>
      <trkpt lat="50.73869" lon="3.73923">
        <ele>31</ele>
        <time>2015-12-13T16:25:45Z</time>
      </trkpt>
      <trkpt lat="50.7387" lon="3.73927">
        <ele>31</ele>
        <time>2015-12-13T16:25:46Z</time>
      </trkpt>
      <trkpt lat="50.7387" lon="3.7393">
        <ele>31</ele>
        <time>2015-12-13T16:25:47Z</time>
      </trkpt>
      <trkpt lat="50.73871" lon="3.73934">
        <ele>31</ele>
        <time>2015-12-13T16:25:48Z</time>
      </trkpt>
      <trkpt lat="50.73872" lon="3.73937">
        <ele>31</ele>
        <time>2015-12-13T16:25:49Z</time>
      </trkpt>
      <trkpt lat="50.73873" lon="3.73941">
        <ele>31</ele>
        <time>2015-12-13T16:25:50Z</time>
      </trkpt>
      <trkpt lat="50.73874" lon="3.73944">
        <ele>31</ele>
        <time>2015-12-13T16:25:51Z</time>
      </trkpt>
      <trkpt lat="50.73874" lon="3.73947">
        <ele>31</ele>
        <time>2015-12-13T16:25:52Z</time>
      </trkpt>
      <trkpt lat="50.73875" lon="3.73951">
        <ele>31</ele>
        <time>2015-12-13T16:25:53Z</time>
      </trkpt>
      <trkpt lat="50.73875" lon="3.73954">
        <ele>31</ele>
        <time>2015-12-13T16:25:54Z</time>
      </trkpt>
      <trkpt lat="50.73875" lon="3.73958">
        <ele>31</ele>
        <time>2015-12-13T16:25:55Z</time>
      </trkpt>
      <trkpt lat="50.73876" lon="3.73961">
        <ele>31</ele>
        <time>2015-12-13T16:25:56Z</time>
      </trkpt>
      <trkpt lat="50.73877" lon="3.73965">
        <ele>31</ele>
        <time>2015-12-13T16:25:57Z</time>
      </trkpt>
      <trkpt lat="50.73883" lon="3.73976">
        <ele>31</ele>
        <time>2015-12-13T16:26:00Z</time>
      </trkpt>
      <trkpt lat="50.73884" lon="3.73979">
        <ele>30.3</ele>
        <time>2015-12-13T16:26:01Z</time>
      </trkpt>
      <trkpt lat="50.73886" lon="3.73982">
        <ele>30</ele>
        <time>2015-12-13T16:26:02Z</time>
      </trkpt>
      <trkpt lat="50.73887" lon="3.73985">
        <ele>30</ele>
        <time>2015-12-13T16:26:03Z</time>
      </trkpt>
      <trkpt lat="50.73885" lon="3.73992">
        <ele>30</ele>
        <time>2015-12-13T16:26:05Z</time>
      </trkpt>
      <trkpt lat="50.73883" lon="3.73995">
        <ele>30</ele>
        <time>2015-12-13T16:26:06Z</time>
      </trkpt>
      <trkpt lat="50.73881" lon="3.73997">
        <ele>30</ele>
        <time>2015-12-13T16:26:07Z</time>
      </trkpt>
      <trkpt lat="50.73878" lon="3.73998">
        <ele>30</ele>
        <time>2015-12-13T16:26:08Z</time>
      </trkpt>
      <trkpt lat="50.73876" lon="3.73998">
        <ele>30</ele>
        <time>2015-12-13T16:26:09Z</time>
      </trkpt>
      <trkpt lat="50.73873" lon="3.73999">
        <ele>30</ele>
        <time>2015-12-13T16:26:10Z</time>
      </trkpt>
      <trkpt lat="50.7387" lon="3.73999">
        <ele>30</ele>
        <time>2015-12-13T16:26:11Z</time>
      </trkpt>
      <trkpt lat="50.73867" lon="3.73999">
        <ele>30</ele>
        <time>2015-12-13T16:26:12Z</time>
      </trkpt>
      <trkpt lat="50.73864" lon="3.74">
        <ele>30</ele>
        <time>2015-12-13T16:26:13Z</time>
      </trkpt>
      <trkpt lat="50.7386" lon="3.74">
        <ele>30</ele>
        <time>2015-12-13T16:26:14Z</time>
      </trkpt>
      <trkpt lat="50.73858" lon="3.74">
        <ele>30</ele>
        <time>2015-12-13T16:26:15Z</time>
      </trkpt>
      <trkpt lat="50.73856" lon="3.73999">
        <ele>30</ele>
        <time>2015-12-13T16:26:16Z</time>
      </trkpt>
      <trkpt lat="50.73854" lon="3.73998">
        <ele>30</ele>
        <time>2015-12-13T16:26:17Z</time>
      </trkpt>
      <trkpt lat="50.73851" lon="3.73997">
        <ele>30</ele>
        <time>2015-12-13T16:26:18Z</time>
      </trkpt>
      <trkpt lat="50.73849" lon="3.73997">
        <ele>30</ele>
        <time>2015-12-13T16:26:19Z</time>
      </trkpt>
      <trkpt lat="50.73847" lon="3.73996">
        <ele>30</ele>
        <time>2015-12-13T16:26:20Z</time>
      </trkpt>
      <trkpt lat="50.73845" lon="3.73994">
        <ele>30.7</ele>
        <time>2015-12-13T16:26:21Z</time>
      </trkpt>
      <trkpt lat="50.73843" lon="3.73993">
        <ele>31</ele>
        <time>2015-12-13T16:26:22Z</time>
      </trkpt>
      <trkpt lat="50.7384" lon="3.73992">
        <ele>31</ele>
        <time>2015-12-13T16:26:23Z</time>
      </trkpt>
      <trkpt lat="50.73838" lon="3.7399">
        <ele>31</ele>
        <time>2015-12-13T16:26:24Z</time>
      </trkpt>
      <trkpt lat="50.73836" lon="3.73989">
        <ele>31</ele>
        <time>2015-12-13T16:26:25Z</time>
      </trkpt>
      <trkpt lat="50.73834" lon="3.73988">
        <ele>31</ele>
        <time>2015-12-13T16:26:26Z</time>
      </trkpt>
      <trkpt lat="50.73832" lon="3.73987">
        <ele>31</ele>
        <time>2015-12-13T16:26:27Z</time>
      </trkpt>
      <trkpt lat="50.73829" lon="3.73986">
        <ele>31</ele>
        <time>2015-12-13T16:26:28Z</time>
      </trkpt>
      <trkpt lat="50.73827" lon="3.73986">
        <ele>31</ele>
        <time>2015-12-13T16:26:29Z</time>
      </trkpt>
      <trkpt lat="50.73825" lon="3.73985">
        <ele>31</ele>
        <time>2015-12-13T16:26:30Z</time>
      </trkpt>
      <trkpt lat="50.73823" lon="3.73985">
        <ele>31</ele>
        <time>2015-12-13T16:26:31Z</time>
      </trkpt>
      <trkpt lat="50.7382" lon="3.73984">
        <ele>31</ele>
        <time>2015-12-13T16:26:32Z</time>
      </trkpt>
      <trkpt lat="50.73818" lon="3.73984">
        <ele>31</ele>
        <time>2015-12-13T16:26:33Z</time>
      </trkpt>
      <trkpt lat="50.73815" lon="3.73984">
        <ele>31</ele>
        <time>2015-12-13T16:26:34Z</time>
      </trkpt>
      <trkpt lat="50.73804" lon="3.73986">
        <ele>31</ele>
        <time>2015-12-13T16:26:38Z</time>
      </trkpt>
      <trkpt lat="50.73795" lon="3.73982">
        <ele>31</ele>
        <time>2015-12-13T16:26:42Z</time>
      </trkpt>
      <trkpt lat="50.73792" lon="3.73982">
        <ele>31</ele>
        <time>2015-12-13T16:26:43Z</time>
      </trkpt>
      <trkpt lat="50.7379" lon="3.73982">
        <ele>31</ele>
        <time>2015-12-13T16:26:44Z</time>
      </trkpt>
      <trkpt lat="50.73788" lon="3.73982">
        <ele>31</ele>
        <time>2015-12-13T16:26:45Z</time>
      </trkpt>
      <trkpt lat="50.73785" lon="3.73982">
        <ele>31</ele>
        <time>2015-12-13T16:26:46Z</time>
      </trkpt>
      <trkpt lat="50.73782" lon="3.73981">
        <ele>31</ele>
        <time>2015-12-13T16:26:47Z</time>
      </trkpt>
      <trkpt lat="50.7378" lon="3.73981">
        <ele>31</ele>
        <time>2015-12-13T16:26:48Z</time>
      </trkpt>
      <trkpt lat="50.73777" lon="3.73981">
        <ele>31</ele>
        <time>2015-12-13T16:26:49Z</time>
      </trkpt>
      <trkpt lat="50.73775" lon="3.73981">
        <ele>31</ele>
        <time>2015-12-13T16:26:50Z</time>
      </trkpt>
      <trkpt lat="50.73773" lon="3.73981">
        <ele>31.7</ele>
        <time>2015-12-13T16:26:51Z</time>
      </trkpt>
      <trkpt lat="50.73771" lon="3.73982">
        <ele>32</ele>
        <time>2015-12-13T16:26:52Z</time>
      </trkpt>
      <trkpt lat="50.73769" lon="3.73982">
        <ele>32</ele>
        <time>2015-12-13T16:26:53Z</time>
      </trkpt>
      <trkpt lat="50.73767" lon="3.73983">
        <ele>32</ele>
        <time>2015-12-13T16:26:54Z</time>
      </trkpt>
      <trkpt lat="50.73764" lon="3.73985">
        <ele>32</ele>
        <time>2015-12-13T16:26:56Z</time>
      </trkpt>
      <trkpt lat="50.73761" lon="3.73987">
        <ele>32</ele>
        <time>2015-12-13T16:26:58Z</time>
      </trkpt>
      <trkpt lat="50.73752" lon="3.7399">
        <ele>34</ele>
        <time>2015-12-13T16:27:06Z</time>
      </trkpt>
      <trkpt lat="50.73743" lon="3.73995">
        <ele>35</ele>
        <time>2015-12-13T16:27:13Z</time>
      </trkpt>
      <trkpt lat="50.73738" lon="3.73981">
        <ele>35</ele>
        <time>2015-12-13T16:27:20Z</time>
      </trkpt>
      <trkpt lat="50.73736" lon="3.73965">
        <ele>36</ele>
        <time>2015-12-13T16:27:26Z</time>
      </trkpt>
      <trkpt lat="50.73733" lon="3.73948">
        <ele>36</ele>
        <time>2015-12-13T16:27:31Z</time>
      </trkpt>
      <trkpt lat="50.73728" lon="3.73936">
        <ele>36</ele>
        <time>2015-12-13T16:27:37Z</time>
      </trkpt>
      <trkpt lat="50.7372" lon="3.73928">
        <ele>36</ele>
        <time>2015-12-13T16:27:47Z</time>
      </trkpt>
      <trkpt lat="50.7372" lon="3.73909">
        <ele>36</ele>
        <time>2015-12-13T16:28:05Z</time>
      </trkpt>
      <trkpt lat="50.73709" lon="3.73849">
        <ele>40</ele>
        <time>2015-12-13T06:34:15Z</time>
      </trkpt>
      <trkpt lat="50.73709" lon="3.73849">
        <ele>40</ele>
        <time>2015-12-13T06:34:15Z</time>
      </trkpt>
      <trkpt lat="50.73707" lon="3.73856">
        <ele>40</ele>
        <time>2015-12-13T06:34:20Z</time>
      </trkpt>
      <trkpt lat="50.73708" lon="3.73859">
        <ele>40</ele>
        <time>2015-12-13T06:34:33Z</time>
      </trkpt>
      <trkpt lat="50.73708" lon="3.73862">
        <ele>40</ele>
        <time>2015-12-13T06:34:35Z</time>
      </trkpt>
      <trkpt lat="50.73709" lon="3.73865">
        <ele>40</ele>
        <time>2015-12-13T06:34:37Z</time>
      </trkpt>
      <trkpt lat="50.7371" lon="3.73868">
        <ele>40</ele>
        <time>2015-12-13T06:34:39Z</time>
      </trkpt>
      <trkpt lat="50.73711" lon="3.73871">
        <ele>40</ele>
        <time>2015-12-13T06:34:41Z</time>
      </trkpt>
      <trkpt lat="50.73712" lon="3.73874">
        <ele>40</ele>
        <time>2015-12-13T06:34:43Z</time>
      </trkpt>
      <trkpt lat="50.73711" lon="3.73878">
        <ele>40</ele>
        <time>2015-12-13T06:34:45Z</time>
      </trkpt>
      <trkpt lat="50.73712" lon="3.73882">
        <ele>40</ele>
        <time>2015-12-13T06:34:47Z</time>
      </trkpt>
      <trkpt lat="50.73713" lon="3.73886">
        <ele>40</ele>
        <time>2015-12-13T06:34:49Z</time>
      </trkpt>
      <trkpt lat="50.73713" lon="3.7389">
        <ele>40</ele>
        <time>2015-12-13T06:34:51Z</time>
      </trkpt>
      <trkpt lat="50.73714" lon="3.73893">
        <ele>40</ele>
        <time>2015-12-13T06:34:53Z</time>
      </trkpt>
      <trkpt lat="50.73715" lon="3.73896">
        <ele>40</ele>
        <time>2015-12-13T06:34:55Z</time>
      </trkpt>
      <trkpt lat="50.73717" lon="3.73899">
        <ele>40</ele>
        <time>2015-12-13T06:34:57Z</time>
      </trkpt>
      <trkpt lat="50.73718" lon="3.73901">
        <ele>40</ele>
        <time>2015-12-13T06:35:02Z</time>
      </trkpt>
      <trkpt lat="50.73719" lon="3.73904">
        <ele>40</ele>
        <time>2015-12-13T06:35:04Z</time>
      </trkpt>
      <trkpt lat="50.7372" lon="3.73906">
        <ele>40</ele>
        <time>2015-12-13T06:35:06Z</time>
      </trkpt>
      <trkpt lat="50.73721" lon="3.73909">
        <ele>40</ele>
        <time>2015-12-13T06:35:09Z</time>
      </trkpt>
      <trkpt lat="50.7372" lon="3.73904">
        <ele>40</ele>
        <time>2015-12-13T06:36:21Z</time>
      </trkpt>
      <trkpt lat="50.73724" lon="3.73908">
        <ele>40</ele>
        <time>2015-12-13T06:36:53Z</time>
      </trkpt>
      <trkpt lat="50.73733" lon="3.73911">
        <ele>40</ele>
        <time>2015-12-13T06:37:13Z</time>
      </trkpt>
      <trkpt lat="50.73731" lon="3.73925">
        <ele>40</ele>
        <time>2015-12-13T06:37:24Z</time>
      </trkpt>
      <trkpt lat="50.7373" lon="3.7393">
        <ele>40</ele>
        <time>2015-12-13T06:37:25Z</time>
      </trkpt>
      <trkpt lat="50.7373" lon="3.73934">
        <ele>40</ele>
        <time>2015-12-13T06:37:27Z</time>
      </trkpt>
      <trkpt lat="50.7373" lon="3.73937">
        <ele>40</ele>
        <time>2015-12-13T06:37:29Z</time>
      </trkpt>
      <trkpt lat="50.73731" lon="3.7394">
        <ele>40</ele>
        <time>2015-12-13T06:37:35Z</time>
      </trkpt>
      <trkpt lat="50.73732" lon="3.73945">
        <ele>40</ele>
        <time>2015-12-13T06:37:38Z</time>
      </trkpt>
      <trkpt lat="50.73733" lon="3.73948">
        <ele>40</ele>
        <time>2015-12-13T06:37:39Z</time>
      </trkpt>
      <trkpt lat="50.73734" lon="3.73951">
        <ele>40</ele>
        <time>2015-12-13T06:37:40Z</time>
      </trkpt>
      <trkpt lat="50.73734" lon="3.73954">
        <ele>40</ele>
        <time>2015-12-13T06:37:41Z</time>
      </trkpt>
      <trkpt lat="50.73735" lon="3.73957">
        <ele>40</ele>
        <time>2015-12-13T06:37:42Z</time>
      </trkpt>
      <trkpt lat="50.73737" lon="3.73962">
        <ele>40</ele>
        <time>2015-12-13T06:37:44Z</time>
      </trkpt>
      <trkpt lat="50.73738" lon="3.73967">
        <ele>40</ele>
        <time>2015-12-13T06:37:46Z</time>
      </trkpt>
      <trkpt lat="50.73739" lon="3.7397">
        <ele>40</ele>
        <time>2015-12-13T06:37:47Z</time>
      </trkpt>
      <trkpt lat="50.7374" lon="3.73973">
        <ele>40</ele>
        <time>2015-12-13T06:37:48Z</time>
      </trkpt>
      <trkpt lat="50.73741" lon="3.73976">
        <ele>40</ele>
        <time>2015-12-13T06:37:49Z</time>
      </trkpt>
      <trkpt lat="50.73742" lon="3.73981">
        <ele>40</ele>
        <time>2015-12-13T06:37:50Z</time>
      </trkpt>
      <trkpt lat="50.73742" lon="3.73984">
        <ele>40</ele>
        <time>2015-12-13T06:37:51Z</time>
      </trkpt>
      <trkpt lat="50.73743" lon="3.73988">
        <ele>40</ele>
        <time>2015-12-13T06:37:52Z</time>
      </trkpt>
      <trkpt lat="50.73744" lon="3.73991">
        <ele>40</ele>
        <time>2015-12-13T06:37:53Z</time>
      </trkpt>
      <trkpt lat="50.73745" lon="3.73993">
        <ele>40</ele>
        <time>2015-12-13T06:37:54Z</time>
      </trkpt>
      <trkpt lat="50.73744" lon="3.73998">
        <ele>40</ele>
        <time>2015-12-13T06:37:56Z</time>
      </trkpt>
      <trkpt lat="50.73742" lon="3.74">
        <ele>40</ele>
        <time>2015-12-13T06:37:57Z</time>
      </trkpt>
      <trkpt lat="50.73738" lon="3.74002">
        <ele>40</ele>
        <time>2015-12-13T06:37:59Z</time>
      </trkpt>
      <trkpt lat="50.73736" lon="3.74002">
        <ele>40</ele>
        <time>2015-12-13T06:38:00Z</time>
      </trkpt>
      <trkpt lat="50.73734" lon="3.74003">
        <ele>40</ele>
        <time>2015-12-13T06:38:01Z</time>
      </trkpt>
      <trkpt lat="50.73732" lon="3.74004">
        <ele>40</ele>
        <time>2015-12-13T06:38:02Z</time>
      </trkpt>
      <trkpt lat="50.73729" lon="3.74005">
        <ele>40</ele>
        <time>2015-12-13T06:38:03Z</time>
      </trkpt>
      <trkpt lat="50.73727" lon="3.74006">
        <ele>40</ele>
        <time>2015-12-13T06:38:04Z</time>
      </trkpt>
      <trkpt lat="50.73725" lon="3.74007">
        <ele>40</ele>
        <time>2015-12-13T06:38:05Z</time>
      </trkpt>
      <trkpt lat="50.73723" lon="3.74007">
        <ele>40</ele>
        <time>2015-12-13T06:38:07Z</time>
      </trkpt>
      <trkpt lat="50.73721" lon="3.74007">
        <ele>40</ele>
        <time>2015-12-13T06:38:09Z</time>
      </trkpt>
      <trkpt lat="50.73719" lon="3.74008">
        <ele>40</ele>
        <time>2015-12-13T06:38:13Z</time>
      </trkpt>
      <trkpt lat="50.73716" lon="3.7401">
        <ele>40</ele>
        <time>2015-12-13T06:38:15Z</time>
      </trkpt>
      <trkpt lat="50.73715" lon="3.74011">
        <ele>40</ele>
        <time>2015-12-13T06:38:16Z</time>
      </trkpt>
      <trkpt lat="50.73713" lon="3.74012">
        <ele>40</ele>
        <time>2015-12-13T06:38:17Z</time>
      </trkpt>
      <trkpt lat="50.73711" lon="3.74013">
        <ele>40</ele>
        <time>2015-12-13T06:38:18Z</time>
      </trkpt>
      <trkpt lat="50.73709" lon="3.74014">
        <ele>40</ele>
        <time>2015-12-13T06:38:19Z</time>
      </trkpt>
      <trkpt lat="50.73707" lon="3.74017">
        <ele>40</ele>
        <time>2015-12-13T06:38:20Z</time>
      </trkpt>
      <trkpt lat="50.73706" lon="3.74019">
        <ele>42.1</ele>
        <time>2015-12-13T06:38:21Z</time>
      </trkpt>
      <trkpt lat="50.73705" lon="3.74022">
        <ele>44</ele>
        <time>2015-12-13T06:38:22Z</time>
      </trkpt>
      <trkpt lat="50.73704" lon="3.74025">
        <ele>44</ele>
        <time>2015-12-13T06:38:23Z</time>
      </trkpt>
      <trkpt lat="50.73701" lon="3.74029">
        <ele>44</ele>
        <time>2015-12-13T06:38:25Z</time>
      </trkpt>
      <trkpt lat="50.737" lon="3.74031">
        <ele>44.7</ele>
        <time>2015-12-13T06:38:26Z</time>
      </trkpt>
      <trkpt lat="50.73698" lon="3.74035">
        <ele>45</ele>
        <time>2015-12-13T06:38:28Z</time>
      </trkpt>
      <trkpt lat="50.73697" lon="3.74038">
        <ele>45</ele>
        <time>2015-12-13T06:38:29Z</time>
      </trkpt>
      <trkpt lat="50.73695" lon="3.7404">
        <ele>45</ele>
        <time>2015-12-13T06:38:30Z</time>
      </trkpt>
      <trkpt lat="50.73692" lon="3.74042">
        <ele>45</ele>
        <time>2015-12-13T06:38:32Z</time>
      </trkpt>
      <trkpt lat="50.7369" lon="3.74043">
        <ele>45</ele>
        <time>2015-12-13T06:38:35Z</time>
      </trkpt>
      <trkpt lat="50.73687" lon="3.74046">
        <ele>45</ele>
        <time>2015-12-13T06:38:41Z</time>
      </trkpt>
      <trkpt lat="50.73684" lon="3.74049">
        <ele>45</ele>
        <time>2015-12-13T06:38:43Z</time>
      </trkpt>
      <trkpt lat="50.73682" lon="3.7405">
        <ele>45</ele>
        <time>2015-12-13T06:38:44Z</time>
      </trkpt>
      <trkpt lat="50.7368" lon="3.74052">
        <ele>45</ele>
        <time>2015-12-13T06:38:45Z</time>
      </trkpt>
      <trkpt lat="50.73678" lon="3.74053">
        <ele>45</ele>
        <time>2015-12-13T06:38:46Z</time>
      </trkpt>
      <trkpt lat="50.73676" lon="3.74054">
        <ele>45</ele>
        <time>2015-12-13T06:38:47Z</time>
      </trkpt>
      <trkpt lat="50.73675" lon="3.74056">
        <ele>45</ele>
        <time>2015-12-13T06:38:48Z</time>
      </trkpt>
      <trkpt lat="50.73673" lon="3.74057">
        <ele>45</ele>
        <time>2015-12-13T06:38:49Z</time>
      </trkpt>
      <trkpt lat="50.7367" lon="3.74059">
        <ele>45</ele>
        <time>2015-12-13T06:38:50Z</time>
      </trkpt>
      <trkpt lat="50.73668" lon="3.7406">
        <ele>45</ele>
        <time>2015-12-13T06:38:51Z</time>
      </trkpt>
      <trkpt lat="50.73667" lon="3.74063">
        <ele>45</ele>
        <time>2015-12-13T06:38:52Z</time>
      </trkpt>
      <trkpt lat="50.73666" lon="3.74065">
        <ele>45</ele>
        <time>2015-12-13T06:38:53Z</time>
      </trkpt>
      <trkpt lat="50.73664" lon="3.74067">
        <ele>45</ele>
        <time>2015-12-13T06:38:54Z</time>
      </trkpt>
      <trkpt lat="50.73662" lon="3.74068">
        <ele>45</ele>
        <time>2015-12-13T06:38:55Z</time>
      </trkpt>
      <trkpt lat="50.7366" lon="3.74072">
        <ele>45</ele>
        <time>2015-12-13T06:38:57Z</time>
      </trkpt>
      <trkpt lat="50.73661" lon="3.74078">
        <ele>45</ele>
        <time>2015-12-13T06:38:59Z</time>
      </trkpt>
      <trkpt lat="50.73661" lon="3.74082">
        <ele>45</ele>
        <time>2015-12-13T06:39:00Z</time>
      </trkpt>
      <trkpt lat="50.73662" lon="3.74086">
        <ele>45</ele>
        <time>2015-12-13T06:39:01Z</time>
      </trkpt>
      <trkpt lat="50.73663" lon="3.7409">
        <ele>45</ele>
        <time>2015-12-13T06:39:02Z</time>
      </trkpt>
      <trkpt lat="50.73664" lon="3.74094">
        <ele>45</ele>
        <time>2015-12-13T06:39:03Z</time>
      </trkpt>
      <trkpt lat="50.73665" lon="3.74098">
        <ele>45</ele>
        <time>2015-12-13T06:39:04Z</time>
      </trkpt>
      <trkpt lat="50.73666" lon="3.74102">
        <ele>45</ele>
        <time>2015-12-13T06:39:05Z</time>
      </trkpt>
      <trkpt lat="50.73667" lon="3.74106">
        <ele>45</ele>
        <time>2015-12-13T06:39:06Z</time>
      </trkpt>
      <trkpt lat="50.73668" lon="3.7411">
        <ele>45</ele>
        <time>2015-12-13T06:39:07Z</time>
      </trkpt>
      <trkpt lat="50.73669" lon="3.74113">
        <ele>45</ele>
        <time>2015-12-13T06:39:08Z</time>
      </trkpt>
      <trkpt lat="50.73671" lon="3.74117">
        <ele>45</ele>
        <time>2015-12-13T06:39:09Z</time>
      </trkpt>
      <trkpt lat="50.73672" lon="3.7412">
        <ele>45</ele>
        <time>2015-12-13T06:39:10Z</time>
      </trkpt>
      <trkpt lat="50.73673" lon="3.74122">
        <ele>45</ele>
        <time>2015-12-13T06:39:11Z</time>
      </trkpt>
      <trkpt lat="50.73674" lon="3.74125">
        <ele>45</ele>
        <time>2015-12-13T06:39:12Z</time>
      </trkpt>
      <trkpt lat="50.73675" lon="3.74128">
        <ele>45</ele>
        <time>2015-12-13T06:39:13Z</time>
      </trkpt>
      <trkpt lat="50.73676" lon="3.74131">
        <ele>45</ele>
        <time>2015-12-13T06:39:14Z</time>
      </trkpt>
      <trkpt lat="50.73677" lon="3.74135">
        <ele>45</ele>
        <time>2015-12-13T06:39:15Z</time>
      </trkpt>
      <trkpt lat="50.73677" lon="3.74138">
        <ele>45</ele>
        <time>2015-12-13T06:39:16Z</time>
      </trkpt>
      <trkpt lat="50.73678" lon="3.74141">
        <ele>45</ele>
        <time>2015-12-13T06:39:17Z</time>
      </trkpt>
      <trkpt lat="50.73679" lon="3.74145">
        <ele>45</ele>
        <time>2015-12-13T06:39:18Z</time>
      </trkpt>
      <trkpt lat="50.7368" lon="3.74148">
        <ele>45</ele>
        <time>2015-12-13T06:39:19Z</time>
      </trkpt>
      <trkpt lat="50.73682" lon="3.74152">
        <ele>45</ele>
        <time>2015-12-13T06:39:20Z</time>
      </trkpt>
      <trkpt lat="50.73683" lon="3.74155">
        <ele>45</ele>
        <time>2015-12-13T06:39:21Z</time>
      </trkpt>
      <trkpt lat="50.73684" lon="3.74158">
        <ele>44.3</ele>
        <time>2015-12-13T06:39:22Z</time>
      </trkpt>
      <trkpt lat="50.73685" lon="3.74161">
        <ele>44</ele>
        <time>2015-12-13T06:39:23Z</time>
      </trkpt>
      <trkpt lat="50.73686" lon="3.74164">
        <ele>44</ele>
        <time>2015-12-13T06:39:24Z</time>
      </trkpt>
      <trkpt lat="50.73687" lon="3.74168">
        <ele>44</ele>
        <time>2015-12-13T06:39:25Z</time>
      </trkpt>
      <trkpt lat="50.73688" lon="3.74171">
        <ele>44</ele>
        <time>2015-12-13T06:39:26Z</time>
      </trkpt>
      <trkpt lat="50.73688" lon="3.74174">
        <ele>44</ele>
        <time>2015-12-13T06:39:27Z</time>
      </trkpt>
      <trkpt lat="50.73689" lon="3.74177">
        <ele>44</ele>
        <time>2015-12-13T06:39:28Z</time>
      </trkpt>
      <trkpt lat="50.7369" lon="3.74179">
        <ele>44</ele>
        <time>2015-12-13T06:39:29Z</time>
      </trkpt>
      <trkpt lat="50.73691" lon="3.74182">
        <ele>44</ele>
        <time>2015-12-13T06:39:30Z</time>
      </trkpt>
      <trkpt lat="50.73692" lon="3.74185">
        <ele>44</ele>
        <time>2015-12-13T06:39:31Z</time>
      </trkpt>
      <trkpt lat="50.73693" lon="3.74189">
        <ele>44</ele>
        <time>2015-12-13T06:39:32Z</time>
      </trkpt>
      <trkpt lat="50.73694" lon="3.74192">
        <ele>44</ele>
        <time>2015-12-13T06:39:33Z</time>
      </trkpt>
      <trkpt lat="50.73695" lon="3.74195">
        <ele>44</ele>
        <time>2015-12-13T06:39:34Z</time>
      </trkpt>
      <trkpt lat="50.73695" lon="3.74199">
        <ele>44</ele>
        <time>2015-12-13T06:39:35Z</time>
      </trkpt>
      <trkpt lat="50.73697" lon="3.74202">
        <ele>44</ele>
        <time>2015-12-13T06:39:36Z</time>
      </trkpt>
      <trkpt lat="50.73697" lon="3.74206">
        <ele>44</ele>
        <time>2015-12-13T06:39:38Z</time>
      </trkpt>
      <trkpt lat="50.73697" lon="3.7421">
        <ele>44</ele>
        <time>2015-12-13T06:39:41Z</time>
      </trkpt>
      <trkpt lat="50.73698" lon="3.74212">
        <ele>42.6</ele>
        <time>2015-12-13T06:39:42Z</time>
      </trkpt>
      <trkpt lat="50.73699" lon="3.74215">
        <ele>42</ele>
        <time>2015-12-13T06:39:43Z</time>
      </trkpt>
      <trkpt lat="50.737" lon="3.74218">
        <ele>42</ele>
        <time>2015-12-13T06:39:44Z</time>
      </trkpt>
      <trkpt lat="50.73701" lon="3.74221">
        <ele>42</ele>
        <time>2015-12-13T06:39:45Z</time>
      </trkpt>
      <trkpt lat="50.73703" lon="3.74224">
        <ele>42</ele>
        <time>2015-12-13T06:39:46Z</time>
      </trkpt>
      <trkpt lat="50.73704" lon="3.74228">
        <ele>42</ele>
        <time>2015-12-13T06:39:47Z</time>
      </trkpt>
      <trkpt lat="50.73705" lon="3.74231">
        <ele>42</ele>
        <time>2015-12-13T06:39:48Z</time>
      </trkpt>
      <trkpt lat="50.73706" lon="3.74234">
        <ele>42</ele>
        <time>2015-12-13T06:39:49Z</time>
      </trkpt>
      <trkpt lat="50.73707" lon="3.74237">
        <ele>42</ele>
        <time>2015-12-13T06:39:50Z</time>
      </trkpt>
      <trkpt lat="50.73708" lon="3.7424">
        <ele>42</ele>
        <time>2015-12-13T06:39:51Z</time>
      </trkpt>
      <trkpt lat="50.73709" lon="3.74244">
        <ele>41.3</ele>
        <time>2015-12-13T06:39:52Z</time>
      </trkpt>
      <trkpt lat="50.7371" lon="3.74247">
        <ele>41</ele>
        <time>2015-12-13T06:39:53Z</time>
      </trkpt>
      <trkpt lat="50.7371" lon="3.74252">
        <ele>41</ele>
        <time>2015-12-13T06:39:55Z</time>
      </trkpt>
      <trkpt lat="50.73711" lon="3.74254">
        <ele>41</ele>
        <time>2015-12-13T06:39:56Z</time>
      </trkpt>
      <trkpt lat="50.73712" lon="3.74257">
        <ele>41</ele>
        <time>2015-12-13T06:39:57Z</time>
      </trkpt>
      <trkpt lat="50.73713" lon="3.74261">
        <ele>41</ele>
        <time>2015-12-13T06:39:58Z</time>
      </trkpt>
      <trkpt lat="50.73714" lon="3.74264">
        <ele>41</ele>
        <time>2015-12-13T06:39:59Z</time>
      </trkpt>
      <trkpt lat="50.73715" lon="3.74268">
        <ele>41</ele>
        <time>2015-12-13T06:40:00Z</time>
      </trkpt>
      <trkpt lat="50.73715" lon="3.74271">
        <ele>40.3</ele>
        <time>2015-12-13T06:40:01Z</time>
      </trkpt>
      <trkpt lat="50.73716" lon="3.74274">
        <ele>40</ele>
        <time>2015-12-13T06:40:02Z</time>
      </trkpt>
      <trkpt lat="50.73717" lon="3.74278">
        <ele>40</ele>
        <time>2015-12-13T06:40:03Z</time>
      </trkpt>
      <trkpt lat="50.73718" lon="3.74281">
        <ele>40</ele>
        <time>2015-12-13T06:40:04Z</time>
      </trkpt>
      <trkpt lat="50.73718" lon="3.74285">
        <ele>40</ele>
        <time>2015-12-13T06:40:05Z</time>
      </trkpt>
      <trkpt lat="50.73718" lon="3.74289">
        <ele>40</ele>
        <time>2015-12-13T06:40:06Z</time>
      </trkpt>
      <trkpt lat="50.73719" lon="3.74292">
        <ele>40</ele>
        <time>2015-12-13T06:40:07Z</time>
      </trkpt>
      <trkpt lat="50.73719" lon="3.74296">
        <ele>40</ele>
        <time>2015-12-13T06:40:08Z</time>
      </trkpt>
      <trkpt lat="50.7372" lon="3.74299">
        <ele>40</ele>
        <time>2015-12-13T06:40:09Z</time>
      </trkpt>
      <trkpt lat="50.73721" lon="3.74303">
        <ele>40</ele>
        <time>2015-12-13T06:40:10Z</time>
      </trkpt>
      <trkpt lat="50.73721" lon="3.74305">
        <ele>40</ele>
        <time>2015-12-13T06:40:11Z</time>
      </trkpt>
      <trkpt lat="50.73723" lon="3.74308">
        <ele>40</ele>
        <time>2015-12-13T06:40:13Z</time>
      </trkpt>
      <trkpt lat="50.73725" lon="3.74306">
        <ele>40</ele>
        <time>2015-12-13T06:40:15Z</time>
      </trkpt>
      <trkpt lat="50.73726" lon="3.74306">
        <ele>40</ele>
        <time>2015-12-13T06:40:17Z</time>
      </trkpt>
      <trkpt lat="50.73736" lon="3.74301">
        <ele>40</ele>
        <time>2015-12-13T06:40:23Z</time>
      </trkpt>
      <trkpt lat="50.73746" lon="3.74295">
        <ele>40</ele>
        <time>2015-12-13T06:40:28Z</time>
      </trkpt>
      <trkpt lat="50.73756" lon="3.74291">
        <ele>41</ele>
        <time>2015-12-13T06:40:32Z</time>
      </trkpt>
      <trkpt lat="50.73765" lon="3.74282">
        <ele>41</ele>
        <time>2015-12-13T06:40:37Z</time>
      </trkpt>
      <trkpt lat="50.73772" lon="3.7427">
        <ele>40</ele>
        <time>2015-12-13T06:40:44Z</time>
      </trkpt>
      <trkpt lat="50.73773" lon="3.74268">
        <ele>40</ele>
        <time>2015-12-13T06:40:45Z</time>
      </trkpt>
      <trkpt lat="50.73776" lon="3.74267">
        <ele>40</ele>
        <time>2015-12-13T06:40:46Z</time>
      </trkpt>
      <trkpt lat="50.73779" lon="3.74267">
        <ele>40</ele>
        <time>2015-12-13T06:40:47Z</time>
      </trkpt>
      <trkpt lat="50.73781" lon="3.74267">
        <ele>40</ele>
        <time>2015-12-13T06:40:48Z</time>
      </trkpt>
      <trkpt lat="50.73784" lon="3.74266">
        <ele>40</ele>
        <time>2015-12-13T06:40:49Z</time>
      </trkpt>
      <trkpt lat="50.73787" lon="3.74265">
        <ele>40</ele>
        <time>2015-12-13T06:40:50Z</time>
      </trkpt>
      <trkpt lat="50.73789" lon="3.74263">
        <ele>38.6</ele>
        <time>2015-12-13T06:40:51Z</time>
      </trkpt>
      <trkpt lat="50.73791" lon="3.74262">
        <ele>38</ele>
        <time>2015-12-13T06:40:52Z</time>
      </trkpt>
      <trkpt lat="50.73794" lon="3.74261">
        <ele>38</ele>
        <time>2015-12-13T06:40:53Z</time>
      </trkpt>
      <trkpt lat="50.73796" lon="3.7426">
        <ele>38</ele>
        <time>2015-12-13T06:40:54Z</time>
      </trkpt>
      <trkpt lat="50.73799" lon="3.74259">
        <ele>38</ele>
        <time>2015-12-13T06:40:55Z</time>
      </trkpt>
      <trkpt lat="50.73801" lon="3.74257">
        <ele>38</ele>
        <time>2015-12-13T06:40:56Z</time>
      </trkpt>
      <trkpt lat="50.73803" lon="3.74256">
        <ele>38</ele>
        <time>2015-12-13T06:40:57Z</time>
      </trkpt>
      <trkpt lat="50.73806" lon="3.74255">
        <ele>38</ele>
        <time>2015-12-13T06:40:58Z</time>
      </trkpt>
      <trkpt lat="50.73808" lon="3.74254">
        <ele>38</ele>
        <time>2015-12-13T06:40:59Z</time>
      </trkpt>
      <trkpt lat="50.7381" lon="3.74253">
        <ele>38</ele>
        <time>2015-12-13T06:41:00Z</time>
      </trkpt>
      <trkpt lat="50.73813" lon="3.74252">
        <ele>35.3</ele>
        <time>2015-12-13T06:41:01Z</time>
      </trkpt>
      <trkpt lat="50.73815" lon="3.74251">
        <ele>34</ele>
        <time>2015-12-13T06:41:02Z</time>
      </trkpt>
      <trkpt lat="50.73818" lon="3.74251">
        <ele>34</ele>
        <time>2015-12-13T06:41:03Z</time>
      </trkpt>
      <trkpt lat="50.7382" lon="3.7425">
        <ele>34</ele>
        <time>2015-12-13T06:41:04Z</time>
      </trkpt>
      <trkpt lat="50.73823" lon="3.74249">
        <ele>34</ele>
        <time>2015-12-13T06:41:05Z</time>
      </trkpt>
      <trkpt lat="50.73825" lon="3.74248">
        <ele>34</ele>
        <time>2015-12-13T06:41:06Z</time>
      </trkpt>
      <trkpt lat="50.73827" lon="3.74247">
        <ele>34</ele>
        <time>2015-12-13T06:41:07Z</time>
      </trkpt>
      <trkpt lat="50.73829" lon="3.74246">
        <ele>34</ele>
        <time>2015-12-13T06:41:08Z</time>
      </trkpt>
      <trkpt lat="50.73831" lon="3.74246">
        <ele>34</ele>
        <time>2015-12-13T06:41:09Z</time>
      </trkpt>
      <trkpt lat="50.73833" lon="3.74245">
        <ele>34</ele>
        <time>2015-12-13T06:41:10Z</time>
      </trkpt>
      <trkpt lat="50.73835" lon="3.74244">
        <ele>34</ele>
        <time>2015-12-13T06:41:11Z</time>
      </trkpt>
      <trkpt lat="50.73838" lon="3.74243">
        <ele>34</ele>
        <time>2015-12-13T06:41:12Z</time>
      </trkpt>
      <trkpt lat="50.7384" lon="3.74241">
        <ele>34</ele>
        <time>2015-12-13T06:41:13Z</time>
      </trkpt>
      <trkpt lat="50.73842" lon="3.74241">
        <ele>34</ele>
        <time>2015-12-13T06:41:14Z</time>
      </trkpt>
      <trkpt lat="50.73844" lon="3.7424">
        <ele>34</ele>
        <time>2015-12-13T06:41:15Z</time>
      </trkpt>
      <trkpt lat="50.73846" lon="3.74239">
        <ele>34</ele>
        <time>2015-12-13T06:41:16Z</time>
      </trkpt>
      <trkpt lat="50.73849" lon="3.74238">
        <ele>34</ele>
        <time>2015-12-13T06:41:17Z</time>
      </trkpt>
      <trkpt lat="50.73851" lon="3.74237">
        <ele>34</ele>
        <time>2015-12-13T06:41:18Z</time>
      </trkpt>
      <trkpt lat="50.73853" lon="3.74236">
        <ele>34</ele>
        <time>2015-12-13T06:41:19Z</time>
      </trkpt>
      <trkpt lat="50.73855" lon="3.74235">
        <ele>34</ele>
        <time>2015-12-13T06:41:20Z</time>
      </trkpt>
      <trkpt lat="50.73857" lon="3.74235">
        <ele>33.3</ele>
        <time>2015-12-13T06:41:21Z</time>
      </trkpt>
      <trkpt lat="50.73859" lon="3.74234">
        <ele>33</ele>
        <time>2015-12-13T06:41:22Z</time>
      </trkpt>
      <trkpt lat="50.73861" lon="3.74234">
        <ele>33</ele>
        <time>2015-12-13T06:41:23Z</time>
      </trkpt>
      <trkpt lat="50.73864" lon="3.74234">
        <ele>33</ele>
        <time>2015-12-13T06:41:24Z</time>
      </trkpt>
      <trkpt lat="50.73866" lon="3.74233">
        <ele>33</ele>
        <time>2015-12-13T06:41:25Z</time>
      </trkpt>
      <trkpt lat="50.73868" lon="3.74232">
        <ele>33</ele>
        <time>2015-12-13T06:41:26Z</time>
      </trkpt>
      <trkpt lat="50.7387" lon="3.74232">
        <ele>33</ele>
        <time>2015-12-13T06:41:27Z</time>
      </trkpt>
      <trkpt lat="50.73872" lon="3.74231">
        <ele>33</ele>
        <time>2015-12-13T06:41:28Z</time>
      </trkpt>
      <trkpt lat="50.73874" lon="3.7423">
        <ele>33</ele>
        <time>2015-12-13T06:41:29Z</time>
      </trkpt>
      <trkpt lat="50.73876" lon="3.7423">
        <ele>33</ele>
        <time>2015-12-13T06:41:30Z</time>
      </trkpt>
      <trkpt lat="50.73879" lon="3.74231">
        <ele>32</ele>
        <time>2015-12-13T06:41:32Z</time>
      </trkpt>
      <trkpt lat="50.73879" lon="3.74234">
        <ele>32</ele>
        <time>2015-12-13T06:41:34Z</time>
      </trkpt>
      <trkpt lat="50.7388" lon="3.74237">
        <ele>32</ele>
        <time>2015-12-13T06:41:35Z</time>
      </trkpt>
      <trkpt lat="50.73881" lon="3.74241">
        <ele>32</ele>
        <time>2015-12-13T06:41:36Z</time>
      </trkpt>
      <trkpt lat="50.73882" lon="3.74246">
        <ele>32</ele>
        <time>2015-12-13T06:41:38Z</time>
      </trkpt>
      <trkpt lat="50.73883" lon="3.74249">
        <ele>32</ele>
        <time>2015-12-13T06:41:39Z</time>
      </trkpt>
      <trkpt lat="50.73883" lon="3.74252">
        <ele>32</ele>
        <time>2015-12-13T06:41:40Z</time>
      </trkpt>
      <trkpt lat="50.73883" lon="3.74254">
        <ele>32</ele>
        <time>2015-12-13T06:41:41Z</time>
      </trkpt>
      <trkpt lat="50.73884" lon="3.74257">
        <ele>32</ele>
        <time>2015-12-13T06:41:42Z</time>
      </trkpt>
      <trkpt lat="50.73884" lon="3.74261">
        <ele>32</ele>
        <time>2015-12-13T06:41:43Z</time>
      </trkpt>
      <trkpt lat="50.73884" lon="3.74265">
        <ele>32</ele>
        <time>2015-12-13T06:41:44Z</time>
      </trkpt>
      <trkpt lat="50.73885" lon="3.74269">
        <ele>32</ele>
        <time>2015-12-13T06:41:45Z</time>
      </trkpt>
      <trkpt lat="50.73885" lon="3.74274">
        <ele>32</ele>
        <time>2015-12-13T06:41:46Z</time>
      </trkpt>
      <trkpt lat="50.73885" lon="3.74277">
        <ele>32</ele>
        <time>2015-12-13T06:41:47Z</time>
      </trkpt>
      <trkpt lat="50.73886" lon="3.74281">
        <ele>32</ele>
        <time>2015-12-13T06:41:48Z</time>
      </trkpt>
      <trkpt lat="50.73887" lon="3.74285">
        <ele>32</ele>
        <time>2015-12-13T06:41:49Z</time>
      </trkpt>
      <trkpt lat="50.73888" lon="3.74289">
        <ele>32</ele>
        <time>2015-12-13T06:41:50Z</time>
      </trkpt>
      <trkpt lat="50.73888" lon="3.74292">
        <ele>31.5</ele>
        <time>2015-12-13T06:41:51Z</time>
      </trkpt>
      <trkpt lat="50.73888" lon="3.74296">
        <ele>31</ele>
        <time>2015-12-13T06:41:52Z</time>
      </trkpt>
      <trkpt lat="50.73888" lon="3.743">
        <ele>31</ele>
        <time>2015-12-13T06:41:53Z</time>
      </trkpt>
      <trkpt lat="50.73887" lon="3.74304">
        <ele>31</ele>
        <time>2015-12-13T06:41:54Z</time>
      </trkpt>
      <trkpt lat="50.73887" lon="3.74308">
        <ele>31</ele>
        <time>2015-12-13T06:41:55Z</time>
      </trkpt>
      <trkpt lat="50.73887" lon="3.74311">
        <ele>31</ele>
        <time>2015-12-13T06:41:56Z</time>
      </trkpt>
      <trkpt lat="50.73887" lon="3.74314">
        <ele>31</ele>
        <time>2015-12-13T06:41:57Z</time>
      </trkpt>
      <trkpt lat="50.73886" lon="3.74317">
        <ele>31</ele>
        <time>2015-12-13T06:41:58Z</time>
      </trkpt>
      <trkpt lat="50.73886" lon="3.74321">
        <ele>31</ele>
        <time>2015-12-13T06:41:59Z</time>
      </trkpt>
      <trkpt lat="50.73886" lon="3.74324">
        <ele>31</ele>
        <time>2015-12-13T06:42:00Z</time>
      </trkpt>
      <trkpt lat="50.73886" lon="3.74327">
        <ele>31</ele>
        <time>2015-12-13T06:42:01Z</time>
      </trkpt>
      <trkpt lat="50.73885" lon="3.7433">
        <ele>31</ele>
        <time>2015-12-13T06:42:02Z</time>
      </trkpt>
      <trkpt lat="50.73885" lon="3.74333">
        <ele>31</ele>
        <time>2015-12-13T06:42:03Z</time>
      </trkpt>
      <trkpt lat="50.73884" lon="3.74337">
        <ele>31</ele>
        <time>2015-12-13T06:42:04Z</time>
      </trkpt>
      <trkpt lat="50.73883" lon="3.74341">
        <ele>31</ele>
        <time>2015-12-13T06:42:05Z</time>
      </trkpt>
      <trkpt lat="50.73883" lon="3.74344">
        <ele>31</ele>
        <time>2015-12-13T06:42:06Z</time>
      </trkpt>
      <trkpt lat="50.73882" lon="3.74347">
        <ele>31</ele>
        <time>2015-12-13T06:42:07Z</time>
      </trkpt>
      <trkpt lat="50.73881" lon="3.74351">
        <ele>31</ele>
        <time>2015-12-13T06:42:08Z</time>
      </trkpt>
      <trkpt lat="50.7388" lon="3.74353">
        <ele>31</ele>
        <time>2015-12-13T06:42:09Z</time>
      </trkpt>
      <trkpt lat="50.7388" lon="3.74356">
        <ele>31</ele>
        <time>2015-12-13T06:42:10Z</time>
      </trkpt>
      <trkpt lat="50.7388" lon="3.7436">
        <ele>31</ele>
        <time>2015-12-13T06:42:11Z</time>
      </trkpt>
      <trkpt lat="50.7388" lon="3.74364">
        <ele>31</ele>
        <time>2015-12-13T06:42:12Z</time>
      </trkpt>
      <trkpt lat="50.7388" lon="3.74367">
        <ele>31</ele>
        <time>2015-12-13T06:42:13Z</time>
      </trkpt>
      <trkpt lat="50.7388" lon="3.7437">
        <ele>31</ele>
        <time>2015-12-13T06:42:14Z</time>
      </trkpt>
      <trkpt lat="50.73881" lon="3.74374">
        <ele>31</ele>
        <time>2015-12-13T06:42:15Z</time>
      </trkpt>
      <trkpt lat="50.73881" lon="3.74378">
        <ele>31</ele>
        <time>2015-12-13T06:42:16Z</time>
      </trkpt>
      <trkpt lat="50.73881" lon="3.74381">
        <ele>31</ele>
        <time>2015-12-13T06:42:17Z</time>
      </trkpt>
      <trkpt lat="50.7388" lon="3.74384">
        <ele>31</ele>
        <time>2015-12-13T06:42:18Z</time>
      </trkpt>
      <trkpt lat="50.73878" lon="3.74387">
        <ele>31</ele>
        <time>2015-12-13T06:42:19Z</time>
      </trkpt>
      <trkpt lat="50.73876" lon="3.74389">
        <ele>31</ele>
        <time>2015-12-13T06:42:20Z</time>
      </trkpt>
      <trkpt lat="50.73874" lon="3.74391">
        <ele>31</ele>
        <time>2015-12-13T06:42:21Z</time>
      </trkpt>
      <trkpt lat="50.73872" lon="3.74392">
        <ele>31</ele>
        <time>2015-12-13T06:42:22Z</time>
      </trkpt>
      <trkpt lat="50.7387" lon="3.74394">
        <ele>31</ele>
        <time>2015-12-13T06:42:23Z</time>
      </trkpt>
      <trkpt lat="50.73868" lon="3.74395">
        <ele>31</ele>
        <time>2015-12-13T06:42:24Z</time>
      </trkpt>
      <trkpt lat="50.73866" lon="3.74397">
        <ele>31</ele>
        <time>2015-12-13T06:42:25Z</time>
      </trkpt>
      <trkpt lat="50.73864" lon="3.74399">
        <ele>31</ele>
        <time>2015-12-13T06:42:26Z</time>
      </trkpt>
      <trkpt lat="50.73862" lon="3.744">
        <ele>31</ele>
        <time>2015-12-13T06:42:27Z</time>
      </trkpt>
      <trkpt lat="50.7386" lon="3.74402">
        <ele>31</ele>
        <time>2015-12-13T06:42:28Z</time>
      </trkpt>
      <trkpt lat="50.73858" lon="3.74403">
        <ele>31</ele>
        <time>2015-12-13T06:42:29Z</time>
      </trkpt>
      <trkpt lat="50.73856" lon="3.74405">
        <ele>31</ele>
        <time>2015-12-13T06:42:30Z</time>
      </trkpt>
      <trkpt lat="50.73854" lon="3.74406">
        <ele>31</ele>
        <time>2015-12-13T06:42:31Z</time>
      </trkpt>
      <trkpt lat="50.73852" lon="3.74407">
        <ele>31</ele>
        <time>2015-12-13T06:42:32Z</time>
      </trkpt>
      <trkpt lat="50.73849" lon="3.74408">
        <ele>31</ele>
        <time>2015-12-13T06:42:33Z</time>
      </trkpt>
      <trkpt lat="50.73847" lon="3.7441">
        <ele>31</ele>
        <time>2015-12-13T06:42:34Z</time>
      </trkpt>
      <trkpt lat="50.73845" lon="3.74412">
        <ele>31</ele>
        <time>2015-12-13T06:42:35Z</time>
      </trkpt>
      <trkpt lat="50.73843" lon="3.74413">
        <ele>31</ele>
        <time>2015-12-13T06:42:36Z</time>
      </trkpt>
      <trkpt lat="50.7384" lon="3.74414">
        <ele>31</ele>
        <time>2015-12-13T06:42:37Z</time>
      </trkpt>
      <trkpt lat="50.73838" lon="3.74416">
        <ele>31</ele>
        <time>2015-12-13T06:42:38Z</time>
      </trkpt>
      <trkpt lat="50.73836" lon="3.74417">
        <ele>31</ele>
        <time>2015-12-13T06:42:39Z</time>
      </trkpt>
      <trkpt lat="50.73834" lon="3.74418">
        <ele>31</ele>
        <time>2015-12-13T06:42:40Z</time>
      </trkpt>
      <trkpt lat="50.73832" lon="3.7442">
        <ele>31</ele>
        <time>2015-12-13T06:42:41Z</time>
      </trkpt>
      <trkpt lat="50.73829" lon="3.74421">
        <ele>31</ele>
        <time>2015-12-13T06:42:42Z</time>
      </trkpt>
      <trkpt lat="50.73827" lon="3.74423">
        <ele>31</ele>
        <time>2015-12-13T06:42:43Z</time>
      </trkpt>
      <trkpt lat="50.73825" lon="3.74424">
        <ele>31</ele>
        <time>2015-12-13T06:42:44Z</time>
      </trkpt>
      <trkpt lat="50.73823" lon="3.74426">
        <ele>31</ele>
        <time>2015-12-13T06:42:45Z</time>
      </trkpt>
      <trkpt lat="50.73821" lon="3.74427">
        <ele>31</ele>
        <time>2015-12-13T06:42:46Z</time>
      </trkpt>
      <trkpt lat="50.73819" lon="3.74429">
        <ele>31</ele>
        <time>2015-12-13T06:42:47Z</time>
      </trkpt>
      <trkpt lat="50.73817" lon="3.74431">
        <ele>31</ele>
        <time>2015-12-13T06:42:48Z</time>
      </trkpt>
      <trkpt lat="50.73815" lon="3.74432">
        <ele>31</ele>
        <time>2015-12-13T06:42:49Z</time>
      </trkpt>
      <trkpt lat="50.73813" lon="3.74433">
        <ele>31</ele>
        <time>2015-12-13T06:42:50Z</time>
      </trkpt>
      <trkpt lat="50.73812" lon="3.74435">
        <ele>31.7</ele>
        <time>2015-12-13T06:42:51Z</time>
      </trkpt>
      <trkpt lat="50.73809" lon="3.74436">
        <ele>32</ele>
        <time>2015-12-13T06:42:52Z</time>
      </trkpt>
      <trkpt lat="50.73807" lon="3.74438">
        <ele>32</ele>
        <time>2015-12-13T06:42:53Z</time>
      </trkpt>
      <trkpt lat="50.73805" lon="3.7444">
        <ele>32</ele>
        <time>2015-12-13T06:42:54Z</time>
      </trkpt>
      <trkpt lat="50.73803" lon="3.74442">
        <ele>32</ele>
        <time>2015-12-13T06:42:55Z</time>
      </trkpt>
      <trkpt lat="50.73801" lon="3.74444">
        <ele>32</ele>
        <time>2015-12-13T06:42:56Z</time>
      </trkpt>
      <trkpt lat="50.73799" lon="3.74446">
        <ele>32</ele>
        <time>2015-12-13T06:42:57Z</time>
      </trkpt>
      <trkpt lat="50.73797" lon="3.74447">
        <ele>32</ele>
        <time>2015-12-13T06:42:58Z</time>
      </trkpt>
      <trkpt lat="50.73796" lon="3.74449">
        <ele>32</ele>
        <time>2015-12-13T06:42:59Z</time>
      </trkpt>
      <trkpt lat="50.73794" lon="3.7445">
        <ele>32</ele>
        <time>2015-12-13T06:43:00Z</time>
      </trkpt>
      <trkpt lat="50.73792" lon="3.74452">
        <ele>32.7</ele>
        <time>2015-12-13T06:43:01Z</time>
      </trkpt>
      <trkpt lat="50.7379" lon="3.74454">
        <ele>33</ele>
        <time>2015-12-13T06:43:02Z</time>
      </trkpt>
      <trkpt lat="50.73788" lon="3.74456">
        <ele>33</ele>
        <time>2015-12-13T06:43:03Z</time>
      </trkpt>
      <trkpt lat="50.73786" lon="3.74458">
        <ele>33</ele>
        <time>2015-12-13T06:43:04Z</time>
      </trkpt>
      <trkpt lat="50.73785" lon="3.74459">
        <ele>33</ele>
        <time>2015-12-13T06:43:05Z</time>
      </trkpt>
      <trkpt lat="50.73783" lon="3.74462">
        <ele>33</ele>
        <time>2015-12-13T06:43:06Z</time>
      </trkpt>
      <trkpt lat="50.73781" lon="3.74464">
        <ele>33</ele>
        <time>2015-12-13T06:43:07Z</time>
      </trkpt>
      <trkpt lat="50.73779" lon="3.74466">
        <ele>33</ele>
        <time>2015-12-13T06:43:08Z</time>
      </trkpt>
      <trkpt lat="50.73777" lon="3.74468">
        <ele>33</ele>
        <time>2015-12-13T06:43:09Z</time>
      </trkpt>
      <trkpt lat="50.73776" lon="3.74471">
        <ele>33</ele>
        <time>2015-12-13T06:43:10Z</time>
      </trkpt>
      <trkpt lat="50.73774" lon="3.74473">
        <ele>33</ele>
        <time>2015-12-13T06:43:11Z</time>
      </trkpt>
      <trkpt lat="50.73772" lon="3.74475">
        <ele>33</ele>
        <time>2015-12-13T06:43:12Z</time>
      </trkpt>
      <trkpt lat="50.73771" lon="3.74477">
        <ele>33</ele>
        <time>2015-12-13T06:43:13Z</time>
      </trkpt>
      <trkpt lat="50.73769" lon="3.7448">
        <ele>33</ele>
        <time>2015-12-13T06:43:14Z</time>
      </trkpt>
      <trkpt lat="50.73767" lon="3.74482">
        <ele>33</ele>
        <time>2015-12-13T06:43:15Z</time>
      </trkpt>
      <trkpt lat="50.73765" lon="3.74484">
        <ele>33</ele>
        <time>2015-12-13T06:43:16Z</time>
      </trkpt>
      <trkpt lat="50.73763" lon="3.74487">
        <ele>33</ele>
        <time>2015-12-13T06:43:17Z</time>
      </trkpt>
      <trkpt lat="50.73762" lon="3.74489">
        <ele>33</ele>
        <time>2015-12-13T06:43:18Z</time>
      </trkpt>
      <trkpt lat="50.73761" lon="3.74492">
        <ele>33</ele>
        <time>2015-12-13T06:43:19Z</time>
      </trkpt>
      <trkpt lat="50.73759" lon="3.74496">
        <ele>33</ele>
        <time>2015-12-13T06:43:20Z</time>
      </trkpt>
      <trkpt lat="50.73759" lon="3.74499">
        <ele>33</ele>
        <time>2015-12-13T06:43:21Z</time>
      </trkpt>
      <trkpt lat="50.73758" lon="3.74502">
        <ele>33</ele>
        <time>2015-12-13T06:43:22Z</time>
      </trkpt>
      <trkpt lat="50.73757" lon="3.74506">
        <ele>33</ele>
        <time>2015-12-13T06:43:23Z</time>
      </trkpt>
      <trkpt lat="50.73757" lon="3.7451">
        <ele>33</ele>
        <time>2015-12-13T06:43:24Z</time>
      </trkpt>
      <trkpt lat="50.73757" lon="3.74514">
        <ele>33</ele>
        <time>2015-12-13T06:43:25Z</time>
      </trkpt>
      <trkpt lat="50.73758" lon="3.74518">
        <ele>33</ele>
        <time>2015-12-13T06:43:26Z</time>
      </trkpt>
      <trkpt lat="50.73758" lon="3.74522">
        <ele>33</ele>
        <time>2015-12-13T06:43:27Z</time>
      </trkpt>
      <trkpt lat="50.73758" lon="3.74526">
        <ele>33</ele>
        <time>2015-12-13T06:43:28Z</time>
      </trkpt>
      <trkpt lat="50.73759" lon="3.74529">
        <ele>33</ele>
        <time>2015-12-13T06:43:29Z</time>
      </trkpt>
      <trkpt lat="50.7376" lon="3.74533">
        <ele>33</ele>
        <time>2015-12-13T06:43:30Z</time>
      </trkpt>
      <trkpt lat="50.7376" lon="3.74537">
        <ele>33</ele>
        <time>2015-12-13T06:43:31Z</time>
      </trkpt>
      <trkpt lat="50.73761" lon="3.74541">
        <ele>33</ele>
        <time>2015-12-13T06:43:32Z</time>
      </trkpt>
      <trkpt lat="50.73761" lon="3.74544">
        <ele>33</ele>
        <time>2015-12-13T06:43:33Z</time>
      </trkpt>
      <trkpt lat="50.73762" lon="3.74548">
        <ele>33</ele>
        <time>2015-12-13T06:43:34Z</time>
      </trkpt>
      <trkpt lat="50.73762" lon="3.74551">
        <ele>33</ele>
        <time>2015-12-13T06:43:35Z</time>
      </trkpt>
      <trkpt lat="50.73763" lon="3.74555">
        <ele>33</ele>
        <time>2015-12-13T06:43:36Z</time>
      </trkpt>
      <trkpt lat="50.73764" lon="3.74559">
        <ele>33</ele>
        <time>2015-12-13T06:43:37Z</time>
      </trkpt>
      <trkpt lat="50.73764" lon="3.74562">
        <ele>33</ele>
        <time>2015-12-13T06:43:38Z</time>
      </trkpt>
      <trkpt lat="50.73765" lon="3.74566">
        <ele>33</ele>
        <time>2015-12-13T06:43:39Z</time>
      </trkpt>
      <trkpt lat="50.73766" lon="3.74569">
        <ele>33</ele>
        <time>2015-12-13T06:43:40Z</time>
      </trkpt>
      <trkpt lat="50.73767" lon="3.74572">
        <ele>33</ele>
        <time>2015-12-13T06:43:41Z</time>
      </trkpt>
      <trkpt lat="50.73767" lon="3.74576">
        <ele>33</ele>
        <time>2015-12-13T06:43:42Z</time>
      </trkpt>
      <trkpt lat="50.73768" lon="3.74579">
        <ele>33</ele>
        <time>2015-12-13T06:43:43Z</time>
      </trkpt>
      <trkpt lat="50.73769" lon="3.74583">
        <ele>33</ele>
        <time>2015-12-13T06:43:44Z</time>
      </trkpt>
      <trkpt lat="50.7377" lon="3.74586">
        <ele>33</ele>
        <time>2015-12-13T06:43:45Z</time>
      </trkpt>
      <trkpt lat="50.73771" lon="3.74589">
        <ele>33</ele>
        <time>2015-12-13T06:43:46Z</time>
      </trkpt>
      <trkpt lat="50.73771" lon="3.74593">
        <ele>33</ele>
        <time>2015-12-13T06:43:47Z</time>
      </trkpt>
      <trkpt lat="50.73772" lon="3.74596">
        <ele>33</ele>
        <time>2015-12-13T06:43:48Z</time>
      </trkpt>
      <trkpt lat="50.73773" lon="3.74599">
        <ele>33</ele>
        <time>2015-12-13T06:43:49Z</time>
      </trkpt>
      <trkpt lat="50.73774" lon="3.74603">
        <ele>33</ele>
        <time>2015-12-13T06:43:50Z</time>
      </trkpt>
      <trkpt lat="50.73774" lon="3.74606">
        <ele>32.3</ele>
        <time>2015-12-13T06:43:51Z</time>
      </trkpt>
      <trkpt lat="50.73775" lon="3.74609">
        <ele>32</ele>
        <time>2015-12-13T06:43:52Z</time>
      </trkpt>
      <trkpt lat="50.73776" lon="3.74612">
        <ele>32</ele>
        <time>2015-12-13T06:43:53Z</time>
      </trkpt>
      <trkpt lat="50.73778" lon="3.74614">
        <ele>32</ele>
        <time>2015-12-13T06:43:54Z</time>
      </trkpt>
      <trkpt lat="50.7378" lon="3.74616">
        <ele>32</ele>
        <time>2015-12-13T06:43:55Z</time>
      </trkpt>
      <trkpt lat="50.73782" lon="3.74618">
        <ele>32</ele>
        <time>2015-12-13T06:43:56Z</time>
      </trkpt>
      <trkpt lat="50.73783" lon="3.74621">
        <ele>32</ele>
        <time>2015-12-13T06:43:57Z</time>
      </trkpt>
      <trkpt lat="50.73784" lon="3.74624">
        <ele>32</ele>
        <time>2015-12-13T06:43:58Z</time>
      </trkpt>
      <trkpt lat="50.73785" lon="3.74627">
        <ele>32</ele>
        <time>2015-12-13T06:43:59Z</time>
      </trkpt>
      <trkpt lat="50.73786" lon="3.7463">
        <ele>32</ele>
        <time>2015-12-13T06:44:00Z</time>
      </trkpt>
      <trkpt lat="50.73787" lon="3.74633">
        <ele>31.3</ele>
        <time>2015-12-13T06:44:01Z</time>
      </trkpt>
      <trkpt lat="50.73789" lon="3.74635">
        <ele>31</ele>
        <time>2015-12-13T06:44:02Z</time>
      </trkpt>
      <trkpt lat="50.7379" lon="3.74638">
        <ele>31</ele>
        <time>2015-12-13T06:44:03Z</time>
      </trkpt>
      <trkpt lat="50.73791" lon="3.74641">
        <ele>31</ele>
        <time>2015-12-13T06:44:04Z</time>
      </trkpt>
      <trkpt lat="50.73792" lon="3.74645">
        <ele>31</ele>
        <time>2015-12-13T06:44:05Z</time>
      </trkpt>
      <trkpt lat="50.73793" lon="3.74648">
        <ele>31</ele>
        <time>2015-12-13T06:44:06Z</time>
      </trkpt>
      <trkpt lat="50.73794" lon="3.74651">
        <ele>31</ele>
        <time>2015-12-13T06:44:07Z</time>
      </trkpt>
      <trkpt lat="50.73796" lon="3.74653">
        <ele>31</ele>
        <time>2015-12-13T06:44:08Z</time>
      </trkpt>
      <trkpt lat="50.73797" lon="3.74656">
        <ele>31</ele>
        <time>2015-12-13T06:44:09Z</time>
      </trkpt>
      <trkpt lat="50.73798" lon="3.74659">
        <ele>31</ele>
        <time>2015-12-13T06:44:10Z</time>
      </trkpt>
      <trkpt lat="50.73799" lon="3.74661">
        <ele>31</ele>
        <time>2015-12-13T06:44:11Z</time>
      </trkpt>
      <trkpt lat="50.738" lon="3.74664">
        <ele>31</ele>
        <time>2015-12-13T06:44:12Z</time>
      </trkpt>
      <trkpt lat="50.73801" lon="3.74667">
        <ele>31</ele>
        <time>2015-12-13T06:44:13Z</time>
      </trkpt>
      <trkpt lat="50.73802" lon="3.74671">
        <ele>31</ele>
        <time>2015-12-13T06:44:14Z</time>
      </trkpt>
      <trkpt lat="50.73803" lon="3.74674">
        <ele>31</ele>
        <time>2015-12-13T06:44:15Z</time>
      </trkpt>
      <trkpt lat="50.73804" lon="3.74677">
        <ele>31</ele>
        <time>2015-12-13T06:44:16Z</time>
      </trkpt>
      <trkpt lat="50.73805" lon="3.74681">
        <ele>31</ele>
        <time>2015-12-13T06:44:17Z</time>
      </trkpt>
      <trkpt lat="50.73806" lon="3.74684">
        <ele>31</ele>
        <time>2015-12-13T06:44:18Z</time>
      </trkpt>
      <trkpt lat="50.73807" lon="3.74687">
        <ele>31</ele>
        <time>2015-12-13T06:44:19Z</time>
      </trkpt>
      <trkpt lat="50.73808" lon="3.7469">
        <ele>31</ele>
        <time>2015-12-13T06:44:20Z</time>
      </trkpt>
      <trkpt lat="50.7381" lon="3.74693">
        <ele>31</ele>
        <time>2015-12-13T06:44:21Z</time>
      </trkpt>
      <trkpt lat="50.73811" lon="3.74696">
        <ele>31</ele>
        <time>2015-12-13T06:44:22Z</time>
      </trkpt>
      <trkpt lat="50.73812" lon="3.74699">
        <ele>31</ele>
        <time>2015-12-13T06:44:23Z</time>
      </trkpt>
      <trkpt lat="50.73813" lon="3.74702">
        <ele>31</ele>
        <time>2015-12-13T06:44:24Z</time>
      </trkpt>
      <trkpt lat="50.73814" lon="3.74705">
        <ele>31</ele>
        <time>2015-12-13T06:44:25Z</time>
      </trkpt>
      <trkpt lat="50.73816" lon="3.74708">
        <ele>31</ele>
        <time>2015-12-13T06:44:26Z</time>
      </trkpt>
      <trkpt lat="50.73817" lon="3.74711">
        <ele>31</ele>
        <time>2015-12-13T06:44:27Z</time>
      </trkpt>
      <trkpt lat="50.73818" lon="3.74714">
        <ele>31</ele>
        <time>2015-12-13T06:44:28Z</time>
      </trkpt>
      <trkpt lat="50.73819" lon="3.74717">
        <ele>31</ele>
        <time>2015-12-13T06:44:29Z</time>
      </trkpt>
      <trkpt lat="50.7382" lon="3.74721">
        <ele>31</ele>
        <time>2015-12-13T06:44:30Z</time>
      </trkpt>
      <trkpt lat="50.73821" lon="3.74724">
        <ele>30.5</ele>
        <time>2015-12-13T06:44:31Z</time>
      </trkpt>
      <trkpt lat="50.73822" lon="3.74726">
        <ele>30</ele>
        <time>2015-12-13T06:44:32Z</time>
      </trkpt>
      <trkpt lat="50.73823" lon="3.74729">
        <ele>30</ele>
        <time>2015-12-13T06:44:33Z</time>
      </trkpt>
      <trkpt lat="50.73825" lon="3.74732">
        <ele>30</ele>
        <time>2015-12-13T06:44:34Z</time>
      </trkpt>
      <trkpt lat="50.73826" lon="3.74736">
        <ele>30</ele>
        <time>2015-12-13T06:44:35Z</time>
      </trkpt>
      <trkpt lat="50.73826" lon="3.74739">
        <ele>30</ele>
        <time>2015-12-13T06:44:36Z</time>
      </trkpt>
      <trkpt lat="50.73827" lon="3.74744">
        <ele>30</ele>
        <time>2015-12-13T06:44:38Z</time>
      </trkpt>
      <trkpt lat="50.73828" lon="3.74747">
        <ele>30</ele>
        <time>2015-12-13T06:44:39Z</time>
      </trkpt>
      <trkpt lat="50.73828" lon="3.7475">
        <ele>30</ele>
        <time>2015-12-13T06:44:40Z</time>
      </trkpt>
      <trkpt lat="50.73829" lon="3.74753">
        <ele>30</ele>
        <time>2015-12-13T06:44:41Z</time>
      </trkpt>
      <trkpt lat="50.7383" lon="3.74757">
        <ele>30</ele>
        <time>2015-12-13T06:44:42Z</time>
      </trkpt>
      <trkpt lat="50.73831" lon="3.7476">
        <ele>30</ele>
        <time>2015-12-13T06:44:43Z</time>
      </trkpt>
      <trkpt lat="50.73832" lon="3.74764">
        <ele>30</ele>
        <time>2015-12-13T06:44:44Z</time>
      </trkpt>
      <trkpt lat="50.73834" lon="3.74767">
        <ele>30</ele>
        <time>2015-12-13T06:44:45Z</time>
      </trkpt>
      <trkpt lat="50.73835" lon="3.74771">
        <ele>30</ele>
        <time>2015-12-13T06:44:46Z</time>
      </trkpt>
      <trkpt lat="50.73836" lon="3.74774">
        <ele>30</ele>
        <time>2015-12-13T06:44:47Z</time>
      </trkpt>
      <trkpt lat="50.73838" lon="3.74778">
        <ele>30</ele>
        <time>2015-12-13T06:44:48Z</time>
      </trkpt>
      <trkpt lat="50.73839" lon="3.74781">
        <ele>30</ele>
        <time>2015-12-13T06:44:49Z</time>
      </trkpt>
      <trkpt lat="50.7384" lon="3.74785">
        <ele>30</ele>
        <time>2015-12-13T06:44:50Z</time>
      </trkpt>
      <trkpt lat="50.73841" lon="3.74788">
        <ele>30</ele>
        <time>2015-12-13T06:44:51Z</time>
      </trkpt>
      <trkpt lat="50.73843" lon="3.74791">
        <ele>30</ele>
        <time>2015-12-13T06:44:52Z</time>
      </trkpt>
      <trkpt lat="50.73844" lon="3.74794">
        <ele>30</ele>
        <time>2015-12-13T06:44:53Z</time>
      </trkpt>
      <trkpt lat="50.73845" lon="3.74797">
        <ele>30</ele>
        <time>2015-12-13T06:44:54Z</time>
      </trkpt>
      <trkpt lat="50.73847" lon="3.74799">
        <ele>30</ele>
        <time>2015-12-13T06:44:55Z</time>
      </trkpt>
      <trkpt lat="50.73848" lon="3.74802">
        <ele>30</ele>
        <time>2015-12-13T06:44:56Z</time>
      </trkpt>
      <trkpt lat="50.73849" lon="3.74805">
        <ele>30</ele>
        <time>2015-12-13T06:44:57Z</time>
      </trkpt>
      <trkpt lat="50.7385" lon="3.74808">
        <ele>30</ele>
        <time>2015-12-13T06:44:58Z</time>
      </trkpt>
      <trkpt lat="50.73851" lon="3.74811">
        <ele>30</ele>
        <time>2015-12-13T06:44:59Z</time>
      </trkpt>
      <trkpt lat="50.73852" lon="3.74814">
        <ele>30</ele>
        <time>2015-12-13T06:45:00Z</time>
      </trkpt>
      <trkpt lat="50.73854" lon="3.74817">
        <ele>30</ele>
        <time>2015-12-13T06:45:01Z</time>
      </trkpt>
      <trkpt lat="50.73855" lon="3.7482">
        <ele>28.7</ele>
        <time>2015-12-13T06:45:02Z</time>
      </trkpt>
      <trkpt lat="50.73856" lon="3.74823">
        <ele>28</ele>
        <time>2015-12-13T06:45:03Z</time>
      </trkpt>
      <trkpt lat="50.73857" lon="3.74826">
        <ele>28</ele>
        <time>2015-12-13T06:45:04Z</time>
      </trkpt>
      <trkpt lat="50.73858" lon="3.7483">
        <ele>28</ele>
        <time>2015-12-13T06:45:05Z</time>
      </trkpt>
      <trkpt lat="50.73859" lon="3.74833">
        <ele>28</ele>
        <time>2015-12-13T06:45:06Z</time>
      </trkpt>
      <trkpt lat="50.73861" lon="3.74836">
        <ele>28</ele>
        <time>2015-12-13T06:45:07Z</time>
      </trkpt>
      <trkpt lat="50.73862" lon="3.7484">
        <ele>28</ele>
        <time>2015-12-13T06:45:08Z</time>
      </trkpt>
      <trkpt lat="50.73863" lon="3.74842">
        <ele>28</ele>
        <time>2015-12-13T06:45:09Z</time>
      </trkpt>
      <trkpt lat="50.73865" lon="3.74846">
        <ele>28</ele>
        <time>2015-12-13T06:45:10Z</time>
      </trkpt>
      <trkpt lat="50.73866" lon="3.74849">
        <ele>28</ele>
        <time>2015-12-13T06:45:11Z</time>
      </trkpt>
      <trkpt lat="50.73868" lon="3.74852">
        <ele>28</ele>
        <time>2015-12-13T06:45:12Z</time>
      </trkpt>
      <trkpt lat="50.73869" lon="3.74855">
        <ele>28</ele>
        <time>2015-12-13T06:45:13Z</time>
      </trkpt>
      <trkpt lat="50.73871" lon="3.74858">
        <ele>28</ele>
        <time>2015-12-13T06:45:14Z</time>
      </trkpt>
      <trkpt lat="50.73872" lon="3.74861">
        <ele>28</ele>
        <time>2015-12-13T06:45:15Z</time>
      </trkpt>
      <trkpt lat="50.73873" lon="3.74865">
        <ele>28</ele>
        <time>2015-12-13T06:45:16Z</time>
      </trkpt>
      <trkpt lat="50.73874" lon="3.74868">
        <ele>28</ele>
        <time>2015-12-13T06:45:17Z</time>
      </trkpt>
      <trkpt lat="50.73876" lon="3.74871">
        <ele>28</ele>
        <time>2015-12-13T06:45:18Z</time>
      </trkpt>
      <trkpt lat="50.73877" lon="3.74875">
        <ele>28</ele>
        <time>2015-12-13T06:45:19Z</time>
      </trkpt>
      <trkpt lat="50.73879" lon="3.74878">
        <ele>28</ele>
        <time>2015-12-13T06:45:20Z</time>
      </trkpt>
      <trkpt lat="50.7388" lon="3.7488">
        <ele>28</ele>
        <time>2015-12-13T06:45:21Z</time>
      </trkpt>
      <trkpt lat="50.73882" lon="3.74883">
        <ele>28</ele>
        <time>2015-12-13T06:45:22Z</time>
      </trkpt>
      <trkpt lat="50.73884" lon="3.74885">
        <ele>28</ele>
        <time>2015-12-13T06:45:23Z</time>
      </trkpt>
      <trkpt lat="50.73886" lon="3.74887">
        <ele>28</ele>
        <time>2015-12-13T06:45:24Z</time>
      </trkpt>
      <trkpt lat="50.73888" lon="3.74888">
        <ele>28</ele>
        <time>2015-12-13T06:45:25Z</time>
      </trkpt>
      <trkpt lat="50.7389" lon="3.7489">
        <ele>28</ele>
        <time>2015-12-13T06:45:26Z</time>
      </trkpt>
      <trkpt lat="50.73892" lon="3.74892">
        <ele>28</ele>
        <time>2015-12-13T06:45:27Z</time>
      </trkpt>
      <trkpt lat="50.73894" lon="3.74894">
        <ele>28</ele>
        <time>2015-12-13T06:45:28Z</time>
      </trkpt>
      <trkpt lat="50.73896" lon="3.74895">
        <ele>28</ele>
        <time>2015-12-13T06:45:29Z</time>
      </trkpt>
      <trkpt lat="50.73898" lon="3.74897">
        <ele>28</ele>
        <time>2015-12-13T06:45:30Z</time>
      </trkpt>
      <trkpt lat="50.73901" lon="3.74898">
        <ele>28</ele>
        <time>2015-12-13T06:45:31Z</time>
      </trkpt>
      <trkpt lat="50.73903" lon="3.749">
        <ele>28</ele>
        <time>2015-12-13T06:45:32Z</time>
      </trkpt>
      <trkpt lat="50.73905" lon="3.74902">
        <ele>28</ele>
        <time>2015-12-13T06:45:33Z</time>
      </trkpt>
      <trkpt lat="50.73907" lon="3.74904">
        <ele>28</ele>
        <time>2015-12-13T06:45:34Z</time>
      </trkpt>
      <trkpt lat="50.73909" lon="3.74905">
        <ele>28</ele>
        <time>2015-12-13T06:45:35Z</time>
      </trkpt>
      <trkpt lat="50.73911" lon="3.74907">
        <ele>28</ele>
        <time>2015-12-13T06:45:36Z</time>
      </trkpt>
      <trkpt lat="50.73913" lon="3.74908">
        <ele>28</ele>
        <time>2015-12-13T06:45:37Z</time>
      </trkpt>
      <trkpt lat="50.73915" lon="3.7491">
        <ele>28</ele>
        <time>2015-12-13T06:45:38Z</time>
      </trkpt>
      <trkpt lat="50.73917" lon="3.74911">
        <ele>28</ele>
        <time>2015-12-13T06:45:39Z</time>
      </trkpt>
      <trkpt lat="50.73919" lon="3.74912">
        <ele>28</ele>
        <time>2015-12-13T06:45:40Z</time>
      </trkpt>
      <trkpt lat="50.73921" lon="3.74912">
        <ele>28</ele>
        <time>2015-12-13T06:45:41Z</time>
      </trkpt>
      <trkpt lat="50.73923" lon="3.74913">
        <ele>28</ele>
        <time>2015-12-13T06:45:42Z</time>
      </trkpt>
      <trkpt lat="50.73926" lon="3.74914">
        <ele>28</ele>
        <time>2015-12-13T06:45:44Z</time>
      </trkpt>
      <trkpt lat="50.73929" lon="3.74914">
        <ele>28</ele>
        <time>2015-12-13T06:45:46Z</time>
      </trkpt>
      <trkpt lat="50.73931" lon="3.74915">
        <ele>28</ele>
        <time>2015-12-13T06:45:48Z</time>
      </trkpt>
      <trkpt lat="50.73934" lon="3.74916">
        <ele>28</ele>
        <time>2015-12-13T06:45:50Z</time>
      </trkpt>
      <trkpt lat="50.73937" lon="3.74916">
        <ele>28.7</ele>
        <time>2015-12-13T06:45:52Z</time>
      </trkpt>
      <trkpt lat="50.7394" lon="3.74917">
        <ele>29</ele>
        <time>2015-12-13T06:45:54Z</time>
      </trkpt>
      <trkpt lat="50.73942" lon="3.74917">
        <ele>29</ele>
        <time>2015-12-13T06:45:55Z</time>
      </trkpt>
      <trkpt lat="50.73944" lon="3.74918">
        <ele>29</ele>
        <time>2015-12-13T06:45:56Z</time>
      </trkpt>
      <trkpt lat="50.73947" lon="3.74918">
        <ele>29</ele>
        <time>2015-12-13T06:45:58Z</time>
      </trkpt>
      <trkpt lat="50.7395" lon="3.74919">
        <ele>29</ele>
        <time>2015-12-13T06:46:00Z</time>
      </trkpt>
      <trkpt lat="50.73953" lon="3.74919">
        <ele>30</ele>
        <time>2015-12-13T06:46:02Z</time>
      </trkpt>
      <trkpt lat="50.73956" lon="3.74919">
        <ele>30</ele>
        <time>2015-12-13T06:46:04Z</time>
      </trkpt>
      <trkpt lat="50.73958" lon="3.74918">
        <ele>30</ele>
        <time>2015-12-13T06:46:06Z</time>
      </trkpt>
      <trkpt lat="50.7396" lon="3.74915">
        <ele>30</ele>
        <time>2015-12-13T06:46:08Z</time>
      </trkpt>
      <trkpt lat="50.73962" lon="3.74911">
        <ele>30</ele>
        <time>2015-12-13T06:46:10Z</time>
      </trkpt>
      <trkpt lat="50.73963" lon="3.74908">
        <ele>30</ele>
        <time>2015-12-13T06:46:12Z</time>
      </trkpt>
      <trkpt lat="50.73964" lon="3.74904">
        <ele>30</ele>
        <time>2015-12-13T06:46:14Z</time>
      </trkpt>
      <trkpt lat="50.73965" lon="3.749">
        <ele>30</ele>
        <time>2015-12-13T06:46:16Z</time>
      </trkpt>
      <trkpt lat="50.73967" lon="3.74896">
        <ele>30</ele>
        <time>2015-12-13T06:46:18Z</time>
      </trkpt>
      <trkpt lat="50.73968" lon="3.74892">
        <ele>30</ele>
        <time>2015-12-13T06:46:20Z</time>
      </trkpt>
      <trkpt lat="50.73969" lon="3.74889">
        <ele>31</ele>
        <time>2015-12-13T06:46:22Z</time>
      </trkpt>
      <trkpt lat="50.73971" lon="3.74885">
        <ele>31</ele>
        <time>2015-12-13T06:46:24Z</time>
      </trkpt>
      <trkpt lat="50.73972" lon="3.74881">
        <ele>31</ele>
        <time>2015-12-13T06:46:26Z</time>
      </trkpt>
      <trkpt lat="50.73973" lon="3.74877">
        <ele>31</ele>
        <time>2015-12-13T06:46:28Z</time>
      </trkpt>
      <trkpt lat="50.73974" lon="3.74874">
        <ele>31</ele>
        <time>2015-12-13T06:46:30Z</time>
      </trkpt>
      <trkpt lat="50.73976" lon="3.7487">
        <ele>31</ele>
        <time>2015-12-13T06:46:32Z</time>
      </trkpt>
      <trkpt lat="50.73977" lon="3.74867">
        <ele>31</ele>
        <time>2015-12-13T06:46:34Z</time>
      </trkpt>
      <trkpt lat="50.73978" lon="3.74864">
        <ele>31</ele>
        <time>2015-12-13T06:46:36Z</time>
      </trkpt>
      <trkpt lat="50.7398" lon="3.7486">
        <ele>31</ele>
        <time>2015-12-13T06:46:38Z</time>
      </trkpt>
      <trkpt lat="50.73981" lon="3.74856">
        <ele>31</ele>
        <time>2015-12-13T06:46:40Z</time>
      </trkpt>
      <trkpt lat="50.73982" lon="3.74854">
        <ele>31</ele>
        <time>2015-12-13T06:46:42Z</time>
      </trkpt>
      <trkpt lat="50.73983" lon="3.74849">
        <ele>31</ele>
        <time>2015-12-13T06:46:48Z</time>
      </trkpt>
      <trkpt lat="50.73984" lon="3.74846">
        <ele>31</ele>
        <time>2015-12-13T06:46:49Z</time>
      </trkpt>
      <trkpt lat="50.73985" lon="3.74843">
        <ele>31</ele>
        <time>2015-12-13T06:46:50Z</time>
      </trkpt>
      <trkpt lat="50.73986" lon="3.7484">
        <ele>31</ele>
        <time>2015-12-13T06:46:51Z</time>
      </trkpt>
      <trkpt lat="50.73987" lon="3.74836">
        <ele>31</ele>
        <time>2015-12-13T06:46:52Z</time>
      </trkpt>
      <trkpt lat="50.73987" lon="3.74832">
        <ele>31</ele>
        <time>2015-12-13T06:46:53Z</time>
      </trkpt>
      <trkpt lat="50.73988" lon="3.74829">
        <ele>31</ele>
        <time>2015-12-13T06:46:54Z</time>
      </trkpt>
      <trkpt lat="50.73988" lon="3.74825">
        <ele>31</ele>
        <time>2015-12-13T06:46:55Z</time>
      </trkpt>
      <trkpt lat="50.73988" lon="3.74821">
        <ele>31</ele>
        <time>2015-12-13T06:46:56Z</time>
      </trkpt>
      <trkpt lat="50.73988" lon="3.74817">
        <ele>31</ele>
        <time>2015-12-13T06:46:57Z</time>
      </trkpt>
      <trkpt lat="50.73988" lon="3.74813">
        <ele>31</ele>
        <time>2015-12-13T06:46:58Z</time>
      </trkpt>
      <trkpt lat="50.73988" lon="3.74809">
        <ele>31</ele>
        <time>2015-12-13T06:46:59Z</time>
      </trkpt>
      <trkpt lat="50.73988" lon="3.74806">
        <ele>31</ele>
        <time>2015-12-13T06:47:00Z</time>
      </trkpt>
      <trkpt lat="50.73988" lon="3.74802">
        <ele>31</ele>
        <time>2015-12-13T06:47:01Z</time>
      </trkpt>
      <trkpt lat="50.73989" lon="3.74798">
        <ele>31</ele>
        <time>2015-12-13T06:47:02Z</time>
      </trkpt>
      <trkpt lat="50.73989" lon="3.74795">
        <ele>31</ele>
        <time>2015-12-13T06:47:03Z</time>
      </trkpt>
      <trkpt lat="50.7399" lon="3.74792">
        <ele>31</ele>
        <time>2015-12-13T06:47:04Z</time>
      </trkpt>
      <trkpt lat="50.73991" lon="3.74788">
        <ele>31</ele>
        <time>2015-12-13T06:47:05Z</time>
      </trkpt>
      <trkpt lat="50.73991" lon="3.74785">
        <ele>31</ele>
        <time>2015-12-13T06:47:06Z</time>
      </trkpt>
      <trkpt lat="50.73993" lon="3.74782">
        <ele>31</ele>
        <time>2015-12-13T06:47:07Z</time>
      </trkpt>
      <trkpt lat="50.73995" lon="3.74779">
        <ele>31</ele>
        <time>2015-12-13T06:47:08Z</time>
      </trkpt>
      <trkpt lat="50.73996" lon="3.74776">
        <ele>31</ele>
        <time>2015-12-13T06:47:09Z</time>
      </trkpt>
      <trkpt lat="50.73997" lon="3.74773">
        <ele>31</ele>
        <time>2015-12-13T06:47:10Z</time>
      </trkpt>
      <trkpt lat="50.73998" lon="3.7477">
        <ele>31</ele>
        <time>2015-12-13T06:47:11Z</time>
      </trkpt>
      <trkpt lat="50.74" lon="3.74767">
        <ele>31</ele>
        <time>2015-12-13T06:47:12Z</time>
      </trkpt>
      <trkpt lat="50.74001" lon="3.74764">
        <ele>31</ele>
        <time>2015-12-13T06:47:13Z</time>
      </trkpt>
      <trkpt lat="50.74003" lon="3.74761">
        <ele>31</ele>
        <time>2015-12-13T06:47:14Z</time>
      </trkpt>
      <trkpt lat="50.74004" lon="3.74758">
        <ele>31</ele>
        <time>2015-12-13T06:47:15Z</time>
      </trkpt>
      <trkpt lat="50.74005" lon="3.74754">
        <ele>31</ele>
        <time>2015-12-13T06:47:16Z</time>
      </trkpt>
      <trkpt lat="50.74007" lon="3.74751">
        <ele>31</ele>
        <time>2015-12-13T06:47:17Z</time>
      </trkpt>
      <trkpt lat="50.74008" lon="3.74748">
        <ele>31</ele>
        <time>2015-12-13T06:47:18Z</time>
      </trkpt>
      <trkpt lat="50.74009" lon="3.74745">
        <ele>31</ele>
        <time>2015-12-13T06:47:19Z</time>
      </trkpt>
      <trkpt lat="50.7401" lon="3.74742">
        <ele>31</ele>
        <time>2015-12-13T06:47:20Z</time>
      </trkpt>
      <trkpt lat="50.74012" lon="3.74739">
        <ele>31.7</ele>
        <time>2015-12-13T06:47:21Z</time>
      </trkpt>
      <trkpt lat="50.74013" lon="3.74736">
        <ele>32</ele>
        <time>2015-12-13T06:47:22Z</time>
      </trkpt>
      <trkpt lat="50.74014" lon="3.74733">
        <ele>32</ele>
        <time>2015-12-13T06:47:23Z</time>
      </trkpt>
      <trkpt lat="50.74015" lon="3.7473">
        <ele>32</ele>
        <time>2015-12-13T06:47:24Z</time>
      </trkpt>
      <trkpt lat="50.74016" lon="3.74728">
        <ele>32</ele>
        <time>2015-12-13T06:47:25Z</time>
      </trkpt>
      <trkpt lat="50.74018" lon="3.74725">
        <ele>32</ele>
        <time>2015-12-13T06:47:26Z</time>
      </trkpt>
      <trkpt lat="50.74019" lon="3.74723">
        <ele>32</ele>
        <time>2015-12-13T06:47:27Z</time>
      </trkpt>
      <trkpt lat="50.7402" lon="3.74719">
        <ele>32</ele>
        <time>2015-12-13T06:47:28Z</time>
      </trkpt>
      <trkpt lat="50.7402" lon="3.74716">
        <ele>32</ele>
        <time>2015-12-13T06:47:29Z</time>
      </trkpt>
      <trkpt lat="50.74021" lon="3.74713">
        <ele>32</ele>
        <time>2015-12-13T06:47:30Z</time>
      </trkpt>
      <trkpt lat="50.74022" lon="3.74709">
        <ele>32</ele>
        <time>2015-12-13T06:47:31Z</time>
      </trkpt>
      <trkpt lat="50.74023" lon="3.74706">
        <ele>32</ele>
        <time>2015-12-13T06:47:32Z</time>
      </trkpt>
      <trkpt lat="50.74024" lon="3.74703">
        <ele>32</ele>
        <time>2015-12-13T06:47:33Z</time>
      </trkpt>
      <trkpt lat="50.74025" lon="3.747">
        <ele>32</ele>
        <time>2015-12-13T06:47:34Z</time>
      </trkpt>
      <trkpt lat="50.74027" lon="3.74696">
        <ele>32</ele>
        <time>2015-12-13T06:47:35Z</time>
      </trkpt>
      <trkpt lat="50.74028" lon="3.74693">
        <ele>32</ele>
        <time>2015-12-13T06:47:36Z</time>
      </trkpt>
      <trkpt lat="50.74029" lon="3.7469">
        <ele>32</ele>
        <time>2015-12-13T06:47:37Z</time>
      </trkpt>
      <trkpt lat="50.74031" lon="3.74688">
        <ele>32</ele>
        <time>2015-12-13T06:47:38Z</time>
      </trkpt>
      <trkpt lat="50.74032" lon="3.74685">
        <ele>32</ele>
        <time>2015-12-13T06:47:39Z</time>
      </trkpt>
      <trkpt lat="50.74033" lon="3.74682">
        <ele>32</ele>
        <time>2015-12-13T06:47:40Z</time>
      </trkpt>
      <trkpt lat="50.74034" lon="3.7468">
        <ele>32</ele>
        <time>2015-12-13T06:47:41Z</time>
      </trkpt>
      <trkpt lat="50.74036" lon="3.74677">
        <ele>32</ele>
        <time>2015-12-13T06:47:42Z</time>
      </trkpt>
      <trkpt lat="50.74037" lon="3.74675">
        <ele>32</ele>
        <time>2015-12-13T06:47:43Z</time>
      </trkpt>
      <trkpt lat="50.74039" lon="3.74673">
        <ele>32</ele>
        <time>2015-12-13T06:47:44Z</time>
      </trkpt>
      <trkpt lat="50.74041" lon="3.7467">
        <ele>32</ele>
        <time>2015-12-13T06:47:45Z</time>
      </trkpt>
      <trkpt lat="50.74043" lon="3.74669">
        <ele>32</ele>
        <time>2015-12-13T06:47:46Z</time>
      </trkpt>
      <trkpt lat="50.74044" lon="3.74668">
        <ele>32</ele>
        <time>2015-12-13T06:47:47Z</time>
      </trkpt>
      <trkpt lat="50.74048" lon="3.74666">
        <ele>32</ele>
        <time>2015-12-13T06:47:49Z</time>
      </trkpt>
      <trkpt lat="50.74051" lon="3.74665">
        <ele>32</ele>
        <time>2015-12-13T06:47:51Z</time>
      </trkpt>
      <trkpt lat="50.74053" lon="3.74664">
        <ele>32</ele>
        <time>2015-12-13T06:47:52Z</time>
      </trkpt>
      <trkpt lat="50.74055" lon="3.74663">
        <ele>32</ele>
        <time>2015-12-13T06:47:53Z</time>
      </trkpt>
      <trkpt lat="50.74058" lon="3.74664">
        <ele>32</ele>
        <time>2015-12-13T06:47:54Z</time>
      </trkpt>
      <trkpt lat="50.7406" lon="3.74667">
        <ele>32</ele>
        <time>2015-12-13T06:47:55Z</time>
      </trkpt>
      <trkpt lat="50.74061" lon="3.74671">
        <ele>32</ele>
        <time>2015-12-13T06:47:56Z</time>
      </trkpt>
      <trkpt lat="50.74061" lon="3.74675">
        <ele>32</ele>
        <time>2015-12-13T06:47:57Z</time>
      </trkpt>
      <trkpt lat="50.74062" lon="3.74679">
        <ele>32</ele>
        <time>2015-12-13T06:47:58Z</time>
      </trkpt>
      <trkpt lat="50.74062" lon="3.74683">
        <ele>32</ele>
        <time>2015-12-13T06:47:59Z</time>
      </trkpt>
      <trkpt lat="50.74063" lon="3.74686">
        <ele>32</ele>
        <time>2015-12-13T06:48:00Z</time>
      </trkpt>
      <trkpt lat="50.74063" lon="3.7469">
        <ele>32</ele>
        <time>2015-12-13T06:48:01Z</time>
      </trkpt>
      <trkpt lat="50.74064" lon="3.74694">
        <ele>32.7</ele>
        <time>2015-12-13T06:48:02Z</time>
      </trkpt>
      <trkpt lat="50.74064" lon="3.74697">
        <ele>33</ele>
        <time>2015-12-13T06:48:03Z</time>
      </trkpt>
      <trkpt lat="50.74064" lon="3.74701">
        <ele>33</ele>
        <time>2015-12-13T06:48:04Z</time>
      </trkpt>
      <trkpt lat="50.74064" lon="3.74704">
        <ele>33</ele>
        <time>2015-12-13T06:48:05Z</time>
      </trkpt>
      <trkpt lat="50.74065" lon="3.74707">
        <ele>33</ele>
        <time>2015-12-13T06:48:06Z</time>
      </trkpt>
      <trkpt lat="50.74065" lon="3.7471">
        <ele>33</ele>
        <time>2015-12-13T06:48:07Z</time>
      </trkpt>
      <trkpt lat="50.74065" lon="3.74714">
        <ele>33</ele>
        <time>2015-12-13T06:48:08Z</time>
      </trkpt>
      <trkpt lat="50.74065" lon="3.74717">
        <ele>33</ele>
        <time>2015-12-13T06:48:09Z</time>
      </trkpt>
      <trkpt lat="50.74066" lon="3.74721">
        <ele>33</ele>
        <time>2015-12-13T06:48:10Z</time>
      </trkpt>
      <trkpt lat="50.74066" lon="3.74724">
        <ele>33</ele>
        <time>2015-12-13T06:48:11Z</time>
      </trkpt>
      <trkpt lat="50.74066" lon="3.74727">
        <ele>33.7</ele>
        <time>2015-12-13T06:48:12Z</time>
      </trkpt>
      <trkpt lat="50.74066" lon="3.74731">
        <ele>34</ele>
        <time>2015-12-13T06:48:13Z</time>
      </trkpt>
      <trkpt lat="50.74067" lon="3.74734">
        <ele>34</ele>
        <time>2015-12-13T06:48:14Z</time>
      </trkpt>
      <trkpt lat="50.74067" lon="3.74738">
        <ele>34</ele>
        <time>2015-12-13T06:48:15Z</time>
      </trkpt>
      <trkpt lat="50.74068" lon="3.74741">
        <ele>34</ele>
        <time>2015-12-13T06:48:16Z</time>
      </trkpt>
      <trkpt lat="50.74068" lon="3.74745">
        <ele>34</ele>
        <time>2015-12-13T06:48:17Z</time>
      </trkpt>
      <trkpt lat="50.74069" lon="3.74748">
        <ele>34</ele>
        <time>2015-12-13T06:48:18Z</time>
      </trkpt>
      <trkpt lat="50.74069" lon="3.74751">
        <ele>34</ele>
        <time>2015-12-13T06:48:19Z</time>
      </trkpt>
      <trkpt lat="50.7407" lon="3.74755">
        <ele>34</ele>
        <time>2015-12-13T06:48:20Z</time>
      </trkpt>
      <trkpt lat="50.7407" lon="3.74758">
        <ele>34</ele>
        <time>2015-12-13T06:48:21Z</time>
      </trkpt>
      <trkpt lat="50.74071" lon="3.74761">
        <ele>34.7</ele>
        <time>2015-12-13T06:48:22Z</time>
      </trkpt>
      <trkpt lat="50.74071" lon="3.74765">
        <ele>35</ele>
        <time>2015-12-13T06:48:23Z</time>
      </trkpt>
      <trkpt lat="50.74071" lon="3.74768">
        <ele>35</ele>
        <time>2015-12-13T06:48:24Z</time>
      </trkpt>
      <trkpt lat="50.74072" lon="3.74771">
        <ele>35</ele>
        <time>2015-12-13T06:48:25Z</time>
      </trkpt>
      <trkpt lat="50.74072" lon="3.74775">
        <ele>35</ele>
        <time>2015-12-13T06:48:26Z</time>
      </trkpt>
      <trkpt lat="50.74072" lon="3.74779">
        <ele>35</ele>
        <time>2015-12-13T06:48:27Z</time>
      </trkpt>
      <trkpt lat="50.74073" lon="3.74783">
        <ele>35</ele>
        <time>2015-12-13T06:48:28Z</time>
      </trkpt>
      <trkpt lat="50.74073" lon="3.74786">
        <ele>35</ele>
        <time>2015-12-13T06:48:29Z</time>
      </trkpt>
      <trkpt lat="50.74073" lon="3.7479">
        <ele>35</ele>
        <time>2015-12-13T06:48:30Z</time>
      </trkpt>
      <trkpt lat="50.74074" lon="3.74793">
        <ele>35</ele>
        <time>2015-12-13T06:48:31Z</time>
      </trkpt>
      <trkpt lat="50.74074" lon="3.74796">
        <ele>35</ele>
        <time>2015-12-13T06:48:32Z</time>
      </trkpt>
      <trkpt lat="50.74075" lon="3.74799">
        <ele>35</ele>
        <time>2015-12-13T06:48:33Z</time>
      </trkpt>
      <trkpt lat="50.74076" lon="3.74802">
        <ele>35</ele>
        <time>2015-12-13T06:48:34Z</time>
      </trkpt>
      <trkpt lat="50.74078" lon="3.74805">
        <ele>35</ele>
        <time>2015-12-13T06:48:35Z</time>
      </trkpt>
      <trkpt lat="50.74079" lon="3.74806">
        <ele>35</ele>
        <time>2015-12-13T06:48:36Z</time>
      </trkpt>
      <trkpt lat="50.74081" lon="3.74808">
        <ele>35</ele>
        <time>2015-12-13T06:48:37Z</time>
      </trkpt>
      <trkpt lat="50.74083" lon="3.74811">
        <ele>35</ele>
        <time>2015-12-13T06:48:39Z</time>
      </trkpt>
      <trkpt lat="50.74086" lon="3.74813">
        <ele>35</ele>
        <time>2015-12-13T06:48:41Z</time>
      </trkpt>
      <trkpt lat="50.74089" lon="3.74815">
        <ele>37</ele>
        <time>2015-12-13T06:48:43Z</time>
      </trkpt>
      <trkpt lat="50.74091" lon="3.74816">
        <ele>37</ele>
        <time>2015-12-13T06:48:44Z</time>
      </trkpt>
      <trkpt lat="50.74093" lon="3.74817">
        <ele>37</ele>
        <time>2015-12-13T06:48:45Z</time>
      </trkpt>
      <trkpt lat="50.74095" lon="3.74818">
        <ele>37</ele>
        <time>2015-12-13T06:48:46Z</time>
      </trkpt>
      <trkpt lat="50.74097" lon="3.74819">
        <ele>37</ele>
        <time>2015-12-13T06:48:47Z</time>
      </trkpt>
      <trkpt lat="50.74099" lon="3.74821">
        <ele>37</ele>
        <time>2015-12-13T06:48:48Z</time>
      </trkpt>
      <trkpt lat="50.74101" lon="3.74822">
        <ele>37</ele>
        <time>2015-12-13T06:48:49Z</time>
      </trkpt>
      <trkpt lat="50.74103" lon="3.74823">
        <ele>37</ele>
        <time>2015-12-13T06:48:50Z</time>
      </trkpt>
      <trkpt lat="50.74105" lon="3.74825">
        <ele>37</ele>
        <time>2015-12-13T06:48:51Z</time>
      </trkpt>
      <trkpt lat="50.74108" lon="3.74826">
        <ele>38.4</ele>
        <time>2015-12-13T06:48:52Z</time>
      </trkpt>
      <trkpt lat="50.7411" lon="3.74828">
        <ele>39</ele>
        <time>2015-12-13T06:48:53Z</time>
      </trkpt>
      <trkpt lat="50.74112" lon="3.7483">
        <ele>39</ele>
        <time>2015-12-13T06:48:54Z</time>
      </trkpt>
      <trkpt lat="50.74115" lon="3.74831">
        <ele>39</ele>
        <time>2015-12-13T06:48:55Z</time>
      </trkpt>
      <trkpt lat="50.74117" lon="3.74833">
        <ele>39</ele>
        <time>2015-12-13T06:48:56Z</time>
      </trkpt>
      <trkpt lat="50.7412" lon="3.74834">
        <ele>39.7</ele>
        <time>2015-12-13T06:48:57Z</time>
      </trkpt>
      <trkpt lat="50.74122" lon="3.74835">
        <ele>40</ele>
        <time>2015-12-13T06:48:58Z</time>
      </trkpt>
      <trkpt lat="50.74125" lon="3.74836">
        <ele>40</ele>
        <time>2015-12-13T06:48:59Z</time>
      </trkpt>
      <trkpt lat="50.74127" lon="3.74837">
        <ele>40</ele>
        <time>2015-12-13T06:49:00Z</time>
      </trkpt>
      <trkpt lat="50.74129" lon="3.74839">
        <ele>39.3</ele>
        <time>2015-12-13T06:49:01Z</time>
      </trkpt>
      <trkpt lat="50.7413" lon="3.7484">
        <ele>39</ele>
        <time>2015-12-13T06:49:02Z</time>
      </trkpt>
      <trkpt lat="50.74133" lon="3.74841">
        <ele>39</ele>
        <time>2015-12-13T06:49:03Z</time>
      </trkpt>
      <trkpt lat="50.74135" lon="3.74844">
        <ele>39</ele>
        <time>2015-12-13T06:49:04Z</time>
      </trkpt>
      <trkpt lat="50.74136" lon="3.74846">
        <ele>39</ele>
        <time>2015-12-13T06:49:05Z</time>
      </trkpt>
      <trkpt lat="50.74138" lon="3.74848">
        <ele>39</ele>
        <time>2015-12-13T06:49:06Z</time>
      </trkpt>
      <trkpt lat="50.74141" lon="3.7485">
        <ele>39</ele>
        <time>2015-12-13T06:49:07Z</time>
      </trkpt>
      <trkpt lat="50.74143" lon="3.74852">
        <ele>39</ele>
        <time>2015-12-13T06:49:08Z</time>
      </trkpt>
      <trkpt lat="50.74145" lon="3.74855">
        <ele>39</ele>
        <time>2015-12-13T06:49:09Z</time>
      </trkpt>
      <trkpt lat="50.74147" lon="3.74858">
        <ele>39</ele>
        <time>2015-12-13T06:49:10Z</time>
      </trkpt>
      <trkpt lat="50.74148" lon="3.74861">
        <ele>39</ele>
        <time>2015-12-13T06:49:11Z</time>
      </trkpt>
      <trkpt lat="50.74148" lon="3.74865">
        <ele>39</ele>
        <time>2015-12-13T06:49:12Z</time>
      </trkpt>
      <trkpt lat="50.74148" lon="3.74869">
        <ele>39</ele>
        <time>2015-12-13T06:49:13Z</time>
      </trkpt>
      <trkpt lat="50.74148" lon="3.74873">
        <ele>39</ele>
        <time>2015-12-13T06:49:14Z</time>
      </trkpt>
      <trkpt lat="50.74148" lon="3.74876">
        <ele>39</ele>
        <time>2015-12-13T06:49:15Z</time>
      </trkpt>
      <trkpt lat="50.74148" lon="3.74881">
        <ele>39</ele>
        <time>2015-12-13T06:49:17Z</time>
      </trkpt>
      <trkpt lat="50.74147" lon="3.74886">
        <ele>39</ele>
        <time>2015-12-13T06:49:19Z</time>
      </trkpt>
      <trkpt lat="50.74145" lon="3.74889">
        <ele>39</ele>
        <time>2015-12-13T06:49:21Z</time>
      </trkpt>
      <trkpt lat="50.74143" lon="3.74893">
        <ele>39</ele>
        <time>2015-12-13T06:49:23Z</time>
      </trkpt>
      <trkpt lat="50.74142" lon="3.74897">
        <ele>39</ele>
        <time>2015-12-13T06:49:25Z</time>
      </trkpt>
      <trkpt lat="50.74142" lon="3.74902">
        <ele>40</ele>
        <time>2015-12-13T06:49:29Z</time>
      </trkpt>
      <trkpt lat="50.74142" lon="3.74905">
        <ele>40</ele>
        <time>2015-12-13T06:49:30Z</time>
      </trkpt>
      <trkpt lat="50.74141" lon="3.74908">
        <ele>40</ele>
        <time>2015-12-13T06:49:31Z</time>
      </trkpt>
      <trkpt lat="50.74141" lon="3.74912">
        <ele>40</ele>
        <time>2015-12-13T06:49:32Z</time>
      </trkpt>
      <trkpt lat="50.7414" lon="3.74916">
        <ele>40</ele>
        <time>2015-12-13T06:49:33Z</time>
      </trkpt>
      <trkpt lat="50.7414" lon="3.74919">
        <ele>40</ele>
        <time>2015-12-13T06:49:34Z</time>
      </trkpt>
      <trkpt lat="50.7414" lon="3.74924">
        <ele>40</ele>
        <time>2015-12-13T06:49:35Z</time>
      </trkpt>
      <trkpt lat="50.74139" lon="3.74928">
        <ele>41.4</ele>
        <time>2015-12-13T06:49:36Z</time>
      </trkpt>
      <trkpt lat="50.74139" lon="3.74932">
        <ele>42</ele>
        <time>2015-12-13T06:49:37Z</time>
      </trkpt>
      <trkpt lat="50.74139" lon="3.74936">
        <ele>42</ele>
        <time>2015-12-13T06:49:38Z</time>
      </trkpt>
      <trkpt lat="50.74139" lon="3.74939">
        <ele>42</ele>
        <time>2015-12-13T06:49:39Z</time>
      </trkpt>
      <trkpt lat="50.74138" lon="3.74943">
        <ele>42</ele>
        <time>2015-12-13T06:49:40Z</time>
      </trkpt>
      <trkpt lat="50.74138" lon="3.74946">
        <ele>42</ele>
        <time>2015-12-13T06:49:41Z</time>
      </trkpt>
      <trkpt lat="50.74138" lon="3.7495">
        <ele>42</ele>
        <time>2015-12-13T06:49:42Z</time>
      </trkpt>
      <trkpt lat="50.74137" lon="3.74954">
        <ele>42</ele>
        <time>2015-12-13T06:49:43Z</time>
      </trkpt>
      <trkpt lat="50.74137" lon="3.74957">
        <ele>42</ele>
        <time>2015-12-13T06:49:44Z</time>
      </trkpt>
      <trkpt lat="50.74137" lon="3.74961">
        <ele>42</ele>
        <time>2015-12-13T06:49:45Z</time>
      </trkpt>
      <trkpt lat="50.74137" lon="3.74965">
        <ele>42</ele>
        <time>2015-12-13T06:49:46Z</time>
      </trkpt>
      <trkpt lat="50.74137" lon="3.74969">
        <ele>42</ele>
        <time>2015-12-13T06:49:47Z</time>
      </trkpt>
      <trkpt lat="50.74137" lon="3.74973">
        <ele>42</ele>
        <time>2015-12-13T06:49:48Z</time>
      </trkpt>
      <trkpt lat="50.74137" lon="3.74976">
        <ele>42</ele>
        <time>2015-12-13T06:49:49Z</time>
      </trkpt>
      <trkpt lat="50.74137" lon="3.7498">
        <ele>42</ele>
        <time>2015-12-13T06:49:50Z</time>
      </trkpt>
      <trkpt lat="50.74137" lon="3.74984">
        <ele>42</ele>
        <time>2015-12-13T06:49:51Z</time>
      </trkpt>
      <trkpt lat="50.74137" lon="3.74988">
        <ele>42</ele>
        <time>2015-12-13T06:49:52Z</time>
      </trkpt>
      <trkpt lat="50.74136" lon="3.74991">
        <ele>42</ele>
        <time>2015-12-13T06:49:53Z</time>
      </trkpt>
      <trkpt lat="50.74136" lon="3.74995">
        <ele>42</ele>
        <time>2015-12-13T06:49:54Z</time>
      </trkpt>
      <trkpt lat="50.74136" lon="3.74998">
        <ele>42</ele>
        <time>2015-12-13T06:49:55Z</time>
      </trkpt>
      <trkpt lat="50.74136" lon="3.75002">
        <ele>42</ele>
        <time>2015-12-13T06:49:56Z</time>
      </trkpt>
      <trkpt lat="50.74136" lon="3.75005">
        <ele>42</ele>
        <time>2015-12-13T06:49:57Z</time>
      </trkpt>
      <trkpt lat="50.74136" lon="3.75009">
        <ele>42</ele>
        <time>2015-12-13T06:49:58Z</time>
      </trkpt>
      <trkpt lat="50.74137" lon="3.75013">
        <ele>42</ele>
        <time>2015-12-13T06:49:59Z</time>
      </trkpt>
      <trkpt lat="50.74137" lon="3.75017">
        <ele>42</ele>
        <time>2015-12-13T06:50:00Z</time>
      </trkpt>
      <trkpt lat="50.74137" lon="3.75021">
        <ele>42</ele>
        <time>2015-12-13T06:50:01Z</time>
      </trkpt>
      <trkpt lat="50.74138" lon="3.75024">
        <ele>42</ele>
        <time>2015-12-13T06:50:02Z</time>
      </trkpt>
      <trkpt lat="50.74138" lon="3.75028">
        <ele>42</ele>
        <time>2015-12-13T06:50:03Z</time>
      </trkpt>
      <trkpt lat="50.74139" lon="3.75032">
        <ele>42</ele>
        <time>2015-12-13T06:50:04Z</time>
      </trkpt>
      <trkpt lat="50.74139" lon="3.75036">
        <ele>42</ele>
        <time>2015-12-13T06:50:05Z</time>
      </trkpt>
      <trkpt lat="50.7414" lon="3.7504">
        <ele>42</ele>
        <time>2015-12-13T06:50:06Z</time>
      </trkpt>
      <trkpt lat="50.74141" lon="3.75044">
        <ele>42</ele>
        <time>2015-12-13T06:50:07Z</time>
      </trkpt>
      <trkpt lat="50.74141" lon="3.75048">
        <ele>42</ele>
        <time>2015-12-13T06:50:08Z</time>
      </trkpt>
      <trkpt lat="50.74142" lon="3.75051">
        <ele>42</ele>
        <time>2015-12-13T06:50:09Z</time>
      </trkpt>
      <trkpt lat="50.74142" lon="3.75055">
        <ele>42</ele>
        <time>2015-12-13T06:50:10Z</time>
      </trkpt>
      <trkpt lat="50.74143" lon="3.75058">
        <ele>42</ele>
        <time>2015-12-13T06:50:11Z</time>
      </trkpt>
      <trkpt lat="50.74144" lon="3.75062">
        <ele>42</ele>
        <time>2015-12-13T06:50:12Z</time>
      </trkpt>
      <trkpt lat="50.74144" lon="3.75065">
        <ele>42</ele>
        <time>2015-12-13T06:50:13Z</time>
      </trkpt>
      <trkpt lat="50.74145" lon="3.75069">
        <ele>42</ele>
        <time>2015-12-13T06:50:14Z</time>
      </trkpt>
      <trkpt lat="50.74146" lon="3.75072">
        <ele>42</ele>
        <time>2015-12-13T06:50:15Z</time>
      </trkpt>
      <trkpt lat="50.74147" lon="3.75076">
        <ele>42</ele>
        <time>2015-12-13T06:50:16Z</time>
      </trkpt>
      <trkpt lat="50.74147" lon="3.75079">
        <ele>42</ele>
        <time>2015-12-13T06:50:17Z</time>
      </trkpt>
      <trkpt lat="50.74148" lon="3.75083">
        <ele>42</ele>
        <time>2015-12-13T06:50:18Z</time>
      </trkpt>
      <trkpt lat="50.74149" lon="3.75086">
        <ele>42</ele>
        <time>2015-12-13T06:50:19Z</time>
      </trkpt>
      <trkpt lat="50.7415" lon="3.7509">
        <ele>42</ele>
        <time>2015-12-13T06:50:20Z</time>
      </trkpt>
      <trkpt lat="50.74151" lon="3.75093">
        <ele>42.7</ele>
        <time>2015-12-13T06:50:21Z</time>
      </trkpt>
      <trkpt lat="50.74151" lon="3.75096">
        <ele>43</ele>
        <time>2015-12-13T06:50:22Z</time>
      </trkpt>
      <trkpt lat="50.74153" lon="3.751">
        <ele>43</ele>
        <time>2015-12-13T06:50:23Z</time>
      </trkpt>
      <trkpt lat="50.74154" lon="3.75103">
        <ele>43</ele>
        <time>2015-12-13T06:50:24Z</time>
      </trkpt>
      <trkpt lat="50.74155" lon="3.75107">
        <ele>43</ele>
        <time>2015-12-13T06:50:25Z</time>
      </trkpt>
      <trkpt lat="50.74156" lon="3.7511">
        <ele>43</ele>
        <time>2015-12-13T06:50:26Z</time>
      </trkpt>
      <trkpt lat="50.74158" lon="3.75113">
        <ele>43</ele>
        <time>2015-12-13T06:50:27Z</time>
      </trkpt>
      <trkpt lat="50.74159" lon="3.75116">
        <ele>43</ele>
        <time>2015-12-13T06:50:28Z</time>
      </trkpt>
      <trkpt lat="50.7416" lon="3.75119">
        <ele>43</ele>
        <time>2015-12-13T06:50:29Z</time>
      </trkpt>
      <trkpt lat="50.74162" lon="3.75122">
        <ele>43</ele>
        <time>2015-12-13T06:50:30Z</time>
      </trkpt>
      <trkpt lat="50.74164" lon="3.75124">
        <ele>43</ele>
        <time>2015-12-13T06:50:31Z</time>
      </trkpt>
      <trkpt lat="50.74165" lon="3.75127">
        <ele>43</ele>
        <time>2015-12-13T06:50:32Z</time>
      </trkpt>
      <trkpt lat="50.74167" lon="3.7513">
        <ele>43</ele>
        <time>2015-12-13T06:50:33Z</time>
      </trkpt>
      <trkpt lat="50.74169" lon="3.75132">
        <ele>43</ele>
        <time>2015-12-13T06:50:34Z</time>
      </trkpt>
      <trkpt lat="50.74171" lon="3.75134">
        <ele>43</ele>
        <time>2015-12-13T06:50:35Z</time>
      </trkpt>
      <trkpt lat="50.74173" lon="3.75136">
        <ele>43</ele>
        <time>2015-12-13T06:50:36Z</time>
      </trkpt>
      <trkpt lat="50.74175" lon="3.75138">
        <ele>43</ele>
        <time>2015-12-13T06:50:37Z</time>
      </trkpt>
      <trkpt lat="50.74176" lon="3.7514">
        <ele>43</ele>
        <time>2015-12-13T06:50:38Z</time>
      </trkpt>
      <trkpt lat="50.74178" lon="3.75142">
        <ele>43</ele>
        <time>2015-12-13T06:50:39Z</time>
      </trkpt>
      <trkpt lat="50.7418" lon="3.75144">
        <ele>43</ele>
        <time>2015-12-13T06:50:40Z</time>
      </trkpt>
      <trkpt lat="50.74182" lon="3.75146">
        <ele>43</ele>
        <time>2015-12-13T06:50:41Z</time>
      </trkpt>
      <trkpt lat="50.74185" lon="3.75147">
        <ele>43</ele>
        <time>2015-12-13T06:50:42Z</time>
      </trkpt>
      <trkpt lat="50.74187" lon="3.75149">
        <ele>43</ele>
        <time>2015-12-13T06:50:43Z</time>
      </trkpt>
      <trkpt lat="50.74189" lon="3.75151">
        <ele>43</ele>
        <time>2015-12-13T06:50:44Z</time>
      </trkpt>
      <trkpt lat="50.74191" lon="3.75153">
        <ele>43</ele>
        <time>2015-12-13T06:50:45Z</time>
      </trkpt>
      <trkpt lat="50.74193" lon="3.75155">
        <ele>43</ele>
        <time>2015-12-13T06:50:46Z</time>
      </trkpt>
      <trkpt lat="50.74195" lon="3.75157">
        <ele>43</ele>
        <time>2015-12-13T06:50:47Z</time>
      </trkpt>
      <trkpt lat="50.74197" lon="3.75159">
        <ele>43</ele>
        <time>2015-12-13T06:50:48Z</time>
      </trkpt>
      <trkpt lat="50.74199" lon="3.7516">
        <ele>43</ele>
        <time>2015-12-13T06:50:49Z</time>
      </trkpt>
      <trkpt lat="50.74201" lon="3.75163">
        <ele>43</ele>
        <time>2015-12-13T06:50:50Z</time>
      </trkpt>
      <trkpt lat="50.74203" lon="3.75165">
        <ele>43</ele>
        <time>2015-12-13T06:50:51Z</time>
      </trkpt>
      <trkpt lat="50.74204" lon="3.75168">
        <ele>43</ele>
        <time>2015-12-13T06:50:52Z</time>
      </trkpt>
      <trkpt lat="50.74206" lon="3.75171">
        <ele>43</ele>
        <time>2015-12-13T06:50:53Z</time>
      </trkpt>
      <trkpt lat="50.74208" lon="3.75173">
        <ele>43</ele>
        <time>2015-12-13T06:50:54Z</time>
      </trkpt>
      <trkpt lat="50.7421" lon="3.75176">
        <ele>43</ele>
        <time>2015-12-13T06:50:55Z</time>
      </trkpt>
      <trkpt lat="50.74211" lon="3.75179">
        <ele>43</ele>
        <time>2015-12-13T06:50:56Z</time>
      </trkpt>
      <trkpt lat="50.74213" lon="3.75182">
        <ele>43</ele>
        <time>2015-12-13T06:50:57Z</time>
      </trkpt>
      <trkpt lat="50.74214" lon="3.75185">
        <ele>43</ele>
        <time>2015-12-13T06:50:58Z</time>
      </trkpt>
      <trkpt lat="50.74215" lon="3.75188">
        <ele>43</ele>
        <time>2015-12-13T06:50:59Z</time>
      </trkpt>
      <trkpt lat="50.74217" lon="3.75191">
        <ele>43</ele>
        <time>2015-12-13T06:51:00Z</time>
      </trkpt>
      <trkpt lat="50.74218" lon="3.75195">
        <ele>43</ele>
        <time>2015-12-13T06:51:01Z</time>
      </trkpt>
      <trkpt lat="50.74219" lon="3.75198">
        <ele>43</ele>
        <time>2015-12-13T06:51:02Z</time>
      </trkpt>
      <trkpt lat="50.7422" lon="3.75202">
        <ele>43</ele>
        <time>2015-12-13T06:51:03Z</time>
      </trkpt>
      <trkpt lat="50.74221" lon="3.75205">
        <ele>43</ele>
        <time>2015-12-13T06:51:04Z</time>
      </trkpt>
      <trkpt lat="50.74223" lon="3.75209">
        <ele>43</ele>
        <time>2015-12-13T06:51:05Z</time>
      </trkpt>
      <trkpt lat="50.74224" lon="3.75212">
        <ele>43</ele>
        <time>2015-12-13T06:51:06Z</time>
      </trkpt>
      <trkpt lat="50.74225" lon="3.75216">
        <ele>43</ele>
        <time>2015-12-13T06:51:07Z</time>
      </trkpt>
      <trkpt lat="50.74226" lon="3.7522">
        <ele>43</ele>
        <time>2015-12-13T06:51:08Z</time>
      </trkpt>
      <trkpt lat="50.74227" lon="3.75223">
        <ele>43</ele>
        <time>2015-12-13T06:51:09Z</time>
      </trkpt>
      <trkpt lat="50.74228" lon="3.75227">
        <ele>43</ele>
        <time>2015-12-13T06:51:10Z</time>
      </trkpt>
      <trkpt lat="50.74229" lon="3.7523">
        <ele>42.3</ele>
        <time>2015-12-13T06:51:11Z</time>
      </trkpt>
      <trkpt lat="50.7423" lon="3.75234">
        <ele>42</ele>
        <time>2015-12-13T06:51:12Z</time>
      </trkpt>
      <trkpt lat="50.7423" lon="3.75237">
        <ele>42</ele>
        <time>2015-12-13T06:51:13Z</time>
      </trkpt>
      <trkpt lat="50.74231" lon="3.75241">
        <ele>42</ele>
        <time>2015-12-13T06:51:14Z</time>
      </trkpt>
      <trkpt lat="50.74233" lon="3.75244">
        <ele>42</ele>
        <time>2015-12-13T06:51:15Z</time>
      </trkpt>
      <trkpt lat="50.74234" lon="3.75248">
        <ele>42</ele>
        <time>2015-12-13T06:51:16Z</time>
      </trkpt>
      <trkpt lat="50.74235" lon="3.75251">
        <ele>42</ele>
        <time>2015-12-13T06:51:17Z</time>
      </trkpt>
      <trkpt lat="50.74236" lon="3.75255">
        <ele>42</ele>
        <time>2015-12-13T06:51:18Z</time>
      </trkpt>
      <trkpt lat="50.74236" lon="3.75258">
        <ele>42</ele>
        <time>2015-12-13T06:51:19Z</time>
      </trkpt>
      <trkpt lat="50.74238" lon="3.75262">
        <ele>42</ele>
        <time>2015-12-13T06:51:20Z</time>
      </trkpt>
      <trkpt lat="50.74239" lon="3.75266">
        <ele>40.9</ele>
        <time>2015-12-13T06:51:21Z</time>
      </trkpt>
      <trkpt lat="50.7424" lon="3.75269">
        <ele>40</ele>
        <time>2015-12-13T06:51:22Z</time>
      </trkpt>
      <trkpt lat="50.74241" lon="3.75273">
        <ele>40</ele>
        <time>2015-12-13T06:51:23Z</time>
      </trkpt>
      <trkpt lat="50.74242" lon="3.75276">
        <ele>40</ele>
        <time>2015-12-13T06:51:24Z</time>
      </trkpt>
      <trkpt lat="50.74243" lon="3.7528">
        <ele>40</ele>
        <time>2015-12-13T06:51:25Z</time>
      </trkpt>
      <trkpt lat="50.74244" lon="3.75283">
        <ele>39.3</ele>
        <time>2015-12-13T06:51:26Z</time>
      </trkpt>
      <trkpt lat="50.74245" lon="3.75287">
        <ele>39</ele>
        <time>2015-12-13T06:51:27Z</time>
      </trkpt>
      <trkpt lat="50.74246" lon="3.75291">
        <ele>39</ele>
        <time>2015-12-13T06:51:28Z</time>
      </trkpt>
      <trkpt lat="50.74247" lon="3.75294">
        <ele>39</ele>
        <time>2015-12-13T06:51:29Z</time>
      </trkpt>
      <trkpt lat="50.74248" lon="3.75298">
        <ele>39</ele>
        <time>2015-12-13T06:51:30Z</time>
      </trkpt>
      <trkpt lat="50.74249" lon="3.75301">
        <ele>38.3</ele>
        <time>2015-12-13T06:51:31Z</time>
      </trkpt>
      <trkpt lat="50.7425" lon="3.75305">
        <ele>38</ele>
        <time>2015-12-13T06:51:32Z</time>
      </trkpt>
      <trkpt lat="50.74251" lon="3.75309">
        <ele>38</ele>
        <time>2015-12-13T06:51:33Z</time>
      </trkpt>
      <trkpt lat="50.74252" lon="3.75312">
        <ele>38</ele>
        <time>2015-12-13T06:51:34Z</time>
      </trkpt>
      <trkpt lat="50.74253" lon="3.75316">
        <ele>38</ele>
        <time>2015-12-13T06:51:35Z</time>
      </trkpt>
      <trkpt lat="50.74255" lon="3.7532">
        <ele>38</ele>
        <time>2015-12-13T06:51:36Z</time>
      </trkpt>
      <trkpt lat="50.74256" lon="3.75323">
        <ele>38</ele>
        <time>2015-12-13T06:51:37Z</time>
      </trkpt>
      <trkpt lat="50.74257" lon="3.75327">
        <ele>38</ele>
        <time>2015-12-13T06:51:38Z</time>
      </trkpt>
      <trkpt lat="50.74258" lon="3.75331">
        <ele>38</ele>
        <time>2015-12-13T06:51:39Z</time>
      </trkpt>
      <trkpt lat="50.74259" lon="3.75334">
        <ele>38</ele>
        <time>2015-12-13T06:51:40Z</time>
      </trkpt>
      <trkpt lat="50.7426" lon="3.75338">
        <ele>38</ele>
        <time>2015-12-13T06:51:41Z</time>
      </trkpt>
      <trkpt lat="50.74261" lon="3.75342">
        <ele>38</ele>
        <time>2015-12-13T06:51:42Z</time>
      </trkpt>
      <trkpt lat="50.74263" lon="3.75345">
        <ele>38</ele>
        <time>2015-12-13T06:51:43Z</time>
      </trkpt>
      <trkpt lat="50.74264" lon="3.75349">
        <ele>38</ele>
        <time>2015-12-13T06:51:44Z</time>
      </trkpt>
      <trkpt lat="50.74265" lon="3.75352">
        <ele>38</ele>
        <time>2015-12-13T06:51:45Z</time>
      </trkpt>
      <trkpt lat="50.74266" lon="3.75356">
        <ele>38</ele>
        <time>2015-12-13T06:51:46Z</time>
      </trkpt>
      <trkpt lat="50.74267" lon="3.75359">
        <ele>38</ele>
        <time>2015-12-13T06:51:47Z</time>
      </trkpt>
      <trkpt lat="50.74268" lon="3.75363">
        <ele>38</ele>
        <time>2015-12-13T06:51:48Z</time>
      </trkpt>
      <trkpt lat="50.74269" lon="3.75367">
        <ele>38</ele>
        <time>2015-12-13T06:51:49Z</time>
      </trkpt>
      <trkpt lat="50.74271" lon="3.7537">
        <ele>38</ele>
        <time>2015-12-13T06:51:50Z</time>
      </trkpt>
      <trkpt lat="50.74272" lon="3.75374">
        <ele>36</ele>
        <time>2015-12-13T06:51:51Z</time>
      </trkpt>
      <trkpt lat="50.74273" lon="3.75377">
        <ele>35</ele>
        <time>2015-12-13T06:51:52Z</time>
      </trkpt>
      <trkpt lat="50.74274" lon="3.7538">
        <ele>35</ele>
        <time>2015-12-13T06:51:53Z</time>
      </trkpt>
      <trkpt lat="50.74275" lon="3.75384">
        <ele>35</ele>
        <time>2015-12-13T06:51:54Z</time>
      </trkpt>
      <trkpt lat="50.74277" lon="3.75387">
        <ele>35</ele>
        <time>2015-12-13T06:51:55Z</time>
      </trkpt>
      <trkpt lat="50.74278" lon="3.75391">
        <ele>34.3</ele>
        <time>2015-12-13T06:51:56Z</time>
      </trkpt>
      <trkpt lat="50.74279" lon="3.75394">
        <ele>34</ele>
        <time>2015-12-13T06:51:57Z</time>
      </trkpt>
      <trkpt lat="50.7428" lon="3.75397">
        <ele>34</ele>
        <time>2015-12-13T06:51:58Z</time>
      </trkpt>
      <trkpt lat="50.74282" lon="3.75401">
        <ele>34</ele>
        <time>2015-12-13T06:51:59Z</time>
      </trkpt>
      <trkpt lat="50.74283" lon="3.75404">
        <ele>34</ele>
        <time>2015-12-13T06:52:00Z</time>
      </trkpt>
      <trkpt lat="50.74284" lon="3.75408">
        <ele>34</ele>
        <time>2015-12-13T06:52:01Z</time>
      </trkpt>
      <trkpt lat="50.74285" lon="3.75411">
        <ele>34</ele>
        <time>2015-12-13T06:52:02Z</time>
      </trkpt>
      <trkpt lat="50.74287" lon="3.75414">
        <ele>34.7</ele>
        <time>2015-12-13T06:52:03Z</time>
      </trkpt>
      <trkpt lat="50.74288" lon="3.75418">
        <ele>35</ele>
        <time>2015-12-13T06:52:04Z</time>
      </trkpt>
      <trkpt lat="50.74289" lon="3.75421">
        <ele>35</ele>
        <time>2015-12-13T06:52:05Z</time>
      </trkpt>
      <trkpt lat="50.74291" lon="3.75424">
        <ele>35</ele>
        <time>2015-12-13T06:52:06Z</time>
      </trkpt>
      <trkpt lat="50.74292" lon="3.75428">
        <ele>35</ele>
        <time>2015-12-13T06:52:07Z</time>
      </trkpt>
      <trkpt lat="50.74293" lon="3.75431">
        <ele>35</ele>
        <time>2015-12-13T06:52:08Z</time>
      </trkpt>
      <trkpt lat="50.74294" lon="3.75434">
        <ele>35</ele>
        <time>2015-12-13T06:52:09Z</time>
      </trkpt>
      <trkpt lat="50.74296" lon="3.75437">
        <ele>35</ele>
        <time>2015-12-13T06:52:10Z</time>
      </trkpt>
      <trkpt lat="50.74297" lon="3.75441">
        <ele>34.3</ele>
        <time>2015-12-13T06:52:11Z</time>
      </trkpt>
      <trkpt lat="50.74299" lon="3.75444">
        <ele>34</ele>
        <time>2015-12-13T06:52:12Z</time>
      </trkpt>
      <trkpt lat="50.743" lon="3.75447">
        <ele>34</ele>
        <time>2015-12-13T06:52:13Z</time>
      </trkpt>
      <trkpt lat="50.74301" lon="3.7545">
        <ele>34</ele>
        <time>2015-12-13T06:52:14Z</time>
      </trkpt>
      <trkpt lat="50.74303" lon="3.75453">
        <ele>34</ele>
        <time>2015-12-13T06:52:15Z</time>
      </trkpt>
      <trkpt lat="50.74304" lon="3.75457">
        <ele>34</ele>
        <time>2015-12-13T06:52:16Z</time>
      </trkpt>
      <trkpt lat="50.74305" lon="3.7546">
        <ele>34</ele>
        <time>2015-12-13T06:52:17Z</time>
      </trkpt>
      <trkpt lat="50.74306" lon="3.75463">
        <ele>34</ele>
        <time>2015-12-13T06:52:18Z</time>
      </trkpt>
      <trkpt lat="50.74308" lon="3.75466">
        <ele>34</ele>
        <time>2015-12-13T06:52:19Z</time>
      </trkpt>
      <trkpt lat="50.7431" lon="3.75469">
        <ele>34</ele>
        <time>2015-12-13T06:52:20Z</time>
      </trkpt>
      <trkpt lat="50.74311" lon="3.75472">
        <ele>33.3</ele>
        <time>2015-12-13T06:52:21Z</time>
      </trkpt>
      <trkpt lat="50.74312" lon="3.75475">
        <ele>33</ele>
        <time>2015-12-13T06:52:22Z</time>
      </trkpt>
      <trkpt lat="50.74314" lon="3.75479">
        <ele>33</ele>
        <time>2015-12-13T06:52:23Z</time>
      </trkpt>
      <trkpt lat="50.74315" lon="3.75482">
        <ele>33</ele>
        <time>2015-12-13T06:52:24Z</time>
      </trkpt>
      <trkpt lat="50.74317" lon="3.75485">
        <ele>33</ele>
        <time>2015-12-13T06:52:25Z</time>
      </trkpt>
      <trkpt lat="50.74318" lon="3.75488">
        <ele>33</ele>
        <time>2015-12-13T06:52:26Z</time>
      </trkpt>
      <trkpt lat="50.7432" lon="3.75491">
        <ele>33</ele>
        <time>2015-12-13T06:52:27Z</time>
      </trkpt>
      <trkpt lat="50.74321" lon="3.75494">
        <ele>33</ele>
        <time>2015-12-13T06:52:28Z</time>
      </trkpt>
      <trkpt lat="50.74323" lon="3.75496">
        <ele>33</ele>
        <time>2015-12-13T06:52:29Z</time>
      </trkpt>
      <trkpt lat="50.74324" lon="3.75499">
        <ele>33</ele>
        <time>2015-12-13T06:52:30Z</time>
      </trkpt>
      <trkpt lat="50.74326" lon="3.75502">
        <ele>32.3</ele>
        <time>2015-12-13T06:52:31Z</time>
      </trkpt>
      <trkpt lat="50.74327" lon="3.75504">
        <ele>32</ele>
        <time>2015-12-13T06:52:32Z</time>
      </trkpt>
      <trkpt lat="50.74329" lon="3.75507">
        <ele>32</ele>
        <time>2015-12-13T06:52:33Z</time>
      </trkpt>
      <trkpt lat="50.7433" lon="3.75511">
        <ele>32</ele>
        <time>2015-12-13T06:52:34Z</time>
      </trkpt>
      <trkpt lat="50.74332" lon="3.75514">
        <ele>32</ele>
        <time>2015-12-13T06:52:35Z</time>
      </trkpt>
      <trkpt lat="50.74334" lon="3.75516">
        <ele>32</ele>
        <time>2015-12-13T06:52:36Z</time>
      </trkpt>
      <trkpt lat="50.74335" lon="3.75519">
        <ele>32</ele>
        <time>2015-12-13T06:52:37Z</time>
      </trkpt>
      <trkpt lat="50.74336" lon="3.75522">
        <ele>32</ele>
        <time>2015-12-13T06:52:38Z</time>
      </trkpt>
      <trkpt lat="50.74338" lon="3.75524">
        <ele>32</ele>
        <time>2015-12-13T06:52:39Z</time>
      </trkpt>
      <trkpt lat="50.74339" lon="3.75527">
        <ele>32</ele>
        <time>2015-12-13T06:52:40Z</time>
      </trkpt>
      <trkpt lat="50.7434" lon="3.7553">
        <ele>32</ele>
        <time>2015-12-13T06:52:41Z</time>
      </trkpt>
      <trkpt lat="50.74342" lon="3.75534">
        <ele>32</ele>
        <time>2015-12-13T06:52:43Z</time>
      </trkpt>
      <trkpt lat="50.74343" lon="3.75536">
        <ele>32</ele>
        <time>2015-12-13T06:52:44Z</time>
      </trkpt>
      <trkpt lat="50.74345" lon="3.75539">
        <ele>32</ele>
        <time>2015-12-13T06:52:45Z</time>
      </trkpt>
      <trkpt lat="50.74347" lon="3.75541">
        <ele>32</ele>
        <time>2015-12-13T06:52:46Z</time>
      </trkpt>
      <trkpt lat="50.74348" lon="3.75544">
        <ele>32</ele>
        <time>2015-12-13T06:52:47Z</time>
      </trkpt>
      <trkpt lat="50.7435" lon="3.75546">
        <ele>32</ele>
        <time>2015-12-13T06:52:48Z</time>
      </trkpt>
      <trkpt lat="50.74351" lon="3.75548">
        <ele>32</ele>
        <time>2015-12-13T06:52:49Z</time>
      </trkpt>
      <trkpt lat="50.74353" lon="3.7555">
        <ele>32</ele>
        <time>2015-12-13T06:52:50Z</time>
      </trkpt>
      <trkpt lat="50.74354" lon="3.75552">
        <ele>32</ele>
        <time>2015-12-13T06:52:51Z</time>
      </trkpt>
      <trkpt lat="50.74356" lon="3.75555">
        <ele>32</ele>
        <time>2015-12-13T06:52:52Z</time>
      </trkpt>
      <trkpt lat="50.74357" lon="3.75557">
        <ele>32</ele>
        <time>2015-12-13T06:52:53Z</time>
      </trkpt>
      <trkpt lat="50.74359" lon="3.75559">
        <ele>32</ele>
        <time>2015-12-13T06:52:54Z</time>
      </trkpt>
      <trkpt lat="50.74361" lon="3.75561">
        <ele>32</ele>
        <time>2015-12-13T06:52:55Z</time>
      </trkpt>
      <trkpt lat="50.74362" lon="3.75564">
        <ele>32</ele>
        <time>2015-12-13T06:52:56Z</time>
      </trkpt>
      <trkpt lat="50.74363" lon="3.75566">
        <ele>32</ele>
        <time>2015-12-13T06:52:57Z</time>
      </trkpt>
      <trkpt lat="50.74365" lon="3.75568">
        <ele>32</ele>
        <time>2015-12-13T06:52:58Z</time>
      </trkpt>
      <trkpt lat="50.74367" lon="3.7557">
        <ele>32</ele>
        <time>2015-12-13T06:52:59Z</time>
      </trkpt>
      <trkpt lat="50.74369" lon="3.75573">
        <ele>32</ele>
        <time>2015-12-13T06:53:00Z</time>
      </trkpt>
      <trkpt lat="50.7437" lon="3.75575">
        <ele>32</ele>
        <time>2015-12-13T06:53:01Z</time>
      </trkpt>
      <trkpt lat="50.74372" lon="3.75577">
        <ele>32</ele>
        <time>2015-12-13T06:53:02Z</time>
      </trkpt>
      <trkpt lat="50.74374" lon="3.75579">
        <ele>32</ele>
        <time>2015-12-13T06:53:03Z</time>
      </trkpt>
      <trkpt lat="50.74376" lon="3.75582">
        <ele>32</ele>
        <time>2015-12-13T06:53:04Z</time>
      </trkpt>
      <trkpt lat="50.74377" lon="3.75584">
        <ele>32</ele>
        <time>2015-12-13T06:53:05Z</time>
      </trkpt>
      <trkpt lat="50.74378" lon="3.75587">
        <ele>32</ele>
        <time>2015-12-13T06:53:06Z</time>
      </trkpt>
      <trkpt lat="50.74379" lon="3.75591">
        <ele>32</ele>
        <time>2015-12-13T06:53:07Z</time>
      </trkpt>
      <trkpt lat="50.7438" lon="3.75594">
        <ele>32</ele>
        <time>2015-12-13T06:53:08Z</time>
      </trkpt>
      <trkpt lat="50.74381" lon="3.75597">
        <ele>32</ele>
        <time>2015-12-13T06:53:09Z</time>
      </trkpt>
      <trkpt lat="50.74382" lon="3.756">
        <ele>32</ele>
        <time>2015-12-13T06:53:10Z</time>
      </trkpt>
      <trkpt lat="50.74383" lon="3.75603">
        <ele>32</ele>
        <time>2015-12-13T06:53:11Z</time>
      </trkpt>
      <trkpt lat="50.74384" lon="3.75607">
        <ele>32</ele>
        <time>2015-12-13T06:53:12Z</time>
      </trkpt>
      <trkpt lat="50.74385" lon="3.7561">
        <ele>32</ele>
        <time>2015-12-13T06:53:13Z</time>
      </trkpt>
      <trkpt lat="50.74386" lon="3.75614">
        <ele>32</ele>
        <time>2015-12-13T06:53:14Z</time>
      </trkpt>
      <trkpt lat="50.74386" lon="3.75618">
        <ele>32</ele>
        <time>2015-12-13T06:53:15Z</time>
      </trkpt>
      <trkpt lat="50.74387" lon="3.75621">
        <ele>32</ele>
        <time>2015-12-13T06:53:16Z</time>
      </trkpt>
      <trkpt lat="50.74387" lon="3.75624">
        <ele>32</ele>
        <time>2015-12-13T06:53:17Z</time>
      </trkpt>
      <trkpt lat="50.74388" lon="3.75628">
        <ele>32</ele>
        <time>2015-12-13T06:53:18Z</time>
      </trkpt>
      <trkpt lat="50.74388" lon="3.75632">
        <ele>32</ele>
        <time>2015-12-13T06:53:19Z</time>
      </trkpt>
      <trkpt lat="50.74389" lon="3.75635">
        <ele>32</ele>
        <time>2015-12-13T06:53:20Z</time>
      </trkpt>
      <trkpt lat="50.74389" lon="3.75638">
        <ele>32</ele>
        <time>2015-12-13T06:53:21Z</time>
      </trkpt>
      <trkpt lat="50.7439" lon="3.7564">
        <ele>32</ele>
        <time>2015-12-13T06:53:22Z</time>
      </trkpt>
      <trkpt lat="50.7439" lon="3.75643">
        <ele>32</ele>
        <time>2015-12-13T06:53:23Z</time>
      </trkpt>
      <trkpt lat="50.74392" lon="3.75648">
        <ele>32</ele>
        <time>2015-12-13T06:53:25Z</time>
      </trkpt>
      <trkpt lat="50.74392" lon="3.75651">
        <ele>32</ele>
        <time>2015-12-13T06:53:26Z</time>
      </trkpt>
      <trkpt lat="50.74392" lon="3.75657">
        <ele>32</ele>
        <time>2015-12-13T06:53:28Z</time>
      </trkpt>
      <trkpt lat="50.74393" lon="3.7566">
        <ele>32</ele>
        <time>2015-12-13T06:53:29Z</time>
      </trkpt>
      <trkpt lat="50.74393" lon="3.75663">
        <ele>32</ele>
        <time>2015-12-13T06:53:30Z</time>
      </trkpt>
      <trkpt lat="50.74394" lon="3.75666">
        <ele>32.7</ele>
        <time>2015-12-13T06:53:31Z</time>
      </trkpt>
      <trkpt lat="50.74395" lon="3.75669">
        <ele>33</ele>
        <time>2015-12-13T06:53:32Z</time>
      </trkpt>
      <trkpt lat="50.74395" lon="3.75672">
        <ele>33</ele>
        <time>2015-12-13T06:53:33Z</time>
      </trkpt>
      <trkpt lat="50.74395" lon="3.75675">
        <ele>33</ele>
        <time>2015-12-13T06:53:34Z</time>
      </trkpt>
      <trkpt lat="50.74396" lon="3.75679">
        <ele>33</ele>
        <time>2015-12-13T06:53:35Z</time>
      </trkpt>
      <trkpt lat="50.74397" lon="3.75682">
        <ele>33</ele>
        <time>2015-12-13T06:53:36Z</time>
      </trkpt>
      <trkpt lat="50.74397" lon="3.75686">
        <ele>33</ele>
        <time>2015-12-13T06:53:37Z</time>
      </trkpt>
      <trkpt lat="50.74398" lon="3.75689">
        <ele>33</ele>
        <time>2015-12-13T06:53:38Z</time>
      </trkpt>
      <trkpt lat="50.74398" lon="3.75692">
        <ele>33</ele>
        <time>2015-12-13T06:53:39Z</time>
      </trkpt>
      <trkpt lat="50.74399" lon="3.75695">
        <ele>33</ele>
        <time>2015-12-13T06:53:40Z</time>
      </trkpt>
      <trkpt lat="50.744" lon="3.75698">
        <ele>33.7</ele>
        <time>2015-12-13T06:53:41Z</time>
      </trkpt>
      <trkpt lat="50.744" lon="3.75701">
        <ele>34</ele>
        <time>2015-12-13T06:53:42Z</time>
      </trkpt>
      <trkpt lat="50.74401" lon="3.75704">
        <ele>34</ele>
        <time>2015-12-13T06:53:43Z</time>
      </trkpt>
      <trkpt lat="50.74402" lon="3.75707">
        <ele>34</ele>
        <time>2015-12-13T06:53:44Z</time>
      </trkpt>
      <trkpt lat="50.74402" lon="3.75711">
        <ele>34</ele>
        <time>2015-12-13T06:53:45Z</time>
      </trkpt>
      <trkpt lat="50.74404" lon="3.75715">
        <ele>34</ele>
        <time>2015-12-13T06:53:46Z</time>
      </trkpt>
      <trkpt lat="50.74405" lon="3.75719">
        <ele>34</ele>
        <time>2015-12-13T06:53:47Z</time>
      </trkpt>
      <trkpt lat="50.74406" lon="3.75723">
        <ele>34</ele>
        <time>2015-12-13T06:53:48Z</time>
      </trkpt>
      <trkpt lat="50.74407" lon="3.75725">
        <ele>34</ele>
        <time>2015-12-13T06:53:49Z</time>
      </trkpt>
      <trkpt lat="50.74409" lon="3.75729">
        <ele>34</ele>
        <time>2015-12-13T06:53:50Z</time>
      </trkpt>
      <trkpt lat="50.7441" lon="3.75732">
        <ele>34.7</ele>
        <time>2015-12-13T06:53:51Z</time>
      </trkpt>
      <trkpt lat="50.74412" lon="3.75735">
        <ele>35</ele>
        <time>2015-12-13T06:53:52Z</time>
      </trkpt>
      <trkpt lat="50.74413" lon="3.75739">
        <ele>35</ele>
        <time>2015-12-13T06:53:53Z</time>
      </trkpt>
      <trkpt lat="50.74414" lon="3.75741">
        <ele>35</ele>
        <time>2015-12-13T06:53:54Z</time>
      </trkpt>
      <trkpt lat="50.74415" lon="3.75745">
        <ele>35</ele>
        <time>2015-12-13T06:53:56Z</time>
      </trkpt>
      <trkpt lat="50.74416" lon="3.75749">
        <ele>35</ele>
        <time>2015-12-13T06:53:58Z</time>
      </trkpt>
      <trkpt lat="50.74418" lon="3.75753">
        <ele>35</ele>
        <time>2015-12-13T06:54:00Z</time>
      </trkpt>
      <trkpt lat="50.7442" lon="3.75754">
        <ele>36</ele>
        <time>2015-12-13T06:54:02Z</time>
      </trkpt>
      <trkpt lat="50.74422" lon="3.75756">
        <ele>36</ele>
        <time>2015-12-13T06:54:04Z</time>
      </trkpt>
      <trkpt lat="50.74425" lon="3.75759">
        <ele>36</ele>
        <time>2015-12-13T06:54:06Z</time>
      </trkpt>
      <trkpt lat="50.74427" lon="3.75762">
        <ele>36</ele>
        <time>2015-12-13T06:54:08Z</time>
      </trkpt>
      <trkpt lat="50.74429" lon="3.75765">
        <ele>36</ele>
        <time>2015-12-13T06:54:10Z</time>
      </trkpt>
      <trkpt lat="50.7443" lon="3.75767">
        <ele>37</ele>
        <time>2015-12-13T06:54:12Z</time>
      </trkpt>
      <trkpt lat="50.74432" lon="3.7577">
        <ele>37</ele>
        <time>2015-12-13T06:54:14Z</time>
      </trkpt>
      <trkpt lat="50.74434" lon="3.75772">
        <ele>37</ele>
        <time>2015-12-13T06:54:16Z</time>
      </trkpt>
      <trkpt lat="50.74436" lon="3.75773">
        <ele>37</ele>
        <time>2015-12-13T06:54:19Z</time>
      </trkpt>
      <trkpt lat="50.74441" lon="3.75775">
        <ele>39</ele>
        <time>2015-12-13T06:54:27Z</time>
      </trkpt>
      <trkpt lat="50.74444" lon="3.75778">
        <ele>39</ele>
        <time>2015-12-13T06:54:30Z</time>
      </trkpt>
      <trkpt lat="50.74445" lon="3.7578">
        <ele>41</ele>
        <time>2015-12-13T06:54:32Z</time>
      </trkpt>
      <trkpt lat="50.74453" lon="3.75789">
        <ele>41</ele>
        <time>2015-12-13T06:54:40Z</time>
      </trkpt>
      <trkpt lat="50.74457" lon="3.75795">
        <ele>42</ele>
        <time>2015-12-13T06:54:47Z</time>
      </trkpt>
      <trkpt lat="50.74461" lon="3.75799">
        <ele>44</ele>
        <time>2015-12-13T06:54:51Z</time>
      </trkpt>
      <trkpt lat="50.74463" lon="3.75802">
        <ele>45</ele>
        <time>2015-12-13T06:54:55Z</time>
      </trkpt>
      <trkpt lat="50.74466" lon="3.75806">
        <ele>45</ele>
        <time>2015-12-13T06:54:58Z</time>
      </trkpt>
      <trkpt lat="50.74469" lon="3.75809">
        <ele>45</ele>
        <time>2015-12-13T06:55:00Z</time>
      </trkpt>
      <trkpt lat="50.74471" lon="3.75811">
        <ele>45</ele>
        <time>2015-12-13T06:55:02Z</time>
      </trkpt>
      <trkpt lat="50.74478" lon="3.75819">
        <ele>45</ele>
        <time>2015-12-13T06:55:09Z</time>
      </trkpt>
      <trkpt lat="50.74481" lon="3.75822">
        <ele>46.4</ele>
        <time>2015-12-13T06:55:11Z</time>
      </trkpt>
      <trkpt lat="50.74486" lon="3.75829">
        <ele>47</ele>
        <time>2015-12-13T06:55:16Z</time>
      </trkpt>
      <trkpt lat="50.74489" lon="3.75832">
        <ele>47</ele>
        <time>2015-12-13T06:55:18Z</time>
      </trkpt>
      <trkpt lat="50.74491" lon="3.75834">
        <ele>47</ele>
        <time>2015-12-13T06:55:19Z</time>
      </trkpt>
      <trkpt lat="50.74493" lon="3.75837">
        <ele>48.4</ele>
        <time>2015-12-13T06:55:21Z</time>
      </trkpt>
      <trkpt lat="50.74495" lon="3.7584">
        <ele>49</ele>
        <time>2015-12-13T06:55:24Z</time>
      </trkpt>
      <trkpt lat="50.74497" lon="3.75842">
        <ele>49</ele>
        <time>2015-12-13T06:55:26Z</time>
      </trkpt>
      <trkpt lat="50.74498" lon="3.75843">
        <ele>49</ele>
        <time>2015-12-13T06:55:28Z</time>
      </trkpt>
      <trkpt lat="50.745" lon="3.75846">
        <ele>49.7</ele>
        <time>2015-12-13T06:55:31Z</time>
      </trkpt>
      <trkpt lat="50.74501" lon="3.75849">
        <ele>50</ele>
        <time>2015-12-13T06:55:33Z</time>
      </trkpt>
      <trkpt lat="50.74502" lon="3.75852">
        <ele>50</ele>
        <time>2015-12-13T06:55:35Z</time>
      </trkpt>
      <trkpt lat="50.74504" lon="3.75855">
        <ele>50</ele>
        <time>2015-12-13T06:55:37Z</time>
      </trkpt>
      <trkpt lat="50.74506" lon="3.75857">
        <ele>50</ele>
        <time>2015-12-13T06:55:39Z</time>
      </trkpt>
      <trkpt lat="50.74507" lon="3.75859">
        <ele>51.4</ele>
        <time>2015-12-13T06:55:41Z</time>
      </trkpt>
      <trkpt lat="50.74508" lon="3.75862">
        <ele>52</ele>
        <time>2015-12-13T06:55:43Z</time>
      </trkpt>
      <trkpt lat="50.74509" lon="3.75865">
        <ele>52</ele>
        <time>2015-12-13T06:55:46Z</time>
      </trkpt>
      <trkpt lat="50.7451" lon="3.75868">
        <ele>52</ele>
        <time>2015-12-13T06:55:48Z</time>
      </trkpt>
      <trkpt lat="50.74512" lon="3.7587">
        <ele>52</ele>
        <time>2015-12-13T06:55:50Z</time>
      </trkpt>
      <trkpt lat="50.74513" lon="3.75873">
        <ele>54</ele>
        <time>2015-12-13T06:55:53Z</time>
      </trkpt>
      <trkpt lat="50.74515" lon="3.75875">
        <ele>54</ele>
        <time>2015-12-13T06:55:55Z</time>
      </trkpt>
      <trkpt lat="50.74517" lon="3.75878">
        <ele>56</ele>
        <time>2015-12-13T06:55:57Z</time>
      </trkpt>
      <trkpt lat="50.74519" lon="3.7588">
        <ele>56</ele>
        <time>2015-12-13T06:55:59Z</time>
      </trkpt>
      <trkpt lat="50.74522" lon="3.75883">
        <ele>56</ele>
        <time>2015-12-13T06:56:01Z</time>
      </trkpt>
      <trkpt lat="50.74524" lon="3.75885">
        <ele>56</ele>
        <time>2015-12-13T06:56:03Z</time>
      </trkpt>
      <trkpt lat="50.74526" lon="3.75887">
        <ele>56</ele>
        <time>2015-12-13T06:56:05Z</time>
      </trkpt>
      <trkpt lat="50.74527" lon="3.75891">
        <ele>56</ele>
        <time>2015-12-13T06:56:08Z</time>
      </trkpt>
      <trkpt lat="50.74529" lon="3.75893">
        <ele>56</ele>
        <time>2015-12-13T06:56:10Z</time>
      </trkpt>
      <trkpt lat="50.7453" lon="3.75895">
        <ele>58</ele>
        <time>2015-12-13T06:56:12Z</time>
      </trkpt>
      <trkpt lat="50.74532" lon="3.75898">
        <ele>58</ele>
        <time>2015-12-13T06:56:14Z</time>
      </trkpt>
      <trkpt lat="50.74533" lon="3.759">
        <ele>58</ele>
        <time>2015-12-13T06:56:16Z</time>
      </trkpt>
      <trkpt lat="50.74535" lon="3.75902">
        <ele>58</ele>
        <time>2015-12-13T06:56:18Z</time>
      </trkpt>
      <trkpt lat="50.74536" lon="3.75905">
        <ele>58</ele>
        <time>2015-12-13T06:56:20Z</time>
      </trkpt>
      <trkpt lat="50.74538" lon="3.75907">
        <ele>59</ele>
        <time>2015-12-13T06:56:22Z</time>
      </trkpt>
      <trkpt lat="50.74539" lon="3.75909">
        <ele>59</ele>
        <time>2015-12-13T06:56:24Z</time>
      </trkpt>
      <trkpt lat="50.7454" lon="3.75912">
        <ele>59</ele>
        <time>2015-12-13T06:56:26Z</time>
      </trkpt>
      <trkpt lat="50.74542" lon="3.75914">
        <ele>59</ele>
        <time>2015-12-13T06:56:28Z</time>
      </trkpt>
      <trkpt lat="50.74543" lon="3.75917">
        <ele>59</ele>
        <time>2015-12-13T06:56:30Z</time>
      </trkpt>
      <trkpt lat="50.74545" lon="3.7592">
        <ele>61</ele>
        <time>2015-12-13T06:56:32Z</time>
      </trkpt>
      <trkpt lat="50.74547" lon="3.75922">
        <ele>61</ele>
        <time>2015-12-13T06:56:34Z</time>
      </trkpt>
      <trkpt lat="50.74549" lon="3.75923">
        <ele>61</ele>
        <time>2015-12-13T06:56:36Z</time>
      </trkpt>
      <trkpt lat="50.74551" lon="3.75925">
        <ele>61</ele>
        <time>2015-12-13T06:56:38Z</time>
      </trkpt>
      <trkpt lat="50.74553" lon="3.75926">
        <ele>61</ele>
        <time>2015-12-13T06:56:40Z</time>
      </trkpt>
      <trkpt lat="50.74556" lon="3.75927">
        <ele>62</ele>
        <time>2015-12-13T06:56:42Z</time>
      </trkpt>
      <trkpt lat="50.74558" lon="3.75927">
        <ele>62</ele>
        <time>2015-12-13T06:56:44Z</time>
      </trkpt>
      <trkpt lat="50.7456" lon="3.75928">
        <ele>62</ele>
        <time>2015-12-13T06:56:46Z</time>
      </trkpt>
      <trkpt lat="50.74562" lon="3.7593">
        <ele>62</ele>
        <time>2015-12-13T06:56:48Z</time>
      </trkpt>
      <trkpt lat="50.74565" lon="3.75931">
        <ele>62.7</ele>
        <time>2015-12-13T06:56:51Z</time>
      </trkpt>
      <trkpt lat="50.74567" lon="3.75933">
        <ele>63</ele>
        <time>2015-12-13T06:56:57Z</time>
      </trkpt>
      <trkpt lat="50.74569" lon="3.75934">
        <ele>63</ele>
        <time>2015-12-13T06:56:59Z</time>
      </trkpt>
      <trkpt lat="50.74572" lon="3.75935">
        <ele>63</ele>
        <time>2015-12-13T06:57:01Z</time>
      </trkpt>
      <trkpt lat="50.74574" lon="3.75937">
        <ele>63</ele>
        <time>2015-12-13T06:57:04Z</time>
      </trkpt>
      <trkpt lat="50.74577" lon="3.75938">
        <ele>63</ele>
        <time>2015-12-13T06:57:06Z</time>
      </trkpt>
      <trkpt lat="50.74579" lon="3.75939">
        <ele>63</ele>
        <time>2015-12-13T06:57:08Z</time>
      </trkpt>
      <trkpt lat="50.74581" lon="3.75941">
        <ele>63</ele>
        <time>2015-12-13T06:57:10Z</time>
      </trkpt>
      <trkpt lat="50.74586" lon="3.75944">
        <ele>62</ele>
        <time>2015-12-13T06:57:14Z</time>
      </trkpt>
      <trkpt lat="50.74587" lon="3.75945">
        <ele>62</ele>
        <time>2015-12-13T06:57:15Z</time>
      </trkpt>
      <trkpt lat="50.74589" lon="3.75946">
        <ele>62</ele>
        <time>2015-12-13T06:57:16Z</time>
      </trkpt>
      <trkpt lat="50.74592" lon="3.75947">
        <ele>62</ele>
        <time>2015-12-13T06:57:18Z</time>
      </trkpt>
      <trkpt lat="50.74594" lon="3.75949">
        <ele>62</ele>
        <time>2015-12-13T06:57:20Z</time>
      </trkpt>
      <trkpt lat="50.74597" lon="3.75951">
        <ele>63</ele>
        <time>2015-12-13T06:57:22Z</time>
      </trkpt>
      <trkpt lat="50.74599" lon="3.75954">
        <ele>63</ele>
        <time>2015-12-13T06:57:24Z</time>
      </trkpt>
      <trkpt lat="50.74602" lon="3.75956">
        <ele>63</ele>
        <time>2015-12-13T06:57:26Z</time>
      </trkpt>
      <trkpt lat="50.74605" lon="3.75958">
        <ele>63</ele>
        <time>2015-12-13T06:57:28Z</time>
      </trkpt>
      <trkpt lat="50.74608" lon="3.75961">
        <ele>63</ele>
        <time>2015-12-13T06:57:30Z</time>
      </trkpt>
      <trkpt lat="50.74609" lon="3.75964">
        <ele>63</ele>
        <time>2015-12-13T06:57:32Z</time>
      </trkpt>
      <trkpt lat="50.74611" lon="3.75968">
        <ele>63</ele>
        <time>2015-12-13T06:57:34Z</time>
      </trkpt>
      <trkpt lat="50.74613" lon="3.75971">
        <ele>63</ele>
        <time>2015-12-13T06:57:36Z</time>
      </trkpt>
      <trkpt lat="50.74614" lon="3.75974">
        <ele>63</ele>
        <time>2015-12-13T06:57:38Z</time>
      </trkpt>
      <trkpt lat="50.74616" lon="3.75978">
        <ele>63.5</ele>
        <time>2015-12-13T06:57:41Z</time>
      </trkpt>
      <trkpt lat="50.7462" lon="3.75985">
        <ele>64</ele>
        <time>2015-12-13T06:57:46Z</time>
      </trkpt>
      <trkpt lat="50.74622" lon="3.75987">
        <ele>64</ele>
        <time>2015-12-13T06:57:48Z</time>
      </trkpt>
      <trkpt lat="50.74624" lon="3.75989">
        <ele>64</ele>
        <time>2015-12-13T06:57:50Z</time>
      </trkpt>
      <trkpt lat="50.74627" lon="3.75992">
        <ele>66</ele>
        <time>2015-12-13T06:57:52Z</time>
      </trkpt>
      <trkpt lat="50.74629" lon="3.75993">
        <ele>66</ele>
        <time>2015-12-13T06:57:53Z</time>
      </trkpt>
      <trkpt lat="50.74631" lon="3.75996">
        <ele>66</ele>
        <time>2015-12-13T06:57:55Z</time>
      </trkpt>
      <trkpt lat="50.74632" lon="3.75998">
        <ele>66</ele>
        <time>2015-12-13T06:57:56Z</time>
      </trkpt>
      <trkpt lat="50.74635" lon="3.76001">
        <ele>66</ele>
        <time>2015-12-13T06:57:58Z</time>
      </trkpt>
      <trkpt lat="50.74636" lon="3.76004">
        <ele>66</ele>
        <time>2015-12-13T06:58:00Z</time>
      </trkpt>
      <trkpt lat="50.74638" lon="3.76006">
        <ele>66.7</ele>
        <time>2015-12-13T06:58:02Z</time>
      </trkpt>
      <trkpt lat="50.74641" lon="3.7601">
        <ele>67</ele>
        <time>2015-12-13T06:58:04Z</time>
      </trkpt>
      <trkpt lat="50.74643" lon="3.76012">
        <ele>67</ele>
        <time>2015-12-13T06:58:06Z</time>
      </trkpt>
      <trkpt lat="50.74645" lon="3.76014">
        <ele>67</ele>
        <time>2015-12-13T06:58:08Z</time>
      </trkpt>
      <trkpt lat="50.74647" lon="3.76016">
        <ele>67</ele>
        <time>2015-12-13T06:58:10Z</time>
      </trkpt>
      <trkpt lat="50.74649" lon="3.76019">
        <ele>67</ele>
        <time>2015-12-13T06:58:12Z</time>
      </trkpt>
      <trkpt lat="50.74651" lon="3.76022">
        <ele>67</ele>
        <time>2015-12-13T06:58:14Z</time>
      </trkpt>
      <trkpt lat="50.74653" lon="3.76025">
        <ele>67</ele>
        <time>2015-12-13T06:58:16Z</time>
      </trkpt>
      <trkpt lat="50.74654" lon="3.76029">
        <ele>67</ele>
        <time>2015-12-13T06:58:18Z</time>
      </trkpt>
      <trkpt lat="50.74656" lon="3.76032">
        <ele>67</ele>
        <time>2015-12-13T06:58:20Z</time>
      </trkpt>
      <trkpt lat="50.74657" lon="3.76035">
        <ele>67</ele>
        <time>2015-12-13T06:58:22Z</time>
      </trkpt>
      <trkpt lat="50.74659" lon="3.76039">
        <ele>67</ele>
        <time>2015-12-13T06:58:24Z</time>
      </trkpt>
      <trkpt lat="50.74659" lon="3.76042">
        <ele>67</ele>
        <time>2015-12-13T06:58:27Z</time>
      </trkpt>
      <trkpt lat="50.7466" lon="3.76046">
        <ele>67</ele>
        <time>2015-12-13T06:58:30Z</time>
      </trkpt>
      <trkpt lat="50.74661" lon="3.7605">
        <ele>67</ele>
        <time>2015-12-13T06:58:32Z</time>
      </trkpt>
      <trkpt lat="50.74663" lon="3.76051">
        <ele>67</ele>
        <time>2015-12-13T06:58:34Z</time>
      </trkpt>
      <trkpt lat="50.74666" lon="3.76054">
        <ele>67</ele>
        <time>2015-12-13T06:58:36Z</time>
      </trkpt>
      <trkpt lat="50.74669" lon="3.76057">
        <ele>67</ele>
        <time>2015-12-13T06:58:38Z</time>
      </trkpt>
      <trkpt lat="50.74671" lon="3.76059">
        <ele>67</ele>
        <time>2015-12-13T06:58:39Z</time>
      </trkpt>
      <trkpt lat="50.74672" lon="3.76061">
        <ele>67</ele>
        <time>2015-12-13T06:58:40Z</time>
      </trkpt>
      <trkpt lat="50.74674" lon="3.76063">
        <ele>67</ele>
        <time>2015-12-13T06:58:41Z</time>
      </trkpt>
      <trkpt lat="50.74676" lon="3.76066">
        <ele>65.6</ele>
        <time>2015-12-13T06:58:42Z</time>
      </trkpt>
      <trkpt lat="50.74678" lon="3.76067">
        <ele>65</ele>
        <time>2015-12-13T06:58:43Z</time>
      </trkpt>
      <trkpt lat="50.7468" lon="3.7607">
        <ele>65</ele>
        <time>2015-12-13T06:58:45Z</time>
      </trkpt>
      <trkpt lat="50.74682" lon="3.76072">
        <ele>65</ele>
        <time>2015-12-13T06:58:47Z</time>
      </trkpt>
      <trkpt lat="50.74684" lon="3.76072">
        <ele>65</ele>
        <time>2015-12-13T06:58:50Z</time>
      </trkpt>
      <trkpt lat="50.74686" lon="3.76069">
        <ele>65</ele>
        <time>2015-12-13T06:58:55Z</time>
      </trkpt>
      <trkpt lat="50.74687" lon="3.76068">
        <ele>65</ele>
        <time>2015-12-13T06:58:57Z</time>
      </trkpt>
      <trkpt lat="50.74689" lon="3.76067">
        <ele>65</ele>
        <time>2015-12-13T06:58:59Z</time>
      </trkpt>
      <trkpt lat="50.74691" lon="3.76064">
        <ele>65.7</ele>
        <time>2015-12-13T06:59:01Z</time>
      </trkpt>
      <trkpt lat="50.74692" lon="3.76061">
        <ele>66</ele>
        <time>2015-12-13T06:59:03Z</time>
      </trkpt>
      <trkpt lat="50.74694" lon="3.76058">
        <ele>66</ele>
        <time>2015-12-13T06:59:05Z</time>
      </trkpt>
      <trkpt lat="50.74695" lon="3.76056">
        <ele>66</ele>
        <time>2015-12-13T06:59:07Z</time>
      </trkpt>
      <trkpt lat="50.74697" lon="3.76054">
        <ele>66</ele>
        <time>2015-12-13T06:59:10Z</time>
      </trkpt>
      <trkpt lat="50.74699" lon="3.76052">
        <ele>68</ele>
        <time>2015-12-13T06:59:13Z</time>
      </trkpt>
      <trkpt lat="50.747" lon="3.76049">
        <ele>68.5</ele>
        <time>2015-12-13T06:59:16Z</time>
      </trkpt>
      <trkpt lat="50.74703" lon="3.76046">
        <ele>69</ele>
        <time>2015-12-13T06:59:18Z</time>
      </trkpt>
      <trkpt lat="50.74704" lon="3.76043">
        <ele>69</ele>
        <time>2015-12-13T06:59:20Z</time>
      </trkpt>
      <trkpt lat="50.74706" lon="3.7604">
        <ele>69</ele>
        <time>2015-12-13T06:59:22Z</time>
      </trkpt>
      <trkpt lat="50.74708" lon="3.76037">
        <ele>69</ele>
        <time>2015-12-13T06:59:24Z</time>
      </trkpt>
      <trkpt lat="50.7471" lon="3.76035">
        <ele>69</ele>
        <time>2015-12-13T06:59:26Z</time>
      </trkpt>
      <trkpt lat="50.74712" lon="3.76034">
        <ele>69</ele>
        <time>2015-12-13T06:59:28Z</time>
      </trkpt>
      <trkpt lat="50.74716" lon="3.76029">
        <ele>72</ele>
        <time>2015-12-13T06:59:32Z</time>
      </trkpt>
      <trkpt lat="50.74722" lon="3.76022">
        <ele>73</ele>
        <time>2015-12-13T06:59:41Z</time>
      </trkpt>
      <trkpt lat="50.74724" lon="3.76019">
        <ele>73</ele>
        <time>2015-12-13T06:59:43Z</time>
      </trkpt>
      <trkpt lat="50.74729" lon="3.76015">
        <ele>73</ele>
        <time>2015-12-13T06:59:50Z</time>
      </trkpt>
      <trkpt lat="50.74734" lon="3.76013">
        <ele>75</ele>
        <time>2015-12-13T06:59:54Z</time>
      </trkpt>
      <trkpt lat="50.74736" lon="3.76012">
        <ele>75</ele>
        <time>2015-12-13T06:59:56Z</time>
      </trkpt>
      <trkpt lat="50.74738" lon="3.7601">
        <ele>75</ele>
        <time>2015-12-13T06:59:58Z</time>
      </trkpt>
      <trkpt lat="50.74741" lon="3.76007">
        <ele>75</ele>
        <time>2015-12-13T07:00:00Z</time>
      </trkpt>
      <trkpt lat="50.74743" lon="3.76005">
        <ele>76.4</ele>
        <time>2015-12-13T07:00:02Z</time>
      </trkpt>
      <trkpt lat="50.74745" lon="3.76004">
        <ele>77</ele>
        <time>2015-12-13T07:00:04Z</time>
      </trkpt>
      <trkpt lat="50.74747" lon="3.76001">
        <ele>77</ele>
        <time>2015-12-13T07:00:06Z</time>
      </trkpt>
      <trkpt lat="50.74749" lon="3.75999">
        <ele>78</ele>
        <time>2015-12-13T07:00:08Z</time>
      </trkpt>
      <trkpt lat="50.74751" lon="3.75997">
        <ele>78</ele>
        <time>2015-12-13T07:00:10Z</time>
      </trkpt>
      <trkpt lat="50.74752" lon="3.75993">
        <ele>78</ele>
        <time>2015-12-13T07:00:13Z</time>
      </trkpt>
      <trkpt lat="50.74754" lon="3.75992">
        <ele>78</ele>
        <time>2015-12-13T07:00:15Z</time>
      </trkpt>
      <trkpt lat="50.74755" lon="3.75989">
        <ele>78</ele>
        <time>2015-12-13T07:00:17Z</time>
      </trkpt>
      <trkpt lat="50.74757" lon="3.75987">
        <ele>78</ele>
        <time>2015-12-13T07:00:19Z</time>
      </trkpt>
      <trkpt lat="50.74759" lon="3.75985">
        <ele>78</ele>
        <time>2015-12-13T07:00:21Z</time>
      </trkpt>
      <trkpt lat="50.74761" lon="3.75982">
        <ele>80</ele>
        <time>2015-12-13T07:00:24Z</time>
      </trkpt>
      <trkpt lat="50.74763" lon="3.7598">
        <ele>80</ele>
        <time>2015-12-13T07:00:26Z</time>
      </trkpt>
      <trkpt lat="50.74764" lon="3.75978">
        <ele>80</ele>
        <time>2015-12-13T07:00:33Z</time>
      </trkpt>
      <trkpt lat="50.74764" lon="3.75974">
        <ele>80</ele>
        <time>2015-12-13T07:00:36Z</time>
      </trkpt>
      <trkpt lat="50.74763" lon="3.7597">
        <ele>80</ele>
        <time>2015-12-13T07:00:39Z</time>
      </trkpt>
      <trkpt lat="50.74763" lon="3.75967">
        <ele>80</ele>
        <time>2015-12-13T07:00:41Z</time>
      </trkpt>
      <trkpt lat="50.74766" lon="3.7597">
        <ele>80</ele>
        <time>2015-12-13T07:01:37Z</time>
      </trkpt>
      <trkpt lat="50.74767" lon="3.75973">
        <ele>80</ele>
        <time>2015-12-13T07:01:40Z</time>
      </trkpt>
      <trkpt lat="50.7477" lon="3.75975">
        <ele>80</ele>
        <time>2015-12-13T07:02:05Z</time>
      </trkpt>
      <trkpt lat="50.74772" lon="3.75975">
        <ele>80</ele>
        <time>2015-12-13T07:02:07Z</time>
      </trkpt>
      <trkpt lat="50.74774" lon="3.75976">
        <ele>80</ele>
        <time>2015-12-13T07:02:09Z</time>
      </trkpt>
      <trkpt lat="50.74776" lon="3.75968">
        <ele>82</ele>
        <time>2015-12-13T07:02:22Z</time>
      </trkpt>
      <trkpt lat="50.74778" lon="3.75965">
        <ele>82</ele>
        <time>2015-12-13T07:02:25Z</time>
      </trkpt>
      <trkpt lat="50.74779" lon="3.75963">
        <ele>82</ele>
        <time>2015-12-13T07:02:26Z</time>
      </trkpt>
      <trkpt lat="50.74781" lon="3.7596">
        <ele>82</ele>
        <time>2015-12-13T07:02:28Z</time>
      </trkpt>
      <trkpt lat="50.74783" lon="3.75957">
        <ele>82</ele>
        <time>2015-12-13T07:02:30Z</time>
      </trkpt>
      <trkpt lat="50.74785" lon="3.75955">
        <ele>84</ele>
        <time>2015-12-13T07:02:33Z</time>
      </trkpt>
      <trkpt lat="50.74787" lon="3.75952">
        <ele>84</ele>
        <time>2015-12-13T07:02:36Z</time>
      </trkpt>
      <trkpt lat="50.74788" lon="3.7595">
        <ele>84</ele>
        <time>2015-12-13T07:02:37Z</time>
      </trkpt>
      <trkpt lat="50.7479" lon="3.75948">
        <ele>84</ele>
        <time>2015-12-13T07:02:39Z</time>
      </trkpt>
      <trkpt lat="50.74792" lon="3.75946">
        <ele>84.7</ele>
        <time>2015-12-13T07:02:41Z</time>
      </trkpt>
      <trkpt lat="50.74794" lon="3.75944">
        <ele>85</ele>
        <time>2015-12-13T07:02:44Z</time>
      </trkpt>
      <trkpt lat="50.74796" lon="3.75942">
        <ele>85</ele>
        <time>2015-12-13T07:02:46Z</time>
      </trkpt>
      <trkpt lat="50.74797" lon="3.7594">
        <ele>85</ele>
        <time>2015-12-13T07:02:48Z</time>
      </trkpt>
      <trkpt lat="50.748" lon="3.75937">
        <ele>85</ele>
        <time>2015-12-13T07:02:50Z</time>
      </trkpt>
      <trkpt lat="50.74802" lon="3.75936">
        <ele>86</ele>
        <time>2015-12-13T07:02:52Z</time>
      </trkpt>
      <trkpt lat="50.74804" lon="3.75935">
        <ele>86</ele>
        <time>2015-12-13T07:02:54Z</time>
      </trkpt>
      <trkpt lat="50.74806" lon="3.75933">
        <ele>86</ele>
        <time>2015-12-13T07:02:56Z</time>
      </trkpt>
      <trkpt lat="50.74808" lon="3.7593">
        <ele>86</ele>
        <time>2015-12-13T07:02:58Z</time>
      </trkpt>
      <trkpt lat="50.74809" lon="3.75926">
        <ele>86</ele>
        <time>2015-12-13T07:03:00Z</time>
      </trkpt>
      <trkpt lat="50.74811" lon="3.75923">
        <ele>86</ele>
        <time>2015-12-13T07:03:02Z</time>
      </trkpt>
      <trkpt lat="50.74812" lon="3.7592">
        <ele>86</ele>
        <time>2015-12-13T07:03:05Z</time>
      </trkpt>
      <trkpt lat="50.74814" lon="3.75917">
        <ele>86</ele>
        <time>2015-12-13T07:03:07Z</time>
      </trkpt>
      <trkpt lat="50.74816" lon="3.75914">
        <ele>86</ele>
        <time>2015-12-13T07:03:10Z</time>
      </trkpt>
      <trkpt lat="50.74819" lon="3.75912">
        <ele>87</ele>
        <time>2015-12-13T07:03:12Z</time>
      </trkpt>
      <trkpt lat="50.74821" lon="3.7591">
        <ele>87</ele>
        <time>2015-12-13T07:03:14Z</time>
      </trkpt>
      <trkpt lat="50.74822" lon="3.75907">
        <ele>87</ele>
        <time>2015-12-13T07:03:17Z</time>
      </trkpt>
      <trkpt lat="50.74824" lon="3.75905">
        <ele>87</ele>
        <time>2015-12-13T07:03:20Z</time>
      </trkpt>
      <trkpt lat="50.74827" lon="3.75902">
        <ele>87</ele>
        <time>2015-12-13T07:03:22Z</time>
      </trkpt>
      <trkpt lat="50.74829" lon="3.75899">
        <ele>87</ele>
        <time>2015-12-13T07:03:24Z</time>
      </trkpt>
      <trkpt lat="50.7483" lon="3.75896">
        <ele>87</ele>
        <time>2015-12-13T07:03:26Z</time>
      </trkpt>
      <trkpt lat="50.74833" lon="3.75894">
        <ele>87</ele>
        <time>2015-12-13T07:03:28Z</time>
      </trkpt>
      <trkpt lat="50.74835" lon="3.75891">
        <ele>87</ele>
        <time>2015-12-13T07:03:30Z</time>
      </trkpt>
      <trkpt lat="50.74838" lon="3.75888">
        <ele>87</ele>
        <time>2015-12-13T07:03:32Z</time>
      </trkpt>
      <trkpt lat="50.74839" lon="3.75885">
        <ele>87</ele>
        <time>2015-12-13T07:03:34Z</time>
      </trkpt>
      <trkpt lat="50.74842" lon="3.75882">
        <ele>88</ele>
        <time>2015-12-13T07:03:36Z</time>
      </trkpt>
      <trkpt lat="50.74845" lon="3.75878">
        <ele>88</ele>
        <time>2015-12-13T07:03:38Z</time>
      </trkpt>
      <trkpt lat="50.74847" lon="3.75877">
        <ele>88</ele>
        <time>2015-12-13T07:03:39Z</time>
      </trkpt>
      <trkpt lat="50.7485" lon="3.75875">
        <ele>88</ele>
        <time>2015-12-13T07:03:40Z</time>
      </trkpt>
      <trkpt lat="50.74852" lon="3.75873">
        <ele>88</ele>
        <time>2015-12-13T07:03:41Z</time>
      </trkpt>
      <trkpt lat="50.74854" lon="3.75872">
        <ele>88</ele>
        <time>2015-12-13T07:03:42Z</time>
      </trkpt>
      <trkpt lat="50.74857" lon="3.75871">
        <ele>88</ele>
        <time>2015-12-13T07:03:43Z</time>
      </trkpt>
      <trkpt lat="50.74859" lon="3.75869">
        <ele>88</ele>
        <time>2015-12-13T07:03:44Z</time>
      </trkpt>
      <trkpt lat="50.74862" lon="3.75868">
        <ele>88</ele>
        <time>2015-12-13T07:03:45Z</time>
      </trkpt>
      <trkpt lat="50.74865" lon="3.75866">
        <ele>88</ele>
        <time>2015-12-13T07:03:46Z</time>
      </trkpt>
      <trkpt lat="50.74867" lon="3.75864">
        <ele>88</ele>
        <time>2015-12-13T07:03:47Z</time>
      </trkpt>
      <trkpt lat="50.74869" lon="3.75863">
        <ele>88</ele>
        <time>2015-12-13T07:03:48Z</time>
      </trkpt>
      <trkpt lat="50.74871" lon="3.75861">
        <ele>88</ele>
        <time>2015-12-13T07:03:49Z</time>
      </trkpt>
      <trkpt lat="50.74874" lon="3.75859">
        <ele>88</ele>
        <time>2015-12-13T07:03:50Z</time>
      </trkpt>
      <trkpt lat="50.74876" lon="3.75857">
        <ele>87.3</ele>
        <time>2015-12-13T07:03:51Z</time>
      </trkpt>
      <trkpt lat="50.74878" lon="3.75855">
        <ele>87</ele>
        <time>2015-12-13T07:03:52Z</time>
      </trkpt>
      <trkpt lat="50.7488" lon="3.75853">
        <ele>87</ele>
        <time>2015-12-13T07:03:53Z</time>
      </trkpt>
      <trkpt lat="50.74882" lon="3.75852">
        <ele>87</ele>
        <time>2015-12-13T07:03:54Z</time>
      </trkpt>
      <trkpt lat="50.74885" lon="3.7585">
        <ele>87</ele>
        <time>2015-12-13T07:03:55Z</time>
      </trkpt>
      <trkpt lat="50.74886" lon="3.75848">
        <ele>87</ele>
        <time>2015-12-13T07:03:56Z</time>
      </trkpt>
      <trkpt lat="50.74888" lon="3.75845">
        <ele>87</ele>
        <time>2015-12-13T07:03:57Z</time>
      </trkpt>
      <trkpt lat="50.7489" lon="3.75843">
        <ele>87</ele>
        <time>2015-12-13T07:03:58Z</time>
      </trkpt>
      <trkpt lat="50.74892" lon="3.75841">
        <ele>87</ele>
        <time>2015-12-13T07:03:59Z</time>
      </trkpt>
      <trkpt lat="50.74894" lon="3.75839">
        <ele>87</ele>
        <time>2015-12-13T07:04:00Z</time>
      </trkpt>
      <trkpt lat="50.74896" lon="3.75838">
        <ele>86.5</ele>
        <time>2015-12-13T07:04:01Z</time>
      </trkpt>
      <trkpt lat="50.74898" lon="3.75836">
        <ele>86</ele>
        <time>2015-12-13T07:04:02Z</time>
      </trkpt>
      <trkpt lat="50.749" lon="3.75833">
        <ele>86</ele>
        <time>2015-12-13T07:04:03Z</time>
      </trkpt>
      <trkpt lat="50.74902" lon="3.75831">
        <ele>86</ele>
        <time>2015-12-13T07:04:04Z</time>
      </trkpt>
      <trkpt lat="50.74903" lon="3.75829">
        <ele>86</ele>
        <time>2015-12-13T07:04:05Z</time>
      </trkpt>
      <trkpt lat="50.74905" lon="3.75827">
        <ele>86</ele>
        <time>2015-12-13T07:04:06Z</time>
      </trkpt>
      <trkpt lat="50.74906" lon="3.75825">
        <ele>86</ele>
        <time>2015-12-13T07:04:07Z</time>
      </trkpt>
      <trkpt lat="50.74908" lon="3.75823">
        <ele>86</ele>
        <time>2015-12-13T07:04:08Z</time>
      </trkpt>
      <trkpt lat="50.74909" lon="3.75821">
        <ele>86</ele>
        <time>2015-12-13T07:04:09Z</time>
      </trkpt>
      <trkpt lat="50.74911" lon="3.75816">
        <ele>86.7</ele>
        <time>2015-12-13T07:04:11Z</time>
      </trkpt>
      <trkpt lat="50.74914" lon="3.75811">
        <ele>87</ele>
        <time>2015-12-13T07:04:13Z</time>
      </trkpt>
      <trkpt lat="50.74915" lon="3.75808">
        <ele>87</ele>
        <time>2015-12-13T07:04:14Z</time>
      </trkpt>
      <trkpt lat="50.74916" lon="3.75805">
        <ele>87</ele>
        <time>2015-12-13T07:04:15Z</time>
      </trkpt>
      <trkpt lat="50.74918" lon="3.75802">
        <ele>87</ele>
        <time>2015-12-13T07:04:16Z</time>
      </trkpt>
      <trkpt lat="50.74919" lon="3.75799">
        <ele>87</ele>
        <time>2015-12-13T07:04:17Z</time>
      </trkpt>
      <trkpt lat="50.7492" lon="3.75796">
        <ele>87</ele>
        <time>2015-12-13T07:04:18Z</time>
      </trkpt>
      <trkpt lat="50.74921" lon="3.75794">
        <ele>87</ele>
        <time>2015-12-13T07:04:19Z</time>
      </trkpt>
      <trkpt lat="50.74922" lon="3.75789">
        <ele>87</ele>
        <time>2015-12-13T07:04:21Z</time>
      </trkpt>
      <trkpt lat="50.74924" lon="3.75787">
        <ele>87</ele>
        <time>2015-12-13T07:04:22Z</time>
      </trkpt>
      <trkpt lat="50.74924" lon="3.75784">
        <ele>87</ele>
        <time>2015-12-13T07:04:23Z</time>
      </trkpt>
      <trkpt lat="50.74925" lon="3.75781">
        <ele>87</ele>
        <time>2015-12-13T07:04:24Z</time>
      </trkpt>
      <trkpt lat="50.74926" lon="3.75778">
        <ele>87</ele>
        <time>2015-12-13T07:04:25Z</time>
      </trkpt>
      <trkpt lat="50.74928" lon="3.75775">
        <ele>87</ele>
        <time>2015-12-13T07:04:26Z</time>
      </trkpt>
      <trkpt lat="50.74929" lon="3.75772">
        <ele>87</ele>
        <time>2015-12-13T07:04:27Z</time>
      </trkpt>
      <trkpt lat="50.7493" lon="3.75769">
        <ele>87</ele>
        <time>2015-12-13T07:04:28Z</time>
      </trkpt>
      <trkpt lat="50.7493" lon="3.75766">
        <ele>87</ele>
        <time>2015-12-13T07:04:29Z</time>
      </trkpt>
      <trkpt lat="50.74931" lon="3.7576">
        <ele>87.7</ele>
        <time>2015-12-13T07:04:31Z</time>
      </trkpt>
      <trkpt lat="50.74933" lon="3.75757">
        <ele>88</ele>
        <time>2015-12-13T07:04:32Z</time>
      </trkpt>
      <trkpt lat="50.74934" lon="3.75755">
        <ele>88</ele>
        <time>2015-12-13T07:04:33Z</time>
      </trkpt>
      <trkpt lat="50.74935" lon="3.75752">
        <ele>88</ele>
        <time>2015-12-13T07:04:34Z</time>
      </trkpt>
      <trkpt lat="50.74936" lon="3.7575">
        <ele>88</ele>
        <time>2015-12-13T07:04:35Z</time>
      </trkpt>
      <trkpt lat="50.74938" lon="3.75746">
        <ele>88</ele>
        <time>2015-12-13T07:04:37Z</time>
      </trkpt>
      <trkpt lat="50.74939" lon="3.75744">
        <ele>88</ele>
        <time>2015-12-13T07:04:38Z</time>
      </trkpt>
      <trkpt lat="50.74942" lon="3.7574">
        <ele>88</ele>
        <time>2015-12-13T07:04:40Z</time>
      </trkpt>
      <trkpt lat="50.74944" lon="3.75738">
        <ele>88.7</ele>
        <time>2015-12-13T07:04:41Z</time>
      </trkpt>
      <trkpt lat="50.74945" lon="3.75736">
        <ele>89</ele>
        <time>2015-12-13T07:04:42Z</time>
      </trkpt>
      <trkpt lat="50.74949" lon="3.75733">
        <ele>89</ele>
        <time>2015-12-13T07:04:44Z</time>
      </trkpt>
      <trkpt lat="50.74951" lon="3.75732">
        <ele>89</ele>
        <time>2015-12-13T07:04:45Z</time>
      </trkpt>
      <trkpt lat="50.74954" lon="3.75729">
        <ele>89</ele>
        <time>2015-12-13T07:04:47Z</time>
      </trkpt>
      <trkpt lat="50.74956" lon="3.75728">
        <ele>89</ele>
        <time>2015-12-13T07:04:48Z</time>
      </trkpt>
      <trkpt lat="50.74958" lon="3.75726">
        <ele>89</ele>
        <time>2015-12-13T07:04:49Z</time>
      </trkpt>
      <trkpt lat="50.7496" lon="3.75724">
        <ele>89</ele>
        <time>2015-12-13T07:04:50Z</time>
      </trkpt>
      <trkpt lat="50.74961" lon="3.75722">
        <ele>89.5</ele>
        <time>2015-12-13T07:04:51Z</time>
      </trkpt>
      <trkpt lat="50.74963" lon="3.7572">
        <ele>90</ele>
        <time>2015-12-13T07:04:52Z</time>
      </trkpt>
      <trkpt lat="50.74965" lon="3.75719">
        <ele>90</ele>
        <time>2015-12-13T07:04:53Z</time>
      </trkpt>
      <trkpt lat="50.74967" lon="3.75717">
        <ele>90</ele>
        <time>2015-12-13T07:04:54Z</time>
      </trkpt>
      <trkpt lat="50.74969" lon="3.75716">
        <ele>90</ele>
        <time>2015-12-13T07:04:55Z</time>
      </trkpt>
      <trkpt lat="50.74971" lon="3.75714">
        <ele>90</ele>
        <time>2015-12-13T07:04:56Z</time>
      </trkpt>
      <trkpt lat="50.74973" lon="3.75712">
        <ele>90</ele>
        <time>2015-12-13T07:04:57Z</time>
      </trkpt>
      <trkpt lat="50.74975" lon="3.7571">
        <ele>90</ele>
        <time>2015-12-13T07:04:58Z</time>
      </trkpt>
      <trkpt lat="50.74978" lon="3.75708">
        <ele>90</ele>
        <time>2015-12-13T07:04:59Z</time>
      </trkpt>
      <trkpt lat="50.7498" lon="3.75707">
        <ele>90</ele>
        <time>2015-12-13T07:05:00Z</time>
      </trkpt>
      <trkpt lat="50.74981" lon="3.75705">
        <ele>90</ele>
        <time>2015-12-13T07:05:01Z</time>
      </trkpt>
      <trkpt lat="50.74983" lon="3.75703">
        <ele>90</ele>
        <time>2015-12-13T07:05:02Z</time>
      </trkpt>
      <trkpt lat="50.74985" lon="3.75702">
        <ele>90</ele>
        <time>2015-12-13T07:05:03Z</time>
      </trkpt>
      <trkpt lat="50.74987" lon="3.757">
        <ele>90</ele>
        <time>2015-12-13T07:05:04Z</time>
      </trkpt>
      <trkpt lat="50.74989" lon="3.75699">
        <ele>90</ele>
        <time>2015-12-13T07:05:05Z</time>
      </trkpt>
      <trkpt lat="50.74991" lon="3.75698">
        <ele>90</ele>
        <time>2015-12-13T07:05:06Z</time>
      </trkpt>
      <trkpt lat="50.74994" lon="3.75697">
        <ele>90</ele>
        <time>2015-12-13T07:05:07Z</time>
      </trkpt>
      <trkpt lat="50.74996" lon="3.75698">
        <ele>90</ele>
        <time>2015-12-13T07:05:08Z</time>
      </trkpt>
      <trkpt lat="50.74998" lon="3.75699">
        <ele>90</ele>
        <time>2015-12-13T07:05:09Z</time>
      </trkpt>
      <trkpt lat="50.75" lon="3.75701">
        <ele>90</ele>
        <time>2015-12-13T07:05:10Z</time>
      </trkpt>
      <trkpt lat="50.75001" lon="3.75702">
        <ele>91.4</ele>
        <time>2015-12-13T07:05:11Z</time>
      </trkpt>
      <trkpt lat="50.75003" lon="3.75704">
        <ele>92</ele>
        <time>2015-12-13T07:05:12Z</time>
      </trkpt>
      <trkpt lat="50.75004" lon="3.75706">
        <ele>92</ele>
        <time>2015-12-13T07:05:13Z</time>
      </trkpt>
      <trkpt lat="50.75006" lon="3.75708">
        <ele>92</ele>
        <time>2015-12-13T07:05:14Z</time>
      </trkpt>
      <trkpt lat="50.75007" lon="3.75711">
        <ele>92</ele>
        <time>2015-12-13T07:05:15Z</time>
      </trkpt>
      <trkpt lat="50.75008" lon="3.75713">
        <ele>92</ele>
        <time>2015-12-13T07:05:16Z</time>
      </trkpt>
      <trkpt lat="50.75009" lon="3.75716">
        <ele>92</ele>
        <time>2015-12-13T07:05:17Z</time>
      </trkpt>
      <trkpt lat="50.75011" lon="3.75718">
        <ele>92</ele>
        <time>2015-12-13T07:05:18Z</time>
      </trkpt>
      <trkpt lat="50.75012" lon="3.75721">
        <ele>92</ele>
        <time>2015-12-13T07:05:19Z</time>
      </trkpt>
      <trkpt lat="50.75014" lon="3.75723">
        <ele>92</ele>
        <time>2015-12-13T07:05:20Z</time>
      </trkpt>
      <trkpt lat="50.75015" lon="3.75726">
        <ele>92.7</ele>
        <time>2015-12-13T07:05:21Z</time>
      </trkpt>
      <trkpt lat="50.75017" lon="3.75728">
        <ele>93</ele>
        <time>2015-12-13T07:05:22Z</time>
      </trkpt>
      <trkpt lat="50.75018" lon="3.7573">
        <ele>93</ele>
        <time>2015-12-13T07:05:23Z</time>
      </trkpt>
      <trkpt lat="50.7502" lon="3.75732">
        <ele>93</ele>
        <time>2015-12-13T07:05:24Z</time>
      </trkpt>
      <trkpt lat="50.75023" lon="3.75734">
        <ele>93</ele>
        <time>2015-12-13T07:05:26Z</time>
      </trkpt>
      <trkpt lat="50.75025" lon="3.75736">
        <ele>93</ele>
        <time>2015-12-13T07:05:27Z</time>
      </trkpt>
      <trkpt lat="50.75027" lon="3.75737">
        <ele>93</ele>
        <time>2015-12-13T07:05:28Z</time>
      </trkpt>
      <trkpt lat="50.75029" lon="3.75739">
        <ele>93</ele>
        <time>2015-12-13T07:05:29Z</time>
      </trkpt>
      <trkpt lat="50.75031" lon="3.7574">
        <ele>93</ele>
        <time>2015-12-13T07:05:30Z</time>
      </trkpt>
      <trkpt lat="50.75033" lon="3.75742">
        <ele>93.7</ele>
        <time>2015-12-13T07:05:31Z</time>
      </trkpt>
      <trkpt lat="50.75034" lon="3.75743">
        <ele>94</ele>
        <time>2015-12-13T07:05:32Z</time>
      </trkpt>
      <trkpt lat="50.75036" lon="3.75745">
        <ele>94</ele>
        <time>2015-12-13T07:05:33Z</time>
      </trkpt>
      <trkpt lat="50.75037" lon="3.75746">
        <ele>94</ele>
        <time>2015-12-13T07:05:34Z</time>
      </trkpt>
      <trkpt lat="50.75039" lon="3.75748">
        <ele>94</ele>
        <time>2015-12-13T07:05:35Z</time>
      </trkpt>
      <trkpt lat="50.75041" lon="3.7575">
        <ele>94</ele>
        <time>2015-12-13T07:05:36Z</time>
      </trkpt>
      <trkpt lat="50.75043" lon="3.75751">
        <ele>94</ele>
        <time>2015-12-13T07:05:37Z</time>
      </trkpt>
      <trkpt lat="50.75045" lon="3.75753">
        <ele>94</ele>
        <time>2015-12-13T07:05:38Z</time>
      </trkpt>
      <trkpt lat="50.75047" lon="3.75754">
        <ele>94</ele>
        <time>2015-12-13T07:05:39Z</time>
      </trkpt>
      <trkpt lat="50.75049" lon="3.75756">
        <ele>94</ele>
        <time>2015-12-13T07:05:40Z</time>
      </trkpt>
      <trkpt lat="50.75051" lon="3.75757">
        <ele>95.4</ele>
        <time>2015-12-13T07:05:41Z</time>
      </trkpt>
      <trkpt lat="50.75053" lon="3.75759">
        <ele>96</ele>
        <time>2015-12-13T07:05:42Z</time>
      </trkpt>
      <trkpt lat="50.75055" lon="3.7576">
        <ele>96</ele>
        <time>2015-12-13T07:05:43Z</time>
      </trkpt>
      <trkpt lat="50.75057" lon="3.75762">
        <ele>96</ele>
        <time>2015-12-13T07:05:44Z</time>
      </trkpt>
      <trkpt lat="50.75058" lon="3.75763">
        <ele>96</ele>
        <time>2015-12-13T07:05:45Z</time>
      </trkpt>
      <trkpt lat="50.7506" lon="3.75764">
        <ele>96</ele>
        <time>2015-12-13T07:05:46Z</time>
      </trkpt>
      <trkpt lat="50.75062" lon="3.75765">
        <ele>96</ele>
        <time>2015-12-13T07:05:47Z</time>
      </trkpt>
      <trkpt lat="50.75064" lon="3.75766">
        <ele>96</ele>
        <time>2015-12-13T07:05:48Z</time>
      </trkpt>
      <trkpt lat="50.75066" lon="3.75768">
        <ele>96</ele>
        <time>2015-12-13T07:05:49Z</time>
      </trkpt>
      <trkpt lat="50.75068" lon="3.75768">
        <ele>96</ele>
        <time>2015-12-13T07:05:50Z</time>
      </trkpt>
      <trkpt lat="50.7507" lon="3.75769">
        <ele>96</ele>
        <time>2015-12-13T07:05:51Z</time>
      </trkpt>
      <trkpt lat="50.75072" lon="3.7577">
        <ele>96</ele>
        <time>2015-12-13T07:05:52Z</time>
      </trkpt>
      <trkpt lat="50.75075" lon="3.75771">
        <ele>96</ele>
        <time>2015-12-13T07:05:53Z</time>
      </trkpt>
      <trkpt lat="50.75077" lon="3.75772">
        <ele>96</ele>
        <time>2015-12-13T07:05:54Z</time>
      </trkpt>
      <trkpt lat="50.75079" lon="3.75773">
        <ele>96</ele>
        <time>2015-12-13T07:05:55Z</time>
      </trkpt>
      <trkpt lat="50.75081" lon="3.75773">
        <ele>96</ele>
        <time>2015-12-13T07:05:56Z</time>
      </trkpt>
      <trkpt lat="50.75084" lon="3.75775">
        <ele>96</ele>
        <time>2015-12-13T07:05:57Z</time>
      </trkpt>
      <trkpt lat="50.75086" lon="3.75776">
        <ele>96</ele>
        <time>2015-12-13T07:05:58Z</time>
      </trkpt>
      <trkpt lat="50.75088" lon="3.75777">
        <ele>96</ele>
        <time>2015-12-13T07:05:59Z</time>
      </trkpt>
      <trkpt lat="50.7509" lon="3.75778">
        <ele>96</ele>
        <time>2015-12-13T07:06:00Z</time>
      </trkpt>
      <trkpt lat="50.75092" lon="3.75779">
        <ele>95.3</ele>
        <time>2015-12-13T07:06:01Z</time>
      </trkpt>
      <trkpt lat="50.75094" lon="3.7578">
        <ele>95</ele>
        <time>2015-12-13T07:06:02Z</time>
      </trkpt>
      <trkpt lat="50.75096" lon="3.75781">
        <ele>95</ele>
        <time>2015-12-13T07:06:03Z</time>
      </trkpt>
      <trkpt lat="50.75098" lon="3.75782">
        <ele>95</ele>
        <time>2015-12-13T07:06:04Z</time>
      </trkpt>
      <trkpt lat="50.751" lon="3.75783">
        <ele>95</ele>
        <time>2015-12-13T07:06:05Z</time>
      </trkpt>
      <trkpt lat="50.75102" lon="3.75784">
        <ele>95</ele>
        <time>2015-12-13T07:06:06Z</time>
      </trkpt>
      <trkpt lat="50.75104" lon="3.75786">
        <ele>95</ele>
        <time>2015-12-13T07:06:07Z</time>
      </trkpt>
      <trkpt lat="50.75107" lon="3.75787">
        <ele>95</ele>
        <time>2015-12-13T07:06:08Z</time>
      </trkpt>
      <trkpt lat="50.75109" lon="3.75789">
        <ele>95</ele>
        <time>2015-12-13T07:06:09Z</time>
      </trkpt>
      <trkpt lat="50.75111" lon="3.7579">
        <ele>95</ele>
        <time>2015-12-13T07:06:10Z</time>
      </trkpt>
      <trkpt lat="50.75112" lon="3.75792">
        <ele>94.3</ele>
        <time>2015-12-13T07:06:11Z</time>
      </trkpt>
      <trkpt lat="50.75115" lon="3.75794">
        <ele>94</ele>
        <time>2015-12-13T07:06:12Z</time>
      </trkpt>
      <trkpt lat="50.75117" lon="3.75796">
        <ele>94</ele>
        <time>2015-12-13T07:06:13Z</time>
      </trkpt>
      <trkpt lat="50.75119" lon="3.75798">
        <ele>94</ele>
        <time>2015-12-13T07:06:14Z</time>
      </trkpt>
      <trkpt lat="50.7512" lon="3.758">
        <ele>94</ele>
        <time>2015-12-13T07:06:15Z</time>
      </trkpt>
      <trkpt lat="50.75122" lon="3.75801">
        <ele>94</ele>
        <time>2015-12-13T07:06:16Z</time>
      </trkpt>
      <trkpt lat="50.75124" lon="3.75803">
        <ele>94</ele>
        <time>2015-12-13T07:06:17Z</time>
      </trkpt>
      <trkpt lat="50.75126" lon="3.75805">
        <ele>94</ele>
        <time>2015-12-13T07:06:18Z</time>
      </trkpt>
      <trkpt lat="50.75128" lon="3.75807">
        <ele>94</ele>
        <time>2015-12-13T07:06:19Z</time>
      </trkpt>
      <trkpt lat="50.7513" lon="3.75809">
        <ele>94</ele>
        <time>2015-12-13T07:06:20Z</time>
      </trkpt>
      <trkpt lat="50.75132" lon="3.75811">
        <ele>92.6</ele>
        <time>2015-12-13T07:06:21Z</time>
      </trkpt>
      <trkpt lat="50.75133" lon="3.75813">
        <ele>92</ele>
        <time>2015-12-13T07:06:22Z</time>
      </trkpt>
      <trkpt lat="50.75135" lon="3.75815">
        <ele>92</ele>
        <time>2015-12-13T07:06:23Z</time>
      </trkpt>
      <trkpt lat="50.75137" lon="3.75817">
        <ele>92</ele>
        <time>2015-12-13T07:06:24Z</time>
      </trkpt>
      <trkpt lat="50.75139" lon="3.7582">
        <ele>92</ele>
        <time>2015-12-13T07:06:25Z</time>
      </trkpt>
      <trkpt lat="50.75141" lon="3.75822">
        <ele>91.3</ele>
        <time>2015-12-13T07:06:26Z</time>
      </trkpt>
      <trkpt lat="50.75142" lon="3.75824">
        <ele>91</ele>
        <time>2015-12-13T07:06:27Z</time>
      </trkpt>
      <trkpt lat="50.75144" lon="3.75826">
        <ele>91</ele>
        <time>2015-12-13T07:06:28Z</time>
      </trkpt>
      <trkpt lat="50.75146" lon="3.75828">
        <ele>91</ele>
        <time>2015-12-13T07:06:29Z</time>
      </trkpt>
      <trkpt lat="50.75148" lon="3.7583">
        <ele>91</ele>
        <time>2015-12-13T07:06:30Z</time>
      </trkpt>
      <trkpt lat="50.75149" lon="3.75833">
        <ele>90.3</ele>
        <time>2015-12-13T07:06:31Z</time>
      </trkpt>
      <trkpt lat="50.75151" lon="3.75835">
        <ele>90</ele>
        <time>2015-12-13T07:06:32Z</time>
      </trkpt>
      <trkpt lat="50.75153" lon="3.75837">
        <ele>90</ele>
        <time>2015-12-13T07:06:33Z</time>
      </trkpt>
      <trkpt lat="50.75155" lon="3.75839">
        <ele>90</ele>
        <time>2015-12-13T07:06:34Z</time>
      </trkpt>
      <trkpt lat="50.75157" lon="3.75841">
        <ele>90</ele>
        <time>2015-12-13T07:06:35Z</time>
      </trkpt>
      <trkpt lat="50.75159" lon="3.75843">
        <ele>90</ele>
        <time>2015-12-13T07:06:36Z</time>
      </trkpt>
      <trkpt lat="50.7516" lon="3.75845">
        <ele>90</ele>
        <time>2015-12-13T07:06:37Z</time>
      </trkpt>
      <trkpt lat="50.75162" lon="3.75847">
        <ele>90</ele>
        <time>2015-12-13T07:06:38Z</time>
      </trkpt>
      <trkpt lat="50.75164" lon="3.7585">
        <ele>90</ele>
        <time>2015-12-13T07:06:39Z</time>
      </trkpt>
      <trkpt lat="50.75166" lon="3.75852">
        <ele>90</ele>
        <time>2015-12-13T07:06:40Z</time>
      </trkpt>
      <trkpt lat="50.75168" lon="3.75854">
        <ele>88.6</ele>
        <time>2015-12-13T07:06:41Z</time>
      </trkpt>
      <trkpt lat="50.7517" lon="3.75856">
        <ele>88</ele>
        <time>2015-12-13T07:06:42Z</time>
      </trkpt>
      <trkpt lat="50.75172" lon="3.75858">
        <ele>88</ele>
        <time>2015-12-13T07:06:43Z</time>
      </trkpt>
      <trkpt lat="50.75174" lon="3.7586">
        <ele>88</ele>
        <time>2015-12-13T07:06:44Z</time>
      </trkpt>
      <trkpt lat="50.75176" lon="3.75862">
        <ele>88</ele>
        <time>2015-12-13T07:06:45Z</time>
      </trkpt>
      <trkpt lat="50.75178" lon="3.75865">
        <ele>88</ele>
        <time>2015-12-13T07:06:46Z</time>
      </trkpt>
      <trkpt lat="50.75179" lon="3.75867">
        <ele>88</ele>
        <time>2015-12-13T07:06:47Z</time>
      </trkpt>
      <trkpt lat="50.75181" lon="3.75869">
        <ele>88</ele>
        <time>2015-12-13T07:06:48Z</time>
      </trkpt>
      <trkpt lat="50.75183" lon="3.75871">
        <ele>88</ele>
        <time>2015-12-13T07:06:49Z</time>
      </trkpt>
      <trkpt lat="50.75185" lon="3.75874">
        <ele>88</ele>
        <time>2015-12-13T07:06:50Z</time>
      </trkpt>
      <trkpt lat="50.75187" lon="3.75876">
        <ele>87.5</ele>
        <time>2015-12-13T07:06:51Z</time>
      </trkpt>
      <trkpt lat="50.75189" lon="3.75878">
        <ele>87</ele>
        <time>2015-12-13T07:06:52Z</time>
      </trkpt>
      <trkpt lat="50.75191" lon="3.7588">
        <ele>87</ele>
        <time>2015-12-13T07:06:53Z</time>
      </trkpt>
      <trkpt lat="50.75192" lon="3.75883">
        <ele>87</ele>
        <time>2015-12-13T07:06:54Z</time>
      </trkpt>
      <trkpt lat="50.75194" lon="3.75884">
        <ele>87</ele>
        <time>2015-12-13T07:06:55Z</time>
      </trkpt>
      <trkpt lat="50.75196" lon="3.75886">
        <ele>87</ele>
        <time>2015-12-13T07:06:56Z</time>
      </trkpt>
      <trkpt lat="50.75197" lon="3.75889">
        <ele>87</ele>
        <time>2015-12-13T07:06:57Z</time>
      </trkpt>
      <trkpt lat="50.75199" lon="3.7589">
        <ele>87</ele>
        <time>2015-12-13T07:06:58Z</time>
      </trkpt>
      <trkpt lat="50.75201" lon="3.75892">
        <ele>87</ele>
        <time>2015-12-13T07:06:59Z</time>
      </trkpt>
      <trkpt lat="50.75203" lon="3.75894">
        <ele>87</ele>
        <time>2015-12-13T07:07:00Z</time>
      </trkpt>
      <trkpt lat="50.75205" lon="3.75896">
        <ele>86.3</ele>
        <time>2015-12-13T07:07:01Z</time>
      </trkpt>
      <trkpt lat="50.75207" lon="3.75897">
        <ele>86</ele>
        <time>2015-12-13T07:07:02Z</time>
      </trkpt>
      <trkpt lat="50.75209" lon="3.75899">
        <ele>86</ele>
        <time>2015-12-13T07:07:03Z</time>
      </trkpt>
      <trkpt lat="50.75211" lon="3.75901">
        <ele>86</ele>
        <time>2015-12-13T07:07:04Z</time>
      </trkpt>
      <trkpt lat="50.75213" lon="3.75903">
        <ele>86</ele>
        <time>2015-12-13T07:07:05Z</time>
      </trkpt>
      <trkpt lat="50.75215" lon="3.75905">
        <ele>86</ele>
        <time>2015-12-13T07:07:06Z</time>
      </trkpt>
      <trkpt lat="50.75217" lon="3.75906">
        <ele>86</ele>
        <time>2015-12-13T07:07:07Z</time>
      </trkpt>
      <trkpt lat="50.75219" lon="3.75908">
        <ele>86</ele>
        <time>2015-12-13T07:07:08Z</time>
      </trkpt>
      <trkpt lat="50.75221" lon="3.7591">
        <ele>86</ele>
        <time>2015-12-13T07:07:09Z</time>
      </trkpt>
      <trkpt lat="50.75223" lon="3.75912">
        <ele>86</ele>
        <time>2015-12-13T07:07:10Z</time>
      </trkpt>
      <trkpt lat="50.75225" lon="3.75913">
        <ele>86</ele>
        <time>2015-12-13T07:07:11Z</time>
      </trkpt>
      <trkpt lat="50.75227" lon="3.75915">
        <ele>86</ele>
        <time>2015-12-13T07:07:12Z</time>
      </trkpt>
      <trkpt lat="50.75229" lon="3.75916">
        <ele>86</ele>
        <time>2015-12-13T07:07:13Z</time>
      </trkpt>
      <trkpt lat="50.75231" lon="3.75918">
        <ele>86</ele>
        <time>2015-12-13T07:07:14Z</time>
      </trkpt>
      <trkpt lat="50.75233" lon="3.7592">
        <ele>86</ele>
        <time>2015-12-13T07:07:15Z</time>
      </trkpt>
      <trkpt lat="50.75234" lon="3.75922">
        <ele>86</ele>
        <time>2015-12-13T07:07:16Z</time>
      </trkpt>
      <trkpt lat="50.75236" lon="3.75924">
        <ele>86</ele>
        <time>2015-12-13T07:07:17Z</time>
      </trkpt>
      <trkpt lat="50.75238" lon="3.75926">
        <ele>86</ele>
        <time>2015-12-13T07:07:18Z</time>
      </trkpt>
      <trkpt lat="50.75239" lon="3.75929">
        <ele>86</ele>
        <time>2015-12-13T07:07:19Z</time>
      </trkpt>
      <trkpt lat="50.7524" lon="3.75932">
        <ele>86</ele>
        <time>2015-12-13T07:07:20Z</time>
      </trkpt>
      <trkpt lat="50.75241" lon="3.75935">
        <ele>86</ele>
        <time>2015-12-13T07:07:21Z</time>
      </trkpt>
      <trkpt lat="50.75242" lon="3.75938">
        <ele>86</ele>
        <time>2015-12-13T07:07:22Z</time>
      </trkpt>
      <trkpt lat="50.75243" lon="3.75941">
        <ele>86</ele>
        <time>2015-12-13T07:07:23Z</time>
      </trkpt>
      <trkpt lat="50.75244" lon="3.75945">
        <ele>86</ele>
        <time>2015-12-13T07:07:24Z</time>
      </trkpt>
      <trkpt lat="50.75244" lon="3.75948">
        <ele>86</ele>
        <time>2015-12-13T07:07:25Z</time>
      </trkpt>
      <trkpt lat="50.75244" lon="3.75952">
        <ele>86</ele>
        <time>2015-12-13T07:07:26Z</time>
      </trkpt>
      <trkpt lat="50.75245" lon="3.75955">
        <ele>86</ele>
        <time>2015-12-13T07:07:27Z</time>
      </trkpt>
      <trkpt lat="50.75245" lon="3.75959">
        <ele>86</ele>
        <time>2015-12-13T07:07:28Z</time>
      </trkpt>
      <trkpt lat="50.75245" lon="3.75963">
        <ele>86</ele>
        <time>2015-12-13T07:07:29Z</time>
      </trkpt>
      <trkpt lat="50.75245" lon="3.75966">
        <ele>86</ele>
        <time>2015-12-13T07:07:30Z</time>
      </trkpt>
      <trkpt lat="50.75246" lon="3.7597">
        <ele>86</ele>
        <time>2015-12-13T07:07:31Z</time>
      </trkpt>
      <trkpt lat="50.75246" lon="3.75973">
        <ele>86</ele>
        <time>2015-12-13T07:07:32Z</time>
      </trkpt>
      <trkpt lat="50.75246" lon="3.75977">
        <ele>86</ele>
        <time>2015-12-13T07:07:33Z</time>
      </trkpt>
      <trkpt lat="50.75246" lon="3.75981">
        <ele>86</ele>
        <time>2015-12-13T07:07:34Z</time>
      </trkpt>
      <trkpt lat="50.75246" lon="3.75984">
        <ele>86</ele>
        <time>2015-12-13T07:07:35Z</time>
      </trkpt>
      <trkpt lat="50.75246" lon="3.75988">
        <ele>86</ele>
        <time>2015-12-13T07:07:36Z</time>
      </trkpt>
      <trkpt lat="50.75247" lon="3.75991">
        <ele>86</ele>
        <time>2015-12-13T07:07:37Z</time>
      </trkpt>
      <trkpt lat="50.75247" lon="3.75995">
        <ele>86</ele>
        <time>2015-12-13T07:07:38Z</time>
      </trkpt>
      <trkpt lat="50.75247" lon="3.75999">
        <ele>86</ele>
        <time>2015-12-13T07:07:39Z</time>
      </trkpt>
      <trkpt lat="50.75248" lon="3.76002">
        <ele>86</ele>
        <time>2015-12-13T07:07:40Z</time>
      </trkpt>
      <trkpt lat="50.75248" lon="3.76006">
        <ele>86</ele>
        <time>2015-12-13T07:07:41Z</time>
      </trkpt>
      <trkpt lat="50.75248" lon="3.76009">
        <ele>86</ele>
        <time>2015-12-13T07:07:42Z</time>
      </trkpt>
      <trkpt lat="50.75249" lon="3.76013">
        <ele>86</ele>
        <time>2015-12-13T07:07:43Z</time>
      </trkpt>
      <trkpt lat="50.75249" lon="3.76017">
        <ele>86</ele>
        <time>2015-12-13T07:07:44Z</time>
      </trkpt>
      <trkpt lat="50.75249" lon="3.7602">
        <ele>86</ele>
        <time>2015-12-13T07:07:45Z</time>
      </trkpt>
      <trkpt lat="50.7525" lon="3.76024">
        <ele>86</ele>
        <time>2015-12-13T07:07:46Z</time>
      </trkpt>
      <trkpt lat="50.7525" lon="3.76028">
        <ele>86</ele>
        <time>2015-12-13T07:07:47Z</time>
      </trkpt>
      <trkpt lat="50.7525" lon="3.76031">
        <ele>86</ele>
        <time>2015-12-13T07:07:48Z</time>
      </trkpt>
      <trkpt lat="50.75251" lon="3.76035">
        <ele>86</ele>
        <time>2015-12-13T07:07:49Z</time>
      </trkpt>
      <trkpt lat="50.75251" lon="3.76039">
        <ele>86</ele>
        <time>2015-12-13T07:07:50Z</time>
      </trkpt>
      <trkpt lat="50.75251" lon="3.76042">
        <ele>86</ele>
        <time>2015-12-13T07:07:51Z</time>
      </trkpt>
      <trkpt lat="50.75252" lon="3.76046">
        <ele>86</ele>
        <time>2015-12-13T07:07:52Z</time>
      </trkpt>
      <trkpt lat="50.75252" lon="3.7605">
        <ele>86</ele>
        <time>2015-12-13T07:07:53Z</time>
      </trkpt>
      <trkpt lat="50.75253" lon="3.76053">
        <ele>86</ele>
        <time>2015-12-13T07:07:54Z</time>
      </trkpt>
      <trkpt lat="50.75253" lon="3.76057">
        <ele>86</ele>
        <time>2015-12-13T07:07:55Z</time>
      </trkpt>
      <trkpt lat="50.75253" lon="3.76061">
        <ele>86</ele>
        <time>2015-12-13T07:07:56Z</time>
      </trkpt>
      <trkpt lat="50.75254" lon="3.76064">
        <ele>86</ele>
        <time>2015-12-13T07:07:57Z</time>
      </trkpt>
      <trkpt lat="50.75254" lon="3.76068">
        <ele>86</ele>
        <time>2015-12-13T07:07:58Z</time>
      </trkpt>
      <trkpt lat="50.75255" lon="3.76071">
        <ele>86</ele>
        <time>2015-12-13T07:07:59Z</time>
      </trkpt>
      <trkpt lat="50.75255" lon="3.76075">
        <ele>86</ele>
        <time>2015-12-13T07:08:00Z</time>
      </trkpt>
      <trkpt lat="50.75255" lon="3.76079">
        <ele>86</ele>
        <time>2015-12-13T07:08:01Z</time>
      </trkpt>
      <trkpt lat="50.75256" lon="3.76082">
        <ele>85.3</ele>
        <time>2015-12-13T07:08:02Z</time>
      </trkpt>
      <trkpt lat="50.75256" lon="3.76086">
        <ele>85</ele>
        <time>2015-12-13T07:08:03Z</time>
      </trkpt>
      <trkpt lat="50.75257" lon="3.76089">
        <ele>85</ele>
        <time>2015-12-13T07:08:04Z</time>
      </trkpt>
      <trkpt lat="50.75257" lon="3.76093">
        <ele>85</ele>
        <time>2015-12-13T07:08:05Z</time>
      </trkpt>
      <trkpt lat="50.75258" lon="3.76097">
        <ele>85</ele>
        <time>2015-12-13T07:08:06Z</time>
      </trkpt>
      <trkpt lat="50.75258" lon="3.761">
        <ele>85</ele>
        <time>2015-12-13T07:08:07Z</time>
      </trkpt>
      <trkpt lat="50.75259" lon="3.76104">
        <ele>85</ele>
        <time>2015-12-13T07:08:08Z</time>
      </trkpt>
      <trkpt lat="50.75259" lon="3.76107">
        <ele>85</ele>
        <time>2015-12-13T07:08:09Z</time>
      </trkpt>
      <trkpt lat="50.7526" lon="3.7611">
        <ele>85</ele>
        <time>2015-12-13T07:08:10Z</time>
      </trkpt>
      <trkpt lat="50.75261" lon="3.76113">
        <ele>85</ele>
        <time>2015-12-13T07:08:11Z</time>
      </trkpt>
      <trkpt lat="50.75261" lon="3.76116">
        <ele>85.7</ele>
        <time>2015-12-13T07:08:12Z</time>
      </trkpt>
      <trkpt lat="50.75262" lon="3.7612">
        <ele>86</ele>
        <time>2015-12-13T07:08:13Z</time>
      </trkpt>
      <trkpt lat="50.75263" lon="3.76123">
        <ele>86</ele>
        <time>2015-12-13T07:08:14Z</time>
      </trkpt>
      <trkpt lat="50.75263" lon="3.76126">
        <ele>86</ele>
        <time>2015-12-13T07:08:15Z</time>
      </trkpt>
      <trkpt lat="50.75264" lon="3.76129">
        <ele>86</ele>
        <time>2015-12-13T07:08:16Z</time>
      </trkpt>
      <trkpt lat="50.75265" lon="3.76133">
        <ele>86</ele>
        <time>2015-12-13T07:08:17Z</time>
      </trkpt>
      <trkpt lat="50.75266" lon="3.76136">
        <ele>86</ele>
        <time>2015-12-13T07:08:18Z</time>
      </trkpt>
      <trkpt lat="50.75267" lon="3.76139">
        <ele>86</ele>
        <time>2015-12-13T07:08:19Z</time>
      </trkpt>
      <trkpt lat="50.75268" lon="3.76142">
        <ele>86</ele>
        <time>2015-12-13T07:08:20Z</time>
      </trkpt>
      <trkpt lat="50.75269" lon="3.76146">
        <ele>86</ele>
        <time>2015-12-13T07:08:21Z</time>
      </trkpt>
      <trkpt lat="50.7527" lon="3.76149">
        <ele>86</ele>
        <time>2015-12-13T07:08:22Z</time>
      </trkpt>
      <trkpt lat="50.75271" lon="3.76152">
        <ele>86</ele>
        <time>2015-12-13T07:08:23Z</time>
      </trkpt>
      <trkpt lat="50.75272" lon="3.76155">
        <ele>86</ele>
        <time>2015-12-13T07:08:24Z</time>
      </trkpt>
      <trkpt lat="50.75273" lon="3.76158">
        <ele>86</ele>
        <time>2015-12-13T07:08:25Z</time>
      </trkpt>
      <trkpt lat="50.75274" lon="3.7616">
        <ele>86</ele>
        <time>2015-12-13T07:08:26Z</time>
      </trkpt>
      <trkpt lat="50.75276" lon="3.76162">
        <ele>86</ele>
        <time>2015-12-13T07:08:28Z</time>
      </trkpt>
      <trkpt lat="50.75278" lon="3.76161">
        <ele>86</ele>
        <time>2015-12-13T07:08:30Z</time>
      </trkpt>
      <trkpt lat="50.7528" lon="3.76159">
        <ele>86</ele>
        <time>2015-12-13T07:08:31Z</time>
      </trkpt>
      <trkpt lat="50.75281" lon="3.76156">
        <ele>86</ele>
        <time>2015-12-13T07:08:32Z</time>
      </trkpt>
      <trkpt lat="50.75283" lon="3.76154">
        <ele>86</ele>
        <time>2015-12-13T07:08:33Z</time>
      </trkpt>
      <trkpt lat="50.75284" lon="3.76151">
        <ele>86</ele>
        <time>2015-12-13T07:08:34Z</time>
      </trkpt>
      <trkpt lat="50.75285" lon="3.76149">
        <ele>86</ele>
        <time>2015-12-13T07:08:35Z</time>
      </trkpt>
      <trkpt lat="50.75287" lon="3.76147">
        <ele>86</ele>
        <time>2015-12-13T07:08:36Z</time>
      </trkpt>
      <trkpt lat="50.75289" lon="3.76145">
        <ele>86</ele>
        <time>2015-12-13T07:08:37Z</time>
      </trkpt>
      <trkpt lat="50.7529" lon="3.76142">
        <ele>86</ele>
        <time>2015-12-13T07:08:38Z</time>
      </trkpt>
      <trkpt lat="50.75292" lon="3.7614">
        <ele>86</ele>
        <time>2015-12-13T07:08:39Z</time>
      </trkpt>
      <trkpt lat="50.75293" lon="3.76138">
        <ele>86</ele>
        <time>2015-12-13T07:08:40Z</time>
      </trkpt>
      <trkpt lat="50.75295" lon="3.76136">
        <ele>86</ele>
        <time>2015-12-13T07:08:41Z</time>
      </trkpt>
      <trkpt lat="50.75296" lon="3.76134">
        <ele>86</ele>
        <time>2015-12-13T07:08:42Z</time>
      </trkpt>
      <trkpt lat="50.75298" lon="3.76132">
        <ele>86</ele>
        <time>2015-12-13T07:08:43Z</time>
      </trkpt>
      <trkpt lat="50.75299" lon="3.7613">
        <ele>86</ele>
        <time>2015-12-13T07:08:44Z</time>
      </trkpt>
      <trkpt lat="50.753" lon="3.76128">
        <ele>86</ele>
        <time>2015-12-13T07:08:45Z</time>
      </trkpt>
      <trkpt lat="50.75302" lon="3.76125">
        <ele>86</ele>
        <time>2015-12-13T07:08:46Z</time>
      </trkpt>
      <trkpt lat="50.75303" lon="3.76123">
        <ele>86</ele>
        <time>2015-12-13T07:08:47Z</time>
      </trkpt>
      <trkpt lat="50.75305" lon="3.76121">
        <ele>86</ele>
        <time>2015-12-13T07:08:48Z</time>
      </trkpt>
      <trkpt lat="50.75306" lon="3.76119">
        <ele>86</ele>
        <time>2015-12-13T07:08:49Z</time>
      </trkpt>
      <trkpt lat="50.75308" lon="3.76117">
        <ele>86</ele>
        <time>2015-12-13T07:08:50Z</time>
      </trkpt>
      <trkpt lat="50.75309" lon="3.76115">
        <ele>86</ele>
        <time>2015-12-13T07:08:51Z</time>
      </trkpt>
      <trkpt lat="50.75311" lon="3.76113">
        <ele>87.4</ele>
        <time>2015-12-13T07:08:52Z</time>
      </trkpt>
      <trkpt lat="50.75312" lon="3.76111">
        <ele>88</ele>
        <time>2015-12-13T07:08:53Z</time>
      </trkpt>
      <trkpt lat="50.75314" lon="3.76109">
        <ele>88</ele>
        <time>2015-12-13T07:08:54Z</time>
      </trkpt>
      <trkpt lat="50.75315" lon="3.76106">
        <ele>88</ele>
        <time>2015-12-13T07:08:55Z</time>
      </trkpt>
      <trkpt lat="50.75316" lon="3.76104">
        <ele>88</ele>
        <time>2015-12-13T07:08:56Z</time>
      </trkpt>
      <trkpt lat="50.75318" lon="3.76102">
        <ele>88</ele>
        <time>2015-12-13T07:08:57Z</time>
      </trkpt>
      <trkpt lat="50.75319" lon="3.761">
        <ele>88</ele>
        <time>2015-12-13T07:08:58Z</time>
      </trkpt>
      <trkpt lat="50.75321" lon="3.76098">
        <ele>87.3</ele>
        <time>2015-12-13T07:08:59Z</time>
      </trkpt>
      <trkpt lat="50.75322" lon="3.76095">
        <ele>87</ele>
        <time>2015-12-13T07:09:00Z</time>
      </trkpt>
      <trkpt lat="50.75323" lon="3.76093">
        <ele>87.7</ele>
        <time>2015-12-13T07:09:01Z</time>
      </trkpt>
      <trkpt lat="50.75325" lon="3.76091">
        <ele>88</ele>
        <time>2015-12-13T07:09:02Z</time>
      </trkpt>
      <trkpt lat="50.75326" lon="3.76088">
        <ele>88</ele>
        <time>2015-12-13T07:09:03Z</time>
      </trkpt>
      <trkpt lat="50.75328" lon="3.76086">
        <ele>88</ele>
        <time>2015-12-13T07:09:04Z</time>
      </trkpt>
      <trkpt lat="50.75329" lon="3.76084">
        <ele>88</ele>
        <time>2015-12-13T07:09:05Z</time>
      </trkpt>
      <trkpt lat="50.7533" lon="3.76081">
        <ele>88</ele>
        <time>2015-12-13T07:09:06Z</time>
      </trkpt>
      <trkpt lat="50.75332" lon="3.76079">
        <ele>88</ele>
        <time>2015-12-13T07:09:07Z</time>
      </trkpt>
      <trkpt lat="50.75333" lon="3.76077">
        <ele>88</ele>
        <time>2015-12-13T07:09:08Z</time>
      </trkpt>
      <trkpt lat="50.75335" lon="3.76074">
        <ele>88</ele>
        <time>2015-12-13T07:09:09Z</time>
      </trkpt>
      <trkpt lat="50.75336" lon="3.76072">
        <ele>88</ele>
        <time>2015-12-13T07:09:10Z</time>
      </trkpt>
      <trkpt lat="50.75338" lon="3.7607">
        <ele>88.7</ele>
        <time>2015-12-13T07:09:11Z</time>
      </trkpt>
      <trkpt lat="50.7534" lon="3.76068">
        <ele>89</ele>
        <time>2015-12-13T07:09:12Z</time>
      </trkpt>
      <trkpt lat="50.75341" lon="3.76065">
        <ele>89</ele>
        <time>2015-12-13T07:09:13Z</time>
      </trkpt>
      <trkpt lat="50.75342" lon="3.76063">
        <ele>89</ele>
        <time>2015-12-13T07:09:14Z</time>
      </trkpt>
      <trkpt lat="50.75344" lon="3.76061">
        <ele>89</ele>
        <time>2015-12-13T07:09:15Z</time>
      </trkpt>
      <trkpt lat="50.75345" lon="3.76059">
        <ele>89</ele>
        <time>2015-12-13T07:09:16Z</time>
      </trkpt>
      <trkpt lat="50.75347" lon="3.76056">
        <ele>89</ele>
        <time>2015-12-13T07:09:17Z</time>
      </trkpt>
      <trkpt lat="50.75348" lon="3.76054">
        <ele>89</ele>
        <time>2015-12-13T07:09:18Z</time>
      </trkpt>
      <trkpt lat="50.7535" lon="3.76052">
        <ele>89</ele>
        <time>2015-12-13T07:09:19Z</time>
      </trkpt>
      <trkpt lat="50.75351" lon="3.7605">
        <ele>89</ele>
        <time>2015-12-13T07:09:20Z</time>
      </trkpt>
      <trkpt lat="50.75353" lon="3.76048">
        <ele>89.7</ele>
        <time>2015-12-13T07:09:21Z</time>
      </trkpt>
      <trkpt lat="50.75354" lon="3.76046">
        <ele>90</ele>
        <time>2015-12-13T07:09:22Z</time>
      </trkpt>
      <trkpt lat="50.75356" lon="3.76044">
        <ele>90</ele>
        <time>2015-12-13T07:09:23Z</time>
      </trkpt>
      <trkpt lat="50.75357" lon="3.76041">
        <ele>90</ele>
        <time>2015-12-13T07:09:24Z</time>
      </trkpt>
      <trkpt lat="50.75358" lon="3.76038">
        <ele>90</ele>
        <time>2015-12-13T07:09:25Z</time>
      </trkpt>
      <trkpt lat="50.7536" lon="3.76036">
        <ele>90</ele>
        <time>2015-12-13T07:09:26Z</time>
      </trkpt>
      <trkpt lat="50.75361" lon="3.76034">
        <ele>90</ele>
        <time>2015-12-13T07:09:27Z</time>
      </trkpt>
      <trkpt lat="50.75363" lon="3.76031">
        <ele>90</ele>
        <time>2015-12-13T07:09:28Z</time>
      </trkpt>
      <trkpt lat="50.75364" lon="3.76029">
        <ele>90</ele>
        <time>2015-12-13T07:09:29Z</time>
      </trkpt>
      <trkpt lat="50.75365" lon="3.76027">
        <ele>90</ele>
        <time>2015-12-13T07:09:30Z</time>
      </trkpt>
      <trkpt lat="50.75367" lon="3.76025">
        <ele>90.7</ele>
        <time>2015-12-13T07:09:31Z</time>
      </trkpt>
      <trkpt lat="50.75368" lon="3.76022">
        <ele>91</ele>
        <time>2015-12-13T07:09:32Z</time>
      </trkpt>
      <trkpt lat="50.7537" lon="3.7602">
        <ele>91</ele>
        <time>2015-12-13T07:09:33Z</time>
      </trkpt>
      <trkpt lat="50.75371" lon="3.76019">
        <ele>91</ele>
        <time>2015-12-13T07:09:34Z</time>
      </trkpt>
      <trkpt lat="50.75372" lon="3.76016">
        <ele>91</ele>
        <time>2015-12-13T07:09:35Z</time>
      </trkpt>
      <trkpt lat="50.75374" lon="3.76014">
        <ele>91</ele>
        <time>2015-12-13T07:09:36Z</time>
      </trkpt>
      <trkpt lat="50.75375" lon="3.76012">
        <ele>91</ele>
        <time>2015-12-13T07:09:37Z</time>
      </trkpt>
      <trkpt lat="50.75377" lon="3.76009">
        <ele>91</ele>
        <time>2015-12-13T07:09:38Z</time>
      </trkpt>
      <trkpt lat="50.75378" lon="3.76007">
        <ele>91</ele>
        <time>2015-12-13T07:09:39Z</time>
      </trkpt>
      <trkpt lat="50.75379" lon="3.76005">
        <ele>91</ele>
        <time>2015-12-13T07:09:40Z</time>
      </trkpt>
      <trkpt lat="50.75382" lon="3.76001">
        <ele>93</ele>
        <time>2015-12-13T07:09:42Z</time>
      </trkpt>
      <trkpt lat="50.75384" lon="3.75997">
        <ele>93</ele>
        <time>2015-12-13T07:09:44Z</time>
      </trkpt>
      <trkpt lat="50.75385" lon="3.75995">
        <ele>93</ele>
        <time>2015-12-13T07:09:45Z</time>
      </trkpt>
      <trkpt lat="50.75387" lon="3.75993">
        <ele>93</ele>
        <time>2015-12-13T07:09:46Z</time>
      </trkpt>
      <trkpt lat="50.75388" lon="3.75991">
        <ele>93</ele>
        <time>2015-12-13T07:09:47Z</time>
      </trkpt>
      <trkpt lat="50.7539" lon="3.75989">
        <ele>93</ele>
        <time>2015-12-13T07:09:48Z</time>
      </trkpt>
      <trkpt lat="50.75391" lon="3.75986">
        <ele>93</ele>
        <time>2015-12-13T07:09:49Z</time>
      </trkpt>
      <trkpt lat="50.75392" lon="3.75984">
        <ele>93</ele>
        <time>2015-12-13T07:09:50Z</time>
      </trkpt>
      <trkpt lat="50.75394" lon="3.75982">
        <ele>93.7</ele>
        <time>2015-12-13T07:09:51Z</time>
      </trkpt>
      <trkpt lat="50.75395" lon="3.7598">
        <ele>94</ele>
        <time>2015-12-13T07:09:52Z</time>
      </trkpt>
      <trkpt lat="50.75397" lon="3.75977">
        <ele>94</ele>
        <time>2015-12-13T07:09:53Z</time>
      </trkpt>
      <trkpt lat="50.75398" lon="3.75975">
        <ele>94</ele>
        <time>2015-12-13T07:09:54Z</time>
      </trkpt>
      <trkpt lat="50.754" lon="3.75973">
        <ele>94</ele>
        <time>2015-12-13T07:09:55Z</time>
      </trkpt>
      <trkpt lat="50.75401" lon="3.7597">
        <ele>94</ele>
        <time>2015-12-13T07:09:56Z</time>
      </trkpt>
      <trkpt lat="50.75403" lon="3.75968">
        <ele>94</ele>
        <time>2015-12-13T07:09:57Z</time>
      </trkpt>
      <trkpt lat="50.75404" lon="3.75965">
        <ele>94</ele>
        <time>2015-12-13T07:09:58Z</time>
      </trkpt>
      <trkpt lat="50.75406" lon="3.75963">
        <ele>94</ele>
        <time>2015-12-13T07:09:59Z</time>
      </trkpt>
      <trkpt lat="50.75407" lon="3.75961">
        <ele>94</ele>
        <time>2015-12-13T07:10:00Z</time>
      </trkpt>
      <trkpt lat="50.75408" lon="3.75959">
        <ele>94.5</ele>
        <time>2015-12-13T07:10:01Z</time>
      </trkpt>
      <trkpt lat="50.7541" lon="3.75957">
        <ele>95</ele>
        <time>2015-12-13T07:10:02Z</time>
      </trkpt>
      <trkpt lat="50.75411" lon="3.75954">
        <ele>95</ele>
        <time>2015-12-13T07:10:03Z</time>
      </trkpt>
      <trkpt lat="50.75413" lon="3.75952">
        <ele>95</ele>
        <time>2015-12-13T07:10:04Z</time>
      </trkpt>
      <trkpt lat="50.75414" lon="3.7595">
        <ele>95</ele>
        <time>2015-12-13T07:10:05Z</time>
      </trkpt>
      <trkpt lat="50.75415" lon="3.75948">
        <ele>95</ele>
        <time>2015-12-13T07:10:06Z</time>
      </trkpt>
      <trkpt lat="50.75417" lon="3.75945">
        <ele>95</ele>
        <time>2015-12-13T07:10:07Z</time>
      </trkpt>
      <trkpt lat="50.75418" lon="3.75943">
        <ele>95</ele>
        <time>2015-12-13T07:10:08Z</time>
      </trkpt>
      <trkpt lat="50.7542" lon="3.75941">
        <ele>95</ele>
        <time>2015-12-13T07:10:09Z</time>
      </trkpt>
      <trkpt lat="50.75421" lon="3.75939">
        <ele>95</ele>
        <time>2015-12-13T07:10:10Z</time>
      </trkpt>
      <trkpt lat="50.75422" lon="3.75936">
        <ele>96.4</ele>
        <time>2015-12-13T07:10:11Z</time>
      </trkpt>
      <trkpt lat="50.75424" lon="3.75934">
        <ele>97</ele>
        <time>2015-12-13T07:10:12Z</time>
      </trkpt>
      <trkpt lat="50.75425" lon="3.75931">
        <ele>97</ele>
        <time>2015-12-13T07:10:13Z</time>
      </trkpt>
      <trkpt lat="50.75427" lon="3.75929">
        <ele>97</ele>
        <time>2015-12-13T07:10:14Z</time>
      </trkpt>
      <trkpt lat="50.75428" lon="3.75927">
        <ele>97</ele>
        <time>2015-12-13T07:10:15Z</time>
      </trkpt>
      <trkpt lat="50.7543" lon="3.75925">
        <ele>97</ele>
        <time>2015-12-13T07:10:16Z</time>
      </trkpt>
      <trkpt lat="50.75431" lon="3.75923">
        <ele>97</ele>
        <time>2015-12-13T07:10:17Z</time>
      </trkpt>
      <trkpt lat="50.75433" lon="3.75921">
        <ele>97</ele>
        <time>2015-12-13T07:10:18Z</time>
      </trkpt>
      <trkpt lat="50.75434" lon="3.75919">
        <ele>97</ele>
        <time>2015-12-13T07:10:19Z</time>
      </trkpt>
      <trkpt lat="50.75436" lon="3.75916">
        <ele>97</ele>
        <time>2015-12-13T07:10:20Z</time>
      </trkpt>
      <trkpt lat="50.75437" lon="3.75914">
        <ele>97</ele>
        <time>2015-12-13T07:10:21Z</time>
      </trkpt>
      <trkpt lat="50.75439" lon="3.75912">
        <ele>97</ele>
        <time>2015-12-13T07:10:22Z</time>
      </trkpt>
      <trkpt lat="50.7544" lon="3.7591">
        <ele>97</ele>
        <time>2015-12-13T07:10:23Z</time>
      </trkpt>
      <trkpt lat="50.75441" lon="3.75908">
        <ele>97</ele>
        <time>2015-12-13T07:10:24Z</time>
      </trkpt>
      <trkpt lat="50.75443" lon="3.75905">
        <ele>97</ele>
        <time>2015-12-13T07:10:25Z</time>
      </trkpt>
      <trkpt lat="50.75444" lon="3.75903">
        <ele>97</ele>
        <time>2015-12-13T07:10:26Z</time>
      </trkpt>
      <trkpt lat="50.75445" lon="3.75901">
        <ele>97</ele>
        <time>2015-12-13T07:10:27Z</time>
      </trkpt>
      <trkpt lat="50.75447" lon="3.75899">
        <ele>97</ele>
        <time>2015-12-13T07:10:28Z</time>
      </trkpt>
      <trkpt lat="50.75448" lon="3.75897">
        <ele>97</ele>
        <time>2015-12-13T07:10:29Z</time>
      </trkpt>
      <trkpt lat="50.7545" lon="3.75895">
        <ele>97</ele>
        <time>2015-12-13T07:10:30Z</time>
      </trkpt>
      <trkpt lat="50.75451" lon="3.75893">
        <ele>98.4</ele>
        <time>2015-12-13T07:10:31Z</time>
      </trkpt>
      <trkpt lat="50.75452" lon="3.7589">
        <ele>99</ele>
        <time>2015-12-13T07:10:32Z</time>
      </trkpt>
      <trkpt lat="50.75454" lon="3.75888">
        <ele>99</ele>
        <time>2015-12-13T07:10:33Z</time>
      </trkpt>
      <trkpt lat="50.75455" lon="3.75886">
        <ele>99</ele>
        <time>2015-12-13T07:10:34Z</time>
      </trkpt>
      <trkpt lat="50.75457" lon="3.75883">
        <ele>99</ele>
        <time>2015-12-13T07:10:35Z</time>
      </trkpt>
      <trkpt lat="50.75458" lon="3.75881">
        <ele>99</ele>
        <time>2015-12-13T07:10:36Z</time>
      </trkpt>
      <trkpt lat="50.7546" lon="3.75879">
        <ele>99</ele>
        <time>2015-12-13T07:10:37Z</time>
      </trkpt>
      <trkpt lat="50.75461" lon="3.75876">
        <ele>99</ele>
        <time>2015-12-13T07:10:38Z</time>
      </trkpt>
      <trkpt lat="50.75462" lon="3.75874">
        <ele>99</ele>
        <time>2015-12-13T07:10:39Z</time>
      </trkpt>
      <trkpt lat="50.75464" lon="3.75872">
        <ele>99</ele>
        <time>2015-12-13T07:10:40Z</time>
      </trkpt>
      <trkpt lat="50.75465" lon="3.7587">
        <ele>99.7</ele>
        <time>2015-12-13T07:10:41Z</time>
      </trkpt>
      <trkpt lat="50.75466" lon="3.75868">
        <ele>100</ele>
        <time>2015-12-13T07:10:42Z</time>
      </trkpt>
      <trkpt lat="50.75468" lon="3.75866">
        <ele>100</ele>
        <time>2015-12-13T07:10:43Z</time>
      </trkpt>
      <trkpt lat="50.75469" lon="3.75863">
        <ele>100</ele>
        <time>2015-12-13T07:10:44Z</time>
      </trkpt>
      <trkpt lat="50.7547" lon="3.75861">
        <ele>100</ele>
        <time>2015-12-13T07:10:45Z</time>
      </trkpt>
      <trkpt lat="50.75472" lon="3.75859">
        <ele>100</ele>
        <time>2015-12-13T07:10:46Z</time>
      </trkpt>
      <trkpt lat="50.75473" lon="3.75857">
        <ele>100</ele>
        <time>2015-12-13T07:10:47Z</time>
      </trkpt>
      <trkpt lat="50.75474" lon="3.75855">
        <ele>100</ele>
        <time>2015-12-13T07:10:48Z</time>
      </trkpt>
      <trkpt lat="50.75476" lon="3.75852">
        <ele>100</ele>
        <time>2015-12-13T07:10:49Z</time>
      </trkpt>
      <trkpt lat="50.75477" lon="3.7585">
        <ele>100</ele>
        <time>2015-12-13T07:10:50Z</time>
      </trkpt>
      <trkpt lat="50.75479" lon="3.75846">
        <ele>101</ele>
        <time>2015-12-13T07:10:52Z</time>
      </trkpt>
      <trkpt lat="50.75482" lon="3.75842">
        <ele>101</ele>
        <time>2015-12-13T07:10:54Z</time>
      </trkpt>
      <trkpt lat="50.75483" lon="3.7584">
        <ele>101</ele>
        <time>2015-12-13T07:10:55Z</time>
      </trkpt>
      <trkpt lat="50.75484" lon="3.75838">
        <ele>101</ele>
        <time>2015-12-13T07:10:56Z</time>
      </trkpt>
      <trkpt lat="50.75485" lon="3.75836">
        <ele>101</ele>
        <time>2015-12-13T07:10:57Z</time>
      </trkpt>
      <trkpt lat="50.75487" lon="3.75833">
        <ele>101</ele>
        <time>2015-12-13T07:10:58Z</time>
      </trkpt>
      <trkpt lat="50.75488" lon="3.75831">
        <ele>101</ele>
        <time>2015-12-13T07:10:59Z</time>
      </trkpt>
      <trkpt lat="50.75489" lon="3.75829">
        <ele>101</ele>
        <time>2015-12-13T07:11:00Z</time>
      </trkpt>
      <trkpt lat="50.75491" lon="3.75827">
        <ele>102.4</ele>
        <time>2015-12-13T07:11:01Z</time>
      </trkpt>
      <trkpt lat="50.75492" lon="3.75825">
        <ele>103</ele>
        <time>2015-12-13T07:11:02Z</time>
      </trkpt>
      <trkpt lat="50.75493" lon="3.75822">
        <ele>103</ele>
        <time>2015-12-13T07:11:03Z</time>
      </trkpt>
      <trkpt lat="50.75494" lon="3.7582">
        <ele>103</ele>
        <time>2015-12-13T07:11:04Z</time>
      </trkpt>
      <trkpt lat="50.75496" lon="3.75817">
        <ele>103</ele>
        <time>2015-12-13T07:11:05Z</time>
      </trkpt>
      <trkpt lat="50.75497" lon="3.75815">
        <ele>103</ele>
        <time>2015-12-13T07:11:06Z</time>
      </trkpt>
      <trkpt lat="50.75498" lon="3.75813">
        <ele>103</ele>
        <time>2015-12-13T07:11:07Z</time>
      </trkpt>
      <trkpt lat="50.75501" lon="3.75809">
        <ele>103</ele>
        <time>2015-12-13T07:11:09Z</time>
      </trkpt>
      <trkpt lat="50.75503" lon="3.75805">
        <ele>103.5</ele>
        <time>2015-12-13T07:11:11Z</time>
      </trkpt>
      <trkpt lat="50.75505" lon="3.75803">
        <ele>104</ele>
        <time>2015-12-13T07:11:12Z</time>
      </trkpt>
      <trkpt lat="50.75507" lon="3.75798">
        <ele>104</ele>
        <time>2015-12-13T07:11:14Z</time>
      </trkpt>
      <trkpt lat="50.75508" lon="3.75796">
        <ele>104</ele>
        <time>2015-12-13T07:11:15Z</time>
      </trkpt>
      <trkpt lat="50.7551" lon="3.75793">
        <ele>104</ele>
        <time>2015-12-13T07:11:16Z</time>
      </trkpt>
      <trkpt lat="50.75511" lon="3.75791">
        <ele>104</ele>
        <time>2015-12-13T07:11:17Z</time>
      </trkpt>
      <trkpt lat="50.75512" lon="3.75788">
        <ele>104</ele>
        <time>2015-12-13T07:11:18Z</time>
      </trkpt>
      <trkpt lat="50.75513" lon="3.75786">
        <ele>104</ele>
        <time>2015-12-13T07:11:19Z</time>
      </trkpt>
      <trkpt lat="50.75514" lon="3.75784">
        <ele>104</ele>
        <time>2015-12-13T07:11:20Z</time>
      </trkpt>
      <trkpt lat="50.75516" lon="3.75781">
        <ele>104.7</ele>
        <time>2015-12-13T07:11:21Z</time>
      </trkpt>
      <trkpt lat="50.75517" lon="3.75779">
        <ele>105</ele>
        <time>2015-12-13T07:11:22Z</time>
      </trkpt>
      <trkpt lat="50.75518" lon="3.75776">
        <ele>105</ele>
        <time>2015-12-13T07:11:23Z</time>
      </trkpt>
      <trkpt lat="50.75519" lon="3.75774">
        <ele>105</ele>
        <time>2015-12-13T07:11:24Z</time>
      </trkpt>
      <trkpt lat="50.75521" lon="3.7577">
        <ele>105</ele>
        <time>2015-12-13T07:11:26Z</time>
      </trkpt>
      <trkpt lat="50.75522" lon="3.75767">
        <ele>105</ele>
        <time>2015-12-13T07:11:27Z</time>
      </trkpt>
      <trkpt lat="50.75523" lon="3.75765">
        <ele>105</ele>
        <time>2015-12-13T07:11:28Z</time>
      </trkpt>
      <trkpt lat="50.75524" lon="3.75763">
        <ele>105</ele>
        <time>2015-12-13T07:11:29Z</time>
      </trkpt>
      <trkpt lat="50.75526" lon="3.7576">
        <ele>105</ele>
        <time>2015-12-13T07:11:30Z</time>
      </trkpt>
      <trkpt lat="50.75527" lon="3.75758">
        <ele>106.4</ele>
        <time>2015-12-13T07:11:31Z</time>
      </trkpt>
      <trkpt lat="50.75528" lon="3.75755">
        <ele>107</ele>
        <time>2015-12-13T07:11:32Z</time>
      </trkpt>
      <trkpt lat="50.75529" lon="3.75752">
        <ele>107</ele>
        <time>2015-12-13T07:11:33Z</time>
      </trkpt>
      <trkpt lat="50.7553" lon="3.7575">
        <ele>107</ele>
        <time>2015-12-13T07:11:34Z</time>
      </trkpt>
      <trkpt lat="50.75531" lon="3.75747">
        <ele>107</ele>
        <time>2015-12-13T07:11:35Z</time>
      </trkpt>
      <trkpt lat="50.75533" lon="3.75745">
        <ele>107</ele>
        <time>2015-12-13T07:11:36Z</time>
      </trkpt>
      <trkpt lat="50.75534" lon="3.75742">
        <ele>107</ele>
        <time>2015-12-13T07:11:37Z</time>
      </trkpt>
      <trkpt lat="50.75535" lon="3.7574">
        <ele>107</ele>
        <time>2015-12-13T07:11:38Z</time>
      </trkpt>
      <trkpt lat="50.75536" lon="3.75737">
        <ele>107</ele>
        <time>2015-12-13T07:11:39Z</time>
      </trkpt>
      <trkpt lat="50.75538" lon="3.75735">
        <ele>107</ele>
        <time>2015-12-13T07:11:40Z</time>
      </trkpt>
      <trkpt lat="50.75539" lon="3.75732">
        <ele>108.4</ele>
        <time>2015-12-13T07:11:41Z</time>
      </trkpt>
      <trkpt lat="50.7554" lon="3.7573">
        <ele>109</ele>
        <time>2015-12-13T07:11:42Z</time>
      </trkpt>
      <trkpt lat="50.75541" lon="3.75727">
        <ele>109</ele>
        <time>2015-12-13T07:11:43Z</time>
      </trkpt>
      <trkpt lat="50.75543" lon="3.75725">
        <ele>109</ele>
        <time>2015-12-13T07:11:44Z</time>
      </trkpt>
      <trkpt lat="50.75544" lon="3.75722">
        <ele>109</ele>
        <time>2015-12-13T07:11:45Z</time>
      </trkpt>
      <trkpt lat="50.75545" lon="3.7572">
        <ele>109</ele>
        <time>2015-12-13T07:11:46Z</time>
      </trkpt>
      <trkpt lat="50.75546" lon="3.75718">
        <ele>109</ele>
        <time>2015-12-13T07:11:47Z</time>
      </trkpt>
      <trkpt lat="50.75547" lon="3.75715">
        <ele>109</ele>
        <time>2015-12-13T07:11:48Z</time>
      </trkpt>
      <trkpt lat="50.75549" lon="3.75711">
        <ele>109</ele>
        <time>2015-12-13T07:11:50Z</time>
      </trkpt>
      <trkpt lat="50.75551" lon="3.75709">
        <ele>111.7</ele>
        <time>2015-12-13T07:11:51Z</time>
      </trkpt>
      <trkpt lat="50.75552" lon="3.75706">
        <ele>113</ele>
        <time>2015-12-13T07:11:52Z</time>
      </trkpt>
      <trkpt lat="50.75553" lon="3.75704">
        <ele>113</ele>
        <time>2015-12-13T07:11:53Z</time>
      </trkpt>
      <trkpt lat="50.75554" lon="3.75702">
        <ele>113</ele>
        <time>2015-12-13T07:11:54Z</time>
      </trkpt>
      <trkpt lat="50.75556" lon="3.757">
        <ele>113</ele>
        <time>2015-12-13T07:11:55Z</time>
      </trkpt>
      <trkpt lat="50.75557" lon="3.75697">
        <ele>113.5</ele>
        <time>2015-12-13T07:11:56Z</time>
      </trkpt>
      <trkpt lat="50.75558" lon="3.75695">
        <ele>114</ele>
        <time>2015-12-13T07:11:57Z</time>
      </trkpt>
      <trkpt lat="50.75559" lon="3.75693">
        <ele>114</ele>
        <time>2015-12-13T07:11:58Z</time>
      </trkpt>
      <trkpt lat="50.7556" lon="3.7569">
        <ele>114</ele>
        <time>2015-12-13T07:11:59Z</time>
      </trkpt>
      <trkpt lat="50.75561" lon="3.75688">
        <ele>114</ele>
        <time>2015-12-13T07:12:00Z</time>
      </trkpt>
      <trkpt lat="50.75563" lon="3.75686">
        <ele>114.7</ele>
        <time>2015-12-13T07:12:01Z</time>
      </trkpt>
      <trkpt lat="50.75564" lon="3.75684">
        <ele>115</ele>
        <time>2015-12-13T07:12:02Z</time>
      </trkpt>
      <trkpt lat="50.75565" lon="3.75681">
        <ele>115</ele>
        <time>2015-12-13T07:12:03Z</time>
      </trkpt>
      <trkpt lat="50.75567" lon="3.75679">
        <ele>115</ele>
        <time>2015-12-13T07:12:04Z</time>
      </trkpt>
      <trkpt lat="50.75568" lon="3.75676">
        <ele>115</ele>
        <time>2015-12-13T07:12:05Z</time>
      </trkpt>
      <trkpt lat="50.75569" lon="3.75674">
        <ele>115.7</ele>
        <time>2015-12-13T07:12:06Z</time>
      </trkpt>
      <trkpt lat="50.75571" lon="3.75671">
        <ele>116</ele>
        <time>2015-12-13T07:12:07Z</time>
      </trkpt>
      <trkpt lat="50.75572" lon="3.75669">
        <ele>116</ele>
        <time>2015-12-13T07:12:08Z</time>
      </trkpt>
      <trkpt lat="50.75573" lon="3.75666">
        <ele>116</ele>
        <time>2015-12-13T07:12:09Z</time>
      </trkpt>
      <trkpt lat="50.75574" lon="3.75664">
        <ele>116</ele>
        <time>2015-12-13T07:12:10Z</time>
      </trkpt>
      <trkpt lat="50.75575" lon="3.75661">
        <ele>116</ele>
        <time>2015-12-13T07:12:11Z</time>
      </trkpt>
      <trkpt lat="50.75576" lon="3.75658">
        <ele>116</ele>
        <time>2015-12-13T07:12:12Z</time>
      </trkpt>
      <trkpt lat="50.75578" lon="3.75654">
        <ele>116</ele>
        <time>2015-12-13T07:12:13Z</time>
      </trkpt>
      <trkpt lat="50.75579" lon="3.75652">
        <ele>116</ele>
        <time>2015-12-13T07:12:14Z</time>
      </trkpt>
      <trkpt lat="50.75581" lon="3.75652">
        <ele>116</ele>
        <time>2015-12-13T07:12:15Z</time>
      </trkpt>
      <trkpt lat="50.75582" lon="3.75654">
        <ele>116</ele>
        <time>2015-12-13T07:12:18Z</time>
      </trkpt>
      <trkpt lat="50.75583" lon="3.75658">
        <ele>114</ele>
        <time>2015-12-13T07:12:30Z</time>
      </trkpt>
      <trkpt lat="50.75584" lon="3.75664">
        <ele>115</ele>
        <time>2015-12-13T07:12:32Z</time>
      </trkpt>
      <trkpt lat="50.75585" lon="3.75667">
        <ele>115</ele>
        <time>2015-12-13T07:12:33Z</time>
      </trkpt>
      <trkpt lat="50.75586" lon="3.7567">
        <ele>115</ele>
        <time>2015-12-13T07:12:34Z</time>
      </trkpt>
      <trkpt lat="50.75587" lon="3.75673">
        <ele>115</ele>
        <time>2015-12-13T07:12:35Z</time>
      </trkpt>
      <trkpt lat="50.75588" lon="3.75676">
        <ele>115</ele>
        <time>2015-12-13T07:12:36Z</time>
      </trkpt>
      <trkpt lat="50.75589" lon="3.75679">
        <ele>115</ele>
        <time>2015-12-13T07:12:37Z</time>
      </trkpt>
      <trkpt lat="50.75591" lon="3.75681">
        <ele>115</ele>
        <time>2015-12-13T07:12:38Z</time>
      </trkpt>
      <trkpt lat="50.75592" lon="3.75686">
        <ele>115</ele>
        <time>2015-12-13T07:12:40Z</time>
      </trkpt>
      <trkpt lat="50.75593" lon="3.75689">
        <ele>114</ele>
        <time>2015-12-13T07:12:42Z</time>
      </trkpt>
      <trkpt lat="50.75595" lon="3.75692">
        <ele>114</ele>
        <time>2015-12-13T07:12:44Z</time>
      </trkpt>
      <trkpt lat="50.75596" lon="3.75696">
        <ele>114</ele>
        <time>2015-12-13T07:12:46Z</time>
      </trkpt>
      <trkpt lat="50.75597" lon="3.757">
        <ele>114</ele>
        <time>2015-12-13T07:12:48Z</time>
      </trkpt>
      <trkpt lat="50.75598" lon="3.75703">
        <ele>114</ele>
        <time>2015-12-13T07:12:50Z</time>
      </trkpt>
      <trkpt lat="50.756" lon="3.75707">
        <ele>114</ele>
        <time>2015-12-13T07:12:52Z</time>
      </trkpt>
      <trkpt lat="50.756" lon="3.75711">
        <ele>114</ele>
        <time>2015-12-13T07:12:53Z</time>
      </trkpt>
      <trkpt lat="50.75601" lon="3.75714">
        <ele>114</ele>
        <time>2015-12-13T07:12:54Z</time>
      </trkpt>
      <trkpt lat="50.75602" lon="3.75717">
        <ele>114</ele>
        <time>2015-12-13T07:12:55Z</time>
      </trkpt>
      <trkpt lat="50.75603" lon="3.7572">
        <ele>114</ele>
        <time>2015-12-13T07:12:56Z</time>
      </trkpt>
      <trkpt lat="50.75605" lon="3.75723">
        <ele>114</ele>
        <time>2015-12-13T07:12:57Z</time>
      </trkpt>
      <trkpt lat="50.75606" lon="3.75726">
        <ele>114</ele>
        <time>2015-12-13T07:12:58Z</time>
      </trkpt>
      <trkpt lat="50.75607" lon="3.75729">
        <ele>114</ele>
        <time>2015-12-13T07:12:59Z</time>
      </trkpt>
      <trkpt lat="50.75608" lon="3.75733">
        <ele>114</ele>
        <time>2015-12-13T07:13:00Z</time>
      </trkpt>
      <trkpt lat="50.7561" lon="3.75736">
        <ele>113.3</ele>
        <time>2015-12-13T07:13:01Z</time>
      </trkpt>
      <trkpt lat="50.75611" lon="3.75739">
        <ele>113</ele>
        <time>2015-12-13T07:13:02Z</time>
      </trkpt>
      <trkpt lat="50.75613" lon="3.75742">
        <ele>113</ele>
        <time>2015-12-13T07:13:03Z</time>
      </trkpt>
      <trkpt lat="50.75614" lon="3.75745">
        <ele>113</ele>
        <time>2015-12-13T07:13:04Z</time>
      </trkpt>
      <trkpt lat="50.75616" lon="3.75748">
        <ele>113</ele>
        <time>2015-12-13T07:13:05Z</time>
      </trkpt>
      <trkpt lat="50.75618" lon="3.75752">
        <ele>113</ele>
        <time>2015-12-13T07:13:06Z</time>
      </trkpt>
      <trkpt lat="50.75619" lon="3.75755">
        <ele>113</ele>
        <time>2015-12-13T07:13:07Z</time>
      </trkpt>
      <trkpt lat="50.7562" lon="3.75759">
        <ele>113</ele>
        <time>2015-12-13T07:13:08Z</time>
      </trkpt>
      <trkpt lat="50.75621" lon="3.75762">
        <ele>113</ele>
        <time>2015-12-13T07:13:09Z</time>
      </trkpt>
      <trkpt lat="50.75622" lon="3.75765">
        <ele>113</ele>
        <time>2015-12-13T07:13:10Z</time>
      </trkpt>
      <trkpt lat="50.75623" lon="3.75768">
        <ele>113</ele>
        <time>2015-12-13T07:13:11Z</time>
      </trkpt>
      <trkpt lat="50.75625" lon="3.75772">
        <ele>113</ele>
        <time>2015-12-13T07:13:12Z</time>
      </trkpt>
      <trkpt lat="50.75626" lon="3.75775">
        <ele>113</ele>
        <time>2015-12-13T07:13:13Z</time>
      </trkpt>
      <trkpt lat="50.75628" lon="3.75778">
        <ele>113</ele>
        <time>2015-12-13T07:13:14Z</time>
      </trkpt>
      <trkpt lat="50.75629" lon="3.75782">
        <ele>113</ele>
        <time>2015-12-13T07:13:15Z</time>
      </trkpt>
      <trkpt lat="50.75631" lon="3.75785">
        <ele>113</ele>
        <time>2015-12-13T07:13:16Z</time>
      </trkpt>
      <trkpt lat="50.75632" lon="3.75788">
        <ele>113</ele>
        <time>2015-12-13T07:13:17Z</time>
      </trkpt>
      <trkpt lat="50.75634" lon="3.75792">
        <ele>113</ele>
        <time>2015-12-13T07:13:18Z</time>
      </trkpt>
      <trkpt lat="50.75635" lon="3.75795">
        <ele>113</ele>
        <time>2015-12-13T07:13:19Z</time>
      </trkpt>
      <trkpt lat="50.75637" lon="3.75799">
        <ele>113</ele>
        <time>2015-12-13T07:13:20Z</time>
      </trkpt>
      <trkpt lat="50.75638" lon="3.75802">
        <ele>112.3</ele>
        <time>2015-12-13T07:13:21Z</time>
      </trkpt>
      <trkpt lat="50.75639" lon="3.75806">
        <ele>112</ele>
        <time>2015-12-13T07:13:22Z</time>
      </trkpt>
      <trkpt lat="50.75641" lon="3.75809">
        <ele>112</ele>
        <time>2015-12-13T07:13:23Z</time>
      </trkpt>
      <trkpt lat="50.75643" lon="3.75812">
        <ele>112</ele>
        <time>2015-12-13T07:13:24Z</time>
      </trkpt>
      <trkpt lat="50.75644" lon="3.75815">
        <ele>112</ele>
        <time>2015-12-13T07:13:25Z</time>
      </trkpt>
      <trkpt lat="50.75646" lon="3.75819">
        <ele>112</ele>
        <time>2015-12-13T07:13:26Z</time>
      </trkpt>
      <trkpt lat="50.75647" lon="3.75822">
        <ele>112</ele>
        <time>2015-12-13T07:13:27Z</time>
      </trkpt>
      <trkpt lat="50.75649" lon="3.75825">
        <ele>112</ele>
        <time>2015-12-13T07:13:28Z</time>
      </trkpt>
      <trkpt lat="50.7565" lon="3.75828">
        <ele>112</ele>
        <time>2015-12-13T07:13:29Z</time>
      </trkpt>
      <trkpt lat="50.75652" lon="3.75831">
        <ele>112</ele>
        <time>2015-12-13T07:13:30Z</time>
      </trkpt>
      <trkpt lat="50.75654" lon="3.75834">
        <ele>109.8</ele>
        <time>2015-12-13T07:13:31Z</time>
      </trkpt>
      <trkpt lat="50.75655" lon="3.75838">
        <ele>108</ele>
        <time>2015-12-13T07:13:32Z</time>
      </trkpt>
      <trkpt lat="50.75657" lon="3.75841">
        <ele>108</ele>
        <time>2015-12-13T07:13:33Z</time>
      </trkpt>
      <trkpt lat="50.75658" lon="3.75844">
        <ele>108</ele>
        <time>2015-12-13T07:13:34Z</time>
      </trkpt>
      <trkpt lat="50.7566" lon="3.75847">
        <ele>108</ele>
        <time>2015-12-13T07:13:35Z</time>
      </trkpt>
      <trkpt lat="50.75661" lon="3.75851">
        <ele>108</ele>
        <time>2015-12-13T07:13:36Z</time>
      </trkpt>
      <trkpt lat="50.75663" lon="3.75854">
        <ele>108</ele>
        <time>2015-12-13T07:13:37Z</time>
      </trkpt>
      <trkpt lat="50.75664" lon="3.75857">
        <ele>108</ele>
        <time>2015-12-13T07:13:38Z</time>
      </trkpt>
      <trkpt lat="50.75666" lon="3.7586">
        <ele>108</ele>
        <time>2015-12-13T07:13:39Z</time>
      </trkpt>
      <trkpt lat="50.75668" lon="3.75864">
        <ele>108</ele>
        <time>2015-12-13T07:13:40Z</time>
      </trkpt>
      <trkpt lat="50.75669" lon="3.75867">
        <ele>108</ele>
        <time>2015-12-13T07:13:41Z</time>
      </trkpt>
      <trkpt lat="50.75671" lon="3.7587">
        <ele>108</ele>
        <time>2015-12-13T07:13:42Z</time>
      </trkpt>
      <trkpt lat="50.75672" lon="3.75873">
        <ele>108</ele>
        <time>2015-12-13T07:13:43Z</time>
      </trkpt>
      <trkpt lat="50.75674" lon="3.75876">
        <ele>108</ele>
        <time>2015-12-13T07:13:44Z</time>
      </trkpt>
      <trkpt lat="50.75675" lon="3.75879">
        <ele>108</ele>
        <time>2015-12-13T07:13:45Z</time>
      </trkpt>
      <trkpt lat="50.75677" lon="3.75882">
        <ele>108</ele>
        <time>2015-12-13T07:13:46Z</time>
      </trkpt>
      <trkpt lat="50.75678" lon="3.75885">
        <ele>108</ele>
        <time>2015-12-13T07:13:47Z</time>
      </trkpt>
      <trkpt lat="50.75679" lon="3.75888">
        <ele>108</ele>
        <time>2015-12-13T07:13:48Z</time>
      </trkpt>
      <trkpt lat="50.7568" lon="3.75891">
        <ele>108</ele>
        <time>2015-12-13T07:13:49Z</time>
      </trkpt>
      <trkpt lat="50.7568" lon="3.75895">
        <ele>107.3</ele>
        <time>2015-12-13T07:13:51Z</time>
      </trkpt>
      <trkpt lat="50.7568" lon="3.75898">
        <ele>107</ele>
        <time>2015-12-13T07:13:53Z</time>
      </trkpt>
      <trkpt lat="50.7568" lon="3.75894">
        <ele>107</ele>
        <time>2015-12-13T07:14:22Z</time>
      </trkpt>
      <trkpt lat="50.75682" lon="3.75893">
        <ele>107</ele>
        <time>2015-12-13T07:14:24Z</time>
      </trkpt>
      <trkpt lat="50.75684" lon="3.75893">
        <ele>107</ele>
        <time>2015-12-13T07:14:26Z</time>
      </trkpt>
      <trkpt lat="50.75687" lon="3.75896">
        <ele>107</ele>
        <time>2015-12-13T07:14:28Z</time>
      </trkpt>
      <trkpt lat="50.75688" lon="3.75898">
        <ele>107</ele>
        <time>2015-12-13T07:14:29Z</time>
      </trkpt>
      <trkpt lat="50.75689" lon="3.75901">
        <ele>107</ele>
        <time>2015-12-13T07:14:30Z</time>
      </trkpt>
      <trkpt lat="50.75691" lon="3.75905">
        <ele>107</ele>
        <time>2015-12-13T07:14:31Z</time>
      </trkpt>
      <trkpt lat="50.75692" lon="3.75908">
        <ele>107</ele>
        <time>2015-12-13T07:14:32Z</time>
      </trkpt>
      <trkpt lat="50.75693" lon="3.75912">
        <ele>107</ele>
        <time>2015-12-13T07:14:33Z</time>
      </trkpt>
      <trkpt lat="50.75694" lon="3.75915">
        <ele>107</ele>
        <time>2015-12-13T07:14:34Z</time>
      </trkpt>
      <trkpt lat="50.75695" lon="3.75918">
        <ele>107</ele>
        <time>2015-12-13T07:14:35Z</time>
      </trkpt>
      <trkpt lat="50.75696" lon="3.7592">
        <ele>107</ele>
        <time>2015-12-13T07:14:36Z</time>
      </trkpt>
      <trkpt lat="50.75698" lon="3.75923">
        <ele>107</ele>
        <time>2015-12-13T07:14:37Z</time>
      </trkpt>
      <trkpt lat="50.75699" lon="3.75926">
        <ele>107</ele>
        <time>2015-12-13T07:14:38Z</time>
      </trkpt>
      <trkpt lat="50.75701" lon="3.75929">
        <ele>107</ele>
        <time>2015-12-13T07:14:39Z</time>
      </trkpt>
      <trkpt lat="50.75702" lon="3.75931">
        <ele>107</ele>
        <time>2015-12-13T07:14:40Z</time>
      </trkpt>
      <trkpt lat="50.75704" lon="3.75934">
        <ele>107</ele>
        <time>2015-12-13T07:14:41Z</time>
      </trkpt>
      <trkpt lat="50.75705" lon="3.75937">
        <ele>107</ele>
        <time>2015-12-13T07:14:42Z</time>
      </trkpt>
      <trkpt lat="50.75707" lon="3.7594">
        <ele>107</ele>
        <time>2015-12-13T07:14:43Z</time>
      </trkpt>
      <trkpt lat="50.75708" lon="3.75943">
        <ele>107</ele>
        <time>2015-12-13T07:14:44Z</time>
      </trkpt>
      <trkpt lat="50.75709" lon="3.75945">
        <ele>107</ele>
        <time>2015-12-13T07:14:45Z</time>
      </trkpt>
      <trkpt lat="50.7571" lon="3.75948">
        <ele>107</ele>
        <time>2015-12-13T07:14:46Z</time>
      </trkpt>
      <trkpt lat="50.75712" lon="3.75951">
        <ele>107</ele>
        <time>2015-12-13T07:14:47Z</time>
      </trkpt>
      <trkpt lat="50.75713" lon="3.75954">
        <ele>107</ele>
        <time>2015-12-13T07:14:48Z</time>
      </trkpt>
      <trkpt lat="50.75714" lon="3.75957">
        <ele>107</ele>
        <time>2015-12-13T07:14:49Z</time>
      </trkpt>
      <trkpt lat="50.75715" lon="3.7596">
        <ele>107</ele>
        <time>2015-12-13T07:14:50Z</time>
      </trkpt>
      <trkpt lat="50.75716" lon="3.75963">
        <ele>107</ele>
        <time>2015-12-13T07:14:51Z</time>
      </trkpt>
      <trkpt lat="50.75717" lon="3.75967">
        <ele>107</ele>
        <time>2015-12-13T07:14:52Z</time>
      </trkpt>
      <trkpt lat="50.75717" lon="3.7597">
        <ele>107</ele>
        <time>2015-12-13T07:14:53Z</time>
      </trkpt>
      <trkpt lat="50.75718" lon="3.75974">
        <ele>107</ele>
        <time>2015-12-13T07:14:54Z</time>
      </trkpt>
      <trkpt lat="50.75719" lon="3.75977">
        <ele>107</ele>
        <time>2015-12-13T07:14:55Z</time>
      </trkpt>
      <trkpt lat="50.7572" lon="3.75981">
        <ele>107</ele>
        <time>2015-12-13T07:14:56Z</time>
      </trkpt>
      <trkpt lat="50.7572" lon="3.75985">
        <ele>107</ele>
        <time>2015-12-13T07:14:57Z</time>
      </trkpt>
      <trkpt lat="50.75721" lon="3.75988">
        <ele>107</ele>
        <time>2015-12-13T07:14:58Z</time>
      </trkpt>
      <trkpt lat="50.75722" lon="3.75992">
        <ele>107</ele>
        <time>2015-12-13T07:14:59Z</time>
      </trkpt>
      <trkpt lat="50.75723" lon="3.75995">
        <ele>107</ele>
        <time>2015-12-13T07:15:00Z</time>
      </trkpt>
      <trkpt lat="50.75724" lon="3.75999">
        <ele>107</ele>
        <time>2015-12-13T07:15:01Z</time>
      </trkpt>
      <trkpt lat="50.75726" lon="3.76002">
        <ele>106.5</ele>
        <time>2015-12-13T07:15:02Z</time>
      </trkpt>
      <trkpt lat="50.75727" lon="3.76005">
        <ele>106</ele>
        <time>2015-12-13T07:15:03Z</time>
      </trkpt>
      <trkpt lat="50.75728" lon="3.76009">
        <ele>106</ele>
        <time>2015-12-13T07:15:04Z</time>
      </trkpt>
      <trkpt lat="50.75729" lon="3.76013">
        <ele>106</ele>
        <time>2015-12-13T07:15:05Z</time>
      </trkpt>
      <trkpt lat="50.7573" lon="3.76016">
        <ele>106</ele>
        <time>2015-12-13T07:15:06Z</time>
      </trkpt>
      <trkpt lat="50.75731" lon="3.7602">
        <ele>106</ele>
        <time>2015-12-13T07:15:07Z</time>
      </trkpt>
      <trkpt lat="50.75732" lon="3.76023">
        <ele>106</ele>
        <time>2015-12-13T07:15:08Z</time>
      </trkpt>
      <trkpt lat="50.75733" lon="3.76026">
        <ele>106</ele>
        <time>2015-12-13T07:15:09Z</time>
      </trkpt>
      <trkpt lat="50.75734" lon="3.7603">
        <ele>106</ele>
        <time>2015-12-13T07:15:10Z</time>
      </trkpt>
      <trkpt lat="50.75735" lon="3.76033">
        <ele>106</ele>
        <time>2015-12-13T07:15:11Z</time>
      </trkpt>
      <trkpt lat="50.75736" lon="3.76036">
        <ele>106</ele>
        <time>2015-12-13T07:15:12Z</time>
      </trkpt>
      <trkpt lat="50.75738" lon="3.76039">
        <ele>106</ele>
        <time>2015-12-13T07:15:13Z</time>
      </trkpt>
      <trkpt lat="50.75739" lon="3.76042">
        <ele>106</ele>
        <time>2015-12-13T07:15:14Z</time>
      </trkpt>
      <trkpt lat="50.7574" lon="3.76045">
        <ele>106</ele>
        <time>2015-12-13T07:15:15Z</time>
      </trkpt>
      <trkpt lat="50.75741" lon="3.76048">
        <ele>106</ele>
        <time>2015-12-13T07:15:16Z</time>
      </trkpt>
      <trkpt lat="50.75742" lon="3.76051">
        <ele>106</ele>
        <time>2015-12-13T07:15:17Z</time>
      </trkpt>
      <trkpt lat="50.75744" lon="3.76054">
        <ele>106</ele>
        <time>2015-12-13T07:15:18Z</time>
      </trkpt>
      <trkpt lat="50.75745" lon="3.76057">
        <ele>106</ele>
        <time>2015-12-13T07:15:19Z</time>
      </trkpt>
      <trkpt lat="50.75746" lon="3.7606">
        <ele>106</ele>
        <time>2015-12-13T07:15:20Z</time>
      </trkpt>
      <trkpt lat="50.75748" lon="3.76063">
        <ele>106</ele>
        <time>2015-12-13T07:15:21Z</time>
      </trkpt>
      <trkpt lat="50.75749" lon="3.76066">
        <ele>106</ele>
        <time>2015-12-13T07:15:22Z</time>
      </trkpt>
      <trkpt lat="50.7575" lon="3.76069">
        <ele>106</ele>
        <time>2015-12-13T07:15:23Z</time>
      </trkpt>
      <trkpt lat="50.75752" lon="3.76073">
        <ele>106</ele>
        <time>2015-12-13T07:15:24Z</time>
      </trkpt>
      <trkpt lat="50.75753" lon="3.76075">
        <ele>106</ele>
        <time>2015-12-13T07:15:25Z</time>
      </trkpt>
      <trkpt lat="50.75755" lon="3.76078">
        <ele>106</ele>
        <time>2015-12-13T07:15:26Z</time>
      </trkpt>
      <trkpt lat="50.75756" lon="3.76081">
        <ele>106</ele>
        <time>2015-12-13T07:15:27Z</time>
      </trkpt>
      <trkpt lat="50.75757" lon="3.76084">
        <ele>106</ele>
        <time>2015-12-13T07:15:28Z</time>
      </trkpt>
      <trkpt lat="50.75759" lon="3.76087">
        <ele>106</ele>
        <time>2015-12-13T07:15:29Z</time>
      </trkpt>
      <trkpt lat="50.7576" lon="3.7609">
        <ele>106</ele>
        <time>2015-12-13T07:15:30Z</time>
      </trkpt>
      <trkpt lat="50.75761" lon="3.76093">
        <ele>106</ele>
        <time>2015-12-13T07:15:31Z</time>
      </trkpt>
      <trkpt lat="50.75763" lon="3.76096">
        <ele>106</ele>
        <time>2015-12-13T07:15:32Z</time>
      </trkpt>
      <trkpt lat="50.75764" lon="3.76099">
        <ele>106</ele>
        <time>2015-12-13T07:15:33Z</time>
      </trkpt>
      <trkpt lat="50.75765" lon="3.76103">
        <ele>106</ele>
        <time>2015-12-13T07:15:34Z</time>
      </trkpt>
      <trkpt lat="50.75766" lon="3.76106">
        <ele>106</ele>
        <time>2015-12-13T07:15:35Z</time>
      </trkpt>
      <trkpt lat="50.75768" lon="3.76109">
        <ele>106</ele>
        <time>2015-12-13T07:15:36Z</time>
      </trkpt>
      <trkpt lat="50.7577" lon="3.76112">
        <ele>106</ele>
        <time>2015-12-13T07:15:37Z</time>
      </trkpt>
      <trkpt lat="50.75771" lon="3.76115">
        <ele>106</ele>
        <time>2015-12-13T07:15:38Z</time>
      </trkpt>
      <trkpt lat="50.75772" lon="3.76118">
        <ele>106</ele>
        <time>2015-12-13T07:15:39Z</time>
      </trkpt>
      <trkpt lat="50.75774" lon="3.76121">
        <ele>106</ele>
        <time>2015-12-13T07:15:40Z</time>
      </trkpt>
      <trkpt lat="50.75775" lon="3.76124">
        <ele>106</ele>
        <time>2015-12-13T07:15:41Z</time>
      </trkpt>
      <trkpt lat="50.75777" lon="3.76127">
        <ele>106</ele>
        <time>2015-12-13T07:15:42Z</time>
      </trkpt>
      <trkpt lat="50.75778" lon="3.76131">
        <ele>106</ele>
        <time>2015-12-13T07:15:43Z</time>
      </trkpt>
      <trkpt lat="50.75779" lon="3.76134">
        <ele>106</ele>
        <time>2015-12-13T07:15:44Z</time>
      </trkpt>
      <trkpt lat="50.7578" lon="3.76138">
        <ele>106</ele>
        <time>2015-12-13T07:15:45Z</time>
      </trkpt>
      <trkpt lat="50.75781" lon="3.76141">
        <ele>106</ele>
        <time>2015-12-13T07:15:46Z</time>
      </trkpt>
      <trkpt lat="50.75783" lon="3.76145">
        <ele>106</ele>
        <time>2015-12-13T07:15:47Z</time>
      </trkpt>
      <trkpt lat="50.75784" lon="3.76148">
        <ele>106</ele>
        <time>2015-12-13T07:15:48Z</time>
      </trkpt>
      <trkpt lat="50.75785" lon="3.76152">
        <ele>106</ele>
        <time>2015-12-13T07:15:49Z</time>
      </trkpt>
      <trkpt lat="50.75786" lon="3.76155">
        <ele>106</ele>
        <time>2015-12-13T07:15:50Z</time>
      </trkpt>
      <trkpt lat="50.75787" lon="3.76158">
        <ele>106</ele>
        <time>2015-12-13T07:15:51Z</time>
      </trkpt>
      <trkpt lat="50.75788" lon="3.76162">
        <ele>106</ele>
        <time>2015-12-13T07:15:52Z</time>
      </trkpt>
      <trkpt lat="50.75789" lon="3.76165">
        <ele>106</ele>
        <time>2015-12-13T07:15:53Z</time>
      </trkpt>
      <trkpt lat="50.7579" lon="3.76169">
        <ele>106</ele>
        <time>2015-12-13T07:15:54Z</time>
      </trkpt>
      <trkpt lat="50.75791" lon="3.76172">
        <ele>106</ele>
        <time>2015-12-13T07:15:55Z</time>
      </trkpt>
      <trkpt lat="50.75792" lon="3.76176">
        <ele>106</ele>
        <time>2015-12-13T07:15:56Z</time>
      </trkpt>
      <trkpt lat="50.75793" lon="3.7618">
        <ele>106</ele>
        <time>2015-12-13T07:15:57Z</time>
      </trkpt>
      <trkpt lat="50.75794" lon="3.76184">
        <ele>106</ele>
        <time>2015-12-13T07:15:58Z</time>
      </trkpt>
      <trkpt lat="50.75795" lon="3.76187">
        <ele>106</ele>
        <time>2015-12-13T07:15:59Z</time>
      </trkpt>
      <trkpt lat="50.75796" lon="3.76191">
        <ele>106</ele>
        <time>2015-12-13T07:16:00Z</time>
      </trkpt>
      <trkpt lat="50.75797" lon="3.76194">
        <ele>104.6</ele>
        <time>2015-12-13T07:16:01Z</time>
      </trkpt>
      <trkpt lat="50.75798" lon="3.76197">
        <ele>104</ele>
        <time>2015-12-13T07:16:02Z</time>
      </trkpt>
      <trkpt lat="50.75799" lon="3.76201">
        <ele>104</ele>
        <time>2015-12-13T07:16:03Z</time>
      </trkpt>
      <trkpt lat="50.75801" lon="3.76204">
        <ele>104</ele>
        <time>2015-12-13T07:16:04Z</time>
      </trkpt>
      <trkpt lat="50.75802" lon="3.76208">
        <ele>104</ele>
        <time>2015-12-13T07:16:05Z</time>
      </trkpt>
      <trkpt lat="50.75803" lon="3.76212">
        <ele>104</ele>
        <time>2015-12-13T07:16:06Z</time>
      </trkpt>
      <trkpt lat="50.75804" lon="3.76215">
        <ele>104</ele>
        <time>2015-12-13T07:16:07Z</time>
      </trkpt>
      <trkpt lat="50.75805" lon="3.76219">
        <ele>104</ele>
        <time>2015-12-13T07:16:08Z</time>
      </trkpt>
      <trkpt lat="50.75806" lon="3.76223">
        <ele>104</ele>
        <time>2015-12-13T07:16:09Z</time>
      </trkpt>
      <trkpt lat="50.75807" lon="3.76227">
        <ele>104</ele>
        <time>2015-12-13T07:16:10Z</time>
      </trkpt>
      <trkpt lat="50.75808" lon="3.76231">
        <ele>104</ele>
        <time>2015-12-13T07:16:11Z</time>
      </trkpt>
      <trkpt lat="50.75809" lon="3.76235">
        <ele>104</ele>
        <time>2015-12-13T07:16:12Z</time>
      </trkpt>
      <trkpt lat="50.7581" lon="3.76239">
        <ele>104</ele>
        <time>2015-12-13T07:16:13Z</time>
      </trkpt>
      <trkpt lat="50.75811" lon="3.76243">
        <ele>104</ele>
        <time>2015-12-13T07:16:14Z</time>
      </trkpt>
      <trkpt lat="50.75812" lon="3.76246">
        <ele>104</ele>
        <time>2015-12-13T07:16:15Z</time>
      </trkpt>
      <trkpt lat="50.75813" lon="3.7625">
        <ele>104</ele>
        <time>2015-12-13T07:16:16Z</time>
      </trkpt>
      <trkpt lat="50.75814" lon="3.76254">
        <ele>104</ele>
        <time>2015-12-13T07:16:17Z</time>
      </trkpt>
      <trkpt lat="50.75815" lon="3.76258">
        <ele>104</ele>
        <time>2015-12-13T07:16:18Z</time>
      </trkpt>
      <trkpt lat="50.75816" lon="3.76262">
        <ele>104</ele>
        <time>2015-12-13T07:16:19Z</time>
      </trkpt>
      <trkpt lat="50.75817" lon="3.76266">
        <ele>104</ele>
        <time>2015-12-13T07:16:20Z</time>
      </trkpt>
      <trkpt lat="50.75818" lon="3.76269">
        <ele>103.5</ele>
        <time>2015-12-13T07:16:21Z</time>
      </trkpt>
      <trkpt lat="50.75819" lon="3.76273">
        <ele>103</ele>
        <time>2015-12-13T07:16:22Z</time>
      </trkpt>
      <trkpt lat="50.7582" lon="3.76277">
        <ele>103</ele>
        <time>2015-12-13T07:16:23Z</time>
      </trkpt>
      <trkpt lat="50.75821" lon="3.7628">
        <ele>103</ele>
        <time>2015-12-13T07:16:24Z</time>
      </trkpt>
      <trkpt lat="50.75823" lon="3.76284">
        <ele>103</ele>
        <time>2015-12-13T07:16:25Z</time>
      </trkpt>
      <trkpt lat="50.75824" lon="3.76288">
        <ele>103</ele>
        <time>2015-12-13T07:16:26Z</time>
      </trkpt>
      <trkpt lat="50.75825" lon="3.76291">
        <ele>103</ele>
        <time>2015-12-13T07:16:27Z</time>
      </trkpt>
      <trkpt lat="50.75826" lon="3.76295">
        <ele>103</ele>
        <time>2015-12-13T07:16:28Z</time>
      </trkpt>
      <trkpt lat="50.75826" lon="3.76299">
        <ele>103</ele>
        <time>2015-12-13T07:16:29Z</time>
      </trkpt>
      <trkpt lat="50.75827" lon="3.76302">
        <ele>103</ele>
        <time>2015-12-13T07:16:30Z</time>
      </trkpt>
      <trkpt lat="50.75828" lon="3.76306">
        <ele>103</ele>
        <time>2015-12-13T07:16:31Z</time>
      </trkpt>
      <trkpt lat="50.75829" lon="3.7631">
        <ele>103</ele>
        <time>2015-12-13T07:16:32Z</time>
      </trkpt>
      <trkpt lat="50.7583" lon="3.76314">
        <ele>103</ele>
        <time>2015-12-13T07:16:33Z</time>
      </trkpt>
      <trkpt lat="50.75831" lon="3.76318">
        <ele>103</ele>
        <time>2015-12-13T07:16:34Z</time>
      </trkpt>
      <trkpt lat="50.75831" lon="3.76322">
        <ele>103</ele>
        <time>2015-12-13T07:16:35Z</time>
      </trkpt>
      <trkpt lat="50.75832" lon="3.76326">
        <ele>103</ele>
        <time>2015-12-13T07:16:36Z</time>
      </trkpt>
      <trkpt lat="50.75833" lon="3.7633">
        <ele>103</ele>
        <time>2015-12-13T07:16:37Z</time>
      </trkpt>
      <trkpt lat="50.75833" lon="3.76334">
        <ele>103</ele>
        <time>2015-12-13T07:16:38Z</time>
      </trkpt>
      <trkpt lat="50.75834" lon="3.76337">
        <ele>103</ele>
        <time>2015-12-13T07:16:39Z</time>
      </trkpt>
      <trkpt lat="50.75835" lon="3.76341">
        <ele>103</ele>
        <time>2015-12-13T07:16:40Z</time>
      </trkpt>
      <trkpt lat="50.75836" lon="3.76344">
        <ele>102.5</ele>
        <time>2015-12-13T07:16:41Z</time>
      </trkpt>
      <trkpt lat="50.75837" lon="3.76348">
        <ele>102</ele>
        <time>2015-12-13T07:16:42Z</time>
      </trkpt>
      <trkpt lat="50.75838" lon="3.76351">
        <ele>102</ele>
        <time>2015-12-13T07:16:43Z</time>
      </trkpt>
      <trkpt lat="50.75838" lon="3.76354">
        <ele>102</ele>
        <time>2015-12-13T07:16:44Z</time>
      </trkpt>
      <trkpt lat="50.75839" lon="3.76358">
        <ele>102</ele>
        <time>2015-12-13T07:16:45Z</time>
      </trkpt>
      <trkpt lat="50.7584" lon="3.76362">
        <ele>102</ele>
        <time>2015-12-13T07:16:46Z</time>
      </trkpt>
      <trkpt lat="50.75841" lon="3.76366">
        <ele>102</ele>
        <time>2015-12-13T07:16:47Z</time>
      </trkpt>
      <trkpt lat="50.75842" lon="3.76369">
        <ele>102</ele>
        <time>2015-12-13T07:16:48Z</time>
      </trkpt>
      <trkpt lat="50.75842" lon="3.76373">
        <ele>102</ele>
        <time>2015-12-13T07:16:49Z</time>
      </trkpt>
      <trkpt lat="50.75843" lon="3.76378">
        <ele>102</ele>
        <time>2015-12-13T07:16:50Z</time>
      </trkpt>
      <trkpt lat="50.75844" lon="3.76382">
        <ele>101.3</ele>
        <time>2015-12-13T07:16:51Z</time>
      </trkpt>
      <trkpt lat="50.75844" lon="3.76386">
        <ele>101</ele>
        <time>2015-12-13T07:16:52Z</time>
      </trkpt>
      <trkpt lat="50.75845" lon="3.7639">
        <ele>101</ele>
        <time>2015-12-13T07:16:53Z</time>
      </trkpt>
      <trkpt lat="50.75846" lon="3.76394">
        <ele>101</ele>
        <time>2015-12-13T07:16:54Z</time>
      </trkpt>
      <trkpt lat="50.75847" lon="3.76398">
        <ele>101</ele>
        <time>2015-12-13T07:16:55Z</time>
      </trkpt>
      <trkpt lat="50.75847" lon="3.76402">
        <ele>101</ele>
        <time>2015-12-13T07:16:56Z</time>
      </trkpt>
      <trkpt lat="50.75848" lon="3.76406">
        <ele>101</ele>
        <time>2015-12-13T07:16:57Z</time>
      </trkpt>
      <trkpt lat="50.75849" lon="3.7641">
        <ele>101</ele>
        <time>2015-12-13T07:16:58Z</time>
      </trkpt>
      <trkpt lat="50.75849" lon="3.76414">
        <ele>101</ele>
        <time>2015-12-13T07:16:59Z</time>
      </trkpt>
      <trkpt lat="50.7585" lon="3.76418">
        <ele>101</ele>
        <time>2015-12-13T07:17:00Z</time>
      </trkpt>
      <trkpt lat="50.75851" lon="3.76422">
        <ele>101</ele>
        <time>2015-12-13T07:17:01Z</time>
      </trkpt>
      <trkpt lat="50.75853" lon="3.76425">
        <ele>100.5</ele>
        <time>2015-12-13T07:17:02Z</time>
      </trkpt>
      <trkpt lat="50.75854" lon="3.76429">
        <ele>100</ele>
        <time>2015-12-13T07:17:03Z</time>
      </trkpt>
      <trkpt lat="50.75855" lon="3.76433">
        <ele>100</ele>
        <time>2015-12-13T07:17:04Z</time>
      </trkpt>
      <trkpt lat="50.75856" lon="3.76437">
        <ele>100</ele>
        <time>2015-12-13T07:17:05Z</time>
      </trkpt>
      <trkpt lat="50.75856" lon="3.76441">
        <ele>100</ele>
        <time>2015-12-13T07:17:06Z</time>
      </trkpt>
      <trkpt lat="50.75857" lon="3.76444">
        <ele>100</ele>
        <time>2015-12-13T07:17:07Z</time>
      </trkpt>
      <trkpt lat="50.75859" lon="3.76448">
        <ele>100</ele>
        <time>2015-12-13T07:17:08Z</time>
      </trkpt>
      <trkpt lat="50.7586" lon="3.76452">
        <ele>100</ele>
        <time>2015-12-13T07:17:09Z</time>
      </trkpt>
      <trkpt lat="50.75861" lon="3.76456">
        <ele>100</ele>
        <time>2015-12-13T07:17:10Z</time>
      </trkpt>
      <trkpt lat="50.75862" lon="3.76459">
        <ele>100</ele>
        <time>2015-12-13T07:17:11Z</time>
      </trkpt>
      <trkpt lat="50.75863" lon="3.76463">
        <ele>99.3</ele>
        <time>2015-12-13T07:17:12Z</time>
      </trkpt>
      <trkpt lat="50.75864" lon="3.76467">
        <ele>99</ele>
        <time>2015-12-13T07:17:13Z</time>
      </trkpt>
      <trkpt lat="50.75865" lon="3.76471">
        <ele>99</ele>
        <time>2015-12-13T07:17:14Z</time>
      </trkpt>
      <trkpt lat="50.75866" lon="3.76475">
        <ele>99</ele>
        <time>2015-12-13T07:17:15Z</time>
      </trkpt>
      <trkpt lat="50.75867" lon="3.76479">
        <ele>99</ele>
        <time>2015-12-13T07:17:16Z</time>
      </trkpt>
      <trkpt lat="50.75868" lon="3.76482">
        <ele>99</ele>
        <time>2015-12-13T07:17:17Z</time>
      </trkpt>
      <trkpt lat="50.75869" lon="3.76486">
        <ele>99</ele>
        <time>2015-12-13T07:17:18Z</time>
      </trkpt>
      <trkpt lat="50.7587" lon="3.7649">
        <ele>99</ele>
        <time>2015-12-13T07:17:19Z</time>
      </trkpt>
      <trkpt lat="50.75871" lon="3.76494">
        <ele>99</ele>
        <time>2015-12-13T07:17:20Z</time>
      </trkpt>
      <trkpt lat="50.75872" lon="3.76498">
        <ele>99</ele>
        <time>2015-12-13T07:17:21Z</time>
      </trkpt>
      <trkpt lat="50.75873" lon="3.76502">
        <ele>98.5</ele>
        <time>2015-12-13T07:17:22Z</time>
      </trkpt>
      <trkpt lat="50.75873" lon="3.76506">
        <ele>98</ele>
        <time>2015-12-13T07:17:23Z</time>
      </trkpt>
      <trkpt lat="50.75874" lon="3.7651">
        <ele>98</ele>
        <time>2015-12-13T07:17:24Z</time>
      </trkpt>
      <trkpt lat="50.75874" lon="3.76514">
        <ele>98</ele>
        <time>2015-12-13T07:17:25Z</time>
      </trkpt>
      <trkpt lat="50.75875" lon="3.76517">
        <ele>98</ele>
        <time>2015-12-13T07:17:26Z</time>
      </trkpt>
      <trkpt lat="50.75875" lon="3.76521">
        <ele>98</ele>
        <time>2015-12-13T07:17:27Z</time>
      </trkpt>
      <trkpt lat="50.75875" lon="3.76525">
        <ele>98</ele>
        <time>2015-12-13T07:17:28Z</time>
      </trkpt>
      <trkpt lat="50.75876" lon="3.7653">
        <ele>98</ele>
        <time>2015-12-13T07:17:29Z</time>
      </trkpt>
      <trkpt lat="50.75876" lon="3.76534">
        <ele>98</ele>
        <time>2015-12-13T07:17:30Z</time>
      </trkpt>
      <trkpt lat="50.75876" lon="3.76538">
        <ele>98</ele>
        <time>2015-12-13T07:17:31Z</time>
      </trkpt>
      <trkpt lat="50.75877" lon="3.76542">
        <ele>97.3</ele>
        <time>2015-12-13T07:17:32Z</time>
      </trkpt>
      <trkpt lat="50.75877" lon="3.76546">
        <ele>97</ele>
        <time>2015-12-13T07:17:33Z</time>
      </trkpt>
      <trkpt lat="50.75878" lon="3.76549">
        <ele>97</ele>
        <time>2015-12-13T07:17:34Z</time>
      </trkpt>
      <trkpt lat="50.75878" lon="3.76553">
        <ele>97</ele>
        <time>2015-12-13T07:17:35Z</time>
      </trkpt>
      <trkpt lat="50.75879" lon="3.76557">
        <ele>97</ele>
        <time>2015-12-13T07:17:36Z</time>
      </trkpt>
      <trkpt lat="50.7588" lon="3.76561">
        <ele>97</ele>
        <time>2015-12-13T07:17:37Z</time>
      </trkpt>
      <trkpt lat="50.7588" lon="3.76565">
        <ele>97</ele>
        <time>2015-12-13T07:17:38Z</time>
      </trkpt>
      <trkpt lat="50.75881" lon="3.76569">
        <ele>97</ele>
        <time>2015-12-13T07:17:39Z</time>
      </trkpt>
      <trkpt lat="50.75882" lon="3.76573">
        <ele>97</ele>
        <time>2015-12-13T07:17:40Z</time>
      </trkpt>
      <trkpt lat="50.75883" lon="3.76577">
        <ele>97</ele>
        <time>2015-12-13T07:17:41Z</time>
      </trkpt>
      <trkpt lat="50.75884" lon="3.76581">
        <ele>97</ele>
        <time>2015-12-13T07:17:42Z</time>
      </trkpt>
      <trkpt lat="50.75885" lon="3.76585">
        <ele>97</ele>
        <time>2015-12-13T07:17:43Z</time>
      </trkpt>
      <trkpt lat="50.75886" lon="3.76589">
        <ele>97</ele>
        <time>2015-12-13T07:17:44Z</time>
      </trkpt>
      <trkpt lat="50.75886" lon="3.76593">
        <ele>97</ele>
        <time>2015-12-13T07:17:45Z</time>
      </trkpt>
      <trkpt lat="50.75887" lon="3.76596">
        <ele>97</ele>
        <time>2015-12-13T07:17:46Z</time>
      </trkpt>
      <trkpt lat="50.75888" lon="3.766">
        <ele>97</ele>
        <time>2015-12-13T07:17:47Z</time>
      </trkpt>
      <trkpt lat="50.75889" lon="3.76604">
        <ele>97</ele>
        <time>2015-12-13T07:17:48Z</time>
      </trkpt>
      <trkpt lat="50.75889" lon="3.76608">
        <ele>97</ele>
        <time>2015-12-13T07:17:49Z</time>
      </trkpt>
      <trkpt lat="50.75889" lon="3.76612">
        <ele>97</ele>
        <time>2015-12-13T07:17:50Z</time>
      </trkpt>
      <trkpt lat="50.7589" lon="3.76616">
        <ele>97</ele>
        <time>2015-12-13T07:17:51Z</time>
      </trkpt>
      <trkpt lat="50.7589" lon="3.7662">
        <ele>96.3</ele>
        <time>2015-12-13T07:17:52Z</time>
      </trkpt>
      <trkpt lat="50.75891" lon="3.76624">
        <ele>96</ele>
        <time>2015-12-13T07:17:53Z</time>
      </trkpt>
      <trkpt lat="50.75891" lon="3.76628">
        <ele>96</ele>
        <time>2015-12-13T07:17:54Z</time>
      </trkpt>
      <trkpt lat="50.75892" lon="3.76632">
        <ele>96</ele>
        <time>2015-12-13T07:17:55Z</time>
      </trkpt>
      <trkpt lat="50.75892" lon="3.76636">
        <ele>96</ele>
        <time>2015-12-13T07:17:56Z</time>
      </trkpt>
      <trkpt lat="50.75893" lon="3.7664">
        <ele>96</ele>
        <time>2015-12-13T07:17:57Z</time>
      </trkpt>
      <trkpt lat="50.75893" lon="3.76644">
        <ele>96</ele>
        <time>2015-12-13T07:17:58Z</time>
      </trkpt>
      <trkpt lat="50.75893" lon="3.76648">
        <ele>96</ele>
        <time>2015-12-13T07:17:59Z</time>
      </trkpt>
      <trkpt lat="50.75893" lon="3.76652">
        <ele>96</ele>
        <time>2015-12-13T07:18:00Z</time>
      </trkpt>
      <trkpt lat="50.75893" lon="3.76656">
        <ele>95.5</ele>
        <time>2015-12-13T07:18:01Z</time>
      </trkpt>
      <trkpt lat="50.75893" lon="3.7666">
        <ele>95</ele>
        <time>2015-12-13T07:18:02Z</time>
      </trkpt>
      <trkpt lat="50.75893" lon="3.76664">
        <ele>95</ele>
        <time>2015-12-13T07:18:03Z</time>
      </trkpt>
      <trkpt lat="50.75892" lon="3.76669">
        <ele>95</ele>
        <time>2015-12-13T07:18:04Z</time>
      </trkpt>
      <trkpt lat="50.75891" lon="3.76672">
        <ele>95</ele>
        <time>2015-12-13T07:18:05Z</time>
      </trkpt>
      <trkpt lat="50.7589" lon="3.76676">
        <ele>95</ele>
        <time>2015-12-13T07:18:06Z</time>
      </trkpt>
      <trkpt lat="50.75888" lon="3.7668">
        <ele>95</ele>
        <time>2015-12-13T07:18:07Z</time>
      </trkpt>
      <trkpt lat="50.75887" lon="3.76683">
        <ele>95</ele>
        <time>2015-12-13T07:18:08Z</time>
      </trkpt>
      <trkpt lat="50.75886" lon="3.76686">
        <ele>95</ele>
        <time>2015-12-13T07:18:09Z</time>
      </trkpt>
      <trkpt lat="50.75885" lon="3.7669">
        <ele>95</ele>
        <time>2015-12-13T07:18:10Z</time>
      </trkpt>
      <trkpt lat="50.75883" lon="3.76693">
        <ele>95</ele>
        <time>2015-12-13T07:18:11Z</time>
      </trkpt>
      <trkpt lat="50.75882" lon="3.76696">
        <ele>95</ele>
        <time>2015-12-13T07:18:12Z</time>
      </trkpt>
      <trkpt lat="50.75881" lon="3.76698">
        <ele>95</ele>
        <time>2015-12-13T07:18:13Z</time>
      </trkpt>
      <trkpt lat="50.7588" lon="3.76701">
        <ele>95</ele>
        <time>2015-12-13T07:18:14Z</time>
      </trkpt>
      <trkpt lat="50.75879" lon="3.76704">
        <ele>95</ele>
        <time>2015-12-13T07:18:15Z</time>
      </trkpt>
      <trkpt lat="50.75877" lon="3.76707">
        <ele>95</ele>
        <time>2015-12-13T07:18:16Z</time>
      </trkpt>
      <trkpt lat="50.75876" lon="3.7671">
        <ele>95</ele>
        <time>2015-12-13T07:18:17Z</time>
      </trkpt>
      <trkpt lat="50.75874" lon="3.76713">
        <ele>95</ele>
        <time>2015-12-13T07:18:18Z</time>
      </trkpt>
      <trkpt lat="50.75873" lon="3.76716">
        <ele>95</ele>
        <time>2015-12-13T07:18:19Z</time>
      </trkpt>
      <trkpt lat="50.75871" lon="3.76719">
        <ele>95</ele>
        <time>2015-12-13T07:18:20Z</time>
      </trkpt>
      <trkpt lat="50.7587" lon="3.76723">
        <ele>95</ele>
        <time>2015-12-13T07:18:21Z</time>
      </trkpt>
      <trkpt lat="50.75868" lon="3.76726">
        <ele>95</ele>
        <time>2015-12-13T07:18:22Z</time>
      </trkpt>
      <trkpt lat="50.75866" lon="3.76729">
        <ele>95</ele>
        <time>2015-12-13T07:18:23Z</time>
      </trkpt>
      <trkpt lat="50.75865" lon="3.76733">
        <ele>95</ele>
        <time>2015-12-13T07:18:24Z</time>
      </trkpt>
      <trkpt lat="50.75863" lon="3.76736">
        <ele>95</ele>
        <time>2015-12-13T07:18:25Z</time>
      </trkpt>
      <trkpt lat="50.75862" lon="3.76739">
        <ele>95</ele>
        <time>2015-12-13T07:18:26Z</time>
      </trkpt>
      <trkpt lat="50.7586" lon="3.76742">
        <ele>95</ele>
        <time>2015-12-13T07:18:27Z</time>
      </trkpt>
      <trkpt lat="50.75859" lon="3.76745">
        <ele>95</ele>
        <time>2015-12-13T07:18:28Z</time>
      </trkpt>
      <trkpt lat="50.75857" lon="3.76749">
        <ele>95</ele>
        <time>2015-12-13T07:18:29Z</time>
      </trkpt>
      <trkpt lat="50.75856" lon="3.76752">
        <ele>95</ele>
        <time>2015-12-13T07:18:30Z</time>
      </trkpt>
      <trkpt lat="50.75854" lon="3.76755">
        <ele>95</ele>
        <time>2015-12-13T07:18:31Z</time>
      </trkpt>
      <trkpt lat="50.75852" lon="3.76758">
        <ele>95</ele>
        <time>2015-12-13T07:18:32Z</time>
      </trkpt>
      <trkpt lat="50.75851" lon="3.76761">
        <ele>95</ele>
        <time>2015-12-13T07:18:33Z</time>
      </trkpt>
      <trkpt lat="50.75849" lon="3.76765">
        <ele>95</ele>
        <time>2015-12-13T07:18:34Z</time>
      </trkpt>
      <trkpt lat="50.75847" lon="3.76768">
        <ele>95</ele>
        <time>2015-12-13T07:18:35Z</time>
      </trkpt>
      <trkpt lat="50.75846" lon="3.76771">
        <ele>95</ele>
        <time>2015-12-13T07:18:36Z</time>
      </trkpt>
      <trkpt lat="50.75844" lon="3.76774">
        <ele>95</ele>
        <time>2015-12-13T07:18:37Z</time>
      </trkpt>
      <trkpt lat="50.75842" lon="3.76777">
        <ele>95</ele>
        <time>2015-12-13T07:18:38Z</time>
      </trkpt>
      <trkpt lat="50.7584" lon="3.7678">
        <ele>95</ele>
        <time>2015-12-13T07:18:39Z</time>
      </trkpt>
      <trkpt lat="50.75839" lon="3.76783">
        <ele>95</ele>
        <time>2015-12-13T07:18:40Z</time>
      </trkpt>
      <trkpt lat="50.75838" lon="3.76786">
        <ele>95</ele>
        <time>2015-12-13T07:18:41Z</time>
      </trkpt>
      <trkpt lat="50.75835" lon="3.76789">
        <ele>95</ele>
        <time>2015-12-13T07:18:43Z</time>
      </trkpt>
      <trkpt lat="50.75833" lon="3.76792">
        <ele>95</ele>
        <time>2015-12-13T07:18:45Z</time>
      </trkpt>
      <trkpt lat="50.75831" lon="3.76796">
        <ele>95</ele>
        <time>2015-12-13T07:18:47Z</time>
      </trkpt>
      <trkpt lat="50.75829" lon="3.76799">
        <ele>95</ele>
        <time>2015-12-13T07:18:49Z</time>
      </trkpt>
      <trkpt lat="50.75827" lon="3.76801">
        <ele>95</ele>
        <time>2015-12-13T07:18:51Z</time>
      </trkpt>
      <trkpt lat="50.75829" lon="3.76799">
        <ele>94</ele>
        <time>2015-12-13T07:19:14Z</time>
      </trkpt>
      <trkpt lat="50.75831" lon="3.76797">
        <ele>94</ele>
        <time>2015-12-13T07:19:17Z</time>
      </trkpt>
      <trkpt lat="50.75829" lon="3.76799">
        <ele>94</ele>
        <time>2015-12-13T07:19:35Z</time>
      </trkpt>
      <trkpt lat="50.75827" lon="3.76803">
        <ele>94</ele>
        <time>2015-12-13T07:19:37Z</time>
      </trkpt>
      <trkpt lat="50.75825" lon="3.76806">
        <ele>94</ele>
        <time>2015-12-13T07:19:39Z</time>
      </trkpt>
      <trkpt lat="50.75823" lon="3.7681">
        <ele>94</ele>
        <time>2015-12-13T07:19:41Z</time>
      </trkpt>
      <trkpt lat="50.75822" lon="3.76814">
        <ele>94</ele>
        <time>2015-12-13T07:19:43Z</time>
      </trkpt>
      <trkpt lat="50.7582" lon="3.76818">
        <ele>94</ele>
        <time>2015-12-13T07:19:45Z</time>
      </trkpt>
      <trkpt lat="50.75817" lon="3.76822">
        <ele>94</ele>
        <time>2015-12-13T07:19:47Z</time>
      </trkpt>
      <trkpt lat="50.75815" lon="3.76825">
        <ele>94</ele>
        <time>2015-12-13T07:19:49Z</time>
      </trkpt>
      <trkpt lat="50.75813" lon="3.76829">
        <ele>93.5</ele>
        <time>2015-12-13T07:19:51Z</time>
      </trkpt>
      <trkpt lat="50.75811" lon="3.76832">
        <ele>93</ele>
        <time>2015-12-13T07:19:53Z</time>
      </trkpt>
      <trkpt lat="50.75809" lon="3.76835">
        <ele>93</ele>
        <time>2015-12-13T07:19:55Z</time>
      </trkpt>
      <trkpt lat="50.75807" lon="3.76838">
        <ele>93</ele>
        <time>2015-12-13T07:19:57Z</time>
      </trkpt>
      <trkpt lat="50.75805" lon="3.76842">
        <ele>93</ele>
        <time>2015-12-13T07:19:59Z</time>
      </trkpt>
      <trkpt lat="50.75803" lon="3.76846">
        <ele>92.3</ele>
        <time>2015-12-13T07:20:01Z</time>
      </trkpt>
      <trkpt lat="50.75801" lon="3.7685">
        <ele>92</ele>
        <time>2015-12-13T07:20:03Z</time>
      </trkpt>
      <trkpt lat="50.758" lon="3.76854">
        <ele>92</ele>
        <time>2015-12-13T07:20:05Z</time>
      </trkpt>
      <trkpt lat="50.75799" lon="3.76859">
        <ele>92</ele>
        <time>2015-12-13T07:20:07Z</time>
      </trkpt>
      <trkpt lat="50.75799" lon="3.76863">
        <ele>92</ele>
        <time>2015-12-13T07:20:10Z</time>
      </trkpt>
      <trkpt lat="50.75799" lon="3.76867">
        <ele>92</ele>
        <time>2015-12-13T07:20:12Z</time>
      </trkpt>
      <trkpt lat="50.758" lon="3.76871">
        <ele>92</ele>
        <time>2015-12-13T07:20:14Z</time>
      </trkpt>
      <trkpt lat="50.75801" lon="3.76875">
        <ele>92</ele>
        <time>2015-12-13T07:20:16Z</time>
      </trkpt>
      <trkpt lat="50.75803" lon="3.76878">
        <ele>92</ele>
        <time>2015-12-13T07:20:18Z</time>
      </trkpt>
      <trkpt lat="50.75804" lon="3.76882">
        <ele>92</ele>
        <time>2015-12-13T07:20:20Z</time>
      </trkpt>
      <trkpt lat="50.75805" lon="3.76885">
        <ele>91</ele>
        <time>2015-12-13T07:20:22Z</time>
      </trkpt>
      <trkpt lat="50.75807" lon="3.76887">
        <ele>91</ele>
        <time>2015-12-13T07:20:24Z</time>
      </trkpt>
      <trkpt lat="50.75809" lon="3.76889">
        <ele>91</ele>
        <time>2015-12-13T07:20:25Z</time>
      </trkpt>
      <trkpt lat="50.75811" lon="3.76893">
        <ele>91</ele>
        <time>2015-12-13T07:20:27Z</time>
      </trkpt>
      <trkpt lat="50.75813" lon="3.76896">
        <ele>91</ele>
        <time>2015-12-13T07:20:29Z</time>
      </trkpt>
      <trkpt lat="50.75815" lon="3.769">
        <ele>91</ele>
        <time>2015-12-13T07:20:31Z</time>
      </trkpt>
      <trkpt lat="50.75817" lon="3.76903">
        <ele>91</ele>
        <time>2015-12-13T07:20:33Z</time>
      </trkpt>
      <trkpt lat="50.75817" lon="3.76906">
        <ele>91</ele>
        <time>2015-12-13T07:20:38Z</time>
      </trkpt>
      <trkpt lat="50.75819" lon="3.76908">
        <ele>91</ele>
        <time>2015-12-13T07:20:40Z</time>
      </trkpt>
      <trkpt lat="50.7582" lon="3.76911">
        <ele>90</ele>
        <time>2015-12-13T07:20:42Z</time>
      </trkpt>
      <trkpt lat="50.75821" lon="3.76914">
        <ele>90</ele>
        <time>2015-12-13T07:20:50Z</time>
      </trkpt>
      <trkpt lat="50.75823" lon="3.76916">
        <ele>90</ele>
        <time>2015-12-13T07:20:53Z</time>
      </trkpt>
      <trkpt lat="50.75825" lon="3.76919">
        <ele>90</ele>
        <time>2015-12-13T07:20:55Z</time>
      </trkpt>
      <trkpt lat="50.75826" lon="3.76922">
        <ele>90</ele>
        <time>2015-12-13T07:20:57Z</time>
      </trkpt>
      <trkpt lat="50.75828" lon="3.76925">
        <ele>90</ele>
        <time>2015-12-13T07:20:59Z</time>
      </trkpt>
      <trkpt lat="50.75829" lon="3.76928">
        <ele>89.3</ele>
        <time>2015-12-13T07:21:01Z</time>
      </trkpt>
      <trkpt lat="50.75831" lon="3.76932">
        <ele>89</ele>
        <time>2015-12-13T07:21:03Z</time>
      </trkpt>
      <trkpt lat="50.75833" lon="3.76937">
        <ele>89</ele>
        <time>2015-12-13T07:21:05Z</time>
      </trkpt>
      <trkpt lat="50.75835" lon="3.76941">
        <ele>89</ele>
        <time>2015-12-13T07:21:07Z</time>
      </trkpt>
      <trkpt lat="50.75836" lon="3.76945">
        <ele>89</ele>
        <time>2015-12-13T07:21:09Z</time>
      </trkpt>
      <trkpt lat="50.75838" lon="3.76949">
        <ele>89</ele>
        <time>2015-12-13T07:21:11Z</time>
      </trkpt>
      <trkpt lat="50.75839" lon="3.76953">
        <ele>89</ele>
        <time>2015-12-13T07:21:13Z</time>
      </trkpt>
      <trkpt lat="50.7584" lon="3.76957">
        <ele>89</ele>
        <time>2015-12-13T07:21:15Z</time>
      </trkpt>
      <trkpt lat="50.75842" lon="3.76961">
        <ele>89</ele>
        <time>2015-12-13T07:21:17Z</time>
      </trkpt>
      <trkpt lat="50.75844" lon="3.76966">
        <ele>89</ele>
        <time>2015-12-13T07:21:19Z</time>
      </trkpt>
      <trkpt lat="50.75845" lon="3.7697">
        <ele>89</ele>
        <time>2015-12-13T07:21:21Z</time>
      </trkpt>
      <trkpt lat="50.75847" lon="3.76975">
        <ele>89</ele>
        <time>2015-12-13T07:21:23Z</time>
      </trkpt>
      <trkpt lat="50.75848" lon="3.76979">
        <ele>89</ele>
        <time>2015-12-13T07:21:25Z</time>
      </trkpt>
      <trkpt lat="50.75849" lon="3.76984">
        <ele>89</ele>
        <time>2015-12-13T07:21:27Z</time>
      </trkpt>
      <trkpt lat="50.75851" lon="3.76988">
        <ele>89</ele>
        <time>2015-12-13T07:21:29Z</time>
      </trkpt>
      <trkpt lat="50.75852" lon="3.76992">
        <ele>89</ele>
        <time>2015-12-13T07:21:31Z</time>
      </trkpt>
      <trkpt lat="50.75853" lon="3.76996">
        <ele>89</ele>
        <time>2015-12-13T07:21:33Z</time>
      </trkpt>
      <trkpt lat="50.75854" lon="3.77002">
        <ele>89</ele>
        <time>2015-12-13T07:21:35Z</time>
      </trkpt>
      <trkpt lat="50.75855" lon="3.77006">
        <ele>89</ele>
        <time>2015-12-13T07:21:36Z</time>
      </trkpt>
      <trkpt lat="50.75855" lon="3.7701">
        <ele>89</ele>
        <time>2015-12-13T07:21:37Z</time>
      </trkpt>
      <trkpt lat="50.75855" lon="3.77014">
        <ele>89</ele>
        <time>2015-12-13T07:21:38Z</time>
      </trkpt>
      <trkpt lat="50.75856" lon="3.77018">
        <ele>89</ele>
        <time>2015-12-13T07:21:39Z</time>
      </trkpt>
      <trkpt lat="50.75856" lon="3.77022">
        <ele>89</ele>
        <time>2015-12-13T07:21:40Z</time>
      </trkpt>
      <trkpt lat="50.75856" lon="3.77026">
        <ele>89</ele>
        <time>2015-12-13T07:21:41Z</time>
      </trkpt>
      <trkpt lat="50.75856" lon="3.7703">
        <ele>89</ele>
        <time>2015-12-13T07:21:42Z</time>
      </trkpt>
      <trkpt lat="50.75856" lon="3.77034">
        <ele>89</ele>
        <time>2015-12-13T07:21:43Z</time>
      </trkpt>
      <trkpt lat="50.75855" lon="3.77038">
        <ele>89</ele>
        <time>2015-12-13T07:21:44Z</time>
      </trkpt>
      <trkpt lat="50.75855" lon="3.77042">
        <ele>89</ele>
        <time>2015-12-13T07:21:45Z</time>
      </trkpt>
      <trkpt lat="50.75856" lon="3.77046">
        <ele>89</ele>
        <time>2015-12-13T07:21:46Z</time>
      </trkpt>
      <trkpt lat="50.75855" lon="3.7705">
        <ele>89</ele>
        <time>2015-12-13T07:21:47Z</time>
      </trkpt>
      <trkpt lat="50.75855" lon="3.77054">
        <ele>89</ele>
        <time>2015-12-13T07:21:48Z</time>
      </trkpt>
      <trkpt lat="50.75854" lon="3.77058">
        <ele>89</ele>
        <time>2015-12-13T07:21:49Z</time>
      </trkpt>
      <trkpt lat="50.75854" lon="3.77062">
        <ele>89</ele>
        <time>2015-12-13T07:21:50Z</time>
      </trkpt>
      <trkpt lat="50.75854" lon="3.77065">
        <ele>89.7</ele>
        <time>2015-12-13T07:21:51Z</time>
      </trkpt>
      <trkpt lat="50.75854" lon="3.77069">
        <ele>90</ele>
        <time>2015-12-13T07:21:52Z</time>
      </trkpt>
      <trkpt lat="50.75855" lon="3.77072">
        <ele>90</ele>
        <time>2015-12-13T07:21:53Z</time>
      </trkpt>
      <trkpt lat="50.75857" lon="3.77076">
        <ele>90</ele>
        <time>2015-12-13T07:21:55Z</time>
      </trkpt>
      <trkpt lat="50.75859" lon="3.77078">
        <ele>90</ele>
        <time>2015-12-13T07:21:57Z</time>
      </trkpt>
      <trkpt lat="50.75861" lon="3.77081">
        <ele>90</ele>
        <time>2015-12-13T07:22:00Z</time>
      </trkpt>
      <trkpt lat="50.75866" lon="3.7708">
        <ele>89</ele>
        <time>2015-12-13T07:22:15Z</time>
      </trkpt>
      <trkpt lat="50.75867" lon="3.77078">
        <ele>89</ele>
        <time>2015-12-13T07:22:18Z</time>
      </trkpt>
      <trkpt lat="50.75869" lon="3.77078">
        <ele>89</ele>
        <time>2015-12-13T07:22:21Z</time>
      </trkpt>
      <trkpt lat="50.75872" lon="3.77078">
        <ele>89</ele>
        <time>2015-12-13T07:22:27Z</time>
      </trkpt>
      <trkpt lat="50.75874" lon="3.77077">
        <ele>89</ele>
        <time>2015-12-13T07:22:29Z</time>
      </trkpt>
      <trkpt lat="50.75875" lon="3.77075">
        <ele>89</ele>
        <time>2015-12-13T07:22:31Z</time>
      </trkpt>
      <trkpt lat="50.75877" lon="3.77073">
        <ele>89</ele>
        <time>2015-12-13T07:22:33Z</time>
      </trkpt>
      <trkpt lat="50.75879" lon="3.77071">
        <ele>89</ele>
        <time>2015-12-13T07:22:35Z</time>
      </trkpt>
      <trkpt lat="50.75881" lon="3.7707">
        <ele>89</ele>
        <time>2015-12-13T07:22:37Z</time>
      </trkpt>
      <trkpt lat="50.75883" lon="3.77069">
        <ele>89</ele>
        <time>2015-12-13T07:22:39Z</time>
      </trkpt>
      <trkpt lat="50.75886" lon="3.7707">
        <ele>88.5</ele>
        <time>2015-12-13T07:22:41Z</time>
      </trkpt>
      <trkpt lat="50.75888" lon="3.7707">
        <ele>88</ele>
        <time>2015-12-13T07:22:42Z</time>
      </trkpt>
      <trkpt lat="50.75891" lon="3.77069">
        <ele>88</ele>
        <time>2015-12-13T07:22:43Z</time>
      </trkpt>
      <trkpt lat="50.75893" lon="3.77068">
        <ele>88</ele>
        <time>2015-12-13T07:22:44Z</time>
      </trkpt>
      <trkpt lat="50.75896" lon="3.77068">
        <ele>88</ele>
        <time>2015-12-13T07:22:45Z</time>
      </trkpt>
      <trkpt lat="50.75898" lon="3.77069">
        <ele>88</ele>
        <time>2015-12-13T07:22:46Z</time>
      </trkpt>
      <trkpt lat="50.75901" lon="3.77069">
        <ele>88</ele>
        <time>2015-12-13T07:22:47Z</time>
      </trkpt>
      <trkpt lat="50.75903" lon="3.77069">
        <ele>88</ele>
        <time>2015-12-13T07:22:48Z</time>
      </trkpt>
      <trkpt lat="50.75906" lon="3.7707">
        <ele>88</ele>
        <time>2015-12-13T07:22:49Z</time>
      </trkpt>
      <trkpt lat="50.75908" lon="3.77069">
        <ele>88</ele>
        <time>2015-12-13T07:22:50Z</time>
      </trkpt>
      <trkpt lat="50.7591" lon="3.77068">
        <ele>87.3</ele>
        <time>2015-12-13T07:22:51Z</time>
      </trkpt>
      <trkpt lat="50.75912" lon="3.77066">
        <ele>87</ele>
        <time>2015-12-13T07:22:52Z</time>
      </trkpt>
      <trkpt lat="50.75914" lon="3.77063">
        <ele>87</ele>
        <time>2015-12-13T07:22:53Z</time>
      </trkpt>
      <trkpt lat="50.75915" lon="3.77061">
        <ele>87</ele>
        <time>2015-12-13T07:22:54Z</time>
      </trkpt>
      <trkpt lat="50.75917" lon="3.77058">
        <ele>87</ele>
        <time>2015-12-13T07:22:55Z</time>
      </trkpt>
      <trkpt lat="50.75919" lon="3.77056">
        <ele>87</ele>
        <time>2015-12-13T07:22:56Z</time>
      </trkpt>
      <trkpt lat="50.75921" lon="3.77053">
        <ele>87</ele>
        <time>2015-12-13T07:22:57Z</time>
      </trkpt>
      <trkpt lat="50.75922" lon="3.77051">
        <ele>87</ele>
        <time>2015-12-13T07:22:58Z</time>
      </trkpt>
      <trkpt lat="50.75924" lon="3.77048">
        <ele>87</ele>
        <time>2015-12-13T07:22:59Z</time>
      </trkpt>
      <trkpt lat="50.75926" lon="3.77046">
        <ele>87</ele>
        <time>2015-12-13T07:23:00Z</time>
      </trkpt>
      <trkpt lat="50.75928" lon="3.77043">
        <ele>85.9</ele>
        <time>2015-12-13T07:23:01Z</time>
      </trkpt>
      <trkpt lat="50.75929" lon="3.77041">
        <ele>85</ele>
        <time>2015-12-13T07:23:02Z</time>
      </trkpt>
      <trkpt lat="50.75931" lon="3.77039">
        <ele>85</ele>
        <time>2015-12-13T07:23:03Z</time>
      </trkpt>
      <trkpt lat="50.75933" lon="3.77036">
        <ele>85</ele>
        <time>2015-12-13T07:23:04Z</time>
      </trkpt>
      <trkpt lat="50.75935" lon="3.77034">
        <ele>85</ele>
        <time>2015-12-13T07:23:05Z</time>
      </trkpt>
      <trkpt lat="50.75936" lon="3.77032">
        <ele>85</ele>
        <time>2015-12-13T07:23:06Z</time>
      </trkpt>
      <trkpt lat="50.75938" lon="3.77029">
        <ele>85</ele>
        <time>2015-12-13T07:23:07Z</time>
      </trkpt>
      <trkpt lat="50.7594" lon="3.77027">
        <ele>85</ele>
        <time>2015-12-13T07:23:08Z</time>
      </trkpt>
      <trkpt lat="50.75942" lon="3.77024">
        <ele>85</ele>
        <time>2015-12-13T07:23:09Z</time>
      </trkpt>
      <trkpt lat="50.75944" lon="3.77022">
        <ele>85</ele>
        <time>2015-12-13T07:23:10Z</time>
      </trkpt>
      <trkpt lat="50.75946" lon="3.7702">
        <ele>85</ele>
        <time>2015-12-13T07:23:11Z</time>
      </trkpt>
      <trkpt lat="50.75948" lon="3.77018">
        <ele>85</ele>
        <time>2015-12-13T07:23:12Z</time>
      </trkpt>
      <trkpt lat="50.7595" lon="3.77015">
        <ele>85</ele>
        <time>2015-12-13T07:23:13Z</time>
      </trkpt>
      <trkpt lat="50.75952" lon="3.77013">
        <ele>85</ele>
        <time>2015-12-13T07:23:14Z</time>
      </trkpt>
      <trkpt lat="50.75953" lon="3.7701">
        <ele>85</ele>
        <time>2015-12-13T07:23:15Z</time>
      </trkpt>
      <trkpt lat="50.75955" lon="3.77008">
        <ele>85</ele>
        <time>2015-12-13T07:23:16Z</time>
      </trkpt>
      <trkpt lat="50.75957" lon="3.77005">
        <ele>85</ele>
        <time>2015-12-13T07:23:17Z</time>
      </trkpt>
      <trkpt lat="50.75958" lon="3.77003">
        <ele>85</ele>
        <time>2015-12-13T07:23:18Z</time>
      </trkpt>
      <trkpt lat="50.7596" lon="3.77001">
        <ele>85</ele>
        <time>2015-12-13T07:23:19Z</time>
      </trkpt>
      <trkpt lat="50.75962" lon="3.76998">
        <ele>85</ele>
        <time>2015-12-13T07:23:20Z</time>
      </trkpt>
      <trkpt lat="50.75964" lon="3.76996">
        <ele>84.3</ele>
        <time>2015-12-13T07:23:21Z</time>
      </trkpt>
      <trkpt lat="50.75965" lon="3.76993">
        <ele>84.7</ele>
        <time>2015-12-13T07:23:22Z</time>
      </trkpt>
      <trkpt lat="50.75967" lon="3.76991">
        <ele>85</ele>
        <time>2015-12-13T07:23:23Z</time>
      </trkpt>
      <trkpt lat="50.75968" lon="3.76989">
        <ele>85</ele>
        <time>2015-12-13T07:23:24Z</time>
      </trkpt>
      <trkpt lat="50.7597" lon="3.76986">
        <ele>85</ele>
        <time>2015-12-13T07:23:25Z</time>
      </trkpt>
      <trkpt lat="50.75972" lon="3.76984">
        <ele>85</ele>
        <time>2015-12-13T07:23:26Z</time>
      </trkpt>
      <trkpt lat="50.75973" lon="3.76981">
        <ele>85</ele>
        <time>2015-12-13T07:23:27Z</time>
      </trkpt>
      <trkpt lat="50.75975" lon="3.76979">
        <ele>85</ele>
        <time>2015-12-13T07:23:28Z</time>
      </trkpt>
      <trkpt lat="50.75977" lon="3.76976">
        <ele>85</ele>
        <time>2015-12-13T07:23:29Z</time>
      </trkpt>
      <trkpt lat="50.75979" lon="3.76974">
        <ele>85</ele>
        <time>2015-12-13T07:23:30Z</time>
      </trkpt>
      <trkpt lat="50.7598" lon="3.76972">
        <ele>84.3</ele>
        <time>2015-12-13T07:23:31Z</time>
      </trkpt>
      <trkpt lat="50.75982" lon="3.7697">
        <ele>84</ele>
        <time>2015-12-13T07:23:32Z</time>
      </trkpt>
      <trkpt lat="50.75984" lon="3.76967">
        <ele>84</ele>
        <time>2015-12-13T07:23:33Z</time>
      </trkpt>
      <trkpt lat="50.75986" lon="3.76965">
        <ele>84</ele>
        <time>2015-12-13T07:23:34Z</time>
      </trkpt>
      <trkpt lat="50.75988" lon="3.76963">
        <ele>84</ele>
        <time>2015-12-13T07:23:35Z</time>
      </trkpt>
      <trkpt lat="50.75989" lon="3.76961">
        <ele>84</ele>
        <time>2015-12-13T07:23:36Z</time>
      </trkpt>
      <trkpt lat="50.75991" lon="3.76959">
        <ele>84</ele>
        <time>2015-12-13T07:23:37Z</time>
      </trkpt>
      <trkpt lat="50.75993" lon="3.76957">
        <ele>84</ele>
        <time>2015-12-13T07:23:38Z</time>
      </trkpt>
      <trkpt lat="50.75994" lon="3.76956">
        <ele>84</ele>
        <time>2015-12-13T07:23:39Z</time>
      </trkpt>
      <trkpt lat="50.75997" lon="3.76952">
        <ele>83.3</ele>
        <time>2015-12-13T07:23:41Z</time>
      </trkpt>
      <trkpt lat="50.75999" lon="3.76948">
        <ele>83</ele>
        <time>2015-12-13T07:23:43Z</time>
      </trkpt>
      <trkpt lat="50.76" lon="3.76944">
        <ele>83</ele>
        <time>2015-12-13T07:23:45Z</time>
      </trkpt>
      <trkpt lat="50.76002" lon="3.76942">
        <ele>83</ele>
        <time>2015-12-13T07:23:47Z</time>
      </trkpt>
      <trkpt lat="50.76005" lon="3.76938">
        <ele>83</ele>
        <time>2015-12-13T07:23:49Z</time>
      </trkpt>
      <trkpt lat="50.76007" lon="3.76934">
        <ele>82.3</ele>
        <time>2015-12-13T07:23:51Z</time>
      </trkpt>
      <trkpt lat="50.76008" lon="3.76929">
        <ele>82</ele>
        <time>2015-12-13T07:23:53Z</time>
      </trkpt>
      <trkpt lat="50.76009" lon="3.76923">
        <ele>82</ele>
        <time>2015-12-13T07:23:55Z</time>
      </trkpt>
      <trkpt lat="50.76009" lon="3.76919">
        <ele>82</ele>
        <time>2015-12-13T07:23:56Z</time>
      </trkpt>
      <trkpt lat="50.7601" lon="3.76916">
        <ele>82</ele>
        <time>2015-12-13T07:23:57Z</time>
      </trkpt>
      <trkpt lat="50.7601" lon="3.7691">
        <ele>82</ele>
        <time>2015-12-13T07:23:59Z</time>
      </trkpt>
      <trkpt lat="50.76011" lon="3.76906">
        <ele>82</ele>
        <time>2015-12-13T07:24:00Z</time>
      </trkpt>
      <trkpt lat="50.76012" lon="3.76903">
        <ele>79.3</ele>
        <time>2015-12-13T07:24:01Z</time>
      </trkpt>
      <trkpt lat="50.76013" lon="3.76899">
        <ele>78</ele>
        <time>2015-12-13T07:24:02Z</time>
      </trkpt>
      <trkpt lat="50.76013" lon="3.76896">
        <ele>78</ele>
        <time>2015-12-13T07:24:03Z</time>
      </trkpt>
      <trkpt lat="50.76014" lon="3.76893">
        <ele>78</ele>
        <time>2015-12-13T07:24:04Z</time>
      </trkpt>
      <trkpt lat="50.76015" lon="3.76889">
        <ele>78</ele>
        <time>2015-12-13T07:24:05Z</time>
      </trkpt>
      <trkpt lat="50.76016" lon="3.76886">
        <ele>78</ele>
        <time>2015-12-13T07:24:06Z</time>
      </trkpt>
      <trkpt lat="50.76016" lon="3.76883">
        <ele>78</ele>
        <time>2015-12-13T07:24:07Z</time>
      </trkpt>
      <trkpt lat="50.76016" lon="3.7688">
        <ele>78</ele>
        <time>2015-12-13T07:24:08Z</time>
      </trkpt>
      <trkpt lat="50.76017" lon="3.76873">
        <ele>78</ele>
        <time>2015-12-13T07:24:10Z</time>
      </trkpt>
      <trkpt lat="50.76017" lon="3.7687">
        <ele>77.3</ele>
        <time>2015-12-13T07:24:11Z</time>
      </trkpt>
      <trkpt lat="50.76018" lon="3.76866">
        <ele>77</ele>
        <time>2015-12-13T07:24:12Z</time>
      </trkpt>
      <trkpt lat="50.76018" lon="3.76862">
        <ele>77</ele>
        <time>2015-12-13T07:24:13Z</time>
      </trkpt>
      <trkpt lat="50.76018" lon="3.76859">
        <ele>77</ele>
        <time>2015-12-13T07:24:14Z</time>
      </trkpt>
      <trkpt lat="50.76018" lon="3.76856">
        <ele>77</ele>
        <time>2015-12-13T07:24:15Z</time>
      </trkpt>
      <trkpt lat="50.76018" lon="3.76853">
        <ele>77</ele>
        <time>2015-12-13T07:24:16Z</time>
      </trkpt>
      <trkpt lat="50.76017" lon="3.7685">
        <ele>77</ele>
        <time>2015-12-13T07:24:17Z</time>
      </trkpt>
      <trkpt lat="50.76017" lon="3.76847">
        <ele>77</ele>
        <time>2015-12-13T07:24:18Z</time>
      </trkpt>
      <trkpt lat="50.76016" lon="3.76844">
        <ele>77</ele>
        <time>2015-12-13T07:24:19Z</time>
      </trkpt>
      <trkpt lat="50.76016" lon="3.76841">
        <ele>77</ele>
        <time>2015-12-13T07:24:20Z</time>
      </trkpt>
      <trkpt lat="50.76016" lon="3.76838">
        <ele>75.6</ele>
        <time>2015-12-13T07:24:21Z</time>
      </trkpt>
      <trkpt lat="50.76015" lon="3.76835">
        <ele>75</ele>
        <time>2015-12-13T07:24:22Z</time>
      </trkpt>
      <trkpt lat="50.76015" lon="3.76832">
        <ele>75</ele>
        <time>2015-12-13T07:24:23Z</time>
      </trkpt>
      <trkpt lat="50.76015" lon="3.76829">
        <ele>75</ele>
        <time>2015-12-13T07:24:24Z</time>
      </trkpt>
      <trkpt lat="50.76015" lon="3.76825">
        <ele>75</ele>
        <time>2015-12-13T07:24:25Z</time>
      </trkpt>
      <trkpt lat="50.76015" lon="3.76821">
        <ele>73.6</ele>
        <time>2015-12-13T07:24:26Z</time>
      </trkpt>
      <trkpt lat="50.76016" lon="3.76818">
        <ele>73</ele>
        <time>2015-12-13T07:24:27Z</time>
      </trkpt>
      <trkpt lat="50.76016" lon="3.76815">
        <ele>73</ele>
        <time>2015-12-13T07:24:28Z</time>
      </trkpt>
      <trkpt lat="50.76017" lon="3.76809">
        <ele>73</ele>
        <time>2015-12-13T07:24:30Z</time>
      </trkpt>
      <trkpt lat="50.76017" lon="3.76806">
        <ele>72.3</ele>
        <time>2015-12-13T07:24:31Z</time>
      </trkpt>
      <trkpt lat="50.76018" lon="3.76803">
        <ele>72</ele>
        <time>2015-12-13T07:24:32Z</time>
      </trkpt>
      <trkpt lat="50.76018" lon="3.768">
        <ele>72</ele>
        <time>2015-12-13T07:24:33Z</time>
      </trkpt>
      <trkpt lat="50.76019" lon="3.76795">
        <ele>72</ele>
        <time>2015-12-13T07:24:35Z</time>
      </trkpt>
      <trkpt lat="50.76021" lon="3.76789">
        <ele>72</ele>
        <time>2015-12-13T07:24:37Z</time>
      </trkpt>
      <trkpt lat="50.76021" lon="3.76786">
        <ele>72</ele>
        <time>2015-12-13T07:24:38Z</time>
      </trkpt>
      <trkpt lat="50.76022" lon="3.76781">
        <ele>72</ele>
        <time>2015-12-13T07:24:40Z</time>
      </trkpt>
      <trkpt lat="50.76023" lon="3.76776">
        <ele>72</ele>
        <time>2015-12-13T07:24:42Z</time>
      </trkpt>
      <trkpt lat="50.76022" lon="3.76772">
        <ele>72</ele>
        <time>2015-12-13T07:24:44Z</time>
      </trkpt>
      <trkpt lat="50.76021" lon="3.76769">
        <ele>72</ele>
        <time>2015-12-13T07:24:46Z</time>
      </trkpt>
      <trkpt lat="50.76019" lon="3.76766">
        <ele>72</ele>
        <time>2015-12-13T07:24:48Z</time>
      </trkpt>
      <trkpt lat="50.76017" lon="3.76763">
        <ele>72</ele>
        <time>2015-12-13T07:24:50Z</time>
      </trkpt>
      <trkpt lat="50.76015" lon="3.7676">
        <ele>73</ele>
        <time>2015-12-13T07:24:52Z</time>
      </trkpt>
      <trkpt lat="50.76013" lon="3.76759">
        <ele>73</ele>
        <time>2015-12-13T07:24:54Z</time>
      </trkpt>
      <trkpt lat="50.7601" lon="3.76759">
        <ele>73</ele>
        <time>2015-12-13T07:24:56Z</time>
      </trkpt>
      <trkpt lat="50.76007" lon="3.7676">
        <ele>74</ele>
        <time>2015-12-13T07:24:58Z</time>
      </trkpt>
      <trkpt lat="50.76004" lon="3.76759">
        <ele>74</ele>
        <time>2015-12-13T07:25:00Z</time>
      </trkpt>
      <trkpt lat="50.76003" lon="3.76756">
        <ele>78</ele>
        <time>2015-12-13T07:25:02Z</time>
      </trkpt>
      <trkpt lat="50.76001" lon="3.76752">
        <ele>78</ele>
        <time>2015-12-13T07:25:04Z</time>
      </trkpt>
      <trkpt lat="50.75999" lon="3.76747">
        <ele>78</ele>
        <time>2015-12-13T07:25:06Z</time>
      </trkpt>
      <trkpt lat="50.75999" lon="3.76743">
        <ele>78</ele>
        <time>2015-12-13T07:25:08Z</time>
      </trkpt>
      <trkpt lat="50.75997" lon="3.76738">
        <ele>78</ele>
        <time>2015-12-13T07:25:10Z</time>
      </trkpt>
      <trkpt lat="50.75995" lon="3.76734">
        <ele>79</ele>
        <time>2015-12-13T07:25:12Z</time>
      </trkpt>
      <trkpt lat="50.75994" lon="3.76732">
        <ele>79</ele>
        <time>2015-12-13T07:25:14Z</time>
      </trkpt>
      <trkpt lat="50.75992" lon="3.76728">
        <ele>79</ele>
        <time>2015-12-13T07:25:16Z</time>
      </trkpt>
      <trkpt lat="50.75992" lon="3.76725">
        <ele>79</ele>
        <time>2015-12-13T07:25:18Z</time>
      </trkpt>
      <trkpt lat="50.75991" lon="3.76722">
        <ele>79</ele>
        <time>2015-12-13T07:25:20Z</time>
      </trkpt>
      <trkpt lat="50.75991" lon="3.76718">
        <ele>79</ele>
        <time>2015-12-13T07:25:22Z</time>
      </trkpt>
      <trkpt lat="50.75991" lon="3.76714">
        <ele>79</ele>
        <time>2015-12-13T07:25:24Z</time>
      </trkpt>
      <trkpt lat="50.7599" lon="3.76711">
        <ele>79</ele>
        <time>2015-12-13T07:25:26Z</time>
      </trkpt>
      <trkpt lat="50.7599" lon="3.76707">
        <ele>79</ele>
        <time>2015-12-13T07:25:28Z</time>
      </trkpt>
      <trkpt lat="50.75989" lon="3.76704">
        <ele>79</ele>
        <time>2015-12-13T07:25:29Z</time>
      </trkpt>
      <trkpt lat="50.75989" lon="3.767">
        <ele>79</ele>
        <time>2015-12-13T07:25:31Z</time>
      </trkpt>
      <trkpt lat="50.75987" lon="3.76696">
        <ele>79</ele>
        <time>2015-12-13T07:25:33Z</time>
      </trkpt>
      <trkpt lat="50.75987" lon="3.76693">
        <ele>79</ele>
        <time>2015-12-13T07:25:35Z</time>
      </trkpt>
      <trkpt lat="50.75985" lon="3.7669">
        <ele>79</ele>
        <time>2015-12-13T07:25:37Z</time>
      </trkpt>
      <trkpt lat="50.75985" lon="3.76686">
        <ele>79</ele>
        <time>2015-12-13T07:25:39Z</time>
      </trkpt>
      <trkpt lat="50.75984" lon="3.76683">
        <ele>79.7</ele>
        <time>2015-12-13T07:25:41Z</time>
      </trkpt>
      <trkpt lat="50.75983" lon="3.7668">
        <ele>80</ele>
        <time>2015-12-13T07:25:43Z</time>
      </trkpt>
      <trkpt lat="50.75982" lon="3.76676">
        <ele>80</ele>
        <time>2015-12-13T07:25:46Z</time>
      </trkpt>
      <trkpt lat="50.75981" lon="3.76673">
        <ele>80</ele>
        <time>2015-12-13T07:25:48Z</time>
      </trkpt>
      <trkpt lat="50.7598" lon="3.76669">
        <ele>80</ele>
        <time>2015-12-13T07:25:50Z</time>
      </trkpt>
      <trkpt lat="50.75979" lon="3.76666">
        <ele>81</ele>
        <time>2015-12-13T07:25:52Z</time>
      </trkpt>
      <trkpt lat="50.75977" lon="3.76663">
        <ele>81</ele>
        <time>2015-12-13T07:25:54Z</time>
      </trkpt>
      <trkpt lat="50.75975" lon="3.76661">
        <ele>81</ele>
        <time>2015-12-13T07:25:56Z</time>
      </trkpt>
      <trkpt lat="50.75973" lon="3.7666">
        <ele>81</ele>
        <time>2015-12-13T07:25:58Z</time>
      </trkpt>
      <trkpt lat="50.75973" lon="3.76657">
        <ele>81</ele>
        <time>2015-12-13T07:26:00Z</time>
      </trkpt>
      <trkpt lat="50.75972" lon="3.76653">
        <ele>81</ele>
        <time>2015-12-13T07:26:02Z</time>
      </trkpt>
      <trkpt lat="50.75972" lon="3.76649">
        <ele>81</ele>
        <time>2015-12-13T07:26:04Z</time>
      </trkpt>
      <trkpt lat="50.75972" lon="3.76644">
        <ele>81</ele>
        <time>2015-12-13T07:26:06Z</time>
      </trkpt>
      <trkpt lat="50.75972" lon="3.7664">
        <ele>81.7</ele>
        <time>2015-12-13T07:26:08Z</time>
      </trkpt>
      <trkpt lat="50.75971" lon="3.76636">
        <ele>82</ele>
        <time>2015-12-13T07:26:10Z</time>
      </trkpt>
      <trkpt lat="50.75971" lon="3.76633">
        <ele>82</ele>
        <time>2015-12-13T07:26:12Z</time>
      </trkpt>
      <trkpt lat="50.75971" lon="3.7663">
        <ele>82</ele>
        <time>2015-12-13T07:26:14Z</time>
      </trkpt>
      <trkpt lat="50.75969" lon="3.76627">
        <ele>82</ele>
        <time>2015-12-13T07:26:17Z</time>
      </trkpt>
      <trkpt lat="50.75968" lon="3.76623">
        <ele>82</ele>
        <time>2015-12-13T07:26:19Z</time>
      </trkpt>
      <trkpt lat="50.75969" lon="3.76619">
        <ele>81.3</ele>
        <time>2015-12-13T07:26:21Z</time>
      </trkpt>
      <trkpt lat="50.7597" lon="3.76615">
        <ele>81</ele>
        <time>2015-12-13T07:26:23Z</time>
      </trkpt>
      <trkpt lat="50.7597" lon="3.76611">
        <ele>81</ele>
        <time>2015-12-13T07:26:25Z</time>
      </trkpt>
      <trkpt lat="50.75969" lon="3.76606">
        <ele>81</ele>
        <time>2015-12-13T07:26:27Z</time>
      </trkpt>
      <trkpt lat="50.75969" lon="3.76603">
        <ele>81</ele>
        <time>2015-12-13T07:26:29Z</time>
      </trkpt>
      <trkpt lat="50.7597" lon="3.76599">
        <ele>81</ele>
        <time>2015-12-13T07:26:31Z</time>
      </trkpt>
      <trkpt lat="50.75971" lon="3.76595">
        <ele>81</ele>
        <time>2015-12-13T07:26:33Z</time>
      </trkpt>
      <trkpt lat="50.75972" lon="3.7659">
        <ele>81</ele>
        <time>2015-12-13T07:26:35Z</time>
      </trkpt>
      <trkpt lat="50.75973" lon="3.76586">
        <ele>81</ele>
        <time>2015-12-13T07:26:37Z</time>
      </trkpt>
      <trkpt lat="50.75973" lon="3.76582">
        <ele>81</ele>
        <time>2015-12-13T07:26:40Z</time>
      </trkpt>
      <trkpt lat="50.75972" lon="3.76579">
        <ele>81</ele>
        <time>2015-12-13T07:26:42Z</time>
      </trkpt>
      <trkpt lat="50.75972" lon="3.76575">
        <ele>81</ele>
        <time>2015-12-13T07:26:44Z</time>
      </trkpt>
      <trkpt lat="50.75971" lon="3.76571">
        <ele>81</ele>
        <time>2015-12-13T07:26:47Z</time>
      </trkpt>
      <trkpt lat="50.7597" lon="3.76568">
        <ele>81</ele>
        <time>2015-12-13T07:26:49Z</time>
      </trkpt>
      <trkpt lat="50.7597" lon="3.76565">
        <ele>82.4</ele>
        <time>2015-12-13T07:26:51Z</time>
      </trkpt>
      <trkpt lat="50.7597" lon="3.76562">
        <ele>83</ele>
        <time>2015-12-13T07:26:53Z</time>
      </trkpt>
      <trkpt lat="50.75969" lon="3.76558">
        <ele>83</ele>
        <time>2015-12-13T07:26:56Z</time>
      </trkpt>
      <trkpt lat="50.75967" lon="3.76556">
        <ele>83</ele>
        <time>2015-12-13T07:26:59Z</time>
      </trkpt>
      <trkpt lat="50.75966" lon="3.76553">
        <ele>83.7</ele>
        <time>2015-12-13T07:27:01Z</time>
      </trkpt>
      <trkpt lat="50.75965" lon="3.7655">
        <ele>84</ele>
        <time>2015-12-13T07:27:04Z</time>
      </trkpt>
      <trkpt lat="50.75963" lon="3.76549">
        <ele>84</ele>
        <time>2015-12-13T07:27:06Z</time>
      </trkpt>
      <trkpt lat="50.75962" lon="3.76547">
        <ele>84</ele>
        <time>2015-12-13T07:27:08Z</time>
      </trkpt>
      <trkpt lat="50.75959" lon="3.76545">
        <ele>84.7</ele>
        <time>2015-12-13T07:27:11Z</time>
      </trkpt>
      <trkpt lat="50.75958" lon="3.76542">
        <ele>85</ele>
        <time>2015-12-13T07:27:13Z</time>
      </trkpt>
      <trkpt lat="50.75956" lon="3.76539">
        <ele>85</ele>
        <time>2015-12-13T07:27:15Z</time>
      </trkpt>
      <trkpt lat="50.75955" lon="3.76536">
        <ele>85</ele>
        <time>2015-12-13T07:27:17Z</time>
      </trkpt>
      <trkpt lat="50.75953" lon="3.76534">
        <ele>85</ele>
        <time>2015-12-13T07:27:19Z</time>
      </trkpt>
      <trkpt lat="50.75952" lon="3.76531">
        <ele>87</ele>
        <time>2015-12-13T07:27:22Z</time>
      </trkpt>
      <trkpt lat="50.75949" lon="3.76529">
        <ele>87</ele>
        <time>2015-12-13T07:27:24Z</time>
      </trkpt>
      <trkpt lat="50.75947" lon="3.76527">
        <ele>87</ele>
        <time>2015-12-13T07:27:26Z</time>
      </trkpt>
      <trkpt lat="50.75944" lon="3.76526">
        <ele>87</ele>
        <time>2015-12-13T07:27:28Z</time>
      </trkpt>
      <trkpt lat="50.75942" lon="3.76525">
        <ele>87</ele>
        <time>2015-12-13T07:27:30Z</time>
      </trkpt>
      <trkpt lat="50.75939" lon="3.76524">
        <ele>89</ele>
        <time>2015-12-13T07:27:32Z</time>
      </trkpt>
      <trkpt lat="50.75937" lon="3.76522">
        <ele>89</ele>
        <time>2015-12-13T07:27:34Z</time>
      </trkpt>
      <trkpt lat="50.75936" lon="3.7652">
        <ele>90.4</ele>
        <time>2015-12-13T07:27:36Z</time>
      </trkpt>
      <trkpt lat="50.75934" lon="3.76517">
        <ele>91</ele>
        <time>2015-12-13T07:27:39Z</time>
      </trkpt>
      <trkpt lat="50.75934" lon="3.76512">
        <ele>91</ele>
        <time>2015-12-13T07:27:41Z</time>
      </trkpt>
      <trkpt lat="50.75934" lon="3.76509">
        <ele>91</ele>
        <time>2015-12-13T07:27:42Z</time>
      </trkpt>
      <trkpt lat="50.75934" lon="3.76506">
        <ele>91</ele>
        <time>2015-12-13T07:27:43Z</time>
      </trkpt>
      <trkpt lat="50.75935" lon="3.76502">
        <ele>91</ele>
        <time>2015-12-13T07:27:44Z</time>
      </trkpt>
      <trkpt lat="50.75936" lon="3.76497">
        <ele>91</ele>
        <time>2015-12-13T07:27:46Z</time>
      </trkpt>
      <trkpt lat="50.75937" lon="3.76492">
        <ele>91</ele>
        <time>2015-12-13T07:27:48Z</time>
      </trkpt>
      <trkpt lat="50.75938" lon="3.7649">
        <ele>91</ele>
        <time>2015-12-13T07:27:49Z</time>
      </trkpt>
      <trkpt lat="50.75939" lon="3.76486">
        <ele>91</ele>
        <time>2015-12-13T07:27:50Z</time>
      </trkpt>
      <trkpt lat="50.7594" lon="3.76484">
        <ele>91</ele>
        <time>2015-12-13T07:27:51Z</time>
      </trkpt>
      <trkpt lat="50.75941" lon="3.7648">
        <ele>91</ele>
        <time>2015-12-13T07:27:52Z</time>
      </trkpt>
      <trkpt lat="50.75943" lon="3.76478">
        <ele>91</ele>
        <time>2015-12-13T07:27:53Z</time>
      </trkpt>
      <trkpt lat="50.75944" lon="3.76475">
        <ele>91</ele>
        <time>2015-12-13T07:27:54Z</time>
      </trkpt>
      <trkpt lat="50.75945" lon="3.76473">
        <ele>91</ele>
        <time>2015-12-13T07:27:55Z</time>
      </trkpt>
      <trkpt lat="50.75946" lon="3.7647">
        <ele>91</ele>
        <time>2015-12-13T07:27:56Z</time>
      </trkpt>
      <trkpt lat="50.75948" lon="3.76468">
        <ele>91</ele>
        <time>2015-12-13T07:27:57Z</time>
      </trkpt>
      <trkpt lat="50.75949" lon="3.76465">
        <ele>91</ele>
        <time>2015-12-13T07:27:58Z</time>
      </trkpt>
      <trkpt lat="50.7595" lon="3.76462">
        <ele>91</ele>
        <time>2015-12-13T07:27:59Z</time>
      </trkpt>
      <trkpt lat="50.75952" lon="3.76459">
        <ele>91</ele>
        <time>2015-12-13T07:28:00Z</time>
      </trkpt>
      <trkpt lat="50.75953" lon="3.76457">
        <ele>91</ele>
        <time>2015-12-13T07:28:01Z</time>
      </trkpt>
      <trkpt lat="50.75954" lon="3.76454">
        <ele>91</ele>
        <time>2015-12-13T07:28:02Z</time>
      </trkpt>
      <trkpt lat="50.75956" lon="3.7645">
        <ele>91</ele>
        <time>2015-12-13T07:28:04Z</time>
      </trkpt>
      <trkpt lat="50.75956" lon="3.76447">
        <ele>91</ele>
        <time>2015-12-13T07:28:05Z</time>
      </trkpt>
      <trkpt lat="50.75958" lon="3.76442">
        <ele>91</ele>
        <time>2015-12-13T07:28:07Z</time>
      </trkpt>
      <trkpt lat="50.75959" lon="3.76439">
        <ele>91</ele>
        <time>2015-12-13T07:28:08Z</time>
      </trkpt>
      <trkpt lat="50.7596" lon="3.76436">
        <ele>91</ele>
        <time>2015-12-13T07:28:09Z</time>
      </trkpt>
      <trkpt lat="50.7596" lon="3.76433">
        <ele>91</ele>
        <time>2015-12-13T07:28:10Z</time>
      </trkpt>
      <trkpt lat="50.75962" lon="3.76428">
        <ele>89</ele>
        <time>2015-12-13T07:28:12Z</time>
      </trkpt>
      <trkpt lat="50.75962" lon="3.76425">
        <ele>89</ele>
        <time>2015-12-13T07:28:13Z</time>
      </trkpt>
      <trkpt lat="50.75963" lon="3.76422">
        <ele>89</ele>
        <time>2015-12-13T07:28:14Z</time>
      </trkpt>
      <trkpt lat="50.75963" lon="3.76419">
        <ele>89</ele>
        <time>2015-12-13T07:28:15Z</time>
      </trkpt>
      <trkpt lat="50.75963" lon="3.76416">
        <ele>89</ele>
        <time>2015-12-13T07:28:16Z</time>
      </trkpt>
      <trkpt lat="50.75964" lon="3.7641">
        <ele>89</ele>
        <time>2015-12-13T07:28:18Z</time>
      </trkpt>
      <trkpt lat="50.75964" lon="3.76407">
        <ele>89</ele>
        <time>2015-12-13T07:28:19Z</time>
      </trkpt>
      <trkpt lat="50.75963" lon="3.76403">
        <ele>89</ele>
        <time>2015-12-13T07:28:20Z</time>
      </trkpt>
      <trkpt lat="50.75963" lon="3.764">
        <ele>87.6</ele>
        <time>2015-12-13T07:28:21Z</time>
      </trkpt>
      <trkpt lat="50.75963" lon="3.76397">
        <ele>87</ele>
        <time>2015-12-13T07:28:22Z</time>
      </trkpt>
      <trkpt lat="50.75962" lon="3.76395">
        <ele>87</ele>
        <time>2015-12-13T07:28:23Z</time>
      </trkpt>
      <trkpt lat="50.75962" lon="3.76392">
        <ele>87</ele>
        <time>2015-12-13T07:28:24Z</time>
      </trkpt>
      <trkpt lat="50.75961" lon="3.76389">
        <ele>87</ele>
        <time>2015-12-13T07:28:25Z</time>
      </trkpt>
      <trkpt lat="50.75961" lon="3.76385">
        <ele>87</ele>
        <time>2015-12-13T07:28:26Z</time>
      </trkpt>
      <trkpt lat="50.75961" lon="3.76382">
        <ele>87</ele>
        <time>2015-12-13T07:28:27Z</time>
      </trkpt>
      <trkpt lat="50.7596" lon="3.76379">
        <ele>87</ele>
        <time>2015-12-13T07:28:28Z</time>
      </trkpt>
      <trkpt lat="50.7596" lon="3.76375">
        <ele>87</ele>
        <time>2015-12-13T07:28:29Z</time>
      </trkpt>
      <trkpt lat="50.7596" lon="3.76372">
        <ele>87</ele>
        <time>2015-12-13T07:28:30Z</time>
      </trkpt>
      <trkpt lat="50.75959" lon="3.76368">
        <ele>87</ele>
        <time>2015-12-13T07:28:31Z</time>
      </trkpt>
      <trkpt lat="50.75958" lon="3.76365">
        <ele>87</ele>
        <time>2015-12-13T07:28:32Z</time>
      </trkpt>
      <trkpt lat="50.75958" lon="3.76359">
        <ele>87</ele>
        <time>2015-12-13T07:28:34Z</time>
      </trkpt>
      <trkpt lat="50.75957" lon="3.76357">
        <ele>87</ele>
        <time>2015-12-13T07:28:35Z</time>
      </trkpt>
      <trkpt lat="50.75957" lon="3.76353">
        <ele>87</ele>
        <time>2015-12-13T07:28:36Z</time>
      </trkpt>
      <trkpt lat="50.75956" lon="3.7635">
        <ele>87</ele>
        <time>2015-12-13T07:28:37Z</time>
      </trkpt>
      <trkpt lat="50.75955" lon="3.76346">
        <ele>87</ele>
        <time>2015-12-13T07:28:38Z</time>
      </trkpt>
      <trkpt lat="50.75955" lon="3.76343">
        <ele>87</ele>
        <time>2015-12-13T07:28:39Z</time>
      </trkpt>
      <trkpt lat="50.75954" lon="3.7634">
        <ele>87</ele>
        <time>2015-12-13T07:28:40Z</time>
      </trkpt>
      <trkpt lat="50.75954" lon="3.76337">
        <ele>87</ele>
        <time>2015-12-13T07:28:41Z</time>
      </trkpt>
      <trkpt lat="50.75954" lon="3.76334">
        <ele>87</ele>
        <time>2015-12-13T07:28:42Z</time>
      </trkpt>
      <trkpt lat="50.75953" lon="3.7633">
        <ele>87</ele>
        <time>2015-12-13T07:28:43Z</time>
      </trkpt>
      <trkpt lat="50.75953" lon="3.76327">
        <ele>87</ele>
        <time>2015-12-13T07:28:44Z</time>
      </trkpt>
      <trkpt lat="50.75952" lon="3.76324">
        <ele>87</ele>
        <time>2015-12-13T07:28:45Z</time>
      </trkpt>
      <trkpt lat="50.75952" lon="3.76321">
        <ele>87</ele>
        <time>2015-12-13T07:28:46Z</time>
      </trkpt>
      <trkpt lat="50.75951" lon="3.76317">
        <ele>87</ele>
        <time>2015-12-13T07:28:47Z</time>
      </trkpt>
      <trkpt lat="50.75951" lon="3.76314">
        <ele>87</ele>
        <time>2015-12-13T07:28:48Z</time>
      </trkpt>
      <trkpt lat="50.75951" lon="3.76311">
        <ele>87</ele>
        <time>2015-12-13T07:28:49Z</time>
      </trkpt>
      <trkpt lat="50.7595" lon="3.76308">
        <ele>87</ele>
        <time>2015-12-13T07:28:50Z</time>
      </trkpt>
      <trkpt lat="50.7595" lon="3.76305">
        <ele>87</ele>
        <time>2015-12-13T07:28:51Z</time>
      </trkpt>
      <trkpt lat="50.75949" lon="3.76303">
        <ele>87</ele>
        <time>2015-12-13T07:28:52Z</time>
      </trkpt>
      <trkpt lat="50.75949" lon="3.763">
        <ele>87</ele>
        <time>2015-12-13T07:28:53Z</time>
      </trkpt>
      <trkpt lat="50.75949" lon="3.76297">
        <ele>87</ele>
        <time>2015-12-13T07:28:54Z</time>
      </trkpt>
      <trkpt lat="50.75949" lon="3.76294">
        <ele>87</ele>
        <time>2015-12-13T07:28:55Z</time>
      </trkpt>
      <trkpt lat="50.75948" lon="3.76291">
        <ele>87</ele>
        <time>2015-12-13T07:28:56Z</time>
      </trkpt>
      <trkpt lat="50.75948" lon="3.76288">
        <ele>87</ele>
        <time>2015-12-13T07:28:57Z</time>
      </trkpt>
      <trkpt lat="50.75948" lon="3.76282">
        <ele>87</ele>
        <time>2015-12-13T07:28:59Z</time>
      </trkpt>
      <trkpt lat="50.75948" lon="3.76277">
        <ele>87.5</ele>
        <time>2015-12-13T07:29:01Z</time>
      </trkpt>
      <trkpt lat="50.75948" lon="3.76272">
        <ele>88</ele>
        <time>2015-12-13T07:29:03Z</time>
      </trkpt>
      <trkpt lat="50.75948" lon="3.76267">
        <ele>88</ele>
        <time>2015-12-13T07:29:05Z</time>
      </trkpt>
      <trkpt lat="50.75948" lon="3.76262">
        <ele>88</ele>
        <time>2015-12-13T07:29:07Z</time>
      </trkpt>
      <trkpt lat="50.75948" lon="3.76257">
        <ele>88</ele>
        <time>2015-12-13T07:29:09Z</time>
      </trkpt>
      <trkpt lat="50.75948" lon="3.76254">
        <ele>88</ele>
        <time>2015-12-13T07:29:10Z</time>
      </trkpt>
      <trkpt lat="50.75948" lon="3.7625">
        <ele>88.7</ele>
        <time>2015-12-13T07:29:11Z</time>
      </trkpt>
      <trkpt lat="50.75948" lon="3.76247">
        <ele>89</ele>
        <time>2015-12-13T07:29:12Z</time>
      </trkpt>
      <trkpt lat="50.75949" lon="3.76244">
        <ele>89</ele>
        <time>2015-12-13T07:29:13Z</time>
      </trkpt>
      <trkpt lat="50.75949" lon="3.7624">
        <ele>89</ele>
        <time>2015-12-13T07:29:14Z</time>
      </trkpt>
      <trkpt lat="50.7595" lon="3.76237">
        <ele>89</ele>
        <time>2015-12-13T07:29:15Z</time>
      </trkpt>
      <trkpt lat="50.7595" lon="3.76234">
        <ele>89</ele>
        <time>2015-12-13T07:29:16Z</time>
      </trkpt>
      <trkpt lat="50.7595" lon="3.7623">
        <ele>89</ele>
        <time>2015-12-13T07:29:17Z</time>
      </trkpt>
      <trkpt lat="50.75951" lon="3.76227">
        <ele>89</ele>
        <time>2015-12-13T07:29:18Z</time>
      </trkpt>
      <trkpt lat="50.75951" lon="3.76224">
        <ele>89</ele>
        <time>2015-12-13T07:29:19Z</time>
      </trkpt>
      <trkpt lat="50.75951" lon="3.76221">
        <ele>89</ele>
        <time>2015-12-13T07:29:20Z</time>
      </trkpt>
      <trkpt lat="50.75952" lon="3.76218">
        <ele>89</ele>
        <time>2015-12-13T07:29:21Z</time>
      </trkpt>
      <trkpt lat="50.75952" lon="3.76215">
        <ele>89</ele>
        <time>2015-12-13T07:29:22Z</time>
      </trkpt>
      <trkpt lat="50.75953" lon="3.76213">
        <ele>89</ele>
        <time>2015-12-13T07:29:23Z</time>
      </trkpt>
      <trkpt lat="50.75954" lon="3.7621">
        <ele>89</ele>
        <time>2015-12-13T07:29:24Z</time>
      </trkpt>
      <trkpt lat="50.75955" lon="3.76207">
        <ele>89</ele>
        <time>2015-12-13T07:29:25Z</time>
      </trkpt>
      <trkpt lat="50.75956" lon="3.76204">
        <ele>89</ele>
        <time>2015-12-13T07:29:26Z</time>
      </trkpt>
      <trkpt lat="50.75957" lon="3.762">
        <ele>89</ele>
        <time>2015-12-13T07:29:27Z</time>
      </trkpt>
      <trkpt lat="50.75957" lon="3.76197">
        <ele>89</ele>
        <time>2015-12-13T07:29:28Z</time>
      </trkpt>
      <trkpt lat="50.75958" lon="3.76194">
        <ele>89</ele>
        <time>2015-12-13T07:29:29Z</time>
      </trkpt>
      <trkpt lat="50.75958" lon="3.7619">
        <ele>89</ele>
        <time>2015-12-13T07:29:30Z</time>
      </trkpt>
      <trkpt lat="50.75958" lon="3.76187">
        <ele>89</ele>
        <time>2015-12-13T07:29:31Z</time>
      </trkpt>
      <trkpt lat="50.75959" lon="3.76184">
        <ele>89</ele>
        <time>2015-12-13T07:29:32Z</time>
      </trkpt>
      <trkpt lat="50.75959" lon="3.7618">
        <ele>89</ele>
        <time>2015-12-13T07:29:33Z</time>
      </trkpt>
      <trkpt lat="50.7596" lon="3.76176">
        <ele>89</ele>
        <time>2015-12-13T07:29:34Z</time>
      </trkpt>
      <trkpt lat="50.7596" lon="3.76172">
        <ele>89</ele>
        <time>2015-12-13T07:29:35Z</time>
      </trkpt>
      <trkpt lat="50.7596" lon="3.76169">
        <ele>89</ele>
        <time>2015-12-13T07:29:36Z</time>
      </trkpt>
      <trkpt lat="50.75961" lon="3.76165">
        <ele>89</ele>
        <time>2015-12-13T07:29:37Z</time>
      </trkpt>
      <trkpt lat="50.75961" lon="3.76161">
        <ele>89</ele>
        <time>2015-12-13T07:29:38Z</time>
      </trkpt>
      <trkpt lat="50.75961" lon="3.76157">
        <ele>89</ele>
        <time>2015-12-13T07:29:39Z</time>
      </trkpt>
      <trkpt lat="50.75962" lon="3.76153">
        <ele>89</ele>
        <time>2015-12-13T07:29:40Z</time>
      </trkpt>
      <trkpt lat="50.75962" lon="3.76149">
        <ele>89</ele>
        <time>2015-12-13T07:29:41Z</time>
      </trkpt>
      <trkpt lat="50.75961" lon="3.76146">
        <ele>89</ele>
        <time>2015-12-13T07:29:42Z</time>
      </trkpt>
      <trkpt lat="50.75961" lon="3.76143">
        <ele>89</ele>
        <time>2015-12-13T07:29:43Z</time>
      </trkpt>
      <trkpt lat="50.75961" lon="3.7614">
        <ele>89</ele>
        <time>2015-12-13T07:29:44Z</time>
      </trkpt>
      <trkpt lat="50.7596" lon="3.76137">
        <ele>89</ele>
        <time>2015-12-13T07:29:45Z</time>
      </trkpt>
      <trkpt lat="50.75959" lon="3.76134">
        <ele>89</ele>
        <time>2015-12-13T07:29:46Z</time>
      </trkpt>
      <trkpt lat="50.75959" lon="3.7613">
        <ele>89</ele>
        <time>2015-12-13T07:29:47Z</time>
      </trkpt>
      <trkpt lat="50.75958" lon="3.76127">
        <ele>89</ele>
        <time>2015-12-13T07:29:48Z</time>
      </trkpt>
      <trkpt lat="50.75957" lon="3.76124">
        <ele>89</ele>
        <time>2015-12-13T07:29:49Z</time>
      </trkpt>
      <trkpt lat="50.75957" lon="3.7612">
        <ele>89</ele>
        <time>2015-12-13T07:29:50Z</time>
      </trkpt>
      <trkpt lat="50.75957" lon="3.76117">
        <ele>90.4</ele>
        <time>2015-12-13T07:29:51Z</time>
      </trkpt>
      <trkpt lat="50.75956" lon="3.76114">
        <ele>91</ele>
        <time>2015-12-13T07:29:52Z</time>
      </trkpt>
      <trkpt lat="50.75955" lon="3.7611">
        <ele>91</ele>
        <time>2015-12-13T07:29:53Z</time>
      </trkpt>
      <trkpt lat="50.75955" lon="3.76107">
        <ele>91</ele>
        <time>2015-12-13T07:29:54Z</time>
      </trkpt>
      <trkpt lat="50.75955" lon="3.76103">
        <ele>91</ele>
        <time>2015-12-13T07:29:55Z</time>
      </trkpt>
      <trkpt lat="50.75954" lon="3.76099">
        <ele>91</ele>
        <time>2015-12-13T07:29:56Z</time>
      </trkpt>
      <trkpt lat="50.75954" lon="3.76096">
        <ele>91</ele>
        <time>2015-12-13T07:29:57Z</time>
      </trkpt>
      <trkpt lat="50.75954" lon="3.76093">
        <ele>91</ele>
        <time>2015-12-13T07:29:58Z</time>
      </trkpt>
      <trkpt lat="50.75954" lon="3.76089">
        <ele>91</ele>
        <time>2015-12-13T07:29:59Z</time>
      </trkpt>
      <trkpt lat="50.75954" lon="3.76086">
        <ele>91</ele>
        <time>2015-12-13T07:30:00Z</time>
      </trkpt>
      <trkpt lat="50.75954" lon="3.76082">
        <ele>91</ele>
        <time>2015-12-13T07:30:01Z</time>
      </trkpt>
      <trkpt lat="50.75954" lon="3.76078">
        <ele>90.3</ele>
        <time>2015-12-13T07:30:02Z</time>
      </trkpt>
      <trkpt lat="50.75954" lon="3.76075">
        <ele>90</ele>
        <time>2015-12-13T07:30:03Z</time>
      </trkpt>
      <trkpt lat="50.75953" lon="3.76072">
        <ele>90</ele>
        <time>2015-12-13T07:30:04Z</time>
      </trkpt>
      <trkpt lat="50.75953" lon="3.76069">
        <ele>90</ele>
        <time>2015-12-13T07:30:05Z</time>
      </trkpt>
      <trkpt lat="50.75953" lon="3.76066">
        <ele>90</ele>
        <time>2015-12-13T07:30:06Z</time>
      </trkpt>
      <trkpt lat="50.75953" lon="3.76063">
        <ele>90</ele>
        <time>2015-12-13T07:30:07Z</time>
      </trkpt>
      <trkpt lat="50.75953" lon="3.76059">
        <ele>90</ele>
        <time>2015-12-13T07:30:08Z</time>
      </trkpt>
      <trkpt lat="50.75953" lon="3.76056">
        <ele>90</ele>
        <time>2015-12-13T07:30:09Z</time>
      </trkpt>
      <trkpt lat="50.75954" lon="3.76053">
        <ele>90</ele>
        <time>2015-12-13T07:30:10Z</time>
      </trkpt>
      <trkpt lat="50.75956" lon="3.76051">
        <ele>90</ele>
        <time>2015-12-13T07:30:11Z</time>
      </trkpt>
      <trkpt lat="50.75958" lon="3.76049">
        <ele>89.3</ele>
        <time>2015-12-13T07:30:12Z</time>
      </trkpt>
      <trkpt lat="50.75959" lon="3.76047">
        <ele>89</ele>
        <time>2015-12-13T07:30:13Z</time>
      </trkpt>
      <trkpt lat="50.75961" lon="3.76046">
        <ele>89</ele>
        <time>2015-12-13T07:30:14Z</time>
      </trkpt>
      <trkpt lat="50.75963" lon="3.76044">
        <ele>89</ele>
        <time>2015-12-13T07:30:15Z</time>
      </trkpt>
      <trkpt lat="50.75966" lon="3.76043">
        <ele>89</ele>
        <time>2015-12-13T07:30:16Z</time>
      </trkpt>
      <trkpt lat="50.75968" lon="3.76041">
        <ele>89</ele>
        <time>2015-12-13T07:30:17Z</time>
      </trkpt>
      <trkpt lat="50.7597" lon="3.7604">
        <ele>89</ele>
        <time>2015-12-13T07:30:18Z</time>
      </trkpt>
      <trkpt lat="50.75972" lon="3.76039">
        <ele>89</ele>
        <time>2015-12-13T07:30:19Z</time>
      </trkpt>
      <trkpt lat="50.75974" lon="3.76038">
        <ele>89</ele>
        <time>2015-12-13T07:30:20Z</time>
      </trkpt>
      <trkpt lat="50.75976" lon="3.76036">
        <ele>89</ele>
        <time>2015-12-13T07:30:21Z</time>
      </trkpt>
      <trkpt lat="50.75978" lon="3.76035">
        <ele>87.6</ele>
        <time>2015-12-13T07:30:22Z</time>
      </trkpt>
      <trkpt lat="50.7598" lon="3.76034">
        <ele>87</ele>
        <time>2015-12-13T07:30:23Z</time>
      </trkpt>
      <trkpt lat="50.75982" lon="3.76033">
        <ele>87</ele>
        <time>2015-12-13T07:30:24Z</time>
      </trkpt>
      <trkpt lat="50.75984" lon="3.76031">
        <ele>87</ele>
        <time>2015-12-13T07:30:25Z</time>
      </trkpt>
      <trkpt lat="50.75986" lon="3.7603">
        <ele>87</ele>
        <time>2015-12-13T07:30:26Z</time>
      </trkpt>
      <trkpt lat="50.75988" lon="3.76029">
        <ele>85</ele>
        <time>2015-12-13T07:30:27Z</time>
      </trkpt>
      <trkpt lat="50.7599" lon="3.76028">
        <ele>84</ele>
        <time>2015-12-13T07:30:28Z</time>
      </trkpt>
      <trkpt lat="50.75993" lon="3.76027">
        <ele>84</ele>
        <time>2015-12-13T07:30:29Z</time>
      </trkpt>
      <trkpt lat="50.75995" lon="3.76025">
        <ele>84</ele>
        <time>2015-12-13T07:30:30Z</time>
      </trkpt>
      <trkpt lat="50.75997" lon="3.76022">
        <ele>84</ele>
        <time>2015-12-13T07:30:31Z</time>
      </trkpt>
      <trkpt lat="50.75997" lon="3.76018">
        <ele>83.3</ele>
        <time>2015-12-13T07:30:32Z</time>
      </trkpt>
      <trkpt lat="50.75997" lon="3.76015">
        <ele>83</ele>
        <time>2015-12-13T07:30:33Z</time>
      </trkpt>
      <trkpt lat="50.75996" lon="3.76012">
        <ele>83</ele>
        <time>2015-12-13T07:30:34Z</time>
      </trkpt>
      <trkpt lat="50.75995" lon="3.76009">
        <ele>83</ele>
        <time>2015-12-13T07:30:35Z</time>
      </trkpt>
      <trkpt lat="50.75994" lon="3.76006">
        <ele>83</ele>
        <time>2015-12-13T07:30:36Z</time>
      </trkpt>
      <trkpt lat="50.75993" lon="3.76003">
        <ele>83</ele>
        <time>2015-12-13T07:30:37Z</time>
      </trkpt>
      <trkpt lat="50.75991" lon="3.76">
        <ele>83</ele>
        <time>2015-12-13T07:30:38Z</time>
      </trkpt>
      <trkpt lat="50.7599" lon="3.75997">
        <ele>83</ele>
        <time>2015-12-13T07:30:39Z</time>
      </trkpt>
      <trkpt lat="50.75989" lon="3.75994">
        <ele>83</ele>
        <time>2015-12-13T07:30:40Z</time>
      </trkpt>
      <trkpt lat="50.75988" lon="3.75991">
        <ele>83</ele>
        <time>2015-12-13T07:30:41Z</time>
      </trkpt>
      <trkpt lat="50.75987" lon="3.75988">
        <ele>83</ele>
        <time>2015-12-13T07:30:42Z</time>
      </trkpt>
      <trkpt lat="50.75985" lon="3.75985">
        <ele>83</ele>
        <time>2015-12-13T07:30:43Z</time>
      </trkpt>
      <trkpt lat="50.75985" lon="3.75982">
        <ele>83</ele>
        <time>2015-12-13T07:30:45Z</time>
      </trkpt>
      <trkpt lat="50.75984" lon="3.75977">
        <ele>83</ele>
        <time>2015-12-13T07:30:49Z</time>
      </trkpt>
      <trkpt lat="50.75983" lon="3.75975">
        <ele>83</ele>
        <time>2015-12-13T07:30:50Z</time>
      </trkpt>
      <trkpt lat="50.75981" lon="3.7597">
        <ele>83</ele>
        <time>2015-12-13T07:30:52Z</time>
      </trkpt>
      <trkpt lat="50.7598" lon="3.75967">
        <ele>83</ele>
        <time>2015-12-13T07:30:53Z</time>
      </trkpt>
      <trkpt lat="50.75979" lon="3.75964">
        <ele>83</ele>
        <time>2015-12-13T07:30:54Z</time>
      </trkpt>
      <trkpt lat="50.7598" lon="3.75961">
        <ele>83</ele>
        <time>2015-12-13T07:30:55Z</time>
      </trkpt>
      <trkpt lat="50.7598" lon="3.75958">
        <ele>83</ele>
        <time>2015-12-13T07:30:56Z</time>
      </trkpt>
      <trkpt lat="50.75981" lon="3.75954">
        <ele>83</ele>
        <time>2015-12-13T07:30:57Z</time>
      </trkpt>
      <trkpt lat="50.75982" lon="3.75952">
        <ele>83</ele>
        <time>2015-12-13T07:30:58Z</time>
      </trkpt>
      <trkpt lat="50.75983" lon="3.75949">
        <ele>83</ele>
        <time>2015-12-13T07:30:59Z</time>
      </trkpt>
      <trkpt lat="50.75984" lon="3.75947">
        <ele>83</ele>
        <time>2015-12-13T07:31:00Z</time>
      </trkpt>
      <trkpt lat="50.75986" lon="3.75944">
        <ele>83</ele>
        <time>2015-12-13T07:31:01Z</time>
      </trkpt>
      <trkpt lat="50.75987" lon="3.75942">
        <ele>83</ele>
        <time>2015-12-13T07:31:02Z</time>
      </trkpt>
      <trkpt lat="50.75989" lon="3.75939">
        <ele>83</ele>
        <time>2015-12-13T07:31:03Z</time>
      </trkpt>
      <trkpt lat="50.7599" lon="3.75936">
        <ele>83</ele>
        <time>2015-12-13T07:31:04Z</time>
      </trkpt>
      <trkpt lat="50.75992" lon="3.75934">
        <ele>83</ele>
        <time>2015-12-13T07:31:05Z</time>
      </trkpt>
      <trkpt lat="50.75993" lon="3.75931">
        <ele>83</ele>
        <time>2015-12-13T07:31:06Z</time>
      </trkpt>
      <trkpt lat="50.75995" lon="3.75929">
        <ele>83</ele>
        <time>2015-12-13T07:31:07Z</time>
      </trkpt>
      <trkpt lat="50.75996" lon="3.75927">
        <ele>83</ele>
        <time>2015-12-13T07:31:08Z</time>
      </trkpt>
      <trkpt lat="50.75998" lon="3.75923">
        <ele>83</ele>
        <time>2015-12-13T07:31:10Z</time>
      </trkpt>
      <trkpt lat="50.76" lon="3.7592">
        <ele>83</ele>
        <time>2015-12-13T07:31:12Z</time>
      </trkpt>
      <trkpt lat="50.76002" lon="3.75916">
        <ele>83</ele>
        <time>2015-12-13T07:31:14Z</time>
      </trkpt>
      <trkpt lat="50.76004" lon="3.75913">
        <ele>83</ele>
        <time>2015-12-13T07:31:16Z</time>
      </trkpt>
      <trkpt lat="50.76006" lon="3.75911">
        <ele>83</ele>
        <time>2015-12-13T07:31:18Z</time>
      </trkpt>
      <trkpt lat="50.76008" lon="3.75908">
        <ele>83</ele>
        <time>2015-12-13T07:31:20Z</time>
      </trkpt>
      <trkpt lat="50.76009" lon="3.75906">
        <ele>85</ele>
        <time>2015-12-13T07:31:25Z</time>
      </trkpt>
      <trkpt lat="50.76011" lon="3.75904">
        <ele>85</ele>
        <time>2015-12-13T07:31:27Z</time>
      </trkpt>
      <trkpt lat="50.76013" lon="3.75902">
        <ele>85</ele>
        <time>2015-12-13T07:31:29Z</time>
      </trkpt>
      <trkpt lat="50.76015" lon="3.75901">
        <ele>86</ele>
        <time>2015-12-13T07:31:32Z</time>
      </trkpt>
      <trkpt lat="50.76017" lon="3.75896">
        <ele>86</ele>
        <time>2015-12-13T07:31:35Z</time>
      </trkpt>
      <trkpt lat="50.76019" lon="3.75893">
        <ele>86</ele>
        <time>2015-12-13T07:31:37Z</time>
      </trkpt>
      <trkpt lat="50.76021" lon="3.75891">
        <ele>86</ele>
        <time>2015-12-13T07:31:39Z</time>
      </trkpt>
      <trkpt lat="50.76023" lon="3.75888">
        <ele>86.7</ele>
        <time>2015-12-13T07:31:41Z</time>
      </trkpt>
      <trkpt lat="50.76025" lon="3.75886">
        <ele>87</ele>
        <time>2015-12-13T07:31:43Z</time>
      </trkpt>
      <trkpt lat="50.76027" lon="3.75882">
        <ele>87</ele>
        <time>2015-12-13T07:31:45Z</time>
      </trkpt>
      <trkpt lat="50.76028" lon="3.75879">
        <ele>87</ele>
        <time>2015-12-13T07:31:47Z</time>
      </trkpt>
      <trkpt lat="50.7603" lon="3.75877">
        <ele>87</ele>
        <time>2015-12-13T07:31:49Z</time>
      </trkpt>
      <trkpt lat="50.76031" lon="3.75875">
        <ele>88.4</ele>
        <time>2015-12-13T07:31:51Z</time>
      </trkpt>
      <trkpt lat="50.76034" lon="3.75872">
        <ele>89</ele>
        <time>2015-12-13T07:31:53Z</time>
      </trkpt>
      <trkpt lat="50.76036" lon="3.7587">
        <ele>89</ele>
        <time>2015-12-13T07:31:55Z</time>
      </trkpt>
      <trkpt lat="50.76037" lon="3.75867">
        <ele>89</ele>
        <time>2015-12-13T07:31:57Z</time>
      </trkpt>
      <trkpt lat="50.76039" lon="3.75863">
        <ele>89</ele>
        <time>2015-12-13T07:31:59Z</time>
      </trkpt>
      <trkpt lat="50.76041" lon="3.7586">
        <ele>90.4</ele>
        <time>2015-12-13T07:32:01Z</time>
      </trkpt>
      <trkpt lat="50.76043" lon="3.75857">
        <ele>91</ele>
        <time>2015-12-13T07:32:03Z</time>
      </trkpt>
      <trkpt lat="50.76045" lon="3.75854">
        <ele>91</ele>
        <time>2015-12-13T07:32:05Z</time>
      </trkpt>
      <trkpt lat="50.76047" lon="3.75851">
        <ele>91</ele>
        <time>2015-12-13T07:32:07Z</time>
      </trkpt>
      <trkpt lat="50.76049" lon="3.75848">
        <ele>91</ele>
        <time>2015-12-13T07:32:09Z</time>
      </trkpt>
      <trkpt lat="50.76051" lon="3.75844">
        <ele>91</ele>
        <time>2015-12-13T07:32:11Z</time>
      </trkpt>
      <trkpt lat="50.76053" lon="3.7584">
        <ele>91</ele>
        <time>2015-12-13T07:32:13Z</time>
      </trkpt>
      <trkpt lat="50.76055" lon="3.75838">
        <ele>91</ele>
        <time>2015-12-13T07:32:14Z</time>
      </trkpt>
      <trkpt lat="50.76056" lon="3.75836">
        <ele>91</ele>
        <time>2015-12-13T07:32:15Z</time>
      </trkpt>
      <trkpt lat="50.76058" lon="3.75831">
        <ele>91</ele>
        <time>2015-12-13T07:32:17Z</time>
      </trkpt>
      <trkpt lat="50.76057" lon="3.75827">
        <ele>91</ele>
        <time>2015-12-13T07:32:18Z</time>
      </trkpt>
      <trkpt lat="50.76057" lon="3.75824">
        <ele>91</ele>
        <time>2015-12-13T07:32:19Z</time>
      </trkpt>
      <trkpt lat="50.76056" lon="3.75821">
        <ele>91</ele>
        <time>2015-12-13T07:32:20Z</time>
      </trkpt>
      <trkpt lat="50.76055" lon="3.75818">
        <ele>92.4</ele>
        <time>2015-12-13T07:32:21Z</time>
      </trkpt>
      <trkpt lat="50.76053" lon="3.75815">
        <ele>93</ele>
        <time>2015-12-13T07:32:22Z</time>
      </trkpt>
      <trkpt lat="50.76053" lon="3.75811">
        <ele>93</ele>
        <time>2015-12-13T07:32:23Z</time>
      </trkpt>
      <trkpt lat="50.76052" lon="3.75808">
        <ele>93</ele>
        <time>2015-12-13T07:32:24Z</time>
      </trkpt>
      <trkpt lat="50.76051" lon="3.75805">
        <ele>93</ele>
        <time>2015-12-13T07:32:25Z</time>
      </trkpt>
      <trkpt lat="50.7605" lon="3.75802">
        <ele>93</ele>
        <time>2015-12-13T07:32:26Z</time>
      </trkpt>
      <trkpt lat="50.76049" lon="3.75799">
        <ele>93</ele>
        <time>2015-12-13T07:32:27Z</time>
      </trkpt>
      <trkpt lat="50.76049" lon="3.75795">
        <ele>93</ele>
        <time>2015-12-13T07:32:28Z</time>
      </trkpt>
      <trkpt lat="50.76048" lon="3.75792">
        <ele>93</ele>
        <time>2015-12-13T07:32:29Z</time>
      </trkpt>
      <trkpt lat="50.76047" lon="3.75789">
        <ele>93</ele>
        <time>2015-12-13T07:32:30Z</time>
      </trkpt>
      <trkpt lat="50.76046" lon="3.75786">
        <ele>94.1</ele>
        <time>2015-12-13T07:32:31Z</time>
      </trkpt>
      <trkpt lat="50.76046" lon="3.75783">
        <ele>95</ele>
        <time>2015-12-13T07:32:32Z</time>
      </trkpt>
      <trkpt lat="50.76045" lon="3.7578">
        <ele>95</ele>
        <time>2015-12-13T07:32:33Z</time>
      </trkpt>
      <trkpt lat="50.76044" lon="3.75777">
        <ele>95</ele>
        <time>2015-12-13T07:32:34Z</time>
      </trkpt>
      <trkpt lat="50.76043" lon="3.75774">
        <ele>95</ele>
        <time>2015-12-13T07:32:35Z</time>
      </trkpt>
      <trkpt lat="50.76042" lon="3.75771">
        <ele>95</ele>
        <time>2015-12-13T07:32:36Z</time>
      </trkpt>
      <trkpt lat="50.76042" lon="3.75768">
        <ele>95</ele>
        <time>2015-12-13T07:32:37Z</time>
      </trkpt>
      <trkpt lat="50.76041" lon="3.75765">
        <ele>95</ele>
        <time>2015-12-13T07:32:38Z</time>
      </trkpt>
      <trkpt lat="50.7604" lon="3.75762">
        <ele>95</ele>
        <time>2015-12-13T07:32:39Z</time>
      </trkpt>
      <trkpt lat="50.76039" lon="3.75759">
        <ele>95</ele>
        <time>2015-12-13T07:32:40Z</time>
      </trkpt>
      <trkpt lat="50.76039" lon="3.75756">
        <ele>95.7</ele>
        <time>2015-12-13T07:32:41Z</time>
      </trkpt>
      <trkpt lat="50.76038" lon="3.75753">
        <ele>96</ele>
        <time>2015-12-13T07:32:42Z</time>
      </trkpt>
      <trkpt lat="50.76037" lon="3.7575">
        <ele>96</ele>
        <time>2015-12-13T07:32:43Z</time>
      </trkpt>
      <trkpt lat="50.76037" lon="3.75747">
        <ele>96</ele>
        <time>2015-12-13T07:32:44Z</time>
      </trkpt>
      <trkpt lat="50.76037" lon="3.75744">
        <ele>96</ele>
        <time>2015-12-13T07:32:45Z</time>
      </trkpt>
      <trkpt lat="50.76037" lon="3.75741">
        <ele>96</ele>
        <time>2015-12-13T07:32:46Z</time>
      </trkpt>
      <trkpt lat="50.76037" lon="3.75738">
        <ele>96</ele>
        <time>2015-12-13T07:32:47Z</time>
      </trkpt>
      <trkpt lat="50.76039" lon="3.75733">
        <ele>96</ele>
        <time>2015-12-13T07:32:49Z</time>
      </trkpt>
      <trkpt lat="50.7604" lon="3.7573">
        <ele>96</ele>
        <time>2015-12-13T07:32:50Z</time>
      </trkpt>
      <trkpt lat="50.76041" lon="3.75728">
        <ele>96.7</ele>
        <time>2015-12-13T07:32:51Z</time>
      </trkpt>
      <trkpt lat="50.76043" lon="3.75725">
        <ele>97</ele>
        <time>2015-12-13T07:32:52Z</time>
      </trkpt>
      <trkpt lat="50.76044" lon="3.75723">
        <ele>97</ele>
        <time>2015-12-13T07:32:53Z</time>
      </trkpt>
      <trkpt lat="50.76046" lon="3.7572">
        <ele>97</ele>
        <time>2015-12-13T07:32:54Z</time>
      </trkpt>
      <trkpt lat="50.76048" lon="3.75717">
        <ele>97</ele>
        <time>2015-12-13T07:32:55Z</time>
      </trkpt>
      <trkpt lat="50.76049" lon="3.75715">
        <ele>97</ele>
        <time>2015-12-13T07:32:56Z</time>
      </trkpt>
      <trkpt lat="50.76051" lon="3.75712">
        <ele>97</ele>
        <time>2015-12-13T07:32:57Z</time>
      </trkpt>
      <trkpt lat="50.76052" lon="3.7571">
        <ele>97</ele>
        <time>2015-12-13T07:32:58Z</time>
      </trkpt>
      <trkpt lat="50.76054" lon="3.75707">
        <ele>97</ele>
        <time>2015-12-13T07:32:59Z</time>
      </trkpt>
      <trkpt lat="50.76055" lon="3.75704">
        <ele>97</ele>
        <time>2015-12-13T07:33:00Z</time>
      </trkpt>
      <trkpt lat="50.76057" lon="3.75702">
        <ele>97.7</ele>
        <time>2015-12-13T07:33:01Z</time>
      </trkpt>
      <trkpt lat="50.76058" lon="3.757">
        <ele>98</ele>
        <time>2015-12-13T07:33:02Z</time>
      </trkpt>
      <trkpt lat="50.76059" lon="3.75697">
        <ele>98</ele>
        <time>2015-12-13T07:33:03Z</time>
      </trkpt>
      <trkpt lat="50.76061" lon="3.75695">
        <ele>98</ele>
        <time>2015-12-13T07:33:04Z</time>
      </trkpt>
      <trkpt lat="50.76062" lon="3.75692">
        <ele>98</ele>
        <time>2015-12-13T07:33:05Z</time>
      </trkpt>
      <trkpt lat="50.76063" lon="3.75689">
        <ele>98</ele>
        <time>2015-12-13T07:33:06Z</time>
      </trkpt>
      <trkpt lat="50.76065" lon="3.75687">
        <ele>98</ele>
        <time>2015-12-13T07:33:07Z</time>
      </trkpt>
      <trkpt lat="50.76066" lon="3.75684">
        <ele>98</ele>
        <time>2015-12-13T07:33:08Z</time>
      </trkpt>
      <trkpt lat="50.76068" lon="3.75682">
        <ele>98</ele>
        <time>2015-12-13T07:33:09Z</time>
      </trkpt>
      <trkpt lat="50.76069" lon="3.75679">
        <ele>98</ele>
        <time>2015-12-13T07:33:10Z</time>
      </trkpt>
      <trkpt lat="50.76071" lon="3.75677">
        <ele>98.7</ele>
        <time>2015-12-13T07:33:11Z</time>
      </trkpt>
      <trkpt lat="50.76072" lon="3.75674">
        <ele>99</ele>
        <time>2015-12-13T07:33:12Z</time>
      </trkpt>
      <trkpt lat="50.76074" lon="3.75672">
        <ele>99</ele>
        <time>2015-12-13T07:33:13Z</time>
      </trkpt>
      <trkpt lat="50.76075" lon="3.7567">
        <ele>99</ele>
        <time>2015-12-13T07:33:14Z</time>
      </trkpt>
      <trkpt lat="50.76077" lon="3.75667">
        <ele>99</ele>
        <time>2015-12-13T07:33:15Z</time>
      </trkpt>
      <trkpt lat="50.76078" lon="3.75664">
        <ele>99</ele>
        <time>2015-12-13T07:33:16Z</time>
      </trkpt>
      <trkpt lat="50.7608" lon="3.75662">
        <ele>99</ele>
        <time>2015-12-13T07:33:17Z</time>
      </trkpt>
      <trkpt lat="50.76081" lon="3.7566">
        <ele>99</ele>
        <time>2015-12-13T07:33:18Z</time>
      </trkpt>
      <trkpt lat="50.76082" lon="3.75658">
        <ele>99</ele>
        <time>2015-12-13T07:33:19Z</time>
      </trkpt>
      <trkpt lat="50.76084" lon="3.75655">
        <ele>99</ele>
        <time>2015-12-13T07:33:20Z</time>
      </trkpt>
      <trkpt lat="50.76085" lon="3.75653">
        <ele>99.7</ele>
        <time>2015-12-13T07:33:21Z</time>
      </trkpt>
      <trkpt lat="50.76086" lon="3.7565">
        <ele>100</ele>
        <time>2015-12-13T07:33:22Z</time>
      </trkpt>
      <trkpt lat="50.76088" lon="3.75648">
        <ele>100</ele>
        <time>2015-12-13T07:33:23Z</time>
      </trkpt>
      <trkpt lat="50.76089" lon="3.75646">
        <ele>100</ele>
        <time>2015-12-13T07:33:24Z</time>
      </trkpt>
      <trkpt lat="50.76091" lon="3.75643">
        <ele>100</ele>
        <time>2015-12-13T07:33:25Z</time>
      </trkpt>
      <trkpt lat="50.76092" lon="3.75641">
        <ele>100</ele>
        <time>2015-12-13T07:33:26Z</time>
      </trkpt>
      <trkpt lat="50.76093" lon="3.75638">
        <ele>100</ele>
        <time>2015-12-13T07:33:27Z</time>
      </trkpt>
      <trkpt lat="50.76095" lon="3.75636">
        <ele>100</ele>
        <time>2015-12-13T07:33:28Z</time>
      </trkpt>
      <trkpt lat="50.76096" lon="3.75633">
        <ele>100</ele>
        <time>2015-12-13T07:33:29Z</time>
      </trkpt>
      <trkpt lat="50.76098" lon="3.75631">
        <ele>100</ele>
        <time>2015-12-13T07:33:30Z</time>
      </trkpt>
      <trkpt lat="50.76099" lon="3.75628">
        <ele>100</ele>
        <time>2015-12-13T07:33:31Z</time>
      </trkpt>
      <trkpt lat="50.76101" lon="3.75626">
        <ele>100</ele>
        <time>2015-12-13T07:33:32Z</time>
      </trkpt>
      <trkpt lat="50.76102" lon="3.75624">
        <ele>100</ele>
        <time>2015-12-13T07:33:33Z</time>
      </trkpt>
      <trkpt lat="50.76103" lon="3.75621">
        <ele>100</ele>
        <time>2015-12-13T07:33:34Z</time>
      </trkpt>
      <trkpt lat="50.76105" lon="3.75619">
        <ele>100</ele>
        <time>2015-12-13T07:33:35Z</time>
      </trkpt>
      <trkpt lat="50.76106" lon="3.75616">
        <ele>100</ele>
        <time>2015-12-13T07:33:36Z</time>
      </trkpt>
      <trkpt lat="50.76107" lon="3.75613">
        <ele>100</ele>
        <time>2015-12-13T07:33:37Z</time>
      </trkpt>
      <trkpt lat="50.76108" lon="3.75611">
        <ele>100</ele>
        <time>2015-12-13T07:33:38Z</time>
      </trkpt>
      <trkpt lat="50.76109" lon="3.75608">
        <ele>100</ele>
        <time>2015-12-13T07:33:39Z</time>
      </trkpt>
      <trkpt lat="50.7611" lon="3.75605">
        <ele>100</ele>
        <time>2015-12-13T07:33:40Z</time>
      </trkpt>
      <trkpt lat="50.76111" lon="3.75602">
        <ele>101.4</ele>
        <time>2015-12-13T07:33:41Z</time>
      </trkpt>
      <trkpt lat="50.76112" lon="3.75599">
        <ele>102</ele>
        <time>2015-12-13T07:33:42Z</time>
      </trkpt>
      <trkpt lat="50.76112" lon="3.75596">
        <ele>102</ele>
        <time>2015-12-13T07:33:43Z</time>
      </trkpt>
      <trkpt lat="50.76113" lon="3.75593">
        <ele>102</ele>
        <time>2015-12-13T07:33:44Z</time>
      </trkpt>
      <trkpt lat="50.76113" lon="3.7559">
        <ele>102</ele>
        <time>2015-12-13T07:33:45Z</time>
      </trkpt>
      <trkpt lat="50.76113" lon="3.75586">
        <ele>102</ele>
        <time>2015-12-13T07:33:46Z</time>
      </trkpt>
      <trkpt lat="50.76113" lon="3.75583">
        <ele>102</ele>
        <time>2015-12-13T07:33:47Z</time>
      </trkpt>
      <trkpt lat="50.76113" lon="3.75579">
        <ele>102</ele>
        <time>2015-12-13T07:33:48Z</time>
      </trkpt>
      <trkpt lat="50.76114" lon="3.75576">
        <ele>102</ele>
        <time>2015-12-13T07:33:49Z</time>
      </trkpt>
      <trkpt lat="50.76114" lon="3.75573">
        <ele>102</ele>
        <time>2015-12-13T07:33:50Z</time>
      </trkpt>
      <trkpt lat="50.76114" lon="3.7557">
        <ele>102.7</ele>
        <time>2015-12-13T07:33:51Z</time>
      </trkpt>
      <trkpt lat="50.76114" lon="3.75566">
        <ele>103</ele>
        <time>2015-12-13T07:33:52Z</time>
      </trkpt>
      <trkpt lat="50.76115" lon="3.75563">
        <ele>103</ele>
        <time>2015-12-13T07:33:53Z</time>
      </trkpt>
      <trkpt lat="50.76115" lon="3.7556">
        <ele>103</ele>
        <time>2015-12-13T07:33:54Z</time>
      </trkpt>
      <trkpt lat="50.76116" lon="3.75557">
        <ele>103</ele>
        <time>2015-12-13T07:33:55Z</time>
      </trkpt>
      <trkpt lat="50.76116" lon="3.75554">
        <ele>103</ele>
        <time>2015-12-13T07:33:56Z</time>
      </trkpt>
      <trkpt lat="50.76117" lon="3.75551">
        <ele>103</ele>
        <time>2015-12-13T07:33:57Z</time>
      </trkpt>
      <trkpt lat="50.76118" lon="3.75548">
        <ele>103</ele>
        <time>2015-12-13T07:33:58Z</time>
      </trkpt>
      <trkpt lat="50.76119" lon="3.75545">
        <ele>103</ele>
        <time>2015-12-13T07:33:59Z</time>
      </trkpt>
      <trkpt lat="50.7612" lon="3.75542">
        <ele>103</ele>
        <time>2015-12-13T07:34:00Z</time>
      </trkpt>
      <trkpt lat="50.76121" lon="3.75539">
        <ele>103.7</ele>
        <time>2015-12-13T07:34:01Z</time>
      </trkpt>
      <trkpt lat="50.76122" lon="3.75536">
        <ele>104</ele>
        <time>2015-12-13T07:34:02Z</time>
      </trkpt>
      <trkpt lat="50.76123" lon="3.75534">
        <ele>104</ele>
        <time>2015-12-13T07:34:03Z</time>
      </trkpt>
      <trkpt lat="50.76124" lon="3.75531">
        <ele>104</ele>
        <time>2015-12-13T07:34:04Z</time>
      </trkpt>
      <trkpt lat="50.76125" lon="3.75528">
        <ele>104</ele>
        <time>2015-12-13T07:34:05Z</time>
      </trkpt>
      <trkpt lat="50.76126" lon="3.75526">
        <ele>104</ele>
        <time>2015-12-13T07:34:06Z</time>
      </trkpt>
      <trkpt lat="50.76127" lon="3.75523">
        <ele>104</ele>
        <time>2015-12-13T07:34:07Z</time>
      </trkpt>
      <trkpt lat="50.76128" lon="3.7552">
        <ele>104</ele>
        <time>2015-12-13T07:34:08Z</time>
      </trkpt>
      <trkpt lat="50.7613" lon="3.75518">
        <ele>104</ele>
        <time>2015-12-13T07:34:09Z</time>
      </trkpt>
      <trkpt lat="50.76131" lon="3.75515">
        <ele>104</ele>
        <time>2015-12-13T07:34:10Z</time>
      </trkpt>
      <trkpt lat="50.76132" lon="3.75512">
        <ele>104</ele>
        <time>2015-12-13T07:34:11Z</time>
      </trkpt>
      <trkpt lat="50.76133" lon="3.7551">
        <ele>104</ele>
        <time>2015-12-13T07:34:12Z</time>
      </trkpt>
      <trkpt lat="50.76134" lon="3.75507">
        <ele>104</ele>
        <time>2015-12-13T07:34:13Z</time>
      </trkpt>
      <trkpt lat="50.76135" lon="3.75504">
        <ele>104</ele>
        <time>2015-12-13T07:34:14Z</time>
      </trkpt>
      <trkpt lat="50.76136" lon="3.75502">
        <ele>104</ele>
        <time>2015-12-13T07:34:15Z</time>
      </trkpt>
      <trkpt lat="50.76137" lon="3.75499">
        <ele>104</ele>
        <time>2015-12-13T07:34:16Z</time>
      </trkpt>
      <trkpt lat="50.76139" lon="3.75497">
        <ele>104</ele>
        <time>2015-12-13T07:34:17Z</time>
      </trkpt>
      <trkpt lat="50.7614" lon="3.75494">
        <ele>104</ele>
        <time>2015-12-13T07:34:18Z</time>
      </trkpt>
      <trkpt lat="50.76141" lon="3.75491">
        <ele>104</ele>
        <time>2015-12-13T07:34:19Z</time>
      </trkpt>
      <trkpt lat="50.76142" lon="3.75489">
        <ele>104</ele>
        <time>2015-12-13T07:34:20Z</time>
      </trkpt>
      <trkpt lat="50.76143" lon="3.75486">
        <ele>104.7</ele>
        <time>2015-12-13T07:34:21Z</time>
      </trkpt>
      <trkpt lat="50.76145" lon="3.75483">
        <ele>105</ele>
        <time>2015-12-13T07:34:22Z</time>
      </trkpt>
      <trkpt lat="50.76146" lon="3.75481">
        <ele>105</ele>
        <time>2015-12-13T07:34:23Z</time>
      </trkpt>
      <trkpt lat="50.76147" lon="3.75478">
        <ele>105</ele>
        <time>2015-12-13T07:34:24Z</time>
      </trkpt>
      <trkpt lat="50.76149" lon="3.75475">
        <ele>105</ele>
        <time>2015-12-13T07:34:25Z</time>
      </trkpt>
      <trkpt lat="50.7615" lon="3.75472">
        <ele>105</ele>
        <time>2015-12-13T07:34:26Z</time>
      </trkpt>
      <trkpt lat="50.76151" lon="3.75469">
        <ele>105</ele>
        <time>2015-12-13T07:34:27Z</time>
      </trkpt>
      <trkpt lat="50.76152" lon="3.75467">
        <ele>105</ele>
        <time>2015-12-13T07:34:28Z</time>
      </trkpt>
      <trkpt lat="50.76153" lon="3.75464">
        <ele>105</ele>
        <time>2015-12-13T07:34:29Z</time>
      </trkpt>
      <trkpt lat="50.76154" lon="3.75461">
        <ele>105</ele>
        <time>2015-12-13T07:34:30Z</time>
      </trkpt>
      <trkpt lat="50.76156" lon="3.75459">
        <ele>106.4</ele>
        <time>2015-12-13T07:34:31Z</time>
      </trkpt>
      <trkpt lat="50.76157" lon="3.75456">
        <ele>107</ele>
        <time>2015-12-13T07:34:32Z</time>
      </trkpt>
      <trkpt lat="50.76158" lon="3.75453">
        <ele>107</ele>
        <time>2015-12-13T07:34:33Z</time>
      </trkpt>
      <trkpt lat="50.76159" lon="3.75451">
        <ele>107</ele>
        <time>2015-12-13T07:34:34Z</time>
      </trkpt>
      <trkpt lat="50.76161" lon="3.75446">
        <ele>107</ele>
        <time>2015-12-13T07:34:36Z</time>
      </trkpt>
      <trkpt lat="50.76162" lon="3.75443">
        <ele>107</ele>
        <time>2015-12-13T07:34:37Z</time>
      </trkpt>
      <trkpt lat="50.76163" lon="3.7544">
        <ele>107</ele>
        <time>2015-12-13T07:34:38Z</time>
      </trkpt>
      <trkpt lat="50.76164" lon="3.75437">
        <ele>107</ele>
        <time>2015-12-13T07:34:39Z</time>
      </trkpt>
      <trkpt lat="50.76165" lon="3.75435">
        <ele>107</ele>
        <time>2015-12-13T07:34:40Z</time>
      </trkpt>
      <trkpt lat="50.76166" lon="3.75433">
        <ele>107.7</ele>
        <time>2015-12-13T07:34:41Z</time>
      </trkpt>
      <trkpt lat="50.76168" lon="3.75427">
        <ele>108</ele>
        <time>2015-12-13T07:34:43Z</time>
      </trkpt>
      <trkpt lat="50.76169" lon="3.75425">
        <ele>108</ele>
        <time>2015-12-13T07:34:44Z</time>
      </trkpt>
      <trkpt lat="50.76171" lon="3.75422">
        <ele>108</ele>
        <time>2015-12-13T07:34:45Z</time>
      </trkpt>
      <trkpt lat="50.76172" lon="3.75419">
        <ele>108</ele>
        <time>2015-12-13T07:34:46Z</time>
      </trkpt>
      <trkpt lat="50.76173" lon="3.75416">
        <ele>108</ele>
        <time>2015-12-13T07:34:47Z</time>
      </trkpt>
      <trkpt lat="50.76174" lon="3.75413">
        <ele>108</ele>
        <time>2015-12-13T07:34:48Z</time>
      </trkpt>
      <trkpt lat="50.76176" lon="3.75411">
        <ele>108</ele>
        <time>2015-12-13T07:34:49Z</time>
      </trkpt>
      <trkpt lat="50.76177" lon="3.75408">
        <ele>108</ele>
        <time>2015-12-13T07:34:50Z</time>
      </trkpt>
      <trkpt lat="50.76178" lon="3.75405">
        <ele>108</ele>
        <time>2015-12-13T07:34:51Z</time>
      </trkpt>
      <trkpt lat="50.76179" lon="3.75402">
        <ele>108</ele>
        <time>2015-12-13T07:34:52Z</time>
      </trkpt>
      <trkpt lat="50.76181" lon="3.754">
        <ele>108</ele>
        <time>2015-12-13T07:34:53Z</time>
      </trkpt>
      <trkpt lat="50.76182" lon="3.75397">
        <ele>108</ele>
        <time>2015-12-13T07:34:54Z</time>
      </trkpt>
      <trkpt lat="50.76183" lon="3.75394">
        <ele>108</ele>
        <time>2015-12-13T07:34:55Z</time>
      </trkpt>
      <trkpt lat="50.76184" lon="3.75391">
        <ele>108</ele>
        <time>2015-12-13T07:34:56Z</time>
      </trkpt>
      <trkpt lat="50.76186" lon="3.75389">
        <ele>108</ele>
        <time>2015-12-13T07:34:57Z</time>
      </trkpt>
      <trkpt lat="50.76187" lon="3.75386">
        <ele>108</ele>
        <time>2015-12-13T07:34:58Z</time>
      </trkpt>
      <trkpt lat="50.76188" lon="3.75383">
        <ele>108</ele>
        <time>2015-12-13T07:34:59Z</time>
      </trkpt>
      <trkpt lat="50.7619" lon="3.7538">
        <ele>108</ele>
        <time>2015-12-13T07:35:00Z</time>
      </trkpt>
      <trkpt lat="50.76192" lon="3.75378">
        <ele>108</ele>
        <time>2015-12-13T07:35:01Z</time>
      </trkpt>
      <trkpt lat="50.76193" lon="3.75375">
        <ele>108</ele>
        <time>2015-12-13T07:35:02Z</time>
      </trkpt>
      <trkpt lat="50.76195" lon="3.75372">
        <ele>108</ele>
        <time>2015-12-13T07:35:03Z</time>
      </trkpt>
      <trkpt lat="50.76197" lon="3.75369">
        <ele>108</ele>
        <time>2015-12-13T07:35:04Z</time>
      </trkpt>
      <trkpt lat="50.76198" lon="3.75366">
        <ele>108</ele>
        <time>2015-12-13T07:35:05Z</time>
      </trkpt>
      <trkpt lat="50.762" lon="3.75363">
        <ele>108</ele>
        <time>2015-12-13T07:35:06Z</time>
      </trkpt>
      <trkpt lat="50.76202" lon="3.7536">
        <ele>108</ele>
        <time>2015-12-13T07:35:07Z</time>
      </trkpt>
      <trkpt lat="50.76204" lon="3.75357">
        <ele>108</ele>
        <time>2015-12-13T07:35:08Z</time>
      </trkpt>
      <trkpt lat="50.76205" lon="3.75354">
        <ele>108</ele>
        <time>2015-12-13T07:35:09Z</time>
      </trkpt>
      <trkpt lat="50.76207" lon="3.75352">
        <ele>108</ele>
        <time>2015-12-13T07:35:10Z</time>
      </trkpt>
      <trkpt lat="50.76209" lon="3.75349">
        <ele>108</ele>
        <time>2015-12-13T07:35:11Z</time>
      </trkpt>
      <trkpt lat="50.7621" lon="3.75346">
        <ele>108</ele>
        <time>2015-12-13T07:35:12Z</time>
      </trkpt>
      <trkpt lat="50.76212" lon="3.75343">
        <ele>108</ele>
        <time>2015-12-13T07:35:13Z</time>
      </trkpt>
      <trkpt lat="50.76214" lon="3.7534">
        <ele>108</ele>
        <time>2015-12-13T07:35:14Z</time>
      </trkpt>
      <trkpt lat="50.76215" lon="3.75337">
        <ele>108</ele>
        <time>2015-12-13T07:35:15Z</time>
      </trkpt>
      <trkpt lat="50.76217" lon="3.75334">
        <ele>108</ele>
        <time>2015-12-13T07:35:16Z</time>
      </trkpt>
      <trkpt lat="50.76218" lon="3.75332">
        <ele>108</ele>
        <time>2015-12-13T07:35:17Z</time>
      </trkpt>
      <trkpt lat="50.7622" lon="3.75329">
        <ele>108</ele>
        <time>2015-12-13T07:35:18Z</time>
      </trkpt>
      <trkpt lat="50.76221" lon="3.75326">
        <ele>108</ele>
        <time>2015-12-13T07:35:19Z</time>
      </trkpt>
      <trkpt lat="50.76223" lon="3.75323">
        <ele>108</ele>
        <time>2015-12-13T07:35:20Z</time>
      </trkpt>
      <trkpt lat="50.76224" lon="3.75321">
        <ele>108</ele>
        <time>2015-12-13T07:35:21Z</time>
      </trkpt>
      <trkpt lat="50.76225" lon="3.75317">
        <ele>108</ele>
        <time>2015-12-13T07:35:22Z</time>
      </trkpt>
      <trkpt lat="50.76227" lon="3.75314">
        <ele>108</ele>
        <time>2015-12-13T07:35:23Z</time>
      </trkpt>
      <trkpt lat="50.76228" lon="3.75311">
        <ele>108</ele>
        <time>2015-12-13T07:35:24Z</time>
      </trkpt>
      <trkpt lat="50.7623" lon="3.75308">
        <ele>108</ele>
        <time>2015-12-13T07:35:25Z</time>
      </trkpt>
      <trkpt lat="50.76232" lon="3.75306">
        <ele>108</ele>
        <time>2015-12-13T07:35:26Z</time>
      </trkpt>
      <trkpt lat="50.76233" lon="3.75303">
        <ele>108</ele>
        <time>2015-12-13T07:35:27Z</time>
      </trkpt>
      <trkpt lat="50.76235" lon="3.753">
        <ele>108</ele>
        <time>2015-12-13T07:35:28Z</time>
      </trkpt>
      <trkpt lat="50.76236" lon="3.75296">
        <ele>108</ele>
        <time>2015-12-13T07:35:29Z</time>
      </trkpt>
      <trkpt lat="50.76237" lon="3.75293">
        <ele>108</ele>
        <time>2015-12-13T07:35:30Z</time>
      </trkpt>
      <trkpt lat="50.76238" lon="3.7529">
        <ele>108</ele>
        <time>2015-12-13T07:35:31Z</time>
      </trkpt>
      <trkpt lat="50.76239" lon="3.75286">
        <ele>108</ele>
        <time>2015-12-13T07:35:32Z</time>
      </trkpt>
      <trkpt lat="50.7624" lon="3.75283">
        <ele>108</ele>
        <time>2015-12-13T07:35:33Z</time>
      </trkpt>
      <trkpt lat="50.76241" lon="3.75279">
        <ele>108</ele>
        <time>2015-12-13T07:35:34Z</time>
      </trkpt>
      <trkpt lat="50.76242" lon="3.75276">
        <ele>108</ele>
        <time>2015-12-13T07:35:35Z</time>
      </trkpt>
      <trkpt lat="50.76243" lon="3.75272">
        <ele>108</ele>
        <time>2015-12-13T07:35:36Z</time>
      </trkpt>
      <trkpt lat="50.76244" lon="3.75269">
        <ele>108</ele>
        <time>2015-12-13T07:35:37Z</time>
      </trkpt>
      <trkpt lat="50.76245" lon="3.75266">
        <ele>108</ele>
        <time>2015-12-13T07:35:38Z</time>
      </trkpt>
      <trkpt lat="50.76246" lon="3.75262">
        <ele>108</ele>
        <time>2015-12-13T07:35:39Z</time>
      </trkpt>
      <trkpt lat="50.76247" lon="3.75259">
        <ele>108</ele>
        <time>2015-12-13T07:35:40Z</time>
      </trkpt>
      <trkpt lat="50.76248" lon="3.75255">
        <ele>108</ele>
        <time>2015-12-13T07:35:41Z</time>
      </trkpt>
      <trkpt lat="50.76249" lon="3.75252">
        <ele>108</ele>
        <time>2015-12-13T07:35:42Z</time>
      </trkpt>
      <trkpt lat="50.76251" lon="3.75249">
        <ele>108</ele>
        <time>2015-12-13T07:35:43Z</time>
      </trkpt>
      <trkpt lat="50.76253" lon="3.75247">
        <ele>108</ele>
        <time>2015-12-13T07:35:44Z</time>
      </trkpt>
      <trkpt lat="50.76254" lon="3.75244">
        <ele>108</ele>
        <time>2015-12-13T07:35:45Z</time>
      </trkpt>
      <trkpt lat="50.76256" lon="3.75242">
        <ele>108</ele>
        <time>2015-12-13T07:35:46Z</time>
      </trkpt>
      <trkpt lat="50.76258" lon="3.75239">
        <ele>108</ele>
        <time>2015-12-13T07:35:47Z</time>
      </trkpt>
      <trkpt lat="50.7626" lon="3.75236">
        <ele>108</ele>
        <time>2015-12-13T07:35:48Z</time>
      </trkpt>
      <trkpt lat="50.76262" lon="3.75234">
        <ele>108</ele>
        <time>2015-12-13T07:35:49Z</time>
      </trkpt>
      <trkpt lat="50.76263" lon="3.75231">
        <ele>108</ele>
        <time>2015-12-13T07:35:50Z</time>
      </trkpt>
      <trkpt lat="50.76265" lon="3.75229">
        <ele>108</ele>
        <time>2015-12-13T07:35:51Z</time>
      </trkpt>
      <trkpt lat="50.76267" lon="3.75227">
        <ele>108</ele>
        <time>2015-12-13T07:35:52Z</time>
      </trkpt>
      <trkpt lat="50.76268" lon="3.75224">
        <ele>108</ele>
        <time>2015-12-13T07:35:53Z</time>
      </trkpt>
      <trkpt lat="50.7627" lon="3.75222">
        <ele>108</ele>
        <time>2015-12-13T07:35:54Z</time>
      </trkpt>
      <trkpt lat="50.76272" lon="3.75219">
        <ele>108</ele>
        <time>2015-12-13T07:35:55Z</time>
      </trkpt>
      <trkpt lat="50.76273" lon="3.75217">
        <ele>108</ele>
        <time>2015-12-13T07:35:56Z</time>
      </trkpt>
      <trkpt lat="50.76275" lon="3.75215">
        <ele>108</ele>
        <time>2015-12-13T07:35:57Z</time>
      </trkpt>
      <trkpt lat="50.76277" lon="3.75212">
        <ele>108</ele>
        <time>2015-12-13T07:35:58Z</time>
      </trkpt>
      <trkpt lat="50.76278" lon="3.7521">
        <ele>108</ele>
        <time>2015-12-13T07:35:59Z</time>
      </trkpt>
      <trkpt lat="50.7628" lon="3.75208">
        <ele>108</ele>
        <time>2015-12-13T07:36:00Z</time>
      </trkpt>
      <trkpt lat="50.76281" lon="3.75206">
        <ele>108</ele>
        <time>2015-12-13T07:36:01Z</time>
      </trkpt>
      <trkpt lat="50.76283" lon="3.75203">
        <ele>108</ele>
        <time>2015-12-13T07:36:02Z</time>
      </trkpt>
      <trkpt lat="50.76285" lon="3.75201">
        <ele>108</ele>
        <time>2015-12-13T07:36:03Z</time>
      </trkpt>
      <trkpt lat="50.76286" lon="3.75199">
        <ele>108</ele>
        <time>2015-12-13T07:36:04Z</time>
      </trkpt>
      <trkpt lat="50.76288" lon="3.75197">
        <ele>108</ele>
        <time>2015-12-13T07:36:05Z</time>
      </trkpt>
      <trkpt lat="50.7629" lon="3.75194">
        <ele>108</ele>
        <time>2015-12-13T07:36:06Z</time>
      </trkpt>
      <trkpt lat="50.76291" lon="3.75192">
        <ele>108</ele>
        <time>2015-12-13T07:36:07Z</time>
      </trkpt>
      <trkpt lat="50.76293" lon="3.7519">
        <ele>108</ele>
        <time>2015-12-13T07:36:08Z</time>
      </trkpt>
      <trkpt lat="50.76294" lon="3.75188">
        <ele>108</ele>
        <time>2015-12-13T07:36:09Z</time>
      </trkpt>
      <trkpt lat="50.76296" lon="3.75186">
        <ele>108</ele>
        <time>2015-12-13T07:36:10Z</time>
      </trkpt>
      <trkpt lat="50.76298" lon="3.75183">
        <ele>109.4</ele>
        <time>2015-12-13T07:36:11Z</time>
      </trkpt>
      <trkpt lat="50.76299" lon="3.75181">
        <ele>110</ele>
        <time>2015-12-13T07:36:12Z</time>
      </trkpt>
      <trkpt lat="50.76301" lon="3.75179">
        <ele>110</ele>
        <time>2015-12-13T07:36:13Z</time>
      </trkpt>
      <trkpt lat="50.76303" lon="3.75177">
        <ele>110</ele>
        <time>2015-12-13T07:36:14Z</time>
      </trkpt>
      <trkpt lat="50.76305" lon="3.75175">
        <ele>110</ele>
        <time>2015-12-13T07:36:15Z</time>
      </trkpt>
      <trkpt lat="50.76306" lon="3.75172">
        <ele>110</ele>
        <time>2015-12-13T07:36:16Z</time>
      </trkpt>
      <trkpt lat="50.76308" lon="3.7517">
        <ele>110</ele>
        <time>2015-12-13T07:36:17Z</time>
      </trkpt>
      <trkpt lat="50.76309" lon="3.75168">
        <ele>110</ele>
        <time>2015-12-13T07:36:18Z</time>
      </trkpt>
      <trkpt lat="50.76311" lon="3.75166">
        <ele>110</ele>
        <time>2015-12-13T07:36:19Z</time>
      </trkpt>
      <trkpt lat="50.76313" lon="3.75164">
        <ele>110</ele>
        <time>2015-12-13T07:36:20Z</time>
      </trkpt>
      <trkpt lat="50.76315" lon="3.75162">
        <ele>113.4</ele>
        <time>2015-12-13T07:36:21Z</time>
      </trkpt>
      <trkpt lat="50.76317" lon="3.75161">
        <ele>115</ele>
        <time>2015-12-13T07:36:22Z</time>
      </trkpt>
      <trkpt lat="50.76318" lon="3.75159">
        <ele>115</ele>
        <time>2015-12-13T07:36:23Z</time>
      </trkpt>
      <trkpt lat="50.76321" lon="3.75157">
        <ele>115</ele>
        <time>2015-12-13T07:36:24Z</time>
      </trkpt>
      <trkpt lat="50.76322" lon="3.75156">
        <ele>115</ele>
        <time>2015-12-13T07:36:25Z</time>
      </trkpt>
      <trkpt lat="50.76324" lon="3.75155">
        <ele>115.7</ele>
        <time>2015-12-13T07:36:26Z</time>
      </trkpt>
      <trkpt lat="50.76326" lon="3.75154">
        <ele>116</ele>
        <time>2015-12-13T07:36:27Z</time>
      </trkpt>
      <trkpt lat="50.76328" lon="3.75152">
        <ele>116</ele>
        <time>2015-12-13T07:36:28Z</time>
      </trkpt>
      <trkpt lat="50.7633" lon="3.75151">
        <ele>116</ele>
        <time>2015-12-13T07:36:29Z</time>
      </trkpt>
      <trkpt lat="50.76332" lon="3.75149">
        <ele>116</ele>
        <time>2015-12-13T07:36:30Z</time>
      </trkpt>
      <trkpt lat="50.76335" lon="3.75148">
        <ele>116</ele>
        <time>2015-12-13T07:36:31Z</time>
      </trkpt>
      <trkpt lat="50.76337" lon="3.75146">
        <ele>116</ele>
        <time>2015-12-13T07:36:32Z</time>
      </trkpt>
      <trkpt lat="50.76339" lon="3.75145">
        <ele>116</ele>
        <time>2015-12-13T07:36:33Z</time>
      </trkpt>
      <trkpt lat="50.7634" lon="3.75143">
        <ele>115.3</ele>
        <time>2015-12-13T07:36:34Z</time>
      </trkpt>
      <trkpt lat="50.76342" lon="3.75142">
        <ele>115</ele>
        <time>2015-12-13T07:36:35Z</time>
      </trkpt>
      <trkpt lat="50.76344" lon="3.7514">
        <ele>115</ele>
        <time>2015-12-13T07:36:36Z</time>
      </trkpt>
      <trkpt lat="50.76346" lon="3.75138">
        <ele>115</ele>
        <time>2015-12-13T07:36:37Z</time>
      </trkpt>
      <trkpt lat="50.76348" lon="3.75136">
        <ele>115</ele>
        <time>2015-12-13T07:36:38Z</time>
      </trkpt>
      <trkpt lat="50.76349" lon="3.75134">
        <ele>115</ele>
        <time>2015-12-13T07:36:39Z</time>
      </trkpt>
      <trkpt lat="50.76351" lon="3.75132">
        <ele>115</ele>
        <time>2015-12-13T07:36:40Z</time>
      </trkpt>
      <trkpt lat="50.76353" lon="3.7513">
        <ele>116.4</ele>
        <time>2015-12-13T07:36:41Z</time>
      </trkpt>
      <trkpt lat="50.76354" lon="3.75127">
        <ele>117</ele>
        <time>2015-12-13T07:36:42Z</time>
      </trkpt>
      <trkpt lat="50.76356" lon="3.75125">
        <ele>117</ele>
        <time>2015-12-13T07:36:43Z</time>
      </trkpt>
      <trkpt lat="50.76358" lon="3.75123">
        <ele>117</ele>
        <time>2015-12-13T07:36:44Z</time>
      </trkpt>
      <trkpt lat="50.76359" lon="3.75121">
        <ele>117</ele>
        <time>2015-12-13T07:36:45Z</time>
      </trkpt>
      <trkpt lat="50.76361" lon="3.75118">
        <ele>117</ele>
        <time>2015-12-13T07:36:46Z</time>
      </trkpt>
      <trkpt lat="50.76362" lon="3.75116">
        <ele>117</ele>
        <time>2015-12-13T07:36:47Z</time>
      </trkpt>
      <trkpt lat="50.76364" lon="3.75113">
        <ele>117</ele>
        <time>2015-12-13T07:36:48Z</time>
      </trkpt>
      <trkpt lat="50.76365" lon="3.75111">
        <ele>117</ele>
        <time>2015-12-13T07:36:49Z</time>
      </trkpt>
      <trkpt lat="50.76367" lon="3.75109">
        <ele>117</ele>
        <time>2015-12-13T07:36:50Z</time>
      </trkpt>
      <trkpt lat="50.76368" lon="3.75106">
        <ele>118.4</ele>
        <time>2015-12-13T07:36:51Z</time>
      </trkpt>
      <trkpt lat="50.7637" lon="3.75104">
        <ele>119</ele>
        <time>2015-12-13T07:36:52Z</time>
      </trkpt>
      <trkpt lat="50.76371" lon="3.75102">
        <ele>119</ele>
        <time>2015-12-13T07:36:53Z</time>
      </trkpt>
      <trkpt lat="50.76372" lon="3.751">
        <ele>119</ele>
        <time>2015-12-13T07:36:54Z</time>
      </trkpt>
      <trkpt lat="50.76374" lon="3.75097">
        <ele>119</ele>
        <time>2015-12-13T07:36:55Z</time>
      </trkpt>
      <trkpt lat="50.76375" lon="3.75094">
        <ele>119</ele>
        <time>2015-12-13T07:36:56Z</time>
      </trkpt>
      <trkpt lat="50.76376" lon="3.75091">
        <ele>119</ele>
        <time>2015-12-13T07:36:57Z</time>
      </trkpt>
      <trkpt lat="50.76378" lon="3.75089">
        <ele>119</ele>
        <time>2015-12-13T07:36:58Z</time>
      </trkpt>
      <trkpt lat="50.76379" lon="3.75086">
        <ele>119</ele>
        <time>2015-12-13T07:36:59Z</time>
      </trkpt>
      <trkpt lat="50.7638" lon="3.75082">
        <ele>119.5</ele>
        <time>2015-12-13T07:37:01Z</time>
      </trkpt>
      <trkpt lat="50.76382" lon="3.75079">
        <ele>120</ele>
        <time>2015-12-13T07:37:03Z</time>
      </trkpt>
      <trkpt lat="50.76384" lon="3.75075">
        <ele>120</ele>
        <time>2015-12-13T07:37:05Z</time>
      </trkpt>
      <trkpt lat="50.76385" lon="3.75072">
        <ele>120</ele>
        <time>2015-12-13T07:37:07Z</time>
      </trkpt>
      <trkpt lat="50.76387" lon="3.75068">
        <ele>120</ele>
        <time>2015-12-13T07:37:09Z</time>
      </trkpt>
      <trkpt lat="50.76387" lon="3.75065">
        <ele>120.7</ele>
        <time>2015-12-13T07:37:11Z</time>
      </trkpt>
      <trkpt lat="50.76386" lon="3.75061">
        <ele>121</ele>
        <time>2015-12-13T07:37:13Z</time>
      </trkpt>
      <trkpt lat="50.76385" lon="3.75059">
        <ele>121</ele>
        <time>2015-12-13T07:37:15Z</time>
      </trkpt>
      <trkpt lat="50.76383" lon="3.75055">
        <ele>121</ele>
        <time>2015-12-13T07:37:17Z</time>
      </trkpt>
      <trkpt lat="50.76381" lon="3.75051">
        <ele>121</ele>
        <time>2015-12-13T07:37:19Z</time>
      </trkpt>
      <trkpt lat="50.76379" lon="3.75048">
        <ele>121.7</ele>
        <time>2015-12-13T07:37:21Z</time>
      </trkpt>
      <trkpt lat="50.76378" lon="3.75045">
        <ele>122</ele>
        <time>2015-12-13T07:37:23Z</time>
      </trkpt>
      <trkpt lat="50.76376" lon="3.75042">
        <ele>122</ele>
        <time>2015-12-13T07:37:25Z</time>
      </trkpt>
      <trkpt lat="50.76374" lon="3.75038">
        <ele>122</ele>
        <time>2015-12-13T07:37:27Z</time>
      </trkpt>
      <trkpt lat="50.76373" lon="3.75033">
        <ele>122</ele>
        <time>2015-12-13T07:37:29Z</time>
      </trkpt>
      <trkpt lat="50.76373" lon="3.75028">
        <ele>122</ele>
        <time>2015-12-13T07:37:31Z</time>
      </trkpt>
      <trkpt lat="50.76372" lon="3.75023">
        <ele>122</ele>
        <time>2015-12-13T07:37:33Z</time>
      </trkpt>
      <trkpt lat="50.76371" lon="3.75019">
        <ele>122</ele>
        <time>2015-12-13T07:37:35Z</time>
      </trkpt>
      <trkpt lat="50.76371" lon="3.75016">
        <ele>122</ele>
        <time>2015-12-13T07:37:37Z</time>
      </trkpt>
      <trkpt lat="50.7637" lon="3.75013">
        <ele>122</ele>
        <time>2015-12-13T07:37:39Z</time>
      </trkpt>
      <trkpt lat="50.76369" lon="3.75008">
        <ele>122</ele>
        <time>2015-12-13T07:37:41Z</time>
      </trkpt>
      <trkpt lat="50.76368" lon="3.75005">
        <ele>122</ele>
        <time>2015-12-13T07:37:42Z</time>
      </trkpt>
      <trkpt lat="50.76367" lon="3.75002">
        <ele>122</ele>
        <time>2015-12-13T07:37:43Z</time>
      </trkpt>
      <trkpt lat="50.76367" lon="3.74999">
        <ele>122</ele>
        <time>2015-12-13T07:37:44Z</time>
      </trkpt>
      <trkpt lat="50.76366" lon="3.74995">
        <ele>122</ele>
        <time>2015-12-13T07:37:45Z</time>
      </trkpt>
      <trkpt lat="50.76365" lon="3.74991">
        <ele>122</ele>
        <time>2015-12-13T07:37:46Z</time>
      </trkpt>
      <trkpt lat="50.76365" lon="3.74988">
        <ele>122</ele>
        <time>2015-12-13T07:37:47Z</time>
      </trkpt>
      <trkpt lat="50.76365" lon="3.74984">
        <ele>122</ele>
        <time>2015-12-13T07:37:48Z</time>
      </trkpt>
      <trkpt lat="50.76364" lon="3.7498">
        <ele>122</ele>
        <time>2015-12-13T07:37:49Z</time>
      </trkpt>
      <trkpt lat="50.76364" lon="3.74977">
        <ele>122</ele>
        <time>2015-12-13T07:37:50Z</time>
      </trkpt>
      <trkpt lat="50.76365" lon="3.74974">
        <ele>122</ele>
        <time>2015-12-13T07:37:51Z</time>
      </trkpt>
      <trkpt lat="50.76365" lon="3.7497">
        <ele>122</ele>
        <time>2015-12-13T07:37:52Z</time>
      </trkpt>
      <trkpt lat="50.76366" lon="3.74967">
        <ele>122</ele>
        <time>2015-12-13T07:37:53Z</time>
      </trkpt>
      <trkpt lat="50.76366" lon="3.74963">
        <ele>122</ele>
        <time>2015-12-13T07:37:54Z</time>
      </trkpt>
      <trkpt lat="50.76367" lon="3.7496">
        <ele>122</ele>
        <time>2015-12-13T07:37:55Z</time>
      </trkpt>
      <trkpt lat="50.76367" lon="3.74957">
        <ele>122</ele>
        <time>2015-12-13T07:37:56Z</time>
      </trkpt>
      <trkpt lat="50.76367" lon="3.74952">
        <ele>122</ele>
        <time>2015-12-13T07:37:58Z</time>
      </trkpt>
      <trkpt lat="50.76368" lon="3.74946">
        <ele>122</ele>
        <time>2015-12-13T07:38:00Z</time>
      </trkpt>
      <trkpt lat="50.76369" lon="3.74943">
        <ele>122.7</ele>
        <time>2015-12-13T07:38:01Z</time>
      </trkpt>
      <trkpt lat="50.76369" lon="3.74939">
        <ele>123</ele>
        <time>2015-12-13T07:38:02Z</time>
      </trkpt>
      <trkpt lat="50.7637" lon="3.74935">
        <ele>123</ele>
        <time>2015-12-13T07:38:03Z</time>
      </trkpt>
      <trkpt lat="50.7637" lon="3.74932">
        <ele>123</ele>
        <time>2015-12-13T07:38:04Z</time>
      </trkpt>
      <trkpt lat="50.7637" lon="3.74928">
        <ele>123</ele>
        <time>2015-12-13T07:38:05Z</time>
      </trkpt>
      <trkpt lat="50.7637" lon="3.74925">
        <ele>123</ele>
        <time>2015-12-13T07:38:06Z</time>
      </trkpt>
      <trkpt lat="50.76371" lon="3.74921">
        <ele>123</ele>
        <time>2015-12-13T07:38:07Z</time>
      </trkpt>
      <trkpt lat="50.76371" lon="3.74918">
        <ele>123</ele>
        <time>2015-12-13T07:38:08Z</time>
      </trkpt>
      <trkpt lat="50.76371" lon="3.74915">
        <ele>123</ele>
        <time>2015-12-13T07:38:09Z</time>
      </trkpt>
      <trkpt lat="50.7637" lon="3.74912">
        <ele>123</ele>
        <time>2015-12-13T07:38:10Z</time>
      </trkpt>
      <trkpt lat="50.7637" lon="3.74907">
        <ele>124</ele>
        <time>2015-12-13T07:38:12Z</time>
      </trkpt>
      <trkpt lat="50.7637" lon="3.74903">
        <ele>124</ele>
        <time>2015-12-13T07:38:14Z</time>
      </trkpt>
      <trkpt lat="50.76369" lon="3.74899">
        <ele>124</ele>
        <time>2015-12-13T07:38:16Z</time>
      </trkpt>
      <trkpt lat="50.76369" lon="3.74895">
        <ele>124</ele>
        <time>2015-12-13T07:38:18Z</time>
      </trkpt>
      <trkpt lat="50.76368" lon="3.74891">
        <ele>124</ele>
        <time>2015-12-13T07:38:20Z</time>
      </trkpt>
      <trkpt lat="50.76367" lon="3.74887">
        <ele>125</ele>
        <time>2015-12-13T07:38:22Z</time>
      </trkpt>
      <trkpt lat="50.76367" lon="3.74884">
        <ele>125</ele>
        <time>2015-12-13T07:38:24Z</time>
      </trkpt>
      <trkpt lat="50.76368" lon="3.74881">
        <ele>125</ele>
        <time>2015-12-13T07:38:27Z</time>
      </trkpt>
      <trkpt lat="50.76368" lon="3.74877">
        <ele>125</ele>
        <time>2015-12-13T07:38:30Z</time>
      </trkpt>
      <trkpt lat="50.76367" lon="3.74873">
        <ele>125</ele>
        <time>2015-12-13T07:38:32Z</time>
      </trkpt>
      <trkpt lat="50.76367" lon="3.74869">
        <ele>125</ele>
        <time>2015-12-13T07:38:34Z</time>
      </trkpt>
      <trkpt lat="50.76367" lon="3.74866">
        <ele>125</ele>
        <time>2015-12-13T07:38:36Z</time>
      </trkpt>
      <trkpt lat="50.76367" lon="3.74863">
        <ele>125</ele>
        <time>2015-12-13T07:38:38Z</time>
      </trkpt>
      <trkpt lat="50.76368" lon="3.74858">
        <ele>125</ele>
        <time>2015-12-13T07:38:40Z</time>
      </trkpt>
      <trkpt lat="50.76368" lon="3.74853">
        <ele>125</ele>
        <time>2015-12-13T07:38:42Z</time>
      </trkpt>
      <trkpt lat="50.76369" lon="3.74849">
        <ele>125</ele>
        <time>2015-12-13T07:38:44Z</time>
      </trkpt>
      <trkpt lat="50.76369" lon="3.74844">
        <ele>125</ele>
        <time>2015-12-13T07:38:46Z</time>
      </trkpt>
      <trkpt lat="50.76368" lon="3.7484">
        <ele>125</ele>
        <time>2015-12-13T07:38:48Z</time>
      </trkpt>
      <trkpt lat="50.76369" lon="3.74834">
        <ele>125</ele>
        <time>2015-12-13T07:38:50Z</time>
      </trkpt>
      <trkpt lat="50.7637" lon="3.7483">
        <ele>125</ele>
        <time>2015-12-13T07:38:51Z</time>
      </trkpt>
      <trkpt lat="50.7637" lon="3.74827">
        <ele>125</ele>
        <time>2015-12-13T07:38:52Z</time>
      </trkpt>
      <trkpt lat="50.76371" lon="3.74823">
        <ele>125</ele>
        <time>2015-12-13T07:38:53Z</time>
      </trkpt>
      <trkpt lat="50.76371" lon="3.7482">
        <ele>125</ele>
        <time>2015-12-13T07:38:54Z</time>
      </trkpt>
      <trkpt lat="50.76371" lon="3.74816">
        <ele>125</ele>
        <time>2015-12-13T07:38:55Z</time>
      </trkpt>
      <trkpt lat="50.76372" lon="3.74812">
        <ele>125</ele>
        <time>2015-12-13T07:38:56Z</time>
      </trkpt>
      <trkpt lat="50.76372" lon="3.74806">
        <ele>125</ele>
        <time>2015-12-13T07:38:58Z</time>
      </trkpt>
      <trkpt lat="50.76373" lon="3.74803">
        <ele>125</ele>
        <time>2015-12-13T07:38:59Z</time>
      </trkpt>
      <trkpt lat="50.76373" lon="3.74798">
        <ele>125</ele>
        <time>2015-12-13T07:39:01Z</time>
      </trkpt>
      <trkpt lat="50.76373" lon="3.74795">
        <ele>125</ele>
        <time>2015-12-13T07:39:02Z</time>
      </trkpt>
      <trkpt lat="50.76373" lon="3.74792">
        <ele>125</ele>
        <time>2015-12-13T07:39:03Z</time>
      </trkpt>
      <trkpt lat="50.76373" lon="3.74786">
        <ele>125</ele>
        <time>2015-12-13T07:39:05Z</time>
      </trkpt>
      <trkpt lat="50.76374" lon="3.74783">
        <ele>125</ele>
        <time>2015-12-13T07:39:06Z</time>
      </trkpt>
      <trkpt lat="50.76374" lon="3.7478">
        <ele>125</ele>
        <time>2015-12-13T07:39:07Z</time>
      </trkpt>
      <trkpt lat="50.76374" lon="3.74776">
        <ele>125</ele>
        <time>2015-12-13T07:39:08Z</time>
      </trkpt>
      <trkpt lat="50.76374" lon="3.74772">
        <ele>125</ele>
        <time>2015-12-13T07:39:09Z</time>
      </trkpt>
      <trkpt lat="50.76374" lon="3.74769">
        <ele>125</ele>
        <time>2015-12-13T07:39:10Z</time>
      </trkpt>
      <trkpt lat="50.76374" lon="3.74765">
        <ele>126.3</ele>
        <time>2015-12-13T07:39:11Z</time>
      </trkpt>
      <trkpt lat="50.76373" lon="3.74762">
        <ele>127</ele>
        <time>2015-12-13T07:39:12Z</time>
      </trkpt>
      <trkpt lat="50.76373" lon="3.74759">
        <ele>127</ele>
        <time>2015-12-13T07:39:13Z</time>
      </trkpt>
      <trkpt lat="50.76373" lon="3.74756">
        <ele>127</ele>
        <time>2015-12-13T07:39:14Z</time>
      </trkpt>
      <trkpt lat="50.76374" lon="3.74753">
        <ele>127</ele>
        <time>2015-12-13T07:39:15Z</time>
      </trkpt>
      <trkpt lat="50.76374" lon="3.7475">
        <ele>127</ele>
        <time>2015-12-13T07:39:16Z</time>
      </trkpt>
      <trkpt lat="50.76374" lon="3.74745">
        <ele>127</ele>
        <time>2015-12-13T07:39:18Z</time>
      </trkpt>
      <trkpt lat="50.76375" lon="3.74739">
        <ele>127</ele>
        <time>2015-12-13T07:39:20Z</time>
      </trkpt>
      <trkpt lat="50.76375" lon="3.74736">
        <ele>127</ele>
        <time>2015-12-13T07:39:21Z</time>
      </trkpt>
      <trkpt lat="50.76375" lon="3.74733">
        <ele>127</ele>
        <time>2015-12-13T07:39:22Z</time>
      </trkpt>
      <trkpt lat="50.76375" lon="3.74729">
        <ele>127</ele>
        <time>2015-12-13T07:39:23Z</time>
      </trkpt>
      <trkpt lat="50.76372" lon="3.74728">
        <ele>126</ele>
        <time>2015-12-13T07:39:34Z</time>
      </trkpt>
      <trkpt lat="50.76372" lon="3.74722">
        <ele>126</ele>
        <time>2015-12-13T07:39:36Z</time>
      </trkpt>
      <trkpt lat="50.76373" lon="3.74718">
        <ele>126</ele>
        <time>2015-12-13T07:39:37Z</time>
      </trkpt>
      <trkpt lat="50.76373" lon="3.74715">
        <ele>126</ele>
        <time>2015-12-13T07:39:38Z</time>
      </trkpt>
      <trkpt lat="50.76373" lon="3.7471">
        <ele>126</ele>
        <time>2015-12-13T07:39:40Z</time>
      </trkpt>
      <trkpt lat="50.76374" lon="3.74706">
        <ele>125.5</ele>
        <time>2015-12-13T07:39:41Z</time>
      </trkpt>
      <trkpt lat="50.76374" lon="3.74702">
        <ele>125</ele>
        <time>2015-12-13T07:39:42Z</time>
      </trkpt>
      <trkpt lat="50.76375" lon="3.74697">
        <ele>125</ele>
        <time>2015-12-13T07:39:44Z</time>
      </trkpt>
      <trkpt lat="50.76375" lon="3.74694">
        <ele>125</ele>
        <time>2015-12-13T07:39:45Z</time>
      </trkpt>
      <trkpt lat="50.76375" lon="3.74691">
        <ele>125</ele>
        <time>2015-12-13T07:39:46Z</time>
      </trkpt>
      <trkpt lat="50.76376" lon="3.74687">
        <ele>125</ele>
        <time>2015-12-13T07:39:47Z</time>
      </trkpt>
      <trkpt lat="50.76376" lon="3.74683">
        <ele>125</ele>
        <time>2015-12-13T07:39:48Z</time>
      </trkpt>
      <trkpt lat="50.76376" lon="3.7468">
        <ele>125</ele>
        <time>2015-12-13T07:39:49Z</time>
      </trkpt>
      <trkpt lat="50.76378" lon="3.74675">
        <ele>124.3</ele>
        <time>2015-12-13T07:39:51Z</time>
      </trkpt>
      <trkpt lat="50.7638" lon="3.74671">
        <ele>124</ele>
        <time>2015-12-13T07:39:53Z</time>
      </trkpt>
      <trkpt lat="50.76381" lon="3.74669">
        <ele>124</ele>
        <time>2015-12-13T07:39:55Z</time>
      </trkpt>
      <trkpt lat="50.76383" lon="3.74662">
        <ele>124</ele>
        <time>2015-12-13T07:39:59Z</time>
      </trkpt>
      <trkpt lat="50.76384" lon="3.7466">
        <ele>124</ele>
        <time>2015-12-13T07:40:01Z</time>
      </trkpt>
      <trkpt lat="50.76385" lon="3.74656">
        <ele>124</ele>
        <time>2015-12-13T07:40:03Z</time>
      </trkpt>
      <trkpt lat="50.76387" lon="3.74649">
        <ele>123</ele>
        <time>2015-12-13T07:40:24Z</time>
      </trkpt>
      <trkpt lat="50.76388" lon="3.74646">
        <ele>123</ele>
        <time>2015-12-13T07:40:26Z</time>
      </trkpt>
      <trkpt lat="50.76388" lon="3.74643">
        <ele>123</ele>
        <time>2015-12-13T07:40:28Z</time>
      </trkpt>
      <trkpt lat="50.76391" lon="3.74641">
        <ele>123</ele>
        <time>2015-12-13T07:40:30Z</time>
      </trkpt>
      <trkpt lat="50.76393" lon="3.74639">
        <ele>124</ele>
        <time>2015-12-13T07:40:32Z</time>
      </trkpt>
      <trkpt lat="50.76395" lon="3.74636">
        <ele>124</ele>
        <time>2015-12-13T07:40:35Z</time>
      </trkpt>
      <trkpt lat="50.76397" lon="3.74633">
        <ele>124</ele>
        <time>2015-12-13T07:40:38Z</time>
      </trkpt>
      <trkpt lat="50.76399" lon="3.74631">
        <ele>124</ele>
        <time>2015-12-13T07:40:40Z</time>
      </trkpt>
      <trkpt lat="50.764" lon="3.74629">
        <ele>125</ele>
        <time>2015-12-13T07:40:42Z</time>
      </trkpt>
      <trkpt lat="50.76407" lon="3.74623">
        <ele>125</ele>
        <time>2015-12-13T07:40:47Z</time>
      </trkpt>
      <trkpt lat="50.76411" lon="3.74626">
        <ele>125</ele>
        <time>2015-12-13T07:40:51Z</time>
      </trkpt>
      <trkpt lat="50.76413" lon="3.74629">
        <ele>125</ele>
        <time>2015-12-13T07:40:53Z</time>
      </trkpt>
      <trkpt lat="50.76414" lon="3.74631">
        <ele>125</ele>
        <time>2015-12-13T07:40:58Z</time>
      </trkpt>
      <trkpt lat="50.76416" lon="3.74629">
        <ele>126</ele>
        <time>2015-12-13T07:41:03Z</time>
      </trkpt>
      <trkpt lat="50.76419" lon="3.74626">
        <ele>126</ele>
        <time>2015-12-13T07:41:06Z</time>
      </trkpt>
      <trkpt lat="50.76421" lon="3.74624">
        <ele>126</ele>
        <time>2015-12-13T07:41:08Z</time>
      </trkpt>
      <trkpt lat="50.76424" lon="3.74622">
        <ele>126</ele>
        <time>2015-12-13T07:41:10Z</time>
      </trkpt>
      <trkpt lat="50.76427" lon="3.7462">
        <ele>126</ele>
        <time>2015-12-13T07:41:12Z</time>
      </trkpt>
      <trkpt lat="50.7643" lon="3.74617">
        <ele>126</ele>
        <time>2015-12-13T07:41:14Z</time>
      </trkpt>
      <trkpt lat="50.76436" lon="3.74606">
        <ele>126</ele>
        <time>2015-12-13T07:41:22Z</time>
      </trkpt>
      <trkpt lat="50.76444" lon="3.746">
        <ele>126</ele>
        <time>2015-12-13T07:41:27Z</time>
      </trkpt>
      <trkpt lat="50.76454" lon="3.74593">
        <ele>126</ele>
        <time>2015-12-13T07:41:31Z</time>
      </trkpt>
      <trkpt lat="50.76464" lon="3.7459">
        <ele>126</ele>
        <time>2015-12-13T07:41:34Z</time>
      </trkpt>
      <trkpt lat="50.76474" lon="3.74583">
        <ele>126</ele>
        <time>2015-12-13T07:41:38Z</time>
      </trkpt>
      <trkpt lat="50.76481" lon="3.74577">
        <ele>127</ele>
        <time>2015-12-13T07:41:45Z</time>
      </trkpt>
      <trkpt lat="50.76485" lon="3.74575">
        <ele>127</ele>
        <time>2015-12-13T07:41:47Z</time>
      </trkpt>
      <trkpt lat="50.76487" lon="3.74574">
        <ele>127</ele>
        <time>2015-12-13T07:41:48Z</time>
      </trkpt>
      <trkpt lat="50.76489" lon="3.74573">
        <ele>127</ele>
        <time>2015-12-13T07:41:49Z</time>
      </trkpt>
      <trkpt lat="50.7649" lon="3.74568">
        <ele>127.7</ele>
        <time>2015-12-13T07:41:51Z</time>
      </trkpt>
      <trkpt lat="50.76491" lon="3.74566">
        <ele>128</ele>
        <time>2015-12-13T07:41:52Z</time>
      </trkpt>
      <trkpt lat="50.76493" lon="3.74563">
        <ele>128</ele>
        <time>2015-12-13T07:41:53Z</time>
      </trkpt>
      <trkpt lat="50.76494" lon="3.74561">
        <ele>128</ele>
        <time>2015-12-13T07:41:54Z</time>
      </trkpt>
      <trkpt lat="50.76496" lon="3.74558">
        <ele>128</ele>
        <time>2015-12-13T07:41:55Z</time>
      </trkpt>
      <trkpt lat="50.76498" lon="3.74556">
        <ele>128</ele>
        <time>2015-12-13T07:41:56Z</time>
      </trkpt>
      <trkpt lat="50.76499" lon="3.74554">
        <ele>128</ele>
        <time>2015-12-13T07:41:57Z</time>
      </trkpt>
      <trkpt lat="50.765" lon="3.7455">
        <ele>128</ele>
        <time>2015-12-13T07:41:58Z</time>
      </trkpt>
      <trkpt lat="50.76501" lon="3.74547">
        <ele>128</ele>
        <time>2015-12-13T07:41:59Z</time>
      </trkpt>
      <trkpt lat="50.76502" lon="3.74544">
        <ele>128</ele>
        <time>2015-12-13T07:42:00Z</time>
      </trkpt>
      <trkpt lat="50.76503" lon="3.7454">
        <ele>128.5</ele>
        <time>2015-12-13T07:42:01Z</time>
      </trkpt>
      <trkpt lat="50.76504" lon="3.74536">
        <ele>129</ele>
        <time>2015-12-13T07:42:02Z</time>
      </trkpt>
      <trkpt lat="50.76505" lon="3.74533">
        <ele>129</ele>
        <time>2015-12-13T07:42:03Z</time>
      </trkpt>
      <trkpt lat="50.76507" lon="3.74531">
        <ele>129</ele>
        <time>2015-12-13T07:42:04Z</time>
      </trkpt>
      <trkpt lat="50.7651" lon="3.74528">
        <ele>129</ele>
        <time>2015-12-13T07:42:06Z</time>
      </trkpt>
      <trkpt lat="50.76512" lon="3.74526">
        <ele>129</ele>
        <time>2015-12-13T07:42:08Z</time>
      </trkpt>
      <trkpt lat="50.76515" lon="3.74522">
        <ele>129</ele>
        <time>2015-12-13T07:42:10Z</time>
      </trkpt>
      <trkpt lat="50.76517" lon="3.74521">
        <ele>129</ele>
        <time>2015-12-13T07:42:11Z</time>
      </trkpt>
      <trkpt lat="50.7652" lon="3.74519">
        <ele>129</ele>
        <time>2015-12-13T07:42:13Z</time>
      </trkpt>
      <trkpt lat="50.76522" lon="3.74518">
        <ele>129</ele>
        <time>2015-12-13T07:42:14Z</time>
      </trkpt>
      <trkpt lat="50.76524" lon="3.74516">
        <ele>129</ele>
        <time>2015-12-13T07:42:15Z</time>
      </trkpt>
      <trkpt lat="50.76526" lon="3.74513">
        <ele>129</ele>
        <time>2015-12-13T07:42:16Z</time>
      </trkpt>
      <trkpt lat="50.76528" lon="3.74511">
        <ele>129</ele>
        <time>2015-12-13T07:42:17Z</time>
      </trkpt>
      <trkpt lat="50.7653" lon="3.74509">
        <ele>129</ele>
        <time>2015-12-13T07:42:18Z</time>
      </trkpt>
      <trkpt lat="50.76532" lon="3.74507">
        <ele>129</ele>
        <time>2015-12-13T07:42:19Z</time>
      </trkpt>
      <trkpt lat="50.76533" lon="3.74505">
        <ele>129</ele>
        <time>2015-12-13T07:42:20Z</time>
      </trkpt>
      <trkpt lat="50.76534" lon="3.74502">
        <ele>129</ele>
        <time>2015-12-13T07:42:21Z</time>
      </trkpt>
      <trkpt lat="50.76536" lon="3.74499">
        <ele>129</ele>
        <time>2015-12-13T07:42:22Z</time>
      </trkpt>
      <trkpt lat="50.76536" lon="3.74496">
        <ele>129</ele>
        <time>2015-12-13T07:42:23Z</time>
      </trkpt>
      <trkpt lat="50.76537" lon="3.74492">
        <ele>129</ele>
        <time>2015-12-13T07:42:25Z</time>
      </trkpt>
      <trkpt lat="50.76538" lon="3.74486">
        <ele>129</ele>
        <time>2015-12-13T07:42:27Z</time>
      </trkpt>
      <trkpt lat="50.76538" lon="3.74483">
        <ele>129</ele>
        <time>2015-12-13T07:42:28Z</time>
      </trkpt>
      <trkpt lat="50.76539" lon="3.74478">
        <ele>129</ele>
        <time>2015-12-13T07:42:30Z</time>
      </trkpt>
      <trkpt lat="50.7654" lon="3.74474">
        <ele>129</ele>
        <time>2015-12-13T07:42:32Z</time>
      </trkpt>
      <trkpt lat="50.76541" lon="3.74472">
        <ele>129</ele>
        <time>2015-12-13T07:42:33Z</time>
      </trkpt>
      <trkpt lat="50.76543" lon="3.7447">
        <ele>129</ele>
        <time>2015-12-13T07:42:34Z</time>
      </trkpt>
      <trkpt lat="50.76545" lon="3.7447">
        <ele>129</ele>
        <time>2015-12-13T07:42:35Z</time>
      </trkpt>
      <trkpt lat="50.76547" lon="3.74471">
        <ele>129</ele>
        <time>2015-12-13T07:42:36Z</time>
      </trkpt>
      <trkpt lat="50.7655" lon="3.74474">
        <ele>129</ele>
        <time>2015-12-13T07:42:38Z</time>
      </trkpt>
      <trkpt lat="50.76552" lon="3.74476">
        <ele>129</ele>
        <time>2015-12-13T07:42:39Z</time>
      </trkpt>
      <trkpt lat="50.76554" lon="3.74478">
        <ele>129</ele>
        <time>2015-12-13T07:42:40Z</time>
      </trkpt>
      <trkpt lat="50.76555" lon="3.7448">
        <ele>128.3</ele>
        <time>2015-12-13T07:42:41Z</time>
      </trkpt>
      <trkpt lat="50.76557" lon="3.74481">
        <ele>128</ele>
        <time>2015-12-13T07:42:42Z</time>
      </trkpt>
      <trkpt lat="50.76566" lon="3.74485">
        <ele>128</ele>
        <time>2015-12-13T07:42:46Z</time>
      </trkpt>
      <trkpt lat="50.76576" lon="3.74489">
        <ele>128</ele>
        <time>2015-12-13T07:42:50Z</time>
      </trkpt>
      <trkpt lat="50.76585" lon="3.74494">
        <ele>126</ele>
        <time>2015-12-13T07:42:53Z</time>
      </trkpt>
      <trkpt lat="50.7659" lon="3.74498">
        <ele>126</ele>
        <time>2015-12-13T07:42:55Z</time>
      </trkpt>
      <trkpt lat="50.76592" lon="3.74499">
        <ele>125.3</ele>
        <time>2015-12-13T07:42:56Z</time>
      </trkpt>
      <trkpt lat="50.76595" lon="3.74501">
        <ele>125</ele>
        <time>2015-12-13T07:42:57Z</time>
      </trkpt>
      <trkpt lat="50.76597" lon="3.74502">
        <ele>125</ele>
        <time>2015-12-13T07:42:58Z</time>
      </trkpt>
      <trkpt lat="50.76599" lon="3.74503">
        <ele>125</ele>
        <time>2015-12-13T07:42:59Z</time>
      </trkpt>
      <trkpt lat="50.76602" lon="3.74504">
        <ele>125</ele>
        <time>2015-12-13T07:43:00Z</time>
      </trkpt>
      <trkpt lat="50.76605" lon="3.74505">
        <ele>123.6</ele>
        <time>2015-12-13T07:43:01Z</time>
      </trkpt>
      <trkpt lat="50.76607" lon="3.74507">
        <ele>123</ele>
        <time>2015-12-13T07:43:02Z</time>
      </trkpt>
      <trkpt lat="50.7661" lon="3.74509">
        <ele>123</ele>
        <time>2015-12-13T07:43:03Z</time>
      </trkpt>
      <trkpt lat="50.76612" lon="3.74511">
        <ele>123</ele>
        <time>2015-12-13T07:43:04Z</time>
      </trkpt>
      <trkpt lat="50.76614" lon="3.74512">
        <ele>123</ele>
        <time>2015-12-13T07:43:05Z</time>
      </trkpt>
      <trkpt lat="50.76617" lon="3.74515">
        <ele>122.3</ele>
        <time>2015-12-13T07:43:06Z</time>
      </trkpt>
      <trkpt lat="50.76619" lon="3.74517">
        <ele>122</ele>
        <time>2015-12-13T07:43:07Z</time>
      </trkpt>
      <trkpt lat="50.76622" lon="3.74518">
        <ele>122</ele>
        <time>2015-12-13T07:43:08Z</time>
      </trkpt>
      <trkpt lat="50.76625" lon="3.7452">
        <ele>122</ele>
        <time>2015-12-13T07:43:09Z</time>
      </trkpt>
      <trkpt lat="50.76628" lon="3.74522">
        <ele>122</ele>
        <time>2015-12-13T07:43:10Z</time>
      </trkpt>
      <trkpt lat="50.76631" lon="3.74523">
        <ele>121.3</ele>
        <time>2015-12-13T07:43:11Z</time>
      </trkpt>
      <trkpt lat="50.76633" lon="3.74524">
        <ele>121</ele>
        <time>2015-12-13T07:43:12Z</time>
      </trkpt>
      <trkpt lat="50.76636" lon="3.74526">
        <ele>121</ele>
        <time>2015-12-13T07:43:13Z</time>
      </trkpt>
      <trkpt lat="50.76639" lon="3.74528">
        <ele>121</ele>
        <time>2015-12-13T07:43:14Z</time>
      </trkpt>
      <trkpt lat="50.7664" lon="3.7453">
        <ele>121</ele>
        <time>2015-12-13T07:43:15Z</time>
      </trkpt>
      <trkpt lat="50.76643" lon="3.74532">
        <ele>121</ele>
        <time>2015-12-13T07:43:16Z</time>
      </trkpt>
      <trkpt lat="50.76645" lon="3.74534">
        <ele>121</ele>
        <time>2015-12-13T07:43:17Z</time>
      </trkpt>
      <trkpt lat="50.76647" lon="3.74537">
        <ele>121</ele>
        <time>2015-12-13T07:43:18Z</time>
      </trkpt>
      <trkpt lat="50.76648" lon="3.74539">
        <ele>121</ele>
        <time>2015-12-13T07:43:19Z</time>
      </trkpt>
      <trkpt lat="50.76651" lon="3.74542">
        <ele>120.3</ele>
        <time>2015-12-13T07:43:21Z</time>
      </trkpt>
      <trkpt lat="50.76653" lon="3.74544">
        <ele>120</ele>
        <time>2015-12-13T07:43:22Z</time>
      </trkpt>
      <trkpt lat="50.76656" lon="3.74546">
        <ele>120</ele>
        <time>2015-12-13T07:43:23Z</time>
      </trkpt>
      <trkpt lat="50.76658" lon="3.74548">
        <ele>120</ele>
        <time>2015-12-13T07:43:24Z</time>
      </trkpt>
      <trkpt lat="50.7666" lon="3.7455">
        <ele>120</ele>
        <time>2015-12-13T07:43:25Z</time>
      </trkpt>
      <trkpt lat="50.76662" lon="3.74551">
        <ele>120</ele>
        <time>2015-12-13T07:43:26Z</time>
      </trkpt>
      <trkpt lat="50.76664" lon="3.74553">
        <ele>120</ele>
        <time>2015-12-13T07:43:27Z</time>
      </trkpt>
      <trkpt lat="50.76667" lon="3.74555">
        <ele>120</ele>
        <time>2015-12-13T07:43:28Z</time>
      </trkpt>
      <trkpt lat="50.76669" lon="3.74557">
        <ele>120</ele>
        <time>2015-12-13T07:43:29Z</time>
      </trkpt>
      <trkpt lat="50.76672" lon="3.7456">
        <ele>118.6</ele>
        <time>2015-12-13T07:43:31Z</time>
      </trkpt>
      <trkpt lat="50.76677" lon="3.74563">
        <ele>118</ele>
        <time>2015-12-13T07:43:34Z</time>
      </trkpt>
      <trkpt lat="50.76679" lon="3.74563">
        <ele>118</ele>
        <time>2015-12-13T07:43:35Z</time>
      </trkpt>
      <trkpt lat="50.76683" lon="3.74564">
        <ele>118</ele>
        <time>2015-12-13T07:43:36Z</time>
      </trkpt>
      <trkpt lat="50.76687" lon="3.74567">
        <ele>118</ele>
        <time>2015-12-13T07:43:37Z</time>
      </trkpt>
      <trkpt lat="50.7669" lon="3.74569">
        <ele>118</ele>
        <time>2015-12-13T07:43:38Z</time>
      </trkpt>
      <trkpt lat="50.76693" lon="3.74571">
        <ele>118</ele>
        <time>2015-12-13T07:43:39Z</time>
      </trkpt>
      <trkpt lat="50.76696" lon="3.74572">
        <ele>118</ele>
        <time>2015-12-13T07:43:40Z</time>
      </trkpt>
      <trkpt lat="50.76698" lon="3.74574">
        <ele>116.6</ele>
        <time>2015-12-13T07:43:41Z</time>
      </trkpt>
      <trkpt lat="50.76708" lon="3.74582">
        <ele>116</ele>
        <time>2015-12-13T07:43:45Z</time>
      </trkpt>
      <trkpt lat="50.76712" lon="3.74585">
        <ele>116</ele>
        <time>2015-12-13T07:43:46Z</time>
      </trkpt>
      <trkpt lat="50.76718" lon="3.74591">
        <ele>116</ele>
        <time>2015-12-13T07:43:48Z</time>
      </trkpt>
      <trkpt lat="50.76721" lon="3.74593">
        <ele>116</ele>
        <time>2015-12-13T07:43:49Z</time>
      </trkpt>
      <trkpt lat="50.76723" lon="3.74596">
        <ele>116</ele>
        <time>2015-12-13T07:43:50Z</time>
      </trkpt>
      <trkpt lat="50.76725" lon="3.74597">
        <ele>113.3</ele>
        <time>2015-12-13T07:43:51Z</time>
      </trkpt>
      <trkpt lat="50.76727" lon="3.74599">
        <ele>110.3</ele>
        <time>2015-12-13T07:43:52Z</time>
      </trkpt>
      <trkpt lat="50.76729" lon="3.74601">
        <ele>110</ele>
        <time>2015-12-13T07:43:53Z</time>
      </trkpt>
      <trkpt lat="50.76733" lon="3.74605">
        <ele>109.5</ele>
        <time>2015-12-13T07:43:55Z</time>
      </trkpt>
      <trkpt lat="50.76742" lon="3.74611">
        <ele>108</ele>
        <time>2015-12-13T07:43:58Z</time>
      </trkpt>
      <trkpt lat="50.76744" lon="3.74612">
        <ele>108</ele>
        <time>2015-12-13T07:43:59Z</time>
      </trkpt>
      <trkpt lat="50.76747" lon="3.74614">
        <ele>108</ele>
        <time>2015-12-13T07:44:00Z</time>
      </trkpt>
      <trkpt lat="50.7675" lon="3.74615">
        <ele>108</ele>
        <time>2015-12-13T07:44:01Z</time>
      </trkpt>
      <trkpt lat="50.76757" lon="3.74619">
        <ele>108</ele>
        <time>2015-12-13T07:44:04Z</time>
      </trkpt>
      <trkpt lat="50.76766" lon="3.74625">
        <ele>108</ele>
        <time>2015-12-13T07:44:08Z</time>
      </trkpt>
      <trkpt lat="50.76775" lon="3.74631">
        <ele>107</ele>
        <time>2015-12-13T07:44:12Z</time>
      </trkpt>
      <trkpt lat="50.76785" lon="3.74639">
        <ele>107</ele>
        <time>2015-12-13T07:44:16Z</time>
      </trkpt>
      <trkpt lat="50.7679" lon="3.74641">
        <ele>107</ele>
        <time>2015-12-13T07:44:18Z</time>
      </trkpt>
      <trkpt lat="50.76792" lon="3.74642">
        <ele>107</ele>
        <time>2015-12-13T07:44:19Z</time>
      </trkpt>
      <trkpt lat="50.76795" lon="3.74644">
        <ele>107</ele>
        <time>2015-12-13T07:44:20Z</time>
      </trkpt>
      <trkpt lat="50.76797" lon="3.74645">
        <ele>106.3</ele>
        <time>2015-12-13T07:44:21Z</time>
      </trkpt>
      <trkpt lat="50.76806" lon="3.74652">
        <ele>106</ele>
        <time>2015-12-13T07:44:24Z</time>
      </trkpt>
      <trkpt lat="50.76815" lon="3.7466">
        <ele>106</ele>
        <time>2015-12-13T07:44:27Z</time>
      </trkpt>
      <trkpt lat="50.76824" lon="3.74668">
        <ele>106</ele>
        <time>2015-12-13T07:44:30Z</time>
      </trkpt>
      <trkpt lat="50.76833" lon="3.74673">
        <ele>104</ele>
        <time>2015-12-13T07:44:34Z</time>
      </trkpt>
      <trkpt lat="50.76843" lon="3.74682">
        <ele>104</ele>
        <time>2015-12-13T07:44:38Z</time>
      </trkpt>
      <trkpt lat="50.76852" lon="3.74689">
        <ele>102</ele>
        <time>2015-12-13T07:44:42Z</time>
      </trkpt>
      <trkpt lat="50.76862" lon="3.74694">
        <ele>101.5</ele>
        <time>2015-12-13T07:44:46Z</time>
      </trkpt>
      <trkpt lat="50.76872" lon="3.74701">
        <ele>100.5</ele>
        <time>2015-12-13T07:44:51Z</time>
      </trkpt>
      <trkpt lat="50.76882" lon="3.74707">
        <ele>100</ele>
        <time>2015-12-13T07:44:55Z</time>
      </trkpt>
      <trkpt lat="50.76893" lon="3.74715">
        <ele>100</ele>
        <time>2015-12-13T07:44:59Z</time>
      </trkpt>
      <trkpt lat="50.76897" lon="3.74718">
        <ele>100</ele>
        <time>2015-12-13T07:45:00Z</time>
      </trkpt>
      <trkpt lat="50.76899" lon="3.7472">
        <ele>100</ele>
        <time>2015-12-13T07:45:01Z</time>
      </trkpt>
      <trkpt lat="50.76902" lon="3.74723">
        <ele>99.3</ele>
        <time>2015-12-13T07:45:02Z</time>
      </trkpt>
      <trkpt lat="50.76904" lon="3.74725">
        <ele>99</ele>
        <time>2015-12-13T07:45:03Z</time>
      </trkpt>
      <trkpt lat="50.76907" lon="3.74726">
        <ele>99</ele>
        <time>2015-12-13T07:45:04Z</time>
      </trkpt>
      <trkpt lat="50.7691" lon="3.74728">
        <ele>99</ele>
        <time>2015-12-13T07:45:05Z</time>
      </trkpt>
      <trkpt lat="50.76916" lon="3.74731">
        <ele>99</ele>
        <time>2015-12-13T07:45:08Z</time>
      </trkpt>
      <trkpt lat="50.76918" lon="3.74732">
        <ele>99</ele>
        <time>2015-12-13T07:45:09Z</time>
      </trkpt>
      <trkpt lat="50.76921" lon="3.74733">
        <ele>99</ele>
        <time>2015-12-13T07:45:10Z</time>
      </trkpt>
      <trkpt lat="50.76923" lon="3.74734">
        <ele>99</ele>
        <time>2015-12-13T07:45:11Z</time>
      </trkpt>
      <trkpt lat="50.76925" lon="3.74735">
        <ele>99</ele>
        <time>2015-12-13T07:45:12Z</time>
      </trkpt>
      <trkpt lat="50.76928" lon="3.74737">
        <ele>99</ele>
        <time>2015-12-13T07:45:13Z</time>
      </trkpt>
      <trkpt lat="50.76937" lon="3.74744">
        <ele>99</ele>
        <time>2015-12-13T07:45:16Z</time>
      </trkpt>
      <trkpt lat="50.76947" lon="3.74753">
        <ele>99</ele>
        <time>2015-12-13T07:45:20Z</time>
      </trkpt>
      <trkpt lat="50.76955" lon="3.74758">
        <ele>97</ele>
        <time>2015-12-13T07:45:23Z</time>
      </trkpt>
      <trkpt lat="50.76966" lon="3.74765">
        <ele>97</ele>
        <time>2015-12-13T07:45:27Z</time>
      </trkpt>
      <trkpt lat="50.76974" lon="3.74771">
        <ele>97</ele>
        <time>2015-12-13T07:45:30Z</time>
      </trkpt>
      <trkpt lat="50.76976" lon="3.74772">
        <ele>97</ele>
        <time>2015-12-13T07:45:31Z</time>
      </trkpt>
      <trkpt lat="50.76978" lon="3.74774">
        <ele>97</ele>
        <time>2015-12-13T07:45:32Z</time>
      </trkpt>
      <trkpt lat="50.76981" lon="3.74776">
        <ele>97</ele>
        <time>2015-12-13T07:45:33Z</time>
      </trkpt>
      <trkpt lat="50.76983" lon="3.74777">
        <ele>97</ele>
        <time>2015-12-13T07:45:34Z</time>
      </trkpt>
      <trkpt lat="50.76988" lon="3.74782">
        <ele>97</ele>
        <time>2015-12-13T07:45:37Z</time>
      </trkpt>
      <trkpt lat="50.76995" lon="3.74789">
        <ele>97</ele>
        <time>2015-12-13T07:45:41Z</time>
      </trkpt>
      <trkpt lat="50.76997" lon="3.74792">
        <ele>96.5</ele>
        <time>2015-12-13T07:45:42Z</time>
      </trkpt>
      <trkpt lat="50.77001" lon="3.74795">
        <ele>96</ele>
        <time>2015-12-13T07:45:43Z</time>
      </trkpt>
      <trkpt lat="50.77005" lon="3.74798">
        <ele>96</ele>
        <time>2015-12-13T07:45:44Z</time>
      </trkpt>
      <trkpt lat="50.77008" lon="3.748">
        <ele>96</ele>
        <time>2015-12-13T07:45:45Z</time>
      </trkpt>
      <trkpt lat="50.77011" lon="3.74803">
        <ele>96</ele>
        <time>2015-12-13T07:45:46Z</time>
      </trkpt>
      <trkpt lat="50.77013" lon="3.74806">
        <ele>96</ele>
        <time>2015-12-13T07:45:47Z</time>
      </trkpt>
      <trkpt lat="50.77016" lon="3.74808">
        <ele>96</ele>
        <time>2015-12-13T07:45:48Z</time>
      </trkpt>
      <trkpt lat="50.77018" lon="3.7481">
        <ele>96</ele>
        <time>2015-12-13T07:45:49Z</time>
      </trkpt>
      <trkpt lat="50.77023" lon="3.74814">
        <ele>96</ele>
        <time>2015-12-13T07:45:51Z</time>
      </trkpt>
      <trkpt lat="50.77027" lon="3.74818">
        <ele>95</ele>
        <time>2015-12-13T07:45:53Z</time>
      </trkpt>
      <trkpt lat="50.7703" lon="3.74819">
        <ele>95</ele>
        <time>2015-12-13T07:45:54Z</time>
      </trkpt>
      <trkpt lat="50.77032" lon="3.7482">
        <ele>95</ele>
        <time>2015-12-13T07:45:55Z</time>
      </trkpt>
      <trkpt lat="50.77034" lon="3.74822">
        <ele>95</ele>
        <time>2015-12-13T07:45:56Z</time>
      </trkpt>
      <trkpt lat="50.77036" lon="3.74824">
        <ele>95.7</ele>
        <time>2015-12-13T07:45:57Z</time>
      </trkpt>
      <trkpt lat="50.77038" lon="3.74826">
        <ele>96</ele>
        <time>2015-12-13T07:45:58Z</time>
      </trkpt>
      <trkpt lat="50.77042" lon="3.74829">
        <ele>96</ele>
        <time>2015-12-13T07:46:00Z</time>
      </trkpt>
      <trkpt lat="50.77046" lon="3.74832">
        <ele>94</ele>
        <time>2015-12-13T07:46:02Z</time>
      </trkpt>
      <trkpt lat="50.77048" lon="3.74834">
        <ele>94</ele>
        <time>2015-12-13T07:46:03Z</time>
      </trkpt>
      <trkpt lat="50.7705" lon="3.74836">
        <ele>94</ele>
        <time>2015-12-13T07:46:04Z</time>
      </trkpt>
      <trkpt lat="50.77053" lon="3.74838">
        <ele>94</ele>
        <time>2015-12-13T07:46:05Z</time>
      </trkpt>
      <trkpt lat="50.77056" lon="3.74839">
        <ele>94</ele>
        <time>2015-12-13T07:46:06Z</time>
      </trkpt>
      <trkpt lat="50.77059" lon="3.74841">
        <ele>94</ele>
        <time>2015-12-13T07:46:07Z</time>
      </trkpt>
      <trkpt lat="50.77062" lon="3.74842">
        <ele>94</ele>
        <time>2015-12-13T07:46:08Z</time>
      </trkpt>
      <trkpt lat="50.77065" lon="3.74844">
        <ele>94</ele>
        <time>2015-12-13T07:46:09Z</time>
      </trkpt>
      <trkpt lat="50.77067" lon="3.74846">
        <ele>94</ele>
        <time>2015-12-13T07:46:10Z</time>
      </trkpt>
      <trkpt lat="50.7707" lon="3.74848">
        <ele>93.3</ele>
        <time>2015-12-13T07:46:11Z</time>
      </trkpt>
      <trkpt lat="50.77073" lon="3.7485">
        <ele>93</ele>
        <time>2015-12-13T07:46:12Z</time>
      </trkpt>
      <trkpt lat="50.77075" lon="3.74852">
        <ele>93</ele>
        <time>2015-12-13T07:46:13Z</time>
      </trkpt>
      <trkpt lat="50.77078" lon="3.74854">
        <ele>93</ele>
        <time>2015-12-13T07:46:14Z</time>
      </trkpt>
      <trkpt lat="50.77081" lon="3.74856">
        <ele>93</ele>
        <time>2015-12-13T07:46:15Z</time>
      </trkpt>
      <trkpt lat="50.77083" lon="3.74858">
        <ele>93</ele>
        <time>2015-12-13T07:46:16Z</time>
      </trkpt>
      <trkpt lat="50.77086" lon="3.74859">
        <ele>93</ele>
        <time>2015-12-13T07:46:17Z</time>
      </trkpt>
      <trkpt lat="50.77088" lon="3.74861">
        <ele>93</ele>
        <time>2015-12-13T07:46:18Z</time>
      </trkpt>
      <trkpt lat="50.7709" lon="3.74862">
        <ele>93</ele>
        <time>2015-12-13T07:46:19Z</time>
      </trkpt>
      <trkpt lat="50.77093" lon="3.74865">
        <ele>93</ele>
        <time>2015-12-13T07:46:20Z</time>
      </trkpt>
      <trkpt lat="50.77096" lon="3.74866">
        <ele>93</ele>
        <time>2015-12-13T07:46:21Z</time>
      </trkpt>
      <trkpt lat="50.77099" lon="3.74868">
        <ele>93</ele>
        <time>2015-12-13T07:46:22Z</time>
      </trkpt>
      <trkpt lat="50.77102" lon="3.74871">
        <ele>93</ele>
        <time>2015-12-13T07:46:23Z</time>
      </trkpt>
      <trkpt lat="50.77104" lon="3.74872">
        <ele>93</ele>
        <time>2015-12-13T07:46:24Z</time>
      </trkpt>
      <trkpt lat="50.77106" lon="3.74874">
        <ele>93</ele>
        <time>2015-12-13T07:46:25Z</time>
      </trkpt>
      <trkpt lat="50.77109" lon="3.74875">
        <ele>93</ele>
        <time>2015-12-13T07:46:26Z</time>
      </trkpt>
      <trkpt lat="50.77111" lon="3.74877">
        <ele>93</ele>
        <time>2015-12-13T07:46:27Z</time>
      </trkpt>
      <trkpt lat="50.77113" lon="3.74878">
        <ele>93</ele>
        <time>2015-12-13T07:46:28Z</time>
      </trkpt>
      <trkpt lat="50.77115" lon="3.7488">
        <ele>93</ele>
        <time>2015-12-13T07:46:29Z</time>
      </trkpt>
      <trkpt lat="50.77117" lon="3.74882">
        <ele>93</ele>
        <time>2015-12-13T07:46:30Z</time>
      </trkpt>
      <trkpt lat="50.77119" lon="3.74884">
        <ele>91.6</ele>
        <time>2015-12-13T07:46:31Z</time>
      </trkpt>
      <trkpt lat="50.77122" lon="3.74886">
        <ele>91</ele>
        <time>2015-12-13T07:46:32Z</time>
      </trkpt>
      <trkpt lat="50.77125" lon="3.74889">
        <ele>91</ele>
        <time>2015-12-13T07:46:33Z</time>
      </trkpt>
      <trkpt lat="50.77127" lon="3.74891">
        <ele>91</ele>
        <time>2015-12-13T07:46:34Z</time>
      </trkpt>
      <trkpt lat="50.77129" lon="3.74893">
        <ele>91</ele>
        <time>2015-12-13T07:46:35Z</time>
      </trkpt>
      <trkpt lat="50.77131" lon="3.74895">
        <ele>91</ele>
        <time>2015-12-13T07:46:36Z</time>
      </trkpt>
      <trkpt lat="50.77133" lon="3.74897">
        <ele>91</ele>
        <time>2015-12-13T07:46:37Z</time>
      </trkpt>
      <trkpt lat="50.77136" lon="3.74898">
        <ele>91</ele>
        <time>2015-12-13T07:46:38Z</time>
      </trkpt>
      <trkpt lat="50.77138" lon="3.749">
        <ele>91</ele>
        <time>2015-12-13T07:46:39Z</time>
      </trkpt>
      <trkpt lat="50.7714" lon="3.74901">
        <ele>91.7</ele>
        <time>2015-12-13T07:46:40Z</time>
      </trkpt>
      <trkpt lat="50.77142" lon="3.74902">
        <ele>91.3</ele>
        <time>2015-12-13T07:46:41Z</time>
      </trkpt>
      <trkpt lat="50.77144" lon="3.74904">
        <ele>91</ele>
        <time>2015-12-13T07:46:42Z</time>
      </trkpt>
      <trkpt lat="50.77146" lon="3.74906">
        <ele>91</ele>
        <time>2015-12-13T07:46:43Z</time>
      </trkpt>
      <trkpt lat="50.77148" lon="3.74908">
        <ele>91</ele>
        <time>2015-12-13T07:46:44Z</time>
      </trkpt>
      <trkpt lat="50.77151" lon="3.74909">
        <ele>91</ele>
        <time>2015-12-13T07:46:45Z</time>
      </trkpt>
      <trkpt lat="50.77153" lon="3.74911">
        <ele>91</ele>
        <time>2015-12-13T07:46:46Z</time>
      </trkpt>
      <trkpt lat="50.77156" lon="3.74913">
        <ele>91</ele>
        <time>2015-12-13T07:46:47Z</time>
      </trkpt>
      <trkpt lat="50.77158" lon="3.74914">
        <ele>91</ele>
        <time>2015-12-13T07:46:48Z</time>
      </trkpt>
      <trkpt lat="50.77161" lon="3.74916">
        <ele>91</ele>
        <time>2015-12-13T07:46:49Z</time>
      </trkpt>
      <trkpt lat="50.77164" lon="3.74917">
        <ele>91</ele>
        <time>2015-12-13T07:46:50Z</time>
      </trkpt>
      <trkpt lat="50.77167" lon="3.74919">
        <ele>90.3</ele>
        <time>2015-12-13T07:46:51Z</time>
      </trkpt>
      <trkpt lat="50.77169" lon="3.7492">
        <ele>90</ele>
        <time>2015-12-13T07:46:52Z</time>
      </trkpt>
      <trkpt lat="50.77172" lon="3.74922">
        <ele>90</ele>
        <time>2015-12-13T07:46:53Z</time>
      </trkpt>
      <trkpt lat="50.77174" lon="3.74923">
        <ele>90</ele>
        <time>2015-12-13T07:46:54Z</time>
      </trkpt>
      <trkpt lat="50.77176" lon="3.74924">
        <ele>90</ele>
        <time>2015-12-13T07:46:55Z</time>
      </trkpt>
      <trkpt lat="50.77178" lon="3.74925">
        <ele>90</ele>
        <time>2015-12-13T07:46:56Z</time>
      </trkpt>
      <trkpt lat="50.7718" lon="3.74927">
        <ele>90</ele>
        <time>2015-12-13T07:46:57Z</time>
      </trkpt>
      <trkpt lat="50.77182" lon="3.74928">
        <ele>90</ele>
        <time>2015-12-13T07:46:58Z</time>
      </trkpt>
      <trkpt lat="50.77184" lon="3.7493">
        <ele>90</ele>
        <time>2015-12-13T07:46:59Z</time>
      </trkpt>
      <trkpt lat="50.77187" lon="3.74932">
        <ele>90</ele>
        <time>2015-12-13T07:47:00Z</time>
      </trkpt>
      <trkpt lat="50.77188" lon="3.74934">
        <ele>90</ele>
        <time>2015-12-13T07:47:01Z</time>
      </trkpt>
      <trkpt lat="50.77191" lon="3.74936">
        <ele>90</ele>
        <time>2015-12-13T07:47:02Z</time>
      </trkpt>
      <trkpt lat="50.77193" lon="3.74938">
        <ele>90</ele>
        <time>2015-12-13T07:47:03Z</time>
      </trkpt>
      <trkpt lat="50.77196" lon="3.7494">
        <ele>90</ele>
        <time>2015-12-13T07:47:04Z</time>
      </trkpt>
      <trkpt lat="50.77199" lon="3.74941">
        <ele>90</ele>
        <time>2015-12-13T07:47:05Z</time>
      </trkpt>
      <trkpt lat="50.77202" lon="3.74943">
        <ele>90</ele>
        <time>2015-12-13T07:47:06Z</time>
      </trkpt>
      <trkpt lat="50.77205" lon="3.74945">
        <ele>90</ele>
        <time>2015-12-13T07:47:07Z</time>
      </trkpt>
      <trkpt lat="50.77207" lon="3.74947">
        <ele>90</ele>
        <time>2015-12-13T07:47:08Z</time>
      </trkpt>
      <trkpt lat="50.77209" lon="3.74949">
        <ele>90</ele>
        <time>2015-12-13T07:47:09Z</time>
      </trkpt>
      <trkpt lat="50.7721" lon="3.74951">
        <ele>90</ele>
        <time>2015-12-13T07:47:10Z</time>
      </trkpt>
      <trkpt lat="50.77213" lon="3.74953">
        <ele>90</ele>
        <time>2015-12-13T07:47:11Z</time>
      </trkpt>
      <trkpt lat="50.77215" lon="3.74955">
        <ele>90</ele>
        <time>2015-12-13T07:47:12Z</time>
      </trkpt>
      <trkpt lat="50.77218" lon="3.74956">
        <ele>90</ele>
        <time>2015-12-13T07:47:13Z</time>
      </trkpt>
      <trkpt lat="50.7722" lon="3.74958">
        <ele>90</ele>
        <time>2015-12-13T07:47:14Z</time>
      </trkpt>
      <trkpt lat="50.77222" lon="3.7496">
        <ele>90</ele>
        <time>2015-12-13T07:47:15Z</time>
      </trkpt>
      <trkpt lat="50.77225" lon="3.74962">
        <ele>90</ele>
        <time>2015-12-13T07:47:16Z</time>
      </trkpt>
      <trkpt lat="50.77228" lon="3.74964">
        <ele>90</ele>
        <time>2015-12-13T07:47:17Z</time>
      </trkpt>
      <trkpt lat="50.77231" lon="3.74966">
        <ele>90</ele>
        <time>2015-12-13T07:47:18Z</time>
      </trkpt>
      <trkpt lat="50.77235" lon="3.74968">
        <ele>90</ele>
        <time>2015-12-13T07:47:19Z</time>
      </trkpt>
      <trkpt lat="50.77238" lon="3.74971">
        <ele>90</ele>
        <time>2015-12-13T07:47:20Z</time>
      </trkpt>
      <trkpt lat="50.77241" lon="3.74973">
        <ele>89.3</ele>
        <time>2015-12-13T07:47:21Z</time>
      </trkpt>
      <trkpt lat="50.77244" lon="3.74974">
        <ele>89</ele>
        <time>2015-12-13T07:47:22Z</time>
      </trkpt>
      <trkpt lat="50.77246" lon="3.74976">
        <ele>89</ele>
        <time>2015-12-13T07:47:23Z</time>
      </trkpt>
      <trkpt lat="50.77249" lon="3.74978">
        <ele>89</ele>
        <time>2015-12-13T07:47:24Z</time>
      </trkpt>
      <trkpt lat="50.77251" lon="3.74979">
        <ele>89</ele>
        <time>2015-12-13T07:47:25Z</time>
      </trkpt>
      <trkpt lat="50.77253" lon="3.74981">
        <ele>89</ele>
        <time>2015-12-13T07:47:26Z</time>
      </trkpt>
      <trkpt lat="50.77255" lon="3.74983">
        <ele>89</ele>
        <time>2015-12-13T07:47:27Z</time>
      </trkpt>
      <trkpt lat="50.77258" lon="3.74985">
        <ele>89</ele>
        <time>2015-12-13T07:47:28Z</time>
      </trkpt>
      <trkpt lat="50.77259" lon="3.74987">
        <ele>89</ele>
        <time>2015-12-13T07:47:29Z</time>
      </trkpt>
      <trkpt lat="50.77261" lon="3.74989">
        <ele>89</ele>
        <time>2015-12-13T07:47:30Z</time>
      </trkpt>
      <trkpt lat="50.77263" lon="3.74991">
        <ele>88.3</ele>
        <time>2015-12-13T07:47:31Z</time>
      </trkpt>
      <trkpt lat="50.77265" lon="3.74993">
        <ele>88.5</ele>
        <time>2015-12-13T07:47:32Z</time>
      </trkpt>
      <trkpt lat="50.77268" lon="3.74995">
        <ele>89</ele>
        <time>2015-12-13T07:47:33Z</time>
      </trkpt>
      <trkpt lat="50.7727" lon="3.74997">
        <ele>89</ele>
        <time>2015-12-13T07:47:34Z</time>
      </trkpt>
      <trkpt lat="50.77273" lon="3.74998">
        <ele>89</ele>
        <time>2015-12-13T07:47:35Z</time>
      </trkpt>
      <trkpt lat="50.77275" lon="3.75">
        <ele>89</ele>
        <time>2015-12-13T07:47:36Z</time>
      </trkpt>
      <trkpt lat="50.77277" lon="3.75002">
        <ele>89</ele>
        <time>2015-12-13T07:47:37Z</time>
      </trkpt>
      <trkpt lat="50.77279" lon="3.75004">
        <ele>89</ele>
        <time>2015-12-13T07:47:38Z</time>
      </trkpt>
      <trkpt lat="50.77281" lon="3.75006">
        <ele>89</ele>
        <time>2015-12-13T07:47:39Z</time>
      </trkpt>
      <trkpt lat="50.77283" lon="3.75007">
        <ele>89</ele>
        <time>2015-12-13T07:47:40Z</time>
      </trkpt>
      <trkpt lat="50.77286" lon="3.75008">
        <ele>87.6</ele>
        <time>2015-12-13T07:47:41Z</time>
      </trkpt>
      <trkpt lat="50.77289" lon="3.7501">
        <ele>87</ele>
        <time>2015-12-13T07:47:42Z</time>
      </trkpt>
      <trkpt lat="50.77292" lon="3.75011">
        <ele>87</ele>
        <time>2015-12-13T07:47:43Z</time>
      </trkpt>
      <trkpt lat="50.77294" lon="3.75013">
        <ele>87</ele>
        <time>2015-12-13T07:47:44Z</time>
      </trkpt>
      <trkpt lat="50.77297" lon="3.75014">
        <ele>87</ele>
        <time>2015-12-13T07:47:45Z</time>
      </trkpt>
      <trkpt lat="50.77299" lon="3.75016">
        <ele>87</ele>
        <time>2015-12-13T07:47:46Z</time>
      </trkpt>
      <trkpt lat="50.77301" lon="3.75019">
        <ele>87</ele>
        <time>2015-12-13T07:47:47Z</time>
      </trkpt>
      <trkpt lat="50.77304" lon="3.75021">
        <ele>87</ele>
        <time>2015-12-13T07:47:48Z</time>
      </trkpt>
      <trkpt lat="50.77306" lon="3.75022">
        <ele>87</ele>
        <time>2015-12-13T07:47:49Z</time>
      </trkpt>
      <trkpt lat="50.77309" lon="3.75023">
        <ele>87</ele>
        <time>2015-12-13T07:47:50Z</time>
      </trkpt>
      <trkpt lat="50.77312" lon="3.75025">
        <ele>86.5</ele>
        <time>2015-12-13T07:47:51Z</time>
      </trkpt>
      <trkpt lat="50.77314" lon="3.75027">
        <ele>86</ele>
        <time>2015-12-13T07:47:52Z</time>
      </trkpt>
      <trkpt lat="50.77316" lon="3.75027">
        <ele>86</ele>
        <time>2015-12-13T07:47:53Z</time>
      </trkpt>
      <trkpt lat="50.77318" lon="3.75029">
        <ele>86.7</ele>
        <time>2015-12-13T07:47:54Z</time>
      </trkpt>
      <trkpt lat="50.77319" lon="3.7503">
        <ele>87</ele>
        <time>2015-12-13T07:47:55Z</time>
      </trkpt>
      <trkpt lat="50.77322" lon="3.75033">
        <ele>87</ele>
        <time>2015-12-13T07:47:56Z</time>
      </trkpt>
      <trkpt lat="50.77324" lon="3.75035">
        <ele>87</ele>
        <time>2015-12-13T07:47:57Z</time>
      </trkpt>
      <trkpt lat="50.77326" lon="3.75036">
        <ele>87</ele>
        <time>2015-12-13T07:47:58Z</time>
      </trkpt>
      <trkpt lat="50.77328" lon="3.75039">
        <ele>87</ele>
        <time>2015-12-13T07:47:59Z</time>
      </trkpt>
      <trkpt lat="50.7733" lon="3.75041">
        <ele>87</ele>
        <time>2015-12-13T07:48:00Z</time>
      </trkpt>
      <trkpt lat="50.77332" lon="3.75043">
        <ele>86.5</ele>
        <time>2015-12-13T07:48:01Z</time>
      </trkpt>
      <trkpt lat="50.77333" lon="3.75045">
        <ele>86</ele>
        <time>2015-12-13T07:48:02Z</time>
      </trkpt>
      <trkpt lat="50.77335" lon="3.75048">
        <ele>86</ele>
        <time>2015-12-13T07:48:03Z</time>
      </trkpt>
      <trkpt lat="50.77338" lon="3.7505">
        <ele>86</ele>
        <time>2015-12-13T07:48:04Z</time>
      </trkpt>
      <trkpt lat="50.77341" lon="3.75052">
        <ele>86</ele>
        <time>2015-12-13T07:48:05Z</time>
      </trkpt>
      <trkpt lat="50.77343" lon="3.75054">
        <ele>86</ele>
        <time>2015-12-13T07:48:06Z</time>
      </trkpt>
      <trkpt lat="50.77348" lon="3.75058">
        <ele>86</ele>
        <time>2015-12-13T07:48:08Z</time>
      </trkpt>
      <trkpt lat="50.77352" lon="3.7506">
        <ele>86</ele>
        <time>2015-12-13T07:48:09Z</time>
      </trkpt>
      <trkpt lat="50.7736" lon="3.75066">
        <ele>85</ele>
        <time>2015-12-13T07:48:12Z</time>
      </trkpt>
      <trkpt lat="50.77364" lon="3.75068">
        <ele>85</ele>
        <time>2015-12-13T07:48:13Z</time>
      </trkpt>
      <trkpt lat="50.77367" lon="3.7507">
        <ele>85</ele>
        <time>2015-12-13T07:48:14Z</time>
      </trkpt>
      <trkpt lat="50.7737" lon="3.75072">
        <ele>85</ele>
        <time>2015-12-13T07:48:15Z</time>
      </trkpt>
      <trkpt lat="50.77373" lon="3.75074">
        <ele>85</ele>
        <time>2015-12-13T07:48:16Z</time>
      </trkpt>
      <trkpt lat="50.77376" lon="3.75076">
        <ele>85</ele>
        <time>2015-12-13T07:48:17Z</time>
      </trkpt>
      <trkpt lat="50.77378" lon="3.75077">
        <ele>85</ele>
        <time>2015-12-13T07:48:18Z</time>
      </trkpt>
      <trkpt lat="50.7738" lon="3.75079">
        <ele>85</ele>
        <time>2015-12-13T07:48:19Z</time>
      </trkpt>
      <trkpt lat="50.77383" lon="3.75081">
        <ele>85</ele>
        <time>2015-12-13T07:48:20Z</time>
      </trkpt>
      <trkpt lat="50.77385" lon="3.75082">
        <ele>85</ele>
        <time>2015-12-13T07:48:21Z</time>
      </trkpt>
      <trkpt lat="50.77388" lon="3.75084">
        <ele>85</ele>
        <time>2015-12-13T07:48:22Z</time>
      </trkpt>
      <trkpt lat="50.7739" lon="3.75087">
        <ele>85</ele>
        <time>2015-12-13T07:48:23Z</time>
      </trkpt>
      <trkpt lat="50.77392" lon="3.75088">
        <ele>85</ele>
        <time>2015-12-13T07:48:24Z</time>
      </trkpt>
      <trkpt lat="50.77394" lon="3.7509">
        <ele>85</ele>
        <time>2015-12-13T07:48:25Z</time>
      </trkpt>
      <trkpt lat="50.77397" lon="3.75092">
        <ele>85</ele>
        <time>2015-12-13T07:48:26Z</time>
      </trkpt>
      <trkpt lat="50.774" lon="3.75094">
        <ele>85</ele>
        <time>2015-12-13T07:48:27Z</time>
      </trkpt>
      <trkpt lat="50.77402" lon="3.75096">
        <ele>85</ele>
        <time>2015-12-13T07:48:28Z</time>
      </trkpt>
      <trkpt lat="50.77405" lon="3.75097">
        <ele>85</ele>
        <time>2015-12-13T07:48:29Z</time>
      </trkpt>
      <trkpt lat="50.77407" lon="3.75098">
        <ele>85</ele>
        <time>2015-12-13T07:48:30Z</time>
      </trkpt>
      <trkpt lat="50.7741" lon="3.751">
        <ele>85</ele>
        <time>2015-12-13T07:48:31Z</time>
      </trkpt>
      <trkpt lat="50.77411" lon="3.75101">
        <ele>85</ele>
        <time>2015-12-13T07:48:32Z</time>
      </trkpt>
      <trkpt lat="50.77413" lon="3.75103">
        <ele>85</ele>
        <time>2015-12-13T07:48:33Z</time>
      </trkpt>
      <trkpt lat="50.77415" lon="3.75105">
        <ele>85</ele>
        <time>2015-12-13T07:48:34Z</time>
      </trkpt>
      <trkpt lat="50.77417" lon="3.75107">
        <ele>85</ele>
        <time>2015-12-13T07:48:35Z</time>
      </trkpt>
      <trkpt lat="50.77419" lon="3.75108">
        <ele>85</ele>
        <time>2015-12-13T07:48:36Z</time>
      </trkpt>
      <trkpt lat="50.77427" lon="3.75118">
        <ele>85</ele>
        <time>2015-12-13T07:48:40Z</time>
      </trkpt>
      <trkpt lat="50.77433" lon="3.75123">
        <ele>84</ele>
        <time>2015-12-13T07:48:42Z</time>
      </trkpt>
      <trkpt lat="50.77435" lon="3.75126">
        <ele>84</ele>
        <time>2015-12-13T07:48:43Z</time>
      </trkpt>
      <trkpt lat="50.77444" lon="3.75134">
        <ele>84</ele>
        <time>2015-12-13T07:48:47Z</time>
      </trkpt>
      <trkpt lat="50.77454" lon="3.75141">
        <ele>83.3</ele>
        <time>2015-12-13T07:48:51Z</time>
      </trkpt>
      <trkpt lat="50.77463" lon="3.75147">
        <ele>83</ele>
        <time>2015-12-13T07:48:55Z</time>
      </trkpt>
      <trkpt lat="50.77473" lon="3.75153">
        <ele>83</ele>
        <time>2015-12-13T07:48:59Z</time>
      </trkpt>
      <trkpt lat="50.77482" lon="3.75159">
        <ele>81</ele>
        <time>2015-12-13T07:49:02Z</time>
      </trkpt>
      <trkpt lat="50.77489" lon="3.75164">
        <ele>81</ele>
        <time>2015-12-13T07:49:04Z</time>
      </trkpt>
      <trkpt lat="50.77492" lon="3.75166">
        <ele>81</ele>
        <time>2015-12-13T07:49:05Z</time>
      </trkpt>
      <trkpt lat="50.77494" lon="3.75168">
        <ele>81</ele>
        <time>2015-12-13T07:49:06Z</time>
      </trkpt>
      <trkpt lat="50.77499" lon="3.75172">
        <ele>81</ele>
        <time>2015-12-13T07:49:08Z</time>
      </trkpt>
      <trkpt lat="50.77502" lon="3.75174">
        <ele>81</ele>
        <time>2015-12-13T07:49:09Z</time>
      </trkpt>
      <trkpt lat="50.77508" lon="3.7518">
        <ele>81</ele>
        <time>2015-12-13T07:49:12Z</time>
      </trkpt>
      <trkpt lat="50.77511" lon="3.75182">
        <ele>81</ele>
        <time>2015-12-13T07:49:13Z</time>
      </trkpt>
      <trkpt lat="50.7752" lon="3.75188">
        <ele>81</ele>
        <time>2015-12-13T07:49:17Z</time>
      </trkpt>
      <trkpt lat="50.77522" lon="3.7519">
        <ele>81</ele>
        <time>2015-12-13T07:49:18Z</time>
      </trkpt>
      <trkpt lat="50.77525" lon="3.75192">
        <ele>81</ele>
        <time>2015-12-13T07:49:19Z</time>
      </trkpt>
      <trkpt lat="50.77527" lon="3.75194">
        <ele>81</ele>
        <time>2015-12-13T07:49:20Z</time>
      </trkpt>
      <trkpt lat="50.77529" lon="3.75197">
        <ele>80</ele>
        <time>2015-12-13T07:49:22Z</time>
      </trkpt>
      <trkpt lat="50.77524" lon="3.75199">
        <ele>81</ele>
        <time>2015-12-13T07:49:35Z</time>
      </trkpt>
      <trkpt lat="50.77529" lon="3.752">
        <ele>80</ele>
        <time>2015-12-13T07:49:55Z</time>
      </trkpt>
      <trkpt lat="50.77532" lon="3.75201">
        <ele>80</ele>
        <time>2015-12-13T07:49:58Z</time>
      </trkpt>
      <trkpt lat="50.77534" lon="3.75202">
        <ele>80</ele>
        <time>2015-12-13T07:50:00Z</time>
      </trkpt>
      <trkpt lat="50.77536" lon="3.75204">
        <ele>81</ele>
        <time>2015-12-13T07:50:02Z</time>
      </trkpt>
      <trkpt lat="50.77538" lon="3.75205">
        <ele>81</ele>
        <time>2015-12-13T07:50:04Z</time>
      </trkpt>
      <trkpt lat="50.7754" lon="3.75207">
        <ele>81</ele>
        <time>2015-12-13T07:50:06Z</time>
      </trkpt>
      <trkpt lat="50.77542" lon="3.75208">
        <ele>81</ele>
        <time>2015-12-13T07:50:08Z</time>
      </trkpt>
      <trkpt lat="50.77545" lon="3.7521">
        <ele>81</ele>
        <time>2015-12-13T07:50:10Z</time>
      </trkpt>
      <trkpt lat="50.77547" lon="3.75212">
        <ele>81</ele>
        <time>2015-12-13T07:50:12Z</time>
      </trkpt>
      <trkpt lat="50.77549" lon="3.75214">
        <ele>81</ele>
        <time>2015-12-13T07:50:14Z</time>
      </trkpt>
      <trkpt lat="50.77552" lon="3.75216">
        <ele>81</ele>
        <time>2015-12-13T07:50:16Z</time>
      </trkpt>
      <trkpt lat="50.77554" lon="3.75217">
        <ele>81</ele>
        <time>2015-12-13T07:50:18Z</time>
      </trkpt>
      <trkpt lat="50.77557" lon="3.75219">
        <ele>81</ele>
        <time>2015-12-13T07:50:20Z</time>
      </trkpt>
      <trkpt lat="50.77559" lon="3.75221">
        <ele>80</ele>
        <time>2015-12-13T07:50:22Z</time>
      </trkpt>
      <trkpt lat="50.77563" lon="3.75222">
        <ele>80</ele>
        <time>2015-12-13T07:50:24Z</time>
      </trkpt>
      <trkpt lat="50.77564" lon="3.75224">
        <ele>80</ele>
        <time>2015-12-13T07:50:25Z</time>
      </trkpt>
      <trkpt lat="50.77566" lon="3.75225">
        <ele>80</ele>
        <time>2015-12-13T07:50:26Z</time>
      </trkpt>
      <trkpt lat="50.77568" lon="3.75226">
        <ele>80</ele>
        <time>2015-12-13T07:50:27Z</time>
      </trkpt>
      <trkpt lat="50.7757" lon="3.75228">
        <ele>80</ele>
        <time>2015-12-13T07:50:29Z</time>
      </trkpt>
      <trkpt lat="50.77573" lon="3.75231">
        <ele>80</ele>
        <time>2015-12-13T07:50:31Z</time>
      </trkpt>
      <trkpt lat="50.77576" lon="3.75233">
        <ele>80</ele>
        <time>2015-12-13T07:50:32Z</time>
      </trkpt>
      <trkpt lat="50.77578" lon="3.75236">
        <ele>80</ele>
        <time>2015-12-13T07:50:33Z</time>
      </trkpt>
      <trkpt lat="50.77581" lon="3.75238">
        <ele>80</ele>
        <time>2015-12-13T07:50:34Z</time>
      </trkpt>
      <trkpt lat="50.77583" lon="3.7524">
        <ele>80</ele>
        <time>2015-12-13T07:50:35Z</time>
      </trkpt>
      <trkpt lat="50.77586" lon="3.75242">
        <ele>80</ele>
        <time>2015-12-13T07:50:36Z</time>
      </trkpt>
      <trkpt lat="50.77587" lon="3.75244">
        <ele>80</ele>
        <time>2015-12-13T07:50:37Z</time>
      </trkpt>
      <trkpt lat="50.77589" lon="3.75246">
        <ele>80</ele>
        <time>2015-12-13T07:50:38Z</time>
      </trkpt>
      <trkpt lat="50.77591" lon="3.75248">
        <ele>80</ele>
        <time>2015-12-13T07:50:39Z</time>
      </trkpt>
      <trkpt lat="50.77593" lon="3.75251">
        <ele>80</ele>
        <time>2015-12-13T07:50:40Z</time>
      </trkpt>
      <trkpt lat="50.77596" lon="3.75253">
        <ele>79.3</ele>
        <time>2015-12-13T07:50:41Z</time>
      </trkpt>
      <trkpt lat="50.77598" lon="3.75255">
        <ele>79</ele>
        <time>2015-12-13T07:50:42Z</time>
      </trkpt>
      <trkpt lat="50.77601" lon="3.75257">
        <ele>79</ele>
        <time>2015-12-13T07:50:43Z</time>
      </trkpt>
      <trkpt lat="50.77603" lon="3.75258">
        <ele>79</ele>
        <time>2015-12-13T07:50:44Z</time>
      </trkpt>
      <trkpt lat="50.77606" lon="3.7526">
        <ele>79</ele>
        <time>2015-12-13T07:50:45Z</time>
      </trkpt>
      <trkpt lat="50.77608" lon="3.75262">
        <ele>79</ele>
        <time>2015-12-13T07:50:46Z</time>
      </trkpt>
      <trkpt lat="50.77611" lon="3.75265">
        <ele>79</ele>
        <time>2015-12-13T07:50:47Z</time>
      </trkpt>
      <trkpt lat="50.77613" lon="3.75267">
        <ele>79</ele>
        <time>2015-12-13T07:50:48Z</time>
      </trkpt>
      <trkpt lat="50.77616" lon="3.75269">
        <ele>79</ele>
        <time>2015-12-13T07:50:49Z</time>
      </trkpt>
      <trkpt lat="50.77619" lon="3.7527">
        <ele>79</ele>
        <time>2015-12-13T07:50:50Z</time>
      </trkpt>
      <trkpt lat="50.77621" lon="3.75273">
        <ele>78.3</ele>
        <time>2015-12-13T07:50:51Z</time>
      </trkpt>
      <trkpt lat="50.77624" lon="3.75274">
        <ele>78</ele>
        <time>2015-12-13T07:50:52Z</time>
      </trkpt>
      <trkpt lat="50.77626" lon="3.75276">
        <ele>78</ele>
        <time>2015-12-13T07:50:53Z</time>
      </trkpt>
      <trkpt lat="50.77629" lon="3.75279">
        <ele>78</ele>
        <time>2015-12-13T07:50:54Z</time>
      </trkpt>
      <trkpt lat="50.77631" lon="3.7528">
        <ele>78</ele>
        <time>2015-12-13T07:50:55Z</time>
      </trkpt>
      <trkpt lat="50.77634" lon="3.75283">
        <ele>78</ele>
        <time>2015-12-13T07:50:56Z</time>
      </trkpt>
      <trkpt lat="50.77637" lon="3.75284">
        <ele>78</ele>
        <time>2015-12-13T07:50:57Z</time>
      </trkpt>
      <trkpt lat="50.77639" lon="3.75287">
        <ele>78</ele>
        <time>2015-12-13T07:50:58Z</time>
      </trkpt>
      <trkpt lat="50.77642" lon="3.75289">
        <ele>78</ele>
        <time>2015-12-13T07:50:59Z</time>
      </trkpt>
      <trkpt lat="50.77644" lon="3.75291">
        <ele>78</ele>
        <time>2015-12-13T07:51:00Z</time>
      </trkpt>
      <trkpt lat="50.77647" lon="3.75293">
        <ele>77.3</ele>
        <time>2015-12-13T07:51:01Z</time>
      </trkpt>
      <trkpt lat="50.77649" lon="3.75295">
        <ele>77</ele>
        <time>2015-12-13T07:51:02Z</time>
      </trkpt>
      <trkpt lat="50.77652" lon="3.75297">
        <ele>77</ele>
        <time>2015-12-13T07:51:03Z</time>
      </trkpt>
      <trkpt lat="50.77655" lon="3.75299">
        <ele>77</ele>
        <time>2015-12-13T07:51:04Z</time>
      </trkpt>
      <trkpt lat="50.77657" lon="3.75301">
        <ele>77</ele>
        <time>2015-12-13T07:51:05Z</time>
      </trkpt>
      <trkpt lat="50.7766" lon="3.75303">
        <ele>77</ele>
        <time>2015-12-13T07:51:06Z</time>
      </trkpt>
      <trkpt lat="50.77662" lon="3.75304">
        <ele>77</ele>
        <time>2015-12-13T07:51:07Z</time>
      </trkpt>
      <trkpt lat="50.77665" lon="3.75306">
        <ele>77</ele>
        <time>2015-12-13T07:51:08Z</time>
      </trkpt>
      <trkpt lat="50.77667" lon="3.75308">
        <ele>77</ele>
        <time>2015-12-13T07:51:09Z</time>
      </trkpt>
      <trkpt lat="50.77669" lon="3.75311">
        <ele>77</ele>
        <time>2015-12-13T07:51:10Z</time>
      </trkpt>
      <trkpt lat="50.77671" lon="3.75314">
        <ele>77</ele>
        <time>2015-12-13T07:51:11Z</time>
      </trkpt>
      <trkpt lat="50.77673" lon="3.75318">
        <ele>77</ele>
        <time>2015-12-13T07:51:12Z</time>
      </trkpt>
      <trkpt lat="50.77673" lon="3.75321">
        <ele>77</ele>
        <time>2015-12-13T07:51:13Z</time>
      </trkpt>
      <trkpt lat="50.77675" lon="3.75323">
        <ele>77</ele>
        <time>2015-12-13T07:51:14Z</time>
      </trkpt>
      <trkpt lat="50.77678" lon="3.75324">
        <ele>77</ele>
        <time>2015-12-13T07:51:16Z</time>
      </trkpt>
      <trkpt lat="50.7768" lon="3.75323">
        <ele>77</ele>
        <time>2015-12-13T07:51:17Z</time>
      </trkpt>
      <trkpt lat="50.77683" lon="3.75323">
        <ele>77</ele>
        <time>2015-12-13T07:51:18Z</time>
      </trkpt>
      <trkpt lat="50.77685" lon="3.75322">
        <ele>77</ele>
        <time>2015-12-13T07:51:19Z</time>
      </trkpt>
      <trkpt lat="50.77687" lon="3.75323">
        <ele>77</ele>
        <time>2015-12-13T07:51:20Z</time>
      </trkpt>
      <trkpt lat="50.77689" lon="3.75325">
        <ele>77</ele>
        <time>2015-12-13T07:51:21Z</time>
      </trkpt>
      <trkpt lat="50.77692" lon="3.75328">
        <ele>77</ele>
        <time>2015-12-13T07:51:22Z</time>
      </trkpt>
      <trkpt lat="50.77693" lon="3.75331">
        <ele>77</ele>
        <time>2015-12-13T07:51:23Z</time>
      </trkpt>
      <trkpt lat="50.77695" lon="3.75333">
        <ele>77</ele>
        <time>2015-12-13T07:51:24Z</time>
      </trkpt>
      <trkpt lat="50.77697" lon="3.75335">
        <ele>77</ele>
        <time>2015-12-13T07:51:25Z</time>
      </trkpt>
      <trkpt lat="50.77699" lon="3.75338">
        <ele>77</ele>
        <time>2015-12-13T07:51:26Z</time>
      </trkpt>
      <trkpt lat="50.77701" lon="3.75341">
        <ele>77</ele>
        <time>2015-12-13T07:51:27Z</time>
      </trkpt>
      <trkpt lat="50.77702" lon="3.75344">
        <ele>77</ele>
        <time>2015-12-13T07:51:28Z</time>
      </trkpt>
      <trkpt lat="50.77703" lon="3.75347">
        <ele>77</ele>
        <time>2015-12-13T07:51:29Z</time>
      </trkpt>
      <trkpt lat="50.77705" lon="3.75349">
        <ele>77</ele>
        <time>2015-12-13T07:51:30Z</time>
      </trkpt>
      <trkpt lat="50.77707" lon="3.75351">
        <ele>76.5</ele>
        <time>2015-12-13T07:51:31Z</time>
      </trkpt>
      <trkpt lat="50.77708" lon="3.75353">
        <ele>76</ele>
        <time>2015-12-13T07:51:32Z</time>
      </trkpt>
      <trkpt lat="50.7771" lon="3.75355">
        <ele>76</ele>
        <time>2015-12-13T07:51:33Z</time>
      </trkpt>
      <trkpt lat="50.77712" lon="3.75356">
        <ele>76</ele>
        <time>2015-12-13T07:51:34Z</time>
      </trkpt>
      <trkpt lat="50.77714" lon="3.75356">
        <ele>76</ele>
        <time>2015-12-13T07:51:35Z</time>
      </trkpt>
      <trkpt lat="50.77716" lon="3.75356">
        <ele>76</ele>
        <time>2015-12-13T07:51:36Z</time>
      </trkpt>
      <trkpt lat="50.77719" lon="3.75355">
        <ele>76</ele>
        <time>2015-12-13T07:51:38Z</time>
      </trkpt>
      <trkpt lat="50.77722" lon="3.75353">
        <ele>76</ele>
        <time>2015-12-13T07:51:40Z</time>
      </trkpt>
      <trkpt lat="50.77723" lon="3.75351">
        <ele>74.6</ele>
        <time>2015-12-13T07:51:41Z</time>
      </trkpt>
      <trkpt lat="50.77727" lon="3.75348">
        <ele>74</ele>
        <time>2015-12-13T07:51:43Z</time>
      </trkpt>
      <trkpt lat="50.77728" lon="3.75346">
        <ele>74</ele>
        <time>2015-12-13T07:51:44Z</time>
      </trkpt>
      <trkpt lat="50.7773" lon="3.75344">
        <ele>74</ele>
        <time>2015-12-13T07:51:45Z</time>
      </trkpt>
      <trkpt lat="50.77732" lon="3.75343">
        <ele>73.3</ele>
        <time>2015-12-13T07:51:46Z</time>
      </trkpt>
      <trkpt lat="50.77734" lon="3.75341">
        <ele>73</ele>
        <time>2015-12-13T07:51:47Z</time>
      </trkpt>
      <trkpt lat="50.77736" lon="3.75339">
        <ele>73</ele>
        <time>2015-12-13T07:51:48Z</time>
      </trkpt>
      <trkpt lat="50.77738" lon="3.75337">
        <ele>73</ele>
        <time>2015-12-13T07:51:49Z</time>
      </trkpt>
      <trkpt lat="50.77739" lon="3.75336">
        <ele>73</ele>
        <time>2015-12-13T07:51:50Z</time>
      </trkpt>
      <trkpt lat="50.77741" lon="3.75334">
        <ele>72</ele>
        <time>2015-12-13T07:51:51Z</time>
      </trkpt>
      <trkpt lat="50.77742" lon="3.75332">
        <ele>71</ele>
        <time>2015-12-13T07:51:52Z</time>
      </trkpt>
      <trkpt lat="50.77744" lon="3.7533">
        <ele>71</ele>
        <time>2015-12-13T07:51:53Z</time>
      </trkpt>
      <trkpt lat="50.77746" lon="3.75328">
        <ele>71</ele>
        <time>2015-12-13T07:51:54Z</time>
      </trkpt>
      <trkpt lat="50.77748" lon="3.75326">
        <ele>71</ele>
        <time>2015-12-13T07:51:55Z</time>
      </trkpt>
      <trkpt lat="50.77749" lon="3.75324">
        <ele>71</ele>
        <time>2015-12-13T07:51:56Z</time>
      </trkpt>
      <trkpt lat="50.77751" lon="3.75322">
        <ele>71</ele>
        <time>2015-12-13T07:51:57Z</time>
      </trkpt>
      <trkpt lat="50.77753" lon="3.7532">
        <ele>71</ele>
        <time>2015-12-13T07:51:58Z</time>
      </trkpt>
      <trkpt lat="50.77755" lon="3.75318">
        <ele>71</ele>
        <time>2015-12-13T07:51:59Z</time>
      </trkpt>
      <trkpt lat="50.77757" lon="3.75316">
        <ele>71</ele>
        <time>2015-12-13T07:52:00Z</time>
      </trkpt>
      <trkpt lat="50.77759" lon="3.75313">
        <ele>69</ele>
        <time>2015-12-13T07:52:01Z</time>
      </trkpt>
      <trkpt lat="50.7776" lon="3.75311">
        <ele>68</ele>
        <time>2015-12-13T07:52:02Z</time>
      </trkpt>
      <trkpt lat="50.77762" lon="3.75309">
        <ele>68</ele>
        <time>2015-12-13T07:52:03Z</time>
      </trkpt>
      <trkpt lat="50.77764" lon="3.75307">
        <ele>68</ele>
        <time>2015-12-13T07:52:04Z</time>
      </trkpt>
      <trkpt lat="50.77766" lon="3.75305">
        <ele>68</ele>
        <time>2015-12-13T07:52:05Z</time>
      </trkpt>
      <trkpt lat="50.77768" lon="3.75303">
        <ele>68</ele>
        <time>2015-12-13T07:52:06Z</time>
      </trkpt>
      <trkpt lat="50.7777" lon="3.75301">
        <ele>68</ele>
        <time>2015-12-13T07:52:07Z</time>
      </trkpt>
      <trkpt lat="50.77772" lon="3.75299">
        <ele>68</ele>
        <time>2015-12-13T07:52:08Z</time>
      </trkpt>
      <trkpt lat="50.77774" lon="3.75297">
        <ele>68</ele>
        <time>2015-12-13T07:52:09Z</time>
      </trkpt>
      <trkpt lat="50.77776" lon="3.75295">
        <ele>68</ele>
        <time>2015-12-13T07:52:10Z</time>
      </trkpt>
      <trkpt lat="50.77778" lon="3.75292">
        <ele>68</ele>
        <time>2015-12-13T07:52:11Z</time>
      </trkpt>
      <trkpt lat="50.7778" lon="3.7529">
        <ele>68</ele>
        <time>2015-12-13T07:52:12Z</time>
      </trkpt>
      <trkpt lat="50.77781" lon="3.75288">
        <ele>68</ele>
        <time>2015-12-13T07:52:13Z</time>
      </trkpt>
      <trkpt lat="50.77783" lon="3.75286">
        <ele>68</ele>
        <time>2015-12-13T07:52:14Z</time>
      </trkpt>
      <trkpt lat="50.77785" lon="3.75284">
        <ele>68</ele>
        <time>2015-12-13T07:52:15Z</time>
      </trkpt>
      <trkpt lat="50.77786" lon="3.75282">
        <ele>68</ele>
        <time>2015-12-13T07:52:16Z</time>
      </trkpt>
      <trkpt lat="50.77788" lon="3.7528">
        <ele>68</ele>
        <time>2015-12-13T07:52:17Z</time>
      </trkpt>
      <trkpt lat="50.7779" lon="3.75278">
        <ele>68</ele>
        <time>2015-12-13T07:52:18Z</time>
      </trkpt>
      <trkpt lat="50.77793" lon="3.75276">
        <ele>68</ele>
        <time>2015-12-13T07:52:20Z</time>
      </trkpt>
      <trkpt lat="50.77795" lon="3.75275">
        <ele>66.6</ele>
        <time>2015-12-13T07:52:21Z</time>
      </trkpt>
      <trkpt lat="50.77797" lon="3.75275">
        <ele>66</ele>
        <time>2015-12-13T07:52:23Z</time>
      </trkpt>
      <trkpt lat="50.77798" lon="3.75278">
        <ele>66</ele>
        <time>2015-12-13T07:52:25Z</time>
      </trkpt>
      <trkpt lat="50.77799" lon="3.75281">
        <ele>66</ele>
        <time>2015-12-13T07:52:27Z</time>
      </trkpt>
      <trkpt lat="50.77801" lon="3.75284">
        <ele>66</ele>
        <time>2015-12-13T07:52:29Z</time>
      </trkpt>
      <trkpt lat="50.77802" lon="3.75287">
        <ele>65.3</ele>
        <time>2015-12-13T07:52:31Z</time>
      </trkpt>
      <trkpt lat="50.77804" lon="3.7529">
        <ele>65</ele>
        <time>2015-12-13T07:52:33Z</time>
      </trkpt>
      <trkpt lat="50.77806" lon="3.75293">
        <ele>65</ele>
        <time>2015-12-13T07:52:35Z</time>
      </trkpt>
      <trkpt lat="50.77807" lon="3.75295">
        <ele>65</ele>
        <time>2015-12-13T07:52:37Z</time>
      </trkpt>
      <trkpt lat="50.77808" lon="3.75303">
        <ele>65</ele>
        <time>2015-12-13T07:53:33Z</time>
      </trkpt>
      <trkpt lat="50.77809" lon="3.75306">
        <ele>65</ele>
        <time>2015-12-13T07:53:34Z</time>
      </trkpt>
      <trkpt lat="50.7781" lon="3.75308">
        <ele>65</ele>
        <time>2015-12-13T07:53:35Z</time>
      </trkpt>
      <trkpt lat="50.77812" lon="3.75311">
        <ele>65</ele>
        <time>2015-12-13T07:53:36Z</time>
      </trkpt>
      <trkpt lat="50.77813" lon="3.75314">
        <ele>65</ele>
        <time>2015-12-13T07:53:37Z</time>
      </trkpt>
      <trkpt lat="50.77814" lon="3.75317">
        <ele>65</ele>
        <time>2015-12-13T07:53:38Z</time>
      </trkpt>
      <trkpt lat="50.77815" lon="3.75319">
        <ele>65</ele>
        <time>2015-12-13T07:53:39Z</time>
      </trkpt>
      <trkpt lat="50.77816" lon="3.75322">
        <ele>65</ele>
        <time>2015-12-13T07:53:40Z</time>
      </trkpt>
      <trkpt lat="50.77817" lon="3.75324">
        <ele>65</ele>
        <time>2015-12-13T07:53:41Z</time>
      </trkpt>
      <trkpt lat="50.7782" lon="3.75329">
        <ele>65</ele>
        <time>2015-12-13T07:53:43Z</time>
      </trkpt>
      <trkpt lat="50.77822" lon="3.75333">
        <ele>65</ele>
        <time>2015-12-13T07:53:45Z</time>
      </trkpt>
      <trkpt lat="50.77823" lon="3.75336">
        <ele>65</ele>
        <time>2015-12-13T07:53:46Z</time>
      </trkpt>
      <trkpt lat="50.77824" lon="3.75339">
        <ele>65</ele>
        <time>2015-12-13T07:53:47Z</time>
      </trkpt>
      <trkpt lat="50.77825" lon="3.75342">
        <ele>65</ele>
        <time>2015-12-13T07:53:48Z</time>
      </trkpt>
      <trkpt lat="50.77826" lon="3.75345">
        <ele>65</ele>
        <time>2015-12-13T07:53:49Z</time>
      </trkpt>
      <trkpt lat="50.77827" lon="3.75348">
        <ele>65</ele>
        <time>2015-12-13T07:53:50Z</time>
      </trkpt>
      <trkpt lat="50.77828" lon="3.7535">
        <ele>63.6</ele>
        <time>2015-12-13T07:53:51Z</time>
      </trkpt>
      <trkpt lat="50.77832" lon="3.75358">
        <ele>63</ele>
        <time>2015-12-13T07:53:53Z</time>
      </trkpt>
      <trkpt lat="50.77833" lon="3.75361">
        <ele>63</ele>
        <time>2015-12-13T07:53:54Z</time>
      </trkpt>
      <trkpt lat="50.77834" lon="3.75365">
        <ele>63</ele>
        <time>2015-12-13T07:53:55Z</time>
      </trkpt>
      <trkpt lat="50.77835" lon="3.75368">
        <ele>63</ele>
        <time>2015-12-13T07:53:56Z</time>
      </trkpt>
      <trkpt lat="50.77835" lon="3.75372">
        <ele>63</ele>
        <time>2015-12-13T07:53:57Z</time>
      </trkpt>
      <trkpt lat="50.77836" lon="3.75376">
        <ele>63</ele>
        <time>2015-12-13T07:53:58Z</time>
      </trkpt>
      <trkpt lat="50.77836" lon="3.75379">
        <ele>63</ele>
        <time>2015-12-13T07:53:59Z</time>
      </trkpt>
      <trkpt lat="50.77837" lon="3.75383">
        <ele>63</ele>
        <time>2015-12-13T07:54:00Z</time>
      </trkpt>
      <trkpt lat="50.77837" lon="3.75386">
        <ele>62</ele>
        <time>2015-12-13T07:54:01Z</time>
      </trkpt>
      <trkpt lat="50.77838" lon="3.7539">
        <ele>61</ele>
        <time>2015-12-13T07:54:02Z</time>
      </trkpt>
      <trkpt lat="50.77838" lon="3.75394">
        <ele>61</ele>
        <time>2015-12-13T07:54:03Z</time>
      </trkpt>
      <trkpt lat="50.77839" lon="3.75397">
        <ele>61</ele>
        <time>2015-12-13T07:54:04Z</time>
      </trkpt>
      <trkpt lat="50.77839" lon="3.75401">
        <ele>61</ele>
        <time>2015-12-13T07:54:05Z</time>
      </trkpt>
      <trkpt lat="50.7784" lon="3.75404">
        <ele>61</ele>
        <time>2015-12-13T07:54:06Z</time>
      </trkpt>
      <trkpt lat="50.77841" lon="3.75407">
        <ele>61</ele>
        <time>2015-12-13T07:54:07Z</time>
      </trkpt>
      <trkpt lat="50.77841" lon="3.75413">
        <ele>61</ele>
        <time>2015-12-13T07:54:09Z</time>
      </trkpt>
      <trkpt lat="50.77842" lon="3.75416">
        <ele>61</ele>
        <time>2015-12-13T07:54:10Z</time>
      </trkpt>
      <trkpt lat="50.77842" lon="3.75419">
        <ele>61</ele>
        <time>2015-12-13T07:54:11Z</time>
      </trkpt>
      <trkpt lat="50.77842" lon="3.75423">
        <ele>61</ele>
        <time>2015-12-13T07:54:12Z</time>
      </trkpt>
      <trkpt lat="50.77843" lon="3.75429">
        <ele>61</ele>
        <time>2015-12-13T07:54:14Z</time>
      </trkpt>
      <trkpt lat="50.77843" lon="3.75433">
        <ele>61</ele>
        <time>2015-12-13T07:54:15Z</time>
      </trkpt>
      <trkpt lat="50.77843" lon="3.75436">
        <ele>61</ele>
        <time>2015-12-13T07:54:16Z</time>
      </trkpt>
      <trkpt lat="50.77843" lon="3.75439">
        <ele>61</ele>
        <time>2015-12-13T07:54:17Z</time>
      </trkpt>
      <trkpt lat="50.77844" lon="3.75442">
        <ele>61</ele>
        <time>2015-12-13T07:54:18Z</time>
      </trkpt>
      <trkpt lat="50.77844" lon="3.75446">
        <ele>61</ele>
        <time>2015-12-13T07:54:19Z</time>
      </trkpt>
      <trkpt lat="50.77846" lon="3.75449">
        <ele>61</ele>
        <time>2015-12-13T07:54:20Z</time>
      </trkpt>
      <trkpt lat="50.77846" lon="3.75452">
        <ele>61</ele>
        <time>2015-12-13T07:54:21Z</time>
      </trkpt>
      <trkpt lat="50.77847" lon="3.75454">
        <ele>61</ele>
        <time>2015-12-13T07:54:22Z</time>
      </trkpt>
      <trkpt lat="50.77849" lon="3.75458">
        <ele>61</ele>
        <time>2015-12-13T07:54:24Z</time>
      </trkpt>
      <trkpt lat="50.7785" lon="3.75461">
        <ele>61</ele>
        <time>2015-12-13T07:54:26Z</time>
      </trkpt>
      <trkpt lat="50.77851" lon="3.75465">
        <ele>61</ele>
        <time>2015-12-13T07:54:28Z</time>
      </trkpt>
      <trkpt lat="50.77852" lon="3.7547">
        <ele>61</ele>
        <time>2015-12-13T07:54:30Z</time>
      </trkpt>
      <trkpt lat="50.77854" lon="3.75474">
        <ele>61</ele>
        <time>2015-12-13T07:54:32Z</time>
      </trkpt>
      <trkpt lat="50.77855" lon="3.75477">
        <ele>61</ele>
        <time>2015-12-13T07:54:34Z</time>
      </trkpt>
      <trkpt lat="50.77856" lon="3.75481">
        <ele>61</ele>
        <time>2015-12-13T07:54:36Z</time>
      </trkpt>
      <trkpt lat="50.77857" lon="3.75485">
        <ele>61</ele>
        <time>2015-12-13T07:54:38Z</time>
      </trkpt>
      <trkpt lat="50.77858" lon="3.7549">
        <ele>61</ele>
        <time>2015-12-13T07:54:40Z</time>
      </trkpt>
      <trkpt lat="50.77859" lon="3.75493">
        <ele>61</ele>
        <time>2015-12-13T07:54:41Z</time>
      </trkpt>
      <trkpt lat="50.7786" lon="3.75496">
        <ele>61</ele>
        <time>2015-12-13T07:54:42Z</time>
      </trkpt>
      <trkpt lat="50.7786" lon="3.75498">
        <ele>61</ele>
        <time>2015-12-13T07:54:43Z</time>
      </trkpt>
      <trkpt lat="50.77861" lon="3.75504">
        <ele>61</ele>
        <time>2015-12-13T07:54:45Z</time>
      </trkpt>
      <trkpt lat="50.77862" lon="3.75508">
        <ele>61</ele>
        <time>2015-12-13T07:54:46Z</time>
      </trkpt>
      <trkpt lat="50.77863" lon="3.75511">
        <ele>61</ele>
        <time>2015-12-13T07:54:47Z</time>
      </trkpt>
      <trkpt lat="50.77865" lon="3.75514">
        <ele>61</ele>
        <time>2015-12-13T07:54:48Z</time>
      </trkpt>
      <trkpt lat="50.77866" lon="3.75518">
        <ele>61</ele>
        <time>2015-12-13T07:54:49Z</time>
      </trkpt>
      <trkpt lat="50.77866" lon="3.75521">
        <ele>61</ele>
        <time>2015-12-13T07:54:50Z</time>
      </trkpt>
      <trkpt lat="50.77868" lon="3.75525">
        <ele>61</ele>
        <time>2015-12-13T07:54:51Z</time>
      </trkpt>
      <trkpt lat="50.77869" lon="3.75528">
        <ele>61</ele>
        <time>2015-12-13T07:54:52Z</time>
      </trkpt>
      <trkpt lat="50.7787" lon="3.75531">
        <ele>61</ele>
        <time>2015-12-13T07:54:53Z</time>
      </trkpt>
      <trkpt lat="50.77871" lon="3.75534">
        <ele>61</ele>
        <time>2015-12-13T07:54:54Z</time>
      </trkpt>
      <trkpt lat="50.77872" lon="3.75539">
        <ele>61</ele>
        <time>2015-12-13T07:54:55Z</time>
      </trkpt>
      <trkpt lat="50.77873" lon="3.75542">
        <ele>61</ele>
        <time>2015-12-13T07:54:56Z</time>
      </trkpt>
      <trkpt lat="50.77874" lon="3.75545">
        <ele>61</ele>
        <time>2015-12-13T07:54:57Z</time>
      </trkpt>
      <trkpt lat="50.77875" lon="3.75548">
        <ele>61</ele>
        <time>2015-12-13T07:54:58Z</time>
      </trkpt>
      <trkpt lat="50.77877" lon="3.75553">
        <ele>61</ele>
        <time>2015-12-13T07:55:00Z</time>
      </trkpt>
      <trkpt lat="50.77878" lon="3.75556">
        <ele>61</ele>
        <time>2015-12-13T07:55:01Z</time>
      </trkpt>
      <trkpt lat="50.77879" lon="3.75559">
        <ele>61</ele>
        <time>2015-12-13T07:55:02Z</time>
      </trkpt>
      <trkpt lat="50.7788" lon="3.75562">
        <ele>61</ele>
        <time>2015-12-13T07:55:03Z</time>
      </trkpt>
      <trkpt lat="50.77882" lon="3.75566">
        <ele>61</ele>
        <time>2015-12-13T07:55:04Z</time>
      </trkpt>
      <trkpt lat="50.77883" lon="3.75569">
        <ele>61</ele>
        <time>2015-12-13T07:55:05Z</time>
      </trkpt>
      <trkpt lat="50.77883" lon="3.75573">
        <ele>61</ele>
        <time>2015-12-13T07:55:06Z</time>
      </trkpt>
      <trkpt lat="50.77884" lon="3.75576">
        <ele>61</ele>
        <time>2015-12-13T07:55:07Z</time>
      </trkpt>
      <trkpt lat="50.77885" lon="3.7558">
        <ele>61</ele>
        <time>2015-12-13T07:55:08Z</time>
      </trkpt>
      <trkpt lat="50.77887" lon="3.75583">
        <ele>61</ele>
        <time>2015-12-13T07:55:09Z</time>
      </trkpt>
      <trkpt lat="50.77889" lon="3.75586">
        <ele>61</ele>
        <time>2015-12-13T07:55:10Z</time>
      </trkpt>
      <trkpt lat="50.7789" lon="3.75589">
        <ele>61</ele>
        <time>2015-12-13T07:55:11Z</time>
      </trkpt>
      <trkpt lat="50.77892" lon="3.75593">
        <ele>61</ele>
        <time>2015-12-13T07:55:12Z</time>
      </trkpt>
      <trkpt lat="50.77893" lon="3.75596">
        <ele>61</ele>
        <time>2015-12-13T07:55:13Z</time>
      </trkpt>
      <trkpt lat="50.77896" lon="3.75606">
        <ele>61</ele>
        <time>2015-12-13T07:55:16Z</time>
      </trkpt>
      <trkpt lat="50.77898" lon="3.75613">
        <ele>61</ele>
        <time>2015-12-13T07:55:18Z</time>
      </trkpt>
      <trkpt lat="50.77899" lon="3.75616">
        <ele>61</ele>
        <time>2015-12-13T07:55:19Z</time>
      </trkpt>
      <trkpt lat="50.779" lon="3.75619">
        <ele>61</ele>
        <time>2015-12-13T07:55:20Z</time>
      </trkpt>
      <trkpt lat="50.77901" lon="3.75622">
        <ele>61</ele>
        <time>2015-12-13T07:55:21Z</time>
      </trkpt>
      <trkpt lat="50.77902" lon="3.75626">
        <ele>60.3</ele>
        <time>2015-12-13T07:55:22Z</time>
      </trkpt>
      <trkpt lat="50.77902" lon="3.7563">
        <ele>60</ele>
        <time>2015-12-13T07:55:23Z</time>
      </trkpt>
      <trkpt lat="50.77904" lon="3.75638">
        <ele>60</ele>
        <time>2015-12-13T07:55:25Z</time>
      </trkpt>
      <trkpt lat="50.77906" lon="3.75641">
        <ele>60</ele>
        <time>2015-12-13T07:55:26Z</time>
      </trkpt>
      <trkpt lat="50.77907" lon="3.75645">
        <ele>60</ele>
        <time>2015-12-13T07:55:27Z</time>
      </trkpt>
      <trkpt lat="50.77907" lon="3.75648">
        <ele>60</ele>
        <time>2015-12-13T07:55:28Z</time>
      </trkpt>
      <trkpt lat="50.77909" lon="3.75652">
        <ele>60</ele>
        <time>2015-12-13T07:55:29Z</time>
      </trkpt>
      <trkpt lat="50.77916" lon="3.75663">
        <ele>59.3</ele>
        <time>2015-12-13T07:55:32Z</time>
      </trkpt>
      <trkpt lat="50.77924" lon="3.75673">
        <ele>59</ele>
        <time>2015-12-13T07:55:35Z</time>
      </trkpt>
      <trkpt lat="50.77932" lon="3.75683">
        <ele>59</ele>
        <time>2015-12-13T07:55:38Z</time>
      </trkpt>
      <trkpt lat="50.77935" lon="3.75686">
        <ele>59</ele>
        <time>2015-12-13T07:55:39Z</time>
      </trkpt>
      <trkpt lat="50.77937" lon="3.75689">
        <ele>59</ele>
        <time>2015-12-13T07:55:40Z</time>
      </trkpt>
      <trkpt lat="50.77939" lon="3.75693">
        <ele>59</ele>
        <time>2015-12-13T07:55:41Z</time>
      </trkpt>
      <trkpt lat="50.77941" lon="3.75696">
        <ele>57.6</ele>
        <time>2015-12-13T07:55:42Z</time>
      </trkpt>
      <trkpt lat="50.77942" lon="3.75698">
        <ele>57</ele>
        <time>2015-12-13T07:55:43Z</time>
      </trkpt>
      <trkpt lat="50.77944" lon="3.75701">
        <ele>57</ele>
        <time>2015-12-13T07:55:44Z</time>
      </trkpt>
      <trkpt lat="50.77945" lon="3.75703">
        <ele>57</ele>
        <time>2015-12-13T07:55:45Z</time>
      </trkpt>
      <trkpt lat="50.77947" lon="3.75705">
        <ele>57</ele>
        <time>2015-12-13T07:55:46Z</time>
      </trkpt>
      <trkpt lat="50.77948" lon="3.75708">
        <ele>57</ele>
        <time>2015-12-13T07:55:47Z</time>
      </trkpt>
      <trkpt lat="50.77949" lon="3.75712">
        <ele>57</ele>
        <time>2015-12-13T07:55:49Z</time>
      </trkpt>
      <trkpt lat="50.77951" lon="3.75717">
        <ele>57</ele>
        <time>2015-12-13T07:55:51Z</time>
      </trkpt>
      <trkpt lat="50.77953" lon="3.75719">
        <ele>57</ele>
        <time>2015-12-13T07:55:52Z</time>
      </trkpt>
      <trkpt lat="50.77956" lon="3.75722">
        <ele>57</ele>
        <time>2015-12-13T07:55:54Z</time>
      </trkpt>
      <trkpt lat="50.77957" lon="3.75724">
        <ele>57</ele>
        <time>2015-12-13T07:55:55Z</time>
      </trkpt>
      <trkpt lat="50.77958" lon="3.75727">
        <ele>57</ele>
        <time>2015-12-13T07:55:56Z</time>
      </trkpt>
      <trkpt lat="50.77959" lon="3.75729">
        <ele>57</ele>
        <time>2015-12-13T07:55:57Z</time>
      </trkpt>
      <trkpt lat="50.7796" lon="3.75732">
        <ele>57</ele>
        <time>2015-12-13T07:55:58Z</time>
      </trkpt>
      <trkpt lat="50.77961" lon="3.75734">
        <ele>57</ele>
        <time>2015-12-13T07:55:59Z</time>
      </trkpt>
      <trkpt lat="50.77963" lon="3.75737">
        <ele>57</ele>
        <time>2015-12-13T07:56:00Z</time>
      </trkpt>
      <trkpt lat="50.77964" lon="3.7574">
        <ele>57</ele>
        <time>2015-12-13T07:56:01Z</time>
      </trkpt>
      <trkpt lat="50.77965" lon="3.75743">
        <ele>57</ele>
        <time>2015-12-13T07:56:02Z</time>
      </trkpt>
      <trkpt lat="50.77966" lon="3.75745">
        <ele>57</ele>
        <time>2015-12-13T07:56:03Z</time>
      </trkpt>
      <trkpt lat="50.77967" lon="3.75748">
        <ele>57</ele>
        <time>2015-12-13T07:56:04Z</time>
      </trkpt>
      <trkpt lat="50.77968" lon="3.7575">
        <ele>57</ele>
        <time>2015-12-13T07:56:05Z</time>
      </trkpt>
      <trkpt lat="50.77969" lon="3.75753">
        <ele>57</ele>
        <time>2015-12-13T07:56:06Z</time>
      </trkpt>
      <trkpt lat="50.77971" lon="3.75756">
        <ele>57</ele>
        <time>2015-12-13T07:56:07Z</time>
      </trkpt>
      <trkpt lat="50.77972" lon="3.75758">
        <ele>57</ele>
        <time>2015-12-13T07:56:08Z</time>
      </trkpt>
      <trkpt lat="50.77973" lon="3.75763">
        <ele>57</ele>
        <time>2015-12-13T07:56:10Z</time>
      </trkpt>
      <trkpt lat="50.77979" lon="3.75776">
        <ele>57</ele>
        <time>2015-12-13T07:56:14Z</time>
      </trkpt>
      <trkpt lat="50.77984" lon="3.75788">
        <ele>57</ele>
        <time>2015-12-13T07:56:17Z</time>
      </trkpt>
      <trkpt lat="50.77989" lon="3.75796">
        <ele>57</ele>
        <time>2015-12-13T07:56:19Z</time>
      </trkpt>
      <trkpt lat="50.77991" lon="3.75799">
        <ele>57</ele>
        <time>2015-12-13T07:56:20Z</time>
      </trkpt>
      <trkpt lat="50.77993" lon="3.75803">
        <ele>56.3</ele>
        <time>2015-12-13T07:56:21Z</time>
      </trkpt>
      <trkpt lat="50.77995" lon="3.75805">
        <ele>56</ele>
        <time>2015-12-13T07:56:22Z</time>
      </trkpt>
      <trkpt lat="50.77996" lon="3.75808">
        <ele>56</ele>
        <time>2015-12-13T07:56:23Z</time>
      </trkpt>
      <trkpt lat="50.77998" lon="3.7581">
        <ele>56</ele>
        <time>2015-12-13T07:56:24Z</time>
      </trkpt>
      <trkpt lat="50.77998" lon="3.75814">
        <ele>56</ele>
        <time>2015-12-13T07:56:26Z</time>
      </trkpt>
      <trkpt lat="50.77998" lon="3.7582">
        <ele>56</ele>
        <time>2015-12-13T07:56:28Z</time>
      </trkpt>
      <trkpt lat="50.77998" lon="3.75822">
        <ele>56</ele>
        <time>2015-12-13T07:56:29Z</time>
      </trkpt>
      <trkpt lat="50.77996" lon="3.75826">
        <ele>55.3</ele>
        <time>2015-12-13T07:56:31Z</time>
      </trkpt>
      <trkpt lat="50.77994" lon="3.75828">
        <ele>55</ele>
        <time>2015-12-13T07:56:33Z</time>
      </trkpt>
      <trkpt lat="50.77992" lon="3.7583">
        <ele>55</ele>
        <time>2015-12-13T07:56:34Z</time>
      </trkpt>
      <trkpt lat="50.77988" lon="3.75834">
        <ele>55</ele>
        <time>2015-12-13T07:56:36Z</time>
      </trkpt>
      <trkpt lat="50.77986" lon="3.75836">
        <ele>55</ele>
        <time>2015-12-13T07:56:37Z</time>
      </trkpt>
      <trkpt lat="50.77985" lon="3.75837">
        <ele>55</ele>
        <time>2015-12-13T07:56:38Z</time>
      </trkpt>
      <trkpt lat="50.77982" lon="3.75839">
        <ele>55</ele>
        <time>2015-12-13T07:56:40Z</time>
      </trkpt>
      <trkpt lat="50.77979" lon="3.75841">
        <ele>55</ele>
        <time>2015-12-13T07:56:42Z</time>
      </trkpt>
      <trkpt lat="50.77977" lon="3.75843">
        <ele>55</ele>
        <time>2015-12-13T07:56:43Z</time>
      </trkpt>
      <trkpt lat="50.77975" lon="3.75844">
        <ele>55</ele>
        <time>2015-12-13T07:56:44Z</time>
      </trkpt>
      <trkpt lat="50.77973" lon="3.75846">
        <ele>55</ele>
        <time>2015-12-13T07:56:45Z</time>
      </trkpt>
      <trkpt lat="50.77971" lon="3.75847">
        <ele>55</ele>
        <time>2015-12-13T07:56:46Z</time>
      </trkpt>
      <trkpt lat="50.77969" lon="3.75849">
        <ele>55</ele>
        <time>2015-12-13T07:56:47Z</time>
      </trkpt>
      <trkpt lat="50.77967" lon="3.75851">
        <ele>55</ele>
        <time>2015-12-13T07:56:48Z</time>
      </trkpt>
      <trkpt lat="50.77964" lon="3.75852">
        <ele>55</ele>
        <time>2015-12-13T07:56:49Z</time>
      </trkpt>
      <trkpt lat="50.77962" lon="3.75854">
        <ele>55</ele>
        <time>2015-12-13T07:56:50Z</time>
      </trkpt>
      <trkpt lat="50.7796" lon="3.75855">
        <ele>55</ele>
        <time>2015-12-13T07:56:51Z</time>
      </trkpt>
      <trkpt lat="50.77959" lon="3.75857">
        <ele>55</ele>
        <time>2015-12-13T07:56:52Z</time>
      </trkpt>
      <trkpt lat="50.77957" lon="3.75859">
        <ele>55</ele>
        <time>2015-12-13T07:56:53Z</time>
      </trkpt>
      <trkpt lat="50.77955" lon="3.7586">
        <ele>55</ele>
        <time>2015-12-13T07:56:54Z</time>
      </trkpt>
      <trkpt lat="50.77953" lon="3.75862">
        <ele>55</ele>
        <time>2015-12-13T07:56:55Z</time>
      </trkpt>
      <trkpt lat="50.77951" lon="3.75864">
        <ele>55</ele>
        <time>2015-12-13T07:56:56Z</time>
      </trkpt>
      <trkpt lat="50.77949" lon="3.75866">
        <ele>55</ele>
        <time>2015-12-13T07:56:57Z</time>
      </trkpt>
      <trkpt lat="50.77946" lon="3.75868">
        <ele>55</ele>
        <time>2015-12-13T07:56:58Z</time>
      </trkpt>
      <trkpt lat="50.77944" lon="3.7587">
        <ele>55</ele>
        <time>2015-12-13T07:56:59Z</time>
      </trkpt>
      <trkpt lat="50.77942" lon="3.75872">
        <ele>55</ele>
        <time>2015-12-13T07:57:00Z</time>
      </trkpt>
      <trkpt lat="50.7794" lon="3.75875">
        <ele>55</ele>
        <time>2015-12-13T07:57:01Z</time>
      </trkpt>
      <trkpt lat="50.7794" lon="3.75878">
        <ele>55</ele>
        <time>2015-12-13T07:57:02Z</time>
      </trkpt>
      <trkpt lat="50.7794" lon="3.75881">
        <ele>55</ele>
        <time>2015-12-13T07:57:03Z</time>
      </trkpt>
      <trkpt lat="50.7794" lon="3.75885">
        <ele>55</ele>
        <time>2015-12-13T07:57:04Z</time>
      </trkpt>
      <trkpt lat="50.7794" lon="3.75888">
        <ele>55</ele>
        <time>2015-12-13T07:57:05Z</time>
      </trkpt>
      <trkpt lat="50.77941" lon="3.75891">
        <ele>55</ele>
        <time>2015-12-13T07:57:06Z</time>
      </trkpt>
      <trkpt lat="50.77942" lon="3.75895">
        <ele>55</ele>
        <time>2015-12-13T07:57:08Z</time>
      </trkpt>
      <trkpt lat="50.77943" lon="3.75898">
        <ele>54.3</ele>
        <time>2015-12-13T07:57:11Z</time>
      </trkpt>
      <trkpt lat="50.77944" lon="3.75902">
        <ele>54</ele>
        <time>2015-12-13T07:57:15Z</time>
      </trkpt>
      <trkpt lat="50.77945" lon="3.75907">
        <ele>54</ele>
        <time>2015-12-13T07:57:17Z</time>
      </trkpt>
      <trkpt lat="50.77946" lon="3.75909">
        <ele>54</ele>
        <time>2015-12-13T07:57:19Z</time>
      </trkpt>
      <trkpt lat="50.77947" lon="3.75913">
        <ele>53.3</ele>
        <time>2015-12-13T07:57:21Z</time>
      </trkpt>
      <trkpt lat="50.77947" lon="3.75918">
        <ele>53</ele>
        <time>2015-12-13T07:57:23Z</time>
      </trkpt>
      <trkpt lat="50.77947" lon="3.75921">
        <ele>53</ele>
        <time>2015-12-13T07:57:25Z</time>
      </trkpt>
      <trkpt lat="50.77947" lon="3.75924">
        <ele>53</ele>
        <time>2015-12-13T07:57:27Z</time>
      </trkpt>
      <trkpt lat="50.77948" lon="3.75928">
        <ele>53</ele>
        <time>2015-12-13T07:57:29Z</time>
      </trkpt>
      <trkpt lat="50.77947" lon="3.75931">
        <ele>53</ele>
        <time>2015-12-13T07:57:31Z</time>
      </trkpt>
      <trkpt lat="50.77946" lon="3.75935">
        <ele>53.7</ele>
        <time>2015-12-13T07:57:33Z</time>
      </trkpt>
      <trkpt lat="50.77946" lon="3.75939">
        <ele>54</ele>
        <time>2015-12-13T07:57:35Z</time>
      </trkpt>
      <trkpt lat="50.77946" lon="3.75943">
        <ele>54</ele>
        <time>2015-12-13T07:57:37Z</time>
      </trkpt>
      <trkpt lat="50.77947" lon="3.75947">
        <ele>54</ele>
        <time>2015-12-13T07:57:39Z</time>
      </trkpt>
      <trkpt lat="50.77946" lon="3.75951">
        <ele>54.7</ele>
        <time>2015-12-13T07:57:41Z</time>
      </trkpt>
      <trkpt lat="50.77947" lon="3.75955">
        <ele>55</ele>
        <time>2015-12-13T07:57:43Z</time>
      </trkpt>
      <trkpt lat="50.77945" lon="3.75958">
        <ele>55</ele>
        <time>2015-12-13T07:57:45Z</time>
      </trkpt>
      <trkpt lat="50.77943" lon="3.75962">
        <ele>55</ele>
        <time>2015-12-13T07:57:47Z</time>
      </trkpt>
      <trkpt lat="50.77943" lon="3.75965">
        <ele>55</ele>
        <time>2015-12-13T07:57:49Z</time>
      </trkpt>
      <trkpt lat="50.77943" lon="3.75968">
        <ele>55.5</ele>
        <time>2015-12-13T07:57:51Z</time>
      </trkpt>
      <trkpt lat="50.77943" lon="3.75972">
        <ele>56</ele>
        <time>2015-12-13T07:57:53Z</time>
      </trkpt>
      <trkpt lat="50.77943" lon="3.75977">
        <ele>56</ele>
        <time>2015-12-13T07:57:55Z</time>
      </trkpt>
      <trkpt lat="50.77942" lon="3.75981">
        <ele>56</ele>
        <time>2015-12-13T07:57:57Z</time>
      </trkpt>
      <trkpt lat="50.77941" lon="3.75985">
        <ele>56</ele>
        <time>2015-12-13T07:57:59Z</time>
      </trkpt>
      <trkpt lat="50.77941" lon="3.7599">
        <ele>57.3</ele>
        <time>2015-12-13T07:58:01Z</time>
      </trkpt>
      <trkpt lat="50.7794" lon="3.75993">
        <ele>58</ele>
        <time>2015-12-13T07:58:03Z</time>
      </trkpt>
      <trkpt lat="50.77939" lon="3.75997">
        <ele>58</ele>
        <time>2015-12-13T07:58:05Z</time>
      </trkpt>
      <trkpt lat="50.77938" lon="3.76001">
        <ele>58</ele>
        <time>2015-12-13T07:58:07Z</time>
      </trkpt>
      <trkpt lat="50.77937" lon="3.76003">
        <ele>58</ele>
        <time>2015-12-13T07:58:09Z</time>
      </trkpt>
      <trkpt lat="50.77936" lon="3.76006">
        <ele>59.4</ele>
        <time>2015-12-13T07:58:11Z</time>
      </trkpt>
      <trkpt lat="50.77935" lon="3.76013">
        <ele>60</ele>
        <time>2015-12-13T07:58:16Z</time>
      </trkpt>
      <trkpt lat="50.77934" lon="3.76016">
        <ele>60</ele>
        <time>2015-12-13T07:58:18Z</time>
      </trkpt>
      <trkpt lat="50.77934" lon="3.76024">
        <ele>62</ele>
        <time>2015-12-13T07:58:23Z</time>
      </trkpt>
      <trkpt lat="50.77934" lon="3.76028">
        <ele>62</ele>
        <time>2015-12-13T07:58:25Z</time>
      </trkpt>
      <trkpt lat="50.77933" lon="3.76033">
        <ele>62</ele>
        <time>2015-12-13T07:58:27Z</time>
      </trkpt>
      <trkpt lat="50.77934" lon="3.76035">
        <ele>62</ele>
        <time>2015-12-13T07:58:29Z</time>
      </trkpt>
      <trkpt lat="50.77934" lon="3.76039">
        <ele>62.7</ele>
        <time>2015-12-13T07:58:31Z</time>
      </trkpt>
      <trkpt lat="50.77932" lon="3.76044">
        <ele>63</ele>
        <time>2015-12-13T07:58:34Z</time>
      </trkpt>
      <trkpt lat="50.77931" lon="3.76048">
        <ele>63</ele>
        <time>2015-12-13T07:58:36Z</time>
      </trkpt>
      <trkpt lat="50.77929" lon="3.76053">
        <ele>63</ele>
        <time>2015-12-13T07:58:38Z</time>
      </trkpt>
      <trkpt lat="50.77927" lon="3.76056">
        <ele>63</ele>
        <time>2015-12-13T07:58:40Z</time>
      </trkpt>
      <trkpt lat="50.77926" lon="3.76059">
        <ele>65</ele>
        <time>2015-12-13T07:58:42Z</time>
      </trkpt>
      <trkpt lat="50.77925" lon="3.76062">
        <ele>65</ele>
        <time>2015-12-13T07:58:44Z</time>
      </trkpt>
      <trkpt lat="50.77924" lon="3.76064">
        <ele>65</ele>
        <time>2015-12-13T07:58:46Z</time>
      </trkpt>
      <trkpt lat="50.77922" lon="3.76068">
        <ele>65</ele>
        <time>2015-12-13T07:58:48Z</time>
      </trkpt>
      <trkpt lat="50.7792" lon="3.76072">
        <ele>66.4</ele>
        <time>2015-12-13T07:58:51Z</time>
      </trkpt>
      <trkpt lat="50.77919" lon="3.76076">
        <ele>67</ele>
        <time>2015-12-13T07:58:53Z</time>
      </trkpt>
      <trkpt lat="50.77919" lon="3.7608">
        <ele>67.7</ele>
        <time>2015-12-13T07:58:56Z</time>
      </trkpt>
      <trkpt lat="50.77919" lon="3.76084">
        <ele>68</ele>
        <time>2015-12-13T07:58:59Z</time>
      </trkpt>
      <trkpt lat="50.7792" lon="3.76087">
        <ele>69.4</ele>
        <time>2015-12-13T07:59:01Z</time>
      </trkpt>
      <trkpt lat="50.7792" lon="3.7609">
        <ele>70</ele>
        <time>2015-12-13T07:59:03Z</time>
      </trkpt>
      <trkpt lat="50.77921" lon="3.76093">
        <ele>70</ele>
        <time>2015-12-13T07:59:05Z</time>
      </trkpt>
      <trkpt lat="50.77923" lon="3.76095">
        <ele>71</ele>
        <time>2015-12-13T07:59:08Z</time>
      </trkpt>
      <trkpt lat="50.77924" lon="3.76099">
        <ele>71.7</ele>
        <time>2015-12-13T07:59:11Z</time>
      </trkpt>
      <trkpt lat="50.77925" lon="3.76102">
        <ele>72</ele>
        <time>2015-12-13T07:59:13Z</time>
      </trkpt>
      <trkpt lat="50.77926" lon="3.76105">
        <ele>72</ele>
        <time>2015-12-13T07:59:15Z</time>
      </trkpt>
      <trkpt lat="50.77926" lon="3.76108">
        <ele>73</ele>
        <time>2015-12-13T07:59:17Z</time>
      </trkpt>
      <trkpt lat="50.77926" lon="3.76111">
        <ele>73</ele>
        <time>2015-12-13T07:59:19Z</time>
      </trkpt>
      <trkpt lat="50.77926" lon="3.76115">
        <ele>74</ele>
        <time>2015-12-13T07:59:22Z</time>
      </trkpt>
      <trkpt lat="50.77926" lon="3.76119">
        <ele>74</ele>
        <time>2015-12-13T07:59:24Z</time>
      </trkpt>
      <trkpt lat="50.77926" lon="3.76122">
        <ele>74</ele>
        <time>2015-12-13T07:59:25Z</time>
      </trkpt>
      <trkpt lat="50.77926" lon="3.76127">
        <ele>74</ele>
        <time>2015-12-13T07:59:27Z</time>
      </trkpt>
      <trkpt lat="50.77927" lon="3.76131">
        <ele>74</ele>
        <time>2015-12-13T07:59:29Z</time>
      </trkpt>
      <trkpt lat="50.77928" lon="3.76135">
        <ele>75.4</ele>
        <time>2015-12-13T07:59:31Z</time>
      </trkpt>
      <trkpt lat="50.7793" lon="3.76138">
        <ele>76</ele>
        <time>2015-12-13T07:59:33Z</time>
      </trkpt>
      <trkpt lat="50.77931" lon="3.76142">
        <ele>76</ele>
        <time>2015-12-13T07:59:35Z</time>
      </trkpt>
      <trkpt lat="50.77932" lon="3.76146">
        <ele>76</ele>
        <time>2015-12-13T07:59:37Z</time>
      </trkpt>
      <trkpt lat="50.77932" lon="3.76149">
        <ele>76</ele>
        <time>2015-12-13T07:59:39Z</time>
      </trkpt>
      <trkpt lat="50.77931" lon="3.76153">
        <ele>76.7</ele>
        <time>2015-12-13T07:59:41Z</time>
      </trkpt>
      <trkpt lat="50.77931" lon="3.76157">
        <ele>77</ele>
        <time>2015-12-13T07:59:43Z</time>
      </trkpt>
      <trkpt lat="50.7793" lon="3.76162">
        <ele>77</ele>
        <time>2015-12-13T07:59:45Z</time>
      </trkpt>
      <trkpt lat="50.77929" lon="3.76167">
        <ele>77</ele>
        <time>2015-12-13T07:59:47Z</time>
      </trkpt>
      <trkpt lat="50.77929" lon="3.76172">
        <ele>77</ele>
        <time>2015-12-13T07:59:49Z</time>
      </trkpt>
      <trkpt lat="50.77928" lon="3.76176">
        <ele>78.4</ele>
        <time>2015-12-13T07:59:51Z</time>
      </trkpt>
      <trkpt lat="50.77928" lon="3.76179">
        <ele>79</ele>
        <time>2015-12-13T07:59:53Z</time>
      </trkpt>
      <trkpt lat="50.77928" lon="3.76182">
        <ele>79</ele>
        <time>2015-12-13T07:59:55Z</time>
      </trkpt>
      <trkpt lat="50.77929" lon="3.76186">
        <ele>79</ele>
        <time>2015-12-13T07:59:57Z</time>
      </trkpt>
      <trkpt lat="50.77931" lon="3.76189">
        <ele>79</ele>
        <time>2015-12-13T07:59:59Z</time>
      </trkpt>
      <trkpt lat="50.77933" lon="3.76192">
        <ele>79</ele>
        <time>2015-12-13T08:00:01Z</time>
      </trkpt>
      <trkpt lat="50.77934" lon="3.76196">
        <ele>81</ele>
        <time>2015-12-13T08:00:03Z</time>
      </trkpt>
      <trkpt lat="50.77935" lon="3.76201">
        <ele>81</ele>
        <time>2015-12-13T08:00:06Z</time>
      </trkpt>
      <trkpt lat="50.77936" lon="3.76204">
        <ele>81</ele>
        <time>2015-12-13T08:00:08Z</time>
      </trkpt>
      <trkpt lat="50.77938" lon="3.76208">
        <ele>81</ele>
        <time>2015-12-13T08:00:10Z</time>
      </trkpt>
      <trkpt lat="50.7794" lon="3.76213">
        <ele>81</ele>
        <time>2015-12-13T08:00:12Z</time>
      </trkpt>
      <trkpt lat="50.77941" lon="3.76216">
        <ele>81</ele>
        <time>2015-12-13T08:00:14Z</time>
      </trkpt>
      <trkpt lat="50.77942" lon="3.7622">
        <ele>81</ele>
        <time>2015-12-13T08:00:16Z</time>
      </trkpt>
      <trkpt lat="50.77943" lon="3.76223">
        <ele>81</ele>
        <time>2015-12-13T08:00:18Z</time>
      </trkpt>
      <trkpt lat="50.77944" lon="3.76226">
        <ele>81</ele>
        <time>2015-12-13T08:00:20Z</time>
      </trkpt>
      <trkpt lat="50.77945" lon="3.7623">
        <ele>82</ele>
        <time>2015-12-13T08:00:22Z</time>
      </trkpt>
      <trkpt lat="50.77946" lon="3.76233">
        <ele>83</ele>
        <time>2015-12-13T08:00:24Z</time>
      </trkpt>
      <trkpt lat="50.77947" lon="3.76236">
        <ele>83</ele>
        <time>2015-12-13T08:00:27Z</time>
      </trkpt>
      <trkpt lat="50.77947" lon="3.7624">
        <ele>83</ele>
        <time>2015-12-13T08:00:30Z</time>
      </trkpt>
      <trkpt lat="50.77945" lon="3.76242">
        <ele>84.4</ele>
        <time>2015-12-13T08:00:32Z</time>
      </trkpt>
      <trkpt lat="50.77945" lon="3.76251">
        <ele>86</ele>
        <time>2015-12-13T08:00:39Z</time>
      </trkpt>
      <trkpt lat="50.77945" lon="3.76255">
        <ele>86</ele>
        <time>2015-12-13T08:00:41Z</time>
      </trkpt>
      <trkpt lat="50.77943" lon="3.76259">
        <ele>88</ele>
        <time>2015-12-13T08:00:43Z</time>
      </trkpt>
      <trkpt lat="50.77942" lon="3.76263">
        <ele>88</ele>
        <time>2015-12-13T08:00:45Z</time>
      </trkpt>
      <trkpt lat="50.77941" lon="3.76267">
        <ele>88.7</ele>
        <time>2015-12-13T08:00:47Z</time>
      </trkpt>
      <trkpt lat="50.7794" lon="3.7627">
        <ele>89</ele>
        <time>2015-12-13T08:00:49Z</time>
      </trkpt>
      <trkpt lat="50.7794" lon="3.76274">
        <ele>89</ele>
        <time>2015-12-13T08:00:51Z</time>
      </trkpt>
      <trkpt lat="50.77937" lon="3.76279">
        <ele>90</ele>
        <time>2015-12-13T08:00:54Z</time>
      </trkpt>
      <trkpt lat="50.77936" lon="3.76282">
        <ele>90</ele>
        <time>2015-12-13T08:00:56Z</time>
      </trkpt>
      <trkpt lat="50.77935" lon="3.76286">
        <ele>91</ele>
        <time>2015-12-13T08:00:58Z</time>
      </trkpt>
      <trkpt lat="50.77934" lon="3.7629">
        <ele>91</ele>
        <time>2015-12-13T08:01:00Z</time>
      </trkpt>
      <trkpt lat="50.77935" lon="3.76293">
        <ele>92</ele>
        <time>2015-12-13T08:01:02Z</time>
      </trkpt>
      <trkpt lat="50.77935" lon="3.76296">
        <ele>92</ele>
        <time>2015-12-13T08:01:04Z</time>
      </trkpt>
      <trkpt lat="50.77936" lon="3.76299">
        <ele>92.7</ele>
        <time>2015-12-13T08:01:06Z</time>
      </trkpt>
      <trkpt lat="50.77936" lon="3.76307">
        <ele>95</ele>
        <time>2015-12-13T08:01:13Z</time>
      </trkpt>
      <trkpt lat="50.77938" lon="3.76311">
        <ele>95.7</ele>
        <time>2015-12-13T08:01:16Z</time>
      </trkpt>
      <trkpt lat="50.7794" lon="3.76313">
        <ele>96</ele>
        <time>2015-12-13T08:01:19Z</time>
      </trkpt>
      <trkpt lat="50.77942" lon="3.76314">
        <ele>96</ele>
        <time>2015-12-13T08:01:21Z</time>
      </trkpt>
      <trkpt lat="50.77944" lon="3.76314">
        <ele>96</ele>
        <time>2015-12-13T08:01:23Z</time>
      </trkpt>
      <trkpt lat="50.77946" lon="3.76312">
        <ele>96</ele>
        <time>2015-12-13T08:01:25Z</time>
      </trkpt>
      <trkpt lat="50.77949" lon="3.76311">
        <ele>96</ele>
        <time>2015-12-13T08:01:27Z</time>
      </trkpt>
      <trkpt lat="50.77951" lon="3.76311">
        <ele>96</ele>
        <time>2015-12-13T08:01:29Z</time>
      </trkpt>
      <trkpt lat="50.77952" lon="3.76314">
        <ele>96</ele>
        <time>2015-12-13T08:01:31Z</time>
      </trkpt>
      <trkpt lat="50.7795" lon="3.76318">
        <ele>96</ele>
        <time>2015-12-13T08:01:33Z</time>
      </trkpt>
      <trkpt lat="50.7795" lon="3.76321">
        <ele>96</ele>
        <time>2015-12-13T08:01:35Z</time>
      </trkpt>
      <trkpt lat="50.77949" lon="3.76325">
        <ele>96</ele>
        <time>2015-12-13T08:01:37Z</time>
      </trkpt>
      <trkpt lat="50.77948" lon="3.76329">
        <ele>96</ele>
        <time>2015-12-13T08:01:39Z</time>
      </trkpt>
      <trkpt lat="50.77947" lon="3.76332">
        <ele>96</ele>
        <time>2015-12-13T08:01:41Z</time>
      </trkpt>
      <trkpt lat="50.77946" lon="3.76336">
        <ele>96</ele>
        <time>2015-12-13T08:01:43Z</time>
      </trkpt>
      <trkpt lat="50.77945" lon="3.76339">
        <ele>96</ele>
        <time>2015-12-13T08:01:45Z</time>
      </trkpt>
      <trkpt lat="50.77943" lon="3.76341">
        <ele>96</ele>
        <time>2015-12-13T08:01:47Z</time>
      </trkpt>
      <trkpt lat="50.77941" lon="3.76343">
        <ele>96</ele>
        <time>2015-12-13T08:01:49Z</time>
      </trkpt>
      <trkpt lat="50.7794" lon="3.76346">
        <ele>96</ele>
        <time>2015-12-13T08:01:51Z</time>
      </trkpt>
      <trkpt lat="50.77939" lon="3.76349">
        <ele>96</ele>
        <time>2015-12-13T08:01:53Z</time>
      </trkpt>
      <trkpt lat="50.77938" lon="3.76352">
        <ele>96</ele>
        <time>2015-12-13T08:01:55Z</time>
      </trkpt>
      <trkpt lat="50.77936" lon="3.76354">
        <ele>97</ele>
        <time>2015-12-13T08:01:58Z</time>
      </trkpt>
      <trkpt lat="50.77934" lon="3.76361">
        <ele>98</ele>
        <time>2015-12-13T08:02:04Z</time>
      </trkpt>
      <trkpt lat="50.77933" lon="3.76364">
        <ele>98</ele>
        <time>2015-12-13T08:02:06Z</time>
      </trkpt>
      <trkpt lat="50.77932" lon="3.76367">
        <ele>98</ele>
        <time>2015-12-13T08:02:08Z</time>
      </trkpt>
      <trkpt lat="50.7793" lon="3.7637">
        <ele>98</ele>
        <time>2015-12-13T08:02:10Z</time>
      </trkpt>
      <trkpt lat="50.77929" lon="3.76373">
        <ele>100</ele>
        <time>2015-12-13T08:02:12Z</time>
      </trkpt>
      <trkpt lat="50.77928" lon="3.76377">
        <ele>100</ele>
        <time>2015-12-13T08:02:14Z</time>
      </trkpt>
      <trkpt lat="50.77927" lon="3.76381">
        <ele>100</ele>
        <time>2015-12-13T08:02:16Z</time>
      </trkpt>
      <trkpt lat="50.77926" lon="3.76385">
        <ele>100</ele>
        <time>2015-12-13T08:02:19Z</time>
      </trkpt>
      <trkpt lat="50.77925" lon="3.76388">
        <ele>100</ele>
        <time>2015-12-13T08:02:21Z</time>
      </trkpt>
      <trkpt lat="50.77925" lon="3.76392">
        <ele>100</ele>
        <time>2015-12-13T08:02:24Z</time>
      </trkpt>
      <trkpt lat="50.77924" lon="3.76395">
        <ele>100</ele>
        <time>2015-12-13T08:02:26Z</time>
      </trkpt>
      <trkpt lat="50.77924" lon="3.76399">
        <ele>100</ele>
        <time>2015-12-13T08:02:28Z</time>
      </trkpt>
      <trkpt lat="50.77923" lon="3.76402">
        <ele>100</ele>
        <time>2015-12-13T08:02:30Z</time>
      </trkpt>
      <trkpt lat="50.77923" lon="3.76406">
        <ele>100</ele>
        <time>2015-12-13T08:02:32Z</time>
      </trkpt>
      <trkpt lat="50.77922" lon="3.7641">
        <ele>100</ele>
        <time>2015-12-13T08:02:34Z</time>
      </trkpt>
      <trkpt lat="50.77921" lon="3.76413">
        <ele>100</ele>
        <time>2015-12-13T08:02:36Z</time>
      </trkpt>
      <trkpt lat="50.7792" lon="3.76417">
        <ele>100</ele>
        <time>2015-12-13T08:02:38Z</time>
      </trkpt>
      <trkpt lat="50.77918" lon="3.76419">
        <ele>100</ele>
        <time>2015-12-13T08:02:40Z</time>
      </trkpt>
      <trkpt lat="50.77917" lon="3.76422">
        <ele>100</ele>
        <time>2015-12-13T08:02:42Z</time>
      </trkpt>
      <trkpt lat="50.77915" lon="3.76426">
        <ele>100</ele>
        <time>2015-12-13T08:02:44Z</time>
      </trkpt>
      <trkpt lat="50.77914" lon="3.76429">
        <ele>100</ele>
        <time>2015-12-13T08:02:46Z</time>
      </trkpt>
      <trkpt lat="50.77911" lon="3.76432">
        <ele>100</ele>
        <time>2015-12-13T08:02:48Z</time>
      </trkpt>
      <trkpt lat="50.77909" lon="3.76436">
        <ele>100</ele>
        <time>2015-12-13T08:02:50Z</time>
      </trkpt>
      <trkpt lat="50.77908" lon="3.7644">
        <ele>100</ele>
        <time>2015-12-13T08:02:52Z</time>
      </trkpt>
      <trkpt lat="50.77906" lon="3.76442">
        <ele>100</ele>
        <time>2015-12-13T08:02:53Z</time>
      </trkpt>
      <trkpt lat="50.77905" lon="3.76444">
        <ele>100</ele>
        <time>2015-12-13T08:02:54Z</time>
      </trkpt>
      <trkpt lat="50.77904" lon="3.76446">
        <ele>100</ele>
        <time>2015-12-13T08:02:55Z</time>
      </trkpt>
      <trkpt lat="50.77902" lon="3.76449">
        <ele>100</ele>
        <time>2015-12-13T08:02:56Z</time>
      </trkpt>
      <trkpt lat="50.77901" lon="3.76452">
        <ele>100</ele>
        <time>2015-12-13T08:02:57Z</time>
      </trkpt>
      <trkpt lat="50.779" lon="3.76455">
        <ele>100</ele>
        <time>2015-12-13T08:02:58Z</time>
      </trkpt>
      <trkpt lat="50.77899" lon="3.76458">
        <ele>100</ele>
        <time>2015-12-13T08:02:59Z</time>
      </trkpt>
      <trkpt lat="50.77897" lon="3.76461">
        <ele>100</ele>
        <time>2015-12-13T08:03:00Z</time>
      </trkpt>
      <trkpt lat="50.77896" lon="3.76463">
        <ele>98</ele>
        <time>2015-12-13T08:03:01Z</time>
      </trkpt>
      <trkpt lat="50.77895" lon="3.76466">
        <ele>97</ele>
        <time>2015-12-13T08:03:02Z</time>
      </trkpt>
      <trkpt lat="50.77894" lon="3.76468">
        <ele>97</ele>
        <time>2015-12-13T08:03:03Z</time>
      </trkpt>
      <trkpt lat="50.77892" lon="3.76471">
        <ele>97</ele>
        <time>2015-12-13T08:03:04Z</time>
      </trkpt>
      <trkpt lat="50.77891" lon="3.76474">
        <ele>97</ele>
        <time>2015-12-13T08:03:05Z</time>
      </trkpt>
      <trkpt lat="50.7789" lon="3.76476">
        <ele>97</ele>
        <time>2015-12-13T08:03:06Z</time>
      </trkpt>
      <trkpt lat="50.77888" lon="3.76478">
        <ele>97</ele>
        <time>2015-12-13T08:03:07Z</time>
      </trkpt>
      <trkpt lat="50.77887" lon="3.7648">
        <ele>97</ele>
        <time>2015-12-13T08:03:08Z</time>
      </trkpt>
      <trkpt lat="50.77885" lon="3.76483">
        <ele>97</ele>
        <time>2015-12-13T08:03:09Z</time>
      </trkpt>
      <trkpt lat="50.77884" lon="3.76486">
        <ele>97</ele>
        <time>2015-12-13T08:03:10Z</time>
      </trkpt>
      <trkpt lat="50.77882" lon="3.76488">
        <ele>96.3</ele>
        <time>2015-12-13T08:03:11Z</time>
      </trkpt>
      <trkpt lat="50.77881" lon="3.76491">
        <ele>96</ele>
        <time>2015-12-13T08:03:12Z</time>
      </trkpt>
      <trkpt lat="50.7788" lon="3.76494">
        <ele>96</ele>
        <time>2015-12-13T08:03:13Z</time>
      </trkpt>
      <trkpt lat="50.77879" lon="3.76497">
        <ele>96</ele>
        <time>2015-12-13T08:03:14Z</time>
      </trkpt>
      <trkpt lat="50.77877" lon="3.76501">
        <ele>96</ele>
        <time>2015-12-13T08:03:15Z</time>
      </trkpt>
      <trkpt lat="50.77877" lon="3.76504">
        <ele>96</ele>
        <time>2015-12-13T08:03:16Z</time>
      </trkpt>
      <trkpt lat="50.77875" lon="3.76508">
        <ele>96</ele>
        <time>2015-12-13T08:03:17Z</time>
      </trkpt>
      <trkpt lat="50.77875" lon="3.76512">
        <ele>96</ele>
        <time>2015-12-13T08:03:18Z</time>
      </trkpt>
      <trkpt lat="50.77874" lon="3.76516">
        <ele>96</ele>
        <time>2015-12-13T08:03:19Z</time>
      </trkpt>
      <trkpt lat="50.77874" lon="3.7652">
        <ele>96</ele>
        <time>2015-12-13T08:03:20Z</time>
      </trkpt>
      <trkpt lat="50.77874" lon="3.76524">
        <ele>96</ele>
        <time>2015-12-13T08:03:21Z</time>
      </trkpt>
      <trkpt lat="50.77874" lon="3.76527">
        <ele>96</ele>
        <time>2015-12-13T08:03:22Z</time>
      </trkpt>
      <trkpt lat="50.77874" lon="3.7653">
        <ele>96</ele>
        <time>2015-12-13T08:03:23Z</time>
      </trkpt>
      <trkpt lat="50.77873" lon="3.76533">
        <ele>96</ele>
        <time>2015-12-13T08:03:24Z</time>
      </trkpt>
      <trkpt lat="50.77872" lon="3.76536">
        <ele>96</ele>
        <time>2015-12-13T08:03:25Z</time>
      </trkpt>
      <trkpt lat="50.7787" lon="3.76539">
        <ele>96</ele>
        <time>2015-12-13T08:03:26Z</time>
      </trkpt>
      <trkpt lat="50.77869" lon="3.76542">
        <ele>96</ele>
        <time>2015-12-13T08:03:27Z</time>
      </trkpt>
      <trkpt lat="50.77867" lon="3.76545">
        <ele>96</ele>
        <time>2015-12-13T08:03:28Z</time>
      </trkpt>
      <trkpt lat="50.77866" lon="3.76548">
        <ele>96</ele>
        <time>2015-12-13T08:03:29Z</time>
      </trkpt>
      <trkpt lat="50.77865" lon="3.76551">
        <ele>96</ele>
        <time>2015-12-13T08:03:30Z</time>
      </trkpt>
      <trkpt lat="50.77863" lon="3.76554">
        <ele>96</ele>
        <time>2015-12-13T08:03:31Z</time>
      </trkpt>
      <trkpt lat="50.77862" lon="3.76557">
        <ele>96</ele>
        <time>2015-12-13T08:03:32Z</time>
      </trkpt>
      <trkpt lat="50.77861" lon="3.76559">
        <ele>96</ele>
        <time>2015-12-13T08:03:33Z</time>
      </trkpt>
      <trkpt lat="50.7786" lon="3.76561">
        <ele>96</ele>
        <time>2015-12-13T08:03:34Z</time>
      </trkpt>
      <trkpt lat="50.77859" lon="3.76564">
        <ele>96</ele>
        <time>2015-12-13T08:03:35Z</time>
      </trkpt>
      <trkpt lat="50.77858" lon="3.76567">
        <ele>96</ele>
        <time>2015-12-13T08:03:36Z</time>
      </trkpt>
      <trkpt lat="50.7786" lon="3.76565">
        <ele>96</ele>
        <time>2015-12-13T08:03:45Z</time>
      </trkpt>
      <trkpt lat="50.77858" lon="3.76566">
        <ele>96</ele>
        <time>2015-12-13T08:04:12Z</time>
      </trkpt>
      <trkpt lat="50.77856" lon="3.76568">
        <ele>96</ele>
        <time>2015-12-13T08:04:15Z</time>
      </trkpt>
      <trkpt lat="50.77855" lon="3.76572">
        <ele>96</ele>
        <time>2015-12-13T08:04:18Z</time>
      </trkpt>
      <trkpt lat="50.77854" lon="3.76575">
        <ele>96</ele>
        <time>2015-12-13T08:04:20Z</time>
      </trkpt>
      <trkpt lat="50.77853" lon="3.76578">
        <ele>96</ele>
        <time>2015-12-13T08:04:22Z</time>
      </trkpt>
      <trkpt lat="50.77852" lon="3.76581">
        <ele>96</ele>
        <time>2015-12-13T08:04:24Z</time>
      </trkpt>
      <trkpt lat="50.77851" lon="3.76584">
        <ele>96</ele>
        <time>2015-12-13T08:04:26Z</time>
      </trkpt>
      <trkpt lat="50.7785" lon="3.76587">
        <ele>96</ele>
        <time>2015-12-13T08:04:28Z</time>
      </trkpt>
      <trkpt lat="50.77848" lon="3.7659">
        <ele>96</ele>
        <time>2015-12-13T08:04:30Z</time>
      </trkpt>
      <trkpt lat="50.77847" lon="3.76593">
        <ele>96</ele>
        <time>2015-12-13T08:04:32Z</time>
      </trkpt>
      <trkpt lat="50.77846" lon="3.76597">
        <ele>96</ele>
        <time>2015-12-13T08:04:34Z</time>
      </trkpt>
      <trkpt lat="50.77845" lon="3.76601">
        <ele>96</ele>
        <time>2015-12-13T08:04:36Z</time>
      </trkpt>
      <trkpt lat="50.77843" lon="3.76604">
        <ele>96</ele>
        <time>2015-12-13T08:04:38Z</time>
      </trkpt>
      <trkpt lat="50.77842" lon="3.76607">
        <ele>96</ele>
        <time>2015-12-13T08:04:40Z</time>
      </trkpt>
      <trkpt lat="50.7784" lon="3.76611">
        <ele>96</ele>
        <time>2015-12-13T08:04:42Z</time>
      </trkpt>
      <trkpt lat="50.77838" lon="3.76614">
        <ele>96</ele>
        <time>2015-12-13T08:04:44Z</time>
      </trkpt>
      <trkpt lat="50.77837" lon="3.76617">
        <ele>96</ele>
        <time>2015-12-13T08:04:46Z</time>
      </trkpt>
      <trkpt lat="50.77835" lon="3.76618">
        <ele>96</ele>
        <time>2015-12-13T08:04:48Z</time>
      </trkpt>
      <trkpt lat="50.77833" lon="3.7662">
        <ele>96</ele>
        <time>2015-12-13T08:04:50Z</time>
      </trkpt>
      <trkpt lat="50.77832" lon="3.76623">
        <ele>96</ele>
        <time>2015-12-13T08:04:52Z</time>
      </trkpt>
      <trkpt lat="50.77831" lon="3.76626">
        <ele>96</ele>
        <time>2015-12-13T08:04:54Z</time>
      </trkpt>
      <trkpt lat="50.7783" lon="3.76628">
        <ele>96</ele>
        <time>2015-12-13T08:04:55Z</time>
      </trkpt>
      <trkpt lat="50.77829" lon="3.76631">
        <ele>96</ele>
        <time>2015-12-13T08:04:56Z</time>
      </trkpt>
      <trkpt lat="50.77827" lon="3.76633">
        <ele>96</ele>
        <time>2015-12-13T08:04:57Z</time>
      </trkpt>
      <trkpt lat="50.77826" lon="3.76635">
        <ele>96</ele>
        <time>2015-12-13T08:04:58Z</time>
      </trkpt>
      <trkpt lat="50.77825" lon="3.76638">
        <ele>96</ele>
        <time>2015-12-13T08:04:59Z</time>
      </trkpt>
      <trkpt lat="50.77823" lon="3.7664">
        <ele>96</ele>
        <time>2015-12-13T08:05:00Z</time>
      </trkpt>
      <trkpt lat="50.77822" lon="3.76643">
        <ele>96.7</ele>
        <time>2015-12-13T08:05:01Z</time>
      </trkpt>
      <trkpt lat="50.7782" lon="3.76646">
        <ele>97</ele>
        <time>2015-12-13T08:05:02Z</time>
      </trkpt>
      <trkpt lat="50.77818" lon="3.76649">
        <ele>97</ele>
        <time>2015-12-13T08:05:03Z</time>
      </trkpt>
      <trkpt lat="50.77816" lon="3.76652">
        <ele>97</ele>
        <time>2015-12-13T08:05:04Z</time>
      </trkpt>
      <trkpt lat="50.77815" lon="3.76655">
        <ele>97</ele>
        <time>2015-12-13T08:05:05Z</time>
      </trkpt>
      <trkpt lat="50.77813" lon="3.76657">
        <ele>97</ele>
        <time>2015-12-13T08:05:06Z</time>
      </trkpt>
      <trkpt lat="50.77812" lon="3.7666">
        <ele>97</ele>
        <time>2015-12-13T08:05:07Z</time>
      </trkpt>
      <trkpt lat="50.7781" lon="3.76662">
        <ele>97</ele>
        <time>2015-12-13T08:05:08Z</time>
      </trkpt>
      <trkpt lat="50.77809" lon="3.76665">
        <ele>97</ele>
        <time>2015-12-13T08:05:09Z</time>
      </trkpt>
      <trkpt lat="50.77807" lon="3.76668">
        <ele>97</ele>
        <time>2015-12-13T08:05:10Z</time>
      </trkpt>
      <trkpt lat="50.77806" lon="3.76671">
        <ele>97</ele>
        <time>2015-12-13T08:05:11Z</time>
      </trkpt>
      <trkpt lat="50.77804" lon="3.76673">
        <ele>97</ele>
        <time>2015-12-13T08:05:12Z</time>
      </trkpt>
      <trkpt lat="50.77803" lon="3.76676">
        <ele>97</ele>
        <time>2015-12-13T08:05:13Z</time>
      </trkpt>
      <trkpt lat="50.77801" lon="3.76679">
        <ele>97</ele>
        <time>2015-12-13T08:05:14Z</time>
      </trkpt>
      <trkpt lat="50.778" lon="3.76682">
        <ele>97</ele>
        <time>2015-12-13T08:05:15Z</time>
      </trkpt>
      <trkpt lat="50.77798" lon="3.76684">
        <ele>97</ele>
        <time>2015-12-13T08:05:16Z</time>
      </trkpt>
      <trkpt lat="50.77797" lon="3.76687">
        <ele>97</ele>
        <time>2015-12-13T08:05:17Z</time>
      </trkpt>
      <trkpt lat="50.77795" lon="3.7669">
        <ele>97</ele>
        <time>2015-12-13T08:05:18Z</time>
      </trkpt>
      <trkpt lat="50.77794" lon="3.76693">
        <ele>97</ele>
        <time>2015-12-13T08:05:19Z</time>
      </trkpt>
      <trkpt lat="50.77793" lon="3.76695">
        <ele>97</ele>
        <time>2015-12-13T08:05:20Z</time>
      </trkpt>
      <trkpt lat="50.77791" lon="3.76698">
        <ele>97</ele>
        <time>2015-12-13T08:05:21Z</time>
      </trkpt>
      <trkpt lat="50.77789" lon="3.76701">
        <ele>97</ele>
        <time>2015-12-13T08:05:22Z</time>
      </trkpt>
      <trkpt lat="50.77788" lon="3.76704">
        <ele>97</ele>
        <time>2015-12-13T08:05:23Z</time>
      </trkpt>
      <trkpt lat="50.77787" lon="3.76707">
        <ele>97</ele>
        <time>2015-12-13T08:05:24Z</time>
      </trkpt>
      <trkpt lat="50.77785" lon="3.7671">
        <ele>97</ele>
        <time>2015-12-13T08:05:25Z</time>
      </trkpt>
      <trkpt lat="50.77784" lon="3.76713">
        <ele>97</ele>
        <time>2015-12-13T08:05:26Z</time>
      </trkpt>
      <trkpt lat="50.77783" lon="3.76715">
        <ele>97</ele>
        <time>2015-12-13T08:05:27Z</time>
      </trkpt>
      <trkpt lat="50.77781" lon="3.76718">
        <ele>97</ele>
        <time>2015-12-13T08:05:28Z</time>
      </trkpt>
      <trkpt lat="50.7778" lon="3.76721">
        <ele>97</ele>
        <time>2015-12-13T08:05:29Z</time>
      </trkpt>
      <trkpt lat="50.77779" lon="3.76724">
        <ele>97</ele>
        <time>2015-12-13T08:05:30Z</time>
      </trkpt>
      <trkpt lat="50.77777" lon="3.76727">
        <ele>97.7</ele>
        <time>2015-12-13T08:05:31Z</time>
      </trkpt>
      <trkpt lat="50.77776" lon="3.7673">
        <ele>98</ele>
        <time>2015-12-13T08:05:32Z</time>
      </trkpt>
      <trkpt lat="50.77774" lon="3.76732">
        <ele>98</ele>
        <time>2015-12-13T08:05:33Z</time>
      </trkpt>
      <trkpt lat="50.77773" lon="3.76735">
        <ele>98</ele>
        <time>2015-12-13T08:05:34Z</time>
      </trkpt>
      <trkpt lat="50.77771" lon="3.76737">
        <ele>98</ele>
        <time>2015-12-13T08:05:35Z</time>
      </trkpt>
      <trkpt lat="50.7777" lon="3.7674">
        <ele>98</ele>
        <time>2015-12-13T08:05:36Z</time>
      </trkpt>
      <trkpt lat="50.77768" lon="3.76743">
        <ele>98</ele>
        <time>2015-12-13T08:05:37Z</time>
      </trkpt>
      <trkpt lat="50.77767" lon="3.76746">
        <ele>98</ele>
        <time>2015-12-13T08:05:38Z</time>
      </trkpt>
      <trkpt lat="50.77765" lon="3.76749">
        <ele>98</ele>
        <time>2015-12-13T08:05:39Z</time>
      </trkpt>
      <trkpt lat="50.77763" lon="3.76751">
        <ele>98</ele>
        <time>2015-12-13T08:05:40Z</time>
      </trkpt>
      <trkpt lat="50.77762" lon="3.76754">
        <ele>98</ele>
        <time>2015-12-13T08:05:41Z</time>
      </trkpt>
      <trkpt lat="50.77761" lon="3.76757">
        <ele>98</ele>
        <time>2015-12-13T08:05:42Z</time>
      </trkpt>
      <trkpt lat="50.77761" lon="3.7676">
        <ele>98</ele>
        <time>2015-12-13T08:05:43Z</time>
      </trkpt>
      <trkpt lat="50.77762" lon="3.76763">
        <ele>98</ele>
        <time>2015-12-13T08:05:44Z</time>
      </trkpt>
      <trkpt lat="50.77763" lon="3.76766">
        <ele>98</ele>
        <time>2015-12-13T08:05:45Z</time>
      </trkpt>
      <trkpt lat="50.77764" lon="3.76769">
        <ele>98</ele>
        <time>2015-12-13T08:05:46Z</time>
      </trkpt>
      <trkpt lat="50.77766" lon="3.76771">
        <ele>98</ele>
        <time>2015-12-13T08:05:47Z</time>
      </trkpt>
      <trkpt lat="50.77767" lon="3.76774">
        <ele>98</ele>
        <time>2015-12-13T08:05:48Z</time>
      </trkpt>
      <trkpt lat="50.77769" lon="3.76776">
        <ele>98</ele>
        <time>2015-12-13T08:05:49Z</time>
      </trkpt>
      <trkpt lat="50.7777" lon="3.76778">
        <ele>98</ele>
        <time>2015-12-13T08:05:50Z</time>
      </trkpt>
      <trkpt lat="50.77771" lon="3.76781">
        <ele>98</ele>
        <time>2015-12-13T08:05:51Z</time>
      </trkpt>
      <trkpt lat="50.77773" lon="3.76783">
        <ele>98</ele>
        <time>2015-12-13T08:05:52Z</time>
      </trkpt>
      <trkpt lat="50.77774" lon="3.76786">
        <ele>98</ele>
        <time>2015-12-13T08:05:53Z</time>
      </trkpt>
      <trkpt lat="50.77776" lon="3.76789">
        <ele>98</ele>
        <time>2015-12-13T08:05:54Z</time>
      </trkpt>
      <trkpt lat="50.77777" lon="3.76792">
        <ele>98</ele>
        <time>2015-12-13T08:05:55Z</time>
      </trkpt>
      <trkpt lat="50.77779" lon="3.76794">
        <ele>98</ele>
        <time>2015-12-13T08:05:56Z</time>
      </trkpt>
      <trkpt lat="50.77781" lon="3.76797">
        <ele>98</ele>
        <time>2015-12-13T08:05:57Z</time>
      </trkpt>
      <trkpt lat="50.77782" lon="3.768">
        <ele>98</ele>
        <time>2015-12-13T08:05:58Z</time>
      </trkpt>
      <trkpt lat="50.77784" lon="3.76803">
        <ele>98</ele>
        <time>2015-12-13T08:05:59Z</time>
      </trkpt>
      <trkpt lat="50.77786" lon="3.76806">
        <ele>98</ele>
        <time>2015-12-13T08:06:00Z</time>
      </trkpt>
      <trkpt lat="50.77787" lon="3.76808">
        <ele>97.5</ele>
        <time>2015-12-13T08:06:01Z</time>
      </trkpt>
      <trkpt lat="50.77789" lon="3.76812">
        <ele>97</ele>
        <time>2015-12-13T08:06:02Z</time>
      </trkpt>
      <trkpt lat="50.7779" lon="3.76815">
        <ele>97</ele>
        <time>2015-12-13T08:06:03Z</time>
      </trkpt>
      <trkpt lat="50.77791" lon="3.76819">
        <ele>97</ele>
        <time>2015-12-13T08:06:04Z</time>
      </trkpt>
      <trkpt lat="50.77793" lon="3.76822">
        <ele>97</ele>
        <time>2015-12-13T08:06:05Z</time>
      </trkpt>
      <trkpt lat="50.77794" lon="3.76826">
        <ele>97</ele>
        <time>2015-12-13T08:06:06Z</time>
      </trkpt>
      <trkpt lat="50.77796" lon="3.76829">
        <ele>97</ele>
        <time>2015-12-13T08:06:07Z</time>
      </trkpt>
      <trkpt lat="50.77797" lon="3.76833">
        <ele>97</ele>
        <time>2015-12-13T08:06:08Z</time>
      </trkpt>
      <trkpt lat="50.77798" lon="3.76836">
        <ele>97</ele>
        <time>2015-12-13T08:06:09Z</time>
      </trkpt>
      <trkpt lat="50.778" lon="3.7684">
        <ele>97</ele>
        <time>2015-12-13T08:06:10Z</time>
      </trkpt>
      <trkpt lat="50.77801" lon="3.76843">
        <ele>97</ele>
        <time>2015-12-13T08:06:11Z</time>
      </trkpt>
      <trkpt lat="50.77802" lon="3.76846">
        <ele>97</ele>
        <time>2015-12-13T08:06:12Z</time>
      </trkpt>
      <trkpt lat="50.77804" lon="3.76849">
        <ele>97</ele>
        <time>2015-12-13T08:06:13Z</time>
      </trkpt>
      <trkpt lat="50.77805" lon="3.76852">
        <ele>97</ele>
        <time>2015-12-13T08:06:14Z</time>
      </trkpt>
      <trkpt lat="50.77806" lon="3.76855">
        <ele>97</ele>
        <time>2015-12-13T08:06:15Z</time>
      </trkpt>
      <trkpt lat="50.77807" lon="3.76858">
        <ele>97</ele>
        <time>2015-12-13T08:06:16Z</time>
      </trkpt>
      <trkpt lat="50.77808" lon="3.76861">
        <ele>97</ele>
        <time>2015-12-13T08:06:17Z</time>
      </trkpt>
      <trkpt lat="50.7781" lon="3.76864">
        <ele>97</ele>
        <time>2015-12-13T08:06:18Z</time>
      </trkpt>
      <trkpt lat="50.77811" lon="3.76867">
        <ele>97</ele>
        <time>2015-12-13T08:06:19Z</time>
      </trkpt>
      <trkpt lat="50.77812" lon="3.7687">
        <ele>97</ele>
        <time>2015-12-13T08:06:20Z</time>
      </trkpt>
      <trkpt lat="50.77813" lon="3.76874">
        <ele>97</ele>
        <time>2015-12-13T08:06:21Z</time>
      </trkpt>
      <trkpt lat="50.77813" lon="3.76878">
        <ele>97</ele>
        <time>2015-12-13T08:06:22Z</time>
      </trkpt>
      <trkpt lat="50.77814" lon="3.76881">
        <ele>97</ele>
        <time>2015-12-13T08:06:23Z</time>
      </trkpt>
      <trkpt lat="50.77814" lon="3.76885">
        <ele>97</ele>
        <time>2015-12-13T08:06:24Z</time>
      </trkpt>
      <trkpt lat="50.77815" lon="3.76888">
        <ele>97</ele>
        <time>2015-12-13T08:06:25Z</time>
      </trkpt>
      <trkpt lat="50.77815" lon="3.76891">
        <ele>97</ele>
        <time>2015-12-13T08:06:26Z</time>
      </trkpt>
      <trkpt lat="50.77815" lon="3.76894">
        <ele>97</ele>
        <time>2015-12-13T08:06:27Z</time>
      </trkpt>
      <trkpt lat="50.77816" lon="3.76899">
        <ele>97</ele>
        <time>2015-12-13T08:06:29Z</time>
      </trkpt>
      <trkpt lat="50.77816" lon="3.76902">
        <ele>97</ele>
        <time>2015-12-13T08:06:31Z</time>
      </trkpt>
      <trkpt lat="50.77815" lon="3.76907">
        <ele>97</ele>
        <time>2015-12-13T08:06:47Z</time>
      </trkpt>
      <trkpt lat="50.77815" lon="3.7691">
        <ele>97</ele>
        <time>2015-12-13T08:06:51Z</time>
      </trkpt>
      <trkpt lat="50.77815" lon="3.76913">
        <ele>97</ele>
        <time>2015-12-13T08:06:56Z</time>
      </trkpt>
      <trkpt lat="50.77815" lon="3.76916">
        <ele>96</ele>
        <time>2015-12-13T08:07:02Z</time>
      </trkpt>
      <trkpt lat="50.77816" lon="3.76919">
        <ele>96</ele>
        <time>2015-12-13T08:07:04Z</time>
      </trkpt>
      <trkpt lat="50.77816" lon="3.76923">
        <ele>96</ele>
        <time>2015-12-13T08:07:06Z</time>
      </trkpt>
      <trkpt lat="50.77817" lon="3.76926">
        <ele>96</ele>
        <time>2015-12-13T08:07:11Z</time>
      </trkpt>
      <trkpt lat="50.77817" lon="3.7693">
        <ele>96</ele>
        <time>2015-12-13T08:07:13Z</time>
      </trkpt>
      <trkpt lat="50.77818" lon="3.76933">
        <ele>96</ele>
        <time>2015-12-13T08:07:15Z</time>
      </trkpt>
      <trkpt lat="50.77818" lon="3.76938">
        <ele>96</ele>
        <time>2015-12-13T08:07:17Z</time>
      </trkpt>
      <trkpt lat="50.77818" lon="3.76943">
        <ele>96</ele>
        <time>2015-12-13T08:07:19Z</time>
      </trkpt>
      <trkpt lat="50.7782" lon="3.76948">
        <ele>96</ele>
        <time>2015-12-13T08:07:21Z</time>
      </trkpt>
      <trkpt lat="50.77822" lon="3.7695">
        <ele>96</ele>
        <time>2015-12-13T08:07:22Z</time>
      </trkpt>
      <trkpt lat="50.77823" lon="3.76952">
        <ele>96</ele>
        <time>2015-12-13T08:07:23Z</time>
      </trkpt>
      <trkpt lat="50.77825" lon="3.76957">
        <ele>96</ele>
        <time>2015-12-13T08:07:25Z</time>
      </trkpt>
      <trkpt lat="50.77827" lon="3.76962">
        <ele>96</ele>
        <time>2015-12-13T08:07:27Z</time>
      </trkpt>
      <trkpt lat="50.77828" lon="3.76965">
        <ele>96</ele>
        <time>2015-12-13T08:07:29Z</time>
      </trkpt>
      <trkpt lat="50.7783" lon="3.76968">
        <ele>96</ele>
        <time>2015-12-13T08:07:31Z</time>
      </trkpt>
      <trkpt lat="50.77832" lon="3.76971">
        <ele>96</ele>
        <time>2015-12-13T08:07:33Z</time>
      </trkpt>
      <trkpt lat="50.77833" lon="3.76974">
        <ele>96</ele>
        <time>2015-12-13T08:07:35Z</time>
      </trkpt>
      <trkpt lat="50.77835" lon="3.76977">
        <ele>95.3</ele>
        <time>2015-12-13T08:07:41Z</time>
      </trkpt>
      <trkpt lat="50.77836" lon="3.7698">
        <ele>95</ele>
        <time>2015-12-13T08:07:44Z</time>
      </trkpt>
      <trkpt lat="50.77837" lon="3.76984">
        <ele>95</ele>
        <time>2015-12-13T08:07:47Z</time>
      </trkpt>
      <trkpt lat="50.77835" lon="3.76985">
        <ele>95</ele>
        <time>2015-12-13T08:07:51Z</time>
      </trkpt>
      <trkpt lat="50.77833" lon="3.76986">
        <ele>95</ele>
        <time>2015-12-13T08:07:53Z</time>
      </trkpt>
      <trkpt lat="50.7783" lon="3.76986">
        <ele>95</ele>
        <time>2015-12-13T08:07:55Z</time>
      </trkpt>
      <trkpt lat="50.77827" lon="3.76986">
        <ele>95</ele>
        <time>2015-12-13T08:07:57Z</time>
      </trkpt>
      <trkpt lat="50.77825" lon="3.76986">
        <ele>95</ele>
        <time>2015-12-13T08:07:59Z</time>
      </trkpt>
      <trkpt lat="50.77823" lon="3.76987">
        <ele>95</ele>
        <time>2015-12-13T08:08:01Z</time>
      </trkpt>
      <trkpt lat="50.7782" lon="3.76988">
        <ele>94</ele>
        <time>2015-12-13T08:08:03Z</time>
      </trkpt>
      <trkpt lat="50.77817" lon="3.76987">
        <ele>94</ele>
        <time>2015-12-13T08:08:05Z</time>
      </trkpt>
      <trkpt lat="50.77814" lon="3.76987">
        <ele>94</ele>
        <time>2015-12-13T08:08:07Z</time>
      </trkpt>
      <trkpt lat="50.77811" lon="3.76988">
        <ele>94</ele>
        <time>2015-12-13T08:08:09Z</time>
      </trkpt>
      <trkpt lat="50.77808" lon="3.76988">
        <ele>94</ele>
        <time>2015-12-13T08:08:11Z</time>
      </trkpt>
      <trkpt lat="50.77806" lon="3.76989">
        <ele>94</ele>
        <time>2015-12-13T08:08:12Z</time>
      </trkpt>
      <trkpt lat="50.77803" lon="3.76989">
        <ele>94</ele>
        <time>2015-12-13T08:08:13Z</time>
      </trkpt>
      <trkpt lat="50.77801" lon="3.76989">
        <ele>94</ele>
        <time>2015-12-13T08:08:14Z</time>
      </trkpt>
      <trkpt lat="50.77798" lon="3.76989">
        <ele>94</ele>
        <time>2015-12-13T08:08:15Z</time>
      </trkpt>
      <trkpt lat="50.77796" lon="3.76989">
        <ele>94</ele>
        <time>2015-12-13T08:08:16Z</time>
      </trkpt>
      <trkpt lat="50.77795" lon="3.76989">
        <ele>94</ele>
        <time>2015-12-13T08:08:17Z</time>
      </trkpt>
      <trkpt lat="50.77793" lon="3.76991">
        <ele>94</ele>
        <time>2015-12-13T08:08:18Z</time>
      </trkpt>
      <trkpt lat="50.7779" lon="3.76992">
        <ele>94</ele>
        <time>2015-12-13T08:08:19Z</time>
      </trkpt>
      <trkpt lat="50.77788" lon="3.76994">
        <ele>94</ele>
        <time>2015-12-13T08:08:20Z</time>
      </trkpt>
      <trkpt lat="50.77787" lon="3.76995">
        <ele>94</ele>
        <time>2015-12-13T08:08:21Z</time>
      </trkpt>
      <trkpt lat="50.77784" lon="3.76996">
        <ele>93.3</ele>
        <time>2015-12-13T08:08:22Z</time>
      </trkpt>
      <trkpt lat="50.77782" lon="3.76998">
        <ele>93</ele>
        <time>2015-12-13T08:08:23Z</time>
      </trkpt>
      <trkpt lat="50.7778" lon="3.77">
        <ele>93</ele>
        <time>2015-12-13T08:08:24Z</time>
      </trkpt>
      <trkpt lat="50.77778" lon="3.77001">
        <ele>93</ele>
        <time>2015-12-13T08:08:25Z</time>
      </trkpt>
      <trkpt lat="50.77776" lon="3.77004">
        <ele>93</ele>
        <time>2015-12-13T08:08:27Z</time>
      </trkpt>
      <trkpt lat="50.77773" lon="3.77008">
        <ele>93</ele>
        <time>2015-12-13T08:08:29Z</time>
      </trkpt>
      <trkpt lat="50.77772" lon="3.7701">
        <ele>93</ele>
        <time>2015-12-13T08:08:30Z</time>
      </trkpt>
      <trkpt lat="50.7777" lon="3.77012">
        <ele>93</ele>
        <time>2015-12-13T08:08:31Z</time>
      </trkpt>
      <trkpt lat="50.77769" lon="3.77014">
        <ele>93.5</ele>
        <time>2015-12-13T08:08:32Z</time>
      </trkpt>
      <trkpt lat="50.77767" lon="3.77017">
        <ele>94</ele>
        <time>2015-12-13T08:08:33Z</time>
      </trkpt>
      <trkpt lat="50.77766" lon="3.77019">
        <ele>94</ele>
        <time>2015-12-13T08:08:34Z</time>
      </trkpt>
      <trkpt lat="50.77764" lon="3.77023">
        <ele>94</ele>
        <time>2015-12-13T08:08:36Z</time>
      </trkpt>
      <trkpt lat="50.77761" lon="3.77027">
        <ele>94</ele>
        <time>2015-12-13T08:08:38Z</time>
      </trkpt>
      <trkpt lat="50.7776" lon="3.7703">
        <ele>94</ele>
        <time>2015-12-13T08:08:39Z</time>
      </trkpt>
      <trkpt lat="50.77758" lon="3.77031">
        <ele>94</ele>
        <time>2015-12-13T08:08:40Z</time>
      </trkpt>
      <trkpt lat="50.77757" lon="3.77033">
        <ele>94</ele>
        <time>2015-12-13T08:08:41Z</time>
      </trkpt>
      <trkpt lat="50.77754" lon="3.77037">
        <ele>94</ele>
        <time>2015-12-13T08:08:43Z</time>
      </trkpt>
      <trkpt lat="50.77751" lon="3.77042">
        <ele>94</ele>
        <time>2015-12-13T08:08:45Z</time>
      </trkpt>
      <trkpt lat="50.7775" lon="3.77044">
        <ele>94</ele>
        <time>2015-12-13T08:08:46Z</time>
      </trkpt>
      <trkpt lat="50.77749" lon="3.77047">
        <ele>94</ele>
        <time>2015-12-13T08:08:47Z</time>
      </trkpt>
      <trkpt lat="50.77747" lon="3.7705">
        <ele>94</ele>
        <time>2015-12-13T08:08:48Z</time>
      </trkpt>
      <trkpt lat="50.77745" lon="3.77051">
        <ele>94</ele>
        <time>2015-12-13T08:08:49Z</time>
      </trkpt>
      <trkpt lat="50.77742" lon="3.77053">
        <ele>94</ele>
        <time>2015-12-13T08:08:51Z</time>
      </trkpt>
      <trkpt lat="50.7774" lon="3.77053">
        <ele>94</ele>
        <time>2015-12-13T08:08:57Z</time>
      </trkpt>
      <trkpt lat="50.77738" lon="3.7705">
        <ele>94</ele>
        <time>2015-12-13T08:08:59Z</time>
      </trkpt>
      <trkpt lat="50.77736" lon="3.77048">
        <ele>94.7</ele>
        <time>2015-12-13T08:09:01Z</time>
      </trkpt>
      <trkpt lat="50.77734" lon="3.77046">
        <ele>95</ele>
        <time>2015-12-13T08:09:03Z</time>
      </trkpt>
      <trkpt lat="50.77732" lon="3.77044">
        <ele>95</ele>
        <time>2015-12-13T08:09:05Z</time>
      </trkpt>
      <trkpt lat="50.7773" lon="3.77044">
        <ele>95</ele>
        <time>2015-12-13T08:09:07Z</time>
      </trkpt>
      <trkpt lat="50.77727" lon="3.77046">
        <ele>95</ele>
        <time>2015-12-13T08:09:09Z</time>
      </trkpt>
      <trkpt lat="50.77723" lon="3.77049">
        <ele>95</ele>
        <time>2015-12-13T08:09:11Z</time>
      </trkpt>
      <trkpt lat="50.77722" lon="3.7705">
        <ele>95</ele>
        <time>2015-12-13T08:09:12Z</time>
      </trkpt>
      <trkpt lat="50.7772" lon="3.77051">
        <ele>95</ele>
        <time>2015-12-13T08:09:13Z</time>
      </trkpt>
      <trkpt lat="50.77718" lon="3.77052">
        <ele>95</ele>
        <time>2015-12-13T08:09:14Z</time>
      </trkpt>
      <trkpt lat="50.77716" lon="3.77054">
        <ele>95</ele>
        <time>2015-12-13T08:09:15Z</time>
      </trkpt>
      <trkpt lat="50.77714" lon="3.77055">
        <ele>95</ele>
        <time>2015-12-13T08:09:16Z</time>
      </trkpt>
      <trkpt lat="50.77712" lon="3.77057">
        <ele>95</ele>
        <time>2015-12-13T08:09:17Z</time>
      </trkpt>
      <trkpt lat="50.7771" lon="3.77058">
        <ele>95</ele>
        <time>2015-12-13T08:09:18Z</time>
      </trkpt>
      <trkpt lat="50.77708" lon="3.7706">
        <ele>95</ele>
        <time>2015-12-13T08:09:19Z</time>
      </trkpt>
      <trkpt lat="50.77706" lon="3.77061">
        <ele>95</ele>
        <time>2015-12-13T08:09:20Z</time>
      </trkpt>
      <trkpt lat="50.77704" lon="3.77063">
        <ele>95</ele>
        <time>2015-12-13T08:09:21Z</time>
      </trkpt>
      <trkpt lat="50.77702" lon="3.77064">
        <ele>95</ele>
        <time>2015-12-13T08:09:22Z</time>
      </trkpt>
      <trkpt lat="50.777" lon="3.77066">
        <ele>95</ele>
        <time>2015-12-13T08:09:23Z</time>
      </trkpt>
      <trkpt lat="50.77698" lon="3.77067">
        <ele>95</ele>
        <time>2015-12-13T08:09:24Z</time>
      </trkpt>
      <trkpt lat="50.77696" lon="3.77069">
        <ele>95</ele>
        <time>2015-12-13T08:09:25Z</time>
      </trkpt>
      <trkpt lat="50.77694" lon="3.77071">
        <ele>95</ele>
        <time>2015-12-13T08:09:26Z</time>
      </trkpt>
      <trkpt lat="50.77692" lon="3.77073">
        <ele>95</ele>
        <time>2015-12-13T08:09:27Z</time>
      </trkpt>
      <trkpt lat="50.7769" lon="3.77074">
        <ele>95</ele>
        <time>2015-12-13T08:09:28Z</time>
      </trkpt>
      <trkpt lat="50.77688" lon="3.77076">
        <ele>95</ele>
        <time>2015-12-13T08:09:29Z</time>
      </trkpt>
      <trkpt lat="50.77686" lon="3.77077">
        <ele>95</ele>
        <time>2015-12-13T08:09:30Z</time>
      </trkpt>
      <trkpt lat="50.77684" lon="3.7708">
        <ele>95</ele>
        <time>2015-12-13T08:09:31Z</time>
      </trkpt>
      <trkpt lat="50.77684" lon="3.77084">
        <ele>95</ele>
        <time>2015-12-13T08:09:33Z</time>
      </trkpt>
      <trkpt lat="50.77686" lon="3.77087">
        <ele>95</ele>
        <time>2015-12-13T08:09:35Z</time>
      </trkpt>
      <trkpt lat="50.77688" lon="3.7709">
        <ele>95</ele>
        <time>2015-12-13T08:09:37Z</time>
      </trkpt>
      <trkpt lat="50.77689" lon="3.77093">
        <ele>95</ele>
        <time>2015-12-13T08:09:39Z</time>
      </trkpt>
      <trkpt lat="50.77691" lon="3.77095">
        <ele>95</ele>
        <time>2015-12-13T08:09:41Z</time>
      </trkpt>
      <trkpt lat="50.77693" lon="3.77098">
        <ele>95</ele>
        <time>2015-12-13T08:09:43Z</time>
      </trkpt>
      <trkpt lat="50.77695" lon="3.771">
        <ele>95</ele>
        <time>2015-12-13T08:09:45Z</time>
      </trkpt>
      <trkpt lat="50.77697" lon="3.77103">
        <ele>95</ele>
        <time>2015-12-13T08:09:47Z</time>
      </trkpt>
      <trkpt lat="50.77698" lon="3.77106">
        <ele>95</ele>
        <time>2015-12-13T08:09:49Z</time>
      </trkpt>
      <trkpt lat="50.777" lon="3.77109">
        <ele>95</ele>
        <time>2015-12-13T08:09:51Z</time>
      </trkpt>
      <trkpt lat="50.77702" lon="3.77112">
        <ele>95</ele>
        <time>2015-12-13T08:09:53Z</time>
      </trkpt>
      <trkpt lat="50.77704" lon="3.77115">
        <ele>95</ele>
        <time>2015-12-13T08:09:55Z</time>
      </trkpt>
      <trkpt lat="50.77705" lon="3.77118">
        <ele>95</ele>
        <time>2015-12-13T08:09:57Z</time>
      </trkpt>
      <trkpt lat="50.77707" lon="3.77121">
        <ele>95</ele>
        <time>2015-12-13T08:09:59Z</time>
      </trkpt>
      <trkpt lat="50.77709" lon="3.77124">
        <ele>92.6</ele>
        <time>2015-12-13T08:10:01Z</time>
      </trkpt>
      <trkpt lat="50.77711" lon="3.77127">
        <ele>92</ele>
        <time>2015-12-13T08:10:03Z</time>
      </trkpt>
      <trkpt lat="50.77713" lon="3.7713">
        <ele>92</ele>
        <time>2015-12-13T08:10:05Z</time>
      </trkpt>
      <trkpt lat="50.77714" lon="3.77134">
        <ele>92</ele>
        <time>2015-12-13T08:10:07Z</time>
      </trkpt>
      <trkpt lat="50.77716" lon="3.77137">
        <ele>92</ele>
        <time>2015-12-13T08:10:09Z</time>
      </trkpt>
      <trkpt lat="50.77717" lon="3.7714">
        <ele>91.5</ele>
        <time>2015-12-13T08:10:11Z</time>
      </trkpt>
      <trkpt lat="50.77719" lon="3.77143">
        <ele>91</ele>
        <time>2015-12-13T08:10:37Z</time>
      </trkpt>
      <trkpt lat="50.7772" lon="3.77145">
        <ele>91</ele>
        <time>2015-12-13T08:10:38Z</time>
      </trkpt>
      <trkpt lat="50.77723" lon="3.7715">
        <ele>91</ele>
        <time>2015-12-13T08:10:40Z</time>
      </trkpt>
      <trkpt lat="50.77724" lon="3.77153">
        <ele>90.3</ele>
        <time>2015-12-13T08:10:41Z</time>
      </trkpt>
      <trkpt lat="50.77725" lon="3.77155">
        <ele>90</ele>
        <time>2015-12-13T08:10:42Z</time>
      </trkpt>
      <trkpt lat="50.77726" lon="3.77158">
        <ele>90</ele>
        <time>2015-12-13T08:10:43Z</time>
      </trkpt>
      <trkpt lat="50.77728" lon="3.77161">
        <ele>90</ele>
        <time>2015-12-13T08:10:44Z</time>
      </trkpt>
      <trkpt lat="50.77729" lon="3.77164">
        <ele>90</ele>
        <time>2015-12-13T08:10:45Z</time>
      </trkpt>
      <trkpt lat="50.7773" lon="3.77167">
        <ele>90</ele>
        <time>2015-12-13T08:10:46Z</time>
      </trkpt>
      <trkpt lat="50.77731" lon="3.7717">
        <ele>90</ele>
        <time>2015-12-13T08:10:47Z</time>
      </trkpt>
      <trkpt lat="50.77732" lon="3.77173">
        <ele>90</ele>
        <time>2015-12-13T08:10:48Z</time>
      </trkpt>
      <trkpt lat="50.77734" lon="3.77175">
        <ele>90</ele>
        <time>2015-12-13T08:10:49Z</time>
      </trkpt>
      <trkpt lat="50.77735" lon="3.77178">
        <ele>90</ele>
        <time>2015-12-13T08:10:50Z</time>
      </trkpt>
      <trkpt lat="50.77737" lon="3.77181">
        <ele>88.6</ele>
        <time>2015-12-13T08:10:51Z</time>
      </trkpt>
      <trkpt lat="50.77738" lon="3.77183">
        <ele>88</ele>
        <time>2015-12-13T08:10:52Z</time>
      </trkpt>
      <trkpt lat="50.77739" lon="3.77186">
        <ele>88</ele>
        <time>2015-12-13T08:10:53Z</time>
      </trkpt>
      <trkpt lat="50.77741" lon="3.77188">
        <ele>88</ele>
        <time>2015-12-13T08:10:54Z</time>
      </trkpt>
      <trkpt lat="50.77742" lon="3.77191">
        <ele>88</ele>
        <time>2015-12-13T08:10:55Z</time>
      </trkpt>
      <trkpt lat="50.77744" lon="3.77194">
        <ele>88</ele>
        <time>2015-12-13T08:10:56Z</time>
      </trkpt>
      <trkpt lat="50.77745" lon="3.77197">
        <ele>88</ele>
        <time>2015-12-13T08:10:57Z</time>
      </trkpt>
      <trkpt lat="50.77746" lon="3.77199">
        <ele>88</ele>
        <time>2015-12-13T08:10:58Z</time>
      </trkpt>
      <trkpt lat="50.77747" lon="3.77203">
        <ele>88</ele>
        <time>2015-12-13T08:10:59Z</time>
      </trkpt>
      <trkpt lat="50.77749" lon="3.77206">
        <ele>88</ele>
        <time>2015-12-13T08:11:00Z</time>
      </trkpt>
      <trkpt lat="50.7775" lon="3.77208">
        <ele>86.6</ele>
        <time>2015-12-13T08:11:01Z</time>
      </trkpt>
      <trkpt lat="50.77751" lon="3.77211">
        <ele>86</ele>
        <time>2015-12-13T08:11:02Z</time>
      </trkpt>
      <trkpt lat="50.77752" lon="3.77214">
        <ele>86</ele>
        <time>2015-12-13T08:11:03Z</time>
      </trkpt>
      <trkpt lat="50.77754" lon="3.77217">
        <ele>86</ele>
        <time>2015-12-13T08:11:04Z</time>
      </trkpt>
      <trkpt lat="50.77755" lon="3.7722">
        <ele>86</ele>
        <time>2015-12-13T08:11:05Z</time>
      </trkpt>
      <trkpt lat="50.77756" lon="3.77223">
        <ele>86</ele>
        <time>2015-12-13T08:11:06Z</time>
      </trkpt>
      <trkpt lat="50.77757" lon="3.77226">
        <ele>86</ele>
        <time>2015-12-13T08:11:07Z</time>
      </trkpt>
      <trkpt lat="50.77758" lon="3.77229">
        <ele>86</ele>
        <time>2015-12-13T08:11:08Z</time>
      </trkpt>
      <trkpt lat="50.7776" lon="3.77232">
        <ele>86</ele>
        <time>2015-12-13T08:11:09Z</time>
      </trkpt>
      <trkpt lat="50.77761" lon="3.77234">
        <ele>86</ele>
        <time>2015-12-13T08:11:10Z</time>
      </trkpt>
      <trkpt lat="50.77762" lon="3.77236">
        <ele>85.3</ele>
        <time>2015-12-13T08:11:11Z</time>
      </trkpt>
      <trkpt lat="50.77764" lon="3.77238">
        <ele>85</ele>
        <time>2015-12-13T08:11:12Z</time>
      </trkpt>
      <trkpt lat="50.77766" lon="3.7724">
        <ele>85</ele>
        <time>2015-12-13T08:11:13Z</time>
      </trkpt>
      <trkpt lat="50.77767" lon="3.77243">
        <ele>85</ele>
        <time>2015-12-13T08:11:14Z</time>
      </trkpt>
      <trkpt lat="50.77769" lon="3.77245">
        <ele>85</ele>
        <time>2015-12-13T08:11:15Z</time>
      </trkpt>
      <trkpt lat="50.77771" lon="3.77247">
        <ele>85</ele>
        <time>2015-12-13T08:11:16Z</time>
      </trkpt>
      <trkpt lat="50.77773" lon="3.77249">
        <ele>85</ele>
        <time>2015-12-13T08:11:17Z</time>
      </trkpt>
      <trkpt lat="50.77775" lon="3.77251">
        <ele>85</ele>
        <time>2015-12-13T08:11:18Z</time>
      </trkpt>
      <trkpt lat="50.77777" lon="3.77253">
        <ele>85</ele>
        <time>2015-12-13T08:11:19Z</time>
      </trkpt>
      <trkpt lat="50.77778" lon="3.77255">
        <ele>85</ele>
        <time>2015-12-13T08:11:20Z</time>
      </trkpt>
      <trkpt lat="50.7778" lon="3.77257">
        <ele>83.4</ele>
        <time>2015-12-13T08:11:21Z</time>
      </trkpt>
      <trkpt lat="50.77782" lon="3.77259">
        <ele>82</ele>
        <time>2015-12-13T08:11:22Z</time>
      </trkpt>
      <trkpt lat="50.77784" lon="3.77261">
        <ele>82</ele>
        <time>2015-12-13T08:11:23Z</time>
      </trkpt>
      <trkpt lat="50.77786" lon="3.77263">
        <ele>82</ele>
        <time>2015-12-13T08:11:24Z</time>
      </trkpt>
      <trkpt lat="50.77787" lon="3.77265">
        <ele>82</ele>
        <time>2015-12-13T08:11:25Z</time>
      </trkpt>
      <trkpt lat="50.77789" lon="3.77267">
        <ele>81.3</ele>
        <time>2015-12-13T08:11:26Z</time>
      </trkpt>
      <trkpt lat="50.77791" lon="3.77269">
        <ele>81</ele>
        <time>2015-12-13T08:11:27Z</time>
      </trkpt>
      <trkpt lat="50.77793" lon="3.77271">
        <ele>81</ele>
        <time>2015-12-13T08:11:28Z</time>
      </trkpt>
      <trkpt lat="50.77795" lon="3.77273">
        <ele>81</ele>
        <time>2015-12-13T08:11:29Z</time>
      </trkpt>
      <trkpt lat="50.77797" lon="3.77275">
        <ele>81</ele>
        <time>2015-12-13T08:11:30Z</time>
      </trkpt>
      <trkpt lat="50.77799" lon="3.77278">
        <ele>80.3</ele>
        <time>2015-12-13T08:11:31Z</time>
      </trkpt>
      <trkpt lat="50.77801" lon="3.77279">
        <ele>80</ele>
        <time>2015-12-13T08:11:32Z</time>
      </trkpt>
      <trkpt lat="50.77804" lon="3.77281">
        <ele>80</ele>
        <time>2015-12-13T08:11:33Z</time>
      </trkpt>
      <trkpt lat="50.77806" lon="3.77283">
        <ele>80</ele>
        <time>2015-12-13T08:11:34Z</time>
      </trkpt>
      <trkpt lat="50.77808" lon="3.77286">
        <ele>80</ele>
        <time>2015-12-13T08:11:35Z</time>
      </trkpt>
      <trkpt lat="50.7781" lon="3.77288">
        <ele>79.3</ele>
        <time>2015-12-13T08:11:36Z</time>
      </trkpt>
      <trkpt lat="50.77811" lon="3.7729">
        <ele>79</ele>
        <time>2015-12-13T08:11:37Z</time>
      </trkpt>
      <trkpt lat="50.77813" lon="3.77291">
        <ele>79</ele>
        <time>2015-12-13T08:11:38Z</time>
      </trkpt>
      <trkpt lat="50.77815" lon="3.77293">
        <ele>79</ele>
        <time>2015-12-13T08:11:39Z</time>
      </trkpt>
      <trkpt lat="50.77817" lon="3.77295">
        <ele>79</ele>
        <time>2015-12-13T08:11:40Z</time>
      </trkpt>
      <trkpt lat="50.77819" lon="3.77296">
        <ele>78.5</ele>
        <time>2015-12-13T08:11:41Z</time>
      </trkpt>
      <trkpt lat="50.77822" lon="3.77298">
        <ele>78</ele>
        <time>2015-12-13T08:11:42Z</time>
      </trkpt>
      <trkpt lat="50.77824" lon="3.773">
        <ele>78</ele>
        <time>2015-12-13T08:11:43Z</time>
      </trkpt>
      <trkpt lat="50.77827" lon="3.77302">
        <ele>78</ele>
        <time>2015-12-13T08:11:44Z</time>
      </trkpt>
      <trkpt lat="50.77829" lon="3.77305">
        <ele>78</ele>
        <time>2015-12-13T08:11:45Z</time>
      </trkpt>
      <trkpt lat="50.77831" lon="3.77307">
        <ele>78</ele>
        <time>2015-12-13T08:11:46Z</time>
      </trkpt>
      <trkpt lat="50.77833" lon="3.77309">
        <ele>78</ele>
        <time>2015-12-13T08:11:47Z</time>
      </trkpt>
      <trkpt lat="50.77835" lon="3.77311">
        <ele>78</ele>
        <time>2015-12-13T08:11:48Z</time>
      </trkpt>
      <trkpt lat="50.77837" lon="3.77313">
        <ele>78</ele>
        <time>2015-12-13T08:11:49Z</time>
      </trkpt>
      <trkpt lat="50.77839" lon="3.77315">
        <ele>78</ele>
        <time>2015-12-13T08:11:50Z</time>
      </trkpt>
      <trkpt lat="50.77841" lon="3.77317">
        <ele>78</ele>
        <time>2015-12-13T08:11:51Z</time>
      </trkpt>
      <trkpt lat="50.77843" lon="3.77318">
        <ele>78</ele>
        <time>2015-12-13T08:11:52Z</time>
      </trkpt>
      <trkpt lat="50.77846" lon="3.7732">
        <ele>78</ele>
        <time>2015-12-13T08:11:53Z</time>
      </trkpt>
      <trkpt lat="50.77848" lon="3.77322">
        <ele>78</ele>
        <time>2015-12-13T08:11:54Z</time>
      </trkpt>
      <trkpt lat="50.7785" lon="3.77325">
        <ele>78</ele>
        <time>2015-12-13T08:11:55Z</time>
      </trkpt>
      <trkpt lat="50.77852" lon="3.77327">
        <ele>78</ele>
        <time>2015-12-13T08:11:56Z</time>
      </trkpt>
      <trkpt lat="50.77854" lon="3.77329">
        <ele>78</ele>
        <time>2015-12-13T08:11:57Z</time>
      </trkpt>
      <trkpt lat="50.77856" lon="3.7733">
        <ele>78</ele>
        <time>2015-12-13T08:11:58Z</time>
      </trkpt>
      <trkpt lat="50.77857" lon="3.77333">
        <ele>78</ele>
        <time>2015-12-13T08:11:59Z</time>
      </trkpt>
      <trkpt lat="50.77859" lon="3.77335">
        <ele>78</ele>
        <time>2015-12-13T08:12:00Z</time>
      </trkpt>
      <trkpt lat="50.7786" lon="3.77338">
        <ele>75.3</ele>
        <time>2015-12-13T08:12:01Z</time>
      </trkpt>
      <trkpt lat="50.77862" lon="3.7734">
        <ele>74</ele>
        <time>2015-12-13T08:12:02Z</time>
      </trkpt>
      <trkpt lat="50.77864" lon="3.77344">
        <ele>74</ele>
        <time>2015-12-13T08:12:04Z</time>
      </trkpt>
      <trkpt lat="50.77867" lon="3.77347">
        <ele>74</ele>
        <time>2015-12-13T08:12:06Z</time>
      </trkpt>
      <trkpt lat="50.77869" lon="3.77349">
        <ele>74</ele>
        <time>2015-12-13T08:12:07Z</time>
      </trkpt>
      <trkpt lat="50.77871" lon="3.7735">
        <ele>74</ele>
        <time>2015-12-13T08:12:08Z</time>
      </trkpt>
      <trkpt lat="50.77873" lon="3.77352">
        <ele>74</ele>
        <time>2015-12-13T08:12:09Z</time>
      </trkpt>
      <trkpt lat="50.77875" lon="3.77354">
        <ele>74</ele>
        <time>2015-12-13T08:12:10Z</time>
      </trkpt>
      <trkpt lat="50.77877" lon="3.77355">
        <ele>73.3</ele>
        <time>2015-12-13T08:12:11Z</time>
      </trkpt>
      <trkpt lat="50.77879" lon="3.77357">
        <ele>73</ele>
        <time>2015-12-13T08:12:12Z</time>
      </trkpt>
      <trkpt lat="50.77881" lon="3.77361">
        <ele>73</ele>
        <time>2015-12-13T08:12:13Z</time>
      </trkpt>
      <trkpt lat="50.77882" lon="3.77364">
        <ele>73</ele>
        <time>2015-12-13T08:12:14Z</time>
      </trkpt>
      <trkpt lat="50.77884" lon="3.77366">
        <ele>73</ele>
        <time>2015-12-13T08:12:15Z</time>
      </trkpt>
      <trkpt lat="50.77885" lon="3.77368">
        <ele>73</ele>
        <time>2015-12-13T08:12:16Z</time>
      </trkpt>
      <trkpt lat="50.77887" lon="3.7737">
        <ele>73</ele>
        <time>2015-12-13T08:12:17Z</time>
      </trkpt>
      <trkpt lat="50.77888" lon="3.77373">
        <ele>73</ele>
        <time>2015-12-13T08:12:18Z</time>
      </trkpt>
      <trkpt lat="50.7789" lon="3.77374">
        <ele>73</ele>
        <time>2015-12-13T08:12:19Z</time>
      </trkpt>
      <trkpt lat="50.77893" lon="3.77377">
        <ele>71.6</ele>
        <time>2015-12-13T08:12:21Z</time>
      </trkpt>
      <trkpt lat="50.77896" lon="3.7738">
        <ele>71</ele>
        <time>2015-12-13T08:12:23Z</time>
      </trkpt>
      <trkpt lat="50.77898" lon="3.77383">
        <ele>71</ele>
        <time>2015-12-13T08:12:25Z</time>
      </trkpt>
      <trkpt lat="50.779" lon="3.77384">
        <ele>71</ele>
        <time>2015-12-13T08:12:26Z</time>
      </trkpt>
      <trkpt lat="50.77903" lon="3.77384">
        <ele>71</ele>
        <time>2015-12-13T08:12:27Z</time>
      </trkpt>
      <trkpt lat="50.77905" lon="3.77385">
        <ele>71</ele>
        <time>2015-12-13T08:12:28Z</time>
      </trkpt>
      <trkpt lat="50.77907" lon="3.77385">
        <ele>71</ele>
        <time>2015-12-13T08:12:29Z</time>
      </trkpt>
      <trkpt lat="50.77909" lon="3.77386">
        <ele>71</ele>
        <time>2015-12-13T08:12:30Z</time>
      </trkpt>
      <trkpt lat="50.77911" lon="3.77387">
        <ele>70.3</ele>
        <time>2015-12-13T08:12:31Z</time>
      </trkpt>
      <trkpt lat="50.77913" lon="3.77388">
        <ele>70</ele>
        <time>2015-12-13T08:12:32Z</time>
      </trkpt>
      <trkpt lat="50.77915" lon="3.77389">
        <ele>70</ele>
        <time>2015-12-13T08:12:33Z</time>
      </trkpt>
      <trkpt lat="50.77917" lon="3.7739">
        <ele>70</ele>
        <time>2015-12-13T08:12:34Z</time>
      </trkpt>
      <trkpt lat="50.7792" lon="3.77391">
        <ele>70</ele>
        <time>2015-12-13T08:12:35Z</time>
      </trkpt>
      <trkpt lat="50.77923" lon="3.77391">
        <ele>70</ele>
        <time>2015-12-13T08:12:37Z</time>
      </trkpt>
      <trkpt lat="50.77925" lon="3.7739">
        <ele>70</ele>
        <time>2015-12-13T08:12:38Z</time>
      </trkpt>
      <trkpt lat="50.77927" lon="3.77389">
        <ele>70</ele>
        <time>2015-12-13T08:12:39Z</time>
      </trkpt>
      <trkpt lat="50.7793" lon="3.7739">
        <ele>70</ele>
        <time>2015-12-13T08:12:40Z</time>
      </trkpt>
      <trkpt lat="50.77932" lon="3.7739">
        <ele>68.6</ele>
        <time>2015-12-13T08:12:41Z</time>
      </trkpt>
      <trkpt lat="50.77935" lon="3.7739">
        <ele>68</ele>
        <time>2015-12-13T08:12:42Z</time>
      </trkpt>
      <trkpt lat="50.77937" lon="3.77392">
        <ele>68</ele>
        <time>2015-12-13T08:12:43Z</time>
      </trkpt>
      <trkpt lat="50.77939" lon="3.77393">
        <ele>68</ele>
        <time>2015-12-13T08:12:44Z</time>
      </trkpt>
      <trkpt lat="50.77941" lon="3.77395">
        <ele>68</ele>
        <time>2015-12-13T08:12:45Z</time>
      </trkpt>
      <trkpt lat="50.77943" lon="3.77396">
        <ele>67.3</ele>
        <time>2015-12-13T08:12:46Z</time>
      </trkpt>
      <trkpt lat="50.77945" lon="3.77398">
        <ele>67</ele>
        <time>2015-12-13T08:12:47Z</time>
      </trkpt>
      <trkpt lat="50.77947" lon="3.774">
        <ele>67</ele>
        <time>2015-12-13T08:12:48Z</time>
      </trkpt>
      <trkpt lat="50.77949" lon="3.77402">
        <ele>67</ele>
        <time>2015-12-13T08:12:49Z</time>
      </trkpt>
      <trkpt lat="50.77951" lon="3.77404">
        <ele>67</ele>
        <time>2015-12-13T08:12:50Z</time>
      </trkpt>
      <trkpt lat="50.77953" lon="3.77405">
        <ele>66.3</ele>
        <time>2015-12-13T08:12:51Z</time>
      </trkpt>
      <trkpt lat="50.77954" lon="3.77406">
        <ele>66</ele>
        <time>2015-12-13T08:12:52Z</time>
      </trkpt>
      <trkpt lat="50.77956" lon="3.77407">
        <ele>66</ele>
        <time>2015-12-13T08:12:55Z</time>
      </trkpt>
      <trkpt lat="50.7796" lon="3.77408">
        <ele>66</ele>
        <time>2015-12-13T08:12:57Z</time>
      </trkpt>
      <trkpt lat="50.77961" lon="3.77409">
        <ele>66</ele>
        <time>2015-12-13T08:12:58Z</time>
      </trkpt>
      <trkpt lat="50.77963" lon="3.7741">
        <ele>66</ele>
        <time>2015-12-13T08:12:59Z</time>
      </trkpt>
      <trkpt lat="50.77965" lon="3.77412">
        <ele>66</ele>
        <time>2015-12-13T08:13:00Z</time>
      </trkpt>
      <trkpt lat="50.77966" lon="3.77415">
        <ele>66</ele>
        <time>2015-12-13T08:13:03Z</time>
      </trkpt>
      <trkpt lat="50.77964" lon="3.77417">
        <ele>66</ele>
        <time>2015-12-13T08:13:09Z</time>
      </trkpt>
      <trkpt lat="50.77966" lon="3.77419">
        <ele>66</ele>
        <time>2015-12-13T08:13:11Z</time>
      </trkpt>
      <trkpt lat="50.77968" lon="3.77422">
        <ele>66</ele>
        <time>2015-12-13T08:13:13Z</time>
      </trkpt>
      <trkpt lat="50.77969" lon="3.77425">
        <ele>66</ele>
        <time>2015-12-13T08:13:15Z</time>
      </trkpt>
      <trkpt lat="50.7797" lon="3.77428">
        <ele>66</ele>
        <time>2015-12-13T08:13:18Z</time>
      </trkpt>
      <trkpt lat="50.77971" lon="3.77431">
        <ele>66</ele>
        <time>2015-12-13T08:13:20Z</time>
      </trkpt>
      <trkpt lat="50.77972" lon="3.77434">
        <ele>65</ele>
        <time>2015-12-13T08:13:22Z</time>
      </trkpt>
      <trkpt lat="50.77973" lon="3.77438">
        <ele>65</ele>
        <time>2015-12-13T08:13:24Z</time>
      </trkpt>
      <trkpt lat="50.77975" lon="3.77441">
        <ele>65</ele>
        <time>2015-12-13T08:13:26Z</time>
      </trkpt>
      <trkpt lat="50.77976" lon="3.77445">
        <ele>65</ele>
        <time>2015-12-13T08:13:28Z</time>
      </trkpt>
      <trkpt lat="50.77977" lon="3.77448">
        <ele>65</ele>
        <time>2015-12-13T08:13:30Z</time>
      </trkpt>
      <trkpt lat="50.77978" lon="3.77451">
        <ele>65</ele>
        <time>2015-12-13T08:13:32Z</time>
      </trkpt>
      <trkpt lat="50.77979" lon="3.77455">
        <ele>65</ele>
        <time>2015-12-13T08:13:34Z</time>
      </trkpt>
      <trkpt lat="50.7798" lon="3.77459">
        <ele>65</ele>
        <time>2015-12-13T08:13:36Z</time>
      </trkpt>
      <trkpt lat="50.77981" lon="3.77461">
        <ele>65</ele>
        <time>2015-12-13T08:13:38Z</time>
      </trkpt>
      <trkpt lat="50.77982" lon="3.77464">
        <ele>65</ele>
        <time>2015-12-13T08:13:40Z</time>
      </trkpt>
      <trkpt lat="50.77984" lon="3.77467">
        <ele>65</ele>
        <time>2015-12-13T08:13:42Z</time>
      </trkpt>
      <trkpt lat="50.77988" lon="3.77486">
        <ele>64</ele>
        <time>2015-12-13T08:14:00Z</time>
      </trkpt>
      <trkpt lat="50.77993" lon="3.77498">
        <ele>63</ele>
        <time>2015-12-13T08:14:02Z</time>
      </trkpt>
      <trkpt lat="50.77999" lon="3.77512">
        <ele>63</ele>
        <time>2015-12-13T08:14:04Z</time>
      </trkpt>
      <trkpt lat="50.78001" lon="3.77516">
        <ele>63</ele>
        <time>2015-12-13T08:14:05Z</time>
      </trkpt>
      <trkpt lat="50.78003" lon="3.7752">
        <ele>63</ele>
        <time>2015-12-13T08:14:06Z</time>
      </trkpt>
      <trkpt lat="50.78004" lon="3.77524">
        <ele>63</ele>
        <time>2015-12-13T08:14:07Z</time>
      </trkpt>
      <trkpt lat="50.78005" lon="3.77527">
        <ele>63</ele>
        <time>2015-12-13T08:14:08Z</time>
      </trkpt>
      <trkpt lat="50.78006" lon="3.7753">
        <ele>63</ele>
        <time>2015-12-13T08:14:09Z</time>
      </trkpt>
      <trkpt lat="50.78007" lon="3.77532">
        <ele>63</ele>
        <time>2015-12-13T08:14:10Z</time>
      </trkpt>
      <trkpt lat="50.78009" lon="3.77536">
        <ele>63</ele>
        <time>2015-12-13T08:14:12Z</time>
      </trkpt>
      <trkpt lat="50.78011" lon="3.7754">
        <ele>63</ele>
        <time>2015-12-13T08:14:14Z</time>
      </trkpt>
      <trkpt lat="50.78013" lon="3.77543">
        <ele>63</ele>
        <time>2015-12-13T08:14:16Z</time>
      </trkpt>
      <trkpt lat="50.78015" lon="3.77547">
        <ele>63</ele>
        <time>2015-12-13T08:14:18Z</time>
      </trkpt>
      <trkpt lat="50.78017" lon="3.77551">
        <ele>63</ele>
        <time>2015-12-13T08:14:20Z</time>
      </trkpt>
      <trkpt lat="50.78019" lon="3.77554">
        <ele>63</ele>
        <time>2015-12-13T08:14:21Z</time>
      </trkpt>
      <trkpt lat="50.7802" lon="3.77556">
        <ele>63</ele>
        <time>2015-12-13T08:14:22Z</time>
      </trkpt>
      <trkpt lat="50.78022" lon="3.77559">
        <ele>63</ele>
        <time>2015-12-13T08:14:23Z</time>
      </trkpt>
      <trkpt lat="50.78023" lon="3.77561">
        <ele>63</ele>
        <time>2015-12-13T08:14:24Z</time>
      </trkpt>
      <trkpt lat="50.78025" lon="3.77564">
        <ele>63</ele>
        <time>2015-12-13T08:14:25Z</time>
      </trkpt>
      <trkpt lat="50.78026" lon="3.77566">
        <ele>63</ele>
        <time>2015-12-13T08:14:26Z</time>
      </trkpt>
      <trkpt lat="50.78028" lon="3.77569">
        <ele>63</ele>
        <time>2015-12-13T08:14:27Z</time>
      </trkpt>
      <trkpt lat="50.78029" lon="3.77571">
        <ele>63</ele>
        <time>2015-12-13T08:14:28Z</time>
      </trkpt>
      <trkpt lat="50.78031" lon="3.77574">
        <ele>63</ele>
        <time>2015-12-13T08:14:29Z</time>
      </trkpt>
      <trkpt lat="50.78032" lon="3.77577">
        <ele>63</ele>
        <time>2015-12-13T08:14:30Z</time>
      </trkpt>
      <trkpt lat="50.78033" lon="3.7758">
        <ele>62.3</ele>
        <time>2015-12-13T08:14:31Z</time>
      </trkpt>
      <trkpt lat="50.78034" lon="3.77582">
        <ele>62</ele>
        <time>2015-12-13T08:14:32Z</time>
      </trkpt>
      <trkpt lat="50.78036" lon="3.77585">
        <ele>62</ele>
        <time>2015-12-13T08:14:33Z</time>
      </trkpt>
      <trkpt lat="50.78037" lon="3.77588">
        <ele>62</ele>
        <time>2015-12-13T08:14:34Z</time>
      </trkpt>
      <trkpt lat="50.78039" lon="3.77592">
        <ele>62</ele>
        <time>2015-12-13T08:14:36Z</time>
      </trkpt>
      <trkpt lat="50.7804" lon="3.77594">
        <ele>62</ele>
        <time>2015-12-13T08:14:37Z</time>
      </trkpt>
      <trkpt lat="50.78041" lon="3.77597">
        <ele>62</ele>
        <time>2015-12-13T08:14:38Z</time>
      </trkpt>
      <trkpt lat="50.78043" lon="3.776">
        <ele>62</ele>
        <time>2015-12-13T08:14:39Z</time>
      </trkpt>
      <trkpt lat="50.78044" lon="3.77603">
        <ele>62</ele>
        <time>2015-12-13T08:14:40Z</time>
      </trkpt>
      <trkpt lat="50.78045" lon="3.77606">
        <ele>61.3</ele>
        <time>2015-12-13T08:14:41Z</time>
      </trkpt>
      <trkpt lat="50.78046" lon="3.7761">
        <ele>61</ele>
        <time>2015-12-13T08:14:43Z</time>
      </trkpt>
      <trkpt lat="50.78047" lon="3.77615">
        <ele>61</ele>
        <time>2015-12-13T08:14:45Z</time>
      </trkpt>
      <trkpt lat="50.78049" lon="3.7762">
        <ele>61</ele>
        <time>2015-12-13T08:14:47Z</time>
      </trkpt>
      <trkpt lat="50.7805" lon="3.77623">
        <ele>61</ele>
        <time>2015-12-13T08:14:48Z</time>
      </trkpt>
      <trkpt lat="50.78051" lon="3.77627">
        <ele>61</ele>
        <time>2015-12-13T08:14:49Z</time>
      </trkpt>
      <trkpt lat="50.78053" lon="3.7763">
        <ele>61</ele>
        <time>2015-12-13T08:14:50Z</time>
      </trkpt>
      <trkpt lat="50.78053" lon="3.77633">
        <ele>61</ele>
        <time>2015-12-13T08:14:51Z</time>
      </trkpt>
      <trkpt lat="50.78054" lon="3.77638">
        <ele>61</ele>
        <time>2015-12-13T08:14:53Z</time>
      </trkpt>
      <trkpt lat="50.78055" lon="3.77641">
        <ele>61</ele>
        <time>2015-12-13T08:14:54Z</time>
      </trkpt>
      <trkpt lat="50.78057" lon="3.77643">
        <ele>61</ele>
        <time>2015-12-13T08:14:55Z</time>
      </trkpt>
      <trkpt lat="50.78058" lon="3.77647">
        <ele>61</ele>
        <time>2015-12-13T08:14:56Z</time>
      </trkpt>
      <trkpt lat="50.78059" lon="3.77651">
        <ele>61</ele>
        <time>2015-12-13T08:14:57Z</time>
      </trkpt>
      <trkpt lat="50.7806" lon="3.77655">
        <ele>61</ele>
        <time>2015-12-13T08:14:58Z</time>
      </trkpt>
      <trkpt lat="50.78061" lon="3.77658">
        <ele>61</ele>
        <time>2015-12-13T08:14:59Z</time>
      </trkpt>
      <trkpt lat="50.78062" lon="3.77661">
        <ele>61</ele>
        <time>2015-12-13T08:15:00Z</time>
      </trkpt>
      <trkpt lat="50.78063" lon="3.77664">
        <ele>59.6</ele>
        <time>2015-12-13T08:15:01Z</time>
      </trkpt>
      <trkpt lat="50.78064" lon="3.77666">
        <ele>59</ele>
        <time>2015-12-13T08:15:02Z</time>
      </trkpt>
      <trkpt lat="50.78066" lon="3.77669">
        <ele>59</ele>
        <time>2015-12-13T08:15:04Z</time>
      </trkpt>
      <trkpt lat="50.78069" lon="3.7767">
        <ele>59</ele>
        <time>2015-12-13T08:15:06Z</time>
      </trkpt>
      <trkpt lat="50.78073" lon="3.7767">
        <ele>59</ele>
        <time>2015-12-13T08:15:08Z</time>
      </trkpt>
      <trkpt lat="50.78075" lon="3.77671">
        <ele>59</ele>
        <time>2015-12-13T08:15:09Z</time>
      </trkpt>
      <trkpt lat="50.78077" lon="3.77672">
        <ele>59</ele>
        <time>2015-12-13T08:15:10Z</time>
      </trkpt>
      <trkpt lat="50.78079" lon="3.77672">
        <ele>58.3</ele>
        <time>2015-12-13T08:15:11Z</time>
      </trkpt>
      <trkpt lat="50.7808" lon="3.77672">
        <ele>58</ele>
        <time>2015-12-13T08:15:12Z</time>
      </trkpt>
      <trkpt lat="50.78082" lon="3.77671">
        <ele>58</ele>
        <time>2015-12-13T08:15:13Z</time>
      </trkpt>
      <trkpt lat="50.78084" lon="3.77671">
        <ele>58</ele>
        <time>2015-12-13T08:15:14Z</time>
      </trkpt>
      <trkpt lat="50.78087" lon="3.77671">
        <ele>58</ele>
        <time>2015-12-13T08:15:15Z</time>
      </trkpt>
      <trkpt lat="50.7809" lon="3.77672">
        <ele>58</ele>
        <time>2015-12-13T08:15:16Z</time>
      </trkpt>
      <trkpt lat="50.78092" lon="3.77673">
        <ele>58</ele>
        <time>2015-12-13T08:15:17Z</time>
      </trkpt>
      <trkpt lat="50.78094" lon="3.77673">
        <ele>58</ele>
        <time>2015-12-13T08:15:18Z</time>
      </trkpt>
      <trkpt lat="50.78096" lon="3.77673">
        <ele>58</ele>
        <time>2015-12-13T08:15:19Z</time>
      </trkpt>
      <trkpt lat="50.78098" lon="3.77671">
        <ele>58</ele>
        <time>2015-12-13T08:15:20Z</time>
      </trkpt>
      <trkpt lat="50.781" lon="3.7767">
        <ele>58</ele>
        <time>2015-12-13T08:15:21Z</time>
      </trkpt>
      <trkpt lat="50.78102" lon="3.77669">
        <ele>58</ele>
        <time>2015-12-13T08:15:22Z</time>
      </trkpt>
      <trkpt lat="50.78104" lon="3.7767">
        <ele>58</ele>
        <time>2015-12-13T08:15:23Z</time>
      </trkpt>
      <trkpt lat="50.78107" lon="3.77674">
        <ele>58</ele>
        <time>2015-12-13T08:15:24Z</time>
      </trkpt>
      <trkpt lat="50.78108" lon="3.77677">
        <ele>58</ele>
        <time>2015-12-13T08:15:25Z</time>
      </trkpt>
      <trkpt lat="50.7811" lon="3.77682">
        <ele>58</ele>
        <time>2015-12-13T08:15:26Z</time>
      </trkpt>
      <trkpt lat="50.78111" lon="3.77686">
        <ele>58</ele>
        <time>2015-12-13T08:15:27Z</time>
      </trkpt>
      <trkpt lat="50.78112" lon="3.7769">
        <ele>58</ele>
        <time>2015-12-13T08:15:28Z</time>
      </trkpt>
      <trkpt lat="50.78113" lon="3.77694">
        <ele>58</ele>
        <time>2015-12-13T08:15:29Z</time>
      </trkpt>
      <trkpt lat="50.78115" lon="3.77697">
        <ele>58</ele>
        <time>2015-12-13T08:15:30Z</time>
      </trkpt>
      <trkpt lat="50.78116" lon="3.777">
        <ele>58.7</ele>
        <time>2015-12-13T08:15:31Z</time>
      </trkpt>
      <trkpt lat="50.78118" lon="3.77705">
        <ele>59</ele>
        <time>2015-12-13T08:15:33Z</time>
      </trkpt>
      <trkpt lat="50.7812" lon="3.77708">
        <ele>59</ele>
        <time>2015-12-13T08:15:34Z</time>
      </trkpt>
      <trkpt lat="50.7812" lon="3.77711">
        <ele>59</ele>
        <time>2015-12-13T08:15:35Z</time>
      </trkpt>
      <trkpt lat="50.7812" lon="3.77715">
        <ele>59</ele>
        <time>2015-12-13T08:15:36Z</time>
      </trkpt>
      <trkpt lat="50.78119" lon="3.77718">
        <ele>59</ele>
        <time>2015-12-13T08:15:37Z</time>
      </trkpt>
      <trkpt lat="50.78117" lon="3.7772">
        <ele>59</ele>
        <time>2015-12-13T08:15:38Z</time>
      </trkpt>
      <trkpt lat="50.78115" lon="3.77723">
        <ele>59</ele>
        <time>2015-12-13T08:15:39Z</time>
      </trkpt>
      <trkpt lat="50.78113" lon="3.77725">
        <ele>59</ele>
        <time>2015-12-13T08:15:40Z</time>
      </trkpt>
      <trkpt lat="50.78111" lon="3.77727">
        <ele>58.3</ele>
        <time>2015-12-13T08:15:41Z</time>
      </trkpt>
      <trkpt lat="50.78109" lon="3.77729">
        <ele>58</ele>
        <time>2015-12-13T08:15:42Z</time>
      </trkpt>
      <trkpt lat="50.78106" lon="3.7773">
        <ele>58</ele>
        <time>2015-12-13T08:15:43Z</time>
      </trkpt>
      <trkpt lat="50.78104" lon="3.77732">
        <ele>58</ele>
        <time>2015-12-13T08:15:44Z</time>
      </trkpt>
      <trkpt lat="50.78102" lon="3.77734">
        <ele>58</ele>
        <time>2015-12-13T08:15:45Z</time>
      </trkpt>
      <trkpt lat="50.781" lon="3.77736">
        <ele>58</ele>
        <time>2015-12-13T08:15:46Z</time>
      </trkpt>
      <trkpt lat="50.78099" lon="3.77738">
        <ele>58</ele>
        <time>2015-12-13T08:15:47Z</time>
      </trkpt>
      <trkpt lat="50.78097" lon="3.7774">
        <ele>58</ele>
        <time>2015-12-13T08:15:48Z</time>
      </trkpt>
      <trkpt lat="50.78097" lon="3.77743">
        <ele>58</ele>
        <time>2015-12-13T08:15:49Z</time>
      </trkpt>
      <trkpt lat="50.78096" lon="3.77746">
        <ele>58</ele>
        <time>2015-12-13T08:15:50Z</time>
      </trkpt>
      <trkpt lat="50.78094" lon="3.77748">
        <ele>56.6</ele>
        <time>2015-12-13T08:15:51Z</time>
      </trkpt>
      <trkpt lat="50.78093" lon="3.77749">
        <ele>56</ele>
        <time>2015-12-13T08:15:53Z</time>
      </trkpt>
      <trkpt lat="50.78089" lon="3.77755">
        <ele>54</ele>
        <time>2015-12-13T08:16:20Z</time>
      </trkpt>
      <trkpt lat="50.78087" lon="3.77754">
        <ele>55</ele>
        <time>2015-12-13T08:16:22Z</time>
      </trkpt>
      <trkpt lat="50.78085" lon="3.77753">
        <ele>55</ele>
        <time>2015-12-13T08:16:24Z</time>
      </trkpt>
      <trkpt lat="50.78082" lon="3.77751">
        <ele>55</ele>
        <time>2015-12-13T08:16:26Z</time>
      </trkpt>
      <trkpt lat="50.7808" lon="3.77752">
        <ele>55</ele>
        <time>2015-12-13T08:16:29Z</time>
      </trkpt>
      <trkpt lat="50.78078" lon="3.77753">
        <ele>55.5</ele>
        <time>2015-12-13T08:16:31Z</time>
      </trkpt>
      <trkpt lat="50.78075" lon="3.77754">
        <ele>56</ele>
        <time>2015-12-13T08:16:33Z</time>
      </trkpt>
      <trkpt lat="50.78073" lon="3.77754">
        <ele>56</ele>
        <time>2015-12-13T08:16:35Z</time>
      </trkpt>
      <trkpt lat="50.78069" lon="3.77756">
        <ele>56</ele>
        <time>2015-12-13T08:16:37Z</time>
      </trkpt>
      <trkpt lat="50.78068" lon="3.77759">
        <ele>56</ele>
        <time>2015-12-13T08:16:39Z</time>
      </trkpt>
      <trkpt lat="50.78067" lon="3.77763">
        <ele>56</ele>
        <time>2015-12-13T08:16:41Z</time>
      </trkpt>
      <trkpt lat="50.78067" lon="3.77768">
        <ele>56</ele>
        <time>2015-12-13T08:16:43Z</time>
      </trkpt>
      <trkpt lat="50.78065" lon="3.77773">
        <ele>56</ele>
        <time>2015-12-13T08:16:45Z</time>
      </trkpt>
      <trkpt lat="50.78063" lon="3.77776">
        <ele>56</ele>
        <time>2015-12-13T08:16:46Z</time>
      </trkpt>
      <trkpt lat="50.78061" lon="3.77778">
        <ele>56</ele>
        <time>2015-12-13T08:16:47Z</time>
      </trkpt>
      <trkpt lat="50.7806" lon="3.77781">
        <ele>56</ele>
        <time>2015-12-13T08:16:48Z</time>
      </trkpt>
      <trkpt lat="50.78058" lon="3.77784">
        <ele>56</ele>
        <time>2015-12-13T08:16:49Z</time>
      </trkpt>
      <trkpt lat="50.78057" lon="3.77786">
        <ele>56</ele>
        <time>2015-12-13T08:16:50Z</time>
      </trkpt>
      <trkpt lat="50.78055" lon="3.77792">
        <ele>55</ele>
        <time>2015-12-13T08:16:52Z</time>
      </trkpt>
      <trkpt lat="50.78054" lon="3.77797">
        <ele>55</ele>
        <time>2015-12-13T08:16:54Z</time>
      </trkpt>
      <trkpt lat="50.78053" lon="3.77802">
        <ele>55</ele>
        <time>2015-12-13T08:16:56Z</time>
      </trkpt>
      <trkpt lat="50.78052" lon="3.77805">
        <ele>55</ele>
        <time>2015-12-13T08:16:57Z</time>
      </trkpt>
      <trkpt lat="50.78049" lon="3.77809">
        <ele>55</ele>
        <time>2015-12-13T08:16:59Z</time>
      </trkpt>
      <trkpt lat="50.78048" lon="3.77811">
        <ele>55</ele>
        <time>2015-12-13T08:17:00Z</time>
      </trkpt>
      <trkpt lat="50.78045" lon="3.77815">
        <ele>57</ele>
        <time>2015-12-13T08:17:02Z</time>
      </trkpt>
      <trkpt lat="50.78044" lon="3.77817">
        <ele>57</ele>
        <time>2015-12-13T08:17:03Z</time>
      </trkpt>
      <trkpt lat="50.78042" lon="3.77819">
        <ele>57</ele>
        <time>2015-12-13T08:17:05Z</time>
      </trkpt>
      <trkpt lat="50.7804" lon="3.77823">
        <ele>57</ele>
        <time>2015-12-13T08:17:08Z</time>
      </trkpt>
      <trkpt lat="50.78038" lon="3.77826">
        <ele>57</ele>
        <time>2015-12-13T08:17:10Z</time>
      </trkpt>
      <trkpt lat="50.78035" lon="3.77829">
        <ele>57.7</ele>
        <time>2015-12-13T08:17:12Z</time>
      </trkpt>
      <trkpt lat="50.78034" lon="3.77832">
        <ele>58</ele>
        <time>2015-12-13T08:17:14Z</time>
      </trkpt>
      <trkpt lat="50.78032" lon="3.77834">
        <ele>58</ele>
        <time>2015-12-13T08:17:16Z</time>
      </trkpt>
      <trkpt lat="50.7803" lon="3.77836">
        <ele>58</ele>
        <time>2015-12-13T08:17:18Z</time>
      </trkpt>
      <trkpt lat="50.78028" lon="3.7784">
        <ele>58</ele>
        <time>2015-12-13T08:17:20Z</time>
      </trkpt>
      <trkpt lat="50.78026" lon="3.77842">
        <ele>60</ele>
        <time>2015-12-13T08:17:22Z</time>
      </trkpt>
      <trkpt lat="50.78025" lon="3.77845">
        <ele>60</ele>
        <time>2015-12-13T08:17:24Z</time>
      </trkpt>
      <trkpt lat="50.78023" lon="3.77849">
        <ele>60</ele>
        <time>2015-12-13T08:17:26Z</time>
      </trkpt>
      <trkpt lat="50.78021" lon="3.77851">
        <ele>60</ele>
        <time>2015-12-13T08:17:28Z</time>
      </trkpt>
      <trkpt lat="50.78019" lon="3.77852">
        <ele>60</ele>
        <time>2015-12-13T08:17:30Z</time>
      </trkpt>
      <trkpt lat="50.78017" lon="3.77855">
        <ele>61</ele>
        <time>2015-12-13T08:17:32Z</time>
      </trkpt>
      <trkpt lat="50.78015" lon="3.77857">
        <ele>61</ele>
        <time>2015-12-13T08:17:34Z</time>
      </trkpt>
      <trkpt lat="50.78013" lon="3.7786">
        <ele>61</ele>
        <time>2015-12-13T08:17:36Z</time>
      </trkpt>
      <trkpt lat="50.7801" lon="3.77863">
        <ele>61</ele>
        <time>2015-12-13T08:17:38Z</time>
      </trkpt>
      <trkpt lat="50.78008" lon="3.77865">
        <ele>61</ele>
        <time>2015-12-13T08:17:40Z</time>
      </trkpt>
      <trkpt lat="50.78006" lon="3.77868">
        <ele>63</ele>
        <time>2015-12-13T08:17:42Z</time>
      </trkpt>
      <trkpt lat="50.78004" lon="3.77872">
        <ele>63</ele>
        <time>2015-12-13T08:17:44Z</time>
      </trkpt>
      <trkpt lat="50.78002" lon="3.77875">
        <ele>63</ele>
        <time>2015-12-13T08:17:46Z</time>
      </trkpt>
      <trkpt lat="50.78" lon="3.77878">
        <ele>63</ele>
        <time>2015-12-13T08:17:48Z</time>
      </trkpt>
      <trkpt lat="50.77998" lon="3.77881">
        <ele>63</ele>
        <time>2015-12-13T08:17:50Z</time>
      </trkpt>
      <trkpt lat="50.77996" lon="3.77884">
        <ele>63</ele>
        <time>2015-12-13T08:17:52Z</time>
      </trkpt>
      <trkpt lat="50.77994" lon="3.77887">
        <ele>63</ele>
        <time>2015-12-13T08:17:54Z</time>
      </trkpt>
      <trkpt lat="50.77993" lon="3.77889">
        <ele>63</ele>
        <time>2015-12-13T08:17:56Z</time>
      </trkpt>
      <trkpt lat="50.77992" lon="3.77892">
        <ele>63</ele>
        <time>2015-12-13T08:17:59Z</time>
      </trkpt>
      <trkpt lat="50.77991" lon="3.77894">
        <ele>64.4</ele>
        <time>2015-12-13T08:18:01Z</time>
      </trkpt>
      <trkpt lat="50.7799" lon="3.77898">
        <ele>65</ele>
        <time>2015-12-13T08:18:04Z</time>
      </trkpt>
      <trkpt lat="50.77989" lon="3.77901">
        <ele>65</ele>
        <time>2015-12-13T08:18:06Z</time>
      </trkpt>
      <trkpt lat="50.77988" lon="3.77904">
        <ele>65</ele>
        <time>2015-12-13T08:18:08Z</time>
      </trkpt>
      <trkpt lat="50.77986" lon="3.77907">
        <ele>65</ele>
        <time>2015-12-13T08:18:10Z</time>
      </trkpt>
      <trkpt lat="50.77985" lon="3.77911">
        <ele>66</ele>
        <time>2015-12-13T08:18:12Z</time>
      </trkpt>
      <trkpt lat="50.77984" lon="3.77913">
        <ele>66</ele>
        <time>2015-12-13T08:18:13Z</time>
      </trkpt>
      <trkpt lat="50.77982" lon="3.77917">
        <ele>66</ele>
        <time>2015-12-13T08:18:15Z</time>
      </trkpt>
      <trkpt lat="50.77979" lon="3.77921">
        <ele>66</ele>
        <time>2015-12-13T08:18:17Z</time>
      </trkpt>
      <trkpt lat="50.77978" lon="3.77925">
        <ele>66</ele>
        <time>2015-12-13T08:18:19Z</time>
      </trkpt>
      <trkpt lat="50.77977" lon="3.77929">
        <ele>66.7</ele>
        <time>2015-12-13T08:18:21Z</time>
      </trkpt>
      <trkpt lat="50.77975" lon="3.77934">
        <ele>67</ele>
        <time>2015-12-13T08:18:23Z</time>
      </trkpt>
      <trkpt lat="50.77974" lon="3.77938">
        <ele>67</ele>
        <time>2015-12-13T08:18:25Z</time>
      </trkpt>
      <trkpt lat="50.77972" lon="3.77942">
        <ele>67</ele>
        <time>2015-12-13T08:18:27Z</time>
      </trkpt>
      <trkpt lat="50.7797" lon="3.77946">
        <ele>67</ele>
        <time>2015-12-13T08:18:29Z</time>
      </trkpt>
      <trkpt lat="50.77969" lon="3.7795">
        <ele>68.4</ele>
        <time>2015-12-13T08:18:31Z</time>
      </trkpt>
      <trkpt lat="50.77968" lon="3.77954">
        <ele>69</ele>
        <time>2015-12-13T08:18:33Z</time>
      </trkpt>
      <trkpt lat="50.77966" lon="3.77957">
        <ele>69</ele>
        <time>2015-12-13T08:18:35Z</time>
      </trkpt>
      <trkpt lat="50.77965" lon="3.77961">
        <ele>69</ele>
        <time>2015-12-13T08:18:37Z</time>
      </trkpt>
      <trkpt lat="50.77963" lon="3.77963">
        <ele>69</ele>
        <time>2015-12-13T08:18:39Z</time>
      </trkpt>
      <trkpt lat="50.77962" lon="3.77967">
        <ele>69</ele>
        <time>2015-12-13T08:18:41Z</time>
      </trkpt>
      <trkpt lat="50.77961" lon="3.77971">
        <ele>69</ele>
        <time>2015-12-13T08:18:43Z</time>
      </trkpt>
      <trkpt lat="50.7796" lon="3.77975">
        <ele>69</ele>
        <time>2015-12-13T08:18:45Z</time>
      </trkpt>
      <trkpt lat="50.77958" lon="3.77978">
        <ele>69</ele>
        <time>2015-12-13T08:18:47Z</time>
      </trkpt>
      <trkpt lat="50.77958" lon="3.77981">
        <ele>69</ele>
        <time>2015-12-13T08:18:48Z</time>
      </trkpt>
      <trkpt lat="50.77956" lon="3.77984">
        <ele>69</ele>
        <time>2015-12-13T08:18:50Z</time>
      </trkpt>
      <trkpt lat="50.77955" lon="3.77988">
        <ele>70</ele>
        <time>2015-12-13T08:18:52Z</time>
      </trkpt>
      <trkpt lat="50.77953" lon="3.77991">
        <ele>70</ele>
        <time>2015-12-13T08:18:54Z</time>
      </trkpt>
      <trkpt lat="50.77952" lon="3.77995">
        <ele>70</ele>
        <time>2015-12-13T08:18:56Z</time>
      </trkpt>
      <trkpt lat="50.77951" lon="3.77999">
        <ele>70</ele>
        <time>2015-12-13T08:18:58Z</time>
      </trkpt>
      <trkpt lat="50.77949" lon="3.78003">
        <ele>70</ele>
        <time>2015-12-13T08:19:00Z</time>
      </trkpt>
      <trkpt lat="50.77948" lon="3.78008">
        <ele>71</ele>
        <time>2015-12-13T08:19:02Z</time>
      </trkpt>
      <trkpt lat="50.77947" lon="3.78012">
        <ele>71</ele>
        <time>2015-12-13T08:19:04Z</time>
      </trkpt>
      <trkpt lat="50.77945" lon="3.78015">
        <ele>71</ele>
        <time>2015-12-13T08:19:06Z</time>
      </trkpt>
      <trkpt lat="50.77944" lon="3.78018">
        <ele>71</ele>
        <time>2015-12-13T08:19:08Z</time>
      </trkpt>
      <trkpt lat="50.77943" lon="3.78021">
        <ele>71</ele>
        <time>2015-12-13T08:19:10Z</time>
      </trkpt>
      <trkpt lat="50.77942" lon="3.78024">
        <ele>72</ele>
        <time>2015-12-13T08:19:12Z</time>
      </trkpt>
      <trkpt lat="50.77942" lon="3.78028">
        <ele>72</ele>
        <time>2015-12-13T08:19:14Z</time>
      </trkpt>
      <trkpt lat="50.77943" lon="3.78032">
        <ele>72</ele>
        <time>2015-12-13T08:19:16Z</time>
      </trkpt>
      <trkpt lat="50.77943" lon="3.78037">
        <ele>72</ele>
        <time>2015-12-13T08:19:18Z</time>
      </trkpt>
      <trkpt lat="50.77944" lon="3.78041">
        <ele>72</ele>
        <time>2015-12-13T08:19:20Z</time>
      </trkpt>
      <trkpt lat="50.77945" lon="3.78044">
        <ele>74</ele>
        <time>2015-12-13T08:19:22Z</time>
      </trkpt>
      <trkpt lat="50.77946" lon="3.78049">
        <ele>74</ele>
        <time>2015-12-13T08:19:24Z</time>
      </trkpt>
      <trkpt lat="50.77946" lon="3.78053">
        <ele>74</ele>
        <time>2015-12-13T08:19:26Z</time>
      </trkpt>
      <trkpt lat="50.77947" lon="3.78058">
        <ele>74</ele>
        <time>2015-12-13T08:19:28Z</time>
      </trkpt>
      <trkpt lat="50.77948" lon="3.78062">
        <ele>74</ele>
        <time>2015-12-13T08:19:30Z</time>
      </trkpt>
      <trkpt lat="50.77949" lon="3.78066">
        <ele>75</ele>
        <time>2015-12-13T08:19:32Z</time>
      </trkpt>
      <trkpt lat="50.7795" lon="3.78069">
        <ele>75</ele>
        <time>2015-12-13T08:19:34Z</time>
      </trkpt>
      <trkpt lat="50.77952" lon="3.78073">
        <ele>75</ele>
        <time>2015-12-13T08:19:36Z</time>
      </trkpt>
      <trkpt lat="50.77953" lon="3.78076">
        <ele>75</ele>
        <time>2015-12-13T08:19:38Z</time>
      </trkpt>
      <trkpt lat="50.77954" lon="3.7808">
        <ele>75</ele>
        <time>2015-12-13T08:19:40Z</time>
      </trkpt>
      <trkpt lat="50.77954" lon="3.78084">
        <ele>75</ele>
        <time>2015-12-13T08:19:42Z</time>
      </trkpt>
      <trkpt lat="50.77955" lon="3.78088">
        <ele>75</ele>
        <time>2015-12-13T08:19:44Z</time>
      </trkpt>
      <trkpt lat="50.77954" lon="3.78091">
        <ele>75</ele>
        <time>2015-12-13T08:19:46Z</time>
      </trkpt>
      <trkpt lat="50.77955" lon="3.78095">
        <ele>75</ele>
        <time>2015-12-13T08:19:48Z</time>
      </trkpt>
      <trkpt lat="50.77956" lon="3.78099">
        <ele>75</ele>
        <time>2015-12-13T08:19:50Z</time>
      </trkpt>
      <trkpt lat="50.77957" lon="3.78103">
        <ele>76</ele>
        <time>2015-12-13T08:19:52Z</time>
      </trkpt>
      <trkpt lat="50.77957" lon="3.78107">
        <ele>76</ele>
        <time>2015-12-13T08:19:54Z</time>
      </trkpt>
      <trkpt lat="50.77958" lon="3.78111">
        <ele>76</ele>
        <time>2015-12-13T08:19:56Z</time>
      </trkpt>
      <trkpt lat="50.77959" lon="3.78114">
        <ele>76</ele>
        <time>2015-12-13T08:19:58Z</time>
      </trkpt>
      <trkpt lat="50.7796" lon="3.78118">
        <ele>76</ele>
        <time>2015-12-13T08:20:00Z</time>
      </trkpt>
      <trkpt lat="50.7796" lon="3.78122">
        <ele>77</ele>
        <time>2015-12-13T08:20:02Z</time>
      </trkpt>
      <trkpt lat="50.77961" lon="3.78127">
        <ele>77</ele>
        <time>2015-12-13T08:20:04Z</time>
      </trkpt>
      <trkpt lat="50.77961" lon="3.78132">
        <ele>77</ele>
        <time>2015-12-13T08:20:06Z</time>
      </trkpt>
      <trkpt lat="50.7796" lon="3.78137">
        <ele>77</ele>
        <time>2015-12-13T08:20:08Z</time>
      </trkpt>
      <trkpt lat="50.77959" lon="3.78142">
        <ele>77</ele>
        <time>2015-12-13T08:20:10Z</time>
      </trkpt>
      <trkpt lat="50.77958" lon="3.78146">
        <ele>78</ele>
        <time>2015-12-13T08:20:12Z</time>
      </trkpt>
      <trkpt lat="50.77957" lon="3.7815">
        <ele>78</ele>
        <time>2015-12-13T08:20:14Z</time>
      </trkpt>
      <trkpt lat="50.77956" lon="3.78154">
        <ele>78</ele>
        <time>2015-12-13T08:20:16Z</time>
      </trkpt>
      <trkpt lat="50.77955" lon="3.78158">
        <ele>78</ele>
        <time>2015-12-13T08:20:18Z</time>
      </trkpt>
      <trkpt lat="50.77953" lon="3.78162">
        <ele>78</ele>
        <time>2015-12-13T08:20:20Z</time>
      </trkpt>
      <trkpt lat="50.77952" lon="3.78164">
        <ele>78</ele>
        <time>2015-12-13T08:20:23Z</time>
      </trkpt>
      <trkpt lat="50.77951" lon="3.78167">
        <ele>78</ele>
        <time>2015-12-13T08:20:26Z</time>
      </trkpt>
      <trkpt lat="50.7795" lon="3.7817">
        <ele>78</ele>
        <time>2015-12-13T08:20:28Z</time>
      </trkpt>
      <trkpt lat="50.77949" lon="3.78172">
        <ele>78</ele>
        <time>2015-12-13T08:20:30Z</time>
      </trkpt>
      <trkpt lat="50.77947" lon="3.78175">
        <ele>79</ele>
        <time>2015-12-13T08:20:32Z</time>
      </trkpt>
      <trkpt lat="50.77945" lon="3.78178">
        <ele>79</ele>
        <time>2015-12-13T08:20:34Z</time>
      </trkpt>
      <trkpt lat="50.77944" lon="3.7818">
        <ele>79</ele>
        <time>2015-12-13T08:20:36Z</time>
      </trkpt>
      <trkpt lat="50.77942" lon="3.78182">
        <ele>79</ele>
        <time>2015-12-13T08:20:38Z</time>
      </trkpt>
      <trkpt lat="50.7794" lon="3.78185">
        <ele>79</ele>
        <time>2015-12-13T08:20:40Z</time>
      </trkpt>
      <trkpt lat="50.77938" lon="3.78187">
        <ele>80</ele>
        <time>2015-12-13T08:20:42Z</time>
      </trkpt>
      <trkpt lat="50.77936" lon="3.78189">
        <ele>80</ele>
        <time>2015-12-13T08:20:44Z</time>
      </trkpt>
      <trkpt lat="50.77934" lon="3.78191">
        <ele>80</ele>
        <time>2015-12-13T08:20:46Z</time>
      </trkpt>
      <trkpt lat="50.77932" lon="3.78193">
        <ele>80</ele>
        <time>2015-12-13T08:20:48Z</time>
      </trkpt>
      <trkpt lat="50.7793" lon="3.78195">
        <ele>80</ele>
        <time>2015-12-13T08:20:50Z</time>
      </trkpt>
      <trkpt lat="50.77928" lon="3.78197">
        <ele>81</ele>
        <time>2015-12-13T08:20:52Z</time>
      </trkpt>
      <trkpt lat="50.77925" lon="3.78199">
        <ele>81</ele>
        <time>2015-12-13T08:20:54Z</time>
      </trkpt>
      <trkpt lat="50.77923" lon="3.78202">
        <ele>81</ele>
        <time>2015-12-13T08:20:56Z</time>
      </trkpt>
      <trkpt lat="50.77921" lon="3.78204">
        <ele>81</ele>
        <time>2015-12-13T08:20:58Z</time>
      </trkpt>
      <trkpt lat="50.7792" lon="3.78206">
        <ele>81</ele>
        <time>2015-12-13T08:21:00Z</time>
      </trkpt>
      <trkpt lat="50.77917" lon="3.78208">
        <ele>80</ele>
        <time>2015-12-13T08:21:05Z</time>
      </trkpt>
      <trkpt lat="50.77916" lon="3.78211">
        <ele>80</ele>
        <time>2015-12-13T08:21:07Z</time>
      </trkpt>
      <trkpt lat="50.77914" lon="3.78214">
        <ele>80</ele>
        <time>2015-12-13T08:21:09Z</time>
      </trkpt>
      <trkpt lat="50.77913" lon="3.78217">
        <ele>80</ele>
        <time>2015-12-13T08:21:11Z</time>
      </trkpt>
      <trkpt lat="50.77911" lon="3.7822">
        <ele>80</ele>
        <time>2015-12-13T08:21:13Z</time>
      </trkpt>
      <trkpt lat="50.7791" lon="3.78224">
        <ele>80</ele>
        <time>2015-12-13T08:21:15Z</time>
      </trkpt>
      <trkpt lat="50.77909" lon="3.78227">
        <ele>80</ele>
        <time>2015-12-13T08:21:17Z</time>
      </trkpt>
      <trkpt lat="50.77908" lon="3.7823">
        <ele>80</ele>
        <time>2015-12-13T08:21:19Z</time>
      </trkpt>
      <trkpt lat="50.77906" lon="3.78233">
        <ele>80.7</ele>
        <time>2015-12-13T08:21:21Z</time>
      </trkpt>
      <trkpt lat="50.77905" lon="3.78237">
        <ele>81</ele>
        <time>2015-12-13T08:21:23Z</time>
      </trkpt>
      <trkpt lat="50.77903" lon="3.78241">
        <ele>81</ele>
        <time>2015-12-13T08:21:25Z</time>
      </trkpt>
      <trkpt lat="50.77902" lon="3.78244">
        <ele>81</ele>
        <time>2015-12-13T08:21:27Z</time>
      </trkpt>
      <trkpt lat="50.77901" lon="3.78247">
        <ele>81</ele>
        <time>2015-12-13T08:21:29Z</time>
      </trkpt>
      <trkpt lat="50.77899" lon="3.78251">
        <ele>81.7</ele>
        <time>2015-12-13T08:21:31Z</time>
      </trkpt>
      <trkpt lat="50.77898" lon="3.78255">
        <ele>82</ele>
        <time>2015-12-13T08:21:33Z</time>
      </trkpt>
      <trkpt lat="50.77897" lon="3.78259">
        <ele>82</ele>
        <time>2015-12-13T08:21:35Z</time>
      </trkpt>
      <trkpt lat="50.77896" lon="3.78262">
        <ele>82</ele>
        <time>2015-12-13T08:21:37Z</time>
      </trkpt>
      <trkpt lat="50.77894" lon="3.78266">
        <ele>82</ele>
        <time>2015-12-13T08:21:39Z</time>
      </trkpt>
      <trkpt lat="50.77893" lon="3.7827">
        <ele>82.7</ele>
        <time>2015-12-13T08:21:41Z</time>
      </trkpt>
      <trkpt lat="50.77892" lon="3.78273">
        <ele>83</ele>
        <time>2015-12-13T08:21:43Z</time>
      </trkpt>
      <trkpt lat="50.77891" lon="3.78277">
        <ele>82</ele>
        <time>2015-12-13T08:21:45Z</time>
      </trkpt>
      <trkpt lat="50.7789" lon="3.78281">
        <ele>82</ele>
        <time>2015-12-13T08:21:47Z</time>
      </trkpt>
      <trkpt lat="50.77889" lon="3.78285">
        <ele>82</ele>
        <time>2015-12-13T08:21:49Z</time>
      </trkpt>
      <trkpt lat="50.77888" lon="3.78289">
        <ele>82</ele>
        <time>2015-12-13T08:21:51Z</time>
      </trkpt>
      <trkpt lat="50.77887" lon="3.78293">
        <ele>82</ele>
        <time>2015-12-13T08:21:53Z</time>
      </trkpt>
      <trkpt lat="50.77887" lon="3.78296">
        <ele>82</ele>
        <time>2015-12-13T08:21:55Z</time>
      </trkpt>
      <trkpt lat="50.77886" lon="3.78301">
        <ele>82</ele>
        <time>2015-12-13T08:21:57Z</time>
      </trkpt>
      <trkpt lat="50.77885" lon="3.78305">
        <ele>82</ele>
        <time>2015-12-13T08:21:59Z</time>
      </trkpt>
      <trkpt lat="50.77884" lon="3.78309">
        <ele>82</ele>
        <time>2015-12-13T08:22:01Z</time>
      </trkpt>
      <trkpt lat="50.77884" lon="3.78313">
        <ele>81.3</ele>
        <time>2015-12-13T08:22:03Z</time>
      </trkpt>
      <trkpt lat="50.77883" lon="3.78317">
        <ele>81</ele>
        <time>2015-12-13T08:22:05Z</time>
      </trkpt>
      <trkpt lat="50.77883" lon="3.78321">
        <ele>81</ele>
        <time>2015-12-13T08:22:07Z</time>
      </trkpt>
      <trkpt lat="50.77882" lon="3.78324">
        <ele>81</ele>
        <time>2015-12-13T08:22:09Z</time>
      </trkpt>
      <trkpt lat="50.77881" lon="3.78328">
        <ele>81</ele>
        <time>2015-12-13T08:22:11Z</time>
      </trkpt>
      <trkpt lat="50.77881" lon="3.78332">
        <ele>81</ele>
        <time>2015-12-13T08:22:13Z</time>
      </trkpt>
      <trkpt lat="50.7788" lon="3.78335">
        <ele>81</ele>
        <time>2015-12-13T08:22:15Z</time>
      </trkpt>
      <trkpt lat="50.77879" lon="3.78339">
        <ele>81</ele>
        <time>2015-12-13T08:22:17Z</time>
      </trkpt>
      <trkpt lat="50.7788" lon="3.78342">
        <ele>81</ele>
        <time>2015-12-13T08:22:19Z</time>
      </trkpt>
      <trkpt lat="50.77879" lon="3.78347">
        <ele>81</ele>
        <time>2015-12-13T08:22:21Z</time>
      </trkpt>
      <trkpt lat="50.77878" lon="3.7835">
        <ele>81</ele>
        <time>2015-12-13T08:22:22Z</time>
      </trkpt>
      <trkpt lat="50.77878" lon="3.78354">
        <ele>81</ele>
        <time>2015-12-13T08:22:23Z</time>
      </trkpt>
      <trkpt lat="50.77877" lon="3.78357">
        <ele>81</ele>
        <time>2015-12-13T08:22:24Z</time>
      </trkpt>
      <trkpt lat="50.77876" lon="3.7836">
        <ele>81</ele>
        <time>2015-12-13T08:22:25Z</time>
      </trkpt>
      <trkpt lat="50.77875" lon="3.78363">
        <ele>81</ele>
        <time>2015-12-13T08:22:26Z</time>
      </trkpt>
      <trkpt lat="50.77875" lon="3.78367">
        <ele>81</ele>
        <time>2015-12-13T08:22:27Z</time>
      </trkpt>
      <trkpt lat="50.77874" lon="3.7837">
        <ele>81</ele>
        <time>2015-12-13T08:22:28Z</time>
      </trkpt>
      <trkpt lat="50.77873" lon="3.78373">
        <ele>81</ele>
        <time>2015-12-13T08:22:29Z</time>
      </trkpt>
      <trkpt lat="50.77872" lon="3.78375">
        <ele>81</ele>
        <time>2015-12-13T08:22:30Z</time>
      </trkpt>
      <trkpt lat="50.77871" lon="3.78378">
        <ele>81</ele>
        <time>2015-12-13T08:22:31Z</time>
      </trkpt>
      <trkpt lat="50.7787" lon="3.78381">
        <ele>81</ele>
        <time>2015-12-13T08:22:32Z</time>
      </trkpt>
      <trkpt lat="50.77869" lon="3.78384">
        <ele>81</ele>
        <time>2015-12-13T08:22:33Z</time>
      </trkpt>
      <trkpt lat="50.77868" lon="3.78386">
        <ele>81</ele>
        <time>2015-12-13T08:22:34Z</time>
      </trkpt>
      <trkpt lat="50.77867" lon="3.78389">
        <ele>81</ele>
        <time>2015-12-13T08:22:35Z</time>
      </trkpt>
      <trkpt lat="50.77866" lon="3.78392">
        <ele>81</ele>
        <time>2015-12-13T08:22:36Z</time>
      </trkpt>
      <trkpt lat="50.77866" lon="3.78395">
        <ele>81</ele>
        <time>2015-12-13T08:22:37Z</time>
      </trkpt>
      <trkpt lat="50.77865" lon="3.78397">
        <ele>81</ele>
        <time>2015-12-13T08:22:38Z</time>
      </trkpt>
      <trkpt lat="50.77863" lon="3.784">
        <ele>81</ele>
        <time>2015-12-13T08:22:39Z</time>
      </trkpt>
      <trkpt lat="50.77862" lon="3.78404">
        <ele>81</ele>
        <time>2015-12-13T08:22:41Z</time>
      </trkpt>
      <trkpt lat="50.7786" lon="3.78407">
        <ele>81</ele>
        <time>2015-12-13T08:22:42Z</time>
      </trkpt>
      <trkpt lat="50.77859" lon="3.7841">
        <ele>81</ele>
        <time>2015-12-13T08:22:43Z</time>
      </trkpt>
      <trkpt lat="50.77858" lon="3.78413">
        <ele>81</ele>
        <time>2015-12-13T08:22:44Z</time>
      </trkpt>
      <trkpt lat="50.77857" lon="3.78416">
        <ele>81</ele>
        <time>2015-12-13T08:22:45Z</time>
      </trkpt>
      <trkpt lat="50.77856" lon="3.78419">
        <ele>81</ele>
        <time>2015-12-13T08:22:46Z</time>
      </trkpt>
      <trkpt lat="50.77854" lon="3.78421">
        <ele>81</ele>
        <time>2015-12-13T08:22:47Z</time>
      </trkpt>
      <trkpt lat="50.77853" lon="3.78425">
        <ele>81</ele>
        <time>2015-12-13T08:22:48Z</time>
      </trkpt>
      <trkpt lat="50.77852" lon="3.78428">
        <ele>81</ele>
        <time>2015-12-13T08:22:49Z</time>
      </trkpt>
      <trkpt lat="50.7785" lon="3.78432">
        <ele>81</ele>
        <time>2015-12-13T08:22:50Z</time>
      </trkpt>
      <trkpt lat="50.77849" lon="3.78435">
        <ele>81</ele>
        <time>2015-12-13T08:22:51Z</time>
      </trkpt>
      <trkpt lat="50.77848" lon="3.78439">
        <ele>81</ele>
        <time>2015-12-13T08:22:52Z</time>
      </trkpt>
      <trkpt lat="50.77846" lon="3.78442">
        <ele>81</ele>
        <time>2015-12-13T08:22:53Z</time>
      </trkpt>
      <trkpt lat="50.77845" lon="3.78445">
        <ele>81</ele>
        <time>2015-12-13T08:22:54Z</time>
      </trkpt>
      <trkpt lat="50.77845" lon="3.78448">
        <ele>81</ele>
        <time>2015-12-13T08:22:55Z</time>
      </trkpt>
      <trkpt lat="50.77845" lon="3.78451">
        <ele>81</ele>
        <time>2015-12-13T08:22:56Z</time>
      </trkpt>
      <trkpt lat="50.77846" lon="3.78454">
        <ele>81</ele>
        <time>2015-12-13T08:22:57Z</time>
      </trkpt>
      <trkpt lat="50.77848" lon="3.78456">
        <ele>81</ele>
        <time>2015-12-13T08:22:58Z</time>
      </trkpt>
      <trkpt lat="50.77849" lon="3.78458">
        <ele>81</ele>
        <time>2015-12-13T08:22:59Z</time>
      </trkpt>
      <trkpt lat="50.77851" lon="3.78459">
        <ele>81</ele>
        <time>2015-12-13T08:23:00Z</time>
      </trkpt>
      <trkpt lat="50.77853" lon="3.7846">
        <ele>81</ele>
        <time>2015-12-13T08:23:01Z</time>
      </trkpt>
      <trkpt lat="50.77856" lon="3.78461">
        <ele>81</ele>
        <time>2015-12-13T08:23:02Z</time>
      </trkpt>
      <trkpt lat="50.77858" lon="3.78463">
        <ele>81</ele>
        <time>2015-12-13T08:23:03Z</time>
      </trkpt>
      <trkpt lat="50.7786" lon="3.78464">
        <ele>81</ele>
        <time>2015-12-13T08:23:04Z</time>
      </trkpt>
      <trkpt lat="50.77862" lon="3.78465">
        <ele>81</ele>
        <time>2015-12-13T08:23:05Z</time>
      </trkpt>
      <trkpt lat="50.77864" lon="3.78466">
        <ele>81</ele>
        <time>2015-12-13T08:23:06Z</time>
      </trkpt>
      <trkpt lat="50.77866" lon="3.78467">
        <ele>81</ele>
        <time>2015-12-13T08:23:07Z</time>
      </trkpt>
      <trkpt lat="50.77869" lon="3.78468">
        <ele>81</ele>
        <time>2015-12-13T08:23:08Z</time>
      </trkpt>
      <trkpt lat="50.77871" lon="3.78469">
        <ele>81</ele>
        <time>2015-12-13T08:23:09Z</time>
      </trkpt>
      <trkpt lat="50.77873" lon="3.78469">
        <ele>81</ele>
        <time>2015-12-13T08:23:10Z</time>
      </trkpt>
      <trkpt lat="50.77875" lon="3.7847">
        <ele>79.9</ele>
        <time>2015-12-13T08:23:11Z</time>
      </trkpt>
      <trkpt lat="50.77877" lon="3.78471">
        <ele>79</ele>
        <time>2015-12-13T08:23:12Z</time>
      </trkpt>
      <trkpt lat="50.7788" lon="3.78472">
        <ele>79</ele>
        <time>2015-12-13T08:23:13Z</time>
      </trkpt>
      <trkpt lat="50.77882" lon="3.78472">
        <ele>79</ele>
        <time>2015-12-13T08:23:14Z</time>
      </trkpt>
      <trkpt lat="50.77884" lon="3.78473">
        <ele>79</ele>
        <time>2015-12-13T08:23:15Z</time>
      </trkpt>
      <trkpt lat="50.77886" lon="3.78473">
        <ele>79</ele>
        <time>2015-12-13T08:23:16Z</time>
      </trkpt>
      <trkpt lat="50.77888" lon="3.78473">
        <ele>79</ele>
        <time>2015-12-13T08:23:17Z</time>
      </trkpt>
      <trkpt lat="50.7789" lon="3.78473">
        <ele>79</ele>
        <time>2015-12-13T08:23:18Z</time>
      </trkpt>
      <trkpt lat="50.77892" lon="3.78474">
        <ele>79</ele>
        <time>2015-12-13T08:23:19Z</time>
      </trkpt>
      <trkpt lat="50.77895" lon="3.78474">
        <ele>79</ele>
        <time>2015-12-13T08:23:20Z</time>
      </trkpt>
      <trkpt lat="50.77897" lon="3.78474">
        <ele>77.6</ele>
        <time>2015-12-13T08:23:21Z</time>
      </trkpt>
      <trkpt lat="50.77899" lon="3.78475">
        <ele>77</ele>
        <time>2015-12-13T08:23:22Z</time>
      </trkpt>
      <trkpt lat="50.77901" lon="3.78475">
        <ele>77</ele>
        <time>2015-12-13T08:23:23Z</time>
      </trkpt>
      <trkpt lat="50.77904" lon="3.78475">
        <ele>77</ele>
        <time>2015-12-13T08:23:24Z</time>
      </trkpt>
      <trkpt lat="50.77906" lon="3.78476">
        <ele>77</ele>
        <time>2015-12-13T08:23:25Z</time>
      </trkpt>
      <trkpt lat="50.77908" lon="3.78477">
        <ele>77</ele>
        <time>2015-12-13T08:23:26Z</time>
      </trkpt>
      <trkpt lat="50.7791" lon="3.78477">
        <ele>77</ele>
        <time>2015-12-13T08:23:27Z</time>
      </trkpt>
      <trkpt lat="50.77913" lon="3.78477">
        <ele>77</ele>
        <time>2015-12-13T08:23:28Z</time>
      </trkpt>
      <trkpt lat="50.77915" lon="3.78478">
        <ele>77</ele>
        <time>2015-12-13T08:23:29Z</time>
      </trkpt>
      <trkpt lat="50.77917" lon="3.78478">
        <ele>77</ele>
        <time>2015-12-13T08:23:30Z</time>
      </trkpt>
      <trkpt lat="50.7792" lon="3.78478">
        <ele>75.9</ele>
        <time>2015-12-13T08:23:31Z</time>
      </trkpt>
      <trkpt lat="50.77922" lon="3.78478">
        <ele>75</ele>
        <time>2015-12-13T08:23:32Z</time>
      </trkpt>
      <trkpt lat="50.77925" lon="3.78479">
        <ele>75</ele>
        <time>2015-12-13T08:23:33Z</time>
      </trkpt>
      <trkpt lat="50.77927" lon="3.78479">
        <ele>75</ele>
        <time>2015-12-13T08:23:34Z</time>
      </trkpt>
      <trkpt lat="50.7793" lon="3.78479">
        <ele>75</ele>
        <time>2015-12-13T08:23:35Z</time>
      </trkpt>
      <trkpt lat="50.77932" lon="3.78479">
        <ele>74.3</ele>
        <time>2015-12-13T08:23:36Z</time>
      </trkpt>
      <trkpt lat="50.77935" lon="3.78479">
        <ele>74</ele>
        <time>2015-12-13T08:23:37Z</time>
      </trkpt>
      <trkpt lat="50.77938" lon="3.7848">
        <ele>74</ele>
        <time>2015-12-13T08:23:38Z</time>
      </trkpt>
      <trkpt lat="50.7794" lon="3.7848">
        <ele>74</ele>
        <time>2015-12-13T08:23:39Z</time>
      </trkpt>
      <trkpt lat="50.77943" lon="3.7848">
        <ele>74</ele>
        <time>2015-12-13T08:23:40Z</time>
      </trkpt>
      <trkpt lat="50.77945" lon="3.7848">
        <ele>73.3</ele>
        <time>2015-12-13T08:23:41Z</time>
      </trkpt>
      <trkpt lat="50.77947" lon="3.7848">
        <ele>73</ele>
        <time>2015-12-13T08:23:42Z</time>
      </trkpt>
      <trkpt lat="50.7795" lon="3.7848">
        <ele>73</ele>
        <time>2015-12-13T08:23:43Z</time>
      </trkpt>
      <trkpt lat="50.77952" lon="3.7848">
        <ele>73</ele>
        <time>2015-12-13T08:23:44Z</time>
      </trkpt>
      <trkpt lat="50.77955" lon="3.7848">
        <ele>73</ele>
        <time>2015-12-13T08:23:45Z</time>
      </trkpt>
      <trkpt lat="50.77957" lon="3.7848">
        <ele>73</ele>
        <time>2015-12-13T08:23:46Z</time>
      </trkpt>
      <trkpt lat="50.77959" lon="3.7848">
        <ele>73</ele>
        <time>2015-12-13T08:23:47Z</time>
      </trkpt>
      <trkpt lat="50.77962" lon="3.7848">
        <ele>73</ele>
        <time>2015-12-13T08:23:48Z</time>
      </trkpt>
      <trkpt lat="50.77964" lon="3.7848">
        <ele>73</ele>
        <time>2015-12-13T08:23:49Z</time>
      </trkpt>
      <trkpt lat="50.77967" lon="3.7848">
        <ele>73</ele>
        <time>2015-12-13T08:23:50Z</time>
      </trkpt>
      <trkpt lat="50.77969" lon="3.7848">
        <ele>72.5</ele>
        <time>2015-12-13T08:23:51Z</time>
      </trkpt>
      <trkpt lat="50.77972" lon="3.7848">
        <ele>72</ele>
        <time>2015-12-13T08:23:52Z</time>
      </trkpt>
      <trkpt lat="50.77974" lon="3.7848">
        <ele>72</ele>
        <time>2015-12-13T08:23:53Z</time>
      </trkpt>
      <trkpt lat="50.77976" lon="3.7848">
        <ele>72</ele>
        <time>2015-12-13T08:23:54Z</time>
      </trkpt>
      <trkpt lat="50.77979" lon="3.78479">
        <ele>72</ele>
        <time>2015-12-13T08:23:55Z</time>
      </trkpt>
      <trkpt lat="50.77981" lon="3.78479">
        <ele>72</ele>
        <time>2015-12-13T08:23:56Z</time>
      </trkpt>
      <trkpt lat="50.77983" lon="3.78479">
        <ele>72</ele>
        <time>2015-12-13T08:23:57Z</time>
      </trkpt>
      <trkpt lat="50.77986" lon="3.78478">
        <ele>72</ele>
        <time>2015-12-13T08:23:58Z</time>
      </trkpt>
      <trkpt lat="50.77988" lon="3.78478">
        <ele>72</ele>
        <time>2015-12-13T08:23:59Z</time>
      </trkpt>
      <trkpt lat="50.7799" lon="3.78478">
        <ele>72</ele>
        <time>2015-12-13T08:24:00Z</time>
      </trkpt>
      <trkpt lat="50.77993" lon="3.78477">
        <ele>70</ele>
        <time>2015-12-13T08:24:01Z</time>
      </trkpt>
      <trkpt lat="50.77995" lon="3.78477">
        <ele>69</ele>
        <time>2015-12-13T08:24:02Z</time>
      </trkpt>
      <trkpt lat="50.77997" lon="3.78477">
        <ele>69</ele>
        <time>2015-12-13T08:24:03Z</time>
      </trkpt>
      <trkpt lat="50.78" lon="3.78476">
        <ele>69</ele>
        <time>2015-12-13T08:24:04Z</time>
      </trkpt>
      <trkpt lat="50.78002" lon="3.78476">
        <ele>69</ele>
        <time>2015-12-13T08:24:05Z</time>
      </trkpt>
      <trkpt lat="50.78004" lon="3.78476">
        <ele>69</ele>
        <time>2015-12-13T08:24:06Z</time>
      </trkpt>
      <trkpt lat="50.78007" lon="3.78476">
        <ele>69</ele>
        <time>2015-12-13T08:24:07Z</time>
      </trkpt>
      <trkpt lat="50.78009" lon="3.78476">
        <ele>69</ele>
        <time>2015-12-13T08:24:08Z</time>
      </trkpt>
      <trkpt lat="50.78012" lon="3.78476">
        <ele>69</ele>
        <time>2015-12-13T08:24:09Z</time>
      </trkpt>
      <trkpt lat="50.78014" lon="3.78476">
        <ele>69</ele>
        <time>2015-12-13T08:24:10Z</time>
      </trkpt>
      <trkpt lat="50.78016" lon="3.78476">
        <ele>68.5</ele>
        <time>2015-12-13T08:24:11Z</time>
      </trkpt>
      <trkpt lat="50.78019" lon="3.78476">
        <ele>68.5</ele>
        <time>2015-12-13T08:24:12Z</time>
      </trkpt>
      <trkpt lat="50.78021" lon="3.78476">
        <ele>69</ele>
        <time>2015-12-13T08:24:13Z</time>
      </trkpt>
      <trkpt lat="50.78023" lon="3.78475">
        <ele>69</ele>
        <time>2015-12-13T08:24:14Z</time>
      </trkpt>
      <trkpt lat="50.78026" lon="3.78474">
        <ele>69</ele>
        <time>2015-12-13T08:24:15Z</time>
      </trkpt>
      <trkpt lat="50.78028" lon="3.78474">
        <ele>69</ele>
        <time>2015-12-13T08:24:16Z</time>
      </trkpt>
      <trkpt lat="50.78031" lon="3.78473">
        <ele>69</ele>
        <time>2015-12-13T08:24:17Z</time>
      </trkpt>
      <trkpt lat="50.78033" lon="3.78473">
        <ele>69</ele>
        <time>2015-12-13T08:24:18Z</time>
      </trkpt>
      <trkpt lat="50.78036" lon="3.78473">
        <ele>69</ele>
        <time>2015-12-13T08:24:19Z</time>
      </trkpt>
      <trkpt lat="50.78038" lon="3.78473">
        <ele>69</ele>
        <time>2015-12-13T08:24:20Z</time>
      </trkpt>
      <trkpt lat="50.78041" lon="3.78473">
        <ele>67.6</ele>
        <time>2015-12-13T08:24:21Z</time>
      </trkpt>
      <trkpt lat="50.78043" lon="3.78473">
        <ele>67</ele>
        <time>2015-12-13T08:24:22Z</time>
      </trkpt>
      <trkpt lat="50.78046" lon="3.78473">
        <ele>67</ele>
        <time>2015-12-13T08:24:23Z</time>
      </trkpt>
      <trkpt lat="50.78048" lon="3.78473">
        <ele>67</ele>
        <time>2015-12-13T08:24:24Z</time>
      </trkpt>
      <trkpt lat="50.78051" lon="3.78474">
        <ele>67</ele>
        <time>2015-12-13T08:24:25Z</time>
      </trkpt>
      <trkpt lat="50.78054" lon="3.78474">
        <ele>67</ele>
        <time>2015-12-13T08:24:26Z</time>
      </trkpt>
      <trkpt lat="50.78056" lon="3.78475">
        <ele>67</ele>
        <time>2015-12-13T08:24:27Z</time>
      </trkpt>
      <trkpt lat="50.78058" lon="3.78475">
        <ele>67</ele>
        <time>2015-12-13T08:24:28Z</time>
      </trkpt>
      <trkpt lat="50.78061" lon="3.78476">
        <ele>67</ele>
        <time>2015-12-13T08:24:29Z</time>
      </trkpt>
      <trkpt lat="50.78063" lon="3.78477">
        <ele>67</ele>
        <time>2015-12-13T08:24:30Z</time>
      </trkpt>
      <trkpt lat="50.78066" lon="3.78478">
        <ele>66.3</ele>
        <time>2015-12-13T08:24:31Z</time>
      </trkpt>
      <trkpt lat="50.78068" lon="3.78479">
        <ele>66</ele>
        <time>2015-12-13T08:24:32Z</time>
      </trkpt>
      <trkpt lat="50.7807" lon="3.7848">
        <ele>66</ele>
        <time>2015-12-13T08:24:33Z</time>
      </trkpt>
      <trkpt lat="50.78073" lon="3.7848">
        <ele>66</ele>
        <time>2015-12-13T08:24:34Z</time>
      </trkpt>
      <trkpt lat="50.78075" lon="3.78481">
        <ele>66</ele>
        <time>2015-12-13T08:24:35Z</time>
      </trkpt>
      <trkpt lat="50.78077" lon="3.78482">
        <ele>66</ele>
        <time>2015-12-13T08:24:36Z</time>
      </trkpt>
      <trkpt lat="50.7808" lon="3.78483">
        <ele>66</ele>
        <time>2015-12-13T08:24:37Z</time>
      </trkpt>
      <trkpt lat="50.78082" lon="3.78484">
        <ele>66</ele>
        <time>2015-12-13T08:24:38Z</time>
      </trkpt>
      <trkpt lat="50.78085" lon="3.78484">
        <ele>66</ele>
        <time>2015-12-13T08:24:39Z</time>
      </trkpt>
      <trkpt lat="50.78087" lon="3.78485">
        <ele>66</ele>
        <time>2015-12-13T08:24:40Z</time>
      </trkpt>
      <trkpt lat="50.78089" lon="3.78485">
        <ele>65.3</ele>
        <time>2015-12-13T08:24:41Z</time>
      </trkpt>
      <trkpt lat="50.78091" lon="3.78486">
        <ele>65</ele>
        <time>2015-12-13T08:24:42Z</time>
      </trkpt>
      <trkpt lat="50.78093" lon="3.78487">
        <ele>65</ele>
        <time>2015-12-13T08:24:43Z</time>
      </trkpt>
      <trkpt lat="50.78096" lon="3.78488">
        <ele>65</ele>
        <time>2015-12-13T08:24:44Z</time>
      </trkpt>
      <trkpt lat="50.78098" lon="3.78489">
        <ele>65</ele>
        <time>2015-12-13T08:24:45Z</time>
      </trkpt>
      <trkpt lat="50.781" lon="3.78491">
        <ele>65</ele>
        <time>2015-12-13T08:24:46Z</time>
      </trkpt>
      <trkpt lat="50.78102" lon="3.78492">
        <ele>65</ele>
        <time>2015-12-13T08:24:47Z</time>
      </trkpt>
      <trkpt lat="50.78104" lon="3.78493">
        <ele>65</ele>
        <time>2015-12-13T08:24:48Z</time>
      </trkpt>
      <trkpt lat="50.78107" lon="3.78494">
        <ele>65</ele>
        <time>2015-12-13T08:24:49Z</time>
      </trkpt>
      <trkpt lat="50.78109" lon="3.78495">
        <ele>65</ele>
        <time>2015-12-13T08:24:50Z</time>
      </trkpt>
      <trkpt lat="50.78111" lon="3.78496">
        <ele>63.6</ele>
        <time>2015-12-13T08:24:51Z</time>
      </trkpt>
      <trkpt lat="50.78114" lon="3.78497">
        <ele>63</ele>
        <time>2015-12-13T08:24:52Z</time>
      </trkpt>
      <trkpt lat="50.78116" lon="3.78498">
        <ele>63</ele>
        <time>2015-12-13T08:24:53Z</time>
      </trkpt>
      <trkpt lat="50.78118" lon="3.78499">
        <ele>63</ele>
        <time>2015-12-13T08:24:54Z</time>
      </trkpt>
      <trkpt lat="50.78121" lon="3.78499">
        <ele>63</ele>
        <time>2015-12-13T08:24:55Z</time>
      </trkpt>
      <trkpt lat="50.78123" lon="3.785">
        <ele>63</ele>
        <time>2015-12-13T08:24:56Z</time>
      </trkpt>
      <trkpt lat="50.78125" lon="3.78501">
        <ele>63</ele>
        <time>2015-12-13T08:24:57Z</time>
      </trkpt>
      <trkpt lat="50.78127" lon="3.78502">
        <ele>63</ele>
        <time>2015-12-13T08:24:58Z</time>
      </trkpt>
      <trkpt lat="50.7813" lon="3.78503">
        <ele>63</ele>
        <time>2015-12-13T08:24:59Z</time>
      </trkpt>
      <trkpt lat="50.78132" lon="3.78504">
        <ele>63</ele>
        <time>2015-12-13T08:25:00Z</time>
      </trkpt>
      <trkpt lat="50.78134" lon="3.78504">
        <ele>61.6</ele>
        <time>2015-12-13T08:25:01Z</time>
      </trkpt>
      <trkpt lat="50.78137" lon="3.78505">
        <ele>61</ele>
        <time>2015-12-13T08:25:02Z</time>
      </trkpt>
      <trkpt lat="50.78139" lon="3.78506">
        <ele>61</ele>
        <time>2015-12-13T08:25:03Z</time>
      </trkpt>
      <trkpt lat="50.78141" lon="3.78508">
        <ele>61</ele>
        <time>2015-12-13T08:25:04Z</time>
      </trkpt>
      <trkpt lat="50.78144" lon="3.78509">
        <ele>61</ele>
        <time>2015-12-13T08:25:05Z</time>
      </trkpt>
      <trkpt lat="50.78146" lon="3.7851">
        <ele>61</ele>
        <time>2015-12-13T08:25:06Z</time>
      </trkpt>
      <trkpt lat="50.78148" lon="3.78511">
        <ele>61</ele>
        <time>2015-12-13T08:25:07Z</time>
      </trkpt>
      <trkpt lat="50.7815" lon="3.78512">
        <ele>61</ele>
        <time>2015-12-13T08:25:08Z</time>
      </trkpt>
      <trkpt lat="50.78153" lon="3.78514">
        <ele>61</ele>
        <time>2015-12-13T08:25:09Z</time>
      </trkpt>
      <trkpt lat="50.78155" lon="3.78515">
        <ele>61</ele>
        <time>2015-12-13T08:25:10Z</time>
      </trkpt>
      <trkpt lat="50.78158" lon="3.78516">
        <ele>60.3</ele>
        <time>2015-12-13T08:25:11Z</time>
      </trkpt>
      <trkpt lat="50.7816" lon="3.78517">
        <ele>60</ele>
        <time>2015-12-13T08:25:12Z</time>
      </trkpt>
      <trkpt lat="50.78163" lon="3.78517">
        <ele>60</ele>
        <time>2015-12-13T08:25:13Z</time>
      </trkpt>
      <trkpt lat="50.78165" lon="3.78518">
        <ele>60</ele>
        <time>2015-12-13T08:25:14Z</time>
      </trkpt>
      <trkpt lat="50.78168" lon="3.78519">
        <ele>60</ele>
        <time>2015-12-13T08:25:15Z</time>
      </trkpt>
      <trkpt lat="50.7817" lon="3.78521">
        <ele>60</ele>
        <time>2015-12-13T08:25:16Z</time>
      </trkpt>
      <trkpt lat="50.78173" lon="3.78522">
        <ele>60</ele>
        <time>2015-12-13T08:25:17Z</time>
      </trkpt>
      <trkpt lat="50.78175" lon="3.78522">
        <ele>60</ele>
        <time>2015-12-13T08:25:18Z</time>
      </trkpt>
      <trkpt lat="50.78177" lon="3.78523">
        <ele>60</ele>
        <time>2015-12-13T08:25:19Z</time>
      </trkpt>
      <trkpt lat="50.7818" lon="3.78524">
        <ele>60</ele>
        <time>2015-12-13T08:25:20Z</time>
      </trkpt>
      <trkpt lat="50.78182" lon="3.78525">
        <ele>59.3</ele>
        <time>2015-12-13T08:25:21Z</time>
      </trkpt>
      <trkpt lat="50.78185" lon="3.78527">
        <ele>59</ele>
        <time>2015-12-13T08:25:22Z</time>
      </trkpt>
      <trkpt lat="50.78187" lon="3.78528">
        <ele>59</ele>
        <time>2015-12-13T08:25:23Z</time>
      </trkpt>
      <trkpt lat="50.78189" lon="3.78529">
        <ele>59</ele>
        <time>2015-12-13T08:25:24Z</time>
      </trkpt>
      <trkpt lat="50.78192" lon="3.7853">
        <ele>59</ele>
        <time>2015-12-13T08:25:25Z</time>
      </trkpt>
      <trkpt lat="50.78194" lon="3.78531">
        <ele>59</ele>
        <time>2015-12-13T08:25:26Z</time>
      </trkpt>
      <trkpt lat="50.78197" lon="3.78531">
        <ele>59</ele>
        <time>2015-12-13T08:25:27Z</time>
      </trkpt>
      <trkpt lat="50.78199" lon="3.78532">
        <ele>59</ele>
        <time>2015-12-13T08:25:28Z</time>
      </trkpt>
      <trkpt lat="50.78202" lon="3.78533">
        <ele>59</ele>
        <time>2015-12-13T08:25:29Z</time>
      </trkpt>
      <trkpt lat="50.78204" lon="3.78534">
        <ele>59</ele>
        <time>2015-12-13T08:25:30Z</time>
      </trkpt>
      <trkpt lat="50.78207" lon="3.78536">
        <ele>58.3</ele>
        <time>2015-12-13T08:25:31Z</time>
      </trkpt>
      <trkpt lat="50.78209" lon="3.78537">
        <ele>58</ele>
        <time>2015-12-13T08:25:32Z</time>
      </trkpt>
      <trkpt lat="50.78212" lon="3.78538">
        <ele>58</ele>
        <time>2015-12-13T08:25:33Z</time>
      </trkpt>
      <trkpt lat="50.78214" lon="3.78539">
        <ele>58</ele>
        <time>2015-12-13T08:25:34Z</time>
      </trkpt>
      <trkpt lat="50.78216" lon="3.7854">
        <ele>58</ele>
        <time>2015-12-13T08:25:35Z</time>
      </trkpt>
      <trkpt lat="50.78219" lon="3.78541">
        <ele>58</ele>
        <time>2015-12-13T08:25:36Z</time>
      </trkpt>
      <trkpt lat="50.78221" lon="3.78541">
        <ele>58</ele>
        <time>2015-12-13T08:25:37Z</time>
      </trkpt>
      <trkpt lat="50.78224" lon="3.78541">
        <ele>58</ele>
        <time>2015-12-13T08:25:38Z</time>
      </trkpt>
      <trkpt lat="50.78226" lon="3.78541">
        <ele>58</ele>
        <time>2015-12-13T08:25:39Z</time>
      </trkpt>
      <trkpt lat="50.78228" lon="3.7854">
        <ele>58</ele>
        <time>2015-12-13T08:25:40Z</time>
      </trkpt>
      <trkpt lat="50.7823" lon="3.78538">
        <ele>56</ele>
        <time>2015-12-13T08:25:41Z</time>
      </trkpt>
      <trkpt lat="50.78232" lon="3.78535">
        <ele>55</ele>
        <time>2015-12-13T08:25:42Z</time>
      </trkpt>
      <trkpt lat="50.78234" lon="3.78533">
        <ele>55</ele>
        <time>2015-12-13T08:25:43Z</time>
      </trkpt>
      <trkpt lat="50.78237" lon="3.7853">
        <ele>55</ele>
        <time>2015-12-13T08:25:44Z</time>
      </trkpt>
      <trkpt lat="50.78238" lon="3.78528">
        <ele>55</ele>
        <time>2015-12-13T08:25:45Z</time>
      </trkpt>
      <trkpt lat="50.7824" lon="3.78524">
        <ele>54.3</ele>
        <time>2015-12-13T08:25:46Z</time>
      </trkpt>
      <trkpt lat="50.78242" lon="3.78521">
        <ele>54</ele>
        <time>2015-12-13T08:25:47Z</time>
      </trkpt>
      <trkpt lat="50.78243" lon="3.78518">
        <ele>54</ele>
        <time>2015-12-13T08:25:48Z</time>
      </trkpt>
      <trkpt lat="50.78245" lon="3.78515">
        <ele>54</ele>
        <time>2015-12-13T08:25:49Z</time>
      </trkpt>
      <trkpt lat="50.78246" lon="3.78512">
        <ele>54</ele>
        <time>2015-12-13T08:25:50Z</time>
      </trkpt>
      <trkpt lat="50.78248" lon="3.78509">
        <ele>54</ele>
        <time>2015-12-13T08:25:51Z</time>
      </trkpt>
      <trkpt lat="50.78249" lon="3.78506">
        <ele>54</ele>
        <time>2015-12-13T08:25:52Z</time>
      </trkpt>
      <trkpt lat="50.7825" lon="3.78503">
        <ele>54</ele>
        <time>2015-12-13T08:25:53Z</time>
      </trkpt>
      <trkpt lat="50.78252" lon="3.785">
        <ele>54</ele>
        <time>2015-12-13T08:25:54Z</time>
      </trkpt>
      <trkpt lat="50.78254" lon="3.78497">
        <ele>54</ele>
        <time>2015-12-13T08:25:55Z</time>
      </trkpt>
      <trkpt lat="50.78255" lon="3.78494">
        <ele>54</ele>
        <time>2015-12-13T08:25:56Z</time>
      </trkpt>
      <trkpt lat="50.78257" lon="3.78491">
        <ele>54</ele>
        <time>2015-12-13T08:25:57Z</time>
      </trkpt>
      <trkpt lat="50.78259" lon="3.78488">
        <ele>54</ele>
        <time>2015-12-13T08:25:58Z</time>
      </trkpt>
      <trkpt lat="50.7826" lon="3.78485">
        <ele>54</ele>
        <time>2015-12-13T08:25:59Z</time>
      </trkpt>
      <trkpt lat="50.78262" lon="3.78482">
        <ele>54</ele>
        <time>2015-12-13T08:26:00Z</time>
      </trkpt>
      <trkpt lat="50.78264" lon="3.78479">
        <ele>53</ele>
        <time>2015-12-13T08:26:01Z</time>
      </trkpt>
      <trkpt lat="50.78265" lon="3.78476">
        <ele>52</ele>
        <time>2015-12-13T08:26:02Z</time>
      </trkpt>
      <trkpt lat="50.78267" lon="3.78473">
        <ele>52</ele>
        <time>2015-12-13T08:26:03Z</time>
      </trkpt>
      <trkpt lat="50.78269" lon="3.7847">
        <ele>52</ele>
        <time>2015-12-13T08:26:04Z</time>
      </trkpt>
      <trkpt lat="50.7827" lon="3.78466">
        <ele>52</ele>
        <time>2015-12-13T08:26:05Z</time>
      </trkpt>
      <trkpt lat="50.78272" lon="3.78463">
        <ele>52</ele>
        <time>2015-12-13T08:26:06Z</time>
      </trkpt>
      <trkpt lat="50.78273" lon="3.7846">
        <ele>52</ele>
        <time>2015-12-13T08:26:07Z</time>
      </trkpt>
      <trkpt lat="50.78275" lon="3.78456">
        <ele>52</ele>
        <time>2015-12-13T08:26:08Z</time>
      </trkpt>
      <trkpt lat="50.78276" lon="3.78453">
        <ele>52</ele>
        <time>2015-12-13T08:26:09Z</time>
      </trkpt>
      <trkpt lat="50.78278" lon="3.7845">
        <ele>52</ele>
        <time>2015-12-13T08:26:10Z</time>
      </trkpt>
      <trkpt lat="50.7828" lon="3.78447">
        <ele>50.6</ele>
        <time>2015-12-13T08:26:11Z</time>
      </trkpt>
      <trkpt lat="50.78282" lon="3.78444">
        <ele>50</ele>
        <time>2015-12-13T08:26:12Z</time>
      </trkpt>
      <trkpt lat="50.78283" lon="3.78441">
        <ele>50</ele>
        <time>2015-12-13T08:26:13Z</time>
      </trkpt>
      <trkpt lat="50.78285" lon="3.78438">
        <ele>50</ele>
        <time>2015-12-13T08:26:14Z</time>
      </trkpt>
      <trkpt lat="50.78287" lon="3.78435">
        <ele>50</ele>
        <time>2015-12-13T08:26:15Z</time>
      </trkpt>
      <trkpt lat="50.78289" lon="3.78433">
        <ele>50</ele>
        <time>2015-12-13T08:26:16Z</time>
      </trkpt>
      <trkpt lat="50.78291" lon="3.7843">
        <ele>50</ele>
        <time>2015-12-13T08:26:17Z</time>
      </trkpt>
      <trkpt lat="50.78292" lon="3.78428">
        <ele>50</ele>
        <time>2015-12-13T08:26:18Z</time>
      </trkpt>
      <trkpt lat="50.78294" lon="3.78426">
        <ele>50</ele>
        <time>2015-12-13T08:26:19Z</time>
      </trkpt>
      <trkpt lat="50.78296" lon="3.78423">
        <ele>50</ele>
        <time>2015-12-13T08:26:20Z</time>
      </trkpt>
      <trkpt lat="50.78298" lon="3.7842">
        <ele>50</ele>
        <time>2015-12-13T08:26:21Z</time>
      </trkpt>
      <trkpt lat="50.78299" lon="3.78417">
        <ele>50</ele>
        <time>2015-12-13T08:26:22Z</time>
      </trkpt>
      <trkpt lat="50.78301" lon="3.78414">
        <ele>50</ele>
        <time>2015-12-13T08:26:23Z</time>
      </trkpt>
      <trkpt lat="50.78303" lon="3.78412">
        <ele>50</ele>
        <time>2015-12-13T08:26:24Z</time>
      </trkpt>
      <trkpt lat="50.78304" lon="3.78409">
        <ele>50</ele>
        <time>2015-12-13T08:26:25Z</time>
      </trkpt>
      <trkpt lat="50.78306" lon="3.78406">
        <ele>50</ele>
        <time>2015-12-13T08:26:26Z</time>
      </trkpt>
      <trkpt lat="50.78308" lon="3.78403">
        <ele>50</ele>
        <time>2015-12-13T08:26:27Z</time>
      </trkpt>
      <trkpt lat="50.7831" lon="3.78401">
        <ele>50</ele>
        <time>2015-12-13T08:26:28Z</time>
      </trkpt>
      <trkpt lat="50.78311" lon="3.78398">
        <ele>50</ele>
        <time>2015-12-13T08:26:29Z</time>
      </trkpt>
      <trkpt lat="50.78313" lon="3.78396">
        <ele>50</ele>
        <time>2015-12-13T08:26:30Z</time>
      </trkpt>
      <trkpt lat="50.78314" lon="3.78393">
        <ele>50</ele>
        <time>2015-12-13T08:26:31Z</time>
      </trkpt>
      <trkpt lat="50.78316" lon="3.7839">
        <ele>50</ele>
        <time>2015-12-13T08:26:32Z</time>
      </trkpt>
      <trkpt lat="50.78317" lon="3.78388">
        <ele>50</ele>
        <time>2015-12-13T08:26:33Z</time>
      </trkpt>
      <trkpt lat="50.78319" lon="3.78385">
        <ele>50</ele>
        <time>2015-12-13T08:26:34Z</time>
      </trkpt>
      <trkpt lat="50.78321" lon="3.78382">
        <ele>50</ele>
        <time>2015-12-13T08:26:35Z</time>
      </trkpt>
      <trkpt lat="50.78322" lon="3.7838">
        <ele>50</ele>
        <time>2015-12-13T08:26:36Z</time>
      </trkpt>
      <trkpt lat="50.78324" lon="3.78377">
        <ele>50</ele>
        <time>2015-12-13T08:26:37Z</time>
      </trkpt>
      <trkpt lat="50.78326" lon="3.78375">
        <ele>50</ele>
        <time>2015-12-13T08:26:38Z</time>
      </trkpt>
      <trkpt lat="50.78329" lon="3.78373">
        <ele>50</ele>
        <time>2015-12-13T08:26:39Z</time>
      </trkpt>
      <trkpt lat="50.78331" lon="3.78371">
        <ele>50</ele>
        <time>2015-12-13T08:26:40Z</time>
      </trkpt>
      <trkpt lat="50.78333" lon="3.78369">
        <ele>48.6</ele>
        <time>2015-12-13T08:26:41Z</time>
      </trkpt>
      <trkpt lat="50.78335" lon="3.78368">
        <ele>48</ele>
        <time>2015-12-13T08:26:42Z</time>
      </trkpt>
      <trkpt lat="50.78337" lon="3.78367">
        <ele>48</ele>
        <time>2015-12-13T08:26:43Z</time>
      </trkpt>
      <trkpt lat="50.78339" lon="3.78366">
        <ele>48</ele>
        <time>2015-12-13T08:26:44Z</time>
      </trkpt>
      <trkpt lat="50.78342" lon="3.78366">
        <ele>48</ele>
        <time>2015-12-13T08:26:45Z</time>
      </trkpt>
      <trkpt lat="50.78344" lon="3.78364">
        <ele>48</ele>
        <time>2015-12-13T08:26:46Z</time>
      </trkpt>
      <trkpt lat="50.78346" lon="3.78362">
        <ele>48</ele>
        <time>2015-12-13T08:26:47Z</time>
      </trkpt>
      <trkpt lat="50.78348" lon="3.7836">
        <ele>48</ele>
        <time>2015-12-13T08:26:48Z</time>
      </trkpt>
      <trkpt lat="50.7835" lon="3.78359">
        <ele>48</ele>
        <time>2015-12-13T08:26:49Z</time>
      </trkpt>
      <trkpt lat="50.78352" lon="3.78357">
        <ele>48</ele>
        <time>2015-12-13T08:26:50Z</time>
      </trkpt>
      <trkpt lat="50.78354" lon="3.78355">
        <ele>47.3</ele>
        <time>2015-12-13T08:26:51Z</time>
      </trkpt>
      <trkpt lat="50.78356" lon="3.78354">
        <ele>47</ele>
        <time>2015-12-13T08:26:52Z</time>
      </trkpt>
      <trkpt lat="50.78358" lon="3.78352">
        <ele>47</ele>
        <time>2015-12-13T08:26:53Z</time>
      </trkpt>
      <trkpt lat="50.78361" lon="3.7835">
        <ele>47</ele>
        <time>2015-12-13T08:26:54Z</time>
      </trkpt>
      <trkpt lat="50.78363" lon="3.78348">
        <ele>47</ele>
        <time>2015-12-13T08:26:55Z</time>
      </trkpt>
      <trkpt lat="50.78365" lon="3.78346">
        <ele>47</ele>
        <time>2015-12-13T08:26:56Z</time>
      </trkpt>
      <trkpt lat="50.78367" lon="3.78344">
        <ele>47</ele>
        <time>2015-12-13T08:26:57Z</time>
      </trkpt>
      <trkpt lat="50.7837" lon="3.78342">
        <ele>47</ele>
        <time>2015-12-13T08:26:58Z</time>
      </trkpt>
      <trkpt lat="50.78372" lon="3.7834">
        <ele>47</ele>
        <time>2015-12-13T08:26:59Z</time>
      </trkpt>
      <trkpt lat="50.78375" lon="3.78338">
        <ele>47</ele>
        <time>2015-12-13T08:27:00Z</time>
      </trkpt>
      <trkpt lat="50.78377" lon="3.78336">
        <ele>47</ele>
        <time>2015-12-13T08:27:01Z</time>
      </trkpt>
      <trkpt lat="50.78379" lon="3.78333">
        <ele>47</ele>
        <time>2015-12-13T08:27:02Z</time>
      </trkpt>
      <trkpt lat="50.78381" lon="3.78331">
        <ele>47</ele>
        <time>2015-12-13T08:27:03Z</time>
      </trkpt>
      <trkpt lat="50.78383" lon="3.78329">
        <ele>47</ele>
        <time>2015-12-13T08:27:04Z</time>
      </trkpt>
      <trkpt lat="50.78386" lon="3.78327">
        <ele>47</ele>
        <time>2015-12-13T08:27:05Z</time>
      </trkpt>
      <trkpt lat="50.78388" lon="3.78325">
        <ele>47</ele>
        <time>2015-12-13T08:27:06Z</time>
      </trkpt>
      <trkpt lat="50.7839" lon="3.78323">
        <ele>47</ele>
        <time>2015-12-13T08:27:07Z</time>
      </trkpt>
      <trkpt lat="50.78392" lon="3.7832">
        <ele>47</ele>
        <time>2015-12-13T08:27:08Z</time>
      </trkpt>
      <trkpt lat="50.78393" lon="3.78317">
        <ele>47</ele>
        <time>2015-12-13T08:27:09Z</time>
      </trkpt>
      <trkpt lat="50.78395" lon="3.78314">
        <ele>47</ele>
        <time>2015-12-13T08:27:10Z</time>
      </trkpt>
      <trkpt lat="50.78396" lon="3.78311">
        <ele>47</ele>
        <time>2015-12-13T08:27:11Z</time>
      </trkpt>
      <trkpt lat="50.78398" lon="3.78309">
        <ele>47</ele>
        <time>2015-12-13T08:27:12Z</time>
      </trkpt>
      <trkpt lat="50.784" lon="3.78306">
        <ele>47</ele>
        <time>2015-12-13T08:27:13Z</time>
      </trkpt>
      <trkpt lat="50.78401" lon="3.78303">
        <ele>47</ele>
        <time>2015-12-13T08:27:14Z</time>
      </trkpt>
      <trkpt lat="50.78403" lon="3.78299">
        <ele>47</ele>
        <time>2015-12-13T08:27:15Z</time>
      </trkpt>
      <trkpt lat="50.78404" lon="3.78297">
        <ele>47</ele>
        <time>2015-12-13T08:27:16Z</time>
      </trkpt>
      <trkpt lat="50.78405" lon="3.78294">
        <ele>47</ele>
        <time>2015-12-13T08:27:17Z</time>
      </trkpt>
      <trkpt lat="50.78407" lon="3.78291">
        <ele>47</ele>
        <time>2015-12-13T08:27:18Z</time>
      </trkpt>
      <trkpt lat="50.78408" lon="3.78288">
        <ele>47</ele>
        <time>2015-12-13T08:27:19Z</time>
      </trkpt>
      <trkpt lat="50.7841" lon="3.78285">
        <ele>47</ele>
        <time>2015-12-13T08:27:20Z</time>
      </trkpt>
      <trkpt lat="50.78411" lon="3.78282">
        <ele>47</ele>
        <time>2015-12-13T08:27:21Z</time>
      </trkpt>
      <trkpt lat="50.78412" lon="3.78279">
        <ele>47</ele>
        <time>2015-12-13T08:27:22Z</time>
      </trkpt>
      <trkpt lat="50.78414" lon="3.78276">
        <ele>47</ele>
        <time>2015-12-13T08:27:23Z</time>
      </trkpt>
      <trkpt lat="50.78415" lon="3.78272">
        <ele>47</ele>
        <time>2015-12-13T08:27:24Z</time>
      </trkpt>
      <trkpt lat="50.78415" lon="3.78269">
        <ele>47</ele>
        <time>2015-12-13T08:27:25Z</time>
      </trkpt>
      <trkpt lat="50.78416" lon="3.78265">
        <ele>47</ele>
        <time>2015-12-13T08:27:26Z</time>
      </trkpt>
      <trkpt lat="50.78415" lon="3.78262">
        <ele>47</ele>
        <time>2015-12-13T08:27:27Z</time>
      </trkpt>
      <trkpt lat="50.78415" lon="3.78258">
        <ele>47</ele>
        <time>2015-12-13T08:27:28Z</time>
      </trkpt>
      <trkpt lat="50.78414" lon="3.78254">
        <ele>47</ele>
        <time>2015-12-13T08:27:29Z</time>
      </trkpt>
      <trkpt lat="50.78412" lon="3.78251">
        <ele>47</ele>
        <time>2015-12-13T08:27:30Z</time>
      </trkpt>
      <trkpt lat="50.78411" lon="3.78247">
        <ele>47.7</ele>
        <time>2015-12-13T08:27:31Z</time>
      </trkpt>
      <trkpt lat="50.7841" lon="3.78244">
        <ele>48</ele>
        <time>2015-12-13T08:27:32Z</time>
      </trkpt>
      <trkpt lat="50.78409" lon="3.7824">
        <ele>48</ele>
        <time>2015-12-13T08:27:33Z</time>
      </trkpt>
      <trkpt lat="50.78408" lon="3.78237">
        <ele>48</ele>
        <time>2015-12-13T08:27:34Z</time>
      </trkpt>
      <trkpt lat="50.78407" lon="3.78233">
        <ele>48</ele>
        <time>2015-12-13T08:27:35Z</time>
      </trkpt>
      <trkpt lat="50.78406" lon="3.7823">
        <ele>48</ele>
        <time>2015-12-13T08:27:36Z</time>
      </trkpt>
      <trkpt lat="50.78405" lon="3.78227">
        <ele>48</ele>
        <time>2015-12-13T08:27:37Z</time>
      </trkpt>
      <trkpt lat="50.78404" lon="3.78224">
        <ele>48</ele>
        <time>2015-12-13T08:27:38Z</time>
      </trkpt>
      <trkpt lat="50.78403" lon="3.78221">
        <ele>48</ele>
        <time>2015-12-13T08:27:39Z</time>
      </trkpt>
      <trkpt lat="50.78402" lon="3.78217">
        <ele>48</ele>
        <time>2015-12-13T08:27:40Z</time>
      </trkpt>
      <trkpt lat="50.78402" lon="3.78214">
        <ele>48.7</ele>
        <time>2015-12-13T08:27:41Z</time>
      </trkpt>
      <trkpt lat="50.784" lon="3.7821">
        <ele>49</ele>
        <time>2015-12-13T08:27:42Z</time>
      </trkpt>
      <trkpt lat="50.78399" lon="3.78207">
        <ele>49</ele>
        <time>2015-12-13T08:27:43Z</time>
      </trkpt>
      <trkpt lat="50.78398" lon="3.78204">
        <ele>49</ele>
        <time>2015-12-13T08:27:44Z</time>
      </trkpt>
      <trkpt lat="50.78397" lon="3.782">
        <ele>49</ele>
        <time>2015-12-13T08:27:45Z</time>
      </trkpt>
      <trkpt lat="50.78396" lon="3.78197">
        <ele>49</ele>
        <time>2015-12-13T08:27:46Z</time>
      </trkpt>
      <trkpt lat="50.78395" lon="3.78194">
        <ele>49</ele>
        <time>2015-12-13T08:27:47Z</time>
      </trkpt>
      <trkpt lat="50.78394" lon="3.7819">
        <ele>49</ele>
        <time>2015-12-13T08:27:48Z</time>
      </trkpt>
      <trkpt lat="50.78393" lon="3.78187">
        <ele>49</ele>
        <time>2015-12-13T08:27:49Z</time>
      </trkpt>
      <trkpt lat="50.78393" lon="3.78184">
        <ele>49</ele>
        <time>2015-12-13T08:27:50Z</time>
      </trkpt>
      <trkpt lat="50.78392" lon="3.7818">
        <ele>49.7</ele>
        <time>2015-12-13T08:27:51Z</time>
      </trkpt>
      <trkpt lat="50.78391" lon="3.78177">
        <ele>50</ele>
        <time>2015-12-13T08:27:52Z</time>
      </trkpt>
      <trkpt lat="50.7839" lon="3.78174">
        <ele>50</ele>
        <time>2015-12-13T08:27:53Z</time>
      </trkpt>
      <trkpt lat="50.78389" lon="3.78171">
        <ele>50</ele>
        <time>2015-12-13T08:27:54Z</time>
      </trkpt>
      <trkpt lat="50.78388" lon="3.78167">
        <ele>50</ele>
        <time>2015-12-13T08:27:55Z</time>
      </trkpt>
      <trkpt lat="50.78387" lon="3.78164">
        <ele>50</ele>
        <time>2015-12-13T08:27:56Z</time>
      </trkpt>
      <trkpt lat="50.78386" lon="3.78161">
        <ele>50</ele>
        <time>2015-12-13T08:27:57Z</time>
      </trkpt>
      <trkpt lat="50.78385" lon="3.78158">
        <ele>50</ele>
        <time>2015-12-13T08:27:58Z</time>
      </trkpt>
      <trkpt lat="50.78385" lon="3.78154">
        <ele>50</ele>
        <time>2015-12-13T08:27:59Z</time>
      </trkpt>
      <trkpt lat="50.78384" lon="3.78151">
        <ele>50</ele>
        <time>2015-12-13T08:28:00Z</time>
      </trkpt>
      <trkpt lat="50.78383" lon="3.78148">
        <ele>50</ele>
        <time>2015-12-13T08:28:01Z</time>
      </trkpt>
      <trkpt lat="50.78382" lon="3.78144">
        <ele>50</ele>
        <time>2015-12-13T08:28:02Z</time>
      </trkpt>
      <trkpt lat="50.78381" lon="3.78141">
        <ele>50</ele>
        <time>2015-12-13T08:28:03Z</time>
      </trkpt>
      <trkpt lat="50.7838" lon="3.78137">
        <ele>50</ele>
        <time>2015-12-13T08:28:04Z</time>
      </trkpt>
      <trkpt lat="50.78379" lon="3.78133">
        <ele>50</ele>
        <time>2015-12-13T08:28:05Z</time>
      </trkpt>
      <trkpt lat="50.78378" lon="3.7813">
        <ele>50</ele>
        <time>2015-12-13T08:28:06Z</time>
      </trkpt>
      <trkpt lat="50.78377" lon="3.78127">
        <ele>50</ele>
        <time>2015-12-13T08:28:07Z</time>
      </trkpt>
      <trkpt lat="50.78377" lon="3.78123">
        <ele>50</ele>
        <time>2015-12-13T08:28:08Z</time>
      </trkpt>
      <trkpt lat="50.78376" lon="3.7812">
        <ele>50</ele>
        <time>2015-12-13T08:28:09Z</time>
      </trkpt>
      <trkpt lat="50.78375" lon="3.78116">
        <ele>50</ele>
        <time>2015-12-13T08:28:10Z</time>
      </trkpt>
      <trkpt lat="50.78375" lon="3.78113">
        <ele>50</ele>
        <time>2015-12-13T08:28:11Z</time>
      </trkpt>
      <trkpt lat="50.78375" lon="3.78109">
        <ele>50</ele>
        <time>2015-12-13T08:28:12Z</time>
      </trkpt>
      <trkpt lat="50.78375" lon="3.78106">
        <ele>50</ele>
        <time>2015-12-13T08:28:13Z</time>
      </trkpt>
      <trkpt lat="50.78376" lon="3.78103">
        <ele>50</ele>
        <time>2015-12-13T08:28:14Z</time>
      </trkpt>
      <trkpt lat="50.78377" lon="3.781">
        <ele>50</ele>
        <time>2015-12-13T08:28:15Z</time>
      </trkpt>
      <trkpt lat="50.78377" lon="3.78096">
        <ele>50</ele>
        <time>2015-12-13T08:28:16Z</time>
      </trkpt>
      <trkpt lat="50.78377" lon="3.78093">
        <ele>50</ele>
        <time>2015-12-13T08:28:17Z</time>
      </trkpt>
      <trkpt lat="50.78377" lon="3.78089">
        <ele>50</ele>
        <time>2015-12-13T08:28:18Z</time>
      </trkpt>
      <trkpt lat="50.78377" lon="3.78085">
        <ele>50</ele>
        <time>2015-12-13T08:28:19Z</time>
      </trkpt>
      <trkpt lat="50.78376" lon="3.78081">
        <ele>50</ele>
        <time>2015-12-13T08:28:20Z</time>
      </trkpt>
      <trkpt lat="50.78376" lon="3.78078">
        <ele>50.7</ele>
        <time>2015-12-13T08:28:21Z</time>
      </trkpt>
      <trkpt lat="50.78375" lon="3.78075">
        <ele>51</ele>
        <time>2015-12-13T08:28:22Z</time>
      </trkpt>
      <trkpt lat="50.78374" lon="3.78071">
        <ele>51</ele>
        <time>2015-12-13T08:28:23Z</time>
      </trkpt>
      <trkpt lat="50.78373" lon="3.78068">
        <ele>51</ele>
        <time>2015-12-13T08:28:24Z</time>
      </trkpt>
      <trkpt lat="50.78372" lon="3.78065">
        <ele>51</ele>
        <time>2015-12-13T08:28:25Z</time>
      </trkpt>
      <trkpt lat="50.78371" lon="3.78061">
        <ele>51</ele>
        <time>2015-12-13T08:28:26Z</time>
      </trkpt>
      <trkpt lat="50.7837" lon="3.78058">
        <ele>51</ele>
        <time>2015-12-13T08:28:27Z</time>
      </trkpt>
      <trkpt lat="50.78369" lon="3.78055">
        <ele>51</ele>
        <time>2015-12-13T08:28:28Z</time>
      </trkpt>
      <trkpt lat="50.78369" lon="3.78051">
        <ele>51</ele>
        <time>2015-12-13T08:28:29Z</time>
      </trkpt>
      <trkpt lat="50.78368" lon="3.78048">
        <ele>51</ele>
        <time>2015-12-13T08:28:30Z</time>
      </trkpt>
      <trkpt lat="50.78367" lon="3.78045">
        <ele>51</ele>
        <time>2015-12-13T08:28:31Z</time>
      </trkpt>
      <trkpt lat="50.78366" lon="3.78041">
        <ele>51</ele>
        <time>2015-12-13T08:28:32Z</time>
      </trkpt>
      <trkpt lat="50.78365" lon="3.78038">
        <ele>51</ele>
        <time>2015-12-13T08:28:33Z</time>
      </trkpt>
      <trkpt lat="50.78364" lon="3.78035">
        <ele>51</ele>
        <time>2015-12-13T08:28:34Z</time>
      </trkpt>
      <trkpt lat="50.78363" lon="3.78032">
        <ele>51</ele>
        <time>2015-12-13T08:28:35Z</time>
      </trkpt>
      <trkpt lat="50.78362" lon="3.78029">
        <ele>51</ele>
        <time>2015-12-13T08:28:36Z</time>
      </trkpt>
      <trkpt lat="50.78361" lon="3.78026">
        <ele>51</ele>
        <time>2015-12-13T08:28:37Z</time>
      </trkpt>
      <trkpt lat="50.7836" lon="3.78022">
        <ele>51</ele>
        <time>2015-12-13T08:28:38Z</time>
      </trkpt>
      <trkpt lat="50.78359" lon="3.78019">
        <ele>51</ele>
        <time>2015-12-13T08:28:39Z</time>
      </trkpt>
      <trkpt lat="50.78358" lon="3.78016">
        <ele>51</ele>
        <time>2015-12-13T08:28:40Z</time>
      </trkpt>
      <trkpt lat="50.78358" lon="3.78013">
        <ele>51.5</ele>
        <time>2015-12-13T08:28:41Z</time>
      </trkpt>
      <trkpt lat="50.78357" lon="3.7801">
        <ele>52</ele>
        <time>2015-12-13T08:28:42Z</time>
      </trkpt>
      <trkpt lat="50.78356" lon="3.78006">
        <ele>52</ele>
        <time>2015-12-13T08:28:43Z</time>
      </trkpt>
      <trkpt lat="50.78355" lon="3.78003">
        <ele>52</ele>
        <time>2015-12-13T08:28:44Z</time>
      </trkpt>
      <trkpt lat="50.78354" lon="3.78">
        <ele>52</ele>
        <time>2015-12-13T08:28:45Z</time>
      </trkpt>
      <trkpt lat="50.78353" lon="3.77997">
        <ele>52</ele>
        <time>2015-12-13T08:28:46Z</time>
      </trkpt>
      <trkpt lat="50.78353" lon="3.77994">
        <ele>52</ele>
        <time>2015-12-13T08:28:47Z</time>
      </trkpt>
      <trkpt lat="50.78352" lon="3.77991">
        <ele>52</ele>
        <time>2015-12-13T08:28:48Z</time>
      </trkpt>
      <trkpt lat="50.78351" lon="3.77987">
        <ele>52</ele>
        <time>2015-12-13T08:28:49Z</time>
      </trkpt>
      <trkpt lat="50.7835" lon="3.77984">
        <ele>52</ele>
        <time>2015-12-13T08:28:50Z</time>
      </trkpt>
      <trkpt lat="50.78349" lon="3.77981">
        <ele>52.7</ele>
        <time>2015-12-13T08:28:51Z</time>
      </trkpt>
      <trkpt lat="50.78349" lon="3.77978">
        <ele>53</ele>
        <time>2015-12-13T08:28:52Z</time>
      </trkpt>
      <trkpt lat="50.78348" lon="3.77975">
        <ele>53</ele>
        <time>2015-12-13T08:28:53Z</time>
      </trkpt>
      <trkpt lat="50.78347" lon="3.77971">
        <ele>53</ele>
        <time>2015-12-13T08:28:55Z</time>
      </trkpt>
      <trkpt lat="50.78346" lon="3.77967">
        <ele>53</ele>
        <time>2015-12-13T08:28:57Z</time>
      </trkpt>
      <trkpt lat="50.78346" lon="3.77964">
        <ele>53</ele>
        <time>2015-12-13T08:28:58Z</time>
      </trkpt>
      <trkpt lat="50.78346" lon="3.77961">
        <ele>53</ele>
        <time>2015-12-13T08:28:59Z</time>
      </trkpt>
      <trkpt lat="50.78345" lon="3.77958">
        <ele>53</ele>
        <time>2015-12-13T08:29:00Z</time>
      </trkpt>
      <trkpt lat="50.78344" lon="3.77953">
        <ele>53</ele>
        <time>2015-12-13T08:29:02Z</time>
      </trkpt>
      <trkpt lat="50.78343" lon="3.77949">
        <ele>53</ele>
        <time>2015-12-13T08:29:04Z</time>
      </trkpt>
      <trkpt lat="50.78342" lon="3.77945">
        <ele>53</ele>
        <time>2015-12-13T08:29:06Z</time>
      </trkpt>
      <trkpt lat="50.78341" lon="3.77941">
        <ele>53</ele>
        <time>2015-12-13T08:29:08Z</time>
      </trkpt>
      <trkpt lat="50.7834" lon="3.77936">
        <ele>53</ele>
        <time>2015-12-13T08:29:10Z</time>
      </trkpt>
      <trkpt lat="50.78338" lon="3.77931">
        <ele>53</ele>
        <time>2015-12-13T08:29:12Z</time>
      </trkpt>
      <trkpt lat="50.78338" lon="3.77928">
        <ele>53</ele>
        <time>2015-12-13T08:29:13Z</time>
      </trkpt>
      <trkpt lat="50.78337" lon="3.77925">
        <ele>53</ele>
        <time>2015-12-13T08:29:14Z</time>
      </trkpt>
      <trkpt lat="50.78336" lon="3.77922">
        <ele>53</ele>
        <time>2015-12-13T08:29:15Z</time>
      </trkpt>
      <trkpt lat="50.78335" lon="3.77919">
        <ele>53</ele>
        <time>2015-12-13T08:29:16Z</time>
      </trkpt>
      <trkpt lat="50.78334" lon="3.77916">
        <ele>53</ele>
        <time>2015-12-13T08:29:17Z</time>
      </trkpt>
      <trkpt lat="50.78333" lon="3.77913">
        <ele>53</ele>
        <time>2015-12-13T08:29:18Z</time>
      </trkpt>
      <trkpt lat="50.78332" lon="3.7791">
        <ele>53</ele>
        <time>2015-12-13T08:29:19Z</time>
      </trkpt>
      <trkpt lat="50.78332" lon="3.77906">
        <ele>53</ele>
        <time>2015-12-13T08:29:20Z</time>
      </trkpt>
      <trkpt lat="50.78331" lon="3.77903">
        <ele>53.7</ele>
        <time>2015-12-13T08:29:21Z</time>
      </trkpt>
      <trkpt lat="50.7833" lon="3.779">
        <ele>54</ele>
        <time>2015-12-13T08:29:22Z</time>
      </trkpt>
      <trkpt lat="50.78329" lon="3.77897">
        <ele>54</ele>
        <time>2015-12-13T08:29:23Z</time>
      </trkpt>
      <trkpt lat="50.78328" lon="3.77894">
        <ele>54</ele>
        <time>2015-12-13T08:29:24Z</time>
      </trkpt>
      <trkpt lat="50.78327" lon="3.77891">
        <ele>54</ele>
        <time>2015-12-13T08:29:25Z</time>
      </trkpt>
      <trkpt lat="50.78326" lon="3.77888">
        <ele>54</ele>
        <time>2015-12-13T08:29:26Z</time>
      </trkpt>
      <trkpt lat="50.78325" lon="3.77884">
        <ele>54</ele>
        <time>2015-12-13T08:29:27Z</time>
      </trkpt>
      <trkpt lat="50.78325" lon="3.77881">
        <ele>54</ele>
        <time>2015-12-13T08:29:28Z</time>
      </trkpt>
      <trkpt lat="50.78324" lon="3.77878">
        <ele>54</ele>
        <time>2015-12-13T08:29:29Z</time>
      </trkpt>
      <trkpt lat="50.78323" lon="3.77875">
        <ele>54</ele>
        <time>2015-12-13T08:29:30Z</time>
      </trkpt>
      <trkpt lat="50.78322" lon="3.77872">
        <ele>54</ele>
        <time>2015-12-13T08:29:31Z</time>
      </trkpt>
      <trkpt lat="50.78321" lon="3.77869">
        <ele>54</ele>
        <time>2015-12-13T08:29:32Z</time>
      </trkpt>
      <trkpt lat="50.78321" lon="3.77866">
        <ele>54</ele>
        <time>2015-12-13T08:29:33Z</time>
      </trkpt>
      <trkpt lat="50.7832" lon="3.77863">
        <ele>54</ele>
        <time>2015-12-13T08:29:34Z</time>
      </trkpt>
      <trkpt lat="50.78319" lon="3.7786">
        <ele>54</ele>
        <time>2015-12-13T08:29:35Z</time>
      </trkpt>
      <trkpt lat="50.78318" lon="3.77856">
        <ele>54</ele>
        <time>2015-12-13T08:29:36Z</time>
      </trkpt>
      <trkpt lat="50.78317" lon="3.77853">
        <ele>54</ele>
        <time>2015-12-13T08:29:37Z</time>
      </trkpt>
      <trkpt lat="50.78317" lon="3.7785">
        <ele>54</ele>
        <time>2015-12-13T08:29:38Z</time>
      </trkpt>
      <trkpt lat="50.78316" lon="3.77847">
        <ele>54</ele>
        <time>2015-12-13T08:29:39Z</time>
      </trkpt>
      <trkpt lat="50.78315" lon="3.77844">
        <ele>54</ele>
        <time>2015-12-13T08:29:40Z</time>
      </trkpt>
      <trkpt lat="50.78315" lon="3.77841">
        <ele>54</ele>
        <time>2015-12-13T08:29:41Z</time>
      </trkpt>
      <trkpt lat="50.78314" lon="3.77838">
        <ele>54</ele>
        <time>2015-12-13T08:29:42Z</time>
      </trkpt>
      <trkpt lat="50.78313" lon="3.77835">
        <ele>54</ele>
        <time>2015-12-13T08:29:43Z</time>
      </trkpt>
      <trkpt lat="50.78313" lon="3.77833">
        <ele>54</ele>
        <time>2015-12-13T08:29:44Z</time>
      </trkpt>
      <trkpt lat="50.78312" lon="3.7783">
        <ele>54</ele>
        <time>2015-12-13T08:29:45Z</time>
      </trkpt>
      <trkpt lat="50.78311" lon="3.77827">
        <ele>54</ele>
        <time>2015-12-13T08:29:46Z</time>
      </trkpt>
      <trkpt lat="50.78311" lon="3.77824">
        <ele>54</ele>
        <time>2015-12-13T08:29:47Z</time>
      </trkpt>
      <trkpt lat="50.7831" lon="3.77821">
        <ele>54</ele>
        <time>2015-12-13T08:29:48Z</time>
      </trkpt>
      <trkpt lat="50.78309" lon="3.77818">
        <ele>54</ele>
        <time>2015-12-13T08:29:49Z</time>
      </trkpt>
      <trkpt lat="50.78309" lon="3.77815">
        <ele>54</ele>
        <time>2015-12-13T08:29:50Z</time>
      </trkpt>
      <trkpt lat="50.78308" lon="3.77813">
        <ele>54.7</ele>
        <time>2015-12-13T08:29:51Z</time>
      </trkpt>
      <trkpt lat="50.78307" lon="3.7781">
        <ele>55</ele>
        <time>2015-12-13T08:29:52Z</time>
      </trkpt>
      <trkpt lat="50.78306" lon="3.77807">
        <ele>55</ele>
        <time>2015-12-13T08:29:53Z</time>
      </trkpt>
      <trkpt lat="50.78306" lon="3.77804">
        <ele>55</ele>
        <time>2015-12-13T08:29:54Z</time>
      </trkpt>
      <trkpt lat="50.78305" lon="3.77801">
        <ele>55</ele>
        <time>2015-12-13T08:29:55Z</time>
      </trkpt>
      <trkpt lat="50.78304" lon="3.77798">
        <ele>55</ele>
        <time>2015-12-13T08:29:56Z</time>
      </trkpt>
      <trkpt lat="50.78303" lon="3.77793">
        <ele>55</ele>
        <time>2015-12-13T08:29:58Z</time>
      </trkpt>
      <trkpt lat="50.78302" lon="3.77788">
        <ele>55</ele>
        <time>2015-12-13T08:30:00Z</time>
      </trkpt>
      <trkpt lat="50.78301" lon="3.77782">
        <ele>55</ele>
        <time>2015-12-13T08:30:02Z</time>
      </trkpt>
      <trkpt lat="50.78301" lon="3.7778">
        <ele>55</ele>
        <time>2015-12-13T08:30:03Z</time>
      </trkpt>
      <trkpt lat="50.783" lon="3.77774">
        <ele>55</ele>
        <time>2015-12-13T08:30:05Z</time>
      </trkpt>
      <trkpt lat="50.78299" lon="3.77769">
        <ele>55</ele>
        <time>2015-12-13T08:30:07Z</time>
      </trkpt>
      <trkpt lat="50.78298" lon="3.77764">
        <ele>55</ele>
        <time>2015-12-13T08:30:09Z</time>
      </trkpt>
      <trkpt lat="50.78298" lon="3.77758">
        <ele>55</ele>
        <time>2015-12-13T08:30:11Z</time>
      </trkpt>
      <trkpt lat="50.78298" lon="3.77755">
        <ele>56.4</ele>
        <time>2015-12-13T08:30:12Z</time>
      </trkpt>
      <trkpt lat="50.78298" lon="3.77752">
        <ele>57</ele>
        <time>2015-12-13T08:30:13Z</time>
      </trkpt>
      <trkpt lat="50.78297" lon="3.77749">
        <ele>57</ele>
        <time>2015-12-13T08:30:14Z</time>
      </trkpt>
      <trkpt lat="50.78297" lon="3.77746">
        <ele>57</ele>
        <time>2015-12-13T08:30:15Z</time>
      </trkpt>
      <trkpt lat="50.78297" lon="3.77743">
        <ele>57</ele>
        <time>2015-12-13T08:30:16Z</time>
      </trkpt>
      <trkpt lat="50.78297" lon="3.7774">
        <ele>57</ele>
        <time>2015-12-13T08:30:17Z</time>
      </trkpt>
      <trkpt lat="50.78297" lon="3.77737">
        <ele>57</ele>
        <time>2015-12-13T08:30:18Z</time>
      </trkpt>
      <trkpt lat="50.78297" lon="3.77734">
        <ele>57</ele>
        <time>2015-12-13T08:30:19Z</time>
      </trkpt>
      <trkpt lat="50.78296" lon="3.77731">
        <ele>57</ele>
        <time>2015-12-13T08:30:20Z</time>
      </trkpt>
      <trkpt lat="50.78296" lon="3.77728">
        <ele>57</ele>
        <time>2015-12-13T08:30:21Z</time>
      </trkpt>
      <trkpt lat="50.78297" lon="3.77725">
        <ele>57.7</ele>
        <time>2015-12-13T08:30:22Z</time>
      </trkpt>
      <trkpt lat="50.78297" lon="3.77722">
        <ele>58</ele>
        <time>2015-12-13T08:30:23Z</time>
      </trkpt>
      <trkpt lat="50.78297" lon="3.77719">
        <ele>58</ele>
        <time>2015-12-13T08:30:24Z</time>
      </trkpt>
      <trkpt lat="50.78297" lon="3.77715">
        <ele>58</ele>
        <time>2015-12-13T08:30:25Z</time>
      </trkpt>
      <trkpt lat="50.78297" lon="3.77712">
        <ele>58</ele>
        <time>2015-12-13T08:30:26Z</time>
      </trkpt>
      <trkpt lat="50.78297" lon="3.77709">
        <ele>58</ele>
        <time>2015-12-13T08:30:27Z</time>
      </trkpt>
      <trkpt lat="50.78297" lon="3.77706">
        <ele>58</ele>
        <time>2015-12-13T08:30:28Z</time>
      </trkpt>
      <trkpt lat="50.78297" lon="3.77703">
        <ele>58</ele>
        <time>2015-12-13T08:30:29Z</time>
      </trkpt>
      <trkpt lat="50.78297" lon="3.777">
        <ele>58</ele>
        <time>2015-12-13T08:30:30Z</time>
      </trkpt>
      <trkpt lat="50.78297" lon="3.77697">
        <ele>58</ele>
        <time>2015-12-13T08:30:31Z</time>
      </trkpt>
      <trkpt lat="50.78297" lon="3.77694">
        <ele>58</ele>
        <time>2015-12-13T08:30:32Z</time>
      </trkpt>
      <trkpt lat="50.78297" lon="3.77691">
        <ele>58</ele>
        <time>2015-12-13T08:30:33Z</time>
      </trkpt>
      <trkpt lat="50.78297" lon="3.77688">
        <ele>58</ele>
        <time>2015-12-13T08:30:34Z</time>
      </trkpt>
      <trkpt lat="50.78297" lon="3.77684">
        <ele>58</ele>
        <time>2015-12-13T08:30:35Z</time>
      </trkpt>
      <trkpt lat="50.78297" lon="3.77681">
        <ele>58</ele>
        <time>2015-12-13T08:30:36Z</time>
      </trkpt>
      <trkpt lat="50.78298" lon="3.77679">
        <ele>58</ele>
        <time>2015-12-13T08:30:37Z</time>
      </trkpt>
      <trkpt lat="50.78298" lon="3.77675">
        <ele>58</ele>
        <time>2015-12-13T08:30:38Z</time>
      </trkpt>
      <trkpt lat="50.78298" lon="3.77672">
        <ele>58</ele>
        <time>2015-12-13T08:30:39Z</time>
      </trkpt>
      <trkpt lat="50.78297" lon="3.77669">
        <ele>58</ele>
        <time>2015-12-13T08:30:40Z</time>
      </trkpt>
      <trkpt lat="50.78297" lon="3.77666">
        <ele>58</ele>
        <time>2015-12-13T08:30:41Z</time>
      </trkpt>
      <trkpt lat="50.78297" lon="3.77663">
        <ele>58</ele>
        <time>2015-12-13T08:30:42Z</time>
      </trkpt>
      <trkpt lat="50.78297" lon="3.77659">
        <ele>58</ele>
        <time>2015-12-13T08:30:43Z</time>
      </trkpt>
      <trkpt lat="50.78297" lon="3.77656">
        <ele>58</ele>
        <time>2015-12-13T08:30:44Z</time>
      </trkpt>
      <trkpt lat="50.78297" lon="3.77653">
        <ele>58</ele>
        <time>2015-12-13T08:30:45Z</time>
      </trkpt>
      <trkpt lat="50.78297" lon="3.7765">
        <ele>58</ele>
        <time>2015-12-13T08:30:46Z</time>
      </trkpt>
      <trkpt lat="50.78297" lon="3.77647">
        <ele>58</ele>
        <time>2015-12-13T08:30:47Z</time>
      </trkpt>
      <trkpt lat="50.78297" lon="3.77641">
        <ele>58</ele>
        <time>2015-12-13T08:30:49Z</time>
      </trkpt>
      <trkpt lat="50.78297" lon="3.77638">
        <ele>58</ele>
        <time>2015-12-13T08:30:50Z</time>
      </trkpt>
      <trkpt lat="50.78297" lon="3.77635">
        <ele>58</ele>
        <time>2015-12-13T08:30:51Z</time>
      </trkpt>
      <trkpt lat="50.78297" lon="3.77631">
        <ele>59.1</ele>
        <time>2015-12-13T08:30:52Z</time>
      </trkpt>
      <trkpt lat="50.78297" lon="3.77628">
        <ele>60</ele>
        <time>2015-12-13T08:30:53Z</time>
      </trkpt>
      <trkpt lat="50.78297" lon="3.77624">
        <ele>60</ele>
        <time>2015-12-13T08:30:54Z</time>
      </trkpt>
      <trkpt lat="50.78296" lon="3.77621">
        <ele>60</ele>
        <time>2015-12-13T08:30:55Z</time>
      </trkpt>
      <trkpt lat="50.78296" lon="3.77618">
        <ele>60</ele>
        <time>2015-12-13T08:30:56Z</time>
      </trkpt>
      <trkpt lat="50.78296" lon="3.77615">
        <ele>60</ele>
        <time>2015-12-13T08:30:57Z</time>
      </trkpt>
      <trkpt lat="50.78296" lon="3.77611">
        <ele>60</ele>
        <time>2015-12-13T08:30:58Z</time>
      </trkpt>
      <trkpt lat="50.78295" lon="3.77608">
        <ele>60</ele>
        <time>2015-12-13T08:30:59Z</time>
      </trkpt>
      <trkpt lat="50.78295" lon="3.77605">
        <ele>60</ele>
        <time>2015-12-13T08:31:00Z</time>
      </trkpt>
      <trkpt lat="50.78295" lon="3.77602">
        <ele>61.4</ele>
        <time>2015-12-13T08:31:01Z</time>
      </trkpt>
      <trkpt lat="50.78294" lon="3.77599">
        <ele>62</ele>
        <time>2015-12-13T08:31:02Z</time>
      </trkpt>
      <trkpt lat="50.78294" lon="3.77595">
        <ele>62</ele>
        <time>2015-12-13T08:31:03Z</time>
      </trkpt>
      <trkpt lat="50.78293" lon="3.77592">
        <ele>62</ele>
        <time>2015-12-13T08:31:04Z</time>
      </trkpt>
      <trkpt lat="50.78293" lon="3.77589">
        <ele>62</ele>
        <time>2015-12-13T08:31:05Z</time>
      </trkpt>
      <trkpt lat="50.78292" lon="3.77586">
        <ele>62</ele>
        <time>2015-12-13T08:31:06Z</time>
      </trkpt>
      <trkpt lat="50.78292" lon="3.77582">
        <ele>62</ele>
        <time>2015-12-13T08:31:07Z</time>
      </trkpt>
      <trkpt lat="50.78291" lon="3.77579">
        <ele>62</ele>
        <time>2015-12-13T08:31:08Z</time>
      </trkpt>
      <trkpt lat="50.7829" lon="3.77576">
        <ele>62</ele>
        <time>2015-12-13T08:31:09Z</time>
      </trkpt>
      <trkpt lat="50.7829" lon="3.77572">
        <ele>62</ele>
        <time>2015-12-13T08:31:10Z</time>
      </trkpt>
      <trkpt lat="50.78289" lon="3.77569">
        <ele>62</ele>
        <time>2015-12-13T08:31:11Z</time>
      </trkpt>
      <trkpt lat="50.78288" lon="3.77565">
        <ele>62</ele>
        <time>2015-12-13T08:31:12Z</time>
      </trkpt>
      <trkpt lat="50.78287" lon="3.77562">
        <ele>62</ele>
        <time>2015-12-13T08:31:13Z</time>
      </trkpt>
      <trkpt lat="50.78287" lon="3.77558">
        <ele>62</ele>
        <time>2015-12-13T08:31:14Z</time>
      </trkpt>
      <trkpt lat="50.78286" lon="3.77555">
        <ele>62</ele>
        <time>2015-12-13T08:31:15Z</time>
      </trkpt>
      <trkpt lat="50.78285" lon="3.77552">
        <ele>62</ele>
        <time>2015-12-13T08:31:16Z</time>
      </trkpt>
      <trkpt lat="50.78284" lon="3.77548">
        <ele>62</ele>
        <time>2015-12-13T08:31:17Z</time>
      </trkpt>
      <trkpt lat="50.78283" lon="3.77545">
        <ele>62</ele>
        <time>2015-12-13T08:31:18Z</time>
      </trkpt>
      <trkpt lat="50.78282" lon="3.77542">
        <ele>62</ele>
        <time>2015-12-13T08:31:19Z</time>
      </trkpt>
      <trkpt lat="50.78281" lon="3.77538">
        <ele>62</ele>
        <time>2015-12-13T08:31:20Z</time>
      </trkpt>
      <trkpt lat="50.7828" lon="3.77535">
        <ele>62.7</ele>
        <time>2015-12-13T08:31:21Z</time>
      </trkpt>
      <trkpt lat="50.78279" lon="3.77532">
        <ele>63</ele>
        <time>2015-12-13T08:31:22Z</time>
      </trkpt>
      <trkpt lat="50.78278" lon="3.77529">
        <ele>63</ele>
        <time>2015-12-13T08:31:23Z</time>
      </trkpt>
      <trkpt lat="50.78277" lon="3.77526">
        <ele>63</ele>
        <time>2015-12-13T08:31:24Z</time>
      </trkpt>
      <trkpt lat="50.78276" lon="3.77523">
        <ele>63</ele>
        <time>2015-12-13T08:31:25Z</time>
      </trkpt>
      <trkpt lat="50.78274" lon="3.7752">
        <ele>63</ele>
        <time>2015-12-13T08:31:26Z</time>
      </trkpt>
      <trkpt lat="50.78273" lon="3.77517">
        <ele>63</ele>
        <time>2015-12-13T08:31:27Z</time>
      </trkpt>
      <trkpt lat="50.78272" lon="3.77514">
        <ele>63</ele>
        <time>2015-12-13T08:31:28Z</time>
      </trkpt>
      <trkpt lat="50.7827" lon="3.77511">
        <ele>63</ele>
        <time>2015-12-13T08:31:29Z</time>
      </trkpt>
      <trkpt lat="50.78269" lon="3.77508">
        <ele>63</ele>
        <time>2015-12-13T08:31:30Z</time>
      </trkpt>
      <trkpt lat="50.78268" lon="3.77506">
        <ele>63</ele>
        <time>2015-12-13T08:31:31Z</time>
      </trkpt>
      <trkpt lat="50.78267" lon="3.77503">
        <ele>63</ele>
        <time>2015-12-13T08:31:32Z</time>
      </trkpt>
      <trkpt lat="50.78265" lon="3.775">
        <ele>63</ele>
        <time>2015-12-13T08:31:33Z</time>
      </trkpt>
      <trkpt lat="50.78264" lon="3.77497">
        <ele>63</ele>
        <time>2015-12-13T08:31:34Z</time>
      </trkpt>
      <trkpt lat="50.78263" lon="3.77495">
        <ele>63</ele>
        <time>2015-12-13T08:31:35Z</time>
      </trkpt>
      <trkpt lat="50.78262" lon="3.77492">
        <ele>63</ele>
        <time>2015-12-13T08:31:36Z</time>
      </trkpt>
      <trkpt lat="50.7826" lon="3.7749">
        <ele>63</ele>
        <time>2015-12-13T08:31:37Z</time>
      </trkpt>
      <trkpt lat="50.78259" lon="3.77487">
        <ele>63</ele>
        <time>2015-12-13T08:31:38Z</time>
      </trkpt>
      <trkpt lat="50.78257" lon="3.77485">
        <ele>63</ele>
        <time>2015-12-13T08:31:39Z</time>
      </trkpt>
      <trkpt lat="50.78256" lon="3.77482">
        <ele>63</ele>
        <time>2015-12-13T08:31:40Z</time>
      </trkpt>
      <trkpt lat="50.78255" lon="3.7748">
        <ele>63.7</ele>
        <time>2015-12-13T08:31:41Z</time>
      </trkpt>
      <trkpt lat="50.78253" lon="3.77477">
        <ele>64</ele>
        <time>2015-12-13T08:31:42Z</time>
      </trkpt>
      <trkpt lat="50.78252" lon="3.77475">
        <ele>64</ele>
        <time>2015-12-13T08:31:43Z</time>
      </trkpt>
      <trkpt lat="50.78251" lon="3.77472">
        <ele>64</ele>
        <time>2015-12-13T08:31:44Z</time>
      </trkpt>
      <trkpt lat="50.78249" lon="3.77469">
        <ele>64</ele>
        <time>2015-12-13T08:31:45Z</time>
      </trkpt>
      <trkpt lat="50.78248" lon="3.77467">
        <ele>64</ele>
        <time>2015-12-13T08:31:46Z</time>
      </trkpt>
      <trkpt lat="50.78247" lon="3.77465">
        <ele>64</ele>
        <time>2015-12-13T08:31:47Z</time>
      </trkpt>
      <trkpt lat="50.78245" lon="3.77462">
        <ele>64</ele>
        <time>2015-12-13T08:31:48Z</time>
      </trkpt>
      <trkpt lat="50.78244" lon="3.7746">
        <ele>64</ele>
        <time>2015-12-13T08:31:49Z</time>
      </trkpt>
      <trkpt lat="50.78243" lon="3.77457">
        <ele>64</ele>
        <time>2015-12-13T08:31:50Z</time>
      </trkpt>
      <trkpt lat="50.78242" lon="3.77455">
        <ele>65.3</ele>
        <time>2015-12-13T08:31:51Z</time>
      </trkpt>
      <trkpt lat="50.7824" lon="3.77452">
        <ele>66</ele>
        <time>2015-12-13T08:31:52Z</time>
      </trkpt>
      <trkpt lat="50.78239" lon="3.7745">
        <ele>66</ele>
        <time>2015-12-13T08:31:53Z</time>
      </trkpt>
      <trkpt lat="50.78238" lon="3.77447">
        <ele>66</ele>
        <time>2015-12-13T08:31:54Z</time>
      </trkpt>
      <trkpt lat="50.78237" lon="3.77445">
        <ele>66</ele>
        <time>2015-12-13T08:31:55Z</time>
      </trkpt>
      <trkpt lat="50.78235" lon="3.77442">
        <ele>66</ele>
        <time>2015-12-13T08:31:56Z</time>
      </trkpt>
      <trkpt lat="50.78234" lon="3.7744">
        <ele>66</ele>
        <time>2015-12-13T08:31:57Z</time>
      </trkpt>
      <trkpt lat="50.78233" lon="3.77437">
        <ele>66</ele>
        <time>2015-12-13T08:31:58Z</time>
      </trkpt>
      <trkpt lat="50.78231" lon="3.77434">
        <ele>66</ele>
        <time>2015-12-13T08:31:59Z</time>
      </trkpt>
      <trkpt lat="50.7823" lon="3.77432">
        <ele>66</ele>
        <time>2015-12-13T08:32:00Z</time>
      </trkpt>
      <trkpt lat="50.78229" lon="3.7743">
        <ele>66.5</ele>
        <time>2015-12-13T08:32:01Z</time>
      </trkpt>
      <trkpt lat="50.78227" lon="3.77427">
        <ele>67</ele>
        <time>2015-12-13T08:32:02Z</time>
      </trkpt>
      <trkpt lat="50.78226" lon="3.77425">
        <ele>67</ele>
        <time>2015-12-13T08:32:03Z</time>
      </trkpt>
      <trkpt lat="50.78224" lon="3.77423">
        <ele>67</ele>
        <time>2015-12-13T08:32:04Z</time>
      </trkpt>
      <trkpt lat="50.78223" lon="3.7742">
        <ele>67</ele>
        <time>2015-12-13T08:32:05Z</time>
      </trkpt>
      <trkpt lat="50.78222" lon="3.77418">
        <ele>67</ele>
        <time>2015-12-13T08:32:06Z</time>
      </trkpt>
      <trkpt lat="50.7822" lon="3.77415">
        <ele>67</ele>
        <time>2015-12-13T08:32:07Z</time>
      </trkpt>
      <trkpt lat="50.78219" lon="3.77413">
        <ele>67</ele>
        <time>2015-12-13T08:32:08Z</time>
      </trkpt>
      <trkpt lat="50.78218" lon="3.7741">
        <ele>67</ele>
        <time>2015-12-13T08:32:09Z</time>
      </trkpt>
      <trkpt lat="50.78216" lon="3.77408">
        <ele>67</ele>
        <time>2015-12-13T08:32:10Z</time>
      </trkpt>
      <trkpt lat="50.78215" lon="3.77405">
        <ele>67</ele>
        <time>2015-12-13T08:32:11Z</time>
      </trkpt>
      <trkpt lat="50.78214" lon="3.77402">
        <ele>67</ele>
        <time>2015-12-13T08:32:12Z</time>
      </trkpt>
      <trkpt lat="50.78212" lon="3.774">
        <ele>67</ele>
        <time>2015-12-13T08:32:13Z</time>
      </trkpt>
      <trkpt lat="50.78211" lon="3.77397">
        <ele>67</ele>
        <time>2015-12-13T08:32:14Z</time>
      </trkpt>
      <trkpt lat="50.7821" lon="3.77394">
        <ele>67</ele>
        <time>2015-12-13T08:32:15Z</time>
      </trkpt>
      <trkpt lat="50.78209" lon="3.77392">
        <ele>67</ele>
        <time>2015-12-13T08:32:16Z</time>
      </trkpt>
      <trkpt lat="50.78207" lon="3.7739">
        <ele>67</ele>
        <time>2015-12-13T08:32:17Z</time>
      </trkpt>
      <trkpt lat="50.78206" lon="3.77387">
        <ele>67</ele>
        <time>2015-12-13T08:32:18Z</time>
      </trkpt>
      <trkpt lat="50.78205" lon="3.77385">
        <ele>67</ele>
        <time>2015-12-13T08:32:19Z</time>
      </trkpt>
      <trkpt lat="50.78203" lon="3.77382">
        <ele>67</ele>
        <time>2015-12-13T08:32:20Z</time>
      </trkpt>
      <trkpt lat="50.78202" lon="3.7738">
        <ele>67.5</ele>
        <time>2015-12-13T08:32:21Z</time>
      </trkpt>
      <trkpt lat="50.78201" lon="3.77377">
        <ele>68</ele>
        <time>2015-12-13T08:32:22Z</time>
      </trkpt>
      <trkpt lat="50.782" lon="3.77375">
        <ele>68</ele>
        <time>2015-12-13T08:32:23Z</time>
      </trkpt>
      <trkpt lat="50.78198" lon="3.77372">
        <ele>68</ele>
        <time>2015-12-13T08:32:24Z</time>
      </trkpt>
      <trkpt lat="50.78197" lon="3.7737">
        <ele>68</ele>
        <time>2015-12-13T08:32:25Z</time>
      </trkpt>
      <trkpt lat="50.78197" lon="3.77367">
        <ele>68</ele>
        <time>2015-12-13T08:32:26Z</time>
      </trkpt>
      <trkpt lat="50.78196" lon="3.77364">
        <ele>68</ele>
        <time>2015-12-13T08:32:27Z</time>
      </trkpt>
      <trkpt lat="50.78196" lon="3.77361">
        <ele>68</ele>
        <time>2015-12-13T08:32:28Z</time>
      </trkpt>
      <trkpt lat="50.78197" lon="3.77358">
        <ele>68</ele>
        <time>2015-12-13T08:32:29Z</time>
      </trkpt>
      <trkpt lat="50.78198" lon="3.77356">
        <ele>68</ele>
        <time>2015-12-13T08:32:30Z</time>
      </trkpt>
      <trkpt lat="50.78199" lon="3.77353">
        <ele>68.7</ele>
        <time>2015-12-13T08:32:31Z</time>
      </trkpt>
      <trkpt lat="50.78201" lon="3.77351">
        <ele>69</ele>
        <time>2015-12-13T08:32:32Z</time>
      </trkpt>
      <trkpt lat="50.78203" lon="3.77349">
        <ele>69</ele>
        <time>2015-12-13T08:32:33Z</time>
      </trkpt>
      <trkpt lat="50.78204" lon="3.77347">
        <ele>69</ele>
        <time>2015-12-13T08:32:34Z</time>
      </trkpt>
      <trkpt lat="50.78206" lon="3.77344">
        <ele>69</ele>
        <time>2015-12-13T08:32:35Z</time>
      </trkpt>
      <trkpt lat="50.78207" lon="3.77342">
        <ele>69</ele>
        <time>2015-12-13T08:32:36Z</time>
      </trkpt>
      <trkpt lat="50.78209" lon="3.7734">
        <ele>69</ele>
        <time>2015-12-13T08:32:37Z</time>
      </trkpt>
      <trkpt lat="50.78211" lon="3.77337">
        <ele>69</ele>
        <time>2015-12-13T08:32:38Z</time>
      </trkpt>
      <trkpt lat="50.78212" lon="3.77335">
        <ele>69</ele>
        <time>2015-12-13T08:32:39Z</time>
      </trkpt>
      <trkpt lat="50.78214" lon="3.77333">
        <ele>69</ele>
        <time>2015-12-13T08:32:40Z</time>
      </trkpt>
      <trkpt lat="50.78216" lon="3.7733">
        <ele>69</ele>
        <time>2015-12-13T08:32:41Z</time>
      </trkpt>
      <trkpt lat="50.78217" lon="3.77328">
        <ele>69</ele>
        <time>2015-12-13T08:32:42Z</time>
      </trkpt>
      <trkpt lat="50.78219" lon="3.77326">
        <ele>69</ele>
        <time>2015-12-13T08:32:43Z</time>
      </trkpt>
      <trkpt lat="50.78221" lon="3.77323">
        <ele>69</ele>
        <time>2015-12-13T08:32:44Z</time>
      </trkpt>
      <trkpt lat="50.78223" lon="3.77321">
        <ele>69</ele>
        <time>2015-12-13T08:32:45Z</time>
      </trkpt>
      <trkpt lat="50.78224" lon="3.77318">
        <ele>69</ele>
        <time>2015-12-13T08:32:46Z</time>
      </trkpt>
      <trkpt lat="50.78226" lon="3.77315">
        <ele>69</ele>
        <time>2015-12-13T08:32:47Z</time>
      </trkpt>
      <trkpt lat="50.78227" lon="3.77313">
        <ele>69</ele>
        <time>2015-12-13T08:32:48Z</time>
      </trkpt>
      <trkpt lat="50.78229" lon="3.7731">
        <ele>69</ele>
        <time>2015-12-13T08:32:49Z</time>
      </trkpt>
      <trkpt lat="50.78231" lon="3.77308">
        <ele>69</ele>
        <time>2015-12-13T08:32:50Z</time>
      </trkpt>
      <trkpt lat="50.78232" lon="3.77305">
        <ele>68.3</ele>
        <time>2015-12-13T08:32:51Z</time>
      </trkpt>
      <trkpt lat="50.78233" lon="3.77302">
        <ele>68</ele>
        <time>2015-12-13T08:32:52Z</time>
      </trkpt>
      <trkpt lat="50.78235" lon="3.77298">
        <ele>68</ele>
        <time>2015-12-13T08:32:54Z</time>
      </trkpt>
      <trkpt lat="50.78237" lon="3.77294">
        <ele>68</ele>
        <time>2015-12-13T08:32:56Z</time>
      </trkpt>
      <trkpt lat="50.78238" lon="3.7729">
        <ele>68</ele>
        <time>2015-12-13T08:32:58Z</time>
      </trkpt>
      <trkpt lat="50.7824" lon="3.77286">
        <ele>68</ele>
        <time>2015-12-13T08:33:00Z</time>
      </trkpt>
      <trkpt lat="50.78241" lon="3.77282">
        <ele>67.3</ele>
        <time>2015-12-13T08:33:02Z</time>
      </trkpt>
      <trkpt lat="50.78242" lon="3.77279">
        <ele>67</ele>
        <time>2015-12-13T08:33:04Z</time>
      </trkpt>
      <trkpt lat="50.78242" lon="3.77275">
        <ele>67</ele>
        <time>2015-12-13T08:33:06Z</time>
      </trkpt>
      <trkpt lat="50.78243" lon="3.77272">
        <ele>67</ele>
        <time>2015-12-13T08:33:08Z</time>
      </trkpt>
      <trkpt lat="50.78244" lon="3.77269">
        <ele>67</ele>
        <time>2015-12-13T08:33:10Z</time>
      </trkpt>
      <trkpt lat="50.78245" lon="3.77265">
        <ele>67</ele>
        <time>2015-12-13T08:33:12Z</time>
      </trkpt>
      <trkpt lat="50.78246" lon="3.77262">
        <ele>67</ele>
        <time>2015-12-13T08:33:14Z</time>
      </trkpt>
      <trkpt lat="50.78248" lon="3.77259">
        <ele>67</ele>
        <time>2015-12-13T08:33:16Z</time>
      </trkpt>
      <trkpt lat="50.7825" lon="3.77255">
        <ele>67</ele>
        <time>2015-12-13T08:33:18Z</time>
      </trkpt>
      <trkpt lat="50.78251" lon="3.77252">
        <ele>67</ele>
        <time>2015-12-13T08:33:20Z</time>
      </trkpt>
      <trkpt lat="50.78253" lon="3.77249">
        <ele>67</ele>
        <time>2015-12-13T08:33:22Z</time>
      </trkpt>
      <trkpt lat="50.78255" lon="3.77246">
        <ele>67</ele>
        <time>2015-12-13T08:33:24Z</time>
      </trkpt>
      <trkpt lat="50.78257" lon="3.77243">
        <ele>67</ele>
        <time>2015-12-13T08:33:26Z</time>
      </trkpt>
      <trkpt lat="50.78259" lon="3.7724">
        <ele>67</ele>
        <time>2015-12-13T08:33:28Z</time>
      </trkpt>
      <trkpt lat="50.78261" lon="3.77237">
        <ele>67</ele>
        <time>2015-12-13T08:33:30Z</time>
      </trkpt>
      <trkpt lat="50.78263" lon="3.77234">
        <ele>67</ele>
        <time>2015-12-13T08:33:32Z</time>
      </trkpt>
      <trkpt lat="50.78266" lon="3.77231">
        <ele>67</ele>
        <time>2015-12-13T08:33:34Z</time>
      </trkpt>
      <trkpt lat="50.78268" lon="3.77228">
        <ele>67</ele>
        <time>2015-12-13T08:33:36Z</time>
      </trkpt>
      <trkpt lat="50.7827" lon="3.77225">
        <ele>67</ele>
        <time>2015-12-13T08:33:38Z</time>
      </trkpt>
      <trkpt lat="50.78272" lon="3.77222">
        <ele>67</ele>
        <time>2015-12-13T08:33:40Z</time>
      </trkpt>
      <trkpt lat="50.78274" lon="3.77219">
        <ele>67</ele>
        <time>2015-12-13T08:33:42Z</time>
      </trkpt>
      <trkpt lat="50.78277" lon="3.77216">
        <ele>67</ele>
        <time>2015-12-13T08:33:44Z</time>
      </trkpt>
      <trkpt lat="50.78279" lon="3.77214">
        <ele>67</ele>
        <time>2015-12-13T08:33:46Z</time>
      </trkpt>
      <trkpt lat="50.78281" lon="3.77211">
        <ele>67</ele>
        <time>2015-12-13T08:33:49Z</time>
      </trkpt>
      <trkpt lat="50.78282" lon="3.77209">
        <ele>67</ele>
        <time>2015-12-13T08:33:51Z</time>
      </trkpt>
      <trkpt lat="50.78285" lon="3.77207">
        <ele>67</ele>
        <time>2015-12-13T08:33:53Z</time>
      </trkpt>
      <trkpt lat="50.78287" lon="3.77204">
        <ele>67</ele>
        <time>2015-12-13T08:33:55Z</time>
      </trkpt>
      <trkpt lat="50.78289" lon="3.77201">
        <ele>67</ele>
        <time>2015-12-13T08:33:57Z</time>
      </trkpt>
      <trkpt lat="50.78291" lon="3.77199">
        <ele>67</ele>
        <time>2015-12-13T08:33:59Z</time>
      </trkpt>
      <trkpt lat="50.78293" lon="3.77196">
        <ele>67</ele>
        <time>2015-12-13T08:34:01Z</time>
      </trkpt>
      <trkpt lat="50.78295" lon="3.77194">
        <ele>67</ele>
        <time>2015-12-13T08:34:03Z</time>
      </trkpt>
      <trkpt lat="50.78297" lon="3.7719">
        <ele>67</ele>
        <time>2015-12-13T08:34:05Z</time>
      </trkpt>
      <trkpt lat="50.78299" lon="3.77187">
        <ele>67</ele>
        <time>2015-12-13T08:34:07Z</time>
      </trkpt>
      <trkpt lat="50.78301" lon="3.77184">
        <ele>67</ele>
        <time>2015-12-13T08:34:09Z</time>
      </trkpt>
      <trkpt lat="50.78303" lon="3.7718">
        <ele>67</ele>
        <time>2015-12-13T08:34:11Z</time>
      </trkpt>
      <trkpt lat="50.78306" lon="3.77177">
        <ele>67</ele>
        <time>2015-12-13T08:34:13Z</time>
      </trkpt>
      <trkpt lat="50.78308" lon="3.77174">
        <ele>67</ele>
        <time>2015-12-13T08:34:15Z</time>
      </trkpt>
      <trkpt lat="50.7831" lon="3.77171">
        <ele>67</ele>
        <time>2015-12-13T08:34:17Z</time>
      </trkpt>
      <trkpt lat="50.78312" lon="3.77168">
        <ele>67</ele>
        <time>2015-12-13T08:34:19Z</time>
      </trkpt>
      <trkpt lat="50.78313" lon="3.77164">
        <ele>67</ele>
        <time>2015-12-13T08:34:21Z</time>
      </trkpt>
      <trkpt lat="50.78315" lon="3.77162">
        <ele>67</ele>
        <time>2015-12-13T08:34:23Z</time>
      </trkpt>
      <trkpt lat="50.78317" lon="3.77159">
        <ele>67</ele>
        <time>2015-12-13T08:34:25Z</time>
      </trkpt>
      <trkpt lat="50.78319" lon="3.77156">
        <ele>67</ele>
        <time>2015-12-13T08:34:27Z</time>
      </trkpt>
      <trkpt lat="50.78321" lon="3.77153">
        <ele>67</ele>
        <time>2015-12-13T08:34:29Z</time>
      </trkpt>
      <trkpt lat="50.78323" lon="3.77151">
        <ele>67</ele>
        <time>2015-12-13T08:34:31Z</time>
      </trkpt>
      <trkpt lat="50.78325" lon="3.77148">
        <ele>67</ele>
        <time>2015-12-13T08:34:33Z</time>
      </trkpt>
      <trkpt lat="50.78326" lon="3.77146">
        <ele>67</ele>
        <time>2015-12-13T08:34:35Z</time>
      </trkpt>
      <trkpt lat="50.78328" lon="3.77143">
        <ele>67</ele>
        <time>2015-12-13T08:34:37Z</time>
      </trkpt>
      <trkpt lat="50.7833" lon="3.7714">
        <ele>67</ele>
        <time>2015-12-13T08:34:39Z</time>
      </trkpt>
      <trkpt lat="50.78332" lon="3.77136">
        <ele>67</ele>
        <time>2015-12-13T08:34:41Z</time>
      </trkpt>
      <trkpt lat="50.78334" lon="3.77133">
        <ele>67</ele>
        <time>2015-12-13T08:34:43Z</time>
      </trkpt>
      <trkpt lat="50.78336" lon="3.7713">
        <ele>67</ele>
        <time>2015-12-13T08:34:45Z</time>
      </trkpt>
      <trkpt lat="50.78338" lon="3.77126">
        <ele>67</ele>
        <time>2015-12-13T08:34:47Z</time>
      </trkpt>
      <trkpt lat="50.78341" lon="3.77122">
        <ele>67</ele>
        <time>2015-12-13T08:34:49Z</time>
      </trkpt>
      <trkpt lat="50.78342" lon="3.7712">
        <ele>67</ele>
        <time>2015-12-13T08:34:50Z</time>
      </trkpt>
      <trkpt lat="50.78343" lon="3.77117">
        <ele>67</ele>
        <time>2015-12-13T08:34:51Z</time>
      </trkpt>
      <trkpt lat="50.78344" lon="3.77114">
        <ele>67</ele>
        <time>2015-12-13T08:34:52Z</time>
      </trkpt>
      <trkpt lat="50.78344" lon="3.77111">
        <ele>67</ele>
        <time>2015-12-13T08:34:53Z</time>
      </trkpt>
      <trkpt lat="50.78344" lon="3.77107">
        <ele>67</ele>
        <time>2015-12-13T08:34:55Z</time>
      </trkpt>
      <trkpt lat="50.78343" lon="3.77103">
        <ele>67</ele>
        <time>2015-12-13T08:34:57Z</time>
      </trkpt>
      <trkpt lat="50.78342" lon="3.771">
        <ele>67</ele>
        <time>2015-12-13T08:34:59Z</time>
      </trkpt>
      <trkpt lat="50.78341" lon="3.77095">
        <ele>68.4</ele>
        <time>2015-12-13T08:35:01Z</time>
      </trkpt>
      <trkpt lat="50.7834" lon="3.7709">
        <ele>69</ele>
        <time>2015-12-13T08:35:03Z</time>
      </trkpt>
      <trkpt lat="50.7834" lon="3.77086">
        <ele>69</ele>
        <time>2015-12-13T08:35:05Z</time>
      </trkpt>
      <trkpt lat="50.78339" lon="3.77082">
        <ele>69</ele>
        <time>2015-12-13T08:35:07Z</time>
      </trkpt>
      <trkpt lat="50.78338" lon="3.77078">
        <ele>69</ele>
        <time>2015-12-13T08:35:09Z</time>
      </trkpt>
      <trkpt lat="50.78337" lon="3.77074">
        <ele>69</ele>
        <time>2015-12-13T08:35:11Z</time>
      </trkpt>
      <trkpt lat="50.78336" lon="3.77069">
        <ele>69</ele>
        <time>2015-12-13T08:35:13Z</time>
      </trkpt>
      <trkpt lat="50.78335" lon="3.77065">
        <ele>69</ele>
        <time>2015-12-13T08:35:15Z</time>
      </trkpt>
      <trkpt lat="50.78334" lon="3.77061">
        <ele>69</ele>
        <time>2015-12-13T08:35:17Z</time>
      </trkpt>
      <trkpt lat="50.78333" lon="3.77058">
        <ele>69</ele>
        <time>2015-12-13T08:35:19Z</time>
      </trkpt>
      <trkpt lat="50.78332" lon="3.77055">
        <ele>70</ele>
        <time>2015-12-13T08:35:23Z</time>
      </trkpt>
      <trkpt lat="50.78332" lon="3.77051">
        <ele>70</ele>
        <time>2015-12-13T08:36:18Z</time>
      </trkpt>
      <trkpt lat="50.78331" lon="3.77047">
        <ele>70</ele>
        <time>2015-12-13T08:36:20Z</time>
      </trkpt>
      <trkpt lat="50.7833" lon="3.77044">
        <ele>71</ele>
        <time>2015-12-13T08:36:22Z</time>
      </trkpt>
      <trkpt lat="50.78329" lon="3.7704">
        <ele>71</ele>
        <time>2015-12-13T08:36:24Z</time>
      </trkpt>
      <trkpt lat="50.78328" lon="3.77037">
        <ele>71</ele>
        <time>2015-12-13T08:36:26Z</time>
      </trkpt>
      <trkpt lat="50.78327" lon="3.77033">
        <ele>71</ele>
        <time>2015-12-13T08:36:28Z</time>
      </trkpt>
      <trkpt lat="50.78326" lon="3.7703">
        <ele>71</ele>
        <time>2015-12-13T08:36:30Z</time>
      </trkpt>
      <trkpt lat="50.78324" lon="3.77025">
        <ele>73</ele>
        <time>2015-12-13T08:36:32Z</time>
      </trkpt>
      <trkpt lat="50.78323" lon="3.77021">
        <ele>73</ele>
        <time>2015-12-13T08:36:34Z</time>
      </trkpt>
      <trkpt lat="50.78322" lon="3.77017">
        <ele>73</ele>
        <time>2015-12-13T08:36:36Z</time>
      </trkpt>
      <trkpt lat="50.78321" lon="3.77015">
        <ele>73</ele>
        <time>2015-12-13T08:36:38Z</time>
      </trkpt>
      <trkpt lat="50.7832" lon="3.77012">
        <ele>73</ele>
        <time>2015-12-13T08:36:40Z</time>
      </trkpt>
      <trkpt lat="50.78319" lon="3.77008">
        <ele>73</ele>
        <time>2015-12-13T08:36:42Z</time>
      </trkpt>
      <trkpt lat="50.78317" lon="3.77004">
        <ele>73</ele>
        <time>2015-12-13T08:36:44Z</time>
      </trkpt>
      <trkpt lat="50.78316" lon="3.77">
        <ele>73</ele>
        <time>2015-12-13T08:36:46Z</time>
      </trkpt>
      <trkpt lat="50.78315" lon="3.76996">
        <ele>73</ele>
        <time>2015-12-13T08:36:48Z</time>
      </trkpt>
      <trkpt lat="50.78315" lon="3.76993">
        <ele>73</ele>
        <time>2015-12-13T08:36:50Z</time>
      </trkpt>
      <trkpt lat="50.78314" lon="3.76989">
        <ele>75</ele>
        <time>2015-12-13T08:36:52Z</time>
      </trkpt>
      <trkpt lat="50.78314" lon="3.76985">
        <ele>75</ele>
        <time>2015-12-13T08:36:54Z</time>
      </trkpt>
      <trkpt lat="50.78313" lon="3.76982">
        <ele>75</ele>
        <time>2015-12-13T08:36:56Z</time>
      </trkpt>
      <trkpt lat="50.78311" lon="3.7698">
        <ele>75</ele>
        <time>2015-12-13T08:36:59Z</time>
      </trkpt>
      <trkpt lat="50.78309" lon="3.76977">
        <ele>76.4</ele>
        <time>2015-12-13T08:37:01Z</time>
      </trkpt>
      <trkpt lat="50.78307" lon="3.76975">
        <ele>77</ele>
        <time>2015-12-13T08:37:03Z</time>
      </trkpt>
      <trkpt lat="50.78305" lon="3.76972">
        <ele>77</ele>
        <time>2015-12-13T08:37:05Z</time>
      </trkpt>
      <trkpt lat="50.78302" lon="3.76971">
        <ele>77</ele>
        <time>2015-12-13T08:37:07Z</time>
      </trkpt>
      <trkpt lat="50.78299" lon="3.7697">
        <ele>77</ele>
        <time>2015-12-13T08:37:09Z</time>
      </trkpt>
      <trkpt lat="50.78297" lon="3.76969">
        <ele>77</ele>
        <time>2015-12-13T08:37:11Z</time>
      </trkpt>
      <trkpt lat="50.78294" lon="3.76968">
        <ele>77</ele>
        <time>2015-12-13T08:37:13Z</time>
      </trkpt>
      <trkpt lat="50.78291" lon="3.76967">
        <ele>77</ele>
        <time>2015-12-13T08:37:15Z</time>
      </trkpt>
      <trkpt lat="50.78289" lon="3.76966">
        <ele>77</ele>
        <time>2015-12-13T08:37:17Z</time>
      </trkpt>
      <trkpt lat="50.78286" lon="3.76964">
        <ele>77</ele>
        <time>2015-12-13T08:37:19Z</time>
      </trkpt>
      <trkpt lat="50.78284" lon="3.76963">
        <ele>77.7</ele>
        <time>2015-12-13T08:37:21Z</time>
      </trkpt>
      <trkpt lat="50.78281" lon="3.76961">
        <ele>78</ele>
        <time>2015-12-13T08:37:23Z</time>
      </trkpt>
      <trkpt lat="50.78279" lon="3.7696">
        <ele>78</ele>
        <time>2015-12-13T08:37:25Z</time>
      </trkpt>
      <trkpt lat="50.78276" lon="3.76959">
        <ele>78</ele>
        <time>2015-12-13T08:37:27Z</time>
      </trkpt>
      <trkpt lat="50.78274" lon="3.76957">
        <ele>78</ele>
        <time>2015-12-13T08:37:29Z</time>
      </trkpt>
      <trkpt lat="50.78272" lon="3.76955">
        <ele>78.7</ele>
        <time>2015-12-13T08:37:31Z</time>
      </trkpt>
      <trkpt lat="50.78269" lon="3.76954">
        <ele>79</ele>
        <time>2015-12-13T08:37:33Z</time>
      </trkpt>
      <trkpt lat="50.78267" lon="3.76952">
        <ele>79</ele>
        <time>2015-12-13T08:37:35Z</time>
      </trkpt>
      <trkpt lat="50.78265" lon="3.7695">
        <ele>79</ele>
        <time>2015-12-13T08:37:37Z</time>
      </trkpt>
      <trkpt lat="50.78263" lon="3.76947">
        <ele>79</ele>
        <time>2015-12-13T08:37:39Z</time>
      </trkpt>
      <trkpt lat="50.78261" lon="3.76945">
        <ele>79.7</ele>
        <time>2015-12-13T08:37:41Z</time>
      </trkpt>
      <trkpt lat="50.78259" lon="3.76943">
        <ele>80</ele>
        <time>2015-12-13T08:37:43Z</time>
      </trkpt>
      <trkpt lat="50.78257" lon="3.7694">
        <ele>80</ele>
        <time>2015-12-13T08:37:45Z</time>
      </trkpt>
      <trkpt lat="50.78255" lon="3.76938">
        <ele>80</ele>
        <time>2015-12-13T08:37:47Z</time>
      </trkpt>
      <trkpt lat="50.78253" lon="3.76935">
        <ele>80</ele>
        <time>2015-12-13T08:37:49Z</time>
      </trkpt>
      <trkpt lat="50.78251" lon="3.76933">
        <ele>80.7</ele>
        <time>2015-12-13T08:37:51Z</time>
      </trkpt>
      <trkpt lat="50.78248" lon="3.76931">
        <ele>81</ele>
        <time>2015-12-13T08:37:53Z</time>
      </trkpt>
      <trkpt lat="50.78246" lon="3.76928">
        <ele>81</ele>
        <time>2015-12-13T08:37:55Z</time>
      </trkpt>
      <trkpt lat="50.78244" lon="3.76926">
        <ele>81</ele>
        <time>2015-12-13T08:37:57Z</time>
      </trkpt>
      <trkpt lat="50.78242" lon="3.76924">
        <ele>81</ele>
        <time>2015-12-13T08:37:59Z</time>
      </trkpt>
      <trkpt lat="50.7824" lon="3.76922">
        <ele>81</ele>
        <time>2015-12-13T08:38:01Z</time>
      </trkpt>
      <trkpt lat="50.78238" lon="3.7692">
        <ele>81</ele>
        <time>2015-12-13T08:38:03Z</time>
      </trkpt>
      <trkpt lat="50.78236" lon="3.76917">
        <ele>81</ele>
        <time>2015-12-13T08:38:05Z</time>
      </trkpt>
      <trkpt lat="50.78233" lon="3.76915">
        <ele>81</ele>
        <time>2015-12-13T08:38:07Z</time>
      </trkpt>
      <trkpt lat="50.78232" lon="3.76912">
        <ele>81</ele>
        <time>2015-12-13T08:38:09Z</time>
      </trkpt>
      <trkpt lat="50.7823" lon="3.7691">
        <ele>81.7</ele>
        <time>2015-12-13T08:38:11Z</time>
      </trkpt>
      <trkpt lat="50.78228" lon="3.76907">
        <ele>82</ele>
        <time>2015-12-13T08:38:13Z</time>
      </trkpt>
      <trkpt lat="50.78226" lon="3.76904">
        <ele>82</ele>
        <time>2015-12-13T08:38:15Z</time>
      </trkpt>
      <trkpt lat="50.78224" lon="3.76902">
        <ele>82</ele>
        <time>2015-12-13T08:38:17Z</time>
      </trkpt>
      <trkpt lat="50.78222" lon="3.76899">
        <ele>82</ele>
        <time>2015-12-13T08:38:19Z</time>
      </trkpt>
      <trkpt lat="50.7822" lon="3.76896">
        <ele>82.7</ele>
        <time>2015-12-13T08:38:21Z</time>
      </trkpt>
      <trkpt lat="50.78218" lon="3.76894">
        <ele>83</ele>
        <time>2015-12-13T08:38:23Z</time>
      </trkpt>
      <trkpt lat="50.78216" lon="3.76891">
        <ele>83</ele>
        <time>2015-12-13T08:38:25Z</time>
      </trkpt>
      <trkpt lat="50.78214" lon="3.76889">
        <ele>83</ele>
        <time>2015-12-13T08:38:27Z</time>
      </trkpt>
      <trkpt lat="50.78212" lon="3.76886">
        <ele>83</ele>
        <time>2015-12-13T08:38:29Z</time>
      </trkpt>
      <trkpt lat="50.7821" lon="3.76883">
        <ele>83</ele>
        <time>2015-12-13T08:38:31Z</time>
      </trkpt>
      <trkpt lat="50.78208" lon="3.7688">
        <ele>83</ele>
        <time>2015-12-13T08:38:33Z</time>
      </trkpt>
      <trkpt lat="50.78206" lon="3.76878">
        <ele>83</ele>
        <time>2015-12-13T08:38:35Z</time>
      </trkpt>
      <trkpt lat="50.78204" lon="3.76876">
        <ele>83</ele>
        <time>2015-12-13T08:38:37Z</time>
      </trkpt>
      <trkpt lat="50.78202" lon="3.76874">
        <ele>83</ele>
        <time>2015-12-13T08:38:39Z</time>
      </trkpt>
      <trkpt lat="50.78199" lon="3.76869">
        <ele>83.4</ele>
        <time>2015-12-13T08:38:41Z</time>
      </trkpt>
      <trkpt lat="50.78198" lon="3.76867">
        <ele>84</ele>
        <time>2015-12-13T08:38:42Z</time>
      </trkpt>
      <trkpt lat="50.78196" lon="3.76865">
        <ele>84</ele>
        <time>2015-12-13T08:38:43Z</time>
      </trkpt>
      <trkpt lat="50.78195" lon="3.76862">
        <ele>84</ele>
        <time>2015-12-13T08:38:44Z</time>
      </trkpt>
      <trkpt lat="50.78193" lon="3.7686">
        <ele>84</ele>
        <time>2015-12-13T08:38:45Z</time>
      </trkpt>
      <trkpt lat="50.78191" lon="3.76858">
        <ele>84</ele>
        <time>2015-12-13T08:38:46Z</time>
      </trkpt>
      <trkpt lat="50.78189" lon="3.76856">
        <ele>84</ele>
        <time>2015-12-13T08:38:47Z</time>
      </trkpt>
      <trkpt lat="50.78188" lon="3.76854">
        <ele>84</ele>
        <time>2015-12-13T08:38:48Z</time>
      </trkpt>
      <trkpt lat="50.78186" lon="3.76852">
        <ele>84</ele>
        <time>2015-12-13T08:38:49Z</time>
      </trkpt>
      <trkpt lat="50.78184" lon="3.7685">
        <ele>84</ele>
        <time>2015-12-13T08:38:50Z</time>
      </trkpt>
      <trkpt lat="50.78183" lon="3.76848">
        <ele>84.7</ele>
        <time>2015-12-13T08:38:51Z</time>
      </trkpt>
      <trkpt lat="50.78181" lon="3.76847">
        <ele>85</ele>
        <time>2015-12-13T08:38:52Z</time>
      </trkpt>
      <trkpt lat="50.78179" lon="3.76845">
        <ele>85</ele>
        <time>2015-12-13T08:38:53Z</time>
      </trkpt>
      <trkpt lat="50.78177" lon="3.76842">
        <ele>85</ele>
        <time>2015-12-13T08:38:54Z</time>
      </trkpt>
      <trkpt lat="50.78176" lon="3.7684">
        <ele>85</ele>
        <time>2015-12-13T08:38:55Z</time>
      </trkpt>
      <trkpt lat="50.78174" lon="3.76838">
        <ele>85</ele>
        <time>2015-12-13T08:38:56Z</time>
      </trkpt>
      <trkpt lat="50.78172" lon="3.76836">
        <ele>85</ele>
        <time>2015-12-13T08:38:58Z</time>
      </trkpt>
      <trkpt lat="50.78169" lon="3.76834">
        <ele>85</ele>
        <time>2015-12-13T08:39:00Z</time>
      </trkpt>
      <trkpt lat="50.78167" lon="3.76831">
        <ele>86</ele>
        <time>2015-12-13T08:39:02Z</time>
      </trkpt>
      <trkpt lat="50.78165" lon="3.76827">
        <ele>86</ele>
        <time>2015-12-13T08:39:04Z</time>
      </trkpt>
      <trkpt lat="50.78164" lon="3.76824">
        <ele>86</ele>
        <time>2015-12-13T08:39:06Z</time>
      </trkpt>
      <trkpt lat="50.78162" lon="3.76821">
        <ele>86</ele>
        <time>2015-12-13T08:39:08Z</time>
      </trkpt>
      <trkpt lat="50.7816" lon="3.76818">
        <ele>86</ele>
        <time>2015-12-13T08:39:10Z</time>
      </trkpt>
      <trkpt lat="50.78158" lon="3.76815">
        <ele>88</ele>
        <time>2015-12-13T08:39:12Z</time>
      </trkpt>
      <trkpt lat="50.78157" lon="3.76812">
        <ele>88</ele>
        <time>2015-12-13T08:39:14Z</time>
      </trkpt>
      <trkpt lat="50.78155" lon="3.76809">
        <ele>88</ele>
        <time>2015-12-13T08:39:16Z</time>
      </trkpt>
      <trkpt lat="50.78153" lon="3.76806">
        <ele>88</ele>
        <time>2015-12-13T08:39:18Z</time>
      </trkpt>
      <trkpt lat="50.78152" lon="3.76803">
        <ele>88</ele>
        <time>2015-12-13T08:39:20Z</time>
      </trkpt>
      <trkpt lat="50.7815" lon="3.768">
        <ele>88</ele>
        <time>2015-12-13T08:39:22Z</time>
      </trkpt>
      <trkpt lat="50.78148" lon="3.76797">
        <ele>88</ele>
        <time>2015-12-13T08:39:24Z</time>
      </trkpt>
      <trkpt lat="50.78146" lon="3.76795">
        <ele>88</ele>
        <time>2015-12-13T08:39:26Z</time>
      </trkpt>
      <trkpt lat="50.78144" lon="3.76792">
        <ele>88</ele>
        <time>2015-12-13T08:39:28Z</time>
      </trkpt>
      <trkpt lat="50.78142" lon="3.7679">
        <ele>88</ele>
        <time>2015-12-13T08:39:30Z</time>
      </trkpt>
      <trkpt lat="50.7814" lon="3.76787">
        <ele>88</ele>
        <time>2015-12-13T08:39:32Z</time>
      </trkpt>
      <trkpt lat="50.78138" lon="3.76785">
        <ele>88</ele>
        <time>2015-12-13T08:39:34Z</time>
      </trkpt>
      <trkpt lat="50.78136" lon="3.76782">
        <ele>88</ele>
        <time>2015-12-13T08:39:36Z</time>
      </trkpt>
      <trkpt lat="50.78134" lon="3.7678">
        <ele>88</ele>
        <time>2015-12-13T08:39:38Z</time>
      </trkpt>
      <trkpt lat="50.78132" lon="3.76777">
        <ele>88</ele>
        <time>2015-12-13T08:39:40Z</time>
      </trkpt>
      <trkpt lat="50.78131" lon="3.76773">
        <ele>89</ele>
        <time>2015-12-13T08:39:42Z</time>
      </trkpt>
      <trkpt lat="50.78132" lon="3.76769">
        <ele>89</ele>
        <time>2015-12-13T08:39:44Z</time>
      </trkpt>
      <trkpt lat="50.78133" lon="3.76764">
        <ele>89</ele>
        <time>2015-12-13T08:39:47Z</time>
      </trkpt>
      <trkpt lat="50.78135" lon="3.76761">
        <ele>89</ele>
        <time>2015-12-13T08:39:49Z</time>
      </trkpt>
      <trkpt lat="50.78138" lon="3.76759">
        <ele>90.4</ele>
        <time>2015-12-13T08:39:51Z</time>
      </trkpt>
      <trkpt lat="50.7814" lon="3.76756">
        <ele>91</ele>
        <time>2015-12-13T08:39:53Z</time>
      </trkpt>
      <trkpt lat="50.78142" lon="3.76754">
        <ele>91</ele>
        <time>2015-12-13T08:39:55Z</time>
      </trkpt>
      <trkpt lat="50.78144" lon="3.76751">
        <ele>91</ele>
        <time>2015-12-13T08:39:57Z</time>
      </trkpt>
      <trkpt lat="50.78147" lon="3.76749">
        <ele>91</ele>
        <time>2015-12-13T08:39:59Z</time>
      </trkpt>
      <trkpt lat="50.78149" lon="3.76747">
        <ele>90.3</ele>
        <time>2015-12-13T08:40:01Z</time>
      </trkpt>
      <trkpt lat="50.78151" lon="3.76746">
        <ele>90</ele>
        <time>2015-12-13T08:40:03Z</time>
      </trkpt>
      <trkpt lat="50.78153" lon="3.76744">
        <ele>90</ele>
        <time>2015-12-13T08:40:05Z</time>
      </trkpt>
      <trkpt lat="50.78155" lon="3.76742">
        <ele>90</ele>
        <time>2015-12-13T08:40:07Z</time>
      </trkpt>
      <trkpt lat="50.78158" lon="3.76741">
        <ele>90</ele>
        <time>2015-12-13T08:40:09Z</time>
      </trkpt>
      <trkpt lat="50.7816" lon="3.76739">
        <ele>90</ele>
        <time>2015-12-13T08:40:11Z</time>
      </trkpt>
      <trkpt lat="50.78162" lon="3.76737">
        <ele>90</ele>
        <time>2015-12-13T08:40:13Z</time>
      </trkpt>
      <trkpt lat="50.78165" lon="3.76736">
        <ele>90</ele>
        <time>2015-12-13T08:40:15Z</time>
      </trkpt>
      <trkpt lat="50.78167" lon="3.76734">
        <ele>90</ele>
        <time>2015-12-13T08:40:17Z</time>
      </trkpt>
      <trkpt lat="50.7817" lon="3.76733">
        <ele>90</ele>
        <time>2015-12-13T08:40:19Z</time>
      </trkpt>
      <trkpt lat="50.78172" lon="3.76732">
        <ele>88.6</ele>
        <time>2015-12-13T08:40:21Z</time>
      </trkpt>
      <trkpt lat="50.78175" lon="3.76731">
        <ele>88</ele>
        <time>2015-12-13T08:40:23Z</time>
      </trkpt>
      <trkpt lat="50.78178" lon="3.76729">
        <ele>88</ele>
        <time>2015-12-13T08:40:25Z</time>
      </trkpt>
      <trkpt lat="50.78181" lon="3.76728">
        <ele>88</ele>
        <time>2015-12-13T08:40:27Z</time>
      </trkpt>
      <trkpt lat="50.78184" lon="3.76727">
        <ele>88</ele>
        <time>2015-12-13T08:40:29Z</time>
      </trkpt>
      <trkpt lat="50.78187" lon="3.76726">
        <ele>87.3</ele>
        <time>2015-12-13T08:40:31Z</time>
      </trkpt>
      <trkpt lat="50.7819" lon="3.76725">
        <ele>87</ele>
        <time>2015-12-13T08:40:33Z</time>
      </trkpt>
      <trkpt lat="50.78193" lon="3.76723">
        <ele>87</ele>
        <time>2015-12-13T08:40:35Z</time>
      </trkpt>
      <trkpt lat="50.78196" lon="3.76722">
        <ele>87</ele>
        <time>2015-12-13T08:40:37Z</time>
      </trkpt>
      <trkpt lat="50.78198" lon="3.76721">
        <ele>87</ele>
        <time>2015-12-13T08:40:39Z</time>
      </trkpt>
      <trkpt lat="50.78201" lon="3.7672">
        <ele>86.3</ele>
        <time>2015-12-13T08:40:41Z</time>
      </trkpt>
      <trkpt lat="50.78203" lon="3.76719">
        <ele>86</ele>
        <time>2015-12-13T08:40:42Z</time>
      </trkpt>
      <trkpt lat="50.78205" lon="3.76718">
        <ele>86</ele>
        <time>2015-12-13T08:40:43Z</time>
      </trkpt>
      <trkpt lat="50.78207" lon="3.76716">
        <ele>86</ele>
        <time>2015-12-13T08:40:44Z</time>
      </trkpt>
      <trkpt lat="50.7821" lon="3.76715">
        <ele>86</ele>
        <time>2015-12-13T08:40:45Z</time>
      </trkpt>
      <trkpt lat="50.78212" lon="3.76714">
        <ele>86</ele>
        <time>2015-12-13T08:40:46Z</time>
      </trkpt>
      <trkpt lat="50.78214" lon="3.76712">
        <ele>86</ele>
        <time>2015-12-13T08:40:47Z</time>
      </trkpt>
      <trkpt lat="50.78217" lon="3.76711">
        <ele>86</ele>
        <time>2015-12-13T08:40:48Z</time>
      </trkpt>
      <trkpt lat="50.78219" lon="3.7671">
        <ele>86</ele>
        <time>2015-12-13T08:40:49Z</time>
      </trkpt>
      <trkpt lat="50.78221" lon="3.76708">
        <ele>86</ele>
        <time>2015-12-13T08:40:50Z</time>
      </trkpt>
      <trkpt lat="50.78223" lon="3.76707">
        <ele>84.6</ele>
        <time>2015-12-13T08:40:51Z</time>
      </trkpt>
      <trkpt lat="50.78225" lon="3.76706">
        <ele>84</ele>
        <time>2015-12-13T08:40:52Z</time>
      </trkpt>
      <trkpt lat="50.78228" lon="3.76705">
        <ele>84</ele>
        <time>2015-12-13T08:40:53Z</time>
      </trkpt>
      <trkpt lat="50.7823" lon="3.76704">
        <ele>84</ele>
        <time>2015-12-13T08:40:54Z</time>
      </trkpt>
      <trkpt lat="50.78232" lon="3.76703">
        <ele>84</ele>
        <time>2015-12-13T08:40:55Z</time>
      </trkpt>
      <trkpt lat="50.78234" lon="3.76702">
        <ele>84</ele>
        <time>2015-12-13T08:40:56Z</time>
      </trkpt>
      <trkpt lat="50.78236" lon="3.76701">
        <ele>84</ele>
        <time>2015-12-13T08:40:57Z</time>
      </trkpt>
      <trkpt lat="50.78238" lon="3.767">
        <ele>84</ele>
        <time>2015-12-13T08:40:58Z</time>
      </trkpt>
      <trkpt lat="50.7824" lon="3.76699">
        <ele>84</ele>
        <time>2015-12-13T08:40:59Z</time>
      </trkpt>
      <trkpt lat="50.78242" lon="3.76698">
        <ele>84</ele>
        <time>2015-12-13T08:41:00Z</time>
      </trkpt>
      <trkpt lat="50.78243" lon="3.76697">
        <ele>82.7</ele>
        <time>2015-12-13T08:41:01Z</time>
      </trkpt>
      <trkpt lat="50.78245" lon="3.76695">
        <ele>82</ele>
        <time>2015-12-13T08:41:02Z</time>
      </trkpt>
      <trkpt lat="50.78247" lon="3.76694">
        <ele>82</ele>
        <time>2015-12-13T08:41:03Z</time>
      </trkpt>
      <trkpt lat="50.78249" lon="3.76693">
        <ele>82</ele>
        <time>2015-12-13T08:41:04Z</time>
      </trkpt>
      <trkpt lat="50.78252" lon="3.76693">
        <ele>82</ele>
        <time>2015-12-13T08:41:05Z</time>
      </trkpt>
      <trkpt lat="50.78254" lon="3.76692">
        <ele>82</ele>
        <time>2015-12-13T08:41:06Z</time>
      </trkpt>
      <trkpt lat="50.78256" lon="3.76692">
        <ele>82</ele>
        <time>2015-12-13T08:41:07Z</time>
      </trkpt>
      <trkpt lat="50.78258" lon="3.76692">
        <ele>82</ele>
        <time>2015-12-13T08:41:08Z</time>
      </trkpt>
      <trkpt lat="50.7826" lon="3.76692">
        <ele>82</ele>
        <time>2015-12-13T08:41:09Z</time>
      </trkpt>
      <trkpt lat="50.78263" lon="3.76692">
        <ele>81.3</ele>
        <time>2015-12-13T08:41:11Z</time>
      </trkpt>
      <trkpt lat="50.78265" lon="3.76692">
        <ele>81</ele>
        <time>2015-12-13T08:41:12Z</time>
      </trkpt>
      <trkpt lat="50.78267" lon="3.76692">
        <ele>81</ele>
        <time>2015-12-13T08:41:13Z</time>
      </trkpt>
      <trkpt lat="50.78269" lon="3.76693">
        <ele>81</ele>
        <time>2015-12-13T08:41:14Z</time>
      </trkpt>
      <trkpt lat="50.78272" lon="3.76693">
        <ele>81</ele>
        <time>2015-12-13T08:41:15Z</time>
      </trkpt>
      <trkpt lat="50.78274" lon="3.76693">
        <ele>81</ele>
        <time>2015-12-13T08:41:16Z</time>
      </trkpt>
      <trkpt lat="50.78276" lon="3.76693">
        <ele>81</ele>
        <time>2015-12-13T08:41:17Z</time>
      </trkpt>
      <trkpt lat="50.78279" lon="3.76692">
        <ele>81</ele>
        <time>2015-12-13T08:41:18Z</time>
      </trkpt>
      <trkpt lat="50.78282" lon="3.76691">
        <ele>81</ele>
        <time>2015-12-13T08:41:19Z</time>
      </trkpt>
      <trkpt lat="50.78284" lon="3.7669">
        <ele>81</ele>
        <time>2015-12-13T08:41:20Z</time>
      </trkpt>
      <trkpt lat="50.78287" lon="3.76689">
        <ele>79</ele>
        <time>2015-12-13T08:41:21Z</time>
      </trkpt>
      <trkpt lat="50.7829" lon="3.76688">
        <ele>78</ele>
        <time>2015-12-13T08:41:22Z</time>
      </trkpt>
      <trkpt lat="50.78293" lon="3.76686">
        <ele>78</ele>
        <time>2015-12-13T08:41:23Z</time>
      </trkpt>
      <trkpt lat="50.78297" lon="3.76685">
        <ele>78</ele>
        <time>2015-12-13T08:41:24Z</time>
      </trkpt>
      <trkpt lat="50.78299" lon="3.76684">
        <ele>78</ele>
        <time>2015-12-13T08:41:25Z</time>
      </trkpt>
      <trkpt lat="50.78303" lon="3.76684">
        <ele>76.6</ele>
        <time>2015-12-13T08:41:26Z</time>
      </trkpt>
      <trkpt lat="50.78306" lon="3.76684">
        <ele>76</ele>
        <time>2015-12-13T08:41:27Z</time>
      </trkpt>
      <trkpt lat="50.78309" lon="3.76683">
        <ele>76</ele>
        <time>2015-12-13T08:41:28Z</time>
      </trkpt>
      <trkpt lat="50.78312" lon="3.76682">
        <ele>76</ele>
        <time>2015-12-13T08:41:29Z</time>
      </trkpt>
      <trkpt lat="50.78314" lon="3.76681">
        <ele>76</ele>
        <time>2015-12-13T08:41:30Z</time>
      </trkpt>
      <trkpt lat="50.78317" lon="3.7668">
        <ele>74.6</ele>
        <time>2015-12-13T08:41:31Z</time>
      </trkpt>
      <trkpt lat="50.7832" lon="3.7668">
        <ele>74</ele>
        <time>2015-12-13T08:41:32Z</time>
      </trkpt>
      <trkpt lat="50.78323" lon="3.76679">
        <ele>74</ele>
        <time>2015-12-13T08:41:33Z</time>
      </trkpt>
      <trkpt lat="50.78325" lon="3.76679">
        <ele>74</ele>
        <time>2015-12-13T08:41:34Z</time>
      </trkpt>
      <trkpt lat="50.78328" lon="3.76678">
        <ele>74</ele>
        <time>2015-12-13T08:41:35Z</time>
      </trkpt>
      <trkpt lat="50.78331" lon="3.76678">
        <ele>73.3</ele>
        <time>2015-12-13T08:41:36Z</time>
      </trkpt>
      <trkpt lat="50.78333" lon="3.76677">
        <ele>73</ele>
        <time>2015-12-13T08:41:37Z</time>
      </trkpt>
      <trkpt lat="50.78335" lon="3.76676">
        <ele>73</ele>
        <time>2015-12-13T08:41:38Z</time>
      </trkpt>
      <trkpt lat="50.78338" lon="3.76676">
        <ele>73</ele>
        <time>2015-12-13T08:41:39Z</time>
      </trkpt>
      <trkpt lat="50.7834" lon="3.76675">
        <ele>73</ele>
        <time>2015-12-13T08:41:40Z</time>
      </trkpt>
      <trkpt lat="50.78343" lon="3.76675">
        <ele>71.6</ele>
        <time>2015-12-13T08:41:41Z</time>
      </trkpt>
      <trkpt lat="50.78345" lon="3.76676">
        <ele>71</ele>
        <time>2015-12-13T08:41:42Z</time>
      </trkpt>
      <trkpt lat="50.78348" lon="3.76676">
        <ele>71</ele>
        <time>2015-12-13T08:41:43Z</time>
      </trkpt>
      <trkpt lat="50.78351" lon="3.76676">
        <ele>71</ele>
        <time>2015-12-13T08:41:44Z</time>
      </trkpt>
      <trkpt lat="50.78353" lon="3.76676">
        <ele>71</ele>
        <time>2015-12-13T08:41:45Z</time>
      </trkpt>
      <trkpt lat="50.78356" lon="3.76675">
        <ele>69.6</ele>
        <time>2015-12-13T08:41:46Z</time>
      </trkpt>
      <trkpt lat="50.78359" lon="3.76675">
        <ele>69</ele>
        <time>2015-12-13T08:41:47Z</time>
      </trkpt>
      <trkpt lat="50.78361" lon="3.76675">
        <ele>69</ele>
        <time>2015-12-13T08:41:48Z</time>
      </trkpt>
      <trkpt lat="50.78363" lon="3.76675">
        <ele>69</ele>
        <time>2015-12-13T08:41:49Z</time>
      </trkpt>
      <trkpt lat="50.78366" lon="3.76674">
        <ele>69</ele>
        <time>2015-12-13T08:41:50Z</time>
      </trkpt>
      <trkpt lat="50.78368" lon="3.76674">
        <ele>68</ele>
        <time>2015-12-13T08:41:51Z</time>
      </trkpt>
      <trkpt lat="50.78371" lon="3.76674">
        <ele>67</ele>
        <time>2015-12-13T08:41:52Z</time>
      </trkpt>
      <trkpt lat="50.78373" lon="3.76674">
        <ele>67</ele>
        <time>2015-12-13T08:41:53Z</time>
      </trkpt>
      <trkpt lat="50.78376" lon="3.76673">
        <ele>67</ele>
        <time>2015-12-13T08:41:54Z</time>
      </trkpt>
      <trkpt lat="50.78378" lon="3.76673">
        <ele>67</ele>
        <time>2015-12-13T08:41:55Z</time>
      </trkpt>
      <trkpt lat="50.78381" lon="3.76673">
        <ele>65.6</ele>
        <time>2015-12-13T08:41:56Z</time>
      </trkpt>
      <trkpt lat="50.78383" lon="3.76672">
        <ele>65</ele>
        <time>2015-12-13T08:41:57Z</time>
      </trkpt>
      <trkpt lat="50.78385" lon="3.76672">
        <ele>65</ele>
        <time>2015-12-13T08:41:58Z</time>
      </trkpt>
      <trkpt lat="50.78387" lon="3.76672">
        <ele>65</ele>
        <time>2015-12-13T08:41:59Z</time>
      </trkpt>
      <trkpt lat="50.7839" lon="3.76671">
        <ele>65</ele>
        <time>2015-12-13T08:42:00Z</time>
      </trkpt>
      <trkpt lat="50.78392" lon="3.76671">
        <ele>63.6</ele>
        <time>2015-12-13T08:42:01Z</time>
      </trkpt>
      <trkpt lat="50.78394" lon="3.76671">
        <ele>63</ele>
        <time>2015-12-13T08:42:02Z</time>
      </trkpt>
      <trkpt lat="50.78396" lon="3.76671">
        <ele>63</ele>
        <time>2015-12-13T08:42:03Z</time>
      </trkpt>
      <trkpt lat="50.78398" lon="3.76668">
        <ele>63</ele>
        <time>2015-12-13T08:42:05Z</time>
      </trkpt>
      <trkpt lat="50.78398" lon="3.76663">
        <ele>63</ele>
        <time>2015-12-13T08:42:07Z</time>
      </trkpt>
      <trkpt lat="50.78398" lon="3.7666">
        <ele>63</ele>
        <time>2015-12-13T08:42:08Z</time>
      </trkpt>
      <trkpt lat="50.78397" lon="3.76657">
        <ele>63</ele>
        <time>2015-12-13T08:42:09Z</time>
      </trkpt>
      <trkpt lat="50.78396" lon="3.76654">
        <ele>63.5</ele>
        <time>2015-12-13T08:42:10Z</time>
      </trkpt>
      <trkpt lat="50.78395" lon="3.7665">
        <ele>63.5</ele>
        <time>2015-12-13T08:42:11Z</time>
      </trkpt>
      <trkpt lat="50.78394" lon="3.76647">
        <ele>63</ele>
        <time>2015-12-13T08:42:12Z</time>
      </trkpt>
      <trkpt lat="50.78393" lon="3.76644">
        <ele>63</ele>
        <time>2015-12-13T08:42:13Z</time>
      </trkpt>
      <trkpt lat="50.78392" lon="3.76641">
        <ele>63</ele>
        <time>2015-12-13T08:42:14Z</time>
      </trkpt>
      <trkpt lat="50.78391" lon="3.76638">
        <ele>63</ele>
        <time>2015-12-13T08:42:15Z</time>
      </trkpt>
      <trkpt lat="50.78391" lon="3.76635">
        <ele>63</ele>
        <time>2015-12-13T08:42:16Z</time>
      </trkpt>
      <trkpt lat="50.7839" lon="3.76632">
        <ele>63</ele>
        <time>2015-12-13T08:42:17Z</time>
      </trkpt>
      <trkpt lat="50.78389" lon="3.76629">
        <ele>63</ele>
        <time>2015-12-13T08:42:18Z</time>
      </trkpt>
      <trkpt lat="50.78388" lon="3.76626">
        <ele>63</ele>
        <time>2015-12-13T08:42:19Z</time>
      </trkpt>
      <trkpt lat="50.78387" lon="3.76623">
        <ele>63</ele>
        <time>2015-12-13T08:42:20Z</time>
      </trkpt>
      <trkpt lat="50.78386" lon="3.7662">
        <ele>63</ele>
        <time>2015-12-13T08:42:21Z</time>
      </trkpt>
      <trkpt lat="50.78385" lon="3.76616">
        <ele>63</ele>
        <time>2015-12-13T08:42:23Z</time>
      </trkpt>
      <trkpt lat="50.78384" lon="3.76611">
        <ele>63</ele>
        <time>2015-12-13T08:42:25Z</time>
      </trkpt>
      <trkpt lat="50.78382" lon="3.76606">
        <ele>63</ele>
        <time>2015-12-13T08:42:27Z</time>
      </trkpt>
      <trkpt lat="50.78381" lon="3.76602">
        <ele>63</ele>
        <time>2015-12-13T08:42:29Z</time>
      </trkpt>
      <trkpt lat="50.7838" lon="3.76597">
        <ele>62.3</ele>
        <time>2015-12-13T08:42:31Z</time>
      </trkpt>
      <trkpt lat="50.78379" lon="3.76593">
        <ele>62</ele>
        <time>2015-12-13T08:42:33Z</time>
      </trkpt>
      <trkpt lat="50.78377" lon="3.76588">
        <ele>62</ele>
        <time>2015-12-13T08:42:35Z</time>
      </trkpt>
      <trkpt lat="50.78376" lon="3.76585">
        <ele>62</ele>
        <time>2015-12-13T08:42:36Z</time>
      </trkpt>
      <trkpt lat="50.78374" lon="3.76582">
        <ele>62</ele>
        <time>2015-12-13T08:42:37Z</time>
      </trkpt>
      <trkpt lat="50.78373" lon="3.76578">
        <ele>62</ele>
        <time>2015-12-13T08:42:38Z</time>
      </trkpt>
      <trkpt lat="50.78372" lon="3.76575">
        <ele>62</ele>
        <time>2015-12-13T08:42:39Z</time>
      </trkpt>
      <trkpt lat="50.78371" lon="3.76571">
        <ele>62</ele>
        <time>2015-12-13T08:42:40Z</time>
      </trkpt>
      <trkpt lat="50.78369" lon="3.76568">
        <ele>61.3</ele>
        <time>2015-12-13T08:42:41Z</time>
      </trkpt>
      <trkpt lat="50.78368" lon="3.76565">
        <ele>61</ele>
        <time>2015-12-13T08:42:42Z</time>
      </trkpt>
      <trkpt lat="50.78367" lon="3.76561">
        <ele>61</ele>
        <time>2015-12-13T08:42:43Z</time>
      </trkpt>
      <trkpt lat="50.78365" lon="3.76558">
        <ele>61</ele>
        <time>2015-12-13T08:42:44Z</time>
      </trkpt>
      <trkpt lat="50.78364" lon="3.76556">
        <ele>61</ele>
        <time>2015-12-13T08:42:45Z</time>
      </trkpt>
      <trkpt lat="50.78363" lon="3.76553">
        <ele>61</ele>
        <time>2015-12-13T08:42:46Z</time>
      </trkpt>
      <trkpt lat="50.78361" lon="3.7655">
        <ele>61</ele>
        <time>2015-12-13T08:42:47Z</time>
      </trkpt>
      <trkpt lat="50.7836" lon="3.76547">
        <ele>61</ele>
        <time>2015-12-13T08:42:48Z</time>
      </trkpt>
      <trkpt lat="50.78358" lon="3.76545">
        <ele>61</ele>
        <time>2015-12-13T08:42:49Z</time>
      </trkpt>
      <trkpt lat="50.78356" lon="3.76543">
        <ele>61</ele>
        <time>2015-12-13T08:42:50Z</time>
      </trkpt>
      <trkpt lat="50.78354" lon="3.76541">
        <ele>60.3</ele>
        <time>2015-12-13T08:42:51Z</time>
      </trkpt>
      <trkpt lat="50.78352" lon="3.76539">
        <ele>60</ele>
        <time>2015-12-13T08:42:52Z</time>
      </trkpt>
      <trkpt lat="50.7835" lon="3.76537">
        <ele>60</ele>
        <time>2015-12-13T08:42:53Z</time>
      </trkpt>
      <trkpt lat="50.78348" lon="3.76534">
        <ele>60</ele>
        <time>2015-12-13T08:42:54Z</time>
      </trkpt>
      <trkpt lat="50.78346" lon="3.76531">
        <ele>60</ele>
        <time>2015-12-13T08:42:55Z</time>
      </trkpt>
      <trkpt lat="50.78344" lon="3.76529">
        <ele>60</ele>
        <time>2015-12-13T08:42:56Z</time>
      </trkpt>
      <trkpt lat="50.78342" lon="3.76527">
        <ele>60</ele>
        <time>2015-12-13T08:42:57Z</time>
      </trkpt>
      <trkpt lat="50.7834" lon="3.76526">
        <ele>60</ele>
        <time>2015-12-13T08:42:58Z</time>
      </trkpt>
      <trkpt lat="50.78339" lon="3.76524">
        <ele>60</ele>
        <time>2015-12-13T08:42:59Z</time>
      </trkpt>
      <trkpt lat="50.78337" lon="3.76521">
        <ele>60</ele>
        <time>2015-12-13T08:43:00Z</time>
      </trkpt>
      <trkpt lat="50.78335" lon="3.76519">
        <ele>61.4</ele>
        <time>2015-12-13T08:43:01Z</time>
      </trkpt>
      <trkpt lat="50.78333" lon="3.76516">
        <ele>62</ele>
        <time>2015-12-13T08:43:02Z</time>
      </trkpt>
      <trkpt lat="50.78332" lon="3.76514">
        <ele>62</ele>
        <time>2015-12-13T08:43:03Z</time>
      </trkpt>
      <trkpt lat="50.7833" lon="3.76512">
        <ele>62</ele>
        <time>2015-12-13T08:43:04Z</time>
      </trkpt>
      <trkpt lat="50.78328" lon="3.7651">
        <ele>62</ele>
        <time>2015-12-13T08:43:05Z</time>
      </trkpt>
      <trkpt lat="50.78326" lon="3.76508">
        <ele>62</ele>
        <time>2015-12-13T08:43:06Z</time>
      </trkpt>
      <trkpt lat="50.78324" lon="3.76506">
        <ele>62</ele>
        <time>2015-12-13T08:43:07Z</time>
      </trkpt>
      <trkpt lat="50.78322" lon="3.76504">
        <ele>62</ele>
        <time>2015-12-13T08:43:08Z</time>
      </trkpt>
      <trkpt lat="50.7832" lon="3.76501">
        <ele>62</ele>
        <time>2015-12-13T08:43:09Z</time>
      </trkpt>
      <trkpt lat="50.78319" lon="3.76499">
        <ele>62</ele>
        <time>2015-12-13T08:43:10Z</time>
      </trkpt>
      <trkpt lat="50.78317" lon="3.76496">
        <ele>62</ele>
        <time>2015-12-13T08:43:11Z</time>
      </trkpt>
      <trkpt lat="50.78316" lon="3.76493">
        <ele>62</ele>
        <time>2015-12-13T08:43:12Z</time>
      </trkpt>
      <trkpt lat="50.78314" lon="3.7649">
        <ele>62</ele>
        <time>2015-12-13T08:43:13Z</time>
      </trkpt>
      <trkpt lat="50.78313" lon="3.76487">
        <ele>62</ele>
        <time>2015-12-13T08:43:14Z</time>
      </trkpt>
      <trkpt lat="50.78312" lon="3.76484">
        <ele>62</ele>
        <time>2015-12-13T08:43:15Z</time>
      </trkpt>
      <trkpt lat="50.7831" lon="3.76481">
        <ele>62</ele>
        <time>2015-12-13T08:43:16Z</time>
      </trkpt>
      <trkpt lat="50.78309" lon="3.76479">
        <ele>62</ele>
        <time>2015-12-13T08:43:17Z</time>
      </trkpt>
      <trkpt lat="50.78308" lon="3.76476">
        <ele>62</ele>
        <time>2015-12-13T08:43:18Z</time>
      </trkpt>
      <trkpt lat="50.78307" lon="3.76473">
        <ele>62</ele>
        <time>2015-12-13T08:43:19Z</time>
      </trkpt>
      <trkpt lat="50.78306" lon="3.7647">
        <ele>62</ele>
        <time>2015-12-13T08:43:20Z</time>
      </trkpt>
      <trkpt lat="50.78305" lon="3.76466">
        <ele>62</ele>
        <time>2015-12-13T08:43:21Z</time>
      </trkpt>
      <trkpt lat="50.78304" lon="3.76463">
        <ele>62</ele>
        <time>2015-12-13T08:43:22Z</time>
      </trkpt>
      <trkpt lat="50.78303" lon="3.76458">
        <ele>62</ele>
        <time>2015-12-13T08:43:24Z</time>
      </trkpt>
      <trkpt lat="50.78301" lon="3.76455">
        <ele>62</ele>
        <time>2015-12-13T08:43:25Z</time>
      </trkpt>
      <trkpt lat="50.783" lon="3.76452">
        <ele>62</ele>
        <time>2015-12-13T08:43:26Z</time>
      </trkpt>
      <trkpt lat="50.78299" lon="3.76449">
        <ele>62</ele>
        <time>2015-12-13T08:43:27Z</time>
      </trkpt>
      <trkpt lat="50.78298" lon="3.76445">
        <ele>62</ele>
        <time>2015-12-13T08:43:28Z</time>
      </trkpt>
      <trkpt lat="50.78297" lon="3.76442">
        <ele>62</ele>
        <time>2015-12-13T08:43:29Z</time>
      </trkpt>
      <trkpt lat="50.78295" lon="3.76439">
        <ele>62</ele>
        <time>2015-12-13T08:43:30Z</time>
      </trkpt>
      <trkpt lat="50.78294" lon="3.76435">
        <ele>62</ele>
        <time>2015-12-13T08:43:31Z</time>
      </trkpt>
      <trkpt lat="50.78292" lon="3.76431">
        <ele>62</ele>
        <time>2015-12-13T08:43:32Z</time>
      </trkpt>
      <trkpt lat="50.78291" lon="3.76428">
        <ele>62</ele>
        <time>2015-12-13T08:43:33Z</time>
      </trkpt>
      <trkpt lat="50.78291" lon="3.76425">
        <ele>62</ele>
        <time>2015-12-13T08:43:34Z</time>
      </trkpt>
      <trkpt lat="50.7829" lon="3.76422">
        <ele>62</ele>
        <time>2015-12-13T08:43:35Z</time>
      </trkpt>
      <trkpt lat="50.78289" lon="3.76419">
        <ele>62</ele>
        <time>2015-12-13T08:43:36Z</time>
      </trkpt>
      <trkpt lat="50.78289" lon="3.76415">
        <ele>62</ele>
        <time>2015-12-13T08:43:37Z</time>
      </trkpt>
      <trkpt lat="50.78288" lon="3.76413">
        <ele>62</ele>
        <time>2015-12-13T08:43:38Z</time>
      </trkpt>
      <trkpt lat="50.78287" lon="3.76407">
        <ele>62</ele>
        <time>2015-12-13T08:43:40Z</time>
      </trkpt>
      <trkpt lat="50.78286" lon="3.76404">
        <ele>62</ele>
        <time>2015-12-13T08:43:41Z</time>
      </trkpt>
      <trkpt lat="50.78285" lon="3.76401">
        <ele>62</ele>
        <time>2015-12-13T08:43:42Z</time>
      </trkpt>
      <trkpt lat="50.78284" lon="3.76398">
        <ele>62</ele>
        <time>2015-12-13T08:43:43Z</time>
      </trkpt>
      <trkpt lat="50.78283" lon="3.76395">
        <ele>62</ele>
        <time>2015-12-13T08:43:44Z</time>
      </trkpt>
      <trkpt lat="50.78282" lon="3.76391">
        <ele>62</ele>
        <time>2015-12-13T08:43:45Z</time>
      </trkpt>
      <trkpt lat="50.78281" lon="3.76388">
        <ele>62</ele>
        <time>2015-12-13T08:43:46Z</time>
      </trkpt>
      <trkpt lat="50.78279" lon="3.76384">
        <ele>62</ele>
        <time>2015-12-13T08:43:47Z</time>
      </trkpt>
      <trkpt lat="50.78278" lon="3.76381">
        <ele>62</ele>
        <time>2015-12-13T08:43:48Z</time>
      </trkpt>
      <trkpt lat="50.78276" lon="3.76377">
        <ele>62</ele>
        <time>2015-12-13T08:43:49Z</time>
      </trkpt>
      <trkpt lat="50.78275" lon="3.76374">
        <ele>62</ele>
        <time>2015-12-13T08:43:50Z</time>
      </trkpt>
      <trkpt lat="50.78274" lon="3.76372">
        <ele>62.7</ele>
        <time>2015-12-13T08:43:51Z</time>
      </trkpt>
      <trkpt lat="50.78273" lon="3.76369">
        <ele>63</ele>
        <time>2015-12-13T08:43:52Z</time>
      </trkpt>
      <trkpt lat="50.78271" lon="3.76366">
        <ele>63</ele>
        <time>2015-12-13T08:43:53Z</time>
      </trkpt>
      <trkpt lat="50.7827" lon="3.76363">
        <ele>63</ele>
        <time>2015-12-13T08:43:54Z</time>
      </trkpt>
      <trkpt lat="50.78269" lon="3.76358">
        <ele>63</ele>
        <time>2015-12-13T08:43:56Z</time>
      </trkpt>
      <trkpt lat="50.78268" lon="3.76355">
        <ele>63</ele>
        <time>2015-12-13T08:43:57Z</time>
      </trkpt>
      <trkpt lat="50.78267" lon="3.76351">
        <ele>63</ele>
        <time>2015-12-13T08:43:58Z</time>
      </trkpt>
      <trkpt lat="50.78268" lon="3.76348">
        <ele>63</ele>
        <time>2015-12-13T08:43:59Z</time>
      </trkpt>
      <trkpt lat="50.78269" lon="3.76345">
        <ele>63</ele>
        <time>2015-12-13T08:44:00Z</time>
      </trkpt>
      <trkpt lat="50.78271" lon="3.76342">
        <ele>63</ele>
        <time>2015-12-13T08:44:01Z</time>
      </trkpt>
      <trkpt lat="50.78272" lon="3.76338">
        <ele>63</ele>
        <time>2015-12-13T08:44:02Z</time>
      </trkpt>
      <trkpt lat="50.78274" lon="3.76335">
        <ele>63</ele>
        <time>2015-12-13T08:44:03Z</time>
      </trkpt>
      <trkpt lat="50.78276" lon="3.76333">
        <ele>63</ele>
        <time>2015-12-13T08:44:04Z</time>
      </trkpt>
      <trkpt lat="50.78278" lon="3.76331">
        <ele>63</ele>
        <time>2015-12-13T08:44:05Z</time>
      </trkpt>
      <trkpt lat="50.7828" lon="3.76329">
        <ele>63</ele>
        <time>2015-12-13T08:44:06Z</time>
      </trkpt>
      <trkpt lat="50.78282" lon="3.76327">
        <ele>63</ele>
        <time>2015-12-13T08:44:07Z</time>
      </trkpt>
      <trkpt lat="50.78284" lon="3.76326">
        <ele>63</ele>
        <time>2015-12-13T08:44:08Z</time>
      </trkpt>
      <trkpt lat="50.78287" lon="3.76324">
        <ele>63</ele>
        <time>2015-12-13T08:44:09Z</time>
      </trkpt>
      <trkpt lat="50.78289" lon="3.76322">
        <ele>63</ele>
        <time>2015-12-13T08:44:10Z</time>
      </trkpt>
      <trkpt lat="50.78291" lon="3.76319">
        <ele>63</ele>
        <time>2015-12-13T08:44:11Z</time>
      </trkpt>
      <trkpt lat="50.78293" lon="3.76318">
        <ele>63</ele>
        <time>2015-12-13T08:44:12Z</time>
      </trkpt>
      <trkpt lat="50.78295" lon="3.76316">
        <ele>63</ele>
        <time>2015-12-13T08:44:13Z</time>
      </trkpt>
      <trkpt lat="50.78298" lon="3.76315">
        <ele>63</ele>
        <time>2015-12-13T08:44:14Z</time>
      </trkpt>
      <trkpt lat="50.783" lon="3.76313">
        <ele>63</ele>
        <time>2015-12-13T08:44:15Z</time>
      </trkpt>
      <trkpt lat="50.78302" lon="3.76311">
        <ele>63</ele>
        <time>2015-12-13T08:44:16Z</time>
      </trkpt>
      <trkpt lat="50.78304" lon="3.7631">
        <ele>63</ele>
        <time>2015-12-13T08:44:17Z</time>
      </trkpt>
      <trkpt lat="50.78307" lon="3.76308">
        <ele>63</ele>
        <time>2015-12-13T08:44:18Z</time>
      </trkpt>
      <trkpt lat="50.78309" lon="3.76307">
        <ele>63</ele>
        <time>2015-12-13T08:44:19Z</time>
      </trkpt>
      <trkpt lat="50.7831" lon="3.76306">
        <ele>63</ele>
        <time>2015-12-13T08:44:20Z</time>
      </trkpt>
      <trkpt lat="50.78314" lon="3.76302">
        <ele>62</ele>
        <time>2015-12-13T08:44:22Z</time>
      </trkpt>
      <trkpt lat="50.78317" lon="3.763">
        <ele>62</ele>
        <time>2015-12-13T08:44:24Z</time>
      </trkpt>
      <trkpt lat="50.78319" lon="3.76299">
        <ele>62</ele>
        <time>2015-12-13T08:44:25Z</time>
      </trkpt>
      <trkpt lat="50.78321" lon="3.76298">
        <ele>62</ele>
        <time>2015-12-13T08:44:26Z</time>
      </trkpt>
      <trkpt lat="50.78323" lon="3.76296">
        <ele>62</ele>
        <time>2015-12-13T08:44:27Z</time>
      </trkpt>
      <trkpt lat="50.78325" lon="3.76294">
        <ele>62</ele>
        <time>2015-12-13T08:44:28Z</time>
      </trkpt>
      <trkpt lat="50.78327" lon="3.76293">
        <ele>62</ele>
        <time>2015-12-13T08:44:29Z</time>
      </trkpt>
      <trkpt lat="50.7833" lon="3.76291">
        <ele>62</ele>
        <time>2015-12-13T08:44:30Z</time>
      </trkpt>
      <trkpt lat="50.78332" lon="3.76289">
        <ele>60.6</ele>
        <time>2015-12-13T08:44:31Z</time>
      </trkpt>
      <trkpt lat="50.78335" lon="3.76288">
        <ele>60</ele>
        <time>2015-12-13T08:44:32Z</time>
      </trkpt>
      <trkpt lat="50.78337" lon="3.76286">
        <ele>60</ele>
        <time>2015-12-13T08:44:33Z</time>
      </trkpt>
      <trkpt lat="50.78339" lon="3.76284">
        <ele>60</ele>
        <time>2015-12-13T08:44:34Z</time>
      </trkpt>
      <trkpt lat="50.78342" lon="3.76283">
        <ele>60</ele>
        <time>2015-12-13T08:44:35Z</time>
      </trkpt>
      <trkpt lat="50.78345" lon="3.7628">
        <ele>60</ele>
        <time>2015-12-13T08:44:36Z</time>
      </trkpt>
      <trkpt lat="50.78347" lon="3.76278">
        <ele>60</ele>
        <time>2015-12-13T08:44:37Z</time>
      </trkpt>
      <trkpt lat="50.7835" lon="3.76276">
        <ele>60</ele>
        <time>2015-12-13T08:44:38Z</time>
      </trkpt>
      <trkpt lat="50.78353" lon="3.76273">
        <ele>60</ele>
        <time>2015-12-13T08:44:39Z</time>
      </trkpt>
      <trkpt lat="50.78355" lon="3.76271">
        <ele>60</ele>
        <time>2015-12-13T08:44:40Z</time>
      </trkpt>
      <trkpt lat="50.78357" lon="3.76269">
        <ele>60</ele>
        <time>2015-12-13T08:44:41Z</time>
      </trkpt>
      <trkpt lat="50.7836" lon="3.76267">
        <ele>60</ele>
        <time>2015-12-13T08:44:42Z</time>
      </trkpt>
      <trkpt lat="50.78362" lon="3.76266">
        <ele>60</ele>
        <time>2015-12-13T08:44:43Z</time>
      </trkpt>
      <trkpt lat="50.78364" lon="3.76264">
        <ele>60</ele>
        <time>2015-12-13T08:44:44Z</time>
      </trkpt>
      <trkpt lat="50.78367" lon="3.76262">
        <ele>60</ele>
        <time>2015-12-13T08:44:45Z</time>
      </trkpt>
      <trkpt lat="50.78369" lon="3.7626">
        <ele>60</ele>
        <time>2015-12-13T08:44:46Z</time>
      </trkpt>
      <trkpt lat="50.78371" lon="3.76258">
        <ele>60</ele>
        <time>2015-12-13T08:44:47Z</time>
      </trkpt>
      <trkpt lat="50.78374" lon="3.76256">
        <ele>60</ele>
        <time>2015-12-13T08:44:48Z</time>
      </trkpt>
      <trkpt lat="50.78376" lon="3.76254">
        <ele>60</ele>
        <time>2015-12-13T08:44:49Z</time>
      </trkpt>
      <trkpt lat="50.78379" lon="3.76252">
        <ele>60</ele>
        <time>2015-12-13T08:44:50Z</time>
      </trkpt>
      <trkpt lat="50.78381" lon="3.76249">
        <ele>58.9</ele>
        <time>2015-12-13T08:44:51Z</time>
      </trkpt>
      <trkpt lat="50.78384" lon="3.76247">
        <ele>58</ele>
        <time>2015-12-13T08:44:52Z</time>
      </trkpt>
      <trkpt lat="50.78386" lon="3.76244">
        <ele>58</ele>
        <time>2015-12-13T08:44:53Z</time>
      </trkpt>
      <trkpt lat="50.78388" lon="3.76242">
        <ele>58</ele>
        <time>2015-12-13T08:44:54Z</time>
      </trkpt>
      <trkpt lat="50.7839" lon="3.7624">
        <ele>58</ele>
        <time>2015-12-13T08:44:55Z</time>
      </trkpt>
      <trkpt lat="50.78393" lon="3.76238">
        <ele>58</ele>
        <time>2015-12-13T08:44:56Z</time>
      </trkpt>
      <trkpt lat="50.78395" lon="3.76236">
        <ele>58</ele>
        <time>2015-12-13T08:44:57Z</time>
      </trkpt>
      <trkpt lat="50.78397" lon="3.76234">
        <ele>58</ele>
        <time>2015-12-13T08:44:58Z</time>
      </trkpt>
      <trkpt lat="50.784" lon="3.76231">
        <ele>58</ele>
        <time>2015-12-13T08:44:59Z</time>
      </trkpt>
      <trkpt lat="50.78402" lon="3.76229">
        <ele>58</ele>
        <time>2015-12-13T08:45:00Z</time>
      </trkpt>
      <trkpt lat="50.78404" lon="3.76227">
        <ele>58</ele>
        <time>2015-12-13T08:45:01Z</time>
      </trkpt>
      <trkpt lat="50.78406" lon="3.76224">
        <ele>56.9</ele>
        <time>2015-12-13T08:45:02Z</time>
      </trkpt>
      <trkpt lat="50.78408" lon="3.76222">
        <ele>56</ele>
        <time>2015-12-13T08:45:03Z</time>
      </trkpt>
      <trkpt lat="50.7841" lon="3.7622">
        <ele>56</ele>
        <time>2015-12-13T08:45:04Z</time>
      </trkpt>
      <trkpt lat="50.78412" lon="3.76218">
        <ele>56</ele>
        <time>2015-12-13T08:45:05Z</time>
      </trkpt>
      <trkpt lat="50.78414" lon="3.76215">
        <ele>56</ele>
        <time>2015-12-13T08:45:06Z</time>
      </trkpt>
      <trkpt lat="50.78416" lon="3.76213">
        <ele>56</ele>
        <time>2015-12-13T08:45:07Z</time>
      </trkpt>
      <trkpt lat="50.78418" lon="3.76211">
        <ele>56</ele>
        <time>2015-12-13T08:45:08Z</time>
      </trkpt>
      <trkpt lat="50.78419" lon="3.76209">
        <ele>56</ele>
        <time>2015-12-13T08:45:09Z</time>
      </trkpt>
      <trkpt lat="50.78421" lon="3.76207">
        <ele>56</ele>
        <time>2015-12-13T08:45:10Z</time>
      </trkpt>
      <trkpt lat="50.78423" lon="3.76205">
        <ele>56</ele>
        <time>2015-12-13T08:45:11Z</time>
      </trkpt>
      <trkpt lat="50.78425" lon="3.76203">
        <ele>56</ele>
        <time>2015-12-13T08:45:12Z</time>
      </trkpt>
      <trkpt lat="50.78427" lon="3.76201">
        <ele>56</ele>
        <time>2015-12-13T08:45:13Z</time>
      </trkpt>
      <trkpt lat="50.78428" lon="3.76199">
        <ele>56</ele>
        <time>2015-12-13T08:45:14Z</time>
      </trkpt>
      <trkpt lat="50.7843" lon="3.76197">
        <ele>56</ele>
        <time>2015-12-13T08:45:15Z</time>
      </trkpt>
      <trkpt lat="50.78432" lon="3.76195">
        <ele>56</ele>
        <time>2015-12-13T08:45:16Z</time>
      </trkpt>
      <trkpt lat="50.78434" lon="3.76193">
        <ele>56</ele>
        <time>2015-12-13T08:45:17Z</time>
      </trkpt>
      <trkpt lat="50.78436" lon="3.76191">
        <ele>56</ele>
        <time>2015-12-13T08:45:18Z</time>
      </trkpt>
      <trkpt lat="50.78439" lon="3.7619">
        <ele>56</ele>
        <time>2015-12-13T08:45:19Z</time>
      </trkpt>
      <trkpt lat="50.78441" lon="3.76188">
        <ele>56</ele>
        <time>2015-12-13T08:45:20Z</time>
      </trkpt>
      <trkpt lat="50.78443" lon="3.76185">
        <ele>56</ele>
        <time>2015-12-13T08:45:21Z</time>
      </trkpt>
      <trkpt lat="50.78445" lon="3.76183">
        <ele>56</ele>
        <time>2015-12-13T08:45:22Z</time>
      </trkpt>
      <trkpt lat="50.78447" lon="3.76181">
        <ele>56</ele>
        <time>2015-12-13T08:45:23Z</time>
      </trkpt>
      <trkpt lat="50.78449" lon="3.76178">
        <ele>56</ele>
        <time>2015-12-13T08:45:24Z</time>
      </trkpt>
      <trkpt lat="50.78452" lon="3.76176">
        <ele>56</ele>
        <time>2015-12-13T08:45:25Z</time>
      </trkpt>
      <trkpt lat="50.78454" lon="3.76174">
        <ele>56</ele>
        <time>2015-12-13T08:45:26Z</time>
      </trkpt>
      <trkpt lat="50.78456" lon="3.76171">
        <ele>56</ele>
        <time>2015-12-13T08:45:27Z</time>
      </trkpt>
      <trkpt lat="50.78458" lon="3.76169">
        <ele>56</ele>
        <time>2015-12-13T08:45:28Z</time>
      </trkpt>
      <trkpt lat="50.78459" lon="3.76166">
        <ele>56</ele>
        <time>2015-12-13T08:45:29Z</time>
      </trkpt>
      <trkpt lat="50.78461" lon="3.76164">
        <ele>56</ele>
        <time>2015-12-13T08:45:30Z</time>
      </trkpt>
      <trkpt lat="50.78463" lon="3.76162">
        <ele>56</ele>
        <time>2015-12-13T08:45:31Z</time>
      </trkpt>
      <trkpt lat="50.78465" lon="3.76159">
        <ele>56</ele>
        <time>2015-12-13T08:45:32Z</time>
      </trkpt>
      <trkpt lat="50.78467" lon="3.76157">
        <ele>56</ele>
        <time>2015-12-13T08:45:33Z</time>
      </trkpt>
      <trkpt lat="50.78469" lon="3.76154">
        <ele>56</ele>
        <time>2015-12-13T08:45:34Z</time>
      </trkpt>
      <trkpt lat="50.78471" lon="3.76152">
        <ele>56</ele>
        <time>2015-12-13T08:45:35Z</time>
      </trkpt>
      <trkpt lat="50.78472" lon="3.7615">
        <ele>56</ele>
        <time>2015-12-13T08:45:36Z</time>
      </trkpt>
      <trkpt lat="50.78474" lon="3.76147">
        <ele>56</ele>
        <time>2015-12-13T08:45:37Z</time>
      </trkpt>
      <trkpt lat="50.78475" lon="3.76145">
        <ele>56</ele>
        <time>2015-12-13T08:45:38Z</time>
      </trkpt>
      <trkpt lat="50.78477" lon="3.76142">
        <ele>56</ele>
        <time>2015-12-13T08:45:39Z</time>
      </trkpt>
      <trkpt lat="50.78479" lon="3.7614">
        <ele>56</ele>
        <time>2015-12-13T08:45:40Z</time>
      </trkpt>
      <trkpt lat="50.78481" lon="3.76137">
        <ele>56</ele>
        <time>2015-12-13T08:45:41Z</time>
      </trkpt>
      <trkpt lat="50.78482" lon="3.76135">
        <ele>56</ele>
        <time>2015-12-13T08:45:42Z</time>
      </trkpt>
      <trkpt lat="50.78484" lon="3.76132">
        <ele>56</ele>
        <time>2015-12-13T08:45:43Z</time>
      </trkpt>
      <trkpt lat="50.78486" lon="3.7613">
        <ele>56</ele>
        <time>2015-12-13T08:45:44Z</time>
      </trkpt>
      <trkpt lat="50.78488" lon="3.76127">
        <ele>56</ele>
        <time>2015-12-13T08:45:45Z</time>
      </trkpt>
      <trkpt lat="50.78489" lon="3.76125">
        <ele>56</ele>
        <time>2015-12-13T08:45:46Z</time>
      </trkpt>
      <trkpt lat="50.78491" lon="3.76122">
        <ele>56</ele>
        <time>2015-12-13T08:45:47Z</time>
      </trkpt>
      <trkpt lat="50.78493" lon="3.7612">
        <ele>56</ele>
        <time>2015-12-13T08:45:48Z</time>
      </trkpt>
      <trkpt lat="50.78495" lon="3.76117">
        <ele>56</ele>
        <time>2015-12-13T08:45:49Z</time>
      </trkpt>
      <trkpt lat="50.78496" lon="3.76114">
        <ele>56</ele>
        <time>2015-12-13T08:45:50Z</time>
      </trkpt>
      <trkpt lat="50.78498" lon="3.76112">
        <ele>56</ele>
        <time>2015-12-13T08:45:51Z</time>
      </trkpt>
      <trkpt lat="50.785" lon="3.76109">
        <ele>56</ele>
        <time>2015-12-13T08:45:52Z</time>
      </trkpt>
      <trkpt lat="50.78502" lon="3.76106">
        <ele>56</ele>
        <time>2015-12-13T08:45:53Z</time>
      </trkpt>
      <trkpt lat="50.78503" lon="3.76104">
        <ele>56</ele>
        <time>2015-12-13T08:45:54Z</time>
      </trkpt>
      <trkpt lat="50.78505" lon="3.76101">
        <ele>56</ele>
        <time>2015-12-13T08:45:55Z</time>
      </trkpt>
      <trkpt lat="50.78507" lon="3.76098">
        <ele>56</ele>
        <time>2015-12-13T08:45:56Z</time>
      </trkpt>
      <trkpt lat="50.78508" lon="3.76095">
        <ele>56</ele>
        <time>2015-12-13T08:45:57Z</time>
      </trkpt>
      <trkpt lat="50.7851" lon="3.76092">
        <ele>56</ele>
        <time>2015-12-13T08:45:58Z</time>
      </trkpt>
      <trkpt lat="50.78512" lon="3.7609">
        <ele>56</ele>
        <time>2015-12-13T08:45:59Z</time>
      </trkpt>
      <trkpt lat="50.78514" lon="3.76087">
        <ele>56</ele>
        <time>2015-12-13T08:46:00Z</time>
      </trkpt>
      <trkpt lat="50.78515" lon="3.76084">
        <ele>55.3</ele>
        <time>2015-12-13T08:46:01Z</time>
      </trkpt>
      <trkpt lat="50.78517" lon="3.76081">
        <ele>55</ele>
        <time>2015-12-13T08:46:02Z</time>
      </trkpt>
      <trkpt lat="50.78519" lon="3.76078">
        <ele>55</ele>
        <time>2015-12-13T08:46:03Z</time>
      </trkpt>
      <trkpt lat="50.78521" lon="3.76075">
        <ele>55</ele>
        <time>2015-12-13T08:46:04Z</time>
      </trkpt>
      <trkpt lat="50.78522" lon="3.76072">
        <ele>55</ele>
        <time>2015-12-13T08:46:05Z</time>
      </trkpt>
      <trkpt lat="50.78524" lon="3.76069">
        <ele>55</ele>
        <time>2015-12-13T08:46:06Z</time>
      </trkpt>
      <trkpt lat="50.78526" lon="3.76066">
        <ele>55</ele>
        <time>2015-12-13T08:46:07Z</time>
      </trkpt>
      <trkpt lat="50.78527" lon="3.76064">
        <ele>55</ele>
        <time>2015-12-13T08:46:08Z</time>
      </trkpt>
      <trkpt lat="50.78529" lon="3.76061">
        <ele>55</ele>
        <time>2015-12-13T08:46:09Z</time>
      </trkpt>
      <trkpt lat="50.78531" lon="3.76058">
        <ele>55</ele>
        <time>2015-12-13T08:46:10Z</time>
      </trkpt>
      <trkpt lat="50.78532" lon="3.76055">
        <ele>55</ele>
        <time>2015-12-13T08:46:11Z</time>
      </trkpt>
      <trkpt lat="50.78534" lon="3.76052">
        <ele>55</ele>
        <time>2015-12-13T08:46:12Z</time>
      </trkpt>
      <trkpt lat="50.78536" lon="3.76049">
        <ele>55</ele>
        <time>2015-12-13T08:46:13Z</time>
      </trkpt>
      <trkpt lat="50.78538" lon="3.76046">
        <ele>55</ele>
        <time>2015-12-13T08:46:14Z</time>
      </trkpt>
      <trkpt lat="50.7854" lon="3.76043">
        <ele>55</ele>
        <time>2015-12-13T08:46:15Z</time>
      </trkpt>
      <trkpt lat="50.78541" lon="3.7604">
        <ele>55</ele>
        <time>2015-12-13T08:46:16Z</time>
      </trkpt>
      <trkpt lat="50.78543" lon="3.76037">
        <ele>55</ele>
        <time>2015-12-13T08:46:17Z</time>
      </trkpt>
      <trkpt lat="50.78545" lon="3.76034">
        <ele>55</ele>
        <time>2015-12-13T08:46:18Z</time>
      </trkpt>
      <trkpt lat="50.78546" lon="3.76031">
        <ele>55</ele>
        <time>2015-12-13T08:46:19Z</time>
      </trkpt>
      <trkpt lat="50.78548" lon="3.76028">
        <ele>55</ele>
        <time>2015-12-13T08:46:20Z</time>
      </trkpt>
      <trkpt lat="50.7855" lon="3.76025">
        <ele>53</ele>
        <time>2015-12-13T08:46:21Z</time>
      </trkpt>
      <trkpt lat="50.78551" lon="3.76021">
        <ele>52</ele>
        <time>2015-12-13T08:46:22Z</time>
      </trkpt>
      <trkpt lat="50.78553" lon="3.76018">
        <ele>52</ele>
        <time>2015-12-13T08:46:23Z</time>
      </trkpt>
      <trkpt lat="50.78555" lon="3.76015">
        <ele>52</ele>
        <time>2015-12-13T08:46:24Z</time>
      </trkpt>
      <trkpt lat="50.78557" lon="3.76012">
        <ele>52</ele>
        <time>2015-12-13T08:46:25Z</time>
      </trkpt>
      <trkpt lat="50.78558" lon="3.76009">
        <ele>51.3</ele>
        <time>2015-12-13T08:46:26Z</time>
      </trkpt>
      <trkpt lat="50.7856" lon="3.76006">
        <ele>51</ele>
        <time>2015-12-13T08:46:27Z</time>
      </trkpt>
      <trkpt lat="50.78562" lon="3.76003">
        <ele>51</ele>
        <time>2015-12-13T08:46:28Z</time>
      </trkpt>
      <trkpt lat="50.78564" lon="3.76001">
        <ele>51</ele>
        <time>2015-12-13T08:46:29Z</time>
      </trkpt>
      <trkpt lat="50.78566" lon="3.75999">
        <ele>51</ele>
        <time>2015-12-13T08:46:30Z</time>
      </trkpt>
      <trkpt lat="50.78568" lon="3.75996">
        <ele>51</ele>
        <time>2015-12-13T08:46:31Z</time>
      </trkpt>
      <trkpt lat="50.7857" lon="3.75993">
        <ele>51</ele>
        <time>2015-12-13T08:46:32Z</time>
      </trkpt>
      <trkpt lat="50.78572" lon="3.75991">
        <ele>51</ele>
        <time>2015-12-13T08:46:33Z</time>
      </trkpt>
      <trkpt lat="50.78573" lon="3.75988">
        <ele>51</ele>
        <time>2015-12-13T08:46:34Z</time>
      </trkpt>
      <trkpt lat="50.78575" lon="3.75985">
        <ele>51</ele>
        <time>2015-12-13T08:46:35Z</time>
      </trkpt>
      <trkpt lat="50.78577" lon="3.75982">
        <ele>51</ele>
        <time>2015-12-13T08:46:36Z</time>
      </trkpt>
      <trkpt lat="50.78579" lon="3.75979">
        <ele>51</ele>
        <time>2015-12-13T08:46:37Z</time>
      </trkpt>
      <trkpt lat="50.7858" lon="3.75977">
        <ele>51</ele>
        <time>2015-12-13T08:46:38Z</time>
      </trkpt>
      <trkpt lat="50.78582" lon="3.75974">
        <ele>51</ele>
        <time>2015-12-13T08:46:39Z</time>
      </trkpt>
      <trkpt lat="50.78584" lon="3.75971">
        <ele>51</ele>
        <time>2015-12-13T08:46:40Z</time>
      </trkpt>
      <trkpt lat="50.78586" lon="3.75968">
        <ele>49.6</ele>
        <time>2015-12-13T08:46:41Z</time>
      </trkpt>
      <trkpt lat="50.78588" lon="3.75966">
        <ele>49</ele>
        <time>2015-12-13T08:46:42Z</time>
      </trkpt>
      <trkpt lat="50.78589" lon="3.75963">
        <ele>49</ele>
        <time>2015-12-13T08:46:43Z</time>
      </trkpt>
      <trkpt lat="50.78591" lon="3.7596">
        <ele>49</ele>
        <time>2015-12-13T08:46:44Z</time>
      </trkpt>
      <trkpt lat="50.78593" lon="3.75957">
        <ele>49</ele>
        <time>2015-12-13T08:46:45Z</time>
      </trkpt>
      <trkpt lat="50.78594" lon="3.75955">
        <ele>48.3</ele>
        <time>2015-12-13T08:46:46Z</time>
      </trkpt>
      <trkpt lat="50.78596" lon="3.75951">
        <ele>48</ele>
        <time>2015-12-13T08:46:48Z</time>
      </trkpt>
      <trkpt lat="50.78597" lon="3.75947">
        <ele>48</ele>
        <time>2015-12-13T08:46:50Z</time>
      </trkpt>
      <trkpt lat="50.78598" lon="3.75943">
        <ele>48</ele>
        <time>2015-12-13T08:46:52Z</time>
      </trkpt>
      <trkpt lat="50.78599" lon="3.7594">
        <ele>48</ele>
        <time>2015-12-13T08:46:55Z</time>
      </trkpt>
      <trkpt lat="50.78601" lon="3.75939">
        <ele>48</ele>
        <time>2015-12-13T08:46:58Z</time>
      </trkpt>
      <trkpt lat="50.78603" lon="3.75938">
        <ele>48</ele>
        <time>2015-12-13T08:46:59Z</time>
      </trkpt>
      <trkpt lat="50.78605" lon="3.75937">
        <ele>48</ele>
        <time>2015-12-13T08:47:00Z</time>
      </trkpt>
      <trkpt lat="50.78607" lon="3.75935">
        <ele>48</ele>
        <time>2015-12-13T08:47:01Z</time>
      </trkpt>
      <trkpt lat="50.78609" lon="3.75933">
        <ele>48</ele>
        <time>2015-12-13T08:47:02Z</time>
      </trkpt>
      <trkpt lat="50.78611" lon="3.75931">
        <ele>48</ele>
        <time>2015-12-13T08:47:03Z</time>
      </trkpt>
      <trkpt lat="50.78614" lon="3.75929">
        <ele>48</ele>
        <time>2015-12-13T08:47:04Z</time>
      </trkpt>
      <trkpt lat="50.78616" lon="3.75927">
        <ele>48</ele>
        <time>2015-12-13T08:47:05Z</time>
      </trkpt>
      <trkpt lat="50.78619" lon="3.75926">
        <ele>48</ele>
        <time>2015-12-13T08:47:06Z</time>
      </trkpt>
      <trkpt lat="50.78621" lon="3.75926">
        <ele>48</ele>
        <time>2015-12-13T08:47:07Z</time>
      </trkpt>
      <trkpt lat="50.78624" lon="3.75925">
        <ele>48</ele>
        <time>2015-12-13T08:47:08Z</time>
      </trkpt>
      <trkpt lat="50.78626" lon="3.75925">
        <ele>48</ele>
        <time>2015-12-13T08:47:09Z</time>
      </trkpt>
      <trkpt lat="50.78629" lon="3.75924">
        <ele>48</ele>
        <time>2015-12-13T08:47:10Z</time>
      </trkpt>
      <trkpt lat="50.78632" lon="3.75924">
        <ele>46.6</ele>
        <time>2015-12-13T08:47:11Z</time>
      </trkpt>
      <trkpt lat="50.78634" lon="3.75925">
        <ele>46</ele>
        <time>2015-12-13T08:47:12Z</time>
      </trkpt>
      <trkpt lat="50.78636" lon="3.75925">
        <ele>46</ele>
        <time>2015-12-13T08:47:13Z</time>
      </trkpt>
      <trkpt lat="50.78638" lon="3.75925">
        <ele>46</ele>
        <time>2015-12-13T08:47:14Z</time>
      </trkpt>
      <trkpt lat="50.7864" lon="3.75926">
        <ele>46</ele>
        <time>2015-12-13T08:47:15Z</time>
      </trkpt>
      <trkpt lat="50.78643" lon="3.75925">
        <ele>46</ele>
        <time>2015-12-13T08:47:16Z</time>
      </trkpt>
      <trkpt lat="50.78646" lon="3.75924">
        <ele>46</ele>
        <time>2015-12-13T08:47:17Z</time>
      </trkpt>
      <trkpt lat="50.78648" lon="3.75923">
        <ele>46</ele>
        <time>2015-12-13T08:47:18Z</time>
      </trkpt>
      <trkpt lat="50.7865" lon="3.75922">
        <ele>46</ele>
        <time>2015-12-13T08:47:19Z</time>
      </trkpt>
      <trkpt lat="50.78652" lon="3.75921">
        <ele>46</ele>
        <time>2015-12-13T08:47:21Z</time>
      </trkpt>
      <trkpt lat="50.7865" lon="3.75922">
        <ele>46</ele>
        <time>2015-12-13T08:47:25Z</time>
      </trkpt>
      <trkpt lat="50.78648" lon="3.75923">
        <ele>46</ele>
        <time>2015-12-13T08:47:26Z</time>
      </trkpt>
      <trkpt lat="50.78646" lon="3.75924">
        <ele>46</ele>
        <time>2015-12-13T08:47:27Z</time>
      </trkpt>
      <trkpt lat="50.78643" lon="3.75925">
        <ele>46</ele>
        <time>2015-12-13T08:47:28Z</time>
      </trkpt>
      <trkpt lat="50.78641" lon="3.75925">
        <ele>46</ele>
        <time>2015-12-13T08:47:29Z</time>
      </trkpt>
      <trkpt lat="50.78639" lon="3.75924">
        <ele>46</ele>
        <time>2015-12-13T08:47:30Z</time>
      </trkpt>
      <trkpt lat="50.78637" lon="3.75924">
        <ele>46</ele>
        <time>2015-12-13T08:47:31Z</time>
      </trkpt>
      <trkpt lat="50.78635" lon="3.75923">
        <ele>46</ele>
        <time>2015-12-13T08:47:32Z</time>
      </trkpt>
      <trkpt lat="50.78632" lon="3.75923">
        <ele>46</ele>
        <time>2015-12-13T08:47:33Z</time>
      </trkpt>
      <trkpt lat="50.7863" lon="3.75924">
        <ele>46</ele>
        <time>2015-12-13T08:47:34Z</time>
      </trkpt>
      <trkpt lat="50.78627" lon="3.75924">
        <ele>46</ele>
        <time>2015-12-13T08:47:35Z</time>
      </trkpt>
      <trkpt lat="50.78625" lon="3.75924">
        <ele>46</ele>
        <time>2015-12-13T08:47:36Z</time>
      </trkpt>
      <trkpt lat="50.78622" lon="3.75925">
        <ele>46</ele>
        <time>2015-12-13T08:47:37Z</time>
      </trkpt>
      <trkpt lat="50.78619" lon="3.75927">
        <ele>46</ele>
        <time>2015-12-13T08:47:38Z</time>
      </trkpt>
      <trkpt lat="50.78616" lon="3.75929">
        <ele>46</ele>
        <time>2015-12-13T08:47:39Z</time>
      </trkpt>
      <trkpt lat="50.78614" lon="3.75931">
        <ele>46</ele>
        <time>2015-12-13T08:47:40Z</time>
      </trkpt>
      <trkpt lat="50.78611" lon="3.75933">
        <ele>46</ele>
        <time>2015-12-13T08:47:41Z</time>
      </trkpt>
      <trkpt lat="50.78608" lon="3.75935">
        <ele>46</ele>
        <time>2015-12-13T08:47:42Z</time>
      </trkpt>
      <trkpt lat="50.78606" lon="3.75937">
        <ele>46</ele>
        <time>2015-12-13T08:47:43Z</time>
      </trkpt>
      <trkpt lat="50.78604" lon="3.75939">
        <ele>46</ele>
        <time>2015-12-13T08:47:44Z</time>
      </trkpt>
      <trkpt lat="50.78602" lon="3.75939">
        <ele>46</ele>
        <time>2015-12-13T08:47:46Z</time>
      </trkpt>
      <trkpt lat="50.786" lon="3.75939">
        <ele>46</ele>
        <time>2015-12-13T08:47:48Z</time>
      </trkpt>
      <trkpt lat="50.78598" lon="3.75937">
        <ele>46</ele>
        <time>2015-12-13T08:47:51Z</time>
      </trkpt>
      <trkpt lat="50.78597" lon="3.75931">
        <ele>46</ele>
        <time>2015-12-13T08:47:57Z</time>
      </trkpt>
      <trkpt lat="50.78597" lon="3.75927">
        <ele>46</ele>
        <time>2015-12-13T08:48:00Z</time>
      </trkpt>
      <trkpt lat="50.78596" lon="3.75922">
        <ele>46</ele>
        <time>2015-12-13T08:48:02Z</time>
      </trkpt>
      <trkpt lat="50.78596" lon="3.75919">
        <ele>46</ele>
        <time>2015-12-13T08:48:03Z</time>
      </trkpt>
      <trkpt lat="50.78596" lon="3.75913">
        <ele>46</ele>
        <time>2015-12-13T08:48:05Z</time>
      </trkpt>
      <trkpt lat="50.78595" lon="3.7591">
        <ele>46</ele>
        <time>2015-12-13T08:48:06Z</time>
      </trkpt>
      <trkpt lat="50.78595" lon="3.75906">
        <ele>46</ele>
        <time>2015-12-13T08:48:07Z</time>
      </trkpt>
      <trkpt lat="50.78595" lon="3.75903">
        <ele>46</ele>
        <time>2015-12-13T08:48:08Z</time>
      </trkpt>
      <trkpt lat="50.78595" lon="3.759">
        <ele>46</ele>
        <time>2015-12-13T08:48:09Z</time>
      </trkpt>
      <trkpt lat="50.78595" lon="3.75897">
        <ele>46</ele>
        <time>2015-12-13T08:48:10Z</time>
      </trkpt>
      <trkpt lat="50.78596" lon="3.75894">
        <ele>46</ele>
        <time>2015-12-13T08:48:11Z</time>
      </trkpt>
      <trkpt lat="50.78596" lon="3.75889">
        <ele>46</ele>
        <time>2015-12-13T08:48:13Z</time>
      </trkpt>
      <trkpt lat="50.78596" lon="3.75883">
        <ele>46</ele>
        <time>2015-12-13T08:48:15Z</time>
      </trkpt>
      <trkpt lat="50.78596" lon="3.75878">
        <ele>46</ele>
        <time>2015-12-13T08:48:17Z</time>
      </trkpt>
      <trkpt lat="50.78596" lon="3.75875">
        <ele>46</ele>
        <time>2015-12-13T08:48:18Z</time>
      </trkpt>
      <trkpt lat="50.78596" lon="3.75872">
        <ele>46</ele>
        <time>2015-12-13T08:48:19Z</time>
      </trkpt>
      <trkpt lat="50.78597" lon="3.75866">
        <ele>45.3</ele>
        <time>2015-12-13T08:48:21Z</time>
      </trkpt>
      <trkpt lat="50.78598" lon="3.75862">
        <ele>45</ele>
        <time>2015-12-13T08:48:23Z</time>
      </trkpt>
      <trkpt lat="50.78599" lon="3.75857">
        <ele>45</ele>
        <time>2015-12-13T08:48:25Z</time>
      </trkpt>
      <trkpt lat="50.786" lon="3.75853">
        <ele>45</ele>
        <time>2015-12-13T08:48:27Z</time>
      </trkpt>
      <trkpt lat="50.78601" lon="3.75849">
        <ele>45</ele>
        <time>2015-12-13T08:48:29Z</time>
      </trkpt>
      <trkpt lat="50.78602" lon="3.75845">
        <ele>45.5</ele>
        <time>2015-12-13T08:48:31Z</time>
      </trkpt>
      <trkpt lat="50.78604" lon="3.75841">
        <ele>46</ele>
        <time>2015-12-13T08:48:33Z</time>
      </trkpt>
      <trkpt lat="50.78605" lon="3.75838">
        <ele>46</ele>
        <time>2015-12-13T08:48:35Z</time>
      </trkpt>
      <trkpt lat="50.78606" lon="3.75835">
        <ele>46</ele>
        <time>2015-12-13T08:48:36Z</time>
      </trkpt>
      <trkpt lat="50.78607" lon="3.7583">
        <ele>46</ele>
        <time>2015-12-13T08:48:38Z</time>
      </trkpt>
      <trkpt lat="50.78608" lon="3.75828">
        <ele>46</ele>
        <time>2015-12-13T08:48:39Z</time>
      </trkpt>
      <trkpt lat="50.78609" lon="3.75825">
        <ele>46</ele>
        <time>2015-12-13T08:48:40Z</time>
      </trkpt>
      <trkpt lat="50.78611" lon="3.75821">
        <ele>46</ele>
        <time>2015-12-13T08:48:42Z</time>
      </trkpt>
      <trkpt lat="50.78612" lon="3.75817">
        <ele>46</ele>
        <time>2015-12-13T08:48:44Z</time>
      </trkpt>
      <trkpt lat="50.78613" lon="3.75814">
        <ele>46</ele>
        <time>2015-12-13T08:48:45Z</time>
      </trkpt>
      <trkpt lat="50.78614" lon="3.7581">
        <ele>46</ele>
        <time>2015-12-13T08:48:47Z</time>
      </trkpt>
      <trkpt lat="50.78615" lon="3.75803">
        <ele>47</ele>
        <time>2015-12-13T08:48:53Z</time>
      </trkpt>
      <trkpt lat="50.78616" lon="3.758">
        <ele>47</ele>
        <time>2015-12-13T08:48:55Z</time>
      </trkpt>
      <trkpt lat="50.78618" lon="3.75797">
        <ele>47</ele>
        <time>2015-12-13T08:48:57Z</time>
      </trkpt>
      <trkpt lat="50.78621" lon="3.75794">
        <ele>47</ele>
        <time>2015-12-13T08:48:59Z</time>
      </trkpt>
      <trkpt lat="50.78623" lon="3.75791">
        <ele>46.3</ele>
        <time>2015-12-13T08:49:01Z</time>
      </trkpt>
      <trkpt lat="50.78625" lon="3.75788">
        <ele>46</ele>
        <time>2015-12-13T08:49:03Z</time>
      </trkpt>
      <trkpt lat="50.78627" lon="3.75784">
        <ele>46</ele>
        <time>2015-12-13T08:49:05Z</time>
      </trkpt>
      <trkpt lat="50.78629" lon="3.75782">
        <ele>46</ele>
        <time>2015-12-13T08:49:06Z</time>
      </trkpt>
      <trkpt lat="50.7863" lon="3.7578">
        <ele>46</ele>
        <time>2015-12-13T08:49:07Z</time>
      </trkpt>
      <trkpt lat="50.78632" lon="3.75778">
        <ele>46</ele>
        <time>2015-12-13T08:49:08Z</time>
      </trkpt>
      <trkpt lat="50.78634" lon="3.75776">
        <ele>46</ele>
        <time>2015-12-13T08:49:09Z</time>
      </trkpt>
      <trkpt lat="50.78635" lon="3.75773">
        <ele>46</ele>
        <time>2015-12-13T08:49:10Z</time>
      </trkpt>
      <trkpt lat="50.78637" lon="3.75771">
        <ele>46.7</ele>
        <time>2015-12-13T08:49:11Z</time>
      </trkpt>
      <trkpt lat="50.78639" lon="3.75768">
        <ele>47</ele>
        <time>2015-12-13T08:49:12Z</time>
      </trkpt>
      <trkpt lat="50.7864" lon="3.75766">
        <ele>47</ele>
        <time>2015-12-13T08:49:13Z</time>
      </trkpt>
      <trkpt lat="50.78642" lon="3.75763">
        <ele>47</ele>
        <time>2015-12-13T08:49:14Z</time>
      </trkpt>
      <trkpt lat="50.78643" lon="3.75761">
        <ele>47</ele>
        <time>2015-12-13T08:49:15Z</time>
      </trkpt>
      <trkpt lat="50.78645" lon="3.75759">
        <ele>47</ele>
        <time>2015-12-13T08:49:16Z</time>
      </trkpt>
      <trkpt lat="50.78646" lon="3.75756">
        <ele>47</ele>
        <time>2015-12-13T08:49:17Z</time>
      </trkpt>
      <trkpt lat="50.78648" lon="3.75753">
        <ele>47</ele>
        <time>2015-12-13T08:49:18Z</time>
      </trkpt>
      <trkpt lat="50.78649" lon="3.7575">
        <ele>47</ele>
        <time>2015-12-13T08:49:19Z</time>
      </trkpt>
      <trkpt lat="50.7865" lon="3.75747">
        <ele>47</ele>
        <time>2015-12-13T08:49:20Z</time>
      </trkpt>
      <trkpt lat="50.78651" lon="3.75744">
        <ele>48.1</ele>
        <time>2015-12-13T08:49:21Z</time>
      </trkpt>
      <trkpt lat="50.78653" lon="3.75741">
        <ele>49</ele>
        <time>2015-12-13T08:49:22Z</time>
      </trkpt>
      <trkpt lat="50.78654" lon="3.75738">
        <ele>49</ele>
        <time>2015-12-13T08:49:23Z</time>
      </trkpt>
      <trkpt lat="50.78655" lon="3.75735">
        <ele>49</ele>
        <time>2015-12-13T08:49:24Z</time>
      </trkpt>
      <trkpt lat="50.78656" lon="3.75732">
        <ele>49</ele>
        <time>2015-12-13T08:49:25Z</time>
      </trkpt>
      <trkpt lat="50.78658" lon="3.7573">
        <ele>49</ele>
        <time>2015-12-13T08:49:26Z</time>
      </trkpt>
      <trkpt lat="50.78659" lon="3.75727">
        <ele>49</ele>
        <time>2015-12-13T08:49:27Z</time>
      </trkpt>
      <trkpt lat="50.78661" lon="3.75725">
        <ele>49</ele>
        <time>2015-12-13T08:49:28Z</time>
      </trkpt>
      <trkpt lat="50.78662" lon="3.75722">
        <ele>49</ele>
        <time>2015-12-13T08:49:29Z</time>
      </trkpt>
      <trkpt lat="50.78664" lon="3.75719">
        <ele>49</ele>
        <time>2015-12-13T08:49:30Z</time>
      </trkpt>
      <trkpt lat="50.78665" lon="3.75716">
        <ele>49.7</ele>
        <time>2015-12-13T08:49:31Z</time>
      </trkpt>
      <trkpt lat="50.78667" lon="3.75714">
        <ele>50</ele>
        <time>2015-12-13T08:49:32Z</time>
      </trkpt>
      <trkpt lat="50.78668" lon="3.75711">
        <ele>50</ele>
        <time>2015-12-13T08:49:33Z</time>
      </trkpt>
      <trkpt lat="50.7867" lon="3.75709">
        <ele>50</ele>
        <time>2015-12-13T08:49:34Z</time>
      </trkpt>
      <trkpt lat="50.78671" lon="3.75706">
        <ele>50</ele>
        <time>2015-12-13T08:49:35Z</time>
      </trkpt>
      <trkpt lat="50.78673" lon="3.75704">
        <ele>50</ele>
        <time>2015-12-13T08:49:36Z</time>
      </trkpt>
      <trkpt lat="50.78674" lon="3.75701">
        <ele>50</ele>
        <time>2015-12-13T08:49:37Z</time>
      </trkpt>
      <trkpt lat="50.78676" lon="3.75699">
        <ele>50</ele>
        <time>2015-12-13T08:49:38Z</time>
      </trkpt>
      <trkpt lat="50.78677" lon="3.75696">
        <ele>50</ele>
        <time>2015-12-13T08:49:39Z</time>
      </trkpt>
      <trkpt lat="50.78679" lon="3.75693">
        <ele>50</ele>
        <time>2015-12-13T08:49:40Z</time>
      </trkpt>
      <trkpt lat="50.7868" lon="3.75691">
        <ele>50</ele>
        <time>2015-12-13T08:49:41Z</time>
      </trkpt>
      <trkpt lat="50.78682" lon="3.75688">
        <ele>50</ele>
        <time>2015-12-13T08:49:42Z</time>
      </trkpt>
      <trkpt lat="50.78683" lon="3.75686">
        <ele>50</ele>
        <time>2015-12-13T08:49:43Z</time>
      </trkpt>
      <trkpt lat="50.78685" lon="3.75683">
        <ele>50</ele>
        <time>2015-12-13T08:49:44Z</time>
      </trkpt>
      <trkpt lat="50.78686" lon="3.7568">
        <ele>50</ele>
        <time>2015-12-13T08:49:45Z</time>
      </trkpt>
      <trkpt lat="50.78688" lon="3.75677">
        <ele>50</ele>
        <time>2015-12-13T08:49:46Z</time>
      </trkpt>
      <trkpt lat="50.7869" lon="3.75675">
        <ele>50</ele>
        <time>2015-12-13T08:49:47Z</time>
      </trkpt>
      <trkpt lat="50.78691" lon="3.75672">
        <ele>50</ele>
        <time>2015-12-13T08:49:48Z</time>
      </trkpt>
      <trkpt lat="50.78693" lon="3.75669">
        <ele>50</ele>
        <time>2015-12-13T08:49:49Z</time>
      </trkpt>
      <trkpt lat="50.78694" lon="3.75666">
        <ele>50</ele>
        <time>2015-12-13T08:49:50Z</time>
      </trkpt>
      <trkpt lat="50.78696" lon="3.75663">
        <ele>50.7</ele>
        <time>2015-12-13T08:49:51Z</time>
      </trkpt>
      <trkpt lat="50.78697" lon="3.75661">
        <ele>51</ele>
        <time>2015-12-13T08:49:52Z</time>
      </trkpt>
      <trkpt lat="50.78699" lon="3.75658">
        <ele>51</ele>
        <time>2015-12-13T08:49:53Z</time>
      </trkpt>
      <trkpt lat="50.787" lon="3.75655">
        <ele>51</ele>
        <time>2015-12-13T08:49:54Z</time>
      </trkpt>
      <trkpt lat="50.78702" lon="3.75652">
        <ele>51</ele>
        <time>2015-12-13T08:49:55Z</time>
      </trkpt>
      <trkpt lat="50.78703" lon="3.75649">
        <ele>51</ele>
        <time>2015-12-13T08:49:56Z</time>
      </trkpt>
      <trkpt lat="50.78705" lon="3.75646">
        <ele>51</ele>
        <time>2015-12-13T08:49:57Z</time>
      </trkpt>
      <trkpt lat="50.78706" lon="3.75643">
        <ele>51</ele>
        <time>2015-12-13T08:49:58Z</time>
      </trkpt>
      <trkpt lat="50.78708" lon="3.75641">
        <ele>51</ele>
        <time>2015-12-13T08:49:59Z</time>
      </trkpt>
      <trkpt lat="50.78709" lon="3.75638">
        <ele>51</ele>
        <time>2015-12-13T08:50:00Z</time>
      </trkpt>
      <trkpt lat="50.78711" lon="3.75636">
        <ele>51.7</ele>
        <time>2015-12-13T08:50:01Z</time>
      </trkpt>
      <trkpt lat="50.78713" lon="3.75633">
        <ele>52</ele>
        <time>2015-12-13T08:50:02Z</time>
      </trkpt>
      <trkpt lat="50.78714" lon="3.75631">
        <ele>52</ele>
        <time>2015-12-13T08:50:03Z</time>
      </trkpt>
      <trkpt lat="50.78716" lon="3.75628">
        <ele>52</ele>
        <time>2015-12-13T08:50:04Z</time>
      </trkpt>
      <trkpt lat="50.78717" lon="3.75625">
        <ele>52</ele>
        <time>2015-12-13T08:50:05Z</time>
      </trkpt>
      <trkpt lat="50.78719" lon="3.75623">
        <ele>52</ele>
        <time>2015-12-13T08:50:06Z</time>
      </trkpt>
      <trkpt lat="50.7872" lon="3.75621">
        <ele>52</ele>
        <time>2015-12-13T08:50:07Z</time>
      </trkpt>
      <trkpt lat="50.78722" lon="3.75618">
        <ele>52</ele>
        <time>2015-12-13T08:50:08Z</time>
      </trkpt>
      <trkpt lat="50.78724" lon="3.75616">
        <ele>52</ele>
        <time>2015-12-13T08:50:09Z</time>
      </trkpt>
      <trkpt lat="50.78725" lon="3.75614">
        <ele>52</ele>
        <time>2015-12-13T08:50:10Z</time>
      </trkpt>
      <trkpt lat="50.78727" lon="3.75612">
        <ele>52.7</ele>
        <time>2015-12-13T08:50:11Z</time>
      </trkpt>
      <trkpt lat="50.78729" lon="3.75609">
        <ele>53</ele>
        <time>2015-12-13T08:50:12Z</time>
      </trkpt>
      <trkpt lat="50.7873" lon="3.75606">
        <ele>53</ele>
        <time>2015-12-13T08:50:13Z</time>
      </trkpt>
      <trkpt lat="50.78732" lon="3.75603">
        <ele>53</ele>
        <time>2015-12-13T08:50:14Z</time>
      </trkpt>
      <trkpt lat="50.78734" lon="3.75601">
        <ele>53</ele>
        <time>2015-12-13T08:50:15Z</time>
      </trkpt>
      <trkpt lat="50.78735" lon="3.75598">
        <ele>53</ele>
        <time>2015-12-13T08:50:16Z</time>
      </trkpt>
      <trkpt lat="50.78737" lon="3.75596">
        <ele>53</ele>
        <time>2015-12-13T08:50:17Z</time>
      </trkpt>
      <trkpt lat="50.78739" lon="3.75593">
        <ele>53</ele>
        <time>2015-12-13T08:50:18Z</time>
      </trkpt>
      <trkpt lat="50.7874" lon="3.7559">
        <ele>53</ele>
        <time>2015-12-13T08:50:19Z</time>
      </trkpt>
      <trkpt lat="50.78742" lon="3.75588">
        <ele>53</ele>
        <time>2015-12-13T08:50:20Z</time>
      </trkpt>
      <trkpt lat="50.78743" lon="3.75585">
        <ele>53</ele>
        <time>2015-12-13T08:50:21Z</time>
      </trkpt>
      <trkpt lat="50.78744" lon="3.75582">
        <ele>53</ele>
        <time>2015-12-13T08:50:22Z</time>
      </trkpt>
      <trkpt lat="50.78746" lon="3.75579">
        <ele>53</ele>
        <time>2015-12-13T08:50:23Z</time>
      </trkpt>
      <trkpt lat="50.78747" lon="3.75575">
        <ele>53</ele>
        <time>2015-12-13T08:50:24Z</time>
      </trkpt>
      <trkpt lat="50.78748" lon="3.75572">
        <ele>53</ele>
        <time>2015-12-13T08:50:25Z</time>
      </trkpt>
      <trkpt lat="50.78749" lon="3.75569">
        <ele>53</ele>
        <time>2015-12-13T08:50:26Z</time>
      </trkpt>
      <trkpt lat="50.7875" lon="3.75566">
        <ele>53</ele>
        <time>2015-12-13T08:50:27Z</time>
      </trkpt>
      <trkpt lat="50.78752" lon="3.75564">
        <ele>53</ele>
        <time>2015-12-13T08:50:28Z</time>
      </trkpt>
      <trkpt lat="50.78753" lon="3.75561">
        <ele>53</ele>
        <time>2015-12-13T08:50:29Z</time>
      </trkpt>
      <trkpt lat="50.78755" lon="3.75558">
        <ele>53</ele>
        <time>2015-12-13T08:50:30Z</time>
      </trkpt>
      <trkpt lat="50.78756" lon="3.75555">
        <ele>53</ele>
        <time>2015-12-13T08:50:31Z</time>
      </trkpt>
      <trkpt lat="50.78757" lon="3.75552">
        <ele>53</ele>
        <time>2015-12-13T08:50:32Z</time>
      </trkpt>
      <trkpt lat="50.78759" lon="3.75549">
        <ele>53</ele>
        <time>2015-12-13T08:50:33Z</time>
      </trkpt>
      <trkpt lat="50.7876" lon="3.75546">
        <ele>53</ele>
        <time>2015-12-13T08:50:34Z</time>
      </trkpt>
      <trkpt lat="50.78761" lon="3.75544">
        <ele>53</ele>
        <time>2015-12-13T08:50:35Z</time>
      </trkpt>
      <trkpt lat="50.78763" lon="3.75541">
        <ele>53</ele>
        <time>2015-12-13T08:50:36Z</time>
      </trkpt>
      <trkpt lat="50.78764" lon="3.75538">
        <ele>53</ele>
        <time>2015-12-13T08:50:37Z</time>
      </trkpt>
      <trkpt lat="50.78765" lon="3.75535">
        <ele>53</ele>
        <time>2015-12-13T08:50:38Z</time>
      </trkpt>
      <trkpt lat="50.78766" lon="3.75532">
        <ele>53</ele>
        <time>2015-12-13T08:50:39Z</time>
      </trkpt>
      <trkpt lat="50.78768" lon="3.75529">
        <ele>53</ele>
        <time>2015-12-13T08:50:40Z</time>
      </trkpt>
      <trkpt lat="50.78769" lon="3.75526">
        <ele>52.3</ele>
        <time>2015-12-13T08:50:41Z</time>
      </trkpt>
      <trkpt lat="50.7877" lon="3.75524">
        <ele>52</ele>
        <time>2015-12-13T08:50:42Z</time>
      </trkpt>
      <trkpt lat="50.78772" lon="3.75521">
        <ele>52</ele>
        <time>2015-12-13T08:50:43Z</time>
      </trkpt>
      <trkpt lat="50.78773" lon="3.75518">
        <ele>52</ele>
        <time>2015-12-13T08:50:44Z</time>
      </trkpt>
      <trkpt lat="50.78775" lon="3.75516">
        <ele>52</ele>
        <time>2015-12-13T08:50:45Z</time>
      </trkpt>
      <trkpt lat="50.78776" lon="3.75513">
        <ele>52</ele>
        <time>2015-12-13T08:50:46Z</time>
      </trkpt>
      <trkpt lat="50.78777" lon="3.7551">
        <ele>52</ele>
        <time>2015-12-13T08:50:47Z</time>
      </trkpt>
      <trkpt lat="50.78779" lon="3.75508">
        <ele>52</ele>
        <time>2015-12-13T08:50:48Z</time>
      </trkpt>
      <trkpt lat="50.7878" lon="3.75505">
        <ele>52</ele>
        <time>2015-12-13T08:50:49Z</time>
      </trkpt>
      <trkpt lat="50.78781" lon="3.75502">
        <ele>52</ele>
        <time>2015-12-13T08:50:50Z</time>
      </trkpt>
      <trkpt lat="50.78782" lon="3.75499">
        <ele>52</ele>
        <time>2015-12-13T08:50:51Z</time>
      </trkpt>
      <trkpt lat="50.78784" lon="3.75496">
        <ele>52</ele>
        <time>2015-12-13T08:50:52Z</time>
      </trkpt>
      <trkpt lat="50.78785" lon="3.75493">
        <ele>52</ele>
        <time>2015-12-13T08:50:53Z</time>
      </trkpt>
      <trkpt lat="50.78787" lon="3.7549">
        <ele>52</ele>
        <time>2015-12-13T08:50:54Z</time>
      </trkpt>
      <trkpt lat="50.78788" lon="3.75487">
        <ele>52</ele>
        <time>2015-12-13T08:50:55Z</time>
      </trkpt>
      <trkpt lat="50.78789" lon="3.75484">
        <ele>52</ele>
        <time>2015-12-13T08:50:56Z</time>
      </trkpt>
      <trkpt lat="50.78791" lon="3.75481">
        <ele>52</ele>
        <time>2015-12-13T08:50:57Z</time>
      </trkpt>
      <trkpt lat="50.78792" lon="3.75478">
        <ele>52</ele>
        <time>2015-12-13T08:50:58Z</time>
      </trkpt>
      <trkpt lat="50.78793" lon="3.75475">
        <ele>52</ele>
        <time>2015-12-13T08:50:59Z</time>
      </trkpt>
      <trkpt lat="50.78795" lon="3.75472">
        <ele>52</ele>
        <time>2015-12-13T08:51:00Z</time>
      </trkpt>
      <trkpt lat="50.78796" lon="3.75469">
        <ele>51.3</ele>
        <time>2015-12-13T08:51:01Z</time>
      </trkpt>
      <trkpt lat="50.78797" lon="3.75466">
        <ele>51</ele>
        <time>2015-12-13T08:51:02Z</time>
      </trkpt>
      <trkpt lat="50.78799" lon="3.75463">
        <ele>51</ele>
        <time>2015-12-13T08:51:03Z</time>
      </trkpt>
      <trkpt lat="50.788" lon="3.7546">
        <ele>51</ele>
        <time>2015-12-13T08:51:04Z</time>
      </trkpt>
      <trkpt lat="50.78801" lon="3.75457">
        <ele>51</ele>
        <time>2015-12-13T08:51:05Z</time>
      </trkpt>
      <trkpt lat="50.78802" lon="3.75453">
        <ele>51</ele>
        <time>2015-12-13T08:51:06Z</time>
      </trkpt>
      <trkpt lat="50.78803" lon="3.7545">
        <ele>51</ele>
        <time>2015-12-13T08:51:07Z</time>
      </trkpt>
      <trkpt lat="50.78804" lon="3.75447">
        <ele>51</ele>
        <time>2015-12-13T08:51:08Z</time>
      </trkpt>
      <trkpt lat="50.78806" lon="3.75444">
        <ele>51</ele>
        <time>2015-12-13T08:51:09Z</time>
      </trkpt>
      <trkpt lat="50.78807" lon="3.75441">
        <ele>51</ele>
        <time>2015-12-13T08:51:10Z</time>
      </trkpt>
      <trkpt lat="50.78808" lon="3.75439">
        <ele>51</ele>
        <time>2015-12-13T08:51:11Z</time>
      </trkpt>
      <trkpt lat="50.78809" lon="3.75436">
        <ele>51</ele>
        <time>2015-12-13T08:51:12Z</time>
      </trkpt>
      <trkpt lat="50.7881" lon="3.75433">
        <ele>51</ele>
        <time>2015-12-13T08:51:13Z</time>
      </trkpt>
      <trkpt lat="50.78811" lon="3.7543">
        <ele>51</ele>
        <time>2015-12-13T08:51:14Z</time>
      </trkpt>
      <trkpt lat="50.78812" lon="3.75427">
        <ele>51</ele>
        <time>2015-12-13T08:51:15Z</time>
      </trkpt>
      <trkpt lat="50.78813" lon="3.75425">
        <ele>51</ele>
        <time>2015-12-13T08:51:16Z</time>
      </trkpt>
      <trkpt lat="50.78814" lon="3.75421">
        <ele>51</ele>
        <time>2015-12-13T08:51:17Z</time>
      </trkpt>
      <trkpt lat="50.78814" lon="3.75418">
        <ele>51</ele>
        <time>2015-12-13T08:51:18Z</time>
      </trkpt>
      <trkpt lat="50.78814" lon="3.75415">
        <ele>51</ele>
        <time>2015-12-13T08:51:19Z</time>
      </trkpt>
      <trkpt lat="50.78815" lon="3.75412">
        <ele>51</ele>
        <time>2015-12-13T08:51:21Z</time>
      </trkpt>
      <trkpt lat="50.78816" lon="3.75415">
        <ele>51</ele>
        <time>2015-12-13T08:51:24Z</time>
      </trkpt>
      <trkpt lat="50.78816" lon="3.75419">
        <ele>51</ele>
        <time>2015-12-13T08:51:27Z</time>
      </trkpt>
      <trkpt lat="50.78816" lon="3.75422">
        <ele>51</ele>
        <time>2015-12-13T08:51:29Z</time>
      </trkpt>
      <trkpt lat="50.78815" lon="3.75425">
        <ele>50</ele>
        <time>2015-12-13T08:51:32Z</time>
      </trkpt>
      <trkpt lat="50.78815" lon="3.75421">
        <ele>51</ele>
        <time>2015-12-13T08:51:57Z</time>
      </trkpt>
      <trkpt lat="50.78814" lon="3.75417">
        <ele>51</ele>
        <time>2015-12-13T08:52:00Z</time>
      </trkpt>
      <trkpt lat="50.78813" lon="3.75413">
        <ele>50.3</ele>
        <time>2015-12-13T08:52:02Z</time>
      </trkpt>
      <trkpt lat="50.78813" lon="3.75408">
        <ele>50</ele>
        <time>2015-12-13T08:52:04Z</time>
      </trkpt>
      <trkpt lat="50.78813" lon="3.75404">
        <ele>50</ele>
        <time>2015-12-13T08:52:06Z</time>
      </trkpt>
      <trkpt lat="50.78813" lon="3.75399">
        <ele>50</ele>
        <time>2015-12-13T08:52:08Z</time>
      </trkpt>
      <trkpt lat="50.78814" lon="3.75395">
        <ele>50</ele>
        <time>2015-12-13T08:52:10Z</time>
      </trkpt>
      <trkpt lat="50.78813" lon="3.7539">
        <ele>49.3</ele>
        <time>2015-12-13T08:52:12Z</time>
      </trkpt>
      <trkpt lat="50.78813" lon="3.75385">
        <ele>49</ele>
        <time>2015-12-13T08:52:14Z</time>
      </trkpt>
      <trkpt lat="50.78813" lon="3.75381">
        <ele>49</ele>
        <time>2015-12-13T08:52:16Z</time>
      </trkpt>
      <trkpt lat="50.78813" lon="3.75376">
        <ele>49</ele>
        <time>2015-12-13T08:52:18Z</time>
      </trkpt>
      <trkpt lat="50.78813" lon="3.75371">
        <ele>49</ele>
        <time>2015-12-13T08:52:20Z</time>
      </trkpt>
      <trkpt lat="50.78813" lon="3.75367">
        <ele>48.3</ele>
        <time>2015-12-13T08:52:22Z</time>
      </trkpt>
      <trkpt lat="50.78813" lon="3.75362">
        <ele>48</ele>
        <time>2015-12-13T08:52:24Z</time>
      </trkpt>
      <trkpt lat="50.78813" lon="3.75357">
        <ele>48</ele>
        <time>2015-12-13T08:52:26Z</time>
      </trkpt>
      <trkpt lat="50.78813" lon="3.75353">
        <ele>48</ele>
        <time>2015-12-13T08:52:28Z</time>
      </trkpt>
      <trkpt lat="50.78813" lon="3.75348">
        <ele>48</ele>
        <time>2015-12-13T08:52:30Z</time>
      </trkpt>
      <trkpt lat="50.78813" lon="3.75343">
        <ele>47.3</ele>
        <time>2015-12-13T08:52:32Z</time>
      </trkpt>
      <trkpt lat="50.78813" lon="3.7534">
        <ele>47</ele>
        <time>2015-12-13T08:52:33Z</time>
      </trkpt>
      <trkpt lat="50.78813" lon="3.75336">
        <ele>47</ele>
        <time>2015-12-13T08:52:34Z</time>
      </trkpt>
      <trkpt lat="50.78813" lon="3.75333">
        <ele>47</ele>
        <time>2015-12-13T08:52:35Z</time>
      </trkpt>
      <trkpt lat="50.78813" lon="3.75329">
        <ele>47</ele>
        <time>2015-12-13T08:52:36Z</time>
      </trkpt>
      <trkpt lat="50.78813" lon="3.75325">
        <ele>47</ele>
        <time>2015-12-13T08:52:37Z</time>
      </trkpt>
      <trkpt lat="50.78813" lon="3.75321">
        <ele>47</ele>
        <time>2015-12-13T08:52:38Z</time>
      </trkpt>
      <trkpt lat="50.78813" lon="3.75317">
        <ele>47</ele>
        <time>2015-12-13T08:52:39Z</time>
      </trkpt>
      <trkpt lat="50.78813" lon="3.75314">
        <ele>47</ele>
        <time>2015-12-13T08:52:40Z</time>
      </trkpt>
      <trkpt lat="50.78813" lon="3.7531">
        <ele>47</ele>
        <time>2015-12-13T08:52:41Z</time>
      </trkpt>
      <trkpt lat="50.78813" lon="3.75306">
        <ele>46.3</ele>
        <time>2015-12-13T08:52:42Z</time>
      </trkpt>
      <trkpt lat="50.78813" lon="3.75302">
        <ele>46</ele>
        <time>2015-12-13T08:52:43Z</time>
      </trkpt>
      <trkpt lat="50.78813" lon="3.75299">
        <ele>46</ele>
        <time>2015-12-13T08:52:44Z</time>
      </trkpt>
      <trkpt lat="50.78813" lon="3.75295">
        <ele>46</ele>
        <time>2015-12-13T08:52:45Z</time>
      </trkpt>
      <trkpt lat="50.78813" lon="3.75292">
        <ele>46</ele>
        <time>2015-12-13T08:52:46Z</time>
      </trkpt>
      <trkpt lat="50.78813" lon="3.75288">
        <ele>46</ele>
        <time>2015-12-13T08:52:47Z</time>
      </trkpt>
      <trkpt lat="50.78812" lon="3.75284">
        <ele>46</ele>
        <time>2015-12-13T08:52:48Z</time>
      </trkpt>
      <trkpt lat="50.78811" lon="3.7528">
        <ele>46</ele>
        <time>2015-12-13T08:52:49Z</time>
      </trkpt>
      <trkpt lat="50.7881" lon="3.75277">
        <ele>46</ele>
        <time>2015-12-13T08:52:50Z</time>
      </trkpt>
      <trkpt lat="50.78808" lon="3.75275">
        <ele>46</ele>
        <time>2015-12-13T08:52:51Z</time>
      </trkpt>
      <trkpt lat="50.78806" lon="3.75274">
        <ele>46</ele>
        <time>2015-12-13T08:52:52Z</time>
      </trkpt>
      <trkpt lat="50.78804" lon="3.75274">
        <ele>46</ele>
        <time>2015-12-13T08:52:53Z</time>
      </trkpt>
      <trkpt lat="50.78801" lon="3.75275">
        <ele>46</ele>
        <time>2015-12-13T08:52:54Z</time>
      </trkpt>
      <trkpt lat="50.78799" lon="3.75276">
        <ele>46</ele>
        <time>2015-12-13T08:52:55Z</time>
      </trkpt>
      <trkpt lat="50.78797" lon="3.75277">
        <ele>46</ele>
        <time>2015-12-13T08:52:56Z</time>
      </trkpt>
      <trkpt lat="50.78795" lon="3.75278">
        <ele>46</ele>
        <time>2015-12-13T08:52:57Z</time>
      </trkpt>
      <trkpt lat="50.78793" lon="3.75278">
        <ele>46</ele>
        <time>2015-12-13T08:52:58Z</time>
      </trkpt>
      <trkpt lat="50.78791" lon="3.75278">
        <ele>46</ele>
        <time>2015-12-13T08:52:59Z</time>
      </trkpt>
      <trkpt lat="50.78789" lon="3.75277">
        <ele>46</ele>
        <time>2015-12-13T08:53:00Z</time>
      </trkpt>
      <trkpt lat="50.78787" lon="3.75276">
        <ele>46</ele>
        <time>2015-12-13T08:53:01Z</time>
      </trkpt>
      <trkpt lat="50.78785" lon="3.75274">
        <ele>46</ele>
        <time>2015-12-13T08:53:02Z</time>
      </trkpt>
      <trkpt lat="50.78783" lon="3.75272">
        <ele>46</ele>
        <time>2015-12-13T08:53:03Z</time>
      </trkpt>
      <trkpt lat="50.78781" lon="3.75271">
        <ele>46</ele>
        <time>2015-12-13T08:53:04Z</time>
      </trkpt>
      <trkpt lat="50.78779" lon="3.75269">
        <ele>46</ele>
        <time>2015-12-13T08:53:05Z</time>
      </trkpt>
      <trkpt lat="50.78777" lon="3.75267">
        <ele>46</ele>
        <time>2015-12-13T08:53:06Z</time>
      </trkpt>
      <trkpt lat="50.78775" lon="3.75265">
        <ele>46</ele>
        <time>2015-12-13T08:53:07Z</time>
      </trkpt>
      <trkpt lat="50.78773" lon="3.75263">
        <ele>46</ele>
        <time>2015-12-13T08:53:08Z</time>
      </trkpt>
      <trkpt lat="50.78771" lon="3.7526">
        <ele>46</ele>
        <time>2015-12-13T08:53:09Z</time>
      </trkpt>
      <trkpt lat="50.78769" lon="3.75258">
        <ele>46</ele>
        <time>2015-12-13T08:53:10Z</time>
      </trkpt>
      <trkpt lat="50.78767" lon="3.75256">
        <ele>46.7</ele>
        <time>2015-12-13T08:53:11Z</time>
      </trkpt>
      <trkpt lat="50.78765" lon="3.75254">
        <ele>47</ele>
        <time>2015-12-13T08:53:12Z</time>
      </trkpt>
      <trkpt lat="50.78763" lon="3.75252">
        <ele>47</ele>
        <time>2015-12-13T08:53:13Z</time>
      </trkpt>
      <trkpt lat="50.78761" lon="3.7525">
        <ele>47</ele>
        <time>2015-12-13T08:53:14Z</time>
      </trkpt>
      <trkpt lat="50.78759" lon="3.75248">
        <ele>47</ele>
        <time>2015-12-13T08:53:15Z</time>
      </trkpt>
      <trkpt lat="50.78757" lon="3.75246">
        <ele>47</ele>
        <time>2015-12-13T08:53:16Z</time>
      </trkpt>
      <trkpt lat="50.78755" lon="3.75244">
        <ele>47</ele>
        <time>2015-12-13T08:53:17Z</time>
      </trkpt>
      <trkpt lat="50.78753" lon="3.75243">
        <ele>47</ele>
        <time>2015-12-13T08:53:18Z</time>
      </trkpt>
      <trkpt lat="50.78751" lon="3.75241">
        <ele>47</ele>
        <time>2015-12-13T08:53:19Z</time>
      </trkpt>
      <trkpt lat="50.78748" lon="3.75239">
        <ele>47</ele>
        <time>2015-12-13T08:53:20Z</time>
      </trkpt>
      <trkpt lat="50.78746" lon="3.75237">
        <ele>47</ele>
        <time>2015-12-13T08:53:21Z</time>
      </trkpt>
      <trkpt lat="50.78744" lon="3.75236">
        <ele>47</ele>
        <time>2015-12-13T08:53:22Z</time>
      </trkpt>
      <trkpt lat="50.78741" lon="3.75235">
        <ele>47</ele>
        <time>2015-12-13T08:53:23Z</time>
      </trkpt>
      <trkpt lat="50.78739" lon="3.75233">
        <ele>47</ele>
        <time>2015-12-13T08:53:24Z</time>
      </trkpt>
      <trkpt lat="50.78737" lon="3.75232">
        <ele>47</ele>
        <time>2015-12-13T08:53:25Z</time>
      </trkpt>
      <trkpt lat="50.78735" lon="3.7523">
        <ele>47</ele>
        <time>2015-12-13T08:53:26Z</time>
      </trkpt>
      <trkpt lat="50.78733" lon="3.75228">
        <ele>47</ele>
        <time>2015-12-13T08:53:27Z</time>
      </trkpt>
      <trkpt lat="50.78731" lon="3.75226">
        <ele>47</ele>
        <time>2015-12-13T08:53:28Z</time>
      </trkpt>
      <trkpt lat="50.78729" lon="3.75225">
        <ele>47</ele>
        <time>2015-12-13T08:53:29Z</time>
      </trkpt>
      <trkpt lat="50.78727" lon="3.75223">
        <ele>47</ele>
        <time>2015-12-13T08:53:30Z</time>
      </trkpt>
      <trkpt lat="50.78725" lon="3.75222">
        <ele>47</ele>
        <time>2015-12-13T08:53:31Z</time>
      </trkpt>
      <trkpt lat="50.78723" lon="3.7522">
        <ele>47</ele>
        <time>2015-12-13T08:53:32Z</time>
      </trkpt>
      <trkpt lat="50.78721" lon="3.75219">
        <ele>47</ele>
        <time>2015-12-13T08:53:33Z</time>
      </trkpt>
      <trkpt lat="50.78719" lon="3.75217">
        <ele>47</ele>
        <time>2015-12-13T08:53:34Z</time>
      </trkpt>
      <trkpt lat="50.78717" lon="3.75215">
        <ele>47</ele>
        <time>2015-12-13T08:53:35Z</time>
      </trkpt>
      <trkpt lat="50.78715" lon="3.75213">
        <ele>47</ele>
        <time>2015-12-13T08:53:36Z</time>
      </trkpt>
      <trkpt lat="50.78713" lon="3.75212">
        <ele>47</ele>
        <time>2015-12-13T08:53:37Z</time>
      </trkpt>
      <trkpt lat="50.78711" lon="3.7521">
        <ele>47</ele>
        <time>2015-12-13T08:53:38Z</time>
      </trkpt>
      <trkpt lat="50.78709" lon="3.75208">
        <ele>47</ele>
        <time>2015-12-13T08:53:39Z</time>
      </trkpt>
      <trkpt lat="50.78707" lon="3.75207">
        <ele>47</ele>
        <time>2015-12-13T08:53:40Z</time>
      </trkpt>
      <trkpt lat="50.78705" lon="3.75206">
        <ele>47</ele>
        <time>2015-12-13T08:53:41Z</time>
      </trkpt>
      <trkpt lat="50.78703" lon="3.75204">
        <ele>47</ele>
        <time>2015-12-13T08:53:42Z</time>
      </trkpt>
      <trkpt lat="50.787" lon="3.75203">
        <ele>47</ele>
        <time>2015-12-13T08:53:43Z</time>
      </trkpt>
      <trkpt lat="50.78698" lon="3.75202">
        <ele>47</ele>
        <time>2015-12-13T08:53:44Z</time>
      </trkpt>
      <trkpt lat="50.78696" lon="3.75201">
        <ele>47</ele>
        <time>2015-12-13T08:53:45Z</time>
      </trkpt>
      <trkpt lat="50.78694" lon="3.75201">
        <ele>47</ele>
        <time>2015-12-13T08:53:46Z</time>
      </trkpt>
      <trkpt lat="50.78691" lon="3.752">
        <ele>47</ele>
        <time>2015-12-13T08:53:47Z</time>
      </trkpt>
      <trkpt lat="50.78689" lon="3.75199">
        <ele>47</ele>
        <time>2015-12-13T08:53:48Z</time>
      </trkpt>
      <trkpt lat="50.78687" lon="3.75198">
        <ele>47</ele>
        <time>2015-12-13T08:53:49Z</time>
      </trkpt>
      <trkpt lat="50.78685" lon="3.75197">
        <ele>47</ele>
        <time>2015-12-13T08:53:50Z</time>
      </trkpt>
      <trkpt lat="50.78683" lon="3.75196">
        <ele>47.7</ele>
        <time>2015-12-13T08:53:51Z</time>
      </trkpt>
      <trkpt lat="50.7868" lon="3.75195">
        <ele>48</ele>
        <time>2015-12-13T08:53:52Z</time>
      </trkpt>
      <trkpt lat="50.78678" lon="3.75194">
        <ele>48</ele>
        <time>2015-12-13T08:53:53Z</time>
      </trkpt>
      <trkpt lat="50.78676" lon="3.75193">
        <ele>48</ele>
        <time>2015-12-13T08:53:54Z</time>
      </trkpt>
      <trkpt lat="50.78673" lon="3.75193">
        <ele>48</ele>
        <time>2015-12-13T08:53:55Z</time>
      </trkpt>
      <trkpt lat="50.78671" lon="3.75192">
        <ele>48</ele>
        <time>2015-12-13T08:53:56Z</time>
      </trkpt>
      <trkpt lat="50.78669" lon="3.75191">
        <ele>48</ele>
        <time>2015-12-13T08:53:57Z</time>
      </trkpt>
      <trkpt lat="50.78667" lon="3.75191">
        <ele>48</ele>
        <time>2015-12-13T08:53:58Z</time>
      </trkpt>
      <trkpt lat="50.78664" lon="3.7519">
        <ele>48</ele>
        <time>2015-12-13T08:53:59Z</time>
      </trkpt>
      <trkpt lat="50.78662" lon="3.75189">
        <ele>48</ele>
        <time>2015-12-13T08:54:00Z</time>
      </trkpt>
      <trkpt lat="50.7866" lon="3.75189">
        <ele>48</ele>
        <time>2015-12-13T08:54:01Z</time>
      </trkpt>
      <trkpt lat="50.78658" lon="3.75188">
        <ele>48</ele>
        <time>2015-12-13T08:54:02Z</time>
      </trkpt>
      <trkpt lat="50.78655" lon="3.75187">
        <ele>48</ele>
        <time>2015-12-13T08:54:03Z</time>
      </trkpt>
      <trkpt lat="50.78653" lon="3.75187">
        <ele>48</ele>
        <time>2015-12-13T08:54:04Z</time>
      </trkpt>
      <trkpt lat="50.78651" lon="3.75186">
        <ele>48</ele>
        <time>2015-12-13T08:54:05Z</time>
      </trkpt>
      <trkpt lat="50.78649" lon="3.75185">
        <ele>48</ele>
        <time>2015-12-13T08:54:06Z</time>
      </trkpt>
      <trkpt lat="50.78647" lon="3.75184">
        <ele>48</ele>
        <time>2015-12-13T08:54:07Z</time>
      </trkpt>
      <trkpt lat="50.78644" lon="3.75184">
        <ele>48</ele>
        <time>2015-12-13T08:54:08Z</time>
      </trkpt>
      <trkpt lat="50.78642" lon="3.75183">
        <ele>48</ele>
        <time>2015-12-13T08:54:09Z</time>
      </trkpt>
      <trkpt lat="50.7864" lon="3.75182">
        <ele>48</ele>
        <time>2015-12-13T08:54:10Z</time>
      </trkpt>
      <trkpt lat="50.78638" lon="3.75181">
        <ele>48.7</ele>
        <time>2015-12-13T08:54:11Z</time>
      </trkpt>
      <trkpt lat="50.78635" lon="3.7518">
        <ele>49</ele>
        <time>2015-12-13T08:54:12Z</time>
      </trkpt>
      <trkpt lat="50.78633" lon="3.75179">
        <ele>49</ele>
        <time>2015-12-13T08:54:13Z</time>
      </trkpt>
      <trkpt lat="50.78631" lon="3.75179">
        <ele>49</ele>
        <time>2015-12-13T08:54:14Z</time>
      </trkpt>
      <trkpt lat="50.78629" lon="3.75178">
        <ele>49</ele>
        <time>2015-12-13T08:54:15Z</time>
      </trkpt>
      <trkpt lat="50.78627" lon="3.75177">
        <ele>49</ele>
        <time>2015-12-13T08:54:16Z</time>
      </trkpt>
      <trkpt lat="50.78625" lon="3.75176">
        <ele>49</ele>
        <time>2015-12-13T08:54:17Z</time>
      </trkpt>
      <trkpt lat="50.78623" lon="3.75175">
        <ele>49</ele>
        <time>2015-12-13T08:54:18Z</time>
      </trkpt>
      <trkpt lat="50.7862" lon="3.75173">
        <ele>49</ele>
        <time>2015-12-13T08:54:19Z</time>
      </trkpt>
      <trkpt lat="50.78618" lon="3.75172">
        <ele>49</ele>
        <time>2015-12-13T08:54:20Z</time>
      </trkpt>
      <trkpt lat="50.78616" lon="3.75171">
        <ele>49</ele>
        <time>2015-12-13T08:54:21Z</time>
      </trkpt>
      <trkpt lat="50.78614" lon="3.75169">
        <ele>49</ele>
        <time>2015-12-13T08:54:22Z</time>
      </trkpt>
      <trkpt lat="50.78612" lon="3.75168">
        <ele>49</ele>
        <time>2015-12-13T08:54:23Z</time>
      </trkpt>
      <trkpt lat="50.7861" lon="3.75166">
        <ele>49</ele>
        <time>2015-12-13T08:54:24Z</time>
      </trkpt>
      <trkpt lat="50.78608" lon="3.75165">
        <ele>49</ele>
        <time>2015-12-13T08:54:25Z</time>
      </trkpt>
      <trkpt lat="50.78606" lon="3.75163">
        <ele>49</ele>
        <time>2015-12-13T08:54:26Z</time>
      </trkpt>
      <trkpt lat="50.78604" lon="3.75161">
        <ele>49</ele>
        <time>2015-12-13T08:54:27Z</time>
      </trkpt>
      <trkpt lat="50.78602" lon="3.7516">
        <ele>49</ele>
        <time>2015-12-13T08:54:28Z</time>
      </trkpt>
      <trkpt lat="50.786" lon="3.75158">
        <ele>49</ele>
        <time>2015-12-13T08:54:29Z</time>
      </trkpt>
      <trkpt lat="50.78598" lon="3.75157">
        <ele>49</ele>
        <time>2015-12-13T08:54:30Z</time>
      </trkpt>
      <trkpt lat="50.78596" lon="3.75156">
        <ele>49.5</ele>
        <time>2015-12-13T08:54:31Z</time>
      </trkpt>
      <trkpt lat="50.78594" lon="3.75155">
        <ele>50</ele>
        <time>2015-12-13T08:54:32Z</time>
      </trkpt>
      <trkpt lat="50.78592" lon="3.75153">
        <ele>50</ele>
        <time>2015-12-13T08:54:33Z</time>
      </trkpt>
      <trkpt lat="50.78591" lon="3.75152">
        <ele>50</ele>
        <time>2015-12-13T08:54:34Z</time>
      </trkpt>
      <trkpt lat="50.78589" lon="3.75151">
        <ele>50</ele>
        <time>2015-12-13T08:54:35Z</time>
      </trkpt>
      <trkpt lat="50.78587" lon="3.75149">
        <ele>50</ele>
        <time>2015-12-13T08:54:36Z</time>
      </trkpt>
      <trkpt lat="50.78585" lon="3.75148">
        <ele>50</ele>
        <time>2015-12-13T08:54:37Z</time>
      </trkpt>
      <trkpt lat="50.78583" lon="3.75146">
        <ele>50</ele>
        <time>2015-12-13T08:54:38Z</time>
      </trkpt>
      <trkpt lat="50.78581" lon="3.75144">
        <ele>50</ele>
        <time>2015-12-13T08:54:39Z</time>
      </trkpt>
      <trkpt lat="50.78579" lon="3.75143">
        <ele>50</ele>
        <time>2015-12-13T08:54:40Z</time>
      </trkpt>
      <trkpt lat="50.78577" lon="3.75141">
        <ele>50</ele>
        <time>2015-12-13T08:54:41Z</time>
      </trkpt>
      <trkpt lat="50.78576" lon="3.75139">
        <ele>50</ele>
        <time>2015-12-13T08:54:42Z</time>
      </trkpt>
      <trkpt lat="50.78573" lon="3.75138">
        <ele>50</ele>
        <time>2015-12-13T08:54:43Z</time>
      </trkpt>
      <trkpt lat="50.78571" lon="3.75137">
        <ele>50</ele>
        <time>2015-12-13T08:54:44Z</time>
      </trkpt>
      <trkpt lat="50.78569" lon="3.75135">
        <ele>50</ele>
        <time>2015-12-13T08:54:45Z</time>
      </trkpt>
      <trkpt lat="50.78567" lon="3.75134">
        <ele>50</ele>
        <time>2015-12-13T08:54:46Z</time>
      </trkpt>
      <trkpt lat="50.78565" lon="3.75132">
        <ele>50</ele>
        <time>2015-12-13T08:54:47Z</time>
      </trkpt>
      <trkpt lat="50.78563" lon="3.75131">
        <ele>50</ele>
        <time>2015-12-13T08:54:48Z</time>
      </trkpt>
      <trkpt lat="50.78561" lon="3.75129">
        <ele>50</ele>
        <time>2015-12-13T08:54:49Z</time>
      </trkpt>
      <trkpt lat="50.78559" lon="3.75128">
        <ele>50</ele>
        <time>2015-12-13T08:54:50Z</time>
      </trkpt>
      <trkpt lat="50.78557" lon="3.75126">
        <ele>50</ele>
        <time>2015-12-13T08:54:51Z</time>
      </trkpt>
      <trkpt lat="50.78555" lon="3.75124">
        <ele>50</ele>
        <time>2015-12-13T08:54:52Z</time>
      </trkpt>
      <trkpt lat="50.78553" lon="3.75122">
        <ele>50</ele>
        <time>2015-12-13T08:54:53Z</time>
      </trkpt>
      <trkpt lat="50.78551" lon="3.75121">
        <ele>50</ele>
        <time>2015-12-13T08:54:54Z</time>
      </trkpt>
      <trkpt lat="50.78549" lon="3.75119">
        <ele>50</ele>
        <time>2015-12-13T08:54:55Z</time>
      </trkpt>
      <trkpt lat="50.78547" lon="3.75118">
        <ele>50</ele>
        <time>2015-12-13T08:54:56Z</time>
      </trkpt>
      <trkpt lat="50.78545" lon="3.75116">
        <ele>50</ele>
        <time>2015-12-13T08:54:57Z</time>
      </trkpt>
      <trkpt lat="50.78543" lon="3.75114">
        <ele>50</ele>
        <time>2015-12-13T08:54:58Z</time>
      </trkpt>
      <trkpt lat="50.78541" lon="3.75113">
        <ele>50</ele>
        <time>2015-12-13T08:54:59Z</time>
      </trkpt>
      <trkpt lat="50.78539" lon="3.75111">
        <ele>50</ele>
        <time>2015-12-13T08:55:00Z</time>
      </trkpt>
      <trkpt lat="50.78537" lon="3.7511">
        <ele>50</ele>
        <time>2015-12-13T08:55:01Z</time>
      </trkpt>
      <trkpt lat="50.78534" lon="3.75108">
        <ele>50</ele>
        <time>2015-12-13T08:55:02Z</time>
      </trkpt>
      <trkpt lat="50.78532" lon="3.75107">
        <ele>50</ele>
        <time>2015-12-13T08:55:03Z</time>
      </trkpt>
      <trkpt lat="50.7853" lon="3.75105">
        <ele>50</ele>
        <time>2015-12-13T08:55:04Z</time>
      </trkpt>
      <trkpt lat="50.78528" lon="3.75104">
        <ele>50</ele>
        <time>2015-12-13T08:55:05Z</time>
      </trkpt>
      <trkpt lat="50.78526" lon="3.75102">
        <ele>50</ele>
        <time>2015-12-13T08:55:06Z</time>
      </trkpt>
      <trkpt lat="50.78524" lon="3.75101">
        <ele>50</ele>
        <time>2015-12-13T08:55:07Z</time>
      </trkpt>
      <trkpt lat="50.78522" lon="3.751">
        <ele>50</ele>
        <time>2015-12-13T08:55:08Z</time>
      </trkpt>
      <trkpt lat="50.7852" lon="3.75098">
        <ele>50</ele>
        <time>2015-12-13T08:55:09Z</time>
      </trkpt>
      <trkpt lat="50.78518" lon="3.75097">
        <ele>50</ele>
        <time>2015-12-13T08:55:10Z</time>
      </trkpt>
      <trkpt lat="50.78516" lon="3.75095">
        <ele>50</ele>
        <time>2015-12-13T08:55:11Z</time>
      </trkpt>
      <trkpt lat="50.78514" lon="3.75094">
        <ele>50</ele>
        <time>2015-12-13T08:55:12Z</time>
      </trkpt>
      <trkpt lat="50.78512" lon="3.75092">
        <ele>50</ele>
        <time>2015-12-13T08:55:13Z</time>
      </trkpt>
      <trkpt lat="50.7851" lon="3.75091">
        <ele>50</ele>
        <time>2015-12-13T08:55:14Z</time>
      </trkpt>
      <trkpt lat="50.78508" lon="3.75089">
        <ele>50</ele>
        <time>2015-12-13T08:55:15Z</time>
      </trkpt>
      <trkpt lat="50.78506" lon="3.75087">
        <ele>50</ele>
        <time>2015-12-13T08:55:16Z</time>
      </trkpt>
      <trkpt lat="50.78504" lon="3.75086">
        <ele>50</ele>
        <time>2015-12-13T08:55:17Z</time>
      </trkpt>
      <trkpt lat="50.78502" lon="3.75084">
        <ele>50</ele>
        <time>2015-12-13T08:55:18Z</time>
      </trkpt>
      <trkpt lat="50.785" lon="3.75083">
        <ele>50</ele>
        <time>2015-12-13T08:55:19Z</time>
      </trkpt>
      <trkpt lat="50.78498" lon="3.75081">
        <ele>50</ele>
        <time>2015-12-13T08:55:20Z</time>
      </trkpt>
      <trkpt lat="50.78496" lon="3.75079">
        <ele>50.7</ele>
        <time>2015-12-13T08:55:21Z</time>
      </trkpt>
      <trkpt lat="50.78494" lon="3.75077">
        <ele>51</ele>
        <time>2015-12-13T08:55:22Z</time>
      </trkpt>
      <trkpt lat="50.78492" lon="3.75075">
        <ele>51</ele>
        <time>2015-12-13T08:55:23Z</time>
      </trkpt>
      <trkpt lat="50.7849" lon="3.75073">
        <ele>51</ele>
        <time>2015-12-13T08:55:24Z</time>
      </trkpt>
      <trkpt lat="50.78488" lon="3.75071">
        <ele>51</ele>
        <time>2015-12-13T08:55:25Z</time>
      </trkpt>
      <trkpt lat="50.78486" lon="3.75069">
        <ele>51</ele>
        <time>2015-12-13T08:55:26Z</time>
      </trkpt>
      <trkpt lat="50.78484" lon="3.75067">
        <ele>51</ele>
        <time>2015-12-13T08:55:27Z</time>
      </trkpt>
      <trkpt lat="50.78482" lon="3.75065">
        <ele>51</ele>
        <time>2015-12-13T08:55:28Z</time>
      </trkpt>
      <trkpt lat="50.7848" lon="3.75063">
        <ele>51</ele>
        <time>2015-12-13T08:55:29Z</time>
      </trkpt>
      <trkpt lat="50.78478" lon="3.75061">
        <ele>51</ele>
        <time>2015-12-13T08:55:30Z</time>
      </trkpt>
      <trkpt lat="50.78476" lon="3.75059">
        <ele>51</ele>
        <time>2015-12-13T08:55:31Z</time>
      </trkpt>
      <trkpt lat="50.78474" lon="3.75057">
        <ele>51</ele>
        <time>2015-12-13T08:55:32Z</time>
      </trkpt>
      <trkpt lat="50.78473" lon="3.75055">
        <ele>51</ele>
        <time>2015-12-13T08:55:33Z</time>
      </trkpt>
      <trkpt lat="50.78471" lon="3.75054">
        <ele>51</ele>
        <time>2015-12-13T08:55:34Z</time>
      </trkpt>
      <trkpt lat="50.78469" lon="3.75052">
        <ele>51</ele>
        <time>2015-12-13T08:55:35Z</time>
      </trkpt>
      <trkpt lat="50.78467" lon="3.75049">
        <ele>51</ele>
        <time>2015-12-13T08:55:36Z</time>
      </trkpt>
      <trkpt lat="50.78466" lon="3.75046">
        <ele>51</ele>
        <time>2015-12-13T08:55:37Z</time>
      </trkpt>
      <trkpt lat="50.78464" lon="3.75044">
        <ele>51</ele>
        <time>2015-12-13T08:55:38Z</time>
      </trkpt>
      <trkpt lat="50.78462" lon="3.75042">
        <ele>51</ele>
        <time>2015-12-13T08:55:39Z</time>
      </trkpt>
      <trkpt lat="50.7846" lon="3.7504">
        <ele>51</ele>
        <time>2015-12-13T08:55:40Z</time>
      </trkpt>
      <trkpt lat="50.78458" lon="3.75037">
        <ele>51</ele>
        <time>2015-12-13T08:55:41Z</time>
      </trkpt>
      <trkpt lat="50.78456" lon="3.75035">
        <ele>51</ele>
        <time>2015-12-13T08:55:42Z</time>
      </trkpt>
      <trkpt lat="50.78455" lon="3.75033">
        <ele>51</ele>
        <time>2015-12-13T08:55:43Z</time>
      </trkpt>
      <trkpt lat="50.78453" lon="3.75031">
        <ele>51</ele>
        <time>2015-12-13T08:55:44Z</time>
      </trkpt>
      <trkpt lat="50.78451" lon="3.75029">
        <ele>51</ele>
        <time>2015-12-13T08:55:45Z</time>
      </trkpt>
      <trkpt lat="50.78449" lon="3.75027">
        <ele>51</ele>
        <time>2015-12-13T08:55:46Z</time>
      </trkpt>
      <trkpt lat="50.78447" lon="3.75025">
        <ele>51</ele>
        <time>2015-12-13T08:55:47Z</time>
      </trkpt>
      <trkpt lat="50.78445" lon="3.75024">
        <ele>51</ele>
        <time>2015-12-13T08:55:48Z</time>
      </trkpt>
      <trkpt lat="50.78443" lon="3.75022">
        <ele>51</ele>
        <time>2015-12-13T08:55:49Z</time>
      </trkpt>
      <trkpt lat="50.78441" lon="3.7502">
        <ele>51</ele>
        <time>2015-12-13T08:55:50Z</time>
      </trkpt>
      <trkpt lat="50.78439" lon="3.75018">
        <ele>51.7</ele>
        <time>2015-12-13T08:55:51Z</time>
      </trkpt>
      <trkpt lat="50.78437" lon="3.75016">
        <ele>52</ele>
        <time>2015-12-13T08:55:52Z</time>
      </trkpt>
      <trkpt lat="50.78435" lon="3.75014">
        <ele>52</ele>
        <time>2015-12-13T08:55:53Z</time>
      </trkpt>
      <trkpt lat="50.78434" lon="3.75012">
        <ele>52</ele>
        <time>2015-12-13T08:55:54Z</time>
      </trkpt>
      <trkpt lat="50.78432" lon="3.7501">
        <ele>52</ele>
        <time>2015-12-13T08:55:55Z</time>
      </trkpt>
      <trkpt lat="50.7843" lon="3.75008">
        <ele>52</ele>
        <time>2015-12-13T08:55:56Z</time>
      </trkpt>
      <trkpt lat="50.78428" lon="3.75006">
        <ele>52</ele>
        <time>2015-12-13T08:55:57Z</time>
      </trkpt>
      <trkpt lat="50.78427" lon="3.75004">
        <ele>52</ele>
        <time>2015-12-13T08:55:58Z</time>
      </trkpt>
      <trkpt lat="50.78425" lon="3.75003">
        <ele>52</ele>
        <time>2015-12-13T08:55:59Z</time>
      </trkpt>
      <trkpt lat="50.78423" lon="3.75001">
        <ele>52</ele>
        <time>2015-12-13T08:56:00Z</time>
      </trkpt>
      <trkpt lat="50.78421" lon="3.74999">
        <ele>52</ele>
        <time>2015-12-13T08:56:01Z</time>
      </trkpt>
      <trkpt lat="50.78419" lon="3.74998">
        <ele>52</ele>
        <time>2015-12-13T08:56:02Z</time>
      </trkpt>
      <trkpt lat="50.78417" lon="3.74996">
        <ele>52</ele>
        <time>2015-12-13T08:56:03Z</time>
      </trkpt>
      <trkpt lat="50.78415" lon="3.74995">
        <ele>52</ele>
        <time>2015-12-13T08:56:04Z</time>
      </trkpt>
      <trkpt lat="50.78413" lon="3.74993">
        <ele>52</ele>
        <time>2015-12-13T08:56:05Z</time>
      </trkpt>
      <trkpt lat="50.78411" lon="3.74992">
        <ele>52</ele>
        <time>2015-12-13T08:56:06Z</time>
      </trkpt>
      <trkpt lat="50.78409" lon="3.7499">
        <ele>52</ele>
        <time>2015-12-13T08:56:07Z</time>
      </trkpt>
      <trkpt lat="50.78407" lon="3.74989">
        <ele>52</ele>
        <time>2015-12-13T08:56:08Z</time>
      </trkpt>
      <trkpt lat="50.78405" lon="3.74988">
        <ele>52</ele>
        <time>2015-12-13T08:56:09Z</time>
      </trkpt>
      <trkpt lat="50.78403" lon="3.74986">
        <ele>52</ele>
        <time>2015-12-13T08:56:10Z</time>
      </trkpt>
      <trkpt lat="50.78401" lon="3.74985">
        <ele>52</ele>
        <time>2015-12-13T08:56:11Z</time>
      </trkpt>
      <trkpt lat="50.78399" lon="3.74984">
        <ele>52</ele>
        <time>2015-12-13T08:56:12Z</time>
      </trkpt>
      <trkpt lat="50.78398" lon="3.74982">
        <ele>52</ele>
        <time>2015-12-13T08:56:13Z</time>
      </trkpt>
      <trkpt lat="50.78396" lon="3.74981">
        <ele>52</ele>
        <time>2015-12-13T08:56:14Z</time>
      </trkpt>
      <trkpt lat="50.78394" lon="3.7498">
        <ele>52</ele>
        <time>2015-12-13T08:56:15Z</time>
      </trkpt>
      <trkpt lat="50.78392" lon="3.74979">
        <ele>52</ele>
        <time>2015-12-13T08:56:16Z</time>
      </trkpt>
      <trkpt lat="50.7839" lon="3.74978">
        <ele>52</ele>
        <time>2015-12-13T08:56:17Z</time>
      </trkpt>
      <trkpt lat="50.78388" lon="3.74977">
        <ele>52</ele>
        <time>2015-12-13T08:56:18Z</time>
      </trkpt>
      <trkpt lat="50.78386" lon="3.74976">
        <ele>52</ele>
        <time>2015-12-13T08:56:19Z</time>
      </trkpt>
      <trkpt lat="50.78384" lon="3.74975">
        <ele>52</ele>
        <time>2015-12-13T08:56:20Z</time>
      </trkpt>
      <trkpt lat="50.78382" lon="3.74974">
        <ele>52.5</ele>
        <time>2015-12-13T08:56:21Z</time>
      </trkpt>
      <trkpt lat="50.7838" lon="3.74973">
        <ele>53</ele>
        <time>2015-12-13T08:56:22Z</time>
      </trkpt>
      <trkpt lat="50.78378" lon="3.74972">
        <ele>53</ele>
        <time>2015-12-13T08:56:23Z</time>
      </trkpt>
      <trkpt lat="50.78376" lon="3.7497">
        <ele>53</ele>
        <time>2015-12-13T08:56:24Z</time>
      </trkpt>
      <trkpt lat="50.78374" lon="3.74969">
        <ele>53</ele>
        <time>2015-12-13T08:56:25Z</time>
      </trkpt>
      <trkpt lat="50.78372" lon="3.74968">
        <ele>53</ele>
        <time>2015-12-13T08:56:26Z</time>
      </trkpt>
      <trkpt lat="50.7837" lon="3.74967">
        <ele>53</ele>
        <time>2015-12-13T08:56:27Z</time>
      </trkpt>
      <trkpt lat="50.78368" lon="3.74966">
        <ele>53</ele>
        <time>2015-12-13T08:56:28Z</time>
      </trkpt>
      <trkpt lat="50.78365" lon="3.74965">
        <ele>53</ele>
        <time>2015-12-13T08:56:29Z</time>
      </trkpt>
      <trkpt lat="50.78363" lon="3.74963">
        <ele>53</ele>
        <time>2015-12-13T08:56:30Z</time>
      </trkpt>
      <trkpt lat="50.78361" lon="3.74962">
        <ele>53</ele>
        <time>2015-12-13T08:56:31Z</time>
      </trkpt>
      <trkpt lat="50.78359" lon="3.74961">
        <ele>53</ele>
        <time>2015-12-13T08:56:32Z</time>
      </trkpt>
      <trkpt lat="50.78357" lon="3.7496">
        <ele>53</ele>
        <time>2015-12-13T08:56:33Z</time>
      </trkpt>
      <trkpt lat="50.78355" lon="3.74958">
        <ele>53</ele>
        <time>2015-12-13T08:56:34Z</time>
      </trkpt>
      <trkpt lat="50.78353" lon="3.74957">
        <ele>53</ele>
        <time>2015-12-13T08:56:35Z</time>
      </trkpt>
      <trkpt lat="50.78351" lon="3.74956">
        <ele>53</ele>
        <time>2015-12-13T08:56:36Z</time>
      </trkpt>
      <trkpt lat="50.78349" lon="3.74955">
        <ele>53</ele>
        <time>2015-12-13T08:56:37Z</time>
      </trkpt>
      <trkpt lat="50.78347" lon="3.74954">
        <ele>53</ele>
        <time>2015-12-13T08:56:38Z</time>
      </trkpt>
      <trkpt lat="50.78345" lon="3.74953">
        <ele>53</ele>
        <time>2015-12-13T08:56:39Z</time>
      </trkpt>
      <trkpt lat="50.78343" lon="3.74951">
        <ele>53</ele>
        <time>2015-12-13T08:56:40Z</time>
      </trkpt>
      <trkpt lat="50.78341" lon="3.7495">
        <ele>53.7</ele>
        <time>2015-12-13T08:56:41Z</time>
      </trkpt>
      <trkpt lat="50.78339" lon="3.74949">
        <ele>54</ele>
        <time>2015-12-13T08:56:42Z</time>
      </trkpt>
      <trkpt lat="50.78337" lon="3.74947">
        <ele>54</ele>
        <time>2015-12-13T08:56:43Z</time>
      </trkpt>
      <trkpt lat="50.78335" lon="3.74945">
        <ele>54</ele>
        <time>2015-12-13T08:56:44Z</time>
      </trkpt>
      <trkpt lat="50.78332" lon="3.74943">
        <ele>54</ele>
        <time>2015-12-13T08:56:45Z</time>
      </trkpt>
      <trkpt lat="50.7833" lon="3.74942">
        <ele>54</ele>
        <time>2015-12-13T08:56:46Z</time>
      </trkpt>
      <trkpt lat="50.78328" lon="3.74941">
        <ele>54</ele>
        <time>2015-12-13T08:56:47Z</time>
      </trkpt>
      <trkpt lat="50.78326" lon="3.7494">
        <ele>54</ele>
        <time>2015-12-13T08:56:48Z</time>
      </trkpt>
      <trkpt lat="50.78324" lon="3.74938">
        <ele>54</ele>
        <time>2015-12-13T08:56:49Z</time>
      </trkpt>
      <trkpt lat="50.78322" lon="3.74937">
        <ele>54</ele>
        <time>2015-12-13T08:56:50Z</time>
      </trkpt>
      <trkpt lat="50.7832" lon="3.74936">
        <ele>54</ele>
        <time>2015-12-13T08:56:51Z</time>
      </trkpt>
      <trkpt lat="50.78318" lon="3.74934">
        <ele>54</ele>
        <time>2015-12-13T08:56:52Z</time>
      </trkpt>
      <trkpt lat="50.78316" lon="3.74933">
        <ele>54</ele>
        <time>2015-12-13T08:56:53Z</time>
      </trkpt>
      <trkpt lat="50.78314" lon="3.74931">
        <ele>54</ele>
        <time>2015-12-13T08:56:54Z</time>
      </trkpt>
      <trkpt lat="50.78312" lon="3.74929">
        <ele>54</ele>
        <time>2015-12-13T08:56:55Z</time>
      </trkpt>
      <trkpt lat="50.7831" lon="3.74928">
        <ele>54</ele>
        <time>2015-12-13T08:56:56Z</time>
      </trkpt>
      <trkpt lat="50.78307" lon="3.74926">
        <ele>54</ele>
        <time>2015-12-13T08:56:57Z</time>
      </trkpt>
      <trkpt lat="50.78305" lon="3.74925">
        <ele>54</ele>
        <time>2015-12-13T08:56:58Z</time>
      </trkpt>
      <trkpt lat="50.78303" lon="3.74924">
        <ele>54</ele>
        <time>2015-12-13T08:56:59Z</time>
      </trkpt>
      <trkpt lat="50.78301" lon="3.74923">
        <ele>54</ele>
        <time>2015-12-13T08:57:00Z</time>
      </trkpt>
      <trkpt lat="50.78299" lon="3.74922">
        <ele>53.3</ele>
        <time>2015-12-13T08:57:01Z</time>
      </trkpt>
      <trkpt lat="50.78296" lon="3.74921">
        <ele>53</ele>
        <time>2015-12-13T08:57:02Z</time>
      </trkpt>
      <trkpt lat="50.78294" lon="3.7492">
        <ele>53</ele>
        <time>2015-12-13T08:57:03Z</time>
      </trkpt>
      <trkpt lat="50.78292" lon="3.74918">
        <ele>53</ele>
        <time>2015-12-13T08:57:04Z</time>
      </trkpt>
      <trkpt lat="50.78289" lon="3.74918">
        <ele>53</ele>
        <time>2015-12-13T08:57:05Z</time>
      </trkpt>
      <trkpt lat="50.78287" lon="3.74917">
        <ele>53</ele>
        <time>2015-12-13T08:57:06Z</time>
      </trkpt>
      <trkpt lat="50.78284" lon="3.74916">
        <ele>53</ele>
        <time>2015-12-13T08:57:07Z</time>
      </trkpt>
      <trkpt lat="50.78282" lon="3.74915">
        <ele>53</ele>
        <time>2015-12-13T08:57:08Z</time>
      </trkpt>
      <trkpt lat="50.7828" lon="3.74914">
        <ele>53</ele>
        <time>2015-12-13T08:57:09Z</time>
      </trkpt>
      <trkpt lat="50.78277" lon="3.74913">
        <ele>53</ele>
        <time>2015-12-13T08:57:10Z</time>
      </trkpt>
      <trkpt lat="50.78275" lon="3.74912">
        <ele>53.7</ele>
        <time>2015-12-13T08:57:11Z</time>
      </trkpt>
      <trkpt lat="50.78273" lon="3.74911">
        <ele>54</ele>
        <time>2015-12-13T08:57:12Z</time>
      </trkpt>
      <trkpt lat="50.78271" lon="3.74911">
        <ele>54</ele>
        <time>2015-12-13T08:57:13Z</time>
      </trkpt>
      <trkpt lat="50.78269" lon="3.7491">
        <ele>54</ele>
        <time>2015-12-13T08:57:14Z</time>
      </trkpt>
      <trkpt lat="50.78266" lon="3.7491">
        <ele>54</ele>
        <time>2015-12-13T08:57:15Z</time>
      </trkpt>
      <trkpt lat="50.78264" lon="3.74909">
        <ele>54</ele>
        <time>2015-12-13T08:57:16Z</time>
      </trkpt>
      <trkpt lat="50.78262" lon="3.74908">
        <ele>54</ele>
        <time>2015-12-13T08:57:17Z</time>
      </trkpt>
      <trkpt lat="50.7826" lon="3.74907">
        <ele>54</ele>
        <time>2015-12-13T08:57:18Z</time>
      </trkpt>
      <trkpt lat="50.78258" lon="3.74906">
        <ele>54</ele>
        <time>2015-12-13T08:57:19Z</time>
      </trkpt>
      <trkpt lat="50.78256" lon="3.74907">
        <ele>54</ele>
        <time>2015-12-13T08:57:20Z</time>
      </trkpt>
      <trkpt lat="50.78254" lon="3.74907">
        <ele>54</ele>
        <time>2015-12-13T08:57:21Z</time>
      </trkpt>
      <trkpt lat="50.78252" lon="3.74906">
        <ele>54</ele>
        <time>2015-12-13T08:57:22Z</time>
      </trkpt>
      <trkpt lat="50.7825" lon="3.74905">
        <ele>54</ele>
        <time>2015-12-13T08:57:23Z</time>
      </trkpt>
      <trkpt lat="50.78247" lon="3.74904">
        <ele>54</ele>
        <time>2015-12-13T08:57:24Z</time>
      </trkpt>
      <trkpt lat="50.78245" lon="3.74903">
        <ele>54</ele>
        <time>2015-12-13T08:57:25Z</time>
      </trkpt>
      <trkpt lat="50.78243" lon="3.74902">
        <ele>54</ele>
        <time>2015-12-13T08:57:26Z</time>
      </trkpt>
      <trkpt lat="50.78241" lon="3.74901">
        <ele>54</ele>
        <time>2015-12-13T08:57:27Z</time>
      </trkpt>
      <trkpt lat="50.78239" lon="3.74901">
        <ele>54</ele>
        <time>2015-12-13T08:57:28Z</time>
      </trkpt>
      <trkpt lat="50.78237" lon="3.749">
        <ele>54</ele>
        <time>2015-12-13T08:57:29Z</time>
      </trkpt>
      <trkpt lat="50.78235" lon="3.74899">
        <ele>54</ele>
        <time>2015-12-13T08:57:30Z</time>
      </trkpt>
      <trkpt lat="50.78233" lon="3.74899">
        <ele>54</ele>
        <time>2015-12-13T08:57:31Z</time>
      </trkpt>
      <trkpt lat="50.78231" lon="3.74898">
        <ele>54</ele>
        <time>2015-12-13T08:57:32Z</time>
      </trkpt>
      <trkpt lat="50.78229" lon="3.74898">
        <ele>54</ele>
        <time>2015-12-13T08:57:33Z</time>
      </trkpt>
      <trkpt lat="50.78226" lon="3.74897">
        <ele>54</ele>
        <time>2015-12-13T08:57:34Z</time>
      </trkpt>
      <trkpt lat="50.78224" lon="3.74896">
        <ele>54</ele>
        <time>2015-12-13T08:57:35Z</time>
      </trkpt>
      <trkpt lat="50.78222" lon="3.74896">
        <ele>54</ele>
        <time>2015-12-13T08:57:36Z</time>
      </trkpt>
      <trkpt lat="50.7822" lon="3.74896">
        <ele>54</ele>
        <time>2015-12-13T08:57:37Z</time>
      </trkpt>
      <trkpt lat="50.78218" lon="3.74895">
        <ele>54</ele>
        <time>2015-12-13T08:57:38Z</time>
      </trkpt>
      <trkpt lat="50.78215" lon="3.74894">
        <ele>54</ele>
        <time>2015-12-13T08:57:39Z</time>
      </trkpt>
      <trkpt lat="50.78213" lon="3.74894">
        <ele>54</ele>
        <time>2015-12-13T08:57:40Z</time>
      </trkpt>
      <trkpt lat="50.78211" lon="3.74893">
        <ele>54</ele>
        <time>2015-12-13T08:57:41Z</time>
      </trkpt>
      <trkpt lat="50.78209" lon="3.74893">
        <ele>54</ele>
        <time>2015-12-13T08:57:42Z</time>
      </trkpt>
      <trkpt lat="50.78207" lon="3.74893">
        <ele>54</ele>
        <time>2015-12-13T08:57:43Z</time>
      </trkpt>
      <trkpt lat="50.78204" lon="3.74893">
        <ele>54</ele>
        <time>2015-12-13T08:57:44Z</time>
      </trkpt>
      <trkpt lat="50.78202" lon="3.74892">
        <ele>54</ele>
        <time>2015-12-13T08:57:45Z</time>
      </trkpt>
      <trkpt lat="50.782" lon="3.74891">
        <ele>54</ele>
        <time>2015-12-13T08:57:46Z</time>
      </trkpt>
      <trkpt lat="50.78197" lon="3.74891">
        <ele>54</ele>
        <time>2015-12-13T08:57:47Z</time>
      </trkpt>
      <trkpt lat="50.78195" lon="3.74891">
        <ele>54</ele>
        <time>2015-12-13T08:57:48Z</time>
      </trkpt>
      <trkpt lat="50.78193" lon="3.74891">
        <ele>54</ele>
        <time>2015-12-13T08:57:49Z</time>
      </trkpt>
      <trkpt lat="50.78191" lon="3.74891">
        <ele>54</ele>
        <time>2015-12-13T08:57:50Z</time>
      </trkpt>
      <trkpt lat="50.78189" lon="3.74891">
        <ele>54</ele>
        <time>2015-12-13T08:57:51Z</time>
      </trkpt>
      <trkpt lat="50.78187" lon="3.74891">
        <ele>54</ele>
        <time>2015-12-13T08:57:52Z</time>
      </trkpt>
      <trkpt lat="50.78186" lon="3.74892">
        <ele>54</ele>
        <time>2015-12-13T08:57:53Z</time>
      </trkpt>
      <trkpt lat="50.78182" lon="3.74892">
        <ele>54</ele>
        <time>2015-12-13T08:57:55Z</time>
      </trkpt>
      <trkpt lat="50.7818" lon="3.74891">
        <ele>54</ele>
        <time>2015-12-13T08:57:56Z</time>
      </trkpt>
      <trkpt lat="50.78178" lon="3.74891">
        <ele>54</ele>
        <time>2015-12-13T08:57:57Z</time>
      </trkpt>
      <trkpt lat="50.78176" lon="3.74891">
        <ele>54</ele>
        <time>2015-12-13T08:57:58Z</time>
      </trkpt>
      <trkpt lat="50.78173" lon="3.74891">
        <ele>54</ele>
        <time>2015-12-13T08:57:59Z</time>
      </trkpt>
      <trkpt lat="50.78171" lon="3.74892">
        <ele>54</ele>
        <time>2015-12-13T08:58:00Z</time>
      </trkpt>
      <trkpt lat="50.78169" lon="3.74892">
        <ele>54.5</ele>
        <time>2015-12-13T08:58:01Z</time>
      </trkpt>
      <trkpt lat="50.78167" lon="3.74892">
        <ele>55</ele>
        <time>2015-12-13T08:58:02Z</time>
      </trkpt>
      <trkpt lat="50.78164" lon="3.74892">
        <ele>55</ele>
        <time>2015-12-13T08:58:03Z</time>
      </trkpt>
      <trkpt lat="50.78162" lon="3.74892">
        <ele>55</ele>
        <time>2015-12-13T08:58:04Z</time>
      </trkpt>
      <trkpt lat="50.7816" lon="3.74892">
        <ele>55</ele>
        <time>2015-12-13T08:58:05Z</time>
      </trkpt>
      <trkpt lat="50.78158" lon="3.74892">
        <ele>55</ele>
        <time>2015-12-13T08:58:06Z</time>
      </trkpt>
      <trkpt lat="50.78156" lon="3.74892">
        <ele>55</ele>
        <time>2015-12-13T08:58:07Z</time>
      </trkpt>
      <trkpt lat="50.78154" lon="3.74892">
        <ele>55</ele>
        <time>2015-12-13T08:58:08Z</time>
      </trkpt>
      <trkpt lat="50.78152" lon="3.74892">
        <ele>55</ele>
        <time>2015-12-13T08:58:09Z</time>
      </trkpt>
      <trkpt lat="50.7815" lon="3.74893">
        <ele>55</ele>
        <time>2015-12-13T08:58:10Z</time>
      </trkpt>
      <trkpt lat="50.78147" lon="3.74893">
        <ele>55</ele>
        <time>2015-12-13T08:58:11Z</time>
      </trkpt>
      <trkpt lat="50.78145" lon="3.74893">
        <ele>55</ele>
        <time>2015-12-13T08:58:12Z</time>
      </trkpt>
      <trkpt lat="50.78143" lon="3.74893">
        <ele>55</ele>
        <time>2015-12-13T08:58:13Z</time>
      </trkpt>
      <trkpt lat="50.78141" lon="3.74893">
        <ele>55</ele>
        <time>2015-12-13T08:58:14Z</time>
      </trkpt>
      <trkpt lat="50.78138" lon="3.74893">
        <ele>55</ele>
        <time>2015-12-13T08:58:15Z</time>
      </trkpt>
      <trkpt lat="50.78136" lon="3.74893">
        <ele>55</ele>
        <time>2015-12-13T08:58:16Z</time>
      </trkpt>
      <trkpt lat="50.78134" lon="3.74893">
        <ele>55</ele>
        <time>2015-12-13T08:58:17Z</time>
      </trkpt>
      <trkpt lat="50.78131" lon="3.74893">
        <ele>55</ele>
        <time>2015-12-13T08:58:18Z</time>
      </trkpt>
      <trkpt lat="50.78129" lon="3.74893">
        <ele>55</ele>
        <time>2015-12-13T08:58:19Z</time>
      </trkpt>
      <trkpt lat="50.78127" lon="3.74893">
        <ele>55</ele>
        <time>2015-12-13T08:58:20Z</time>
      </trkpt>
      <trkpt lat="50.78124" lon="3.74893">
        <ele>55.7</ele>
        <time>2015-12-13T08:58:21Z</time>
      </trkpt>
      <trkpt lat="50.78122" lon="3.74893">
        <ele>56</ele>
        <time>2015-12-13T08:58:22Z</time>
      </trkpt>
      <trkpt lat="50.7812" lon="3.74894">
        <ele>56</ele>
        <time>2015-12-13T08:58:23Z</time>
      </trkpt>
      <trkpt lat="50.78118" lon="3.74894">
        <ele>56</ele>
        <time>2015-12-13T08:58:24Z</time>
      </trkpt>
      <trkpt lat="50.78115" lon="3.74895">
        <ele>56</ele>
        <time>2015-12-13T08:58:25Z</time>
      </trkpt>
      <trkpt lat="50.78113" lon="3.74895">
        <ele>56</ele>
        <time>2015-12-13T08:58:26Z</time>
      </trkpt>
      <trkpt lat="50.78111" lon="3.74895">
        <ele>56</ele>
        <time>2015-12-13T08:58:27Z</time>
      </trkpt>
      <trkpt lat="50.78109" lon="3.74895">
        <ele>56</ele>
        <time>2015-12-13T08:58:28Z</time>
      </trkpt>
      <trkpt lat="50.78107" lon="3.74894">
        <ele>56</ele>
        <time>2015-12-13T08:58:29Z</time>
      </trkpt>
      <trkpt lat="50.78104" lon="3.74894">
        <ele>56</ele>
        <time>2015-12-13T08:58:30Z</time>
      </trkpt>
      <trkpt lat="50.78102" lon="3.74894">
        <ele>56.7</ele>
        <time>2015-12-13T08:58:31Z</time>
      </trkpt>
      <trkpt lat="50.781" lon="3.74894">
        <ele>57</ele>
        <time>2015-12-13T08:58:32Z</time>
      </trkpt>
      <trkpt lat="50.78098" lon="3.74894">
        <ele>57</ele>
        <time>2015-12-13T08:58:33Z</time>
      </trkpt>
      <trkpt lat="50.78096" lon="3.74895">
        <ele>57</ele>
        <time>2015-12-13T08:58:34Z</time>
      </trkpt>
      <trkpt lat="50.78093" lon="3.74895">
        <ele>57</ele>
        <time>2015-12-13T08:58:35Z</time>
      </trkpt>
      <trkpt lat="50.78091" lon="3.74895">
        <ele>57</ele>
        <time>2015-12-13T08:58:36Z</time>
      </trkpt>
      <trkpt lat="50.78089" lon="3.74895">
        <ele>57</ele>
        <time>2015-12-13T08:58:37Z</time>
      </trkpt>
      <trkpt lat="50.78087" lon="3.74895">
        <ele>57</ele>
        <time>2015-12-13T08:58:38Z</time>
      </trkpt>
      <trkpt lat="50.78085" lon="3.74895">
        <ele>57</ele>
        <time>2015-12-13T08:58:39Z</time>
      </trkpt>
      <trkpt lat="50.78082" lon="3.74896">
        <ele>57</ele>
        <time>2015-12-13T08:58:40Z</time>
      </trkpt>
      <trkpt lat="50.7808" lon="3.74896">
        <ele>57.7</ele>
        <time>2015-12-13T08:58:41Z</time>
      </trkpt>
      <trkpt lat="50.78078" lon="3.74896">
        <ele>58</ele>
        <time>2015-12-13T08:58:42Z</time>
      </trkpt>
      <trkpt lat="50.78076" lon="3.74896">
        <ele>58</ele>
        <time>2015-12-13T08:58:43Z</time>
      </trkpt>
      <trkpt lat="50.78074" lon="3.74896">
        <ele>58</ele>
        <time>2015-12-13T08:58:44Z</time>
      </trkpt>
      <trkpt lat="50.78072" lon="3.74896">
        <ele>58</ele>
        <time>2015-12-13T08:58:45Z</time>
      </trkpt>
      <trkpt lat="50.78069" lon="3.74896">
        <ele>58</ele>
        <time>2015-12-13T08:58:46Z</time>
      </trkpt>
      <trkpt lat="50.78067" lon="3.74897">
        <ele>58</ele>
        <time>2015-12-13T08:58:47Z</time>
      </trkpt>
      <trkpt lat="50.78065" lon="3.74897">
        <ele>58</ele>
        <time>2015-12-13T08:58:48Z</time>
      </trkpt>
      <trkpt lat="50.78063" lon="3.74897">
        <ele>58</ele>
        <time>2015-12-13T08:58:49Z</time>
      </trkpt>
      <trkpt lat="50.78061" lon="3.74897">
        <ele>58</ele>
        <time>2015-12-13T08:58:50Z</time>
      </trkpt>
      <trkpt lat="50.78058" lon="3.74897">
        <ele>58</ele>
        <time>2015-12-13T08:58:51Z</time>
      </trkpt>
      <trkpt lat="50.78056" lon="3.74897">
        <ele>58</ele>
        <time>2015-12-13T08:58:52Z</time>
      </trkpt>
      <trkpt lat="50.78054" lon="3.74897">
        <ele>58</ele>
        <time>2015-12-13T08:58:53Z</time>
      </trkpt>
      <trkpt lat="50.78052" lon="3.74897">
        <ele>58</ele>
        <time>2015-12-13T08:58:54Z</time>
      </trkpt>
      <trkpt lat="50.78049" lon="3.74897">
        <ele>58</ele>
        <time>2015-12-13T08:58:55Z</time>
      </trkpt>
      <trkpt lat="50.78047" lon="3.74898">
        <ele>58</ele>
        <time>2015-12-13T08:58:56Z</time>
      </trkpt>
      <trkpt lat="50.78045" lon="3.74898">
        <ele>58</ele>
        <time>2015-12-13T08:58:57Z</time>
      </trkpt>
      <trkpt lat="50.78042" lon="3.74898">
        <ele>58</ele>
        <time>2015-12-13T08:58:58Z</time>
      </trkpt>
      <trkpt lat="50.7804" lon="3.74899">
        <ele>58</ele>
        <time>2015-12-13T08:58:59Z</time>
      </trkpt>
      <trkpt lat="50.78038" lon="3.74899">
        <ele>58</ele>
        <time>2015-12-13T08:59:00Z</time>
      </trkpt>
      <trkpt lat="50.78035" lon="3.74899">
        <ele>58</ele>
        <time>2015-12-13T08:59:01Z</time>
      </trkpt>
      <trkpt lat="50.78033" lon="3.74899">
        <ele>58</ele>
        <time>2015-12-13T08:59:02Z</time>
      </trkpt>
      <trkpt lat="50.78031" lon="3.74899">
        <ele>58</ele>
        <time>2015-12-13T08:59:03Z</time>
      </trkpt>
      <trkpt lat="50.78029" lon="3.74899">
        <ele>58</ele>
        <time>2015-12-13T08:59:04Z</time>
      </trkpt>
      <trkpt lat="50.78026" lon="3.74899">
        <ele>58</ele>
        <time>2015-12-13T08:59:05Z</time>
      </trkpt>
      <trkpt lat="50.78024" lon="3.74899">
        <ele>58</ele>
        <time>2015-12-13T08:59:06Z</time>
      </trkpt>
      <trkpt lat="50.78022" lon="3.74899">
        <ele>58</ele>
        <time>2015-12-13T08:59:07Z</time>
      </trkpt>
      <trkpt lat="50.7802" lon="3.74899">
        <ele>58</ele>
        <time>2015-12-13T08:59:08Z</time>
      </trkpt>
      <trkpt lat="50.78018" lon="3.74899">
        <ele>58</ele>
        <time>2015-12-13T08:59:09Z</time>
      </trkpt>
      <trkpt lat="50.78016" lon="3.74899">
        <ele>58</ele>
        <time>2015-12-13T08:59:10Z</time>
      </trkpt>
      <trkpt lat="50.78014" lon="3.74899">
        <ele>58.7</ele>
        <time>2015-12-13T08:59:11Z</time>
      </trkpt>
      <trkpt lat="50.78012" lon="3.74898">
        <ele>59</ele>
        <time>2015-12-13T08:59:12Z</time>
      </trkpt>
      <trkpt lat="50.78009" lon="3.74898">
        <ele>59</ele>
        <time>2015-12-13T08:59:14Z</time>
      </trkpt>
      <trkpt lat="50.78006" lon="3.74898">
        <ele>59</ele>
        <time>2015-12-13T08:59:16Z</time>
      </trkpt>
      <trkpt lat="50.78003" lon="3.74897">
        <ele>59</ele>
        <time>2015-12-13T08:59:18Z</time>
      </trkpt>
      <trkpt lat="50.78001" lon="3.74897">
        <ele>59</ele>
        <time>2015-12-13T08:59:20Z</time>
      </trkpt>
      <trkpt lat="50.77998" lon="3.74898">
        <ele>61</ele>
        <time>2015-12-13T08:59:22Z</time>
      </trkpt>
      <trkpt lat="50.77995" lon="3.74898">
        <ele>61</ele>
        <time>2015-12-13T08:59:24Z</time>
      </trkpt>
      <trkpt lat="50.77993" lon="3.74899">
        <ele>61</ele>
        <time>2015-12-13T08:59:26Z</time>
      </trkpt>
      <trkpt lat="50.7799" lon="3.74898">
        <ele>61</ele>
        <time>2015-12-13T08:59:28Z</time>
      </trkpt>
      <trkpt lat="50.77988" lon="3.74896">
        <ele>61</ele>
        <time>2015-12-13T08:59:30Z</time>
      </trkpt>
      <trkpt lat="50.77987" lon="3.74893">
        <ele>62</ele>
        <time>2015-12-13T08:59:32Z</time>
      </trkpt>
      <trkpt lat="50.77984" lon="3.7489">
        <ele>62</ele>
        <time>2015-12-13T08:59:34Z</time>
      </trkpt>
      <trkpt lat="50.77982" lon="3.74889">
        <ele>62</ele>
        <time>2015-12-13T08:59:35Z</time>
      </trkpt>
      <trkpt lat="50.77981" lon="3.74887">
        <ele>62</ele>
        <time>2015-12-13T08:59:36Z</time>
      </trkpt>
      <trkpt lat="50.77979" lon="3.74885">
        <ele>62</ele>
        <time>2015-12-13T08:59:37Z</time>
      </trkpt>
      <trkpt lat="50.77977" lon="3.74883">
        <ele>62</ele>
        <time>2015-12-13T08:59:38Z</time>
      </trkpt>
      <trkpt lat="50.77976" lon="3.74881">
        <ele>62</ele>
        <time>2015-12-13T08:59:39Z</time>
      </trkpt>
      <trkpt lat="50.77974" lon="3.74879">
        <ele>62</ele>
        <time>2015-12-13T08:59:40Z</time>
      </trkpt>
      <trkpt lat="50.77973" lon="3.74877">
        <ele>62</ele>
        <time>2015-12-13T08:59:41Z</time>
      </trkpt>
      <trkpt lat="50.77971" lon="3.74875">
        <ele>62</ele>
        <time>2015-12-13T08:59:42Z</time>
      </trkpt>
      <trkpt lat="50.77969" lon="3.74872">
        <ele>62</ele>
        <time>2015-12-13T08:59:43Z</time>
      </trkpt>
      <trkpt lat="50.77967" lon="3.7487">
        <ele>62</ele>
        <time>2015-12-13T08:59:44Z</time>
      </trkpt>
      <trkpt lat="50.77966" lon="3.74868">
        <ele>62</ele>
        <time>2015-12-13T08:59:45Z</time>
      </trkpt>
      <trkpt lat="50.77964" lon="3.74865">
        <ele>62</ele>
        <time>2015-12-13T08:59:46Z</time>
      </trkpt>
      <trkpt lat="50.77962" lon="3.74863">
        <ele>62</ele>
        <time>2015-12-13T08:59:47Z</time>
      </trkpt>
      <trkpt lat="50.77961" lon="3.74861">
        <ele>62</ele>
        <time>2015-12-13T08:59:48Z</time>
      </trkpt>
      <trkpt lat="50.77959" lon="3.74858">
        <ele>62</ele>
        <time>2015-12-13T08:59:49Z</time>
      </trkpt>
      <trkpt lat="50.77957" lon="3.74856">
        <ele>62</ele>
        <time>2015-12-13T08:59:50Z</time>
      </trkpt>
      <trkpt lat="50.77955" lon="3.74854">
        <ele>62</ele>
        <time>2015-12-13T08:59:51Z</time>
      </trkpt>
      <trkpt lat="50.77953" lon="3.74851">
        <ele>62</ele>
        <time>2015-12-13T08:59:52Z</time>
      </trkpt>
      <trkpt lat="50.77952" lon="3.74849">
        <ele>62</ele>
        <time>2015-12-13T08:59:53Z</time>
      </trkpt>
      <trkpt lat="50.7795" lon="3.74847">
        <ele>62</ele>
        <time>2015-12-13T08:59:54Z</time>
      </trkpt>
      <trkpt lat="50.77948" lon="3.74845">
        <ele>62</ele>
        <time>2015-12-13T08:59:55Z</time>
      </trkpt>
      <trkpt lat="50.77947" lon="3.74842">
        <ele>62</ele>
        <time>2015-12-13T08:59:56Z</time>
      </trkpt>
      <trkpt lat="50.77946" lon="3.74839">
        <ele>62</ele>
        <time>2015-12-13T08:59:57Z</time>
      </trkpt>
      <trkpt lat="50.77945" lon="3.74836">
        <ele>62</ele>
        <time>2015-12-13T08:59:58Z</time>
      </trkpt>
      <trkpt lat="50.77945" lon="3.74833">
        <ele>62</ele>
        <time>2015-12-13T08:59:59Z</time>
      </trkpt>
      <trkpt lat="50.77944" lon="3.7483">
        <ele>62</ele>
        <time>2015-12-13T09:00:00Z</time>
      </trkpt>
      <trkpt lat="50.77943" lon="3.74827">
        <ele>62</ele>
        <time>2015-12-13T09:00:01Z</time>
      </trkpt>
      <trkpt lat="50.77942" lon="3.74823">
        <ele>63.4</ele>
        <time>2015-12-13T09:00:02Z</time>
      </trkpt>
      <trkpt lat="50.77942" lon="3.7482">
        <ele>64</ele>
        <time>2015-12-13T09:00:03Z</time>
      </trkpt>
      <trkpt lat="50.77941" lon="3.74816">
        <ele>64</ele>
        <time>2015-12-13T09:00:04Z</time>
      </trkpt>
      <trkpt lat="50.7794" lon="3.74813">
        <ele>64</ele>
        <time>2015-12-13T09:00:05Z</time>
      </trkpt>
      <trkpt lat="50.77939" lon="3.7481">
        <ele>64</ele>
        <time>2015-12-13T09:00:06Z</time>
      </trkpt>
      <trkpt lat="50.77938" lon="3.74807">
        <ele>64</ele>
        <time>2015-12-13T09:00:07Z</time>
      </trkpt>
      <trkpt lat="50.77937" lon="3.74804">
        <ele>64</ele>
        <time>2015-12-13T09:00:08Z</time>
      </trkpt>
      <trkpt lat="50.77937" lon="3.748">
        <ele>64</ele>
        <time>2015-12-13T09:00:09Z</time>
      </trkpt>
      <trkpt lat="50.77936" lon="3.74797">
        <ele>64</ele>
        <time>2015-12-13T09:00:10Z</time>
      </trkpt>
      <trkpt lat="50.77935" lon="3.74794">
        <ele>64</ele>
        <time>2015-12-13T09:00:11Z</time>
      </trkpt>
      <trkpt lat="50.77934" lon="3.74791">
        <ele>64.7</ele>
        <time>2015-12-13T09:00:12Z</time>
      </trkpt>
      <trkpt lat="50.77933" lon="3.74787">
        <ele>65</ele>
        <time>2015-12-13T09:00:13Z</time>
      </trkpt>
      <trkpt lat="50.77932" lon="3.74784">
        <ele>65</ele>
        <time>2015-12-13T09:00:14Z</time>
      </trkpt>
      <trkpt lat="50.77932" lon="3.7478">
        <ele>65</ele>
        <time>2015-12-13T09:00:15Z</time>
      </trkpt>
      <trkpt lat="50.77931" lon="3.74777">
        <ele>65</ele>
        <time>2015-12-13T09:00:16Z</time>
      </trkpt>
      <trkpt lat="50.7793" lon="3.74773">
        <ele>65</ele>
        <time>2015-12-13T09:00:17Z</time>
      </trkpt>
      <trkpt lat="50.77929" lon="3.74769">
        <ele>65</ele>
        <time>2015-12-13T09:00:18Z</time>
      </trkpt>
      <trkpt lat="50.77928" lon="3.74766">
        <ele>65</ele>
        <time>2015-12-13T09:00:19Z</time>
      </trkpt>
      <trkpt lat="50.77927" lon="3.74763">
        <ele>65</ele>
        <time>2015-12-13T09:00:20Z</time>
      </trkpt>
      <trkpt lat="50.77927" lon="3.74759">
        <ele>65</ele>
        <time>2015-12-13T09:00:21Z</time>
      </trkpt>
      <trkpt lat="50.77926" lon="3.74755">
        <ele>65.7</ele>
        <time>2015-12-13T09:00:22Z</time>
      </trkpt>
      <trkpt lat="50.77926" lon="3.74752">
        <ele>66</ele>
        <time>2015-12-13T09:00:23Z</time>
      </trkpt>
      <trkpt lat="50.77925" lon="3.74748">
        <ele>66</ele>
        <time>2015-12-13T09:00:24Z</time>
      </trkpt>
      <trkpt lat="50.77925" lon="3.74744">
        <ele>66</ele>
        <time>2015-12-13T09:00:25Z</time>
      </trkpt>
      <trkpt lat="50.77924" lon="3.7474">
        <ele>66</ele>
        <time>2015-12-13T09:00:26Z</time>
      </trkpt>
      <trkpt lat="50.77924" lon="3.74736">
        <ele>66</ele>
        <time>2015-12-13T09:00:27Z</time>
      </trkpt>
      <trkpt lat="50.77923" lon="3.74732">
        <ele>66</ele>
        <time>2015-12-13T09:00:28Z</time>
      </trkpt>
      <trkpt lat="50.77923" lon="3.74728">
        <ele>66</ele>
        <time>2015-12-13T09:00:29Z</time>
      </trkpt>
      <trkpt lat="50.77922" lon="3.74725">
        <ele>66</ele>
        <time>2015-12-13T09:00:30Z</time>
      </trkpt>
      <trkpt lat="50.77922" lon="3.74721">
        <ele>66</ele>
        <time>2015-12-13T09:00:31Z</time>
      </trkpt>
      <trkpt lat="50.77921" lon="3.74717">
        <ele>66</ele>
        <time>2015-12-13T09:00:32Z</time>
      </trkpt>
      <trkpt lat="50.77921" lon="3.74713">
        <ele>66</ele>
        <time>2015-12-13T09:00:33Z</time>
      </trkpt>
      <trkpt lat="50.7792" lon="3.74709">
        <ele>66</ele>
        <time>2015-12-13T09:00:34Z</time>
      </trkpt>
      <trkpt lat="50.7792" lon="3.74705">
        <ele>66</ele>
        <time>2015-12-13T09:00:35Z</time>
      </trkpt>
      <trkpt lat="50.77919" lon="3.74701">
        <ele>66</ele>
        <time>2015-12-13T09:00:36Z</time>
      </trkpt>
      <trkpt lat="50.77919" lon="3.74697">
        <ele>66</ele>
        <time>2015-12-13T09:00:37Z</time>
      </trkpt>
      <trkpt lat="50.77919" lon="3.74694">
        <ele>66</ele>
        <time>2015-12-13T09:00:38Z</time>
      </trkpt>
      <trkpt lat="50.77918" lon="3.74691">
        <ele>66</ele>
        <time>2015-12-13T09:00:39Z</time>
      </trkpt>
      <trkpt lat="50.77918" lon="3.74687">
        <ele>66</ele>
        <time>2015-12-13T09:00:40Z</time>
      </trkpt>
      <trkpt lat="50.77918" lon="3.74684">
        <ele>66</ele>
        <time>2015-12-13T09:00:41Z</time>
      </trkpt>
      <trkpt lat="50.77917" lon="3.7468">
        <ele>65.3</ele>
        <time>2015-12-13T09:00:42Z</time>
      </trkpt>
      <trkpt lat="50.77917" lon="3.74677">
        <ele>65</ele>
        <time>2015-12-13T09:00:43Z</time>
      </trkpt>
      <trkpt lat="50.77917" lon="3.74673">
        <ele>65</ele>
        <time>2015-12-13T09:00:44Z</time>
      </trkpt>
      <trkpt lat="50.77916" lon="3.7467">
        <ele>65</ele>
        <time>2015-12-13T09:00:45Z</time>
      </trkpt>
      <trkpt lat="50.77915" lon="3.74667">
        <ele>65</ele>
        <time>2015-12-13T09:00:46Z</time>
      </trkpt>
      <trkpt lat="50.77914" lon="3.74664">
        <ele>65</ele>
        <time>2015-12-13T09:00:47Z</time>
      </trkpt>
      <trkpt lat="50.77914" lon="3.74661">
        <ele>65</ele>
        <time>2015-12-13T09:00:48Z</time>
      </trkpt>
      <trkpt lat="50.77913" lon="3.74658">
        <ele>65</ele>
        <time>2015-12-13T09:00:49Z</time>
      </trkpt>
      <trkpt lat="50.77911" lon="3.74654">
        <ele>65</ele>
        <time>2015-12-13T09:00:50Z</time>
      </trkpt>
      <trkpt lat="50.7791" lon="3.74651">
        <ele>65</ele>
        <time>2015-12-13T09:00:51Z</time>
      </trkpt>
      <trkpt lat="50.7791" lon="3.74648">
        <ele>64.5</ele>
        <time>2015-12-13T09:00:52Z</time>
      </trkpt>
      <trkpt lat="50.77909" lon="3.74645">
        <ele>64</ele>
        <time>2015-12-13T09:00:53Z</time>
      </trkpt>
      <trkpt lat="50.77908" lon="3.74642">
        <ele>64</ele>
        <time>2015-12-13T09:00:54Z</time>
      </trkpt>
      <trkpt lat="50.77906" lon="3.74638">
        <ele>64</ele>
        <time>2015-12-13T09:00:55Z</time>
      </trkpt>
      <trkpt lat="50.77905" lon="3.74635">
        <ele>64</ele>
        <time>2015-12-13T09:00:56Z</time>
      </trkpt>
      <trkpt lat="50.77904" lon="3.74632">
        <ele>64</ele>
        <time>2015-12-13T09:00:57Z</time>
      </trkpt>
      <trkpt lat="50.77903" lon="3.74629">
        <ele>64</ele>
        <time>2015-12-13T09:00:58Z</time>
      </trkpt>
      <trkpt lat="50.77902" lon="3.74626">
        <ele>64</ele>
        <time>2015-12-13T09:00:59Z</time>
      </trkpt>
      <trkpt lat="50.77901" lon="3.74624">
        <ele>64</ele>
        <time>2015-12-13T09:01:00Z</time>
      </trkpt>
      <trkpt lat="50.779" lon="3.74621">
        <ele>64</ele>
        <time>2015-12-13T09:01:01Z</time>
      </trkpt>
      <trkpt lat="50.77898" lon="3.74618">
        <ele>64</ele>
        <time>2015-12-13T09:01:02Z</time>
      </trkpt>
      <trkpt lat="50.77897" lon="3.74614">
        <ele>64</ele>
        <time>2015-12-13T09:01:03Z</time>
      </trkpt>
      <trkpt lat="50.77896" lon="3.74611">
        <ele>64</ele>
        <time>2015-12-13T09:01:04Z</time>
      </trkpt>
      <trkpt lat="50.77895" lon="3.74608">
        <ele>64</ele>
        <time>2015-12-13T09:01:05Z</time>
      </trkpt>
      <trkpt lat="50.77893" lon="3.74605">
        <ele>64</ele>
        <time>2015-12-13T09:01:06Z</time>
      </trkpt>
      <trkpt lat="50.77892" lon="3.74601">
        <ele>64</ele>
        <time>2015-12-13T09:01:07Z</time>
      </trkpt>
      <trkpt lat="50.77891" lon="3.74598">
        <ele>64</ele>
        <time>2015-12-13T09:01:08Z</time>
      </trkpt>
      <trkpt lat="50.7789" lon="3.74595">
        <ele>64</ele>
        <time>2015-12-13T09:01:09Z</time>
      </trkpt>
      <trkpt lat="50.77889" lon="3.74592">
        <ele>64</ele>
        <time>2015-12-13T09:01:10Z</time>
      </trkpt>
      <trkpt lat="50.77887" lon="3.74588">
        <ele>64</ele>
        <time>2015-12-13T09:01:11Z</time>
      </trkpt>
      <trkpt lat="50.77886" lon="3.74585">
        <ele>64</ele>
        <time>2015-12-13T09:01:12Z</time>
      </trkpt>
      <trkpt lat="50.77885" lon="3.74582">
        <ele>64</ele>
        <time>2015-12-13T09:01:13Z</time>
      </trkpt>
      <trkpt lat="50.77884" lon="3.74579">
        <ele>64</ele>
        <time>2015-12-13T09:01:14Z</time>
      </trkpt>
      <trkpt lat="50.77883" lon="3.74575">
        <ele>64</ele>
        <time>2015-12-13T09:01:15Z</time>
      </trkpt>
      <trkpt lat="50.77882" lon="3.74572">
        <ele>64</ele>
        <time>2015-12-13T09:01:16Z</time>
      </trkpt>
      <trkpt lat="50.77881" lon="3.74569">
        <ele>64</ele>
        <time>2015-12-13T09:01:17Z</time>
      </trkpt>
      <trkpt lat="50.7788" lon="3.74566">
        <ele>64</ele>
        <time>2015-12-13T09:01:18Z</time>
      </trkpt>
      <trkpt lat="50.77879" lon="3.74563">
        <ele>64</ele>
        <time>2015-12-13T09:01:19Z</time>
      </trkpt>
      <trkpt lat="50.77877" lon="3.7456">
        <ele>64</ele>
        <time>2015-12-13T09:01:20Z</time>
      </trkpt>
      <trkpt lat="50.77876" lon="3.74556">
        <ele>64</ele>
        <time>2015-12-13T09:01:21Z</time>
      </trkpt>
      <trkpt lat="50.77875" lon="3.74553">
        <ele>64</ele>
        <time>2015-12-13T09:01:22Z</time>
      </trkpt>
      <trkpt lat="50.77874" lon="3.7455">
        <ele>64</ele>
        <time>2015-12-13T09:01:23Z</time>
      </trkpt>
      <trkpt lat="50.77873" lon="3.74547">
        <ele>64</ele>
        <time>2015-12-13T09:01:24Z</time>
      </trkpt>
      <trkpt lat="50.77871" lon="3.74543">
        <ele>64</ele>
        <time>2015-12-13T09:01:26Z</time>
      </trkpt>
      <trkpt lat="50.77871" lon="3.7454">
        <ele>64</ele>
        <time>2015-12-13T09:01:30Z</time>
      </trkpt>
      <trkpt lat="50.77869" lon="3.74536">
        <ele>63</ele>
        <time>2015-12-13T09:01:32Z</time>
      </trkpt>
      <trkpt lat="50.77868" lon="3.74532">
        <ele>63</ele>
        <time>2015-12-13T09:01:34Z</time>
      </trkpt>
      <trkpt lat="50.77866" lon="3.74528">
        <ele>63</ele>
        <time>2015-12-13T09:01:36Z</time>
      </trkpt>
      <trkpt lat="50.77865" lon="3.74524">
        <ele>63</ele>
        <time>2015-12-13T09:01:38Z</time>
      </trkpt>
      <trkpt lat="50.77863" lon="3.74521">
        <ele>63</ele>
        <time>2015-12-13T09:01:40Z</time>
      </trkpt>
      <trkpt lat="50.77862" lon="3.74517">
        <ele>64</ele>
        <time>2015-12-13T09:01:42Z</time>
      </trkpt>
      <trkpt lat="50.77861" lon="3.74514">
        <ele>64</ele>
        <time>2015-12-13T09:01:46Z</time>
      </trkpt>
      <trkpt lat="50.77859" lon="3.7451">
        <ele>64</ele>
        <time>2015-12-13T09:01:48Z</time>
      </trkpt>
      <trkpt lat="50.77857" lon="3.74505">
        <ele>64</ele>
        <time>2015-12-13T09:01:50Z</time>
      </trkpt>
      <trkpt lat="50.77855" lon="3.74501">
        <ele>62</ele>
        <time>2015-12-13T09:01:52Z</time>
      </trkpt>
      <trkpt lat="50.77854" lon="3.74498">
        <ele>62</ele>
        <time>2015-12-13T09:01:53Z</time>
      </trkpt>
      <trkpt lat="50.77852" lon="3.74496">
        <ele>62</ele>
        <time>2015-12-13T09:01:54Z</time>
      </trkpt>
      <trkpt lat="50.77851" lon="3.74493">
        <ele>62</ele>
        <time>2015-12-13T09:01:55Z</time>
      </trkpt>
      <trkpt lat="50.7785" lon="3.7449">
        <ele>62</ele>
        <time>2015-12-13T09:01:56Z</time>
      </trkpt>
      <trkpt lat="50.77848" lon="3.74487">
        <ele>62</ele>
        <time>2015-12-13T09:01:57Z</time>
      </trkpt>
      <trkpt lat="50.77846" lon="3.74484">
        <ele>62</ele>
        <time>2015-12-13T09:01:58Z</time>
      </trkpt>
      <trkpt lat="50.77845" lon="3.74481">
        <ele>62</ele>
        <time>2015-12-13T09:01:59Z</time>
      </trkpt>
      <trkpt lat="50.77843" lon="3.74478">
        <ele>62</ele>
        <time>2015-12-13T09:02:00Z</time>
      </trkpt>
      <trkpt lat="50.77842" lon="3.74475">
        <ele>60</ele>
        <time>2015-12-13T09:02:01Z</time>
      </trkpt>
      <trkpt lat="50.7784" lon="3.74472">
        <ele>59</ele>
        <time>2015-12-13T09:02:02Z</time>
      </trkpt>
      <trkpt lat="50.77838" lon="3.7447">
        <ele>59</ele>
        <time>2015-12-13T09:02:03Z</time>
      </trkpt>
      <trkpt lat="50.77837" lon="3.74467">
        <ele>59</ele>
        <time>2015-12-13T09:02:04Z</time>
      </trkpt>
      <trkpt lat="50.77835" lon="3.74465">
        <ele>59</ele>
        <time>2015-12-13T09:02:05Z</time>
      </trkpt>
      <trkpt lat="50.77833" lon="3.74462">
        <ele>59</ele>
        <time>2015-12-13T09:02:06Z</time>
      </trkpt>
      <trkpt lat="50.77831" lon="3.74459">
        <ele>59</ele>
        <time>2015-12-13T09:02:07Z</time>
      </trkpt>
      <trkpt lat="50.77829" lon="3.74456">
        <ele>59</ele>
        <time>2015-12-13T09:02:08Z</time>
      </trkpt>
      <trkpt lat="50.77827" lon="3.74454">
        <ele>59</ele>
        <time>2015-12-13T09:02:09Z</time>
      </trkpt>
      <trkpt lat="50.77825" lon="3.74451">
        <ele>59</ele>
        <time>2015-12-13T09:02:10Z</time>
      </trkpt>
      <trkpt lat="50.77823" lon="3.74448">
        <ele>58.3</ele>
        <time>2015-12-13T09:02:11Z</time>
      </trkpt>
      <trkpt lat="50.77821" lon="3.74446">
        <ele>58</ele>
        <time>2015-12-13T09:02:12Z</time>
      </trkpt>
      <trkpt lat="50.77819" lon="3.74443">
        <ele>58</ele>
        <time>2015-12-13T09:02:13Z</time>
      </trkpt>
      <trkpt lat="50.77818" lon="3.74441">
        <ele>58</ele>
        <time>2015-12-13T09:02:14Z</time>
      </trkpt>
      <trkpt lat="50.77816" lon="3.74438">
        <ele>58</ele>
        <time>2015-12-13T09:02:15Z</time>
      </trkpt>
      <trkpt lat="50.77814" lon="3.74436">
        <ele>58</ele>
        <time>2015-12-13T09:02:16Z</time>
      </trkpt>
      <trkpt lat="50.77812" lon="3.74433">
        <ele>58</ele>
        <time>2015-12-13T09:02:17Z</time>
      </trkpt>
      <trkpt lat="50.7781" lon="3.74431">
        <ele>58</ele>
        <time>2015-12-13T09:02:18Z</time>
      </trkpt>
      <trkpt lat="50.77808" lon="3.74428">
        <ele>58</ele>
        <time>2015-12-13T09:02:19Z</time>
      </trkpt>
      <trkpt lat="50.77806" lon="3.74425">
        <ele>58</ele>
        <time>2015-12-13T09:02:20Z</time>
      </trkpt>
      <trkpt lat="50.77805" lon="3.74423">
        <ele>58</ele>
        <time>2015-12-13T09:02:21Z</time>
      </trkpt>
      <trkpt lat="50.77803" lon="3.7442">
        <ele>58</ele>
        <time>2015-12-13T09:02:22Z</time>
      </trkpt>
      <trkpt lat="50.77801" lon="3.74418">
        <ele>58</ele>
        <time>2015-12-13T09:02:23Z</time>
      </trkpt>
      <trkpt lat="50.77799" lon="3.74416">
        <ele>58</ele>
        <time>2015-12-13T09:02:24Z</time>
      </trkpt>
      <trkpt lat="50.77797" lon="3.74413">
        <ele>58</ele>
        <time>2015-12-13T09:02:25Z</time>
      </trkpt>
      <trkpt lat="50.77795" lon="3.74411">
        <ele>58</ele>
        <time>2015-12-13T09:02:26Z</time>
      </trkpt>
      <trkpt lat="50.77793" lon="3.74408">
        <ele>58</ele>
        <time>2015-12-13T09:02:27Z</time>
      </trkpt>
      <trkpt lat="50.77791" lon="3.74406">
        <ele>58</ele>
        <time>2015-12-13T09:02:28Z</time>
      </trkpt>
      <trkpt lat="50.77789" lon="3.74404">
        <ele>58</ele>
        <time>2015-12-13T09:02:29Z</time>
      </trkpt>
      <trkpt lat="50.77788" lon="3.74401">
        <ele>58</ele>
        <time>2015-12-13T09:02:30Z</time>
      </trkpt>
      <trkpt lat="50.77786" lon="3.74399">
        <ele>58.7</ele>
        <time>2015-12-13T09:02:31Z</time>
      </trkpt>
      <trkpt lat="50.77784" lon="3.74396">
        <ele>59</ele>
        <time>2015-12-13T09:02:32Z</time>
      </trkpt>
      <trkpt lat="50.77782" lon="3.74394">
        <ele>59</ele>
        <time>2015-12-13T09:02:33Z</time>
      </trkpt>
      <trkpt lat="50.7778" lon="3.74392">
        <ele>59</ele>
        <time>2015-12-13T09:02:34Z</time>
      </trkpt>
      <trkpt lat="50.77778" lon="3.74389">
        <ele>59</ele>
        <time>2015-12-13T09:02:35Z</time>
      </trkpt>
      <trkpt lat="50.77776" lon="3.74387">
        <ele>59</ele>
        <time>2015-12-13T09:02:36Z</time>
      </trkpt>
      <trkpt lat="50.77774" lon="3.74385">
        <ele>59</ele>
        <time>2015-12-13T09:02:37Z</time>
      </trkpt>
      <trkpt lat="50.77773" lon="3.74382">
        <ele>59</ele>
        <time>2015-12-13T09:02:38Z</time>
      </trkpt>
      <trkpt lat="50.77771" lon="3.7438">
        <ele>59</ele>
        <time>2015-12-13T09:02:39Z</time>
      </trkpt>
      <trkpt lat="50.77769" lon="3.74378">
        <ele>59</ele>
        <time>2015-12-13T09:02:40Z</time>
      </trkpt>
      <trkpt lat="50.77767" lon="3.74376">
        <ele>59</ele>
        <time>2015-12-13T09:02:41Z</time>
      </trkpt>
      <trkpt lat="50.77766" lon="3.74374">
        <ele>59</ele>
        <time>2015-12-13T09:02:42Z</time>
      </trkpt>
      <trkpt lat="50.77764" lon="3.74372">
        <ele>59</ele>
        <time>2015-12-13T09:02:43Z</time>
      </trkpt>
      <trkpt lat="50.77763" lon="3.74371">
        <ele>59</ele>
        <time>2015-12-13T09:02:44Z</time>
      </trkpt>
      <trkpt lat="50.77761" lon="3.74369">
        <ele>59</ele>
        <time>2015-12-13T09:02:45Z</time>
      </trkpt>
      <trkpt lat="50.77759" lon="3.74367">
        <ele>59</ele>
        <time>2015-12-13T09:02:47Z</time>
      </trkpt>
      <trkpt lat="50.77757" lon="3.74365">
        <ele>59</ele>
        <time>2015-12-13T09:02:49Z</time>
      </trkpt>
      <trkpt lat="50.77755" lon="3.74363">
        <ele>59.7</ele>
        <time>2015-12-13T09:02:51Z</time>
      </trkpt>
      <trkpt lat="50.77753" lon="3.74362">
        <ele>60</ele>
        <time>2015-12-13T09:02:53Z</time>
      </trkpt>
      <trkpt lat="50.7775" lon="3.74361">
        <ele>60</ele>
        <time>2015-12-13T09:03:00Z</time>
      </trkpt>
      <trkpt lat="50.77748" lon="3.74359">
        <ele>59</ele>
        <time>2015-12-13T09:03:02Z</time>
      </trkpt>
      <trkpt lat="50.77747" lon="3.74357">
        <ele>59</ele>
        <time>2015-12-13T09:03:04Z</time>
      </trkpt>
      <trkpt lat="50.77745" lon="3.74354">
        <ele>59</ele>
        <time>2015-12-13T09:03:06Z</time>
      </trkpt>
      <trkpt lat="50.77744" lon="3.74351">
        <ele>59</ele>
        <time>2015-12-13T09:03:08Z</time>
      </trkpt>
      <trkpt lat="50.77744" lon="3.74347">
        <ele>59</ele>
        <time>2015-12-13T09:03:13Z</time>
      </trkpt>
      <trkpt lat="50.77742" lon="3.74344">
        <ele>59</ele>
        <time>2015-12-13T09:03:15Z</time>
      </trkpt>
      <trkpt lat="50.7774" lon="3.74341">
        <ele>59</ele>
        <time>2015-12-13T09:03:17Z</time>
      </trkpt>
      <trkpt lat="50.77738" lon="3.74338">
        <ele>59</ele>
        <time>2015-12-13T09:03:19Z</time>
      </trkpt>
      <trkpt lat="50.77737" lon="3.74335">
        <ele>59</ele>
        <time>2015-12-13T09:03:21Z</time>
      </trkpt>
      <trkpt lat="50.77736" lon="3.74332">
        <ele>59</ele>
        <time>2015-12-13T09:03:23Z</time>
      </trkpt>
      <trkpt lat="50.77735" lon="3.74329">
        <ele>59</ele>
        <time>2015-12-13T09:03:25Z</time>
      </trkpt>
      <trkpt lat="50.77734" lon="3.74323">
        <ele>59</ele>
        <time>2015-12-13T09:03:37Z</time>
      </trkpt>
      <trkpt lat="50.77733" lon="3.7432">
        <ele>59</ele>
        <time>2015-12-13T09:03:39Z</time>
      </trkpt>
      <trkpt lat="50.77731" lon="3.74317">
        <ele>59</ele>
        <time>2015-12-13T09:03:42Z</time>
      </trkpt>
      <trkpt lat="50.7773" lon="3.74315">
        <ele>59</ele>
        <time>2015-12-13T09:03:44Z</time>
      </trkpt>
      <trkpt lat="50.77729" lon="3.74312">
        <ele>59</ele>
        <time>2015-12-13T09:03:46Z</time>
      </trkpt>
      <trkpt lat="50.77727" lon="3.7431">
        <ele>59</ele>
        <time>2015-12-13T09:03:48Z</time>
      </trkpt>
      <trkpt lat="50.77727" lon="3.74307">
        <ele>59</ele>
        <time>2015-12-13T09:03:50Z</time>
      </trkpt>
      <trkpt lat="50.77726" lon="3.74304">
        <ele>59</ele>
        <time>2015-12-13T09:03:54Z</time>
      </trkpt>
      <trkpt lat="50.77724" lon="3.74302">
        <ele>59</ele>
        <time>2015-12-13T09:03:56Z</time>
      </trkpt>
      <trkpt lat="50.77723" lon="3.74299">
        <ele>59</ele>
        <time>2015-12-13T09:03:58Z</time>
      </trkpt>
      <trkpt lat="50.77722" lon="3.74297">
        <ele>59</ele>
        <time>2015-12-13T09:04:00Z</time>
      </trkpt>
      <trkpt lat="50.77721" lon="3.74295">
        <ele>59</ele>
        <time>2015-12-13T09:04:02Z</time>
      </trkpt>
      <trkpt lat="50.77719" lon="3.74293">
        <ele>59</ele>
        <time>2015-12-13T09:04:04Z</time>
      </trkpt>
      <trkpt lat="50.77718" lon="3.74291">
        <ele>59</ele>
        <time>2015-12-13T09:04:06Z</time>
      </trkpt>
      <trkpt lat="50.77716" lon="3.74287">
        <ele>59</ele>
        <time>2015-12-13T09:04:08Z</time>
      </trkpt>
      <trkpt lat="50.77715" lon="3.74283">
        <ele>59</ele>
        <time>2015-12-13T09:04:10Z</time>
      </trkpt>
      <trkpt lat="50.77715" lon="3.74279">
        <ele>59</ele>
        <time>2015-12-13T09:04:13Z</time>
      </trkpt>
      <trkpt lat="50.77717" lon="3.74274">
        <ele>59</ele>
        <time>2015-12-13T09:04:41Z</time>
      </trkpt>
      <trkpt lat="50.77716" lon="3.74271">
        <ele>59</ele>
        <time>2015-12-13T09:04:43Z</time>
      </trkpt>
      <trkpt lat="50.77715" lon="3.74267">
        <ele>59</ele>
        <time>2015-12-13T09:04:45Z</time>
      </trkpt>
      <trkpt lat="50.77716" lon="3.74264">
        <ele>59</ele>
        <time>2015-12-13T09:04:47Z</time>
      </trkpt>
      <trkpt lat="50.77717" lon="3.74261">
        <ele>59</ele>
        <time>2015-12-13T09:04:49Z</time>
      </trkpt>
      <trkpt lat="50.77718" lon="3.74259">
        <ele>57.6</ele>
        <time>2015-12-13T09:04:51Z</time>
      </trkpt>
      <trkpt lat="50.7772" lon="3.74256">
        <ele>57</ele>
        <time>2015-12-13T09:04:53Z</time>
      </trkpt>
      <trkpt lat="50.77722" lon="3.74253">
        <ele>57</ele>
        <time>2015-12-13T09:04:55Z</time>
      </trkpt>
      <trkpt lat="50.77724" lon="3.74252">
        <ele>58</ele>
        <time>2015-12-13T09:04:57Z</time>
      </trkpt>
      <trkpt lat="50.77726" lon="3.7425">
        <ele>58</ele>
        <time>2015-12-13T09:04:59Z</time>
      </trkpt>
      <trkpt lat="50.77729" lon="3.74248">
        <ele>57.3</ele>
        <time>2015-12-13T09:05:01Z</time>
      </trkpt>
      <trkpt lat="50.77731" lon="3.74246">
        <ele>57</ele>
        <time>2015-12-13T09:05:02Z</time>
      </trkpt>
      <trkpt lat="50.77732" lon="3.74244">
        <ele>57</ele>
        <time>2015-12-13T09:05:03Z</time>
      </trkpt>
      <trkpt lat="50.77735" lon="3.7424">
        <ele>57</ele>
        <time>2015-12-13T09:05:05Z</time>
      </trkpt>
      <trkpt lat="50.77735" lon="3.74235">
        <ele>57</ele>
        <time>2015-12-13T09:05:07Z</time>
      </trkpt>
      <trkpt lat="50.77735" lon="3.74231">
        <ele>57</ele>
        <time>2015-12-13T09:05:08Z</time>
      </trkpt>
      <trkpt lat="50.77736" lon="3.74227">
        <ele>57</ele>
        <time>2015-12-13T09:05:09Z</time>
      </trkpt>
      <trkpt lat="50.77737" lon="3.74223">
        <ele>57</ele>
        <time>2015-12-13T09:05:10Z</time>
      </trkpt>
      <trkpt lat="50.77738" lon="3.74221">
        <ele>56.3</ele>
        <time>2015-12-13T09:05:11Z</time>
      </trkpt>
      <trkpt lat="50.77739" lon="3.74217">
        <ele>56</ele>
        <time>2015-12-13T09:05:12Z</time>
      </trkpt>
      <trkpt lat="50.7774" lon="3.74214">
        <ele>56</ele>
        <time>2015-12-13T09:05:13Z</time>
      </trkpt>
      <trkpt lat="50.77741" lon="3.74211">
        <ele>56</ele>
        <time>2015-12-13T09:05:14Z</time>
      </trkpt>
      <trkpt lat="50.77742" lon="3.74208">
        <ele>56</ele>
        <time>2015-12-13T09:05:15Z</time>
      </trkpt>
      <trkpt lat="50.77743" lon="3.74206">
        <ele>56</ele>
        <time>2015-12-13T09:05:16Z</time>
      </trkpt>
      <trkpt lat="50.77745" lon="3.74204">
        <ele>56</ele>
        <time>2015-12-13T09:05:17Z</time>
      </trkpt>
      <trkpt lat="50.77746" lon="3.74202">
        <ele>56</ele>
        <time>2015-12-13T09:05:18Z</time>
      </trkpt>
      <trkpt lat="50.77748" lon="3.74198">
        <ele>56</ele>
        <time>2015-12-13T09:05:20Z</time>
      </trkpt>
      <trkpt lat="50.77751" lon="3.74195">
        <ele>55</ele>
        <time>2015-12-13T09:05:22Z</time>
      </trkpt>
      <trkpt lat="50.77753" lon="3.74192">
        <ele>55</ele>
        <time>2015-12-13T09:05:24Z</time>
      </trkpt>
      <trkpt lat="50.77755" lon="3.74192">
        <ele>55</ele>
        <time>2015-12-13T09:05:26Z</time>
      </trkpt>
      <trkpt lat="50.77753" lon="3.7419">
        <ele>56</ele>
        <time>2015-12-13T09:05:34Z</time>
      </trkpt>
      <trkpt lat="50.77751" lon="3.74189">
        <ele>56</ele>
        <time>2015-12-13T09:05:36Z</time>
      </trkpt>
      <trkpt lat="50.77748" lon="3.74187">
        <ele>56</ele>
        <time>2015-12-13T09:05:38Z</time>
      </trkpt>
      <trkpt lat="50.77746" lon="3.74184">
        <ele>56</ele>
        <time>2015-12-13T09:05:40Z</time>
      </trkpt>
      <trkpt lat="50.77745" lon="3.74182">
        <ele>56</ele>
        <time>2015-12-13T09:05:42Z</time>
      </trkpt>
      <trkpt lat="50.77743" lon="3.74179">
        <ele>56</ele>
        <time>2015-12-13T09:05:44Z</time>
      </trkpt>
      <trkpt lat="50.77741" lon="3.74175">
        <ele>56</ele>
        <time>2015-12-13T09:05:46Z</time>
      </trkpt>
      <trkpt lat="50.7774" lon="3.74173">
        <ele>56</ele>
        <time>2015-12-13T09:05:47Z</time>
      </trkpt>
      <trkpt lat="50.77739" lon="3.74171">
        <ele>56</ele>
        <time>2015-12-13T09:05:48Z</time>
      </trkpt>
      <trkpt lat="50.77736" lon="3.74167">
        <ele>56</ele>
        <time>2015-12-13T09:05:50Z</time>
      </trkpt>
      <trkpt lat="50.77734" lon="3.74163">
        <ele>57</ele>
        <time>2015-12-13T09:05:52Z</time>
      </trkpt>
      <trkpt lat="50.77732" lon="3.74161">
        <ele>57</ele>
        <time>2015-12-13T09:05:53Z</time>
      </trkpt>
      <trkpt lat="50.77731" lon="3.74158">
        <ele>57</ele>
        <time>2015-12-13T09:05:54Z</time>
      </trkpt>
      <trkpt lat="50.77729" lon="3.74156">
        <ele>57</ele>
        <time>2015-12-13T09:05:55Z</time>
      </trkpt>
      <trkpt lat="50.77728" lon="3.74154">
        <ele>57</ele>
        <time>2015-12-13T09:05:56Z</time>
      </trkpt>
      <trkpt lat="50.77727" lon="3.74151">
        <ele>57</ele>
        <time>2015-12-13T09:05:57Z</time>
      </trkpt>
      <trkpt lat="50.77725" lon="3.74149">
        <ele>57</ele>
        <time>2015-12-13T09:05:58Z</time>
      </trkpt>
      <trkpt lat="50.77724" lon="3.74147">
        <ele>57</ele>
        <time>2015-12-13T09:05:59Z</time>
      </trkpt>
      <trkpt lat="50.77723" lon="3.74144">
        <ele>57</ele>
        <time>2015-12-13T09:06:00Z</time>
      </trkpt>
      <trkpt lat="50.77721" lon="3.74142">
        <ele>57.7</ele>
        <time>2015-12-13T09:06:01Z</time>
      </trkpt>
      <trkpt lat="50.7772" lon="3.7414">
        <ele>58</ele>
        <time>2015-12-13T09:06:02Z</time>
      </trkpt>
      <trkpt lat="50.77718" lon="3.74138">
        <ele>58</ele>
        <time>2015-12-13T09:06:03Z</time>
      </trkpt>
      <trkpt lat="50.77716" lon="3.74133">
        <ele>58</ele>
        <time>2015-12-13T09:06:05Z</time>
      </trkpt>
      <trkpt lat="50.77714" lon="3.7413">
        <ele>58</ele>
        <time>2015-12-13T09:06:06Z</time>
      </trkpt>
      <trkpt lat="50.77713" lon="3.74128">
        <ele>58</ele>
        <time>2015-12-13T09:06:07Z</time>
      </trkpt>
      <trkpt lat="50.77712" lon="3.74126">
        <ele>58</ele>
        <time>2015-12-13T09:06:08Z</time>
      </trkpt>
      <trkpt lat="50.7771" lon="3.74124">
        <ele>58</ele>
        <time>2015-12-13T09:06:09Z</time>
      </trkpt>
      <trkpt lat="50.77709" lon="3.74121">
        <ele>58</ele>
        <time>2015-12-13T09:06:10Z</time>
      </trkpt>
      <trkpt lat="50.77707" lon="3.74118">
        <ele>58</ele>
        <time>2015-12-13T09:06:11Z</time>
      </trkpt>
      <trkpt lat="50.77706" lon="3.74115">
        <ele>58</ele>
        <time>2015-12-13T09:06:12Z</time>
      </trkpt>
      <trkpt lat="50.77705" lon="3.74113">
        <ele>58</ele>
        <time>2015-12-13T09:06:13Z</time>
      </trkpt>
      <trkpt lat="50.77703" lon="3.74109">
        <ele>58</ele>
        <time>2015-12-13T09:06:15Z</time>
      </trkpt>
      <trkpt lat="50.77701" lon="3.74108">
        <ele>58</ele>
        <time>2015-12-13T09:06:18Z</time>
      </trkpt>
      <trkpt lat="50.77699" lon="3.74106">
        <ele>58</ele>
        <time>2015-12-13T09:06:20Z</time>
      </trkpt>
      <trkpt lat="50.77696" lon="3.74105">
        <ele>58</ele>
        <time>2015-12-13T09:06:22Z</time>
      </trkpt>
      <trkpt lat="50.77694" lon="3.74106">
        <ele>58</ele>
        <time>2015-12-13T09:06:24Z</time>
      </trkpt>
      <trkpt lat="50.7769" lon="3.74108">
        <ele>58</ele>
        <time>2015-12-13T09:06:26Z</time>
      </trkpt>
      <trkpt lat="50.77689" lon="3.7411">
        <ele>58</ele>
        <time>2015-12-13T09:06:27Z</time>
      </trkpt>
      <trkpt lat="50.77687" lon="3.74111">
        <ele>58</ele>
        <time>2015-12-13T09:06:28Z</time>
      </trkpt>
      <trkpt lat="50.77685" lon="3.74112">
        <ele>58</ele>
        <time>2015-12-13T09:06:29Z</time>
      </trkpt>
      <trkpt lat="50.77681" lon="3.74114">
        <ele>58</ele>
        <time>2015-12-13T09:06:31Z</time>
      </trkpt>
      <trkpt lat="50.7768" lon="3.74114">
        <ele>58</ele>
        <time>2015-12-13T09:06:32Z</time>
      </trkpt>
      <trkpt lat="50.77678" lon="3.74114">
        <ele>58</ele>
        <time>2015-12-13T09:06:33Z</time>
      </trkpt>
      <trkpt lat="50.77676" lon="3.74115">
        <ele>58</ele>
        <time>2015-12-13T09:06:34Z</time>
      </trkpt>
      <trkpt lat="50.77674" lon="3.74116">
        <ele>58</ele>
        <time>2015-12-13T09:06:35Z</time>
      </trkpt>
      <trkpt lat="50.77672" lon="3.74117">
        <ele>58</ele>
        <time>2015-12-13T09:06:36Z</time>
      </trkpt>
      <trkpt lat="50.7767" lon="3.74118">
        <ele>58.7</ele>
        <time>2015-12-13T09:06:37Z</time>
      </trkpt>
      <trkpt lat="50.77668" lon="3.74119">
        <ele>59</ele>
        <time>2015-12-13T09:06:38Z</time>
      </trkpt>
      <trkpt lat="50.77666" lon="3.74121">
        <ele>59</ele>
        <time>2015-12-13T09:06:39Z</time>
      </trkpt>
      <trkpt lat="50.77665" lon="3.74122">
        <ele>59</ele>
        <time>2015-12-13T09:06:40Z</time>
      </trkpt>
      <trkpt lat="50.77662" lon="3.74123">
        <ele>59</ele>
        <time>2015-12-13T09:06:41Z</time>
      </trkpt>
      <trkpt lat="50.77661" lon="3.74125">
        <ele>59</ele>
        <time>2015-12-13T09:06:42Z</time>
      </trkpt>
      <trkpt lat="50.77659" lon="3.74126">
        <ele>59</ele>
        <time>2015-12-13T09:06:43Z</time>
      </trkpt>
      <trkpt lat="50.77657" lon="3.74127">
        <ele>59</ele>
        <time>2015-12-13T09:06:44Z</time>
      </trkpt>
      <trkpt lat="50.77655" lon="3.74128">
        <ele>59</ele>
        <time>2015-12-13T09:06:45Z</time>
      </trkpt>
      <trkpt lat="50.77653" lon="3.74129">
        <ele>59</ele>
        <time>2015-12-13T09:06:46Z</time>
      </trkpt>
      <trkpt lat="50.77651" lon="3.7413">
        <ele>59</ele>
        <time>2015-12-13T09:06:47Z</time>
      </trkpt>
      <trkpt lat="50.77649" lon="3.74131">
        <ele>59</ele>
        <time>2015-12-13T09:06:48Z</time>
      </trkpt>
      <trkpt lat="50.77647" lon="3.74132">
        <ele>59</ele>
        <time>2015-12-13T09:06:49Z</time>
      </trkpt>
      <trkpt lat="50.77645" lon="3.74133">
        <ele>59</ele>
        <time>2015-12-13T09:06:50Z</time>
      </trkpt>
      <trkpt lat="50.77643" lon="3.74133">
        <ele>59</ele>
        <time>2015-12-13T09:06:51Z</time>
      </trkpt>
      <trkpt lat="50.77641" lon="3.74134">
        <ele>59</ele>
        <time>2015-12-13T09:06:52Z</time>
      </trkpt>
      <trkpt lat="50.77639" lon="3.74135">
        <ele>59</ele>
        <time>2015-12-13T09:06:53Z</time>
      </trkpt>
      <trkpt lat="50.77637" lon="3.74135">
        <ele>59</ele>
        <time>2015-12-13T09:06:54Z</time>
      </trkpt>
      <trkpt lat="50.77635" lon="3.74135">
        <ele>59</ele>
        <time>2015-12-13T09:06:55Z</time>
      </trkpt>
      <trkpt lat="50.77633" lon="3.74135">
        <ele>59</ele>
        <time>2015-12-13T09:06:56Z</time>
      </trkpt>
      <trkpt lat="50.77631" lon="3.74135">
        <ele>59</ele>
        <time>2015-12-13T09:06:57Z</time>
      </trkpt>
      <trkpt lat="50.77629" lon="3.74135">
        <ele>59</ele>
        <time>2015-12-13T09:06:58Z</time>
      </trkpt>
      <trkpt lat="50.77627" lon="3.74135">
        <ele>59</ele>
        <time>2015-12-13T09:06:59Z</time>
      </trkpt>
      <trkpt lat="50.77625" lon="3.74135">
        <ele>59</ele>
        <time>2015-12-13T09:07:00Z</time>
      </trkpt>
      <trkpt lat="50.77623" lon="3.74135">
        <ele>59</ele>
        <time>2015-12-13T09:07:01Z</time>
      </trkpt>
      <trkpt lat="50.77621" lon="3.74135">
        <ele>59</ele>
        <time>2015-12-13T09:07:02Z</time>
      </trkpt>
      <trkpt lat="50.77618" lon="3.74133">
        <ele>59</ele>
        <time>2015-12-13T09:07:04Z</time>
      </trkpt>
      <trkpt lat="50.77617" lon="3.7413">
        <ele>59</ele>
        <time>2015-12-13T09:07:05Z</time>
      </trkpt>
      <trkpt lat="50.77615" lon="3.74127">
        <ele>59</ele>
        <time>2015-12-13T09:07:06Z</time>
      </trkpt>
      <trkpt lat="50.77614" lon="3.74125">
        <ele>59.7</ele>
        <time>2015-12-13T09:07:07Z</time>
      </trkpt>
      <trkpt lat="50.77613" lon="3.74122">
        <ele>60</ele>
        <time>2015-12-13T09:07:08Z</time>
      </trkpt>
      <trkpt lat="50.77611" lon="3.74119">
        <ele>60</ele>
        <time>2015-12-13T09:07:09Z</time>
      </trkpt>
      <trkpt lat="50.7761" lon="3.74116">
        <ele>60</ele>
        <time>2015-12-13T09:07:10Z</time>
      </trkpt>
      <trkpt lat="50.77609" lon="3.74113">
        <ele>60</ele>
        <time>2015-12-13T09:07:11Z</time>
      </trkpt>
      <trkpt lat="50.77608" lon="3.7411">
        <ele>60</ele>
        <time>2015-12-13T09:07:12Z</time>
      </trkpt>
      <trkpt lat="50.77607" lon="3.74108">
        <ele>60</ele>
        <time>2015-12-13T09:07:13Z</time>
      </trkpt>
      <trkpt lat="50.77606" lon="3.74105">
        <ele>60</ele>
        <time>2015-12-13T09:07:14Z</time>
      </trkpt>
      <trkpt lat="50.77605" lon="3.74102">
        <ele>60</ele>
        <time>2015-12-13T09:07:15Z</time>
      </trkpt>
      <trkpt lat="50.77604" lon="3.74099">
        <ele>60</ele>
        <time>2015-12-13T09:07:16Z</time>
      </trkpt>
      <trkpt lat="50.77602" lon="3.74096">
        <ele>60</ele>
        <time>2015-12-13T09:07:17Z</time>
      </trkpt>
      <trkpt lat="50.77601" lon="3.74093">
        <ele>60</ele>
        <time>2015-12-13T09:07:18Z</time>
      </trkpt>
      <trkpt lat="50.776" lon="3.7409">
        <ele>60</ele>
        <time>2015-12-13T09:07:19Z</time>
      </trkpt>
      <trkpt lat="50.77599" lon="3.74087">
        <ele>60</ele>
        <time>2015-12-13T09:07:20Z</time>
      </trkpt>
      <trkpt lat="50.77598" lon="3.74084">
        <ele>60.7</ele>
        <time>2015-12-13T09:07:21Z</time>
      </trkpt>
      <trkpt lat="50.77597" lon="3.74081">
        <ele>61</ele>
        <time>2015-12-13T09:07:22Z</time>
      </trkpt>
      <trkpt lat="50.77596" lon="3.74078">
        <ele>61</ele>
        <time>2015-12-13T09:07:23Z</time>
      </trkpt>
      <trkpt lat="50.77595" lon="3.74075">
        <ele>61</ele>
        <time>2015-12-13T09:07:24Z</time>
      </trkpt>
      <trkpt lat="50.77594" lon="3.74073">
        <ele>61</ele>
        <time>2015-12-13T09:07:25Z</time>
      </trkpt>
      <trkpt lat="50.77593" lon="3.7407">
        <ele>61</ele>
        <time>2015-12-13T09:07:26Z</time>
      </trkpt>
      <trkpt lat="50.77592" lon="3.74068">
        <ele>61</ele>
        <time>2015-12-13T09:07:27Z</time>
      </trkpt>
      <trkpt lat="50.77591" lon="3.74065">
        <ele>61</ele>
        <time>2015-12-13T09:07:28Z</time>
      </trkpt>
      <trkpt lat="50.77589" lon="3.74062">
        <ele>61</ele>
        <time>2015-12-13T09:07:29Z</time>
      </trkpt>
      <trkpt lat="50.77588" lon="3.7406">
        <ele>61</ele>
        <time>2015-12-13T09:07:30Z</time>
      </trkpt>
      <trkpt lat="50.77587" lon="3.74057">
        <ele>61.5</ele>
        <time>2015-12-13T09:07:31Z</time>
      </trkpt>
      <trkpt lat="50.77586" lon="3.74054">
        <ele>62</ele>
        <time>2015-12-13T09:07:32Z</time>
      </trkpt>
      <trkpt lat="50.77586" lon="3.74051">
        <ele>62</ele>
        <time>2015-12-13T09:07:33Z</time>
      </trkpt>
      <trkpt lat="50.77585" lon="3.74048">
        <ele>62</ele>
        <time>2015-12-13T09:07:34Z</time>
      </trkpt>
      <trkpt lat="50.77584" lon="3.74045">
        <ele>62</ele>
        <time>2015-12-13T09:07:35Z</time>
      </trkpt>
      <trkpt lat="50.77583" lon="3.74043">
        <ele>62</ele>
        <time>2015-12-13T09:07:36Z</time>
      </trkpt>
      <trkpt lat="50.77581" lon="3.74039">
        <ele>62</ele>
        <time>2015-12-13T09:07:37Z</time>
      </trkpt>
      <trkpt lat="50.7758" lon="3.74036">
        <ele>62</ele>
        <time>2015-12-13T09:07:38Z</time>
      </trkpt>
      <trkpt lat="50.77579" lon="3.74034">
        <ele>62</ele>
        <time>2015-12-13T09:07:39Z</time>
      </trkpt>
      <trkpt lat="50.77578" lon="3.74031">
        <ele>62</ele>
        <time>2015-12-13T09:07:40Z</time>
      </trkpt>
      <trkpt lat="50.77578" lon="3.74028">
        <ele>64</ele>
        <time>2015-12-13T09:07:42Z</time>
      </trkpt>
      <trkpt lat="50.77576" lon="3.74026">
        <ele>64</ele>
        <time>2015-12-13T09:07:50Z</time>
      </trkpt>
      <trkpt lat="50.77575" lon="3.74023">
        <ele>64</ele>
        <time>2015-12-13T09:07:52Z</time>
      </trkpt>
      <trkpt lat="50.77574" lon="3.7402">
        <ele>64</ele>
        <time>2015-12-13T09:07:54Z</time>
      </trkpt>
      <trkpt lat="50.77572" lon="3.74017">
        <ele>64</ele>
        <time>2015-12-13T09:07:56Z</time>
      </trkpt>
      <trkpt lat="50.77571" lon="3.74014">
        <ele>64</ele>
        <time>2015-12-13T09:07:57Z</time>
      </trkpt>
      <trkpt lat="50.7757" lon="3.74011">
        <ele>64</ele>
        <time>2015-12-13T09:07:58Z</time>
      </trkpt>
      <trkpt lat="50.77569" lon="3.74007">
        <ele>64</ele>
        <time>2015-12-13T09:08:00Z</time>
      </trkpt>
      <trkpt lat="50.77567" lon="3.74004">
        <ele>64</ele>
        <time>2015-12-13T09:08:02Z</time>
      </trkpt>
      <trkpt lat="50.77566" lon="3.74001">
        <ele>64</ele>
        <time>2015-12-13T09:08:04Z</time>
      </trkpt>
      <trkpt lat="50.77565" lon="3.73998">
        <ele>64</ele>
        <time>2015-12-13T09:08:06Z</time>
      </trkpt>
      <trkpt lat="50.77564" lon="3.73995">
        <ele>64</ele>
        <time>2015-12-13T09:08:08Z</time>
      </trkpt>
      <trkpt lat="50.77562" lon="3.73992">
        <ele>64</ele>
        <time>2015-12-13T09:08:10Z</time>
      </trkpt>
      <trkpt lat="50.77561" lon="3.73988">
        <ele>65</ele>
        <time>2015-12-13T09:08:12Z</time>
      </trkpt>
      <trkpt lat="50.7756" lon="3.73985">
        <ele>65</ele>
        <time>2015-12-13T09:08:14Z</time>
      </trkpt>
      <trkpt lat="50.77558" lon="3.73982">
        <ele>65</ele>
        <time>2015-12-13T09:08:16Z</time>
      </trkpt>
      <trkpt lat="50.77557" lon="3.73978">
        <ele>65</ele>
        <time>2015-12-13T09:08:18Z</time>
      </trkpt>
      <trkpt lat="50.77555" lon="3.73974">
        <ele>65</ele>
        <time>2015-12-13T09:08:20Z</time>
      </trkpt>
      <trkpt lat="50.77554" lon="3.73971">
        <ele>66</ele>
        <time>2015-12-13T09:08:22Z</time>
      </trkpt>
      <trkpt lat="50.77552" lon="3.73968">
        <ele>66</ele>
        <time>2015-12-13T09:08:24Z</time>
      </trkpt>
      <trkpt lat="50.77551" lon="3.73964">
        <ele>66</ele>
        <time>2015-12-13T09:08:26Z</time>
      </trkpt>
      <trkpt lat="50.7755" lon="3.7396">
        <ele>66</ele>
        <time>2015-12-13T09:08:28Z</time>
      </trkpt>
      <trkpt lat="50.77549" lon="3.73956">
        <ele>66</ele>
        <time>2015-12-13T09:08:30Z</time>
      </trkpt>
      <trkpt lat="50.77548" lon="3.73952">
        <ele>67</ele>
        <time>2015-12-13T09:08:32Z</time>
      </trkpt>
      <trkpt lat="50.77546" lon="3.73949">
        <ele>67</ele>
        <time>2015-12-13T09:08:34Z</time>
      </trkpt>
      <trkpt lat="50.77545" lon="3.73946">
        <ele>67</ele>
        <time>2015-12-13T09:08:36Z</time>
      </trkpt>
      <trkpt lat="50.77544" lon="3.73942">
        <ele>67</ele>
        <time>2015-12-13T09:08:38Z</time>
      </trkpt>
      <trkpt lat="50.77542" lon="3.73939">
        <ele>67</ele>
        <time>2015-12-13T09:08:40Z</time>
      </trkpt>
      <trkpt lat="50.7754" lon="3.73935">
        <ele>67</ele>
        <time>2015-12-13T09:08:42Z</time>
      </trkpt>
      <trkpt lat="50.77539" lon="3.73932">
        <ele>67</ele>
        <time>2015-12-13T09:08:44Z</time>
      </trkpt>
      <trkpt lat="50.77537" lon="3.73928">
        <ele>67</ele>
        <time>2015-12-13T09:08:46Z</time>
      </trkpt>
      <trkpt lat="50.77535" lon="3.73924">
        <ele>67</ele>
        <time>2015-12-13T09:08:48Z</time>
      </trkpt>
      <trkpt lat="50.77534" lon="3.73921">
        <ele>67</ele>
        <time>2015-12-13T09:08:49Z</time>
      </trkpt>
      <trkpt lat="50.77533" lon="3.73918">
        <ele>67</ele>
        <time>2015-12-13T09:08:50Z</time>
      </trkpt>
      <trkpt lat="50.77531" lon="3.73915">
        <ele>67.7</ele>
        <time>2015-12-13T09:08:51Z</time>
      </trkpt>
      <trkpt lat="50.7753" lon="3.73912">
        <ele>68</ele>
        <time>2015-12-13T09:08:52Z</time>
      </trkpt>
      <trkpt lat="50.77529" lon="3.7391">
        <ele>68</ele>
        <time>2015-12-13T09:08:53Z</time>
      </trkpt>
      <trkpt lat="50.77528" lon="3.73906">
        <ele>68</ele>
        <time>2015-12-13T09:08:54Z</time>
      </trkpt>
      <trkpt lat="50.77527" lon="3.73903">
        <ele>68</ele>
        <time>2015-12-13T09:08:55Z</time>
      </trkpt>
      <trkpt lat="50.77526" lon="3.739">
        <ele>68</ele>
        <time>2015-12-13T09:08:56Z</time>
      </trkpt>
      <trkpt lat="50.77525" lon="3.73897">
        <ele>68</ele>
        <time>2015-12-13T09:08:57Z</time>
      </trkpt>
      <trkpt lat="50.77524" lon="3.73894">
        <ele>68</ele>
        <time>2015-12-13T09:08:58Z</time>
      </trkpt>
      <trkpt lat="50.77523" lon="3.73892">
        <ele>68</ele>
        <time>2015-12-13T09:08:59Z</time>
      </trkpt>
      <trkpt lat="50.77522" lon="3.73889">
        <ele>68</ele>
        <time>2015-12-13T09:09:00Z</time>
      </trkpt>
      <trkpt lat="50.77521" lon="3.73886">
        <ele>68.7</ele>
        <time>2015-12-13T09:09:01Z</time>
      </trkpt>
      <trkpt lat="50.7752" lon="3.73883">
        <ele>69</ele>
        <time>2015-12-13T09:09:02Z</time>
      </trkpt>
      <trkpt lat="50.77518" lon="3.7388">
        <ele>69</ele>
        <time>2015-12-13T09:09:03Z</time>
      </trkpt>
      <trkpt lat="50.77517" lon="3.73877">
        <ele>69</ele>
        <time>2015-12-13T09:09:04Z</time>
      </trkpt>
      <trkpt lat="50.77516" lon="3.73874">
        <ele>69</ele>
        <time>2015-12-13T09:09:05Z</time>
      </trkpt>
      <trkpt lat="50.77515" lon="3.73872">
        <ele>69</ele>
        <time>2015-12-13T09:09:06Z</time>
      </trkpt>
      <trkpt lat="50.77514" lon="3.73869">
        <ele>69</ele>
        <time>2015-12-13T09:09:07Z</time>
      </trkpt>
      <trkpt lat="50.77513" lon="3.73866">
        <ele>69</ele>
        <time>2015-12-13T09:09:08Z</time>
      </trkpt>
      <trkpt lat="50.77511" lon="3.73863">
        <ele>69</ele>
        <time>2015-12-13T09:09:09Z</time>
      </trkpt>
      <trkpt lat="50.7751" lon="3.73859">
        <ele>69</ele>
        <time>2015-12-13T09:09:10Z</time>
      </trkpt>
      <trkpt lat="50.77509" lon="3.73856">
        <ele>70.3</ele>
        <time>2015-12-13T09:09:11Z</time>
      </trkpt>
      <trkpt lat="50.77508" lon="3.73853">
        <ele>71</ele>
        <time>2015-12-13T09:09:12Z</time>
      </trkpt>
      <trkpt lat="50.77507" lon="3.7385">
        <ele>71</ele>
        <time>2015-12-13T09:09:13Z</time>
      </trkpt>
      <trkpt lat="50.77505" lon="3.73846">
        <ele>71</ele>
        <time>2015-12-13T09:09:14Z</time>
      </trkpt>
      <trkpt lat="50.77504" lon="3.73843">
        <ele>71</ele>
        <time>2015-12-13T09:09:15Z</time>
      </trkpt>
      <trkpt lat="50.77503" lon="3.73839">
        <ele>71</ele>
        <time>2015-12-13T09:09:16Z</time>
      </trkpt>
      <trkpt lat="50.77501" lon="3.73836">
        <ele>71</ele>
        <time>2015-12-13T09:09:17Z</time>
      </trkpt>
      <trkpt lat="50.775" lon="3.73832">
        <ele>71</ele>
        <time>2015-12-13T09:09:18Z</time>
      </trkpt>
      <trkpt lat="50.77499" lon="3.73829">
        <ele>71</ele>
        <time>2015-12-13T09:09:19Z</time>
      </trkpt>
      <trkpt lat="50.77498" lon="3.73826">
        <ele>71</ele>
        <time>2015-12-13T09:09:20Z</time>
      </trkpt>
      <trkpt lat="50.77497" lon="3.73822">
        <ele>71</ele>
        <time>2015-12-13T09:09:21Z</time>
      </trkpt>
      <trkpt lat="50.77496" lon="3.73819">
        <ele>71</ele>
        <time>2015-12-13T09:09:22Z</time>
      </trkpt>
      <trkpt lat="50.77494" lon="3.73816">
        <ele>71</ele>
        <time>2015-12-13T09:09:23Z</time>
      </trkpt>
      <trkpt lat="50.77493" lon="3.73813">
        <ele>71</ele>
        <time>2015-12-13T09:09:24Z</time>
      </trkpt>
      <trkpt lat="50.77492" lon="3.7381">
        <ele>71</ele>
        <time>2015-12-13T09:09:25Z</time>
      </trkpt>
      <trkpt lat="50.77491" lon="3.73807">
        <ele>71</ele>
        <time>2015-12-13T09:09:26Z</time>
      </trkpt>
      <trkpt lat="50.77489" lon="3.73804">
        <ele>71</ele>
        <time>2015-12-13T09:09:27Z</time>
      </trkpt>
      <trkpt lat="50.77488" lon="3.73801">
        <ele>71</ele>
        <time>2015-12-13T09:09:28Z</time>
      </trkpt>
      <trkpt lat="50.77487" lon="3.73799">
        <ele>71</ele>
        <time>2015-12-13T09:09:29Z</time>
      </trkpt>
      <trkpt lat="50.77486" lon="3.73796">
        <ele>71</ele>
        <time>2015-12-13T09:09:30Z</time>
      </trkpt>
      <trkpt lat="50.77485" lon="3.73793">
        <ele>71.7</ele>
        <time>2015-12-13T09:09:31Z</time>
      </trkpt>
      <trkpt lat="50.77484" lon="3.73789">
        <ele>72</ele>
        <time>2015-12-13T09:09:32Z</time>
      </trkpt>
      <trkpt lat="50.77482" lon="3.73787">
        <ele>72</ele>
        <time>2015-12-13T09:09:33Z</time>
      </trkpt>
      <trkpt lat="50.77481" lon="3.73784">
        <ele>72</ele>
        <time>2015-12-13T09:09:34Z</time>
      </trkpt>
      <trkpt lat="50.7748" lon="3.7378">
        <ele>72</ele>
        <time>2015-12-13T09:09:35Z</time>
      </trkpt>
      <trkpt lat="50.7748" lon="3.73777">
        <ele>72</ele>
        <time>2015-12-13T09:09:36Z</time>
      </trkpt>
      <trkpt lat="50.77478" lon="3.73774">
        <ele>72</ele>
        <time>2015-12-13T09:09:37Z</time>
      </trkpt>
      <trkpt lat="50.77477" lon="3.73772">
        <ele>72</ele>
        <time>2015-12-13T09:09:38Z</time>
      </trkpt>
      <trkpt lat="50.77476" lon="3.73769">
        <ele>72</ele>
        <time>2015-12-13T09:09:39Z</time>
      </trkpt>
      <trkpt lat="50.77474" lon="3.73766">
        <ele>72</ele>
        <time>2015-12-13T09:09:40Z</time>
      </trkpt>
      <trkpt lat="50.77473" lon="3.73763">
        <ele>73.4</ele>
        <time>2015-12-13T09:09:41Z</time>
      </trkpt>
      <trkpt lat="50.77472" lon="3.7376">
        <ele>74</ele>
        <time>2015-12-13T09:09:42Z</time>
      </trkpt>
      <trkpt lat="50.77471" lon="3.73758">
        <ele>74</ele>
        <time>2015-12-13T09:09:43Z</time>
      </trkpt>
      <trkpt lat="50.7747" lon="3.73755">
        <ele>74</ele>
        <time>2015-12-13T09:09:44Z</time>
      </trkpt>
      <trkpt lat="50.77469" lon="3.73752">
        <ele>74</ele>
        <time>2015-12-13T09:09:45Z</time>
      </trkpt>
      <trkpt lat="50.77467" lon="3.73747">
        <ele>74</ele>
        <time>2015-12-13T09:09:47Z</time>
      </trkpt>
      <trkpt lat="50.77466" lon="3.73745">
        <ele>74</ele>
        <time>2015-12-13T09:09:48Z</time>
      </trkpt>
      <trkpt lat="50.77464" lon="3.73741">
        <ele>74</ele>
        <time>2015-12-13T09:09:50Z</time>
      </trkpt>
      <trkpt lat="50.77463" lon="3.73738">
        <ele>74.7</ele>
        <time>2015-12-13T09:09:51Z</time>
      </trkpt>
      <trkpt lat="50.77462" lon="3.73735">
        <ele>75</ele>
        <time>2015-12-13T09:09:52Z</time>
      </trkpt>
      <trkpt lat="50.7746" lon="3.73733">
        <ele>75</ele>
        <time>2015-12-13T09:09:53Z</time>
      </trkpt>
      <trkpt lat="50.77459" lon="3.7373">
        <ele>75</ele>
        <time>2015-12-13T09:09:54Z</time>
      </trkpt>
      <trkpt lat="50.77458" lon="3.73728">
        <ele>75</ele>
        <time>2015-12-13T09:09:55Z</time>
      </trkpt>
      <trkpt lat="50.77457" lon="3.73725">
        <ele>75</ele>
        <time>2015-12-13T09:09:56Z</time>
      </trkpt>
      <trkpt lat="50.77456" lon="3.73723">
        <ele>75</ele>
        <time>2015-12-13T09:09:57Z</time>
      </trkpt>
      <trkpt lat="50.77455" lon="3.7372">
        <ele>75</ele>
        <time>2015-12-13T09:09:58Z</time>
      </trkpt>
      <trkpt lat="50.77454" lon="3.73718">
        <ele>75</ele>
        <time>2015-12-13T09:09:59Z</time>
      </trkpt>
      <trkpt lat="50.77453" lon="3.73715">
        <ele>75</ele>
        <time>2015-12-13T09:10:00Z</time>
      </trkpt>
      <trkpt lat="50.77451" lon="3.73713">
        <ele>77</ele>
        <time>2015-12-13T09:10:01Z</time>
      </trkpt>
      <trkpt lat="50.7745" lon="3.7371">
        <ele>78</ele>
        <time>2015-12-13T09:10:02Z</time>
      </trkpt>
      <trkpt lat="50.77449" lon="3.73707">
        <ele>78</ele>
        <time>2015-12-13T09:10:03Z</time>
      </trkpt>
      <trkpt lat="50.77448" lon="3.73705">
        <ele>78</ele>
        <time>2015-12-13T09:10:04Z</time>
      </trkpt>
      <trkpt lat="50.77447" lon="3.73702">
        <ele>78</ele>
        <time>2015-12-13T09:10:05Z</time>
      </trkpt>
      <trkpt lat="50.77446" lon="3.73697">
        <ele>79</ele>
        <time>2015-12-13T09:10:07Z</time>
      </trkpt>
      <trkpt lat="50.77445" lon="3.73694">
        <ele>79</ele>
        <time>2015-12-13T09:10:09Z</time>
      </trkpt>
      <trkpt lat="50.77444" lon="3.7369">
        <ele>79</ele>
        <time>2015-12-13T09:10:12Z</time>
      </trkpt>
      <trkpt lat="50.77442" lon="3.73686">
        <ele>79</ele>
        <time>2015-12-13T09:10:14Z</time>
      </trkpt>
      <trkpt lat="50.77441" lon="3.73683">
        <ele>79</ele>
        <time>2015-12-13T09:10:16Z</time>
      </trkpt>
      <trkpt lat="50.77439" lon="3.7368">
        <ele>79</ele>
        <time>2015-12-13T09:10:18Z</time>
      </trkpt>
      <trkpt lat="50.77438" lon="3.73677">
        <ele>79</ele>
        <time>2015-12-13T09:10:19Z</time>
      </trkpt>
      <trkpt lat="50.77437" lon="3.73674">
        <ele>79</ele>
        <time>2015-12-13T09:10:20Z</time>
      </trkpt>
      <trkpt lat="50.77436" lon="3.73672">
        <ele>79.5</ele>
        <time>2015-12-13T09:10:21Z</time>
      </trkpt>
      <trkpt lat="50.77434" lon="3.73668">
        <ele>80</ele>
        <time>2015-12-13T09:10:23Z</time>
      </trkpt>
      <trkpt lat="50.77433" lon="3.73665">
        <ele>80</ele>
        <time>2015-12-13T09:10:26Z</time>
      </trkpt>
      <trkpt lat="50.77433" lon="3.73661">
        <ele>80</ele>
        <time>2015-12-13T09:10:28Z</time>
      </trkpt>
      <trkpt lat="50.77431" lon="3.73657">
        <ele>80</ele>
        <time>2015-12-13T09:10:30Z</time>
      </trkpt>
      <trkpt lat="50.7743" lon="3.73655">
        <ele>80</ele>
        <time>2015-12-13T09:10:32Z</time>
      </trkpt>
      <trkpt lat="50.77428" lon="3.73651">
        <ele>80</ele>
        <time>2015-12-13T09:10:34Z</time>
      </trkpt>
      <trkpt lat="50.77427" lon="3.73648">
        <ele>80</ele>
        <time>2015-12-13T09:10:36Z</time>
      </trkpt>
      <trkpt lat="50.77426" lon="3.73646">
        <ele>80</ele>
        <time>2015-12-13T09:10:38Z</time>
      </trkpt>
      <trkpt lat="50.77425" lon="3.73642">
        <ele>80</ele>
        <time>2015-12-13T09:10:40Z</time>
      </trkpt>
      <trkpt lat="50.77424" lon="3.73639">
        <ele>82</ele>
        <time>2015-12-13T09:10:42Z</time>
      </trkpt>
      <trkpt lat="50.77423" lon="3.73635">
        <ele>82</ele>
        <time>2015-12-13T09:10:44Z</time>
      </trkpt>
      <trkpt lat="50.77421" lon="3.73633">
        <ele>82</ele>
        <time>2015-12-13T09:10:46Z</time>
      </trkpt>
      <trkpt lat="50.7742" lon="3.7363">
        <ele>82</ele>
        <time>2015-12-13T09:10:48Z</time>
      </trkpt>
      <trkpt lat="50.77418" lon="3.73627">
        <ele>82</ele>
        <time>2015-12-13T09:10:50Z</time>
      </trkpt>
      <trkpt lat="50.77417" lon="3.73623">
        <ele>84</ele>
        <time>2015-12-13T09:10:52Z</time>
      </trkpt>
      <trkpt lat="50.77415" lon="3.7362">
        <ele>84</ele>
        <time>2015-12-13T09:10:54Z</time>
      </trkpt>
      <trkpt lat="50.77414" lon="3.73617">
        <ele>84</ele>
        <time>2015-12-13T09:10:56Z</time>
      </trkpt>
      <trkpt lat="50.77413" lon="3.73614">
        <ele>84</ele>
        <time>2015-12-13T09:10:58Z</time>
      </trkpt>
      <trkpt lat="50.77412" lon="3.7361">
        <ele>84</ele>
        <time>2015-12-13T09:11:01Z</time>
      </trkpt>
      <trkpt lat="50.77411" lon="3.73606">
        <ele>84</ele>
        <time>2015-12-13T09:11:03Z</time>
      </trkpt>
      <trkpt lat="50.77411" lon="3.73603">
        <ele>84</ele>
        <time>2015-12-13T09:11:05Z</time>
      </trkpt>
      <trkpt lat="50.7741" lon="3.736">
        <ele>84</ele>
        <time>2015-12-13T09:11:07Z</time>
      </trkpt>
      <trkpt lat="50.77409" lon="3.73597">
        <ele>84</ele>
        <time>2015-12-13T09:11:09Z</time>
      </trkpt>
      <trkpt lat="50.77408" lon="3.73594">
        <ele>84</ele>
        <time>2015-12-13T09:11:11Z</time>
      </trkpt>
      <trkpt lat="50.77406" lon="3.7359">
        <ele>85</ele>
        <time>2015-12-13T09:11:14Z</time>
      </trkpt>
      <trkpt lat="50.77405" lon="3.73586">
        <ele>85</ele>
        <time>2015-12-13T09:11:16Z</time>
      </trkpt>
      <trkpt lat="50.77404" lon="3.73583">
        <ele>85</ele>
        <time>2015-12-13T09:11:17Z</time>
      </trkpt>
      <trkpt lat="50.77402" lon="3.73579">
        <ele>85</ele>
        <time>2015-12-13T09:11:18Z</time>
      </trkpt>
      <trkpt lat="50.77401" lon="3.73576">
        <ele>85</ele>
        <time>2015-12-13T09:11:19Z</time>
      </trkpt>
      <trkpt lat="50.774" lon="3.73573">
        <ele>85</ele>
        <time>2015-12-13T09:11:20Z</time>
      </trkpt>
      <trkpt lat="50.77399" lon="3.73569">
        <ele>85</ele>
        <time>2015-12-13T09:11:21Z</time>
      </trkpt>
      <trkpt lat="50.77398" lon="3.73566">
        <ele>85.7</ele>
        <time>2015-12-13T09:11:22Z</time>
      </trkpt>
      <trkpt lat="50.77397" lon="3.73563">
        <ele>86</ele>
        <time>2015-12-13T09:11:23Z</time>
      </trkpt>
      <trkpt lat="50.77396" lon="3.7356">
        <ele>86</ele>
        <time>2015-12-13T09:11:24Z</time>
      </trkpt>
      <trkpt lat="50.77395" lon="3.73557">
        <ele>86</ele>
        <time>2015-12-13T09:11:25Z</time>
      </trkpt>
      <trkpt lat="50.77393" lon="3.73553">
        <ele>86</ele>
        <time>2015-12-13T09:11:26Z</time>
      </trkpt>
      <trkpt lat="50.77392" lon="3.73549">
        <ele>86</ele>
        <time>2015-12-13T09:11:27Z</time>
      </trkpt>
      <trkpt lat="50.77391" lon="3.73546">
        <ele>86</ele>
        <time>2015-12-13T09:11:28Z</time>
      </trkpt>
      <trkpt lat="50.7739" lon="3.73543">
        <ele>86</ele>
        <time>2015-12-13T09:11:29Z</time>
      </trkpt>
      <trkpt lat="50.77388" lon="3.73539">
        <ele>86</ele>
        <time>2015-12-13T09:11:30Z</time>
      </trkpt>
      <trkpt lat="50.77387" lon="3.73536">
        <ele>86</ele>
        <time>2015-12-13T09:11:31Z</time>
      </trkpt>
      <trkpt lat="50.77386" lon="3.73532">
        <ele>87.4</ele>
        <time>2015-12-13T09:11:32Z</time>
      </trkpt>
      <trkpt lat="50.77385" lon="3.73529">
        <ele>88</ele>
        <time>2015-12-13T09:11:33Z</time>
      </trkpt>
      <trkpt lat="50.77384" lon="3.73526">
        <ele>88</ele>
        <time>2015-12-13T09:11:34Z</time>
      </trkpt>
      <trkpt lat="50.77383" lon="3.73523">
        <ele>88</ele>
        <time>2015-12-13T09:11:35Z</time>
      </trkpt>
      <trkpt lat="50.77382" lon="3.73519">
        <ele>88</ele>
        <time>2015-12-13T09:11:36Z</time>
      </trkpt>
      <trkpt lat="50.77381" lon="3.73516">
        <ele>88</ele>
        <time>2015-12-13T09:11:37Z</time>
      </trkpt>
      <trkpt lat="50.7738" lon="3.73512">
        <ele>88</ele>
        <time>2015-12-13T09:11:38Z</time>
      </trkpt>
      <trkpt lat="50.77378" lon="3.73509">
        <ele>88</ele>
        <time>2015-12-13T09:11:39Z</time>
      </trkpt>
      <trkpt lat="50.77377" lon="3.73506">
        <ele>88</ele>
        <time>2015-12-13T09:11:40Z</time>
      </trkpt>
      <trkpt lat="50.77376" lon="3.73502">
        <ele>88</ele>
        <time>2015-12-13T09:11:41Z</time>
      </trkpt>
      <trkpt lat="50.77375" lon="3.73499">
        <ele>88.7</ele>
        <time>2015-12-13T09:11:42Z</time>
      </trkpt>
      <trkpt lat="50.77374" lon="3.73496">
        <ele>89</ele>
        <time>2015-12-13T09:11:43Z</time>
      </trkpt>
      <trkpt lat="50.77373" lon="3.73493">
        <ele>89</ele>
        <time>2015-12-13T09:11:44Z</time>
      </trkpt>
      <trkpt lat="50.77372" lon="3.7349">
        <ele>89</ele>
        <time>2015-12-13T09:11:45Z</time>
      </trkpt>
      <trkpt lat="50.7737" lon="3.73486">
        <ele>89</ele>
        <time>2015-12-13T09:11:46Z</time>
      </trkpt>
      <trkpt lat="50.77369" lon="3.73483">
        <ele>89</ele>
        <time>2015-12-13T09:11:47Z</time>
      </trkpt>
      <trkpt lat="50.77368" lon="3.73479">
        <ele>89</ele>
        <time>2015-12-13T09:11:48Z</time>
      </trkpt>
      <trkpt lat="50.77367" lon="3.73476">
        <ele>89</ele>
        <time>2015-12-13T09:11:49Z</time>
      </trkpt>
      <trkpt lat="50.77366" lon="3.73473">
        <ele>89</ele>
        <time>2015-12-13T09:11:50Z</time>
      </trkpt>
      <trkpt lat="50.77365" lon="3.7347">
        <ele>89</ele>
        <time>2015-12-13T09:11:51Z</time>
      </trkpt>
      <trkpt lat="50.77364" lon="3.73467">
        <ele>89.7</ele>
        <time>2015-12-13T09:11:52Z</time>
      </trkpt>
      <trkpt lat="50.77363" lon="3.73464">
        <ele>90</ele>
        <time>2015-12-13T09:11:53Z</time>
      </trkpt>
      <trkpt lat="50.77362" lon="3.73461">
        <ele>90</ele>
        <time>2015-12-13T09:11:54Z</time>
      </trkpt>
      <trkpt lat="50.77361" lon="3.73457">
        <ele>90</ele>
        <time>2015-12-13T09:11:55Z</time>
      </trkpt>
      <trkpt lat="50.77359" lon="3.73454">
        <ele>90</ele>
        <time>2015-12-13T09:11:56Z</time>
      </trkpt>
      <trkpt lat="50.77358" lon="3.73451">
        <ele>90</ele>
        <time>2015-12-13T09:11:57Z</time>
      </trkpt>
      <trkpt lat="50.77357" lon="3.73448">
        <ele>90</ele>
        <time>2015-12-13T09:11:58Z</time>
      </trkpt>
      <trkpt lat="50.77356" lon="3.73444">
        <ele>90</ele>
        <time>2015-12-13T09:11:59Z</time>
      </trkpt>
      <trkpt lat="50.77355" lon="3.73441">
        <ele>90</ele>
        <time>2015-12-13T09:12:00Z</time>
      </trkpt>
      <trkpt lat="50.77354" lon="3.73437">
        <ele>90.5</ele>
        <time>2015-12-13T09:12:01Z</time>
      </trkpt>
      <trkpt lat="50.77353" lon="3.73434">
        <ele>91</ele>
        <time>2015-12-13T09:12:02Z</time>
      </trkpt>
      <trkpt lat="50.77352" lon="3.7343">
        <ele>91</ele>
        <time>2015-12-13T09:12:03Z</time>
      </trkpt>
      <trkpt lat="50.77352" lon="3.73426">
        <ele>91</ele>
        <time>2015-12-13T09:12:04Z</time>
      </trkpt>
      <trkpt lat="50.77351" lon="3.73423">
        <ele>91</ele>
        <time>2015-12-13T09:12:05Z</time>
      </trkpt>
      <trkpt lat="50.77351" lon="3.73419">
        <ele>91</ele>
        <time>2015-12-13T09:12:06Z</time>
      </trkpt>
      <trkpt lat="50.7735" lon="3.73415">
        <ele>91</ele>
        <time>2015-12-13T09:12:07Z</time>
      </trkpt>
      <trkpt lat="50.7735" lon="3.73412">
        <ele>91</ele>
        <time>2015-12-13T09:12:08Z</time>
      </trkpt>
      <trkpt lat="50.7735" lon="3.73408">
        <ele>91</ele>
        <time>2015-12-13T09:12:09Z</time>
      </trkpt>
      <trkpt lat="50.7735" lon="3.73404">
        <ele>91</ele>
        <time>2015-12-13T09:12:10Z</time>
      </trkpt>
      <trkpt lat="50.7735" lon="3.73401">
        <ele>91.7</ele>
        <time>2015-12-13T09:12:11Z</time>
      </trkpt>
      <trkpt lat="50.7735" lon="3.73397">
        <ele>92</ele>
        <time>2015-12-13T09:12:12Z</time>
      </trkpt>
      <trkpt lat="50.7735" lon="3.73393">
        <ele>92</ele>
        <time>2015-12-13T09:12:13Z</time>
      </trkpt>
      <trkpt lat="50.7735" lon="3.7339">
        <ele>92</ele>
        <time>2015-12-13T09:12:14Z</time>
      </trkpt>
      <trkpt lat="50.77349" lon="3.73386">
        <ele>92</ele>
        <time>2015-12-13T09:12:15Z</time>
      </trkpt>
      <trkpt lat="50.77349" lon="3.73383">
        <ele>92</ele>
        <time>2015-12-13T09:12:16Z</time>
      </trkpt>
      <trkpt lat="50.77348" lon="3.73379">
        <ele>92</ele>
        <time>2015-12-13T09:12:17Z</time>
      </trkpt>
      <trkpt lat="50.77348" lon="3.73376">
        <ele>92</ele>
        <time>2015-12-13T09:12:18Z</time>
      </trkpt>
      <trkpt lat="50.77347" lon="3.73373">
        <ele>92</ele>
        <time>2015-12-13T09:12:19Z</time>
      </trkpt>
      <trkpt lat="50.77347" lon="3.73369">
        <ele>92</ele>
        <time>2015-12-13T09:12:20Z</time>
      </trkpt>
      <trkpt lat="50.77347" lon="3.73365">
        <ele>92.7</ele>
        <time>2015-12-13T09:12:21Z</time>
      </trkpt>
      <trkpt lat="50.77346" lon="3.73361">
        <ele>93</ele>
        <time>2015-12-13T09:12:22Z</time>
      </trkpt>
      <trkpt lat="50.77346" lon="3.73357">
        <ele>93</ele>
        <time>2015-12-13T09:12:23Z</time>
      </trkpt>
      <trkpt lat="50.77346" lon="3.73353">
        <ele>93</ele>
        <time>2015-12-13T09:12:24Z</time>
      </trkpt>
      <trkpt lat="50.77346" lon="3.7335">
        <ele>93</ele>
        <time>2015-12-13T09:12:25Z</time>
      </trkpt>
      <trkpt lat="50.77346" lon="3.73346">
        <ele>93</ele>
        <time>2015-12-13T09:12:26Z</time>
      </trkpt>
      <trkpt lat="50.77346" lon="3.73342">
        <ele>93</ele>
        <time>2015-12-13T09:12:27Z</time>
      </trkpt>
      <trkpt lat="50.77346" lon="3.73338">
        <ele>93</ele>
        <time>2015-12-13T09:12:28Z</time>
      </trkpt>
      <trkpt lat="50.77346" lon="3.73335">
        <ele>93</ele>
        <time>2015-12-13T09:12:29Z</time>
      </trkpt>
      <trkpt lat="50.77346" lon="3.73331">
        <ele>93</ele>
        <time>2015-12-13T09:12:30Z</time>
      </trkpt>
      <trkpt lat="50.77345" lon="3.73327">
        <ele>93</ele>
        <time>2015-12-13T09:12:31Z</time>
      </trkpt>
      <trkpt lat="50.77345" lon="3.73324">
        <ele>93</ele>
        <time>2015-12-13T09:12:32Z</time>
      </trkpt>
      <trkpt lat="50.77345" lon="3.73319">
        <ele>93</ele>
        <time>2015-12-13T09:12:34Z</time>
      </trkpt>
      <trkpt lat="50.77346" lon="3.73315">
        <ele>93</ele>
        <time>2015-12-13T09:12:36Z</time>
      </trkpt>
      <trkpt lat="50.77347" lon="3.73311">
        <ele>93</ele>
        <time>2015-12-13T09:12:38Z</time>
      </trkpt>
      <trkpt lat="50.7735" lon="3.73309">
        <ele>93</ele>
        <time>2015-12-13T09:12:40Z</time>
      </trkpt>
      <trkpt lat="50.77352" lon="3.73309">
        <ele>93</ele>
        <time>2015-12-13T09:12:42Z</time>
      </trkpt>
      <trkpt lat="50.77354" lon="3.7331">
        <ele>93</ele>
        <time>2015-12-13T09:12:46Z</time>
      </trkpt>
      <trkpt lat="50.77356" lon="3.73308">
        <ele>93</ele>
        <time>2015-12-13T09:12:48Z</time>
      </trkpt>
      <trkpt lat="50.77357" lon="3.73306">
        <ele>93</ele>
        <time>2015-12-13T09:12:50Z</time>
      </trkpt>
      <trkpt lat="50.77359" lon="3.73304">
        <ele>93</ele>
        <time>2015-12-13T09:12:52Z</time>
      </trkpt>
      <trkpt lat="50.77359" lon="3.73308">
        <ele>93</ele>
        <time>2015-12-13T09:14:53Z</time>
      </trkpt>
      <trkpt lat="50.77361" lon="3.7331">
        <ele>93</ele>
        <time>2015-12-13T09:14:56Z</time>
      </trkpt>
      <trkpt lat="50.77363" lon="3.73309">
        <ele>93</ele>
        <time>2015-12-13T09:14:58Z</time>
      </trkpt>
      <trkpt lat="50.77365" lon="3.73309">
        <ele>93</ele>
        <time>2015-12-13T09:15:00Z</time>
      </trkpt>
      <trkpt lat="50.77368" lon="3.73308">
        <ele>93</ele>
        <time>2015-12-13T09:15:02Z</time>
      </trkpt>
      <trkpt lat="50.7737" lon="3.73306">
        <ele>93</ele>
        <time>2015-12-13T09:15:04Z</time>
      </trkpt>
      <trkpt lat="50.77372" lon="3.73304">
        <ele>93</ele>
        <time>2015-12-13T09:15:06Z</time>
      </trkpt>
      <trkpt lat="50.77374" lon="3.73303">
        <ele>93</ele>
        <time>2015-12-13T09:15:08Z</time>
      </trkpt>
      <trkpt lat="50.77376" lon="3.733">
        <ele>93</ele>
        <time>2015-12-13T09:15:10Z</time>
      </trkpt>
      <trkpt lat="50.77378" lon="3.73297">
        <ele>93</ele>
        <time>2015-12-13T09:15:12Z</time>
      </trkpt>
      <trkpt lat="50.77379" lon="3.73293">
        <ele>93</ele>
        <time>2015-12-13T09:15:14Z</time>
      </trkpt>
      <trkpt lat="50.77381" lon="3.7329">
        <ele>93</ele>
        <time>2015-12-13T09:15:16Z</time>
      </trkpt>
      <trkpt lat="50.77382" lon="3.73286">
        <ele>93</ele>
        <time>2015-12-13T09:15:18Z</time>
      </trkpt>
      <trkpt lat="50.77384" lon="3.73283">
        <ele>93</ele>
        <time>2015-12-13T09:15:20Z</time>
      </trkpt>
      <trkpt lat="50.77385" lon="3.7328">
        <ele>93</ele>
        <time>2015-12-13T09:15:21Z</time>
      </trkpt>
      <trkpt lat="50.77386" lon="3.73277">
        <ele>93</ele>
        <time>2015-12-13T09:15:22Z</time>
      </trkpt>
      <trkpt lat="50.77387" lon="3.73273">
        <ele>93</ele>
        <time>2015-12-13T09:15:23Z</time>
      </trkpt>
      <trkpt lat="50.77388" lon="3.73269">
        <ele>93</ele>
        <time>2015-12-13T09:15:24Z</time>
      </trkpt>
      <trkpt lat="50.77389" lon="3.73265">
        <ele>93</ele>
        <time>2015-12-13T09:15:25Z</time>
      </trkpt>
      <trkpt lat="50.7739" lon="3.73261">
        <ele>93</ele>
        <time>2015-12-13T09:15:26Z</time>
      </trkpt>
      <trkpt lat="50.77391" lon="3.73257">
        <ele>93</ele>
        <time>2015-12-13T09:15:27Z</time>
      </trkpt>
      <trkpt lat="50.77392" lon="3.73254">
        <ele>93</ele>
        <time>2015-12-13T09:15:28Z</time>
      </trkpt>
      <trkpt lat="50.77393" lon="3.7325">
        <ele>93</ele>
        <time>2015-12-13T09:15:29Z</time>
      </trkpt>
      <trkpt lat="50.77394" lon="3.73246">
        <ele>93</ele>
        <time>2015-12-13T09:15:30Z</time>
      </trkpt>
      <trkpt lat="50.77395" lon="3.73242">
        <ele>93</ele>
        <time>2015-12-13T09:15:31Z</time>
      </trkpt>
      <trkpt lat="50.77396" lon="3.73238">
        <ele>93</ele>
        <time>2015-12-13T09:15:32Z</time>
      </trkpt>
      <trkpt lat="50.77397" lon="3.73235">
        <ele>93</ele>
        <time>2015-12-13T09:15:33Z</time>
      </trkpt>
      <trkpt lat="50.77399" lon="3.73231">
        <ele>93</ele>
        <time>2015-12-13T09:15:34Z</time>
      </trkpt>
      <trkpt lat="50.774" lon="3.73228">
        <ele>93</ele>
        <time>2015-12-13T09:15:35Z</time>
      </trkpt>
      <trkpt lat="50.77401" lon="3.73224">
        <ele>93</ele>
        <time>2015-12-13T09:15:36Z</time>
      </trkpt>
      <trkpt lat="50.77402" lon="3.7322">
        <ele>93</ele>
        <time>2015-12-13T09:15:37Z</time>
      </trkpt>
      <trkpt lat="50.77403" lon="3.73217">
        <ele>93</ele>
        <time>2015-12-13T09:15:38Z</time>
      </trkpt>
      <trkpt lat="50.77405" lon="3.73213">
        <ele>93</ele>
        <time>2015-12-13T09:15:39Z</time>
      </trkpt>
      <trkpt lat="50.77406" lon="3.7321">
        <ele>93</ele>
        <time>2015-12-13T09:15:40Z</time>
      </trkpt>
      <trkpt lat="50.77407" lon="3.73206">
        <ele>93</ele>
        <time>2015-12-13T09:15:41Z</time>
      </trkpt>
      <trkpt lat="50.77408" lon="3.73203">
        <ele>93</ele>
        <time>2015-12-13T09:15:42Z</time>
      </trkpt>
      <trkpt lat="50.7741" lon="3.732">
        <ele>93</ele>
        <time>2015-12-13T09:15:43Z</time>
      </trkpt>
      <trkpt lat="50.77411" lon="3.73196">
        <ele>93</ele>
        <time>2015-12-13T09:15:44Z</time>
      </trkpt>
      <trkpt lat="50.77412" lon="3.73193">
        <ele>93</ele>
        <time>2015-12-13T09:15:45Z</time>
      </trkpt>
      <trkpt lat="50.77413" lon="3.73189">
        <ele>93</ele>
        <time>2015-12-13T09:15:46Z</time>
      </trkpt>
      <trkpt lat="50.77415" lon="3.73185">
        <ele>93</ele>
        <time>2015-12-13T09:15:47Z</time>
      </trkpt>
      <trkpt lat="50.77416" lon="3.73182">
        <ele>93</ele>
        <time>2015-12-13T09:15:48Z</time>
      </trkpt>
      <trkpt lat="50.77417" lon="3.73178">
        <ele>93</ele>
        <time>2015-12-13T09:15:49Z</time>
      </trkpt>
      <trkpt lat="50.77418" lon="3.73175">
        <ele>93</ele>
        <time>2015-12-13T09:15:50Z</time>
      </trkpt>
      <trkpt lat="50.7742" lon="3.73171">
        <ele>93</ele>
        <time>2015-12-13T09:15:51Z</time>
      </trkpt>
      <trkpt lat="50.77421" lon="3.73167">
        <ele>93</ele>
        <time>2015-12-13T09:15:52Z</time>
      </trkpt>
      <trkpt lat="50.77423" lon="3.73164">
        <ele>93</ele>
        <time>2015-12-13T09:15:53Z</time>
      </trkpt>
      <trkpt lat="50.77424" lon="3.73161">
        <ele>93</ele>
        <time>2015-12-13T09:15:54Z</time>
      </trkpt>
      <trkpt lat="50.77426" lon="3.73158">
        <ele>93</ele>
        <time>2015-12-13T09:15:55Z</time>
      </trkpt>
      <trkpt lat="50.77428" lon="3.73155">
        <ele>93</ele>
        <time>2015-12-13T09:15:56Z</time>
      </trkpt>
      <trkpt lat="50.77429" lon="3.73152">
        <ele>93</ele>
        <time>2015-12-13T09:15:57Z</time>
      </trkpt>
      <trkpt lat="50.77431" lon="3.73148">
        <ele>93</ele>
        <time>2015-12-13T09:15:58Z</time>
      </trkpt>
      <trkpt lat="50.77433" lon="3.73145">
        <ele>93</ele>
        <time>2015-12-13T09:15:59Z</time>
      </trkpt>
      <trkpt lat="50.77435" lon="3.73142">
        <ele>93</ele>
        <time>2015-12-13T09:16:00Z</time>
      </trkpt>
      <trkpt lat="50.77437" lon="3.73139">
        <ele>93</ele>
        <time>2015-12-13T09:16:01Z</time>
      </trkpt>
      <trkpt lat="50.77438" lon="3.73136">
        <ele>93</ele>
        <time>2015-12-13T09:16:02Z</time>
      </trkpt>
      <trkpt lat="50.7744" lon="3.73134">
        <ele>93</ele>
        <time>2015-12-13T09:16:03Z</time>
      </trkpt>
      <trkpt lat="50.77442" lon="3.73131">
        <ele>93</ele>
        <time>2015-12-13T09:16:04Z</time>
      </trkpt>
      <trkpt lat="50.77444" lon="3.73128">
        <ele>93</ele>
        <time>2015-12-13T09:16:05Z</time>
      </trkpt>
      <trkpt lat="50.77446" lon="3.73126">
        <ele>93</ele>
        <time>2015-12-13T09:16:06Z</time>
      </trkpt>
      <trkpt lat="50.77447" lon="3.73123">
        <ele>93</ele>
        <time>2015-12-13T09:16:07Z</time>
      </trkpt>
      <trkpt lat="50.77449" lon="3.73121">
        <ele>93</ele>
        <time>2015-12-13T09:16:08Z</time>
      </trkpt>
      <trkpt lat="50.77451" lon="3.73118">
        <ele>93</ele>
        <time>2015-12-13T09:16:09Z</time>
      </trkpt>
      <trkpt lat="50.77453" lon="3.73116">
        <ele>93</ele>
        <time>2015-12-13T09:16:10Z</time>
      </trkpt>
      <trkpt lat="50.77455" lon="3.73113">
        <ele>93</ele>
        <time>2015-12-13T09:16:11Z</time>
      </trkpt>
      <trkpt lat="50.77456" lon="3.7311">
        <ele>93</ele>
        <time>2015-12-13T09:16:12Z</time>
      </trkpt>
      <trkpt lat="50.77458" lon="3.73108">
        <ele>93</ele>
        <time>2015-12-13T09:16:13Z</time>
      </trkpt>
      <trkpt lat="50.7746" lon="3.73105">
        <ele>93</ele>
        <time>2015-12-13T09:16:14Z</time>
      </trkpt>
      <trkpt lat="50.77461" lon="3.73102">
        <ele>93</ele>
        <time>2015-12-13T09:16:15Z</time>
      </trkpt>
      <trkpt lat="50.77463" lon="3.73099">
        <ele>93</ele>
        <time>2015-12-13T09:16:16Z</time>
      </trkpt>
      <trkpt lat="50.77464" lon="3.73095">
        <ele>93</ele>
        <time>2015-12-13T09:16:17Z</time>
      </trkpt>
      <trkpt lat="50.77466" lon="3.73092">
        <ele>93</ele>
        <time>2015-12-13T09:16:18Z</time>
      </trkpt>
      <trkpt lat="50.77468" lon="3.73089">
        <ele>93</ele>
        <time>2015-12-13T09:16:19Z</time>
      </trkpt>
      <trkpt lat="50.77469" lon="3.73086">
        <ele>93</ele>
        <time>2015-12-13T09:16:20Z</time>
      </trkpt>
      <trkpt lat="50.77471" lon="3.73082">
        <ele>93</ele>
        <time>2015-12-13T09:16:21Z</time>
      </trkpt>
      <trkpt lat="50.77473" lon="3.73079">
        <ele>93</ele>
        <time>2015-12-13T09:16:22Z</time>
      </trkpt>
      <trkpt lat="50.77474" lon="3.73076">
        <ele>93</ele>
        <time>2015-12-13T09:16:23Z</time>
      </trkpt>
      <trkpt lat="50.77476" lon="3.73073">
        <ele>93</ele>
        <time>2015-12-13T09:16:24Z</time>
      </trkpt>
      <trkpt lat="50.77477" lon="3.73069">
        <ele>93</ele>
        <time>2015-12-13T09:16:25Z</time>
      </trkpt>
      <trkpt lat="50.77479" lon="3.73066">
        <ele>93</ele>
        <time>2015-12-13T09:16:26Z</time>
      </trkpt>
      <trkpt lat="50.77481" lon="3.73063">
        <ele>93</ele>
        <time>2015-12-13T09:16:27Z</time>
      </trkpt>
      <trkpt lat="50.77482" lon="3.7306">
        <ele>93</ele>
        <time>2015-12-13T09:16:28Z</time>
      </trkpt>
      <trkpt lat="50.77484" lon="3.73057">
        <ele>93</ele>
        <time>2015-12-13T09:16:29Z</time>
      </trkpt>
      <trkpt lat="50.77485" lon="3.73053">
        <ele>93</ele>
        <time>2015-12-13T09:16:30Z</time>
      </trkpt>
      <trkpt lat="50.77487" lon="3.7305">
        <ele>93</ele>
        <time>2015-12-13T09:16:31Z</time>
      </trkpt>
      <trkpt lat="50.77489" lon="3.73047">
        <ele>93</ele>
        <time>2015-12-13T09:16:32Z</time>
      </trkpt>
      <trkpt lat="50.77491" lon="3.73045">
        <ele>93</ele>
        <time>2015-12-13T09:16:33Z</time>
      </trkpt>
      <trkpt lat="50.77493" lon="3.73044">
        <ele>93</ele>
        <time>2015-12-13T09:16:34Z</time>
      </trkpt>
      <trkpt lat="50.77495" lon="3.73044">
        <ele>93</ele>
        <time>2015-12-13T09:16:35Z</time>
      </trkpt>
      <trkpt lat="50.77498" lon="3.73045">
        <ele>93</ele>
        <time>2015-12-13T09:16:36Z</time>
      </trkpt>
      <trkpt lat="50.775" lon="3.73045">
        <ele>93</ele>
        <time>2015-12-13T09:16:37Z</time>
      </trkpt>
      <trkpt lat="50.77502" lon="3.73047">
        <ele>93</ele>
        <time>2015-12-13T09:16:38Z</time>
      </trkpt>
      <trkpt lat="50.77504" lon="3.73049">
        <ele>93</ele>
        <time>2015-12-13T09:16:39Z</time>
      </trkpt>
      <trkpt lat="50.77507" lon="3.73051">
        <ele>93</ele>
        <time>2015-12-13T09:16:40Z</time>
      </trkpt>
      <trkpt lat="50.77509" lon="3.73054">
        <ele>93</ele>
        <time>2015-12-13T09:16:41Z</time>
      </trkpt>
      <trkpt lat="50.77511" lon="3.73056">
        <ele>93</ele>
        <time>2015-12-13T09:16:42Z</time>
      </trkpt>
      <trkpt lat="50.77514" lon="3.73058">
        <ele>93</ele>
        <time>2015-12-13T09:16:43Z</time>
      </trkpt>
      <trkpt lat="50.77516" lon="3.7306">
        <ele>93</ele>
        <time>2015-12-13T09:16:44Z</time>
      </trkpt>
      <trkpt lat="50.77518" lon="3.73062">
        <ele>93</ele>
        <time>2015-12-13T09:16:45Z</time>
      </trkpt>
      <trkpt lat="50.7752" lon="3.73064">
        <ele>93</ele>
        <time>2015-12-13T09:16:46Z</time>
      </trkpt>
      <trkpt lat="50.77522" lon="3.73065">
        <ele>93</ele>
        <time>2015-12-13T09:16:47Z</time>
      </trkpt>
      <trkpt lat="50.77524" lon="3.73065">
        <ele>93</ele>
        <time>2015-12-13T09:16:48Z</time>
      </trkpt>
      <trkpt lat="50.77527" lon="3.73065">
        <ele>93</ele>
        <time>2015-12-13T09:16:49Z</time>
      </trkpt>
      <trkpt lat="50.77529" lon="3.73064">
        <ele>93</ele>
        <time>2015-12-13T09:16:50Z</time>
      </trkpt>
      <trkpt lat="50.7753" lon="3.73062">
        <ele>92.3</ele>
        <time>2015-12-13T09:16:51Z</time>
      </trkpt>
      <trkpt lat="50.77532" lon="3.7306">
        <ele>92</ele>
        <time>2015-12-13T09:16:52Z</time>
      </trkpt>
      <trkpt lat="50.77533" lon="3.73057">
        <ele>92</ele>
        <time>2015-12-13T09:16:53Z</time>
      </trkpt>
      <trkpt lat="50.77535" lon="3.73055">
        <ele>92</ele>
        <time>2015-12-13T09:16:54Z</time>
      </trkpt>
      <trkpt lat="50.77536" lon="3.73053">
        <ele>92</ele>
        <time>2015-12-13T09:16:55Z</time>
      </trkpt>
      <trkpt lat="50.77537" lon="3.7305">
        <ele>92</ele>
        <time>2015-12-13T09:16:56Z</time>
      </trkpt>
      <trkpt lat="50.77538" lon="3.73048">
        <ele>92</ele>
        <time>2015-12-13T09:16:57Z</time>
      </trkpt>
      <trkpt lat="50.7754" lon="3.73045">
        <ele>92</ele>
        <time>2015-12-13T09:16:58Z</time>
      </trkpt>
      <trkpt lat="50.77541" lon="3.73042">
        <ele>92</ele>
        <time>2015-12-13T09:16:59Z</time>
      </trkpt>
      <trkpt lat="50.77542" lon="3.73039">
        <ele>92</ele>
        <time>2015-12-13T09:17:00Z</time>
      </trkpt>
      <trkpt lat="50.77544" lon="3.73036">
        <ele>92.5</ele>
        <time>2015-12-13T09:17:01Z</time>
      </trkpt>
      <trkpt lat="50.77545" lon="3.73033">
        <ele>93</ele>
        <time>2015-12-13T09:17:02Z</time>
      </trkpt>
      <trkpt lat="50.77546" lon="3.7303">
        <ele>93</ele>
        <time>2015-12-13T09:17:03Z</time>
      </trkpt>
      <trkpt lat="50.77547" lon="3.73026">
        <ele>93</ele>
        <time>2015-12-13T09:17:04Z</time>
      </trkpt>
      <trkpt lat="50.77548" lon="3.73023">
        <ele>93</ele>
        <time>2015-12-13T09:17:05Z</time>
      </trkpt>
      <trkpt lat="50.7755" lon="3.7302">
        <ele>93</ele>
        <time>2015-12-13T09:17:06Z</time>
      </trkpt>
      <trkpt lat="50.77551" lon="3.73016">
        <ele>93</ele>
        <time>2015-12-13T09:17:07Z</time>
      </trkpt>
      <trkpt lat="50.77552" lon="3.73013">
        <ele>93</ele>
        <time>2015-12-13T09:17:08Z</time>
      </trkpt>
      <trkpt lat="50.77553" lon="3.7301">
        <ele>93</ele>
        <time>2015-12-13T09:17:09Z</time>
      </trkpt>
      <trkpt lat="50.77555" lon="3.73006">
        <ele>93</ele>
        <time>2015-12-13T09:17:10Z</time>
      </trkpt>
      <trkpt lat="50.77556" lon="3.73003">
        <ele>93</ele>
        <time>2015-12-13T09:17:11Z</time>
      </trkpt>
      <trkpt lat="50.77557" lon="3.73">
        <ele>93</ele>
        <time>2015-12-13T09:17:12Z</time>
      </trkpt>
      <trkpt lat="50.77559" lon="3.72996">
        <ele>93</ele>
        <time>2015-12-13T09:17:13Z</time>
      </trkpt>
      <trkpt lat="50.7756" lon="3.72993">
        <ele>93</ele>
        <time>2015-12-13T09:17:14Z</time>
      </trkpt>
      <trkpt lat="50.77561" lon="3.72989">
        <ele>93</ele>
        <time>2015-12-13T09:17:15Z</time>
      </trkpt>
      <trkpt lat="50.77563" lon="3.72986">
        <ele>93</ele>
        <time>2015-12-13T09:17:16Z</time>
      </trkpt>
      <trkpt lat="50.77564" lon="3.72982">
        <ele>93</ele>
        <time>2015-12-13T09:17:17Z</time>
      </trkpt>
      <trkpt lat="50.77565" lon="3.72979">
        <ele>93</ele>
        <time>2015-12-13T09:17:18Z</time>
      </trkpt>
      <trkpt lat="50.77567" lon="3.72975">
        <ele>93</ele>
        <time>2015-12-13T09:17:19Z</time>
      </trkpt>
      <trkpt lat="50.77568" lon="3.72972">
        <ele>93</ele>
        <time>2015-12-13T09:17:20Z</time>
      </trkpt>
      <trkpt lat="50.7757" lon="3.72969">
        <ele>93</ele>
        <time>2015-12-13T09:17:21Z</time>
      </trkpt>
      <trkpt lat="50.77571" lon="3.72966">
        <ele>93</ele>
        <time>2015-12-13T09:17:22Z</time>
      </trkpt>
      <trkpt lat="50.77573" lon="3.72963">
        <ele>93</ele>
        <time>2015-12-13T09:17:23Z</time>
      </trkpt>
      <trkpt lat="50.77574" lon="3.7296">
        <ele>93</ele>
        <time>2015-12-13T09:17:24Z</time>
      </trkpt>
      <trkpt lat="50.77576" lon="3.72957">
        <ele>93</ele>
        <time>2015-12-13T09:17:25Z</time>
      </trkpt>
      <trkpt lat="50.77577" lon="3.72954">
        <ele>93</ele>
        <time>2015-12-13T09:17:26Z</time>
      </trkpt>
      <trkpt lat="50.77579" lon="3.72951">
        <ele>93</ele>
        <time>2015-12-13T09:17:27Z</time>
      </trkpt>
      <trkpt lat="50.7758" lon="3.72947">
        <ele>93</ele>
        <time>2015-12-13T09:17:28Z</time>
      </trkpt>
      <trkpt lat="50.77582" lon="3.72944">
        <ele>93</ele>
        <time>2015-12-13T09:17:29Z</time>
      </trkpt>
      <trkpt lat="50.77584" lon="3.72941">
        <ele>93</ele>
        <time>2015-12-13T09:17:30Z</time>
      </trkpt>
      <trkpt lat="50.77585" lon="3.72938">
        <ele>93</ele>
        <time>2015-12-13T09:17:31Z</time>
      </trkpt>
      <trkpt lat="50.77587" lon="3.72934">
        <ele>93</ele>
        <time>2015-12-13T09:17:32Z</time>
      </trkpt>
      <trkpt lat="50.77588" lon="3.72931">
        <ele>93</ele>
        <time>2015-12-13T09:17:33Z</time>
      </trkpt>
      <trkpt lat="50.77589" lon="3.72928">
        <ele>93</ele>
        <time>2015-12-13T09:17:34Z</time>
      </trkpt>
      <trkpt lat="50.77591" lon="3.72925">
        <ele>93</ele>
        <time>2015-12-13T09:17:35Z</time>
      </trkpt>
      <trkpt lat="50.77593" lon="3.72922">
        <ele>93</ele>
        <time>2015-12-13T09:17:36Z</time>
      </trkpt>
      <trkpt lat="50.77594" lon="3.72919">
        <ele>93</ele>
        <time>2015-12-13T09:17:37Z</time>
      </trkpt>
      <trkpt lat="50.77596" lon="3.72915">
        <ele>93</ele>
        <time>2015-12-13T09:17:38Z</time>
      </trkpt>
      <trkpt lat="50.77597" lon="3.72912">
        <ele>93</ele>
        <time>2015-12-13T09:17:39Z</time>
      </trkpt>
      <trkpt lat="50.77598" lon="3.72909">
        <ele>93</ele>
        <time>2015-12-13T09:17:40Z</time>
      </trkpt>
      <trkpt lat="50.776" lon="3.72906">
        <ele>91.6</ele>
        <time>2015-12-13T09:17:41Z</time>
      </trkpt>
      <trkpt lat="50.77601" lon="3.72902">
        <ele>91</ele>
        <time>2015-12-13T09:17:42Z</time>
      </trkpt>
      <trkpt lat="50.77603" lon="3.72899">
        <ele>91</ele>
        <time>2015-12-13T09:17:43Z</time>
      </trkpt>
      <trkpt lat="50.77604" lon="3.72896">
        <ele>91</ele>
        <time>2015-12-13T09:17:44Z</time>
      </trkpt>
      <trkpt lat="50.77606" lon="3.72892">
        <ele>91</ele>
        <time>2015-12-13T09:17:45Z</time>
      </trkpt>
      <trkpt lat="50.77607" lon="3.72889">
        <ele>91</ele>
        <time>2015-12-13T09:17:46Z</time>
      </trkpt>
      <trkpt lat="50.77608" lon="3.72885">
        <ele>91</ele>
        <time>2015-12-13T09:17:47Z</time>
      </trkpt>
      <trkpt lat="50.7761" lon="3.72882">
        <ele>91</ele>
        <time>2015-12-13T09:17:48Z</time>
      </trkpt>
      <trkpt lat="50.77611" lon="3.72879">
        <ele>91</ele>
        <time>2015-12-13T09:17:49Z</time>
      </trkpt>
      <trkpt lat="50.77613" lon="3.72876">
        <ele>91</ele>
        <time>2015-12-13T09:17:50Z</time>
      </trkpt>
      <trkpt lat="50.77615" lon="3.72873">
        <ele>89.6</ele>
        <time>2015-12-13T09:17:51Z</time>
      </trkpt>
      <trkpt lat="50.77616" lon="3.7287">
        <ele>89</ele>
        <time>2015-12-13T09:17:52Z</time>
      </trkpt>
      <trkpt lat="50.77618" lon="3.72866">
        <ele>89</ele>
        <time>2015-12-13T09:17:53Z</time>
      </trkpt>
      <trkpt lat="50.7762" lon="3.72864">
        <ele>89</ele>
        <time>2015-12-13T09:17:54Z</time>
      </trkpt>
      <trkpt lat="50.77621" lon="3.72861">
        <ele>89</ele>
        <time>2015-12-13T09:17:55Z</time>
      </trkpt>
      <trkpt lat="50.77623" lon="3.72858">
        <ele>89</ele>
        <time>2015-12-13T09:17:56Z</time>
      </trkpt>
      <trkpt lat="50.77624" lon="3.72855">
        <ele>89</ele>
        <time>2015-12-13T09:17:57Z</time>
      </trkpt>
      <trkpt lat="50.77625" lon="3.72852">
        <ele>89</ele>
        <time>2015-12-13T09:17:59Z</time>
      </trkpt>
      <trkpt lat="50.77627" lon="3.72847">
        <ele>89</ele>
        <time>2015-12-13T09:18:09Z</time>
      </trkpt>
      <trkpt lat="50.77627" lon="3.72843">
        <ele>89</ele>
        <time>2015-12-13T09:18:18Z</time>
      </trkpt>
      <trkpt lat="50.77629" lon="3.7284">
        <ele>89</ele>
        <time>2015-12-13T09:18:20Z</time>
      </trkpt>
      <trkpt lat="50.7763" lon="3.72837">
        <ele>89</ele>
        <time>2015-12-13T09:18:22Z</time>
      </trkpt>
      <trkpt lat="50.77631" lon="3.72834">
        <ele>89</ele>
        <time>2015-12-13T09:18:24Z</time>
      </trkpt>
      <trkpt lat="50.77632" lon="3.72831">
        <ele>89</ele>
        <time>2015-12-13T09:18:26Z</time>
      </trkpt>
      <trkpt lat="50.77633" lon="3.72826">
        <ele>89</ele>
        <time>2015-12-13T09:18:28Z</time>
      </trkpt>
      <trkpt lat="50.77634" lon="3.72823">
        <ele>89</ele>
        <time>2015-12-13T09:18:29Z</time>
      </trkpt>
      <trkpt lat="50.77634" lon="3.7282">
        <ele>89</ele>
        <time>2015-12-13T09:18:30Z</time>
      </trkpt>
      <trkpt lat="50.77634" lon="3.72816">
        <ele>88.3</ele>
        <time>2015-12-13T09:18:31Z</time>
      </trkpt>
      <trkpt lat="50.77634" lon="3.72813">
        <ele>88</ele>
        <time>2015-12-13T09:18:32Z</time>
      </trkpt>
      <trkpt lat="50.77634" lon="3.7281">
        <ele>88</ele>
        <time>2015-12-13T09:18:33Z</time>
      </trkpt>
      <trkpt lat="50.77633" lon="3.72807">
        <ele>88</ele>
        <time>2015-12-13T09:18:34Z</time>
      </trkpt>
      <trkpt lat="50.77632" lon="3.72804">
        <ele>88</ele>
        <time>2015-12-13T09:18:35Z</time>
      </trkpt>
      <trkpt lat="50.7763" lon="3.72801">
        <ele>88</ele>
        <time>2015-12-13T09:18:36Z</time>
      </trkpt>
      <trkpt lat="50.77629" lon="3.72798">
        <ele>88</ele>
        <time>2015-12-13T09:18:37Z</time>
      </trkpt>
      <trkpt lat="50.77627" lon="3.72796">
        <ele>88</ele>
        <time>2015-12-13T09:18:38Z</time>
      </trkpt>
      <trkpt lat="50.77626" lon="3.72793">
        <ele>88</ele>
        <time>2015-12-13T09:18:39Z</time>
      </trkpt>
      <trkpt lat="50.77624" lon="3.7279">
        <ele>88</ele>
        <time>2015-12-13T09:18:40Z</time>
      </trkpt>
      <trkpt lat="50.77623" lon="3.72788">
        <ele>87.3</ele>
        <time>2015-12-13T09:18:41Z</time>
      </trkpt>
      <trkpt lat="50.77621" lon="3.72785">
        <ele>87</ele>
        <time>2015-12-13T09:18:42Z</time>
      </trkpt>
      <trkpt lat="50.7762" lon="3.72783">
        <ele>87</ele>
        <time>2015-12-13T09:18:43Z</time>
      </trkpt>
      <trkpt lat="50.7762" lon="3.7278">
        <ele>87</ele>
        <time>2015-12-13T09:18:44Z</time>
      </trkpt>
      <trkpt lat="50.77619" lon="3.72777">
        <ele>87</ele>
        <time>2015-12-13T09:18:45Z</time>
      </trkpt>
      <trkpt lat="50.77617" lon="3.72775">
        <ele>87</ele>
        <time>2015-12-13T09:18:46Z</time>
      </trkpt>
      <trkpt lat="50.77616" lon="3.72772">
        <ele>87</ele>
        <time>2015-12-13T09:18:47Z</time>
      </trkpt>
      <trkpt lat="50.77613" lon="3.72771">
        <ele>87</ele>
        <time>2015-12-13T09:18:48Z</time>
      </trkpt>
      <trkpt lat="50.77611" lon="3.72768">
        <ele>87</ele>
        <time>2015-12-13T09:18:49Z</time>
      </trkpt>
      <trkpt lat="50.7761" lon="3.72765">
        <ele>87</ele>
        <time>2015-12-13T09:18:50Z</time>
      </trkpt>
      <trkpt lat="50.77608" lon="3.72762">
        <ele>86.3</ele>
        <time>2015-12-13T09:18:51Z</time>
      </trkpt>
      <trkpt lat="50.77607" lon="3.72759">
        <ele>86</ele>
        <time>2015-12-13T09:18:52Z</time>
      </trkpt>
      <trkpt lat="50.77605" lon="3.72757">
        <ele>86</ele>
        <time>2015-12-13T09:18:53Z</time>
      </trkpt>
      <trkpt lat="50.77604" lon="3.72754">
        <ele>86</ele>
        <time>2015-12-13T09:18:54Z</time>
      </trkpt>
      <trkpt lat="50.77602" lon="3.72752">
        <ele>86</ele>
        <time>2015-12-13T09:18:55Z</time>
      </trkpt>
      <trkpt lat="50.77601" lon="3.72749">
        <ele>86</ele>
        <time>2015-12-13T09:18:56Z</time>
      </trkpt>
      <trkpt lat="50.776" lon="3.72746">
        <ele>86</ele>
        <time>2015-12-13T09:18:57Z</time>
      </trkpt>
      <trkpt lat="50.77598" lon="3.72743">
        <ele>86</ele>
        <time>2015-12-13T09:18:58Z</time>
      </trkpt>
      <trkpt lat="50.77596" lon="3.72741">
        <ele>86</ele>
        <time>2015-12-13T09:18:59Z</time>
      </trkpt>
      <trkpt lat="50.77595" lon="3.72738">
        <ele>86</ele>
        <time>2015-12-13T09:19:00Z</time>
      </trkpt>
      <trkpt lat="50.77593" lon="3.72735">
        <ele>84</ele>
        <time>2015-12-13T09:19:01Z</time>
      </trkpt>
      <trkpt lat="50.77592" lon="3.72732">
        <ele>83</ele>
        <time>2015-12-13T09:19:02Z</time>
      </trkpt>
      <trkpt lat="50.7759" lon="3.72729">
        <ele>83</ele>
        <time>2015-12-13T09:19:03Z</time>
      </trkpt>
      <trkpt lat="50.77589" lon="3.72725">
        <ele>83</ele>
        <time>2015-12-13T09:19:04Z</time>
      </trkpt>
      <trkpt lat="50.77588" lon="3.72722">
        <ele>83</ele>
        <time>2015-12-13T09:19:05Z</time>
      </trkpt>
      <trkpt lat="50.77586" lon="3.72718">
        <ele>83</ele>
        <time>2015-12-13T09:19:06Z</time>
      </trkpt>
      <trkpt lat="50.77585" lon="3.72714">
        <ele>83</ele>
        <time>2015-12-13T09:19:07Z</time>
      </trkpt>
      <trkpt lat="50.77585" lon="3.72711">
        <ele>83</ele>
        <time>2015-12-13T09:19:08Z</time>
      </trkpt>
      <trkpt lat="50.77584" lon="3.72707">
        <ele>83</ele>
        <time>2015-12-13T09:19:09Z</time>
      </trkpt>
      <trkpt lat="50.77583" lon="3.72703">
        <ele>83</ele>
        <time>2015-12-13T09:19:10Z</time>
      </trkpt>
      <trkpt lat="50.77582" lon="3.72699">
        <ele>83</ele>
        <time>2015-12-13T09:19:11Z</time>
      </trkpt>
      <trkpt lat="50.77582" lon="3.72696">
        <ele>83</ele>
        <time>2015-12-13T09:19:12Z</time>
      </trkpt>
      <trkpt lat="50.77582" lon="3.72692">
        <ele>83</ele>
        <time>2015-12-13T09:19:13Z</time>
      </trkpt>
      <trkpt lat="50.77581" lon="3.72687">
        <ele>83</ele>
        <time>2015-12-13T09:19:14Z</time>
      </trkpt>
      <trkpt lat="50.77581" lon="3.72683">
        <ele>83</ele>
        <time>2015-12-13T09:19:15Z</time>
      </trkpt>
      <trkpt lat="50.77581" lon="3.72679">
        <ele>83</ele>
        <time>2015-12-13T09:19:16Z</time>
      </trkpt>
      <trkpt lat="50.7758" lon="3.72675">
        <ele>83</ele>
        <time>2015-12-13T09:19:17Z</time>
      </trkpt>
      <trkpt lat="50.7758" lon="3.72671">
        <ele>83</ele>
        <time>2015-12-13T09:19:18Z</time>
      </trkpt>
      <trkpt lat="50.7758" lon="3.72667">
        <ele>83</ele>
        <time>2015-12-13T09:19:19Z</time>
      </trkpt>
      <trkpt lat="50.77579" lon="3.72663">
        <ele>83</ele>
        <time>2015-12-13T09:19:20Z</time>
      </trkpt>
      <trkpt lat="50.77578" lon="3.72658">
        <ele>81</ele>
        <time>2015-12-13T09:19:21Z</time>
      </trkpt>
      <trkpt lat="50.77578" lon="3.72655">
        <ele>80</ele>
        <time>2015-12-13T09:19:22Z</time>
      </trkpt>
      <trkpt lat="50.77577" lon="3.72651">
        <ele>80</ele>
        <time>2015-12-13T09:19:23Z</time>
      </trkpt>
      <trkpt lat="50.77577" lon="3.72648">
        <ele>80</ele>
        <time>2015-12-13T09:19:24Z</time>
      </trkpt>
      <trkpt lat="50.77577" lon="3.72644">
        <ele>80</ele>
        <time>2015-12-13T09:19:25Z</time>
      </trkpt>
      <trkpt lat="50.77576" lon="3.7264">
        <ele>79.3</ele>
        <time>2015-12-13T09:19:26Z</time>
      </trkpt>
      <trkpt lat="50.77576" lon="3.72637">
        <ele>79</ele>
        <time>2015-12-13T09:19:27Z</time>
      </trkpt>
      <trkpt lat="50.77576" lon="3.72634">
        <ele>79</ele>
        <time>2015-12-13T09:19:28Z</time>
      </trkpt>
      <trkpt lat="50.77577" lon="3.72631">
        <ele>79</ele>
        <time>2015-12-13T09:19:29Z</time>
      </trkpt>
      <trkpt lat="50.77577" lon="3.72627">
        <ele>79</ele>
        <time>2015-12-13T09:19:30Z</time>
      </trkpt>
      <trkpt lat="50.77577" lon="3.72624">
        <ele>77.6</ele>
        <time>2015-12-13T09:19:31Z</time>
      </trkpt>
      <trkpt lat="50.77577" lon="3.72621">
        <ele>77</ele>
        <time>2015-12-13T09:19:32Z</time>
      </trkpt>
      <trkpt lat="50.77577" lon="3.72618">
        <ele>77</ele>
        <time>2015-12-13T09:19:33Z</time>
      </trkpt>
      <trkpt lat="50.77577" lon="3.72614">
        <ele>77</ele>
        <time>2015-12-13T09:19:34Z</time>
      </trkpt>
      <trkpt lat="50.77577" lon="3.72609">
        <ele>77</ele>
        <time>2015-12-13T09:19:35Z</time>
      </trkpt>
      <trkpt lat="50.77577" lon="3.72606">
        <ele>76.3</ele>
        <time>2015-12-13T09:19:36Z</time>
      </trkpt>
      <trkpt lat="50.77577" lon="3.72603">
        <ele>76</ele>
        <time>2015-12-13T09:19:37Z</time>
      </trkpt>
      <trkpt lat="50.77577" lon="3.72599">
        <ele>76</ele>
        <time>2015-12-13T09:19:38Z</time>
      </trkpt>
      <trkpt lat="50.77577" lon="3.72595">
        <ele>76</ele>
        <time>2015-12-13T09:19:39Z</time>
      </trkpt>
      <trkpt lat="50.77576" lon="3.72591">
        <ele>76</ele>
        <time>2015-12-13T09:19:40Z</time>
      </trkpt>
      <trkpt lat="50.77576" lon="3.72587">
        <ele>74.6</ele>
        <time>2015-12-13T09:19:41Z</time>
      </trkpt>
      <trkpt lat="50.77576" lon="3.72582">
        <ele>74</ele>
        <time>2015-12-13T09:19:42Z</time>
      </trkpt>
      <trkpt lat="50.77576" lon="3.72578">
        <ele>74</ele>
        <time>2015-12-13T09:19:43Z</time>
      </trkpt>
      <trkpt lat="50.77575" lon="3.72575">
        <ele>74</ele>
        <time>2015-12-13T09:19:44Z</time>
      </trkpt>
      <trkpt lat="50.77575" lon="3.72571">
        <ele>74</ele>
        <time>2015-12-13T09:19:45Z</time>
      </trkpt>
      <trkpt lat="50.77575" lon="3.72566">
        <ele>72.6</ele>
        <time>2015-12-13T09:19:46Z</time>
      </trkpt>
      <trkpt lat="50.77575" lon="3.72562">
        <ele>72</ele>
        <time>2015-12-13T09:19:47Z</time>
      </trkpt>
      <trkpt lat="50.77575" lon="3.72557">
        <ele>72</ele>
        <time>2015-12-13T09:19:48Z</time>
      </trkpt>
      <trkpt lat="50.77575" lon="3.72554">
        <ele>72</ele>
        <time>2015-12-13T09:19:49Z</time>
      </trkpt>
      <trkpt lat="50.77575" lon="3.7255">
        <ele>72</ele>
        <time>2015-12-13T09:19:50Z</time>
      </trkpt>
      <trkpt lat="50.77575" lon="3.72546">
        <ele>71</ele>
        <time>2015-12-13T09:19:51Z</time>
      </trkpt>
      <trkpt lat="50.77574" lon="3.72542">
        <ele>70</ele>
        <time>2015-12-13T09:19:52Z</time>
      </trkpt>
      <trkpt lat="50.77574" lon="3.72538">
        <ele>70</ele>
        <time>2015-12-13T09:19:53Z</time>
      </trkpt>
      <trkpt lat="50.77575" lon="3.72534">
        <ele>70</ele>
        <time>2015-12-13T09:19:54Z</time>
      </trkpt>
      <trkpt lat="50.77575" lon="3.7253">
        <ele>70</ele>
        <time>2015-12-13T09:19:55Z</time>
      </trkpt>
      <trkpt lat="50.77577" lon="3.72526">
        <ele>69</ele>
        <time>2015-12-13T09:19:56Z</time>
      </trkpt>
      <trkpt lat="50.77578" lon="3.72522">
        <ele>68</ele>
        <time>2015-12-13T09:19:57Z</time>
      </trkpt>
      <trkpt lat="50.77581" lon="3.72519">
        <ele>68</ele>
        <time>2015-12-13T09:19:58Z</time>
      </trkpt>
      <trkpt lat="50.77583" lon="3.72516">
        <ele>68</ele>
        <time>2015-12-13T09:19:59Z</time>
      </trkpt>
      <trkpt lat="50.77585" lon="3.72513">
        <ele>68</ele>
        <time>2015-12-13T09:20:00Z</time>
      </trkpt>
      <trkpt lat="50.77587" lon="3.72511">
        <ele>66</ele>
        <time>2015-12-13T09:20:01Z</time>
      </trkpt>
      <trkpt lat="50.7759" lon="3.72507">
        <ele>65</ele>
        <time>2015-12-13T09:20:02Z</time>
      </trkpt>
      <trkpt lat="50.77592" lon="3.72504">
        <ele>65</ele>
        <time>2015-12-13T09:20:03Z</time>
      </trkpt>
      <trkpt lat="50.77593" lon="3.725">
        <ele>65</ele>
        <time>2015-12-13T09:20:04Z</time>
      </trkpt>
      <trkpt lat="50.77595" lon="3.72497">
        <ele>65</ele>
        <time>2015-12-13T09:20:05Z</time>
      </trkpt>
      <trkpt lat="50.77597" lon="3.72494">
        <ele>65</ele>
        <time>2015-12-13T09:20:06Z</time>
      </trkpt>
      <trkpt lat="50.77599" lon="3.72491">
        <ele>65</ele>
        <time>2015-12-13T09:20:07Z</time>
      </trkpt>
      <trkpt lat="50.77601" lon="3.72487">
        <ele>65</ele>
        <time>2015-12-13T09:20:08Z</time>
      </trkpt>
      <trkpt lat="50.77603" lon="3.72484">
        <ele>65</ele>
        <time>2015-12-13T09:20:09Z</time>
      </trkpt>
      <trkpt lat="50.77605" lon="3.7248">
        <ele>65</ele>
        <time>2015-12-13T09:20:10Z</time>
      </trkpt>
      <trkpt lat="50.77607" lon="3.72476">
        <ele>65</ele>
        <time>2015-12-13T09:20:11Z</time>
      </trkpt>
      <trkpt lat="50.77609" lon="3.72472">
        <ele>65</ele>
        <time>2015-12-13T09:20:12Z</time>
      </trkpt>
      <trkpt lat="50.77611" lon="3.72469">
        <ele>65</ele>
        <time>2015-12-13T09:20:13Z</time>
      </trkpt>
      <trkpt lat="50.77613" lon="3.72465">
        <ele>65</ele>
        <time>2015-12-13T09:20:14Z</time>
      </trkpt>
      <trkpt lat="50.77615" lon="3.72462">
        <ele>65</ele>
        <time>2015-12-13T09:20:15Z</time>
      </trkpt>
      <trkpt lat="50.77617" lon="3.72458">
        <ele>65</ele>
        <time>2015-12-13T09:20:16Z</time>
      </trkpt>
      <trkpt lat="50.77618" lon="3.72455">
        <ele>65</ele>
        <time>2015-12-13T09:20:17Z</time>
      </trkpt>
      <trkpt lat="50.77619" lon="3.72453">
        <ele>65</ele>
        <time>2015-12-13T09:20:18Z</time>
      </trkpt>
      <trkpt lat="50.7762" lon="3.7245">
        <ele>65</ele>
        <time>2015-12-13T09:20:19Z</time>
      </trkpt>
      <trkpt lat="50.77621" lon="3.72447">
        <ele>65</ele>
        <time>2015-12-13T09:20:20Z</time>
      </trkpt>
      <trkpt lat="50.77623" lon="3.72444">
        <ele>63.6</ele>
        <time>2015-12-13T09:20:21Z</time>
      </trkpt>
      <trkpt lat="50.77624" lon="3.72441">
        <ele>63</ele>
        <time>2015-12-13T09:20:22Z</time>
      </trkpt>
      <trkpt lat="50.77624" lon="3.72438">
        <ele>63</ele>
        <time>2015-12-13T09:20:23Z</time>
      </trkpt>
      <trkpt lat="50.77624" lon="3.72435">
        <ele>63</ele>
        <time>2015-12-13T09:20:24Z</time>
      </trkpt>
      <trkpt lat="50.77625" lon="3.7243">
        <ele>62.3</ele>
        <time>2015-12-13T09:20:26Z</time>
      </trkpt>
      <trkpt lat="50.77625" lon="3.72427">
        <ele>62</ele>
        <time>2015-12-13T09:20:27Z</time>
      </trkpt>
      <trkpt lat="50.77626" lon="3.72424">
        <ele>62</ele>
        <time>2015-12-13T09:20:28Z</time>
      </trkpt>
      <trkpt lat="50.77626" lon="3.72421">
        <ele>62</ele>
        <time>2015-12-13T09:20:29Z</time>
      </trkpt>
      <trkpt lat="50.77627" lon="3.72418">
        <ele>62</ele>
        <time>2015-12-13T09:20:30Z</time>
      </trkpt>
      <trkpt lat="50.77627" lon="3.72415">
        <ele>62</ele>
        <time>2015-12-13T09:20:31Z</time>
      </trkpt>
      <trkpt lat="50.77628" lon="3.72412">
        <ele>62</ele>
        <time>2015-12-13T09:20:32Z</time>
      </trkpt>
      <trkpt lat="50.77628" lon="3.72406">
        <ele>62</ele>
        <time>2015-12-13T09:20:34Z</time>
      </trkpt>
      <trkpt lat="50.77628" lon="3.72403">
        <ele>62</ele>
        <time>2015-12-13T09:20:35Z</time>
      </trkpt>
      <trkpt lat="50.77628" lon="3.724">
        <ele>62</ele>
        <time>2015-12-13T09:20:36Z</time>
      </trkpt>
      <trkpt lat="50.77627" lon="3.72397">
        <ele>62</ele>
        <time>2015-12-13T09:20:37Z</time>
      </trkpt>
      <trkpt lat="50.77627" lon="3.72394">
        <ele>62</ele>
        <time>2015-12-13T09:20:38Z</time>
      </trkpt>
      <trkpt lat="50.77626" lon="3.72391">
        <ele>62</ele>
        <time>2015-12-13T09:20:39Z</time>
      </trkpt>
      <trkpt lat="50.77626" lon="3.72388">
        <ele>62</ele>
        <time>2015-12-13T09:20:40Z</time>
      </trkpt>
      <trkpt lat="50.77626" lon="3.72385">
        <ele>62.7</ele>
        <time>2015-12-13T09:20:41Z</time>
      </trkpt>
      <trkpt lat="50.77625" lon="3.72381">
        <ele>63</ele>
        <time>2015-12-13T09:20:42Z</time>
      </trkpt>
      <trkpt lat="50.77624" lon="3.72379">
        <ele>63</ele>
        <time>2015-12-13T09:20:43Z</time>
      </trkpt>
      <trkpt lat="50.77623" lon="3.72375">
        <ele>63</ele>
        <time>2015-12-13T09:20:44Z</time>
      </trkpt>
      <trkpt lat="50.77623" lon="3.72372">
        <ele>63</ele>
        <time>2015-12-13T09:20:45Z</time>
      </trkpt>
      <trkpt lat="50.77622" lon="3.72367">
        <ele>63</ele>
        <time>2015-12-13T09:20:47Z</time>
      </trkpt>
      <trkpt lat="50.77622" lon="3.72363">
        <ele>63</ele>
        <time>2015-12-13T09:20:49Z</time>
      </trkpt>
      <trkpt lat="50.77621" lon="3.72358">
        <ele>63.7</ele>
        <time>2015-12-13T09:20:51Z</time>
      </trkpt>
      <trkpt lat="50.7762" lon="3.72354">
        <ele>64</ele>
        <time>2015-12-13T09:20:53Z</time>
      </trkpt>
      <trkpt lat="50.7762" lon="3.72349">
        <ele>64</ele>
        <time>2015-12-13T09:20:55Z</time>
      </trkpt>
      <trkpt lat="50.7762" lon="3.72346">
        <ele>64</ele>
        <time>2015-12-13T09:20:56Z</time>
      </trkpt>
      <trkpt lat="50.7762" lon="3.72341">
        <ele>64</ele>
        <time>2015-12-13T09:20:58Z</time>
      </trkpt>
      <trkpt lat="50.77621" lon="3.72336">
        <ele>64</ele>
        <time>2015-12-13T09:21:00Z</time>
      </trkpt>
      <trkpt lat="50.7762" lon="3.72333">
        <ele>67</ele>
        <time>2015-12-13T09:21:02Z</time>
      </trkpt>
      <trkpt lat="50.77618" lon="3.72329">
        <ele>67</ele>
        <time>2015-12-13T09:21:04Z</time>
      </trkpt>
      <trkpt lat="50.77617" lon="3.72326">
        <ele>67</ele>
        <time>2015-12-13T09:21:06Z</time>
      </trkpt>
      <trkpt lat="50.77616" lon="3.72323">
        <ele>67</ele>
        <time>2015-12-13T09:21:08Z</time>
      </trkpt>
      <trkpt lat="50.77615" lon="3.72319">
        <ele>67</ele>
        <time>2015-12-13T09:21:10Z</time>
      </trkpt>
      <trkpt lat="50.77613" lon="3.72315">
        <ele>68</ele>
        <time>2015-12-13T09:21:12Z</time>
      </trkpt>
      <trkpt lat="50.77612" lon="3.72311">
        <ele>68</ele>
        <time>2015-12-13T09:21:14Z</time>
      </trkpt>
      <trkpt lat="50.7761" lon="3.72306">
        <ele>68</ele>
        <time>2015-12-13T09:21:16Z</time>
      </trkpt>
      <trkpt lat="50.7761" lon="3.72301">
        <ele>68</ele>
        <time>2015-12-13T09:21:20Z</time>
      </trkpt>
      <trkpt lat="50.77609" lon="3.72295">
        <ele>69</ele>
        <time>2015-12-13T09:21:22Z</time>
      </trkpt>
      <trkpt lat="50.77609" lon="3.72292">
        <ele>69</ele>
        <time>2015-12-13T09:21:23Z</time>
      </trkpt>
      <trkpt lat="50.77609" lon="3.72288">
        <ele>69</ele>
        <time>2015-12-13T09:21:24Z</time>
      </trkpt>
      <trkpt lat="50.77608" lon="3.72285">
        <ele>69</ele>
        <time>2015-12-13T09:21:25Z</time>
      </trkpt>
      <trkpt lat="50.77608" lon="3.7228">
        <ele>69</ele>
        <time>2015-12-13T09:21:27Z</time>
      </trkpt>
      <trkpt lat="50.77609" lon="3.72275">
        <ele>69</ele>
        <time>2015-12-13T09:21:29Z</time>
      </trkpt>
      <trkpt lat="50.77609" lon="3.72273">
        <ele>69</ele>
        <time>2015-12-13T09:21:30Z</time>
      </trkpt>
      <trkpt lat="50.77609" lon="3.7227">
        <ele>69.7</ele>
        <time>2015-12-13T09:21:31Z</time>
      </trkpt>
      <trkpt lat="50.7761" lon="3.72265">
        <ele>70</ele>
        <time>2015-12-13T09:21:33Z</time>
      </trkpt>
      <trkpt lat="50.7761" lon="3.72262">
        <ele>70</ele>
        <time>2015-12-13T09:21:35Z</time>
      </trkpt>
      <trkpt lat="50.77609" lon="3.72258">
        <ele>70</ele>
        <time>2015-12-13T09:21:37Z</time>
      </trkpt>
      <trkpt lat="50.77607" lon="3.72256">
        <ele>70</ele>
        <time>2015-12-13T09:21:39Z</time>
      </trkpt>
      <trkpt lat="50.77605" lon="3.72254">
        <ele>71</ele>
        <time>2015-12-13T09:21:42Z</time>
      </trkpt>
      <trkpt lat="50.77603" lon="3.72254">
        <ele>71</ele>
        <time>2015-12-13T09:21:45Z</time>
      </trkpt>
      <trkpt lat="50.77601" lon="3.72256">
        <ele>71</ele>
        <time>2015-12-13T09:21:47Z</time>
      </trkpt>
      <trkpt lat="50.77597" lon="3.72252">
        <ele>71</ele>
        <time>2015-12-13T09:21:59Z</time>
      </trkpt>
      <trkpt lat="50.77594" lon="3.72253">
        <ele>72</ele>
        <time>2015-12-13T09:22:07Z</time>
      </trkpt>
      <trkpt lat="50.77593" lon="3.7225">
        <ele>72</ele>
        <time>2015-12-13T09:22:09Z</time>
      </trkpt>
      <trkpt lat="50.77592" lon="3.72246">
        <ele>71.3</ele>
        <time>2015-12-13T09:22:11Z</time>
      </trkpt>
      <trkpt lat="50.7759" lon="3.72244">
        <ele>71</ele>
        <time>2015-12-13T09:22:13Z</time>
      </trkpt>
      <trkpt lat="50.77588" lon="3.72246">
        <ele>71</ele>
        <time>2015-12-13T09:22:15Z</time>
      </trkpt>
      <trkpt lat="50.77587" lon="3.72248">
        <ele>71</ele>
        <time>2015-12-13T09:22:18Z</time>
      </trkpt>
      <trkpt lat="50.77587" lon="3.72241">
        <ele>69</ele>
        <time>2015-12-13T09:22:28Z</time>
      </trkpt>
      <trkpt lat="50.77588" lon="3.72243">
        <ele>69.7</ele>
        <time>2015-12-13T09:22:31Z</time>
      </trkpt>
      <trkpt lat="50.77589" lon="3.72247">
        <ele>70</ele>
        <time>2015-12-13T09:22:34Z</time>
      </trkpt>
      <trkpt lat="50.77588" lon="3.7225">
        <ele>70</ele>
        <time>2015-12-13T09:22:36Z</time>
      </trkpt>
      <trkpt lat="50.77587" lon="3.72251">
        <ele>70</ele>
        <time>2015-12-13T09:22:38Z</time>
      </trkpt>
      <trkpt lat="50.77584" lon="3.72253">
        <ele>70</ele>
        <time>2015-12-13T09:22:40Z</time>
      </trkpt>
      <trkpt lat="50.77582" lon="3.72254">
        <ele>68</ele>
        <time>2015-12-13T09:22:42Z</time>
      </trkpt>
      <trkpt lat="50.77579" lon="3.72254">
        <ele>68</ele>
        <time>2015-12-13T09:22:44Z</time>
      </trkpt>
      <trkpt lat="50.77578" lon="3.72255">
        <ele>68</ele>
        <time>2015-12-13T09:22:46Z</time>
      </trkpt>
      <trkpt lat="50.77575" lon="3.72257">
        <ele>68</ele>
        <time>2015-12-13T09:22:48Z</time>
      </trkpt>
      <trkpt lat="50.77573" lon="3.72258">
        <ele>68</ele>
        <time>2015-12-13T09:22:50Z</time>
      </trkpt>
      <trkpt lat="50.7757" lon="3.72257">
        <ele>67</ele>
        <time>2015-12-13T09:22:52Z</time>
      </trkpt>
      <trkpt lat="50.77568" lon="3.72256">
        <ele>67</ele>
        <time>2015-12-13T09:22:54Z</time>
      </trkpt>
      <trkpt lat="50.77566" lon="3.72254">
        <ele>67</ele>
        <time>2015-12-13T09:22:56Z</time>
      </trkpt>
      <trkpt lat="50.77565" lon="3.72251">
        <ele>67</ele>
        <time>2015-12-13T09:22:58Z</time>
      </trkpt>
      <trkpt lat="50.77564" lon="3.72248">
        <ele>67</ele>
        <time>2015-12-13T09:23:00Z</time>
      </trkpt>
      <trkpt lat="50.77563" lon="3.72245">
        <ele>68</ele>
        <time>2015-12-13T09:23:02Z</time>
      </trkpt>
      <trkpt lat="50.77562" lon="3.7224">
        <ele>68</ele>
        <time>2015-12-13T09:23:04Z</time>
      </trkpt>
      <trkpt lat="50.77556" lon="3.72242">
        <ele>68</ele>
        <time>2015-12-13T09:23:14Z</time>
      </trkpt>
      <trkpt lat="50.77554" lon="3.72243">
        <ele>68</ele>
        <time>2015-12-13T09:23:16Z</time>
      </trkpt>
      <trkpt lat="50.7755" lon="3.72242">
        <ele>66.9</ele>
        <time>2015-12-13T09:23:21Z</time>
      </trkpt>
      <trkpt lat="50.77548" lon="3.72239">
        <ele>66</ele>
        <time>2015-12-13T09:23:23Z</time>
      </trkpt>
      <trkpt lat="50.77549" lon="3.72237">
        <ele>66</ele>
        <time>2015-12-13T09:23:25Z</time>
      </trkpt>
      <trkpt lat="50.77551" lon="3.72233">
        <ele>65</ele>
        <time>2015-12-13T09:23:27Z</time>
      </trkpt>
      <trkpt lat="50.77549" lon="3.7223">
        <ele>64.3</ele>
        <time>2015-12-13T09:23:31Z</time>
      </trkpt>
      <trkpt lat="50.77544" lon="3.72226">
        <ele>65</ele>
        <time>2015-12-13T09:24:02Z</time>
      </trkpt>
      <trkpt lat="50.77543" lon="3.72223">
        <ele>65</ele>
        <time>2015-12-13T09:24:04Z</time>
      </trkpt>
      <trkpt lat="50.77543" lon="3.7222">
        <ele>65</ele>
        <time>2015-12-13T09:24:07Z</time>
      </trkpt>
      <trkpt lat="50.7754" lon="3.72218">
        <ele>65</ele>
        <time>2015-12-13T09:24:10Z</time>
      </trkpt>
      <trkpt lat="50.77538" lon="3.72218">
        <ele>65</ele>
        <time>2015-12-13T09:24:14Z</time>
      </trkpt>
      <trkpt lat="50.77536" lon="3.72216">
        <ele>65</ele>
        <time>2015-12-13T09:24:16Z</time>
      </trkpt>
      <trkpt lat="50.77534" lon="3.72213">
        <ele>65</ele>
        <time>2015-12-13T09:24:18Z</time>
      </trkpt>
      <trkpt lat="50.77533" lon="3.7221">
        <ele>65</ele>
        <time>2015-12-13T09:24:22Z</time>
      </trkpt>
      <trkpt lat="50.77531" lon="3.72208">
        <ele>65</ele>
        <time>2015-12-13T09:24:24Z</time>
      </trkpt>
      <trkpt lat="50.77529" lon="3.72208">
        <ele>65</ele>
        <time>2015-12-13T09:24:26Z</time>
      </trkpt>
      <trkpt lat="50.77526" lon="3.72209">
        <ele>65</ele>
        <time>2015-12-13T09:24:28Z</time>
      </trkpt>
      <trkpt lat="50.77524" lon="3.72206">
        <ele>65</ele>
        <time>2015-12-13T09:24:30Z</time>
      </trkpt>
      <trkpt lat="50.77523" lon="3.72203">
        <ele>65</ele>
        <time>2015-12-13T09:24:33Z</time>
      </trkpt>
      <trkpt lat="50.77522" lon="3.72199">
        <ele>65</ele>
        <time>2015-12-13T09:24:35Z</time>
      </trkpt>
      <trkpt lat="50.77523" lon="3.72195">
        <ele>65</ele>
        <time>2015-12-13T09:24:39Z</time>
      </trkpt>
      <trkpt lat="50.77522" lon="3.72192">
        <ele>65.7</ele>
        <time>2015-12-13T09:24:41Z</time>
      </trkpt>
      <trkpt lat="50.7752" lon="3.7219">
        <ele>66</ele>
        <time>2015-12-13T09:24:43Z</time>
      </trkpt>
      <trkpt lat="50.77518" lon="3.72188">
        <ele>66</ele>
        <time>2015-12-13T09:24:45Z</time>
      </trkpt>
      <trkpt lat="50.77517" lon="3.72184">
        <ele>66</ele>
        <time>2015-12-13T09:24:47Z</time>
      </trkpt>
      <trkpt lat="50.77516" lon="3.72187">
        <ele>66</ele>
        <time>2015-12-13T09:24:52Z</time>
      </trkpt>
      <trkpt lat="50.77517" lon="3.7219">
        <ele>66</ele>
        <time>2015-12-13T09:24:54Z</time>
      </trkpt>
      <trkpt lat="50.77514" lon="3.72189">
        <ele>66</ele>
        <time>2015-12-13T09:24:57Z</time>
      </trkpt>
      <trkpt lat="50.77513" lon="3.72185">
        <ele>66</ele>
        <time>2015-12-13T09:25:00Z</time>
      </trkpt>
      <trkpt lat="50.77514" lon="3.72181">
        <ele>66</ele>
        <time>2015-12-13T09:25:02Z</time>
      </trkpt>
      <trkpt lat="50.77515" lon="3.72179">
        <ele>66</ele>
        <time>2015-12-13T09:25:03Z</time>
      </trkpt>
      <trkpt lat="50.77515" lon="3.72175">
        <ele>66</ele>
        <time>2015-12-13T09:25:05Z</time>
      </trkpt>
      <trkpt lat="50.77516" lon="3.72172">
        <ele>66</ele>
        <time>2015-12-13T09:25:07Z</time>
      </trkpt>
      <trkpt lat="50.77517" lon="3.7217">
        <ele>66</ele>
        <time>2015-12-13T09:25:09Z</time>
      </trkpt>
      <trkpt lat="50.77517" lon="3.72166">
        <ele>66</ele>
        <time>2015-12-13T09:25:11Z</time>
      </trkpt>
      <trkpt lat="50.77515" lon="3.72164">
        <ele>66</ele>
        <time>2015-12-13T09:25:13Z</time>
      </trkpt>
      <trkpt lat="50.77513" lon="3.72162">
        <ele>66</ele>
        <time>2015-12-13T09:25:15Z</time>
      </trkpt>
      <trkpt lat="50.77511" lon="3.72161">
        <ele>66</ele>
        <time>2015-12-13T09:25:17Z</time>
      </trkpt>
      <trkpt lat="50.7751" lon="3.72161">
        <ele>66</ele>
        <time>2015-12-13T09:25:19Z</time>
      </trkpt>
      <trkpt lat="50.77504" lon="3.72156">
        <ele>66</ele>
        <time>2015-12-13T09:25:42Z</time>
      </trkpt>
      <trkpt lat="50.77503" lon="3.72154">
        <ele>66</ele>
        <time>2015-12-13T09:25:44Z</time>
      </trkpt>
      <trkpt lat="50.77503" lon="3.7215">
        <ele>66</ele>
        <time>2015-12-13T09:25:46Z</time>
      </trkpt>
      <trkpt lat="50.77504" lon="3.72146">
        <ele>66</ele>
        <time>2015-12-13T09:25:48Z</time>
      </trkpt>
      <trkpt lat="50.77505" lon="3.72143">
        <ele>66</ele>
        <time>2015-12-13T09:25:50Z</time>
      </trkpt>
      <trkpt lat="50.77504" lon="3.72139">
        <ele>67</ele>
        <time>2015-12-13T09:25:53Z</time>
      </trkpt>
      <trkpt lat="50.77504" lon="3.72135">
        <ele>67</ele>
        <time>2015-12-13T09:25:56Z</time>
      </trkpt>
      <trkpt lat="50.77504" lon="3.72131">
        <ele>67</ele>
        <time>2015-12-13T09:25:58Z</time>
      </trkpt>
      <trkpt lat="50.77502" lon="3.72129">
        <ele>67</ele>
        <time>2015-12-13T09:26:00Z</time>
      </trkpt>
      <trkpt lat="50.77499" lon="3.72121">
        <ele>67</ele>
        <time>2015-12-13T09:26:24Z</time>
      </trkpt>
      <trkpt lat="50.77497" lon="3.72119">
        <ele>67</ele>
        <time>2015-12-13T09:26:27Z</time>
      </trkpt>
      <trkpt lat="50.77495" lon="3.72116">
        <ele>67</ele>
        <time>2015-12-13T09:26:30Z</time>
      </trkpt>
      <trkpt lat="50.77493" lon="3.72113">
        <ele>67</ele>
        <time>2015-12-13T09:26:32Z</time>
      </trkpt>
      <trkpt lat="50.77492" lon="3.72107">
        <ele>67</ele>
        <time>2015-12-13T09:26:38Z</time>
      </trkpt>
      <trkpt lat="50.77491" lon="3.72102">
        <ele>67</ele>
        <time>2015-12-13T09:26:40Z</time>
      </trkpt>
      <trkpt lat="50.7749" lon="3.72099">
        <ele>68</ele>
        <time>2015-12-13T09:26:43Z</time>
      </trkpt>
      <trkpt lat="50.77489" lon="3.72098">
        <ele>68</ele>
        <time>2015-12-13T09:26:45Z</time>
      </trkpt>
      <trkpt lat="50.77487" lon="3.72097">
        <ele>68</ele>
        <time>2015-12-13T09:26:48Z</time>
      </trkpt>
      <trkpt lat="50.77486" lon="3.72093">
        <ele>68</ele>
        <time>2015-12-13T09:26:50Z</time>
      </trkpt>
      <trkpt lat="50.77484" lon="3.72091">
        <ele>68</ele>
        <time>2015-12-13T09:26:53Z</time>
      </trkpt>
      <trkpt lat="50.77482" lon="3.72088">
        <ele>68</ele>
        <time>2015-12-13T09:26:55Z</time>
      </trkpt>
      <trkpt lat="50.77481" lon="3.72086">
        <ele>68</ele>
        <time>2015-12-13T09:26:57Z</time>
      </trkpt>
      <trkpt lat="50.77479" lon="3.72085">
        <ele>68</ele>
        <time>2015-12-13T09:26:59Z</time>
      </trkpt>
      <trkpt lat="50.77477" lon="3.72084">
        <ele>68</ele>
        <time>2015-12-13T09:27:01Z</time>
      </trkpt>
      <trkpt lat="50.77476" lon="3.7208">
        <ele>68</ele>
        <time>2015-12-13T09:27:04Z</time>
      </trkpt>
      <trkpt lat="50.77476" lon="3.72077">
        <ele>68</ele>
        <time>2015-12-13T09:27:06Z</time>
      </trkpt>
      <trkpt lat="50.77475" lon="3.72073">
        <ele>69</ele>
        <time>2015-12-13T09:27:20Z</time>
      </trkpt>
      <trkpt lat="50.77476" lon="3.72071">
        <ele>69</ele>
        <time>2015-12-13T09:27:23Z</time>
      </trkpt>
      <trkpt lat="50.77478" lon="3.72073">
        <ele>69</ele>
        <time>2015-12-13T09:27:25Z</time>
      </trkpt>
      <trkpt lat="50.7748" lon="3.72075">
        <ele>69</ele>
        <time>2015-12-13T09:27:27Z</time>
      </trkpt>
      <trkpt lat="50.77482" lon="3.72076">
        <ele>69</ele>
        <time>2015-12-13T09:27:30Z</time>
      </trkpt>
      <trkpt lat="50.77479" lon="3.72076">
        <ele>70</ele>
        <time>2015-12-13T09:28:57Z</time>
      </trkpt>
      <trkpt lat="50.77477" lon="3.72073">
        <ele>70</ele>
        <time>2015-12-13T09:28:59Z</time>
      </trkpt>
      <trkpt lat="50.77477" lon="3.72069">
        <ele>69.3</ele>
        <time>2015-12-13T09:29:01Z</time>
      </trkpt>
      <trkpt lat="50.77475" lon="3.72065">
        <ele>69</ele>
        <time>2015-12-13T09:29:04Z</time>
      </trkpt>
      <trkpt lat="50.77474" lon="3.72061">
        <ele>69</ele>
        <time>2015-12-13T09:29:06Z</time>
      </trkpt>
      <trkpt lat="50.77472" lon="3.72058">
        <ele>69</ele>
        <time>2015-12-13T09:29:08Z</time>
      </trkpt>
      <trkpt lat="50.7747" lon="3.72048">
        <ele>70</ele>
        <time>2015-12-13T09:29:17Z</time>
      </trkpt>
      <trkpt lat="50.7747" lon="3.72045">
        <ele>70</ele>
        <time>2015-12-13T09:29:18Z</time>
      </trkpt>
      <trkpt lat="50.7747" lon="3.72042">
        <ele>70</ele>
        <time>2015-12-13T09:29:20Z</time>
      </trkpt>
      <trkpt lat="50.77468" lon="3.72033">
        <ele>69</ele>
        <time>2015-12-13T09:29:27Z</time>
      </trkpt>
      <trkpt lat="50.77467" lon="3.7203">
        <ele>69</ele>
        <time>2015-12-13T09:29:30Z</time>
      </trkpt>
      <trkpt lat="50.77467" lon="3.72022">
        <ele>69</ele>
        <time>2015-12-13T09:29:35Z</time>
      </trkpt>
      <trkpt lat="50.77468" lon="3.72018">
        <ele>69</ele>
        <time>2015-12-13T09:29:36Z</time>
      </trkpt>
      <trkpt lat="50.77468" lon="3.72014">
        <ele>69</ele>
        <time>2015-12-13T09:29:37Z</time>
      </trkpt>
      <trkpt lat="50.77468" lon="3.7201">
        <ele>69</ele>
        <time>2015-12-13T09:29:38Z</time>
      </trkpt>
      <trkpt lat="50.77468" lon="3.72006">
        <ele>69</ele>
        <time>2015-12-13T09:29:40Z</time>
      </trkpt>
      <trkpt lat="50.77467" lon="3.72001">
        <ele>69</ele>
        <time>2015-12-13T09:29:42Z</time>
      </trkpt>
      <trkpt lat="50.77468" lon="3.71996">
        <ele>69</ele>
        <time>2015-12-13T09:29:44Z</time>
      </trkpt>
      <trkpt lat="50.77468" lon="3.71993">
        <ele>69</ele>
        <time>2015-12-13T09:29:45Z</time>
      </trkpt>
      <trkpt lat="50.77469" lon="3.7199">
        <ele>69</ele>
        <time>2015-12-13T09:29:47Z</time>
      </trkpt>
      <trkpt lat="50.77472" lon="3.71987">
        <ele>71</ele>
        <time>2015-12-13T09:29:55Z</time>
      </trkpt>
      <trkpt lat="50.77475" lon="3.71986">
        <ele>71</ele>
        <time>2015-12-13T09:29:58Z</time>
      </trkpt>
      <trkpt lat="50.77476" lon="3.71983">
        <ele>71</ele>
        <time>2015-12-13T09:30:00Z</time>
      </trkpt>
      <trkpt lat="50.77478" lon="3.7198">
        <ele>72.4</ele>
        <time>2015-12-13T09:30:02Z</time>
      </trkpt>
      <trkpt lat="50.77479" lon="3.71978">
        <ele>73</ele>
        <time>2015-12-13T09:30:04Z</time>
      </trkpt>
      <trkpt lat="50.77481" lon="3.71976">
        <ele>73</ele>
        <time>2015-12-13T09:30:06Z</time>
      </trkpt>
      <trkpt lat="50.77483" lon="3.71973">
        <ele>73</ele>
        <time>2015-12-13T09:30:09Z</time>
      </trkpt>
      <trkpt lat="50.77485" lon="3.71971">
        <ele>73</ele>
        <time>2015-12-13T09:30:11Z</time>
      </trkpt>
      <trkpt lat="50.77487" lon="3.7197">
        <ele>74</ele>
        <time>2015-12-13T09:30:14Z</time>
      </trkpt>
      <trkpt lat="50.77488" lon="3.71967">
        <ele>74</ele>
        <time>2015-12-13T09:30:18Z</time>
      </trkpt>
      <trkpt lat="50.7749" lon="3.71964">
        <ele>74</ele>
        <time>2015-12-13T09:30:20Z</time>
      </trkpt>
      <trkpt lat="50.7749" lon="3.7196">
        <ele>75</ele>
        <time>2015-12-13T09:30:23Z</time>
      </trkpt>
      <trkpt lat="50.77491" lon="3.71957">
        <ele>75</ele>
        <time>2015-12-13T09:30:25Z</time>
      </trkpt>
      <trkpt lat="50.77491" lon="3.71954">
        <ele>75</ele>
        <time>2015-12-13T09:30:28Z</time>
      </trkpt>
      <trkpt lat="50.77493" lon="3.71948">
        <ele>77</ele>
        <time>2015-12-13T09:30:34Z</time>
      </trkpt>
      <trkpt lat="50.77494" lon="3.71946">
        <ele>77</ele>
        <time>2015-12-13T09:30:36Z</time>
      </trkpt>
      <trkpt lat="50.77496" lon="3.71942">
        <ele>79</ele>
        <time>2015-12-13T09:30:38Z</time>
      </trkpt>
      <trkpt lat="50.77498" lon="3.71939">
        <ele>79</ele>
        <time>2015-12-13T09:30:41Z</time>
      </trkpt>
      <trkpt lat="50.775" lon="3.71937">
        <ele>81</ele>
        <time>2015-12-13T09:30:43Z</time>
      </trkpt>
      <trkpt lat="50.77501" lon="3.71935">
        <ele>81</ele>
        <time>2015-12-13T09:30:45Z</time>
      </trkpt>
      <trkpt lat="50.77503" lon="3.71933">
        <ele>81</ele>
        <time>2015-12-13T09:30:47Z</time>
      </trkpt>
      <trkpt lat="50.77505" lon="3.71934">
        <ele>81</ele>
        <time>2015-12-13T09:30:49Z</time>
      </trkpt>
      <trkpt lat="50.77508" lon="3.71935">
        <ele>81</ele>
        <time>2015-12-13T09:30:51Z</time>
      </trkpt>
      <trkpt lat="50.77509" lon="3.71937">
        <ele>81</ele>
        <time>2015-12-13T09:30:53Z</time>
      </trkpt>
      <trkpt lat="50.77513" lon="3.71939">
        <ele>81</ele>
        <time>2015-12-13T09:31:02Z</time>
      </trkpt>
      <trkpt lat="50.77515" lon="3.71939">
        <ele>81</ele>
        <time>2015-12-13T09:31:05Z</time>
      </trkpt>
      <trkpt lat="50.77517" lon="3.71938">
        <ele>81</ele>
        <time>2015-12-13T09:31:08Z</time>
      </trkpt>
      <trkpt lat="50.77519" lon="3.71936">
        <ele>81</ele>
        <time>2015-12-13T09:31:12Z</time>
      </trkpt>
      <trkpt lat="50.77521" lon="3.71936">
        <ele>81</ele>
        <time>2015-12-13T09:31:14Z</time>
      </trkpt>
      <trkpt lat="50.77524" lon="3.71936">
        <ele>81</ele>
        <time>2015-12-13T09:31:16Z</time>
      </trkpt>
      <trkpt lat="50.77526" lon="3.71934">
        <ele>81</ele>
        <time>2015-12-13T09:31:18Z</time>
      </trkpt>
      <trkpt lat="50.77529" lon="3.71932">
        <ele>81</ele>
        <time>2015-12-13T09:31:20Z</time>
      </trkpt>
      <trkpt lat="50.77531" lon="3.7193">
        <ele>81</ele>
        <time>2015-12-13T09:31:22Z</time>
      </trkpt>
      <trkpt lat="50.77534" lon="3.71928">
        <ele>81</ele>
        <time>2015-12-13T09:31:24Z</time>
      </trkpt>
      <trkpt lat="50.77536" lon="3.71926">
        <ele>81</ele>
        <time>2015-12-13T09:31:26Z</time>
      </trkpt>
      <trkpt lat="50.77538" lon="3.71924">
        <ele>81</ele>
        <time>2015-12-13T09:31:28Z</time>
      </trkpt>
      <trkpt lat="50.7754" lon="3.71922">
        <ele>81</ele>
        <time>2015-12-13T09:31:30Z</time>
      </trkpt>
      <trkpt lat="50.77542" lon="3.7192">
        <ele>82</ele>
        <time>2015-12-13T09:31:32Z</time>
      </trkpt>
      <trkpt lat="50.77544" lon="3.71919">
        <ele>82</ele>
        <time>2015-12-13T09:31:34Z</time>
      </trkpt>
      <trkpt lat="50.77546" lon="3.71918">
        <ele>82</ele>
        <time>2015-12-13T09:31:36Z</time>
      </trkpt>
      <trkpt lat="50.77548" lon="3.71916">
        <ele>82</ele>
        <time>2015-12-13T09:31:38Z</time>
      </trkpt>
      <trkpt lat="50.7755" lon="3.71914">
        <ele>82</ele>
        <time>2015-12-13T09:31:40Z</time>
      </trkpt>
      <trkpt lat="50.77551" lon="3.71912">
        <ele>83</ele>
        <time>2015-12-13T09:31:42Z</time>
      </trkpt>
      <trkpt lat="50.77552" lon="3.71908">
        <ele>83</ele>
        <time>2015-12-13T09:31:44Z</time>
      </trkpt>
      <trkpt lat="50.77554" lon="3.71906">
        <ele>83</ele>
        <time>2015-12-13T09:31:47Z</time>
      </trkpt>
      <trkpt lat="50.77552" lon="3.71911">
        <ele>84</ele>
        <time>2015-12-13T09:32:07Z</time>
      </trkpt>
      <trkpt lat="50.7755" lon="3.71911">
        <ele>85</ele>
        <time>2015-12-13T09:32:54Z</time>
      </trkpt>
      <trkpt lat="50.77548" lon="3.7191">
        <ele>85</ele>
        <time>2015-12-13T09:32:56Z</time>
      </trkpt>
      <trkpt lat="50.77545" lon="3.71908">
        <ele>85</ele>
        <time>2015-12-13T09:32:58Z</time>
      </trkpt>
      <trkpt lat="50.77542" lon="3.71907">
        <ele>85</ele>
        <time>2015-12-13T09:33:00Z</time>
      </trkpt>
      <trkpt lat="50.7754" lon="3.71906">
        <ele>85</ele>
        <time>2015-12-13T09:33:01Z</time>
      </trkpt>
      <trkpt lat="50.77538" lon="3.71904">
        <ele>85</ele>
        <time>2015-12-13T09:33:02Z</time>
      </trkpt>
      <trkpt lat="50.77536" lon="3.71903">
        <ele>85</ele>
        <time>2015-12-13T09:33:03Z</time>
      </trkpt>
      <trkpt lat="50.77534" lon="3.71902">
        <ele>85</ele>
        <time>2015-12-13T09:33:04Z</time>
      </trkpt>
      <trkpt lat="50.77531" lon="3.71901">
        <ele>85</ele>
        <time>2015-12-13T09:33:05Z</time>
      </trkpt>
      <trkpt lat="50.77529" lon="3.719">
        <ele>85</ele>
        <time>2015-12-13T09:33:06Z</time>
      </trkpt>
      <trkpt lat="50.77527" lon="3.71899">
        <ele>85</ele>
        <time>2015-12-13T09:33:07Z</time>
      </trkpt>
      <trkpt lat="50.77524" lon="3.71898">
        <ele>85</ele>
        <time>2015-12-13T09:33:08Z</time>
      </trkpt>
      <trkpt lat="50.77522" lon="3.71897">
        <ele>85</ele>
        <time>2015-12-13T09:33:09Z</time>
      </trkpt>
      <trkpt lat="50.77519" lon="3.71896">
        <ele>85</ele>
        <time>2015-12-13T09:33:10Z</time>
      </trkpt>
      <trkpt lat="50.77518" lon="3.71895">
        <ele>83.7</ele>
        <time>2015-12-13T09:33:11Z</time>
      </trkpt>
      <trkpt lat="50.77514" lon="3.71893">
        <ele>83</ele>
        <time>2015-12-13T09:33:13Z</time>
      </trkpt>
      <trkpt lat="50.77512" lon="3.71892">
        <ele>83</ele>
        <time>2015-12-13T09:33:14Z</time>
      </trkpt>
      <trkpt lat="50.7751" lon="3.71891">
        <ele>83</ele>
        <time>2015-12-13T09:33:15Z</time>
      </trkpt>
      <trkpt lat="50.77508" lon="3.7189">
        <ele>83</ele>
        <time>2015-12-13T09:33:16Z</time>
      </trkpt>
      <trkpt lat="50.77507" lon="3.71888">
        <ele>83</ele>
        <time>2015-12-13T09:33:17Z</time>
      </trkpt>
      <trkpt lat="50.77505" lon="3.71887">
        <ele>83</ele>
        <time>2015-12-13T09:33:18Z</time>
      </trkpt>
      <trkpt lat="50.77503" lon="3.71885">
        <ele>83</ele>
        <time>2015-12-13T09:33:19Z</time>
      </trkpt>
      <trkpt lat="50.775" lon="3.71884">
        <ele>83</ele>
        <time>2015-12-13T09:33:20Z</time>
      </trkpt>
      <trkpt lat="50.77498" lon="3.71883">
        <ele>82.3</ele>
        <time>2015-12-13T09:33:21Z</time>
      </trkpt>
      <trkpt lat="50.77496" lon="3.71881">
        <ele>82</ele>
        <time>2015-12-13T09:33:22Z</time>
      </trkpt>
      <trkpt lat="50.77494" lon="3.7188">
        <ele>82</ele>
        <time>2015-12-13T09:33:23Z</time>
      </trkpt>
      <trkpt lat="50.77492" lon="3.71879">
        <ele>82</ele>
        <time>2015-12-13T09:33:24Z</time>
      </trkpt>
      <trkpt lat="50.7749" lon="3.71878">
        <ele>82</ele>
        <time>2015-12-13T09:33:25Z</time>
      </trkpt>
      <trkpt lat="50.77489" lon="3.71876">
        <ele>82</ele>
        <time>2015-12-13T09:33:26Z</time>
      </trkpt>
      <trkpt lat="50.77486" lon="3.71873">
        <ele>82</ele>
        <time>2015-12-13T09:33:28Z</time>
      </trkpt>
      <trkpt lat="50.77484" lon="3.71869">
        <ele>82</ele>
        <time>2015-12-13T09:33:30Z</time>
      </trkpt>
      <trkpt lat="50.77481" lon="3.71867">
        <ele>81</ele>
        <time>2015-12-13T09:33:32Z</time>
      </trkpt>
      <trkpt lat="50.77478" lon="3.71865">
        <ele>81</ele>
        <time>2015-12-13T09:33:34Z</time>
      </trkpt>
      <trkpt lat="50.77475" lon="3.71862">
        <ele>81</ele>
        <time>2015-12-13T09:33:36Z</time>
      </trkpt>
      <trkpt lat="50.77474" lon="3.7186">
        <ele>81</ele>
        <time>2015-12-13T09:33:37Z</time>
      </trkpt>
      <trkpt lat="50.77471" lon="3.71857">
        <ele>81</ele>
        <time>2015-12-13T09:33:39Z</time>
      </trkpt>
      <trkpt lat="50.77467" lon="3.71855">
        <ele>81</ele>
        <time>2015-12-13T09:33:41Z</time>
      </trkpt>
      <trkpt lat="50.77465" lon="3.71854">
        <ele>81</ele>
        <time>2015-12-13T09:33:43Z</time>
      </trkpt>
      <trkpt lat="50.77463" lon="3.71852">
        <ele>81</ele>
        <time>2015-12-13T09:33:45Z</time>
      </trkpt>
      <trkpt lat="50.77461" lon="3.71851">
        <ele>81</ele>
        <time>2015-12-13T09:33:46Z</time>
      </trkpt>
      <trkpt lat="50.77459" lon="3.71849">
        <ele>81</ele>
        <time>2015-12-13T09:33:47Z</time>
      </trkpt>
      <trkpt lat="50.77456" lon="3.71848">
        <ele>81</ele>
        <time>2015-12-13T09:33:49Z</time>
      </trkpt>
      <trkpt lat="50.77453" lon="3.71845">
        <ele>80.3</ele>
        <time>2015-12-13T09:33:51Z</time>
      </trkpt>
      <trkpt lat="50.77451" lon="3.7185">
        <ele>79</ele>
        <time>2015-12-13T09:34:52Z</time>
      </trkpt>
      <trkpt lat="50.77447" lon="3.71848">
        <ele>79</ele>
        <time>2015-12-13T09:35:03Z</time>
      </trkpt>
      <trkpt lat="50.77445" lon="3.71855">
        <ele>80</ele>
        <time>2015-12-13T09:35:17Z</time>
      </trkpt>
      <trkpt lat="50.77443" lon="3.71857">
        <ele>80</ele>
        <time>2015-12-13T09:35:19Z</time>
      </trkpt>
      <trkpt lat="50.7744" lon="3.71859">
        <ele>79.3</ele>
        <time>2015-12-13T09:35:21Z</time>
      </trkpt>
      <trkpt lat="50.77438" lon="3.7186">
        <ele>79</ele>
        <time>2015-12-13T09:35:23Z</time>
      </trkpt>
      <trkpt lat="50.77435" lon="3.71861">
        <ele>79</ele>
        <time>2015-12-13T09:35:25Z</time>
      </trkpt>
      <trkpt lat="50.77433" lon="3.7186">
        <ele>79</ele>
        <time>2015-12-13T09:35:29Z</time>
      </trkpt>
      <trkpt lat="50.77436" lon="3.71856">
        <ele>78</ele>
        <time>2015-12-13T09:35:36Z</time>
      </trkpt>
      <trkpt lat="50.77437" lon="3.71857">
        <ele>78</ele>
        <time>2015-12-13T09:35:38Z</time>
      </trkpt>
      <trkpt lat="50.77437" lon="3.71859">
        <ele>78</ele>
        <time>2015-12-13T09:35:40Z</time>
      </trkpt>
      <trkpt lat="50.77435" lon="3.71861">
        <ele>77</ele>
        <time>2015-12-13T09:35:42Z</time>
      </trkpt>
      <trkpt lat="50.77432" lon="3.71862">
        <ele>77</ele>
        <time>2015-12-13T09:35:44Z</time>
      </trkpt>
      <trkpt lat="50.7743" lon="3.71864">
        <ele>77</ele>
        <time>2015-12-13T09:35:45Z</time>
      </trkpt>
      <trkpt lat="50.77428" lon="3.71866">
        <ele>77</ele>
        <time>2015-12-13T09:35:47Z</time>
      </trkpt>
      <trkpt lat="50.77426" lon="3.71869">
        <ele>77.7</ele>
        <time>2015-12-13T09:35:49Z</time>
      </trkpt>
      <trkpt lat="50.77425" lon="3.71872">
        <ele>74</ele>
        <time>2015-12-13T09:35:52Z</time>
      </trkpt>
      <trkpt lat="50.77422" lon="3.71875">
        <ele>74</ele>
        <time>2015-12-13T09:35:54Z</time>
      </trkpt>
      <trkpt lat="50.7742" lon="3.71878">
        <ele>74</ele>
        <time>2015-12-13T09:35:56Z</time>
      </trkpt>
      <trkpt lat="50.77417" lon="3.7188">
        <ele>74</ele>
        <time>2015-12-13T09:35:58Z</time>
      </trkpt>
      <trkpt lat="50.77415" lon="3.71882">
        <ele>74</ele>
        <time>2015-12-13T09:36:00Z</time>
      </trkpt>
      <trkpt lat="50.77417" lon="3.71881">
        <ele>73</ele>
        <time>2015-12-13T09:36:16Z</time>
      </trkpt>
      <trkpt lat="50.77419" lon="3.71882">
        <ele>73.7</ele>
        <time>2015-12-13T09:36:21Z</time>
      </trkpt>
      <trkpt lat="50.7742" lon="3.71886">
        <ele>74</ele>
        <time>2015-12-13T09:36:23Z</time>
      </trkpt>
      <trkpt lat="50.77416" lon="3.71893">
        <ele>74</ele>
        <time>2015-12-13T09:36:30Z</time>
      </trkpt>
      <trkpt lat="50.77413" lon="3.71897">
        <ele>76</ele>
        <time>2015-12-13T09:36:32Z</time>
      </trkpt>
      <trkpt lat="50.77411" lon="3.719">
        <ele>76</ele>
        <time>2015-12-13T09:36:34Z</time>
      </trkpt>
      <trkpt lat="50.77409" lon="3.71902">
        <ele>76</ele>
        <time>2015-12-13T09:36:35Z</time>
      </trkpt>
      <trkpt lat="50.77407" lon="3.71905">
        <ele>77</ele>
        <time>2015-12-13T09:36:37Z</time>
      </trkpt>
      <trkpt lat="50.77404" lon="3.71908">
        <ele>77</ele>
        <time>2015-12-13T09:36:39Z</time>
      </trkpt>
      <trkpt lat="50.77402" lon="3.71909">
        <ele>77.7</ele>
        <time>2015-12-13T09:36:41Z</time>
      </trkpt>
      <trkpt lat="50.774" lon="3.71911">
        <ele>78</ele>
        <time>2015-12-13T09:36:43Z</time>
      </trkpt>
      <trkpt lat="50.77398" lon="3.71912">
        <ele>78</ele>
        <time>2015-12-13T09:36:48Z</time>
      </trkpt>
      <trkpt lat="50.77395" lon="3.71914">
        <ele>78</ele>
        <time>2015-12-13T09:36:50Z</time>
      </trkpt>
      <trkpt lat="50.77393" lon="3.71914">
        <ele>80</ele>
        <time>2015-12-13T09:36:52Z</time>
      </trkpt>
      <trkpt lat="50.77391" lon="3.71913">
        <ele>80</ele>
        <time>2015-12-13T09:36:54Z</time>
      </trkpt>
      <trkpt lat="50.77387" lon="3.71913">
        <ele>80</ele>
        <time>2015-12-13T09:36:56Z</time>
      </trkpt>
      <trkpt lat="50.77384" lon="3.71915">
        <ele>80</ele>
        <time>2015-12-13T09:36:58Z</time>
      </trkpt>
      <trkpt lat="50.77381" lon="3.71915">
        <ele>80</ele>
        <time>2015-12-13T09:37:00Z</time>
      </trkpt>
      <trkpt lat="50.77378" lon="3.71916">
        <ele>81</ele>
        <time>2015-12-13T09:37:02Z</time>
      </trkpt>
      <trkpt lat="50.77376" lon="3.71916">
        <ele>81</ele>
        <time>2015-12-13T09:37:03Z</time>
      </trkpt>
      <trkpt lat="50.77374" lon="3.71917">
        <ele>81</ele>
        <time>2015-12-13T09:37:04Z</time>
      </trkpt>
      <trkpt lat="50.77372" lon="3.71916">
        <ele>81</ele>
        <time>2015-12-13T09:37:08Z</time>
      </trkpt>
      <trkpt lat="50.77369" lon="3.71917">
        <ele>81</ele>
        <time>2015-12-13T09:37:10Z</time>
      </trkpt>
      <trkpt lat="50.77366" lon="3.71917">
        <ele>82</ele>
        <time>2015-12-13T09:37:13Z</time>
      </trkpt>
      <trkpt lat="50.77364" lon="3.71918">
        <ele>82</ele>
        <time>2015-12-13T09:37:17Z</time>
      </trkpt>
      <trkpt lat="50.77361" lon="3.71919">
        <ele>82</ele>
        <time>2015-12-13T09:37:19Z</time>
      </trkpt>
      <trkpt lat="50.77359" lon="3.71919">
        <ele>82.7</ele>
        <time>2015-12-13T09:37:21Z</time>
      </trkpt>
      <trkpt lat="50.77356" lon="3.7192">
        <ele>83</ele>
        <time>2015-12-13T09:37:23Z</time>
      </trkpt>
      <trkpt lat="50.77354" lon="3.7192">
        <ele>83</ele>
        <time>2015-12-13T09:37:26Z</time>
      </trkpt>
      <trkpt lat="50.77351" lon="3.71921">
        <ele>83</ele>
        <time>2015-12-13T09:37:28Z</time>
      </trkpt>
      <trkpt lat="50.77349" lon="3.71925">
        <ele>83</ele>
        <time>2015-12-13T09:37:31Z</time>
      </trkpt>
      <trkpt lat="50.77347" lon="3.71926">
        <ele>83</ele>
        <time>2015-12-13T09:37:33Z</time>
      </trkpt>
      <trkpt lat="50.77346" lon="3.71929">
        <ele>83</ele>
        <time>2015-12-13T09:37:36Z</time>
      </trkpt>
      <trkpt lat="50.77343" lon="3.71931">
        <ele>83</ele>
        <time>2015-12-13T09:37:38Z</time>
      </trkpt>
      <trkpt lat="50.77343" lon="3.71935">
        <ele>84</ele>
        <time>2015-12-13T09:37:44Z</time>
      </trkpt>
      <trkpt lat="50.77342" lon="3.71938">
        <ele>84</ele>
        <time>2015-12-13T09:37:47Z</time>
      </trkpt>
      <trkpt lat="50.77342" lon="3.71941">
        <ele>84</ele>
        <time>2015-12-13T09:37:50Z</time>
      </trkpt>
      <trkpt lat="50.77341" lon="3.71945">
        <ele>85</ele>
        <time>2015-12-13T09:37:53Z</time>
      </trkpt>
      <trkpt lat="50.7734" lon="3.71948">
        <ele>85</ele>
        <time>2015-12-13T09:37:56Z</time>
      </trkpt>
      <trkpt lat="50.7734" lon="3.71951">
        <ele>85</ele>
        <time>2015-12-13T09:37:58Z</time>
      </trkpt>
      <trkpt lat="50.77339" lon="3.71955">
        <ele>85</ele>
        <time>2015-12-13T09:38:00Z</time>
      </trkpt>
      <trkpt lat="50.77339" lon="3.71957">
        <ele>85</ele>
        <time>2015-12-13T09:38:02Z</time>
      </trkpt>
      <trkpt lat="50.77337" lon="3.7196">
        <ele>85</ele>
        <time>2015-12-13T09:38:04Z</time>
      </trkpt>
      <trkpt lat="50.77336" lon="3.71962">
        <ele>85</ele>
        <time>2015-12-13T09:38:06Z</time>
      </trkpt>
      <trkpt lat="50.7733" lon="3.71969">
        <ele>87</ele>
        <time>2015-12-13T09:38:12Z</time>
      </trkpt>
      <trkpt lat="50.77328" lon="3.71972">
        <ele>87</ele>
        <time>2015-12-13T09:38:14Z</time>
      </trkpt>
      <trkpt lat="50.77326" lon="3.71975">
        <ele>87</ele>
        <time>2015-12-13T09:38:16Z</time>
      </trkpt>
      <trkpt lat="50.77325" lon="3.71978">
        <ele>87</ele>
        <time>2015-12-13T09:38:18Z</time>
      </trkpt>
      <trkpt lat="50.77324" lon="3.7198">
        <ele>87</ele>
        <time>2015-12-13T09:38:20Z</time>
      </trkpt>
      <trkpt lat="50.7732" lon="3.71983">
        <ele>89</ele>
        <time>2015-12-13T09:38:22Z</time>
      </trkpt>
      <trkpt lat="50.77318" lon="3.71985">
        <ele>89</ele>
        <time>2015-12-13T09:38:23Z</time>
      </trkpt>
      <trkpt lat="50.77316" lon="3.71985">
        <ele>89</ele>
        <time>2015-12-13T09:38:24Z</time>
      </trkpt>
      <trkpt lat="50.77314" lon="3.71986">
        <ele>89</ele>
        <time>2015-12-13T09:38:26Z</time>
      </trkpt>
      <trkpt lat="50.77312" lon="3.71984">
        <ele>89</ele>
        <time>2015-12-13T09:38:28Z</time>
      </trkpt>
      <trkpt lat="50.77309" lon="3.71981">
        <ele>89</ele>
        <time>2015-12-13T09:38:30Z</time>
      </trkpt>
      <trkpt lat="50.77306" lon="3.71978">
        <ele>90</ele>
        <time>2015-12-13T09:38:32Z</time>
      </trkpt>
      <trkpt lat="50.77304" lon="3.71977">
        <ele>90</ele>
        <time>2015-12-13T09:38:33Z</time>
      </trkpt>
      <trkpt lat="50.77302" lon="3.71975">
        <ele>90</ele>
        <time>2015-12-13T09:38:34Z</time>
      </trkpt>
      <trkpt lat="50.773" lon="3.71972">
        <ele>90</ele>
        <time>2015-12-13T09:38:36Z</time>
      </trkpt>
      <trkpt lat="50.77298" lon="3.7197">
        <ele>90</ele>
        <time>2015-12-13T09:38:38Z</time>
      </trkpt>
      <trkpt lat="50.77296" lon="3.71968">
        <ele>90</ele>
        <time>2015-12-13T09:38:40Z</time>
      </trkpt>
      <trkpt lat="50.77294" lon="3.71968">
        <ele>90</ele>
        <time>2015-12-13T09:38:42Z</time>
      </trkpt>
      <trkpt lat="50.7729" lon="3.71964">
        <ele>90</ele>
        <time>2015-12-13T09:38:56Z</time>
      </trkpt>
      <trkpt lat="50.77287" lon="3.71964">
        <ele>90</ele>
        <time>2015-12-13T09:38:59Z</time>
      </trkpt>
      <trkpt lat="50.77285" lon="3.71965">
        <ele>91</ele>
        <time>2015-12-13T09:39:02Z</time>
      </trkpt>
      <trkpt lat="50.77283" lon="3.71967">
        <ele>91</ele>
        <time>2015-12-13T09:39:05Z</time>
      </trkpt>
      <trkpt lat="50.77281" lon="3.71969">
        <ele>91</ele>
        <time>2015-12-13T09:39:07Z</time>
      </trkpt>
      <trkpt lat="50.77279" lon="3.71971">
        <ele>91</ele>
        <time>2015-12-13T09:39:09Z</time>
      </trkpt>
      <trkpt lat="50.77276" lon="3.71974">
        <ele>92.1</ele>
        <time>2015-12-13T09:39:11Z</time>
      </trkpt>
      <trkpt lat="50.77274" lon="3.71975">
        <ele>93</ele>
        <time>2015-12-13T09:39:13Z</time>
      </trkpt>
      <trkpt lat="50.77272" lon="3.71977">
        <ele>93</ele>
        <time>2015-12-13T09:39:15Z</time>
      </trkpt>
      <trkpt lat="50.77269" lon="3.71979">
        <ele>93</ele>
        <time>2015-12-13T09:39:17Z</time>
      </trkpt>
      <trkpt lat="50.77267" lon="3.71981">
        <ele>93</ele>
        <time>2015-12-13T09:39:19Z</time>
      </trkpt>
      <trkpt lat="50.77265" lon="3.71983">
        <ele>94</ele>
        <time>2015-12-13T09:39:22Z</time>
      </trkpt>
      <trkpt lat="50.77262" lon="3.71983">
        <ele>94</ele>
        <time>2015-12-13T09:39:24Z</time>
      </trkpt>
      <trkpt lat="50.7726" lon="3.71984">
        <ele>94</ele>
        <time>2015-12-13T09:39:26Z</time>
      </trkpt>
      <trkpt lat="50.77258" lon="3.71986">
        <ele>94</ele>
        <time>2015-12-13T09:39:28Z</time>
      </trkpt>
      <trkpt lat="50.77255" lon="3.71986">
        <ele>94</ele>
        <time>2015-12-13T09:39:30Z</time>
      </trkpt>
      <trkpt lat="50.77253" lon="3.71987">
        <ele>96</ele>
        <time>2015-12-13T09:39:32Z</time>
      </trkpt>
      <trkpt lat="50.7725" lon="3.71989">
        <ele>96</ele>
        <time>2015-12-13T09:39:34Z</time>
      </trkpt>
      <trkpt lat="50.77248" lon="3.7199">
        <ele>96</ele>
        <time>2015-12-13T09:39:36Z</time>
      </trkpt>
      <trkpt lat="50.77246" lon="3.71992">
        <ele>96</ele>
        <time>2015-12-13T09:39:38Z</time>
      </trkpt>
      <trkpt lat="50.77243" lon="3.71993">
        <ele>96</ele>
        <time>2015-12-13T09:39:40Z</time>
      </trkpt>
      <trkpt lat="50.77241" lon="3.71994">
        <ele>96</ele>
        <time>2015-12-13T09:39:42Z</time>
      </trkpt>
      <trkpt lat="50.77239" lon="3.71995">
        <ele>96</ele>
        <time>2015-12-13T09:39:44Z</time>
      </trkpt>
      <trkpt lat="50.77238" lon="3.71998">
        <ele>96</ele>
        <time>2015-12-13T09:39:46Z</time>
      </trkpt>
      <trkpt lat="50.77237" lon="3.72">
        <ele>96</ele>
        <time>2015-12-13T09:39:48Z</time>
      </trkpt>
      <trkpt lat="50.77234" lon="3.72003">
        <ele>96</ele>
        <time>2015-12-13T09:39:50Z</time>
      </trkpt>
      <trkpt lat="50.77232" lon="3.72005">
        <ele>98</ele>
        <time>2015-12-13T09:39:52Z</time>
      </trkpt>
      <trkpt lat="50.7723" lon="3.72006">
        <ele>98</ele>
        <time>2015-12-13T09:39:55Z</time>
      </trkpt>
      <trkpt lat="50.77227" lon="3.72008">
        <ele>98</ele>
        <time>2015-12-13T09:39:57Z</time>
      </trkpt>
      <trkpt lat="50.77225" lon="3.72009">
        <ele>98</ele>
        <time>2015-12-13T09:39:58Z</time>
      </trkpt>
      <trkpt lat="50.77223" lon="3.72011">
        <ele>98</ele>
        <time>2015-12-13T09:40:00Z</time>
      </trkpt>
      <trkpt lat="50.77222" lon="3.72013">
        <ele>99</ele>
        <time>2015-12-13T09:40:03Z</time>
      </trkpt>
      <trkpt lat="50.77219" lon="3.72014">
        <ele>99</ele>
        <time>2015-12-13T09:40:05Z</time>
      </trkpt>
      <trkpt lat="50.77216" lon="3.72014">
        <ele>99</ele>
        <time>2015-12-13T09:40:07Z</time>
      </trkpt>
      <trkpt lat="50.77213" lon="3.72013">
        <ele>99</ele>
        <time>2015-12-13T09:40:09Z</time>
      </trkpt>
      <trkpt lat="50.77211" lon="3.72012">
        <ele>99.7</ele>
        <time>2015-12-13T09:40:11Z</time>
      </trkpt>
      <trkpt lat="50.77209" lon="3.7201">
        <ele>100</ele>
        <time>2015-12-13T09:40:13Z</time>
      </trkpt>
      <trkpt lat="50.77207" lon="3.72007">
        <ele>100</ele>
        <time>2015-12-13T09:40:16Z</time>
      </trkpt>
      <trkpt lat="50.77204" lon="3.72005">
        <ele>100</ele>
        <time>2015-12-13T09:40:18Z</time>
      </trkpt>
      <trkpt lat="50.77201" lon="3.72002">
        <ele>100</ele>
        <time>2015-12-13T09:40:20Z</time>
      </trkpt>
      <trkpt lat="50.772" lon="3.72001">
        <ele>100.7</ele>
        <time>2015-12-13T09:40:21Z</time>
      </trkpt>
      <trkpt lat="50.77197" lon="3.71999">
        <ele>101</ele>
        <time>2015-12-13T09:40:23Z</time>
      </trkpt>
      <trkpt lat="50.77194" lon="3.71997">
        <ele>101</ele>
        <time>2015-12-13T09:40:25Z</time>
      </trkpt>
      <trkpt lat="50.77191" lon="3.71995">
        <ele>101</ele>
        <time>2015-12-13T09:40:27Z</time>
      </trkpt>
      <trkpt lat="50.77188" lon="3.71993">
        <ele>101</ele>
        <time>2015-12-13T09:40:29Z</time>
      </trkpt>
      <trkpt lat="50.77186" lon="3.71991">
        <ele>101</ele>
        <time>2015-12-13T09:40:31Z</time>
      </trkpt>
      <trkpt lat="50.77184" lon="3.71988">
        <ele>101</ele>
        <time>2015-12-13T09:40:33Z</time>
      </trkpt>
      <trkpt lat="50.77182" lon="3.71987">
        <ele>101</ele>
        <time>2015-12-13T09:40:35Z</time>
      </trkpt>
      <trkpt lat="50.7718" lon="3.71986">
        <ele>101</ele>
        <time>2015-12-13T09:40:37Z</time>
      </trkpt>
      <trkpt lat="50.77178" lon="3.71984">
        <ele>101</ele>
        <time>2015-12-13T09:40:39Z</time>
      </trkpt>
      <trkpt lat="50.77173" lon="3.7198">
        <ele>100</ele>
        <time>2015-12-13T09:40:43Z</time>
      </trkpt>
      <trkpt lat="50.7717" lon="3.71978">
        <ele>100</ele>
        <time>2015-12-13T09:40:45Z</time>
      </trkpt>
      <trkpt lat="50.77168" lon="3.71977">
        <ele>100</ele>
        <time>2015-12-13T09:40:47Z</time>
      </trkpt>
      <trkpt lat="50.77166" lon="3.71974">
        <ele>100</ele>
        <time>2015-12-13T09:40:49Z</time>
      </trkpt>
      <trkpt lat="50.77163" lon="3.71972">
        <ele>100.5</ele>
        <time>2015-12-13T09:40:51Z</time>
      </trkpt>
      <trkpt lat="50.7716" lon="3.71971">
        <ele>101</ele>
        <time>2015-12-13T09:40:53Z</time>
      </trkpt>
      <trkpt lat="50.77158" lon="3.7197">
        <ele>101</ele>
        <time>2015-12-13T09:40:55Z</time>
      </trkpt>
      <trkpt lat="50.77156" lon="3.71968">
        <ele>101</ele>
        <time>2015-12-13T09:40:57Z</time>
      </trkpt>
      <trkpt lat="50.77155" lon="3.71966">
        <ele>101</ele>
        <time>2015-12-13T09:40:59Z</time>
      </trkpt>
      <trkpt lat="50.77152" lon="3.71963">
        <ele>101</ele>
        <time>2015-12-13T09:41:01Z</time>
      </trkpt>
      <trkpt lat="50.77151" lon="3.71962">
        <ele>101</ele>
        <time>2015-12-13T09:41:02Z</time>
      </trkpt>
      <trkpt lat="50.77149" lon="3.7196">
        <ele>101</ele>
        <time>2015-12-13T09:41:03Z</time>
      </trkpt>
      <trkpt lat="50.77147" lon="3.7196">
        <ele>101</ele>
        <time>2015-12-13T09:41:04Z</time>
      </trkpt>
      <trkpt lat="50.77145" lon="3.71959">
        <ele>101</ele>
        <time>2015-12-13T09:41:05Z</time>
      </trkpt>
      <trkpt lat="50.77142" lon="3.71958">
        <ele>101</ele>
        <time>2015-12-13T09:41:06Z</time>
      </trkpt>
      <trkpt lat="50.7714" lon="3.71957">
        <ele>101</ele>
        <time>2015-12-13T09:41:07Z</time>
      </trkpt>
      <trkpt lat="50.77138" lon="3.71955">
        <ele>101</ele>
        <time>2015-12-13T09:41:08Z</time>
      </trkpt>
      <trkpt lat="50.77136" lon="3.71954">
        <ele>101</ele>
        <time>2015-12-13T09:41:09Z</time>
      </trkpt>
      <trkpt lat="50.77133" lon="3.71952">
        <ele>101</ele>
        <time>2015-12-13T09:41:10Z</time>
      </trkpt>
      <trkpt lat="50.77131" lon="3.71951">
        <ele>101</ele>
        <time>2015-12-13T09:41:11Z</time>
      </trkpt>
      <trkpt lat="50.77129" lon="3.71949">
        <ele>101</ele>
        <time>2015-12-13T09:41:12Z</time>
      </trkpt>
      <trkpt lat="50.77126" lon="3.71947">
        <ele>101</ele>
        <time>2015-12-13T09:41:13Z</time>
      </trkpt>
      <trkpt lat="50.77124" lon="3.71945">
        <ele>101</ele>
        <time>2015-12-13T09:41:14Z</time>
      </trkpt>
      <trkpt lat="50.77122" lon="3.71944">
        <ele>101</ele>
        <time>2015-12-13T09:41:15Z</time>
      </trkpt>
      <trkpt lat="50.7712" lon="3.71943">
        <ele>101</ele>
        <time>2015-12-13T09:41:16Z</time>
      </trkpt>
      <trkpt lat="50.77118" lon="3.71941">
        <ele>101</ele>
        <time>2015-12-13T09:41:17Z</time>
      </trkpt>
      <trkpt lat="50.77117" lon="3.7194">
        <ele>101</ele>
        <time>2015-12-13T09:41:18Z</time>
      </trkpt>
      <trkpt lat="50.77115" lon="3.71938">
        <ele>101</ele>
        <time>2015-12-13T09:41:19Z</time>
      </trkpt>
      <trkpt lat="50.77113" lon="3.71937">
        <ele>101</ele>
        <time>2015-12-13T09:41:20Z</time>
      </trkpt>
      <trkpt lat="50.77111" lon="3.71936">
        <ele>100.3</ele>
        <time>2015-12-13T09:41:21Z</time>
      </trkpt>
      <trkpt lat="50.77109" lon="3.71935">
        <ele>100</ele>
        <time>2015-12-13T09:41:22Z</time>
      </trkpt>
      <trkpt lat="50.77107" lon="3.71932">
        <ele>100</ele>
        <time>2015-12-13T09:41:23Z</time>
      </trkpt>
      <trkpt lat="50.77104" lon="3.7193">
        <ele>100</ele>
        <time>2015-12-13T09:41:24Z</time>
      </trkpt>
      <trkpt lat="50.77103" lon="3.71928">
        <ele>100</ele>
        <time>2015-12-13T09:41:25Z</time>
      </trkpt>
      <trkpt lat="50.77101" lon="3.71927">
        <ele>100</ele>
        <time>2015-12-13T09:41:26Z</time>
      </trkpt>
      <trkpt lat="50.77099" lon="3.71925">
        <ele>100</ele>
        <time>2015-12-13T09:41:27Z</time>
      </trkpt>
      <trkpt lat="50.77097" lon="3.71922">
        <ele>100</ele>
        <time>2015-12-13T09:41:28Z</time>
      </trkpt>
      <trkpt lat="50.77095" lon="3.7192">
        <ele>100</ele>
        <time>2015-12-13T09:41:29Z</time>
      </trkpt>
      <trkpt lat="50.77092" lon="3.71919">
        <ele>100</ele>
        <time>2015-12-13T09:41:30Z</time>
      </trkpt>
      <trkpt lat="50.77089" lon="3.71918">
        <ele>99.3</ele>
        <time>2015-12-13T09:41:31Z</time>
      </trkpt>
      <trkpt lat="50.77087" lon="3.71916">
        <ele>99</ele>
        <time>2015-12-13T09:41:32Z</time>
      </trkpt>
      <trkpt lat="50.77084" lon="3.71913">
        <ele>99</ele>
        <time>2015-12-13T09:41:33Z</time>
      </trkpt>
      <trkpt lat="50.77082" lon="3.71911">
        <ele>99</ele>
        <time>2015-12-13T09:41:34Z</time>
      </trkpt>
      <trkpt lat="50.7708" lon="3.71909">
        <ele>99</ele>
        <time>2015-12-13T09:41:35Z</time>
      </trkpt>
      <trkpt lat="50.77077" lon="3.71907">
        <ele>99</ele>
        <time>2015-12-13T09:41:36Z</time>
      </trkpt>
      <trkpt lat="50.77075" lon="3.71905">
        <ele>99</ele>
        <time>2015-12-13T09:41:37Z</time>
      </trkpt>
      <trkpt lat="50.77073" lon="3.71904">
        <ele>99</ele>
        <time>2015-12-13T09:41:38Z</time>
      </trkpt>
      <trkpt lat="50.7707" lon="3.71903">
        <ele>99</ele>
        <time>2015-12-13T09:41:39Z</time>
      </trkpt>
      <trkpt lat="50.77068" lon="3.71902">
        <ele>99</ele>
        <time>2015-12-13T09:41:40Z</time>
      </trkpt>
      <trkpt lat="50.77065" lon="3.71899">
        <ele>99</ele>
        <time>2015-12-13T09:41:41Z</time>
      </trkpt>
      <trkpt lat="50.77063" lon="3.71897">
        <ele>99</ele>
        <time>2015-12-13T09:41:42Z</time>
      </trkpt>
      <trkpt lat="50.7706" lon="3.71894">
        <ele>99</ele>
        <time>2015-12-13T09:41:43Z</time>
      </trkpt>
      <trkpt lat="50.77058" lon="3.71892">
        <ele>99</ele>
        <time>2015-12-13T09:41:44Z</time>
      </trkpt>
      <trkpt lat="50.77056" lon="3.7189">
        <ele>99</ele>
        <time>2015-12-13T09:41:45Z</time>
      </trkpt>
      <trkpt lat="50.77054" lon="3.71889">
        <ele>99</ele>
        <time>2015-12-13T09:41:46Z</time>
      </trkpt>
      <trkpt lat="50.77052" lon="3.71887">
        <ele>99</ele>
        <time>2015-12-13T09:41:47Z</time>
      </trkpt>
      <trkpt lat="50.7705" lon="3.71886">
        <ele>99</ele>
        <time>2015-12-13T09:41:48Z</time>
      </trkpt>
      <trkpt lat="50.77048" lon="3.71884">
        <ele>99</ele>
        <time>2015-12-13T09:41:49Z</time>
      </trkpt>
      <trkpt lat="50.77046" lon="3.71883">
        <ele>99</ele>
        <time>2015-12-13T09:41:50Z</time>
      </trkpt>
      <trkpt lat="50.77044" lon="3.71881">
        <ele>99</ele>
        <time>2015-12-13T09:41:51Z</time>
      </trkpt>
      <trkpt lat="50.77041" lon="3.71879">
        <ele>99</ele>
        <time>2015-12-13T09:41:52Z</time>
      </trkpt>
      <trkpt lat="50.77039" lon="3.71876">
        <ele>99</ele>
        <time>2015-12-13T09:41:53Z</time>
      </trkpt>
      <trkpt lat="50.77037" lon="3.71874">
        <ele>99</ele>
        <time>2015-12-13T09:41:54Z</time>
      </trkpt>
      <trkpt lat="50.77035" lon="3.71872">
        <ele>99</ele>
        <time>2015-12-13T09:41:55Z</time>
      </trkpt>
      <trkpt lat="50.77033" lon="3.7187">
        <ele>99</ele>
        <time>2015-12-13T09:41:56Z</time>
      </trkpt>
      <trkpt lat="50.77026" lon="3.71866">
        <ele>99</ele>
        <time>2015-12-13T09:41:59Z</time>
      </trkpt>
      <trkpt lat="50.77024" lon="3.71864">
        <ele>99</ele>
        <time>2015-12-13T09:42:00Z</time>
      </trkpt>
      <trkpt lat="50.77022" lon="3.71862">
        <ele>99.5</ele>
        <time>2015-12-13T09:42:01Z</time>
      </trkpt>
      <trkpt lat="50.7702" lon="3.7186">
        <ele>100</ele>
        <time>2015-12-13T09:42:02Z</time>
      </trkpt>
      <trkpt lat="50.77017" lon="3.71859">
        <ele>100</ele>
        <time>2015-12-13T09:42:03Z</time>
      </trkpt>
      <trkpt lat="50.77015" lon="3.71857">
        <ele>100</ele>
        <time>2015-12-13T09:42:04Z</time>
      </trkpt>
      <trkpt lat="50.77013" lon="3.71855">
        <ele>100</ele>
        <time>2015-12-13T09:42:05Z</time>
      </trkpt>
      <trkpt lat="50.7701" lon="3.71852">
        <ele>100</ele>
        <time>2015-12-13T09:42:06Z</time>
      </trkpt>
      <trkpt lat="50.77008" lon="3.7185">
        <ele>100</ele>
        <time>2015-12-13T09:42:07Z</time>
      </trkpt>
      <trkpt lat="50.77006" lon="3.71849">
        <ele>100</ele>
        <time>2015-12-13T09:42:08Z</time>
      </trkpt>
      <trkpt lat="50.77003" lon="3.71848">
        <ele>100</ele>
        <time>2015-12-13T09:42:09Z</time>
      </trkpt>
      <trkpt lat="50.77001" lon="3.71846">
        <ele>100</ele>
        <time>2015-12-13T09:42:10Z</time>
      </trkpt>
      <trkpt lat="50.76999" lon="3.71845">
        <ele>100</ele>
        <time>2015-12-13T09:42:11Z</time>
      </trkpt>
      <trkpt lat="50.76997" lon="3.71843">
        <ele>100</ele>
        <time>2015-12-13T09:42:12Z</time>
      </trkpt>
      <trkpt lat="50.76995" lon="3.71842">
        <ele>100</ele>
        <time>2015-12-13T09:42:13Z</time>
      </trkpt>
      <trkpt lat="50.76993" lon="3.71841">
        <ele>100</ele>
        <time>2015-12-13T09:42:14Z</time>
      </trkpt>
      <trkpt lat="50.7699" lon="3.71839">
        <ele>100</ele>
        <time>2015-12-13T09:42:15Z</time>
      </trkpt>
      <trkpt lat="50.76988" lon="3.71835">
        <ele>100</ele>
        <time>2015-12-13T09:42:16Z</time>
      </trkpt>
      <trkpt lat="50.76986" lon="3.71833">
        <ele>100</ele>
        <time>2015-12-13T09:42:17Z</time>
      </trkpt>
      <trkpt lat="50.76983" lon="3.71831">
        <ele>100</ele>
        <time>2015-12-13T09:42:18Z</time>
      </trkpt>
      <trkpt lat="50.76981" lon="3.7183">
        <ele>100</ele>
        <time>2015-12-13T09:42:19Z</time>
      </trkpt>
      <trkpt lat="50.7698" lon="3.71828">
        <ele>100</ele>
        <time>2015-12-13T09:42:20Z</time>
      </trkpt>
      <trkpt lat="50.76978" lon="3.71826">
        <ele>100.5</ele>
        <time>2015-12-13T09:42:21Z</time>
      </trkpt>
      <trkpt lat="50.76976" lon="3.71824">
        <ele>101</ele>
        <time>2015-12-13T09:42:22Z</time>
      </trkpt>
      <trkpt lat="50.76974" lon="3.71823">
        <ele>101</ele>
        <time>2015-12-13T09:42:23Z</time>
      </trkpt>
      <trkpt lat="50.76971" lon="3.7182">
        <ele>101</ele>
        <time>2015-12-13T09:42:25Z</time>
      </trkpt>
      <trkpt lat="50.76969" lon="3.71818">
        <ele>101</ele>
        <time>2015-12-13T09:42:26Z</time>
      </trkpt>
      <trkpt lat="50.76967" lon="3.71816">
        <ele>101</ele>
        <time>2015-12-13T09:42:27Z</time>
      </trkpt>
      <trkpt lat="50.76965" lon="3.71814">
        <ele>101</ele>
        <time>2015-12-13T09:42:28Z</time>
      </trkpt>
      <trkpt lat="50.76963" lon="3.71813">
        <ele>101</ele>
        <time>2015-12-13T09:42:30Z</time>
      </trkpt>
      <trkpt lat="50.7696" lon="3.71811">
        <ele>103</ele>
        <time>2015-12-13T09:42:32Z</time>
      </trkpt>
      <trkpt lat="50.76952" lon="3.718">
        <ele>103</ele>
        <time>2015-12-13T09:42:48Z</time>
      </trkpt>
      <trkpt lat="50.76951" lon="3.71803">
        <ele>103</ele>
        <time>2015-12-13T09:42:55Z</time>
      </trkpt>
      <trkpt lat="50.76954" lon="3.71798">
        <ele>103</ele>
        <time>2015-12-13T09:43:00Z</time>
      </trkpt>
      <trkpt lat="50.76956" lon="3.71796">
        <ele>102</ele>
        <time>2015-12-13T09:43:02Z</time>
      </trkpt>
      <trkpt lat="50.76959" lon="3.7179">
        <ele>102</ele>
        <time>2015-12-13T09:43:10Z</time>
      </trkpt>
      <trkpt lat="50.76959" lon="3.71787">
        <ele>102</ele>
        <time>2015-12-13T09:43:13Z</time>
      </trkpt>
      <trkpt lat="50.76955" lon="3.71784">
        <ele>102</ele>
        <time>2015-12-13T09:43:19Z</time>
      </trkpt>
      <trkpt lat="50.76953" lon="3.71783">
        <ele>102</ele>
        <time>2015-12-13T09:43:20Z</time>
      </trkpt>
      <trkpt lat="50.76952" lon="3.71781">
        <ele>102</ele>
        <time>2015-12-13T09:43:22Z</time>
      </trkpt>
      <trkpt lat="50.76949" lon="3.71775">
        <ele>102.7</ele>
        <time>2015-12-13T09:43:31Z</time>
      </trkpt>
      <trkpt lat="50.76947" lon="3.71773">
        <ele>103</ele>
        <time>2015-12-13T09:43:33Z</time>
      </trkpt>
      <trkpt lat="50.76945" lon="3.71772">
        <ele>103</ele>
        <time>2015-12-13T09:43:35Z</time>
      </trkpt>
      <trkpt lat="50.76944" lon="3.71768">
        <ele>103</ele>
        <time>2015-12-13T09:43:37Z</time>
      </trkpt>
      <trkpt lat="50.76942" lon="3.71764">
        <ele>103</ele>
        <time>2015-12-13T09:43:39Z</time>
      </trkpt>
      <trkpt lat="50.76941" lon="3.71761">
        <ele>103</ele>
        <time>2015-12-13T09:43:40Z</time>
      </trkpt>
      <trkpt lat="50.76938" lon="3.71757">
        <ele>103</ele>
        <time>2015-12-13T09:43:42Z</time>
      </trkpt>
      <trkpt lat="50.76936" lon="3.71755">
        <ele>103</ele>
        <time>2015-12-13T09:43:44Z</time>
      </trkpt>
      <trkpt lat="50.76935" lon="3.71754">
        <ele>103</ele>
        <time>2015-12-13T09:43:46Z</time>
      </trkpt>
      <trkpt lat="50.76933" lon="3.71751">
        <ele>103</ele>
        <time>2015-12-13T09:43:48Z</time>
      </trkpt>
      <trkpt lat="50.76933" lon="3.71748">
        <ele>103</ele>
        <time>2015-12-13T09:43:50Z</time>
      </trkpt>
      <trkpt lat="50.76931" lon="3.71745">
        <ele>102</ele>
        <time>2015-12-13T09:43:52Z</time>
      </trkpt>
      <trkpt lat="50.7693" lon="3.71741">
        <ele>102</ele>
        <time>2015-12-13T09:43:54Z</time>
      </trkpt>
      <trkpt lat="50.76929" lon="3.71738">
        <ele>102</ele>
        <time>2015-12-13T09:43:56Z</time>
      </trkpt>
      <trkpt lat="50.76927" lon="3.71734">
        <ele>102</ele>
        <time>2015-12-13T09:43:59Z</time>
      </trkpt>
      <trkpt lat="50.76927" lon="3.7173">
        <ele>103.4</ele>
        <time>2015-12-13T09:44:01Z</time>
      </trkpt>
      <trkpt lat="50.76928" lon="3.71725">
        <ele>104</ele>
        <time>2015-12-13T09:44:03Z</time>
      </trkpt>
      <trkpt lat="50.76931" lon="3.7172">
        <ele>104</ele>
        <time>2015-12-13T09:44:05Z</time>
      </trkpt>
      <trkpt lat="50.76933" lon="3.71717">
        <ele>104</ele>
        <time>2015-12-13T09:44:06Z</time>
      </trkpt>
      <trkpt lat="50.76934" lon="3.71715">
        <ele>104</ele>
        <time>2015-12-13T09:44:07Z</time>
      </trkpt>
      <trkpt lat="50.76938" lon="3.71701">
        <ele>104</ele>
        <time>2015-12-13T09:44:12Z</time>
      </trkpt>
      <trkpt lat="50.76942" lon="3.71695">
        <ele>104</ele>
        <time>2015-12-13T09:44:15Z</time>
      </trkpt>
      <trkpt lat="50.76941" lon="3.71692">
        <ele>104</ele>
        <time>2015-12-13T09:44:16Z</time>
      </trkpt>
      <trkpt lat="50.76941" lon="3.71687">
        <ele>104</ele>
        <time>2015-12-13T09:44:18Z</time>
      </trkpt>
      <trkpt lat="50.7694" lon="3.71682">
        <ele>104</ele>
        <time>2015-12-13T09:44:20Z</time>
      </trkpt>
      <trkpt lat="50.76939" lon="3.71677">
        <ele>105</ele>
        <time>2015-12-13T09:44:22Z</time>
      </trkpt>
      <trkpt lat="50.76939" lon="3.71674">
        <ele>105</ele>
        <time>2015-12-13T09:44:24Z</time>
      </trkpt>
      <trkpt lat="50.76938" lon="3.71669">
        <ele>105</ele>
        <time>2015-12-13T09:44:26Z</time>
      </trkpt>
      <trkpt lat="50.76937" lon="3.71664">
        <ele>105</ele>
        <time>2015-12-13T09:44:28Z</time>
      </trkpt>
      <trkpt lat="50.76937" lon="3.71661">
        <ele>105</ele>
        <time>2015-12-13T09:44:30Z</time>
      </trkpt>
      <trkpt lat="50.76936" lon="3.71658">
        <ele>105</ele>
        <time>2015-12-13T09:44:33Z</time>
      </trkpt>
      <trkpt lat="50.76935" lon="3.71655">
        <ele>105</ele>
        <time>2015-12-13T09:44:35Z</time>
      </trkpt>
      <trkpt lat="50.76933" lon="3.71652">
        <ele>105</ele>
        <time>2015-12-13T09:44:37Z</time>
      </trkpt>
      <trkpt lat="50.76932" lon="3.71649">
        <ele>105</ele>
        <time>2015-12-13T09:44:39Z</time>
      </trkpt>
      <trkpt lat="50.7693" lon="3.71646">
        <ele>105</ele>
        <time>2015-12-13T09:44:41Z</time>
      </trkpt>
      <trkpt lat="50.76929" lon="3.71642">
        <ele>106</ele>
        <time>2015-12-13T09:44:43Z</time>
      </trkpt>
      <trkpt lat="50.76927" lon="3.7164">
        <ele>106</ele>
        <time>2015-12-13T09:44:45Z</time>
      </trkpt>
      <trkpt lat="50.76925" lon="3.71638">
        <ele>106</ele>
        <time>2015-12-13T09:44:47Z</time>
      </trkpt>
      <trkpt lat="50.76924" lon="3.71634">
        <ele>106</ele>
        <time>2015-12-13T09:44:50Z</time>
      </trkpt>
      <trkpt lat="50.76923" lon="3.71629">
        <ele>106</ele>
        <time>2015-12-13T09:44:52Z</time>
      </trkpt>
      <trkpt lat="50.76921" lon="3.71624">
        <ele>106</ele>
        <time>2015-12-13T09:44:54Z</time>
      </trkpt>
      <trkpt lat="50.7692" lon="3.71621">
        <ele>106</ele>
        <time>2015-12-13T09:44:56Z</time>
      </trkpt>
      <trkpt lat="50.76918" lon="3.71618">
        <ele>106</ele>
        <time>2015-12-13T09:44:58Z</time>
      </trkpt>
      <trkpt lat="50.76917" lon="3.71615">
        <ele>106</ele>
        <time>2015-12-13T09:45:00Z</time>
      </trkpt>
      <trkpt lat="50.76916" lon="3.71611">
        <ele>109</ele>
        <time>2015-12-13T09:45:02Z</time>
      </trkpt>
      <trkpt lat="50.76914" lon="3.71608">
        <ele>109</ele>
        <time>2015-12-13T09:45:04Z</time>
      </trkpt>
      <trkpt lat="50.76913" lon="3.71604">
        <ele>109</ele>
        <time>2015-12-13T09:45:06Z</time>
      </trkpt>
      <trkpt lat="50.76911" lon="3.716">
        <ele>109</ele>
        <time>2015-12-13T09:45:08Z</time>
      </trkpt>
      <trkpt lat="50.76909" lon="3.71597">
        <ele>109</ele>
        <time>2015-12-13T09:45:10Z</time>
      </trkpt>
      <trkpt lat="50.76908" lon="3.71592">
        <ele>109</ele>
        <time>2015-12-13T09:45:12Z</time>
      </trkpt>
      <trkpt lat="50.76908" lon="3.71589">
        <ele>109</ele>
        <time>2015-12-13T09:45:13Z</time>
      </trkpt>
      <trkpt lat="50.76909" lon="3.71586">
        <ele>109</ele>
        <time>2015-12-13T09:45:14Z</time>
      </trkpt>
      <trkpt lat="50.76908" lon="3.71582">
        <ele>109</ele>
        <time>2015-12-13T09:45:16Z</time>
      </trkpt>
      <trkpt lat="50.76908" lon="3.71579">
        <ele>109</ele>
        <time>2015-12-13T09:45:18Z</time>
      </trkpt>
      <trkpt lat="50.76906" lon="3.71576">
        <ele>109</ele>
        <time>2015-12-13T09:45:20Z</time>
      </trkpt>
      <trkpt lat="50.76906" lon="3.71572">
        <ele>110</ele>
        <time>2015-12-13T09:45:22Z</time>
      </trkpt>
      <trkpt lat="50.76906" lon="3.71568">
        <ele>110</ele>
        <time>2015-12-13T09:45:24Z</time>
      </trkpt>
      <trkpt lat="50.76907" lon="3.71564">
        <ele>110</ele>
        <time>2015-12-13T09:45:26Z</time>
      </trkpt>
      <trkpt lat="50.76907" lon="3.71559">
        <ele>110</ele>
        <time>2015-12-13T09:45:28Z</time>
      </trkpt>
      <trkpt lat="50.76907" lon="3.71556">
        <ele>110</ele>
        <time>2015-12-13T09:45:29Z</time>
      </trkpt>
      <trkpt lat="50.76908" lon="3.71553">
        <ele>110</ele>
        <time>2015-12-13T09:45:30Z</time>
      </trkpt>
      <trkpt lat="50.7691" lon="3.71537">
        <ele>112</ele>
        <time>2015-12-13T09:45:36Z</time>
      </trkpt>
      <trkpt lat="50.76911" lon="3.71535">
        <ele>112</ele>
        <time>2015-12-13T09:45:39Z</time>
      </trkpt>
      <trkpt lat="50.76911" lon="3.7153">
        <ele>114</ele>
        <time>2015-12-13T09:45:42Z</time>
      </trkpt>
      <trkpt lat="50.76912" lon="3.71526">
        <ele>114</ele>
        <time>2015-12-13T09:45:44Z</time>
      </trkpt>
      <trkpt lat="50.76911" lon="3.71524">
        <ele>114</ele>
        <time>2015-12-13T09:45:46Z</time>
      </trkpt>
      <trkpt lat="50.76911" lon="3.71519">
        <ele>114</ele>
        <time>2015-12-13T09:45:48Z</time>
      </trkpt>
      <trkpt lat="50.76911" lon="3.71516">
        <ele>114</ele>
        <time>2015-12-13T09:45:50Z</time>
      </trkpt>
      <trkpt lat="50.76911" lon="3.71512">
        <ele>115</ele>
        <time>2015-12-13T09:45:52Z</time>
      </trkpt>
      <trkpt lat="50.7691" lon="3.71508">
        <ele>115</ele>
        <time>2015-12-13T09:45:54Z</time>
      </trkpt>
      <trkpt lat="50.76909" lon="3.71503">
        <ele>115</ele>
        <time>2015-12-13T09:45:56Z</time>
      </trkpt>
      <trkpt lat="50.76908" lon="3.71499">
        <ele>115</ele>
        <time>2015-12-13T09:45:58Z</time>
      </trkpt>
      <trkpt lat="50.76907" lon="3.71491">
        <ele>117</ele>
        <time>2015-12-13T09:46:02Z</time>
      </trkpt>
      <trkpt lat="50.76905" lon="3.71489">
        <ele>117</ele>
        <time>2015-12-13T09:46:03Z</time>
      </trkpt>
      <trkpt lat="50.76903" lon="3.71485">
        <ele>117</ele>
        <time>2015-12-13T09:46:05Z</time>
      </trkpt>
      <trkpt lat="50.76903" lon="3.71481">
        <ele>117</ele>
        <time>2015-12-13T09:46:07Z</time>
      </trkpt>
      <trkpt lat="50.76901" lon="3.71479">
        <ele>117</ele>
        <time>2015-12-13T09:46:09Z</time>
      </trkpt>
      <trkpt lat="50.769" lon="3.71476">
        <ele>118</ele>
        <time>2015-12-13T09:46:14Z</time>
      </trkpt>
      <trkpt lat="50.76899" lon="3.71473">
        <ele>118.5</ele>
        <time>2015-12-13T09:46:18Z</time>
      </trkpt>
      <trkpt lat="50.76896" lon="3.71472">
        <ele>119</ele>
        <time>2015-12-13T09:46:22Z</time>
      </trkpt>
      <trkpt lat="50.76894" lon="3.71468">
        <ele>119</ele>
        <time>2015-12-13T09:46:24Z</time>
      </trkpt>
      <trkpt lat="50.76895" lon="3.71463">
        <ele>119</ele>
        <time>2015-12-13T09:46:26Z</time>
      </trkpt>
      <trkpt lat="50.76895" lon="3.71457">
        <ele>119</ele>
        <time>2015-12-13T09:46:28Z</time>
      </trkpt>
      <trkpt lat="50.76895" lon="3.71454">
        <ele>119</ele>
        <time>2015-12-13T09:46:29Z</time>
      </trkpt>
      <trkpt lat="50.76896" lon="3.71451">
        <ele>119</ele>
        <time>2015-12-13T09:46:30Z</time>
      </trkpt>
      <trkpt lat="50.76896" lon="3.71448">
        <ele>119</ele>
        <time>2015-12-13T09:46:31Z</time>
      </trkpt>
      <trkpt lat="50.76897" lon="3.71443">
        <ele>119</ele>
        <time>2015-12-13T09:46:33Z</time>
      </trkpt>
      <trkpt lat="50.76898" lon="3.71439">
        <ele>119</ele>
        <time>2015-12-13T09:46:35Z</time>
      </trkpt>
      <trkpt lat="50.76897" lon="3.71435">
        <ele>119</ele>
        <time>2015-12-13T09:46:37Z</time>
      </trkpt>
      <trkpt lat="50.76898" lon="3.71432">
        <ele>119</ele>
        <time>2015-12-13T09:46:39Z</time>
      </trkpt>
      <trkpt lat="50.76898" lon="3.71429">
        <ele>122</ele>
        <time>2015-12-13T09:46:42Z</time>
      </trkpt>
      <trkpt lat="50.76898" lon="3.71426">
        <ele>122</ele>
        <time>2015-12-13T09:46:44Z</time>
      </trkpt>
      <trkpt lat="50.76896" lon="3.71422">
        <ele>122.5</ele>
        <time>2015-12-13T09:46:46Z</time>
      </trkpt>
      <trkpt lat="50.76893" lon="3.71419">
        <ele>123</ele>
        <time>2015-12-13T09:46:48Z</time>
      </trkpt>
      <trkpt lat="50.76892" lon="3.71416">
        <ele>123.7</ele>
        <time>2015-12-13T09:46:51Z</time>
      </trkpt>
      <trkpt lat="50.76892" lon="3.71412">
        <ele>124</ele>
        <time>2015-12-13T09:46:53Z</time>
      </trkpt>
      <trkpt lat="50.7689" lon="3.7141">
        <ele>124</ele>
        <time>2015-12-13T09:46:55Z</time>
      </trkpt>
      <trkpt lat="50.7689" lon="3.71407">
        <ele>124</ele>
        <time>2015-12-13T09:46:57Z</time>
      </trkpt>
      <trkpt lat="50.7689" lon="3.71405">
        <ele>124</ele>
        <time>2015-12-13T09:46:58Z</time>
      </trkpt>
      <trkpt lat="50.7689" lon="3.71401">
        <ele>124</ele>
        <time>2015-12-13T09:46:59Z</time>
      </trkpt>
      <trkpt lat="50.76891" lon="3.71397">
        <ele>127.4</ele>
        <time>2015-12-13T09:47:01Z</time>
      </trkpt>
      <trkpt lat="50.76892" lon="3.71392">
        <ele>129</ele>
        <time>2015-12-13T09:47:04Z</time>
      </trkpt>
      <trkpt lat="50.76889" lon="3.7139">
        <ele>129.5</ele>
        <time>2015-12-13T09:47:07Z</time>
      </trkpt>
      <trkpt lat="50.76888" lon="3.71386">
        <ele>130</ele>
        <time>2015-12-13T09:47:11Z</time>
      </trkpt>
      <trkpt lat="50.76887" lon="3.71383">
        <ele>130</ele>
        <time>2015-12-13T09:47:14Z</time>
      </trkpt>
      <trkpt lat="50.76887" lon="3.71374">
        <ele>132</ele>
        <time>2015-12-13T09:47:25Z</time>
      </trkpt>
      <trkpt lat="50.76886" lon="3.71371">
        <ele>132</ele>
        <time>2015-12-13T09:47:28Z</time>
      </trkpt>
      <trkpt lat="50.76885" lon="3.71367">
        <ele>132</ele>
        <time>2015-12-13T09:47:30Z</time>
      </trkpt>
      <trkpt lat="50.76884" lon="3.71364">
        <ele>132</ele>
        <time>2015-12-13T09:47:32Z</time>
      </trkpt>
      <trkpt lat="50.76884" lon="3.7136">
        <ele>132</ele>
        <time>2015-12-13T09:47:34Z</time>
      </trkpt>
      <trkpt lat="50.76884" lon="3.71355">
        <ele>132</ele>
        <time>2015-12-13T09:47:36Z</time>
      </trkpt>
      <trkpt lat="50.76884" lon="3.71351">
        <ele>132</ele>
        <time>2015-12-13T09:47:38Z</time>
      </trkpt>
      <trkpt lat="50.76885" lon="3.71348">
        <ele>132</ele>
        <time>2015-12-13T09:47:40Z</time>
      </trkpt>
      <trkpt lat="50.76884" lon="3.71344">
        <ele>133</ele>
        <time>2015-12-13T09:47:43Z</time>
      </trkpt>
      <trkpt lat="50.76883" lon="3.7134">
        <ele>133</ele>
        <time>2015-12-13T09:47:47Z</time>
      </trkpt>
      <trkpt lat="50.76882" lon="3.71336">
        <ele>133</ele>
        <time>2015-12-13T09:47:50Z</time>
      </trkpt>
      <trkpt lat="50.76881" lon="3.71331">
        <ele>133</ele>
        <time>2015-12-13T09:47:52Z</time>
      </trkpt>
      <trkpt lat="50.76879" lon="3.71327">
        <ele>133</ele>
        <time>2015-12-13T09:47:54Z</time>
      </trkpt>
      <trkpt lat="50.76877" lon="3.71326">
        <ele>133</ele>
        <time>2015-12-13T09:47:56Z</time>
      </trkpt>
      <trkpt lat="50.76874" lon="3.71325">
        <ele>133</ele>
        <time>2015-12-13T09:47:58Z</time>
      </trkpt>
      <trkpt lat="50.76872" lon="3.71324">
        <ele>133</ele>
        <time>2015-12-13T09:47:59Z</time>
      </trkpt>
      <trkpt lat="50.76872" lon="3.71319">
        <ele>131.9</ele>
        <time>2015-12-13T09:48:01Z</time>
      </trkpt>
      <trkpt lat="50.76872" lon="3.71316">
        <ele>131</ele>
        <time>2015-12-13T09:48:02Z</time>
      </trkpt>
      <trkpt lat="50.76873" lon="3.71313">
        <ele>131</ele>
        <time>2015-12-13T09:48:03Z</time>
      </trkpt>
      <trkpt lat="50.76874" lon="3.71309">
        <ele>131</ele>
        <time>2015-12-13T09:48:04Z</time>
      </trkpt>
      <trkpt lat="50.76875" lon="3.71306">
        <ele>131</ele>
        <time>2015-12-13T09:48:05Z</time>
      </trkpt>
      <trkpt lat="50.76875" lon="3.71302">
        <ele>131</ele>
        <time>2015-12-13T09:48:06Z</time>
      </trkpt>
      <trkpt lat="50.76875" lon="3.71298">
        <ele>131</ele>
        <time>2015-12-13T09:48:07Z</time>
      </trkpt>
      <trkpt lat="50.76876" lon="3.71294">
        <ele>131</ele>
        <time>2015-12-13T09:48:08Z</time>
      </trkpt>
      <trkpt lat="50.76876" lon="3.71291">
        <ele>131</ele>
        <time>2015-12-13T09:48:09Z</time>
      </trkpt>
      <trkpt lat="50.76877" lon="3.71288">
        <ele>131</ele>
        <time>2015-12-13T09:48:10Z</time>
      </trkpt>
      <trkpt lat="50.76878" lon="3.71285">
        <ele>131.7</ele>
        <time>2015-12-13T09:48:11Z</time>
      </trkpt>
      <trkpt lat="50.76879" lon="3.71282">
        <ele>132</ele>
        <time>2015-12-13T09:48:12Z</time>
      </trkpt>
      <trkpt lat="50.7688" lon="3.71279">
        <ele>132</ele>
        <time>2015-12-13T09:48:13Z</time>
      </trkpt>
      <trkpt lat="50.76881" lon="3.71276">
        <ele>132</ele>
        <time>2015-12-13T09:48:14Z</time>
      </trkpt>
      <trkpt lat="50.76883" lon="3.71273">
        <ele>132</ele>
        <time>2015-12-13T09:48:15Z</time>
      </trkpt>
      <trkpt lat="50.76885" lon="3.7127">
        <ele>132</ele>
        <time>2015-12-13T09:48:16Z</time>
      </trkpt>
      <trkpt lat="50.76886" lon="3.71267">
        <ele>132</ele>
        <time>2015-12-13T09:48:17Z</time>
      </trkpt>
      <trkpt lat="50.76887" lon="3.71263">
        <ele>132</ele>
        <time>2015-12-13T09:48:18Z</time>
      </trkpt>
      <trkpt lat="50.76887" lon="3.7126">
        <ele>132</ele>
        <time>2015-12-13T09:48:19Z</time>
      </trkpt>
      <trkpt lat="50.76887" lon="3.71256">
        <ele>132</ele>
        <time>2015-12-13T09:48:20Z</time>
      </trkpt>
      <trkpt lat="50.76886" lon="3.71254">
        <ele>132</ele>
        <time>2015-12-13T09:48:21Z</time>
      </trkpt>
      <trkpt lat="50.76887" lon="3.71248">
        <ele>132</ele>
        <time>2015-12-13T09:48:23Z</time>
      </trkpt>
      <trkpt lat="50.76887" lon="3.71245">
        <ele>132</ele>
        <time>2015-12-13T09:48:24Z</time>
      </trkpt>
      <trkpt lat="50.76886" lon="3.7124">
        <ele>132</ele>
        <time>2015-12-13T09:48:26Z</time>
      </trkpt>
      <trkpt lat="50.76885" lon="3.71237">
        <ele>132</ele>
        <time>2015-12-13T09:48:27Z</time>
      </trkpt>
      <trkpt lat="50.76885" lon="3.71233">
        <ele>132</ele>
        <time>2015-12-13T09:48:28Z</time>
      </trkpt>
      <trkpt lat="50.76884" lon="3.71229">
        <ele>132</ele>
        <time>2015-12-13T09:48:29Z</time>
      </trkpt>
      <trkpt lat="50.76883" lon="3.71223">
        <ele>130.6</ele>
        <time>2015-12-13T09:48:31Z</time>
      </trkpt>
      <trkpt lat="50.76881" lon="3.71221">
        <ele>130</ele>
        <time>2015-12-13T09:48:33Z</time>
      </trkpt>
      <trkpt lat="50.76879" lon="3.71221">
        <ele>130</ele>
        <time>2015-12-13T09:48:34Z</time>
      </trkpt>
      <trkpt lat="50.76877" lon="3.71219">
        <ele>130</ele>
        <time>2015-12-13T09:48:35Z</time>
      </trkpt>
      <trkpt lat="50.76876" lon="3.71217">
        <ele>130</ele>
        <time>2015-12-13T09:48:36Z</time>
      </trkpt>
      <trkpt lat="50.76875" lon="3.71214">
        <ele>130</ele>
        <time>2015-12-13T09:48:37Z</time>
      </trkpt>
      <trkpt lat="50.76873" lon="3.71212">
        <ele>130</ele>
        <time>2015-12-13T09:48:38Z</time>
      </trkpt>
      <trkpt lat="50.76871" lon="3.71211">
        <ele>130</ele>
        <time>2015-12-13T09:48:39Z</time>
      </trkpt>
      <trkpt lat="50.7687" lon="3.71209">
        <ele>130</ele>
        <time>2015-12-13T09:48:40Z</time>
      </trkpt>
      <trkpt lat="50.76868" lon="3.71206">
        <ele>129.5</ele>
        <time>2015-12-13T09:48:41Z</time>
      </trkpt>
      <trkpt lat="50.76867" lon="3.71204">
        <ele>129</ele>
        <time>2015-12-13T09:48:42Z</time>
      </trkpt>
      <trkpt lat="50.76865" lon="3.71201">
        <ele>129</ele>
        <time>2015-12-13T09:48:43Z</time>
      </trkpt>
      <trkpt lat="50.76863" lon="3.71199">
        <ele>129</ele>
        <time>2015-12-13T09:48:44Z</time>
      </trkpt>
      <trkpt lat="50.76861" lon="3.71198">
        <ele>129</ele>
        <time>2015-12-13T09:48:45Z</time>
      </trkpt>
      <trkpt lat="50.76859" lon="3.71196">
        <ele>129</ele>
        <time>2015-12-13T09:48:47Z</time>
      </trkpt>
      <trkpt lat="50.76857" lon="3.71194">
        <ele>129</ele>
        <time>2015-12-13T09:48:49Z</time>
      </trkpt>
      <trkpt lat="50.76856" lon="3.71191">
        <ele>129</ele>
        <time>2015-12-13T09:48:50Z</time>
      </trkpt>
      <trkpt lat="50.76856" lon="3.71187">
        <ele>129</ele>
        <time>2015-12-13T09:48:51Z</time>
      </trkpt>
      <trkpt lat="50.76856" lon="3.71184">
        <ele>129</ele>
        <time>2015-12-13T09:48:52Z</time>
      </trkpt>
      <trkpt lat="50.76855" lon="3.71181">
        <ele>129</ele>
        <time>2015-12-13T09:48:53Z</time>
      </trkpt>
      <trkpt lat="50.76855" lon="3.71178">
        <ele>129</ele>
        <time>2015-12-13T09:48:54Z</time>
      </trkpt>
      <trkpt lat="50.76854" lon="3.71175">
        <ele>129</ele>
        <time>2015-12-13T09:48:55Z</time>
      </trkpt>
      <trkpt lat="50.76853" lon="3.7117">
        <ele>129</ele>
        <time>2015-12-13T09:48:57Z</time>
      </trkpt>
      <trkpt lat="50.76852" lon="3.71167">
        <ele>129</ele>
        <time>2015-12-13T09:48:58Z</time>
      </trkpt>
      <trkpt lat="50.76851" lon="3.71164">
        <ele>129</ele>
        <time>2015-12-13T09:48:59Z</time>
      </trkpt>
      <trkpt lat="50.7685" lon="3.71161">
        <ele>129</ele>
        <time>2015-12-13T09:49:00Z</time>
      </trkpt>
      <trkpt lat="50.76849" lon="3.71157">
        <ele>129</ele>
        <time>2015-12-13T09:49:01Z</time>
      </trkpt>
      <trkpt lat="50.76849" lon="3.71152">
        <ele>122.9</ele>
        <time>2015-12-13T09:49:02Z</time>
      </trkpt>
      <trkpt lat="50.76848" lon="3.71148">
        <ele>120</ele>
        <time>2015-12-13T09:49:03Z</time>
      </trkpt>
      <trkpt lat="50.76847" lon="3.71144">
        <ele>119.3</ele>
        <time>2015-12-13T09:49:04Z</time>
      </trkpt>
      <trkpt lat="50.76846" lon="3.7114">
        <ele>119</ele>
        <time>2015-12-13T09:49:05Z</time>
      </trkpt>
      <trkpt lat="50.76845" lon="3.71138">
        <ele>119</ele>
        <time>2015-12-13T09:49:06Z</time>
      </trkpt>
      <trkpt lat="50.76844" lon="3.71133">
        <ele>119</ele>
        <time>2015-12-13T09:49:08Z</time>
      </trkpt>
      <trkpt lat="50.76843" lon="3.71127">
        <ele>119</ele>
        <time>2015-12-13T09:49:10Z</time>
      </trkpt>
      <trkpt lat="50.76843" lon="3.71123">
        <ele>119</ele>
        <time>2015-12-13T09:49:11Z</time>
      </trkpt>
      <trkpt lat="50.76842" lon="3.7112">
        <ele>119</ele>
        <time>2015-12-13T09:49:12Z</time>
      </trkpt>
      <trkpt lat="50.76843" lon="3.71115">
        <ele>119</ele>
        <time>2015-12-13T09:49:14Z</time>
      </trkpt>
      <trkpt lat="50.76843" lon="3.71111">
        <ele>119</ele>
        <time>2015-12-13T09:49:15Z</time>
      </trkpt>
      <trkpt lat="50.76843" lon="3.71108">
        <ele>119</ele>
        <time>2015-12-13T09:49:16Z</time>
      </trkpt>
      <trkpt lat="50.76843" lon="3.71103">
        <ele>119</ele>
        <time>2015-12-13T09:49:17Z</time>
      </trkpt>
      <trkpt lat="50.76843" lon="3.71099">
        <ele>119</ele>
        <time>2015-12-13T09:49:18Z</time>
      </trkpt>
      <trkpt lat="50.76843" lon="3.71095">
        <ele>119</ele>
        <time>2015-12-13T09:49:19Z</time>
      </trkpt>
      <trkpt lat="50.76843" lon="3.71091">
        <ele>119</ele>
        <time>2015-12-13T09:49:20Z</time>
      </trkpt>
      <trkpt lat="50.76843" lon="3.71088">
        <ele>119</ele>
        <time>2015-12-13T09:49:21Z</time>
      </trkpt>
      <trkpt lat="50.76844" lon="3.71083">
        <ele>120</ele>
        <time>2015-12-13T09:49:23Z</time>
      </trkpt>
      <trkpt lat="50.76845" lon="3.71079">
        <ele>120</ele>
        <time>2015-12-13T09:49:25Z</time>
      </trkpt>
      <trkpt lat="50.76846" lon="3.71075">
        <ele>120</ele>
        <time>2015-12-13T09:49:27Z</time>
      </trkpt>
      <trkpt lat="50.76846" lon="3.71072">
        <ele>120</ele>
        <time>2015-12-13T09:49:29Z</time>
      </trkpt>
      <trkpt lat="50.76844" lon="3.7107">
        <ele>120</ele>
        <time>2015-12-13T09:49:32Z</time>
      </trkpt>
      <trkpt lat="50.76842" lon="3.71069">
        <ele>120</ele>
        <time>2015-12-13T09:49:34Z</time>
      </trkpt>
      <trkpt lat="50.7684" lon="3.71069">
        <ele>120</ele>
        <time>2015-12-13T09:49:36Z</time>
      </trkpt>
      <trkpt lat="50.76837" lon="3.71069">
        <ele>120</ele>
        <time>2015-12-13T09:49:38Z</time>
      </trkpt>
      <trkpt lat="50.76835" lon="3.71068">
        <ele>120</ele>
        <time>2015-12-13T09:49:40Z</time>
      </trkpt>
      <trkpt lat="50.76833" lon="3.71069">
        <ele>121.4</ele>
        <time>2015-12-13T09:49:42Z</time>
      </trkpt>
      <trkpt lat="50.7683" lon="3.71067">
        <ele>122</ele>
        <time>2015-12-13T09:49:44Z</time>
      </trkpt>
      <trkpt lat="50.76828" lon="3.71065">
        <ele>122</ele>
        <time>2015-12-13T09:49:46Z</time>
      </trkpt>
      <trkpt lat="50.76825" lon="3.71061">
        <ele>122</ele>
        <time>2015-12-13T09:49:48Z</time>
      </trkpt>
      <trkpt lat="50.76823" lon="3.71058">
        <ele>122</ele>
        <time>2015-12-13T09:49:50Z</time>
      </trkpt>
      <trkpt lat="50.76821" lon="3.71057">
        <ele>123.4</ele>
        <time>2015-12-13T09:49:52Z</time>
      </trkpt>
      <trkpt lat="50.76819" lon="3.71055">
        <ele>124</ele>
        <time>2015-12-13T09:49:54Z</time>
      </trkpt>
      <trkpt lat="50.76817" lon="3.71053">
        <ele>124</ele>
        <time>2015-12-13T09:49:56Z</time>
      </trkpt>
      <trkpt lat="50.76815" lon="3.71051">
        <ele>124</ele>
        <time>2015-12-13T09:49:58Z</time>
      </trkpt>
      <trkpt lat="50.76812" lon="3.71049">
        <ele>124</ele>
        <time>2015-12-13T09:50:00Z</time>
      </trkpt>
      <trkpt lat="50.7681" lon="3.71047">
        <ele>124</ele>
        <time>2015-12-13T09:50:02Z</time>
      </trkpt>
      <trkpt lat="50.76808" lon="3.71047">
        <ele>124</ele>
        <time>2015-12-13T09:50:04Z</time>
      </trkpt>
      <trkpt lat="50.76806" lon="3.71047">
        <ele>124</ele>
        <time>2015-12-13T09:50:06Z</time>
      </trkpt>
      <trkpt lat="50.76803" lon="3.71047">
        <ele>124</ele>
        <time>2015-12-13T09:50:08Z</time>
      </trkpt>
      <trkpt lat="50.76801" lon="3.71047">
        <ele>124</ele>
        <time>2015-12-13T09:50:10Z</time>
      </trkpt>
      <trkpt lat="50.76799" lon="3.71048">
        <ele>129.7</ele>
        <time>2015-12-13T09:50:12Z</time>
      </trkpt>
      <trkpt lat="50.76797" lon="3.71047">
        <ele>130</ele>
        <time>2015-12-13T09:50:14Z</time>
      </trkpt>
      <trkpt lat="50.76795" lon="3.71044">
        <ele>130</ele>
        <time>2015-12-13T09:50:16Z</time>
      </trkpt>
      <trkpt lat="50.76794" lon="3.7104">
        <ele>130</ele>
        <time>2015-12-13T09:50:18Z</time>
      </trkpt>
      <trkpt lat="50.76792" lon="3.71038">
        <ele>130</ele>
        <time>2015-12-13T09:50:20Z</time>
      </trkpt>
      <trkpt lat="50.7679" lon="3.71034">
        <ele>130</ele>
        <time>2015-12-13T09:50:22Z</time>
      </trkpt>
      <trkpt lat="50.76788" lon="3.71031">
        <ele>130</ele>
        <time>2015-12-13T09:50:24Z</time>
      </trkpt>
      <trkpt lat="50.76785" lon="3.71028">
        <ele>130</ele>
        <time>2015-12-13T09:50:26Z</time>
      </trkpt>
      <trkpt lat="50.76784" lon="3.71024">
        <ele>130</ele>
        <time>2015-12-13T09:50:28Z</time>
      </trkpt>
      <trkpt lat="50.76782" lon="3.71021">
        <ele>130</ele>
        <time>2015-12-13T09:50:30Z</time>
      </trkpt>
      <trkpt lat="50.76781" lon="3.71019">
        <ele>130</ele>
        <time>2015-12-13T09:50:32Z</time>
      </trkpt>
      <trkpt lat="50.76778" lon="3.71015">
        <ele>132</ele>
        <time>2015-12-13T09:50:53Z</time>
      </trkpt>
      <trkpt lat="50.76776" lon="3.71014">
        <ele>132</ele>
        <time>2015-12-13T09:50:55Z</time>
      </trkpt>
      <trkpt lat="50.76774" lon="3.71011">
        <ele>132</ele>
        <time>2015-12-13T09:50:57Z</time>
      </trkpt>
      <trkpt lat="50.76772" lon="3.7101">
        <ele>132</ele>
        <time>2015-12-13T09:50:59Z</time>
      </trkpt>
      <trkpt lat="50.76771" lon="3.71009">
        <ele>131.3</ele>
        <time>2015-12-13T09:51:01Z</time>
      </trkpt>
      <trkpt lat="50.76768" lon="3.71007">
        <ele>131</ele>
        <time>2015-12-13T09:51:03Z</time>
      </trkpt>
      <trkpt lat="50.76767" lon="3.71005">
        <ele>131</ele>
        <time>2015-12-13T09:51:05Z</time>
      </trkpt>
      <trkpt lat="50.76765" lon="3.71003">
        <ele>131</ele>
        <time>2015-12-13T09:51:07Z</time>
      </trkpt>
      <trkpt lat="50.76763" lon="3.71001">
        <ele>131</ele>
        <time>2015-12-13T09:51:11Z</time>
      </trkpt>
      <trkpt lat="50.76761" lon="3.71001">
        <ele>131</ele>
        <time>2015-12-13T09:51:13Z</time>
      </trkpt>
      <trkpt lat="50.76759" lon="3.71001">
        <ele>131</ele>
        <time>2015-12-13T09:51:15Z</time>
      </trkpt>
      <trkpt lat="50.76757" lon="3.70999">
        <ele>131</ele>
        <time>2015-12-13T09:51:17Z</time>
      </trkpt>
      <trkpt lat="50.76755" lon="3.70997">
        <ele>131</ele>
        <time>2015-12-13T09:51:19Z</time>
      </trkpt>
      <trkpt lat="50.76753" lon="3.70994">
        <ele>131.7</ele>
        <time>2015-12-13T09:51:21Z</time>
      </trkpt>
      <trkpt lat="50.76751" lon="3.7099">
        <ele>132</ele>
        <time>2015-12-13T09:51:23Z</time>
      </trkpt>
      <trkpt lat="50.76749" lon="3.70988">
        <ele>132</ele>
        <time>2015-12-13T09:51:25Z</time>
      </trkpt>
      <trkpt lat="50.76748" lon="3.70985">
        <ele>132</ele>
        <time>2015-12-13T09:51:27Z</time>
      </trkpt>
      <trkpt lat="50.76746" lon="3.70981">
        <ele>132</ele>
        <time>2015-12-13T09:51:32Z</time>
      </trkpt>
      <trkpt lat="50.76745" lon="3.70977">
        <ele>132</ele>
        <time>2015-12-13T09:51:34Z</time>
      </trkpt>
      <trkpt lat="50.76743" lon="3.70974">
        <ele>132</ele>
        <time>2015-12-13T09:51:36Z</time>
      </trkpt>
      <trkpt lat="50.76742" lon="3.70971">
        <ele>132</ele>
        <time>2015-12-13T09:51:38Z</time>
      </trkpt>
      <trkpt lat="50.76741" lon="3.70967">
        <ele>132</ele>
        <time>2015-12-13T09:51:40Z</time>
      </trkpt>
      <trkpt lat="50.7674" lon="3.70965">
        <ele>132</ele>
        <time>2015-12-13T09:51:43Z</time>
      </trkpt>
      <trkpt lat="50.76739" lon="3.70962">
        <ele>132</ele>
        <time>2015-12-13T09:51:50Z</time>
      </trkpt>
      <trkpt lat="50.76739" lon="3.70959">
        <ele>132</ele>
        <time>2015-12-13T09:51:52Z</time>
      </trkpt>
      <trkpt lat="50.76737" lon="3.70956">
        <ele>132</ele>
        <time>2015-12-13T09:51:55Z</time>
      </trkpt>
      <trkpt lat="50.76736" lon="3.70952">
        <ele>132</ele>
        <time>2015-12-13T09:51:58Z</time>
      </trkpt>
      <trkpt lat="50.76737" lon="3.70955">
        <ele>132</ele>
        <time>2015-12-13T09:52:10Z</time>
      </trkpt>
      <trkpt lat="50.76738" lon="3.70952">
        <ele>132</ele>
        <time>2015-12-13T09:52:18Z</time>
      </trkpt>
      <trkpt lat="50.76739" lon="3.7095">
        <ele>132</ele>
        <time>2015-12-13T09:52:20Z</time>
      </trkpt>
      <trkpt lat="50.76741" lon="3.70947">
        <ele>132</ele>
        <time>2015-12-13T09:52:23Z</time>
      </trkpt>
      <trkpt lat="50.76738" lon="3.7094">
        <ele>132</ele>
        <time>2015-12-13T09:52:54Z</time>
      </trkpt>
      <trkpt lat="50.76736" lon="3.70938">
        <ele>132</ele>
        <time>2015-12-13T09:52:56Z</time>
      </trkpt>
      <trkpt lat="50.76735" lon="3.70936">
        <ele>132</ele>
        <time>2015-12-13T09:52:58Z</time>
      </trkpt>
      <trkpt lat="50.76734" lon="3.70933">
        <ele>132</ele>
        <time>2015-12-13T09:53:00Z</time>
      </trkpt>
      <trkpt lat="50.76732" lon="3.7093">
        <ele>133</ele>
        <time>2015-12-13T09:53:02Z</time>
      </trkpt>
      <trkpt lat="50.76731" lon="3.70927">
        <ele>133</ele>
        <time>2015-12-13T09:53:04Z</time>
      </trkpt>
      <trkpt lat="50.7673" lon="3.70924">
        <ele>133</ele>
        <time>2015-12-13T09:53:06Z</time>
      </trkpt>
      <trkpt lat="50.76729" lon="3.70921">
        <ele>133</ele>
        <time>2015-12-13T09:53:09Z</time>
      </trkpt>
      <trkpt lat="50.76728" lon="3.70919">
        <ele>133</ele>
        <time>2015-12-13T09:53:11Z</time>
      </trkpt>
      <trkpt lat="50.76726" lon="3.70917">
        <ele>133</ele>
        <time>2015-12-13T09:53:13Z</time>
      </trkpt>
      <trkpt lat="50.76727" lon="3.70914">
        <ele>133</ele>
        <time>2015-12-13T09:53:39Z</time>
      </trkpt>
      <trkpt lat="50.76726" lon="3.70911">
        <ele>133</ele>
        <time>2015-12-13T09:53:43Z</time>
      </trkpt>
      <trkpt lat="50.76726" lon="3.70907">
        <ele>133</ele>
        <time>2015-12-13T09:53:48Z</time>
      </trkpt>
      <trkpt lat="50.76724" lon="3.70904">
        <ele>133</ele>
        <time>2015-12-13T09:53:50Z</time>
      </trkpt>
      <trkpt lat="50.76723" lon="3.709">
        <ele>133</ele>
        <time>2015-12-13T09:53:52Z</time>
      </trkpt>
      <trkpt lat="50.76721" lon="3.70897">
        <ele>133</ele>
        <time>2015-12-13T09:53:54Z</time>
      </trkpt>
      <trkpt lat="50.76719" lon="3.70893">
        <ele>133</ele>
        <time>2015-12-13T09:53:56Z</time>
      </trkpt>
      <trkpt lat="50.76717" lon="3.7089">
        <ele>133</ele>
        <time>2015-12-13T09:53:58Z</time>
      </trkpt>
      <trkpt lat="50.76716" lon="3.70886">
        <ele>133</ele>
        <time>2015-12-13T09:54:00Z</time>
      </trkpt>
      <trkpt lat="50.76716" lon="3.70882">
        <ele>133</ele>
        <time>2015-12-13T09:54:02Z</time>
      </trkpt>
      <trkpt lat="50.76715" lon="3.70878">
        <ele>133</ele>
        <time>2015-12-13T09:54:04Z</time>
      </trkpt>
      <trkpt lat="50.76714" lon="3.70875">
        <ele>133</ele>
        <time>2015-12-13T09:54:06Z</time>
      </trkpt>
      <trkpt lat="50.76712" lon="3.70872">
        <ele>133</ele>
        <time>2015-12-13T09:54:08Z</time>
      </trkpt>
      <trkpt lat="50.76711" lon="3.70868">
        <ele>133</ele>
        <time>2015-12-13T09:54:10Z</time>
      </trkpt>
      <trkpt lat="50.7671" lon="3.70864">
        <ele>134</ele>
        <time>2015-12-13T09:54:12Z</time>
      </trkpt>
      <trkpt lat="50.76709" lon="3.7086">
        <ele>134</ele>
        <time>2015-12-13T09:54:14Z</time>
      </trkpt>
      <trkpt lat="50.76708" lon="3.70857">
        <ele>134</ele>
        <time>2015-12-13T09:54:16Z</time>
      </trkpt>
      <trkpt lat="50.76706" lon="3.70853">
        <ele>134</ele>
        <time>2015-12-13T09:54:18Z</time>
      </trkpt>
      <trkpt lat="50.76705" lon="3.7085">
        <ele>134</ele>
        <time>2015-12-13T09:54:20Z</time>
      </trkpt>
      <trkpt lat="50.76703" lon="3.70848">
        <ele>134</ele>
        <time>2015-12-13T09:54:22Z</time>
      </trkpt>
      <trkpt lat="50.76702" lon="3.70844">
        <ele>134</ele>
        <time>2015-12-13T09:54:24Z</time>
      </trkpt>
      <trkpt lat="50.76701" lon="3.70842">
        <ele>134</ele>
        <time>2015-12-13T09:54:26Z</time>
      </trkpt>
      <trkpt lat="50.76699" lon="3.70839">
        <ele>134</ele>
        <time>2015-12-13T09:54:28Z</time>
      </trkpt>
      <trkpt lat="50.76698" lon="3.70835">
        <ele>135</ele>
        <time>2015-12-13T09:54:32Z</time>
      </trkpt>
      <trkpt lat="50.76697" lon="3.70831">
        <ele>135</ele>
        <time>2015-12-13T09:54:34Z</time>
      </trkpt>
      <trkpt lat="50.76696" lon="3.70828">
        <ele>135</ele>
        <time>2015-12-13T09:54:36Z</time>
      </trkpt>
      <trkpt lat="50.76695" lon="3.70825">
        <ele>135</ele>
        <time>2015-12-13T09:54:38Z</time>
      </trkpt>
      <trkpt lat="50.76694" lon="3.70822">
        <ele>135</ele>
        <time>2015-12-13T09:54:40Z</time>
      </trkpt>
      <trkpt lat="50.76692" lon="3.70818">
        <ele>137</ele>
        <time>2015-12-13T09:54:42Z</time>
      </trkpt>
      <trkpt lat="50.7669" lon="3.70815">
        <ele>137</ele>
        <time>2015-12-13T09:54:44Z</time>
      </trkpt>
      <trkpt lat="50.76689" lon="3.70811">
        <ele>137</ele>
        <time>2015-12-13T09:54:46Z</time>
      </trkpt>
      <trkpt lat="50.76688" lon="3.70807">
        <ele>137</ele>
        <time>2015-12-13T09:54:48Z</time>
      </trkpt>
      <trkpt lat="50.76687" lon="3.70805">
        <ele>137</ele>
        <time>2015-12-13T09:54:50Z</time>
      </trkpt>
      <trkpt lat="50.76688" lon="3.70802">
        <ele>138</ele>
        <time>2015-12-13T09:54:52Z</time>
      </trkpt>
      <trkpt lat="50.76688" lon="3.70798">
        <ele>138</ele>
        <time>2015-12-13T09:54:54Z</time>
      </trkpt>
    </trkseg>
  </trk>
</gpx>